<?xml version="1.0" encoding="UTF-8" standalone="no" ?>
<gpx xmlns="http://www.topografix.com/GPX/1/1" xmlns:xsi="http://www.w3.org/2001/XMLSchema-instance" xsi:schemaLocation="http://www.topografix.com/GPX/1/1 http://www.topografix.com/GPX/1/1/gpx.xsd" version="1.1" creator="VisuGPX - https://www.visugpx.com">
  <metadata>
    <name>2022_#18_Mozas -&amp;gt; Arol</name>
  </metadata>
  <trk>
    <name><![CDATA[2022_#18_Mozas -&gt; Arol_1]]></name>
    <trkseg>
      <trkpt lat="45.61483" lon="5.27476">
        <ele>295</ele>
        <time>2022-09-06T04:59:45.414Z</time>
      </trkpt>
      <trkpt lat="45.61484" lon="5.27477">
        <ele>295</ele>
        <time>2022-09-06T04:59:46.416Z</time>
      </trkpt>
      <trkpt lat="45.61485" lon="5.27477">
        <ele>295</ele>
        <time>2022-09-06T04:59:47.416Z</time>
      </trkpt>
      <trkpt lat="45.61486" lon="5.27478">
        <ele>294</ele>
        <time>2022-09-06T04:59:48.415Z</time>
      </trkpt>
      <trkpt lat="45.61487" lon="5.27477">
        <ele>294</ele>
        <time>2022-09-06T04:59:49.416Z</time>
      </trkpt>
      <trkpt lat="45.61488" lon="5.27476">
        <ele>293</ele>
        <time>2022-09-06T04:59:50.415Z</time>
      </trkpt>
      <trkpt lat="45.6149" lon="5.27476">
        <ele>293</ele>
        <time>2022-09-06T04:59:51.416Z</time>
      </trkpt>
      <trkpt lat="45.61492" lon="5.27475">
        <ele>292</ele>
        <time>2022-09-06T04:59:52.415Z</time>
      </trkpt>
      <trkpt lat="45.61493" lon="5.27475">
        <ele>292</ele>
        <time>2022-09-06T04:59:53.416Z</time>
      </trkpt>
      <trkpt lat="45.61495" lon="5.27476">
        <ele>292</ele>
        <time>2022-09-06T04:59:54.416Z</time>
      </trkpt>
      <trkpt lat="45.61495" lon="5.27476">
        <ele>292</ele>
        <time>2022-09-06T04:59:55.416Z</time>
      </trkpt>
      <trkpt lat="45.61497" lon="5.27477">
        <ele>291</ele>
        <time>2022-09-06T04:59:56.416Z</time>
      </trkpt>
      <trkpt lat="45.61503" lon="5.27479">
        <ele>291</ele>
        <time>2022-09-06T04:59:57.416Z</time>
      </trkpt>
      <trkpt lat="45.61511" lon="5.27481">
        <ele>290</ele>
        <time>2022-09-06T04:59:58.416Z</time>
      </trkpt>
      <trkpt lat="45.61517" lon="5.27483">
        <ele>287</ele>
        <time>2022-09-06T04:59:59.415Z</time>
      </trkpt>
      <trkpt lat="45.61522" lon="5.27485">
        <ele>284</ele>
        <time>2022-09-06T05:00:00.416Z</time>
      </trkpt>
      <trkpt lat="45.61527" lon="5.27488">
        <ele>281</ele>
        <time>2022-09-06T05:00:01.416Z</time>
      </trkpt>
      <trkpt lat="45.6153" lon="5.27491">
        <ele>278</ele>
        <time>2022-09-06T05:00:02.415Z</time>
      </trkpt>
      <trkpt lat="45.61532" lon="5.27495">
        <ele>274</ele>
        <time>2022-09-06T05:00:03.416Z</time>
      </trkpt>
      <trkpt lat="45.61533" lon="5.275">
        <ele>271</ele>
        <time>2022-09-06T05:00:04.416Z</time>
      </trkpt>
      <trkpt lat="45.61533" lon="5.27506">
        <ele>268</ele>
        <time>2022-09-06T05:00:05.416Z</time>
      </trkpt>
      <trkpt lat="45.61533" lon="5.27511">
        <ele>264</ele>
        <time>2022-09-06T05:00:06.416Z</time>
      </trkpt>
      <trkpt lat="45.61532" lon="5.27517">
        <ele>261</ele>
        <time>2022-09-06T05:00:07.416Z</time>
      </trkpt>
      <trkpt lat="45.61531" lon="5.27523">
        <ele>258</ele>
        <time>2022-09-06T05:00:08.416Z</time>
      </trkpt>
      <trkpt lat="45.61529" lon="5.2753">
        <ele>255</ele>
        <time>2022-09-06T05:00:09.416Z</time>
      </trkpt>
      <trkpt lat="45.61528" lon="5.27536">
        <ele>253</ele>
        <time>2022-09-06T05:00:10.415Z</time>
      </trkpt>
      <trkpt lat="45.61527" lon="5.27543">
        <ele>251</ele>
        <time>2022-09-06T05:00:11.415Z</time>
      </trkpt>
      <trkpt lat="45.61526" lon="5.27549">
        <ele>249</ele>
        <time>2022-09-06T05:00:12.416Z</time>
      </trkpt>
      <trkpt lat="45.61525" lon="5.27556">
        <ele>247</ele>
        <time>2022-09-06T05:00:13.415Z</time>
      </trkpt>
      <trkpt lat="45.61524" lon="5.27562">
        <ele>245</ele>
        <time>2022-09-06T05:00:14.416Z</time>
      </trkpt>
      <trkpt lat="45.61522" lon="5.27567">
        <ele>243</ele>
        <time>2022-09-06T05:00:15.415Z</time>
      </trkpt>
      <trkpt lat="45.6152" lon="5.27573">
        <ele>242</ele>
        <time>2022-09-06T05:00:16.416Z</time>
      </trkpt>
      <trkpt lat="45.61519" lon="5.27578">
        <ele>240</ele>
        <time>2022-09-06T05:00:17.416Z</time>
      </trkpt>
      <trkpt lat="45.6152" lon="5.27583">
        <ele>239</ele>
        <time>2022-09-06T05:00:18.416Z</time>
      </trkpt>
      <trkpt lat="45.61522" lon="5.27587">
        <ele>238</ele>
        <time>2022-09-06T05:00:19.416Z</time>
      </trkpt>
      <trkpt lat="45.61525" lon="5.27589">
        <ele>237</ele>
        <time>2022-09-06T05:00:20.415Z</time>
      </trkpt>
      <trkpt lat="45.61528" lon="5.27591">
        <ele>236</ele>
        <time>2022-09-06T05:00:21.416Z</time>
      </trkpt>
      <trkpt lat="45.61533" lon="5.27593">
        <ele>235</ele>
        <time>2022-09-06T05:00:22.416Z</time>
      </trkpt>
      <trkpt lat="45.61538" lon="5.27595">
        <ele>234</ele>
        <time>2022-09-06T05:00:23.416Z</time>
      </trkpt>
      <trkpt lat="45.61545" lon="5.27598">
        <ele>234</ele>
        <time>2022-09-06T05:00:24.415Z</time>
      </trkpt>
      <trkpt lat="45.61552" lon="5.276">
        <ele>233</ele>
        <time>2022-09-06T05:00:25.416Z</time>
      </trkpt>
      <trkpt lat="45.61559" lon="5.27603">
        <ele>232</ele>
        <time>2022-09-06T05:00:26.415Z</time>
      </trkpt>
      <trkpt lat="45.61565" lon="5.27605">
        <ele>231</ele>
        <time>2022-09-06T05:00:27.416Z</time>
      </trkpt>
      <trkpt lat="45.61571" lon="5.27607">
        <ele>230</ele>
        <time>2022-09-06T05:00:28.416Z</time>
      </trkpt>
      <trkpt lat="45.61577" lon="5.2761">
        <ele>229</ele>
        <time>2022-09-06T05:00:29.416Z</time>
      </trkpt>
      <trkpt lat="45.61582" lon="5.27613">
        <ele>228</ele>
        <time>2022-09-06T05:00:30.415Z</time>
      </trkpt>
      <trkpt lat="45.61588" lon="5.27615">
        <ele>227</ele>
        <time>2022-09-06T05:00:31.416Z</time>
      </trkpt>
      <trkpt lat="45.61594" lon="5.27617">
        <ele>227</ele>
        <time>2022-09-06T05:00:32.415Z</time>
      </trkpt>
      <trkpt lat="45.61601" lon="5.27619">
        <ele>226</ele>
        <time>2022-09-06T05:00:33.416Z</time>
      </trkpt>
      <trkpt lat="45.61607" lon="5.27621">
        <ele>226</ele>
        <time>2022-09-06T05:00:34.416Z</time>
      </trkpt>
      <trkpt lat="45.61614" lon="5.27624">
        <ele>226</ele>
        <time>2022-09-06T05:00:35.415Z</time>
      </trkpt>
      <trkpt lat="45.6162" lon="5.27627">
        <ele>225</ele>
        <time>2022-09-06T05:00:36.415Z</time>
      </trkpt>
      <trkpt lat="45.61627" lon="5.2763">
        <ele>225</ele>
        <time>2022-09-06T05:00:37.415Z</time>
      </trkpt>
      <trkpt lat="45.61633" lon="5.27633">
        <ele>225</ele>
        <time>2022-09-06T05:00:38.416Z</time>
      </trkpt>
      <trkpt lat="45.6164" lon="5.27636">
        <ele>224</ele>
        <time>2022-09-06T05:00:39.416Z</time>
      </trkpt>
      <trkpt lat="45.61646" lon="5.2764">
        <ele>224</ele>
        <time>2022-09-06T05:00:40.416Z</time>
      </trkpt>
      <trkpt lat="45.61652" lon="5.27643">
        <ele>224</ele>
        <time>2022-09-06T05:00:41.415Z</time>
      </trkpt>
      <trkpt lat="45.61659" lon="5.27646">
        <ele>223</ele>
        <time>2022-09-06T05:00:42.416Z</time>
      </trkpt>
      <trkpt lat="45.61665" lon="5.27649">
        <ele>223</ele>
        <time>2022-09-06T05:00:43.416Z</time>
      </trkpt>
      <trkpt lat="45.61672" lon="5.27653">
        <ele>222</ele>
        <time>2022-09-06T05:00:44.416Z</time>
      </trkpt>
      <trkpt lat="45.61678" lon="5.27656">
        <ele>222</ele>
        <time>2022-09-06T05:00:45.416Z</time>
      </trkpt>
      <trkpt lat="45.61684" lon="5.2766">
        <ele>222</ele>
        <time>2022-09-06T05:00:46.416Z</time>
      </trkpt>
      <trkpt lat="45.61691" lon="5.27663">
        <ele>221</ele>
        <time>2022-09-06T05:00:47.416Z</time>
      </trkpt>
      <trkpt lat="45.61697" lon="5.27666">
        <ele>221</ele>
        <time>2022-09-06T05:00:48.416Z</time>
      </trkpt>
      <trkpt lat="45.61704" lon="5.2767">
        <ele>221</ele>
        <time>2022-09-06T05:00:49.416Z</time>
      </trkpt>
      <trkpt lat="45.6171" lon="5.27673">
        <ele>220</ele>
        <time>2022-09-06T05:00:50.415Z</time>
      </trkpt>
      <trkpt lat="45.61717" lon="5.27676">
        <ele>220</ele>
        <time>2022-09-06T05:00:51.416Z</time>
      </trkpt>
      <trkpt lat="45.61723" lon="5.2768">
        <ele>220</ele>
        <time>2022-09-06T05:00:52.416Z</time>
      </trkpt>
      <trkpt lat="45.6173" lon="5.27684">
        <ele>221</ele>
        <time>2022-09-06T05:00:53.415Z</time>
      </trkpt>
      <trkpt lat="45.61737" lon="5.27687">
        <ele>220</ele>
        <time>2022-09-06T05:00:54.416Z</time>
      </trkpt>
      <trkpt lat="45.61744" lon="5.2769">
        <ele>220</ele>
        <time>2022-09-06T05:00:55.415Z</time>
      </trkpt>
      <trkpt lat="45.6175" lon="5.27693">
        <ele>220</ele>
        <time>2022-09-06T05:00:56.416Z</time>
      </trkpt>
      <trkpt lat="45.61757" lon="5.27697">
        <ele>221</ele>
        <time>2022-09-06T05:00:57.415Z</time>
      </trkpt>
      <trkpt lat="45.61763" lon="5.27699">
        <ele>221</ele>
        <time>2022-09-06T05:00:58.416Z</time>
      </trkpt>
      <trkpt lat="45.6177" lon="5.27699">
        <ele>222</ele>
        <time>2022-09-06T05:00:59.416Z</time>
      </trkpt>
      <trkpt lat="45.61776" lon="5.27697">
        <ele>222</ele>
        <time>2022-09-06T05:01:00.416Z</time>
      </trkpt>
      <trkpt lat="45.61781" lon="5.27692">
        <ele>223</ele>
        <time>2022-09-06T05:01:01.416Z</time>
      </trkpt>
      <trkpt lat="45.61785" lon="5.27685">
        <ele>223</ele>
        <time>2022-09-06T05:01:02.416Z</time>
      </trkpt>
      <trkpt lat="45.61788" lon="5.27676">
        <ele>224</ele>
        <time>2022-09-06T05:01:03.415Z</time>
      </trkpt>
      <trkpt lat="45.6179" lon="5.27666">
        <ele>224</ele>
        <time>2022-09-06T05:01:04.415Z</time>
      </trkpt>
      <trkpt lat="45.61793" lon="5.27657">
        <ele>224</ele>
        <time>2022-09-06T05:01:05.415Z</time>
      </trkpt>
      <trkpt lat="45.61796" lon="5.27647">
        <ele>224</ele>
        <time>2022-09-06T05:01:06.416Z</time>
      </trkpt>
      <trkpt lat="45.61799" lon="5.27637">
        <ele>224</ele>
        <time>2022-09-06T05:01:07.415Z</time>
      </trkpt>
      <trkpt lat="45.61802" lon="5.27626">
        <ele>224</ele>
        <time>2022-09-06T05:01:08.415Z</time>
      </trkpt>
      <trkpt lat="45.61804" lon="5.27616">
        <ele>224</ele>
        <time>2022-09-06T05:01:09.415Z</time>
      </trkpt>
      <trkpt lat="45.61807" lon="5.27605">
        <ele>223</ele>
        <time>2022-09-06T05:01:10.416Z</time>
      </trkpt>
      <trkpt lat="45.6181" lon="5.27595">
        <ele>223</ele>
        <time>2022-09-06T05:01:11.416Z</time>
      </trkpt>
      <trkpt lat="45.61812" lon="5.27585">
        <ele>222</ele>
        <time>2022-09-06T05:01:12.415Z</time>
      </trkpt>
      <trkpt lat="45.61814" lon="5.27575">
        <ele>222</ele>
        <time>2022-09-06T05:01:13.415Z</time>
      </trkpt>
      <trkpt lat="45.61816" lon="5.27564">
        <ele>222</ele>
        <time>2022-09-06T05:01:14.416Z</time>
      </trkpt>
      <trkpt lat="45.61819" lon="5.27555">
        <ele>221</ele>
        <time>2022-09-06T05:01:15.416Z</time>
      </trkpt>
      <trkpt lat="45.61822" lon="5.27545">
        <ele>220</ele>
        <time>2022-09-06T05:01:16.416Z</time>
      </trkpt>
      <trkpt lat="45.61824" lon="5.27536">
        <ele>220</ele>
        <time>2022-09-06T05:01:17.415Z</time>
      </trkpt>
      <trkpt lat="45.61826" lon="5.27527">
        <ele>219</ele>
        <time>2022-09-06T05:01:18.416Z</time>
      </trkpt>
      <trkpt lat="45.61828" lon="5.27518">
        <ele>218</ele>
        <time>2022-09-06T05:01:19.415Z</time>
      </trkpt>
      <trkpt lat="45.61831" lon="5.2751">
        <ele>218</ele>
        <time>2022-09-06T05:01:20.415Z</time>
      </trkpt>
      <trkpt lat="45.61834" lon="5.27503">
        <ele>218</ele>
        <time>2022-09-06T05:01:21.416Z</time>
      </trkpt>
      <trkpt lat="45.61839" lon="5.27497">
        <ele>218</ele>
        <time>2022-09-06T05:01:22.416Z</time>
      </trkpt>
      <trkpt lat="45.61844" lon="5.27493">
        <ele>218</ele>
        <time>2022-09-06T05:01:23.415Z</time>
      </trkpt>
      <trkpt lat="45.6185" lon="5.27491">
        <ele>219</ele>
        <time>2022-09-06T05:01:24.415Z</time>
      </trkpt>
      <trkpt lat="45.61856" lon="5.27492">
        <ele>220</ele>
        <time>2022-09-06T05:01:25.416Z</time>
      </trkpt>
      <trkpt lat="45.61862" lon="5.27496">
        <ele>220</ele>
        <time>2022-09-06T05:01:26.416Z</time>
      </trkpt>
      <trkpt lat="45.61867" lon="5.27499">
        <ele>220</ele>
        <time>2022-09-06T05:01:27.415Z</time>
      </trkpt>
      <trkpt lat="45.61872" lon="5.27503">
        <ele>220</ele>
        <time>2022-09-06T05:01:28.415Z</time>
      </trkpt>
      <trkpt lat="45.61878" lon="5.27507">
        <ele>221</ele>
        <time>2022-09-06T05:01:29.415Z</time>
      </trkpt>
      <trkpt lat="45.61884" lon="5.27512">
        <ele>221</ele>
        <time>2022-09-06T05:01:30.415Z</time>
      </trkpt>
      <trkpt lat="45.6189" lon="5.27517">
        <ele>220</ele>
        <time>2022-09-06T05:01:31.416Z</time>
      </trkpt>
      <trkpt lat="45.61895" lon="5.27522">
        <ele>220</ele>
        <time>2022-09-06T05:01:32.416Z</time>
      </trkpt>
      <trkpt lat="45.61901" lon="5.27527">
        <ele>220</ele>
        <time>2022-09-06T05:01:33.416Z</time>
      </trkpt>
      <trkpt lat="45.61906" lon="5.27532">
        <ele>220</ele>
        <time>2022-09-06T05:01:34.415Z</time>
      </trkpt>
      <trkpt lat="45.61912" lon="5.27538">
        <ele>220</ele>
        <time>2022-09-06T05:01:35.416Z</time>
      </trkpt>
      <trkpt lat="45.61918" lon="5.27542">
        <ele>219</ele>
        <time>2022-09-06T05:01:36.416Z</time>
      </trkpt>
      <trkpt lat="45.61923" lon="5.27547">
        <ele>219</ele>
        <time>2022-09-06T05:01:37.415Z</time>
      </trkpt>
      <trkpt lat="45.61929" lon="5.27551">
        <ele>219</ele>
        <time>2022-09-06T05:01:38.415Z</time>
      </trkpt>
      <trkpt lat="45.61934" lon="5.27556">
        <ele>218</ele>
        <time>2022-09-06T05:01:39.415Z</time>
      </trkpt>
      <trkpt lat="45.61939" lon="5.27561">
        <ele>218</ele>
        <time>2022-09-06T05:01:40.416Z</time>
      </trkpt>
      <trkpt lat="45.61944" lon="5.27568">
        <ele>218</ele>
        <time>2022-09-06T05:01:41.416Z</time>
      </trkpt>
      <trkpt lat="45.6195" lon="5.27574">
        <ele>218</ele>
        <time>2022-09-06T05:01:42.415Z</time>
      </trkpt>
      <trkpt lat="45.61955" lon="5.2758">
        <ele>219</ele>
        <time>2022-09-06T05:01:43.416Z</time>
      </trkpt>
      <trkpt lat="45.6196" lon="5.27586">
        <ele>219</ele>
        <time>2022-09-06T05:01:44.415Z</time>
      </trkpt>
      <trkpt lat="45.61965" lon="5.27593">
        <ele>220</ele>
        <time>2022-09-06T05:01:45.416Z</time>
      </trkpt>
      <trkpt lat="45.61968" lon="5.27599">
        <ele>220</ele>
        <time>2022-09-06T05:01:46.416Z</time>
      </trkpt>
      <trkpt lat="45.61974" lon="5.27608">
        <ele>220</ele>
        <time>2022-09-06T05:01:47.415Z</time>
      </trkpt>
      <trkpt lat="45.61978" lon="5.27615">
        <ele>220</ele>
        <time>2022-09-06T05:01:48.416Z</time>
      </trkpt>
      <trkpt lat="45.61983" lon="5.27621">
        <ele>219</ele>
        <time>2022-09-06T05:01:49.416Z</time>
      </trkpt>
      <trkpt lat="45.61987" lon="5.27626">
        <ele>219</ele>
        <time>2022-09-06T05:01:50.415Z</time>
      </trkpt>
      <trkpt lat="45.61992" lon="5.27632">
        <ele>219</ele>
        <time>2022-09-06T05:01:51.416Z</time>
      </trkpt>
      <trkpt lat="45.61995" lon="5.27636">
        <ele>219</ele>
        <time>2022-09-06T05:01:52.415Z</time>
      </trkpt>
      <trkpt lat="45.61999" lon="5.27642">
        <ele>220</ele>
        <time>2022-09-06T05:01:53.416Z</time>
      </trkpt>
      <trkpt lat="45.62001" lon="5.27647">
        <ele>220</ele>
        <time>2022-09-06T05:01:54.415Z</time>
      </trkpt>
      <trkpt lat="45.62004" lon="5.27654">
        <ele>220</ele>
        <time>2022-09-06T05:01:55.416Z</time>
      </trkpt>
      <trkpt lat="45.62008" lon="5.27663">
        <ele>220</ele>
        <time>2022-09-06T05:01:56.416Z</time>
      </trkpt>
      <trkpt lat="45.6201" lon="5.27669">
        <ele>220</ele>
        <time>2022-09-06T05:01:57.415Z</time>
      </trkpt>
      <trkpt lat="45.62012" lon="5.27677">
        <ele>220</ele>
        <time>2022-09-06T05:01:58.416Z</time>
      </trkpt>
      <trkpt lat="45.62015" lon="5.27685">
        <ele>220</ele>
        <time>2022-09-06T05:01:59.415Z</time>
      </trkpt>
      <trkpt lat="45.62018" lon="5.27695">
        <ele>220</ele>
        <time>2022-09-06T05:02:00.415Z</time>
      </trkpt>
      <trkpt lat="45.6202" lon="5.27703">
        <ele>220</ele>
        <time>2022-09-06T05:02:01.416Z</time>
      </trkpt>
      <trkpt lat="45.62023" lon="5.27712">
        <ele>220</ele>
        <time>2022-09-06T05:02:02.415Z</time>
      </trkpt>
      <trkpt lat="45.62026" lon="5.2772">
        <ele>220</ele>
        <time>2022-09-06T05:02:03.415Z</time>
      </trkpt>
      <trkpt lat="45.62028" lon="5.27727">
        <ele>221</ele>
        <time>2022-09-06T05:02:04.415Z</time>
      </trkpt>
      <trkpt lat="45.62031" lon="5.27737">
        <ele>221</ele>
        <time>2022-09-06T05:02:05.415Z</time>
      </trkpt>
      <trkpt lat="45.62034" lon="5.27746">
        <ele>222</ele>
        <time>2022-09-06T05:02:06.416Z</time>
      </trkpt>
      <trkpt lat="45.62037" lon="5.27754">
        <ele>222</ele>
        <time>2022-09-06T05:02:07.415Z</time>
      </trkpt>
      <trkpt lat="45.62039" lon="5.27762">
        <ele>222</ele>
        <time>2022-09-06T05:02:08.415Z</time>
      </trkpt>
      <trkpt lat="45.62042" lon="5.2777">
        <ele>222</ele>
        <time>2022-09-06T05:02:09.415Z</time>
      </trkpt>
      <trkpt lat="45.62045" lon="5.27779">
        <ele>221</ele>
        <time>2022-09-06T05:02:10.415Z</time>
      </trkpt>
      <trkpt lat="45.62048" lon="5.27787">
        <ele>221</ele>
        <time>2022-09-06T05:02:11.415Z</time>
      </trkpt>
      <trkpt lat="45.62051" lon="5.27795">
        <ele>221</ele>
        <time>2022-09-06T05:02:12.415Z</time>
      </trkpt>
      <trkpt lat="45.62053" lon="5.27801">
        <ele>220</ele>
        <time>2022-09-06T05:02:13.415Z</time>
      </trkpt>
      <trkpt lat="45.62056" lon="5.27811">
        <ele>220</ele>
        <time>2022-09-06T05:02:14.415Z</time>
      </trkpt>
      <trkpt lat="45.62059" lon="5.27819">
        <ele>220</ele>
        <time>2022-09-06T05:02:15.415Z</time>
      </trkpt>
      <trkpt lat="45.62061" lon="5.27825">
        <ele>220</ele>
        <time>2022-09-06T05:02:16.415Z</time>
      </trkpt>
      <trkpt lat="45.62064" lon="5.27833">
        <ele>220</ele>
        <time>2022-09-06T05:02:17.415Z</time>
      </trkpt>
      <trkpt lat="45.62067" lon="5.27841">
        <ele>220</ele>
        <time>2022-09-06T05:02:18.415Z</time>
      </trkpt>
      <trkpt lat="45.62071" lon="5.2785">
        <ele>220</ele>
        <time>2022-09-06T05:02:19.415Z</time>
      </trkpt>
      <trkpt lat="45.62074" lon="5.27858">
        <ele>220</ele>
        <time>2022-09-06T05:02:20.415Z</time>
      </trkpt>
      <trkpt lat="45.62078" lon="5.27865">
        <ele>221</ele>
        <time>2022-09-06T05:02:21.415Z</time>
      </trkpt>
      <trkpt lat="45.6208" lon="5.27871">
        <ele>221</ele>
        <time>2022-09-06T05:02:22.415Z</time>
      </trkpt>
      <trkpt lat="45.62084" lon="5.2788">
        <ele>222</ele>
        <time>2022-09-06T05:02:23.415Z</time>
      </trkpt>
      <trkpt lat="45.62088" lon="5.27888">
        <ele>222</ele>
        <time>2022-09-06T05:02:24.415Z</time>
      </trkpt>
      <trkpt lat="45.62091" lon="5.27895">
        <ele>224</ele>
        <time>2022-09-06T05:02:25.415Z</time>
      </trkpt>
      <trkpt lat="45.62095" lon="5.27902">
        <ele>225</ele>
        <time>2022-09-06T05:02:26.416Z</time>
      </trkpt>
      <trkpt lat="45.62098" lon="5.27908">
        <ele>225</ele>
        <time>2022-09-06T05:02:27.415Z</time>
      </trkpt>
      <trkpt lat="45.62102" lon="5.27917">
        <ele>226</ele>
        <time>2022-09-06T05:02:28.415Z</time>
      </trkpt>
      <trkpt lat="45.62106" lon="5.27925">
        <ele>228</ele>
        <time>2022-09-06T05:02:29.415Z</time>
      </trkpt>
      <trkpt lat="45.62109" lon="5.2793">
        <ele>229</ele>
        <time>2022-09-06T05:02:30.415Z</time>
      </trkpt>
      <trkpt lat="45.62113" lon="5.27938">
        <ele>230</ele>
        <time>2022-09-06T05:02:31.416Z</time>
      </trkpt>
      <trkpt lat="45.62118" lon="5.27947">
        <ele>230</ele>
        <time>2022-09-06T05:02:32.415Z</time>
      </trkpt>
      <trkpt lat="45.62122" lon="5.27954">
        <ele>230</ele>
        <time>2022-09-06T05:02:33.416Z</time>
      </trkpt>
      <trkpt lat="45.62126" lon="5.27961">
        <ele>231</ele>
        <time>2022-09-06T05:02:34.415Z</time>
      </trkpt>
      <trkpt lat="45.62129" lon="5.27967">
        <ele>231</ele>
        <time>2022-09-06T05:02:35.415Z</time>
      </trkpt>
      <trkpt lat="45.62134" lon="5.27974">
        <ele>231</ele>
        <time>2022-09-06T05:02:36.416Z</time>
      </trkpt>
      <trkpt lat="45.62139" lon="5.27983">
        <ele>231</ele>
        <time>2022-09-06T05:02:37.415Z</time>
      </trkpt>
      <trkpt lat="45.62143" lon="5.2799">
        <ele>231</ele>
        <time>2022-09-06T05:02:38.415Z</time>
      </trkpt>
      <trkpt lat="45.62148" lon="5.27997">
        <ele>231</ele>
        <time>2022-09-06T05:02:39.415Z</time>
      </trkpt>
      <trkpt lat="45.62152" lon="5.28003">
        <ele>231</ele>
        <time>2022-09-06T05:02:40.415Z</time>
      </trkpt>
      <trkpt lat="45.62158" lon="5.28012">
        <ele>231</ele>
        <time>2022-09-06T05:02:41.415Z</time>
      </trkpt>
      <trkpt lat="45.62163" lon="5.28019">
        <ele>231</ele>
        <time>2022-09-06T05:02:42.415Z</time>
      </trkpt>
      <trkpt lat="45.62168" lon="5.28026">
        <ele>231</ele>
        <time>2022-09-06T05:02:43.415Z</time>
      </trkpt>
      <trkpt lat="45.62172" lon="5.28032">
        <ele>230</ele>
        <time>2022-09-06T05:02:44.416Z</time>
      </trkpt>
      <trkpt lat="45.62177" lon="5.28039">
        <ele>230</ele>
        <time>2022-09-06T05:02:45.415Z</time>
      </trkpt>
      <trkpt lat="45.62184" lon="5.28047">
        <ele>230</ele>
        <time>2022-09-06T05:02:46.415Z</time>
      </trkpt>
      <trkpt lat="45.62189" lon="5.28055">
        <ele>229</ele>
        <time>2022-09-06T05:02:47.416Z</time>
      </trkpt>
      <trkpt lat="45.62195" lon="5.28062">
        <ele>228</ele>
        <time>2022-09-06T05:02:48.416Z</time>
      </trkpt>
      <trkpt lat="45.62199" lon="5.28068">
        <ele>228</ele>
        <time>2022-09-06T05:02:49.415Z</time>
      </trkpt>
      <trkpt lat="45.62205" lon="5.28075">
        <ele>227</ele>
        <time>2022-09-06T05:02:50.416Z</time>
      </trkpt>
      <trkpt lat="45.62211" lon="5.28084">
        <ele>227</ele>
        <time>2022-09-06T05:02:51.415Z</time>
      </trkpt>
      <trkpt lat="45.62217" lon="5.28091">
        <ele>227</ele>
        <time>2022-09-06T05:02:52.415Z</time>
      </trkpt>
      <trkpt lat="45.62223" lon="5.28099">
        <ele>226</ele>
        <time>2022-09-06T05:02:53.416Z</time>
      </trkpt>
      <trkpt lat="45.62229" lon="5.28106">
        <ele>226</ele>
        <time>2022-09-06T05:02:54.415Z</time>
      </trkpt>
      <trkpt lat="45.62236" lon="5.28114">
        <ele>225</ele>
        <time>2022-09-06T05:02:55.416Z</time>
      </trkpt>
      <trkpt lat="45.62242" lon="5.28122">
        <ele>225</ele>
        <time>2022-09-06T05:02:56.416Z</time>
      </trkpt>
      <trkpt lat="45.62249" lon="5.2813">
        <ele>225</ele>
        <time>2022-09-06T05:02:57.416Z</time>
      </trkpt>
      <trkpt lat="45.62256" lon="5.28138">
        <ele>224</ele>
        <time>2022-09-06T05:02:58.416Z</time>
      </trkpt>
      <trkpt lat="45.62262" lon="5.28146">
        <ele>224</ele>
        <time>2022-09-06T05:02:59.415Z</time>
      </trkpt>
      <trkpt lat="45.62269" lon="5.28154">
        <ele>223</ele>
        <time>2022-09-06T05:03:00.416Z</time>
      </trkpt>
      <trkpt lat="45.62275" lon="5.28162">
        <ele>223</ele>
        <time>2022-09-06T05:03:01.415Z</time>
      </trkpt>
      <trkpt lat="45.62282" lon="5.2817">
        <ele>223</ele>
        <time>2022-09-06T05:03:02.416Z</time>
      </trkpt>
      <trkpt lat="45.6229" lon="5.28179">
        <ele>223</ele>
        <time>2022-09-06T05:03:03.416Z</time>
      </trkpt>
      <trkpt lat="45.62296" lon="5.28187">
        <ele>223</ele>
        <time>2022-09-06T05:03:04.416Z</time>
      </trkpt>
      <trkpt lat="45.62303" lon="5.28196">
        <ele>223</ele>
        <time>2022-09-06T05:03:05.416Z</time>
      </trkpt>
      <trkpt lat="45.6231" lon="5.28204">
        <ele>223</ele>
        <time>2022-09-06T05:03:06.416Z</time>
      </trkpt>
      <trkpt lat="45.62317" lon="5.28213">
        <ele>223</ele>
        <time>2022-09-06T05:03:07.416Z</time>
      </trkpt>
      <trkpt lat="45.62323" lon="5.28222">
        <ele>223</ele>
        <time>2022-09-06T05:03:08.416Z</time>
      </trkpt>
      <trkpt lat="45.62331" lon="5.28231">
        <ele>223</ele>
        <time>2022-09-06T05:03:09.415Z</time>
      </trkpt>
      <trkpt lat="45.62338" lon="5.2824">
        <ele>223</ele>
        <time>2022-09-06T05:03:10.415Z</time>
      </trkpt>
      <trkpt lat="45.62345" lon="5.28249">
        <ele>223</ele>
        <time>2022-09-06T05:03:11.416Z</time>
      </trkpt>
      <trkpt lat="45.62352" lon="5.28258">
        <ele>224</ele>
        <time>2022-09-06T05:03:12.416Z</time>
      </trkpt>
      <trkpt lat="45.62359" lon="5.28267">
        <ele>224</ele>
        <time>2022-09-06T05:03:13.416Z</time>
      </trkpt>
      <trkpt lat="45.62367" lon="5.28276">
        <ele>224</ele>
        <time>2022-09-06T05:03:14.415Z</time>
      </trkpt>
      <trkpt lat="45.62374" lon="5.28285">
        <ele>225</ele>
        <time>2022-09-06T05:03:15.416Z</time>
      </trkpt>
      <trkpt lat="45.62381" lon="5.28294">
        <ele>225</ele>
        <time>2022-09-06T05:03:16.416Z</time>
      </trkpt>
      <trkpt lat="45.62388" lon="5.28303">
        <ele>225</ele>
        <time>2022-09-06T05:03:17.415Z</time>
      </trkpt>
      <trkpt lat="45.62395" lon="5.28312">
        <ele>224</ele>
        <time>2022-09-06T05:03:18.416Z</time>
      </trkpt>
      <trkpt lat="45.62402" lon="5.28322">
        <ele>224</ele>
        <time>2022-09-06T05:03:19.416Z</time>
      </trkpt>
      <trkpt lat="45.6241" lon="5.28331">
        <ele>224</ele>
        <time>2022-09-06T05:03:20.416Z</time>
      </trkpt>
      <trkpt lat="45.62417" lon="5.2834">
        <ele>224</ele>
        <time>2022-09-06T05:03:21.416Z</time>
      </trkpt>
      <trkpt lat="45.62424" lon="5.28349">
        <ele>224</ele>
        <time>2022-09-06T05:03:22.416Z</time>
      </trkpt>
      <trkpt lat="45.62431" lon="5.28358">
        <ele>224</ele>
        <time>2022-09-06T05:03:23.416Z</time>
      </trkpt>
      <trkpt lat="45.62437" lon="5.28366">
        <ele>224</ele>
        <time>2022-09-06T05:03:24.416Z</time>
      </trkpt>
      <trkpt lat="45.62444" lon="5.28375">
        <ele>224</ele>
        <time>2022-09-06T05:03:25.415Z</time>
      </trkpt>
      <trkpt lat="45.6245" lon="5.28384">
        <ele>223</ele>
        <time>2022-09-06T05:03:26.416Z</time>
      </trkpt>
      <trkpt lat="45.62457" lon="5.28394">
        <ele>223</ele>
        <time>2022-09-06T05:03:27.415Z</time>
      </trkpt>
      <trkpt lat="45.62462" lon="5.28403">
        <ele>223</ele>
        <time>2022-09-06T05:03:28.416Z</time>
      </trkpt>
      <trkpt lat="45.62468" lon="5.28413">
        <ele>223</ele>
        <time>2022-09-06T05:03:29.416Z</time>
      </trkpt>
      <trkpt lat="45.62473" lon="5.28424">
        <ele>223</ele>
        <time>2022-09-06T05:03:30.416Z</time>
      </trkpt>
      <trkpt lat="45.62477" lon="5.28435">
        <ele>222</ele>
        <time>2022-09-06T05:03:31.416Z</time>
      </trkpt>
      <trkpt lat="45.6248" lon="5.28447">
        <ele>222</ele>
        <time>2022-09-06T05:03:32.415Z</time>
      </trkpt>
      <trkpt lat="45.62483" lon="5.28459">
        <ele>222</ele>
        <time>2022-09-06T05:03:33.416Z</time>
      </trkpt>
      <trkpt lat="45.62485" lon="5.28471">
        <ele>221</ele>
        <time>2022-09-06T05:03:34.416Z</time>
      </trkpt>
      <trkpt lat="45.62486" lon="5.28483">
        <ele>220</ele>
        <time>2022-09-06T05:03:35.416Z</time>
      </trkpt>
      <trkpt lat="45.62488" lon="5.28495">
        <ele>219</ele>
        <time>2022-09-06T05:03:36.416Z</time>
      </trkpt>
      <trkpt lat="45.6249" lon="5.28507">
        <ele>219</ele>
        <time>2022-09-06T05:03:37.416Z</time>
      </trkpt>
      <trkpt lat="45.62491" lon="5.28518">
        <ele>217</ele>
        <time>2022-09-06T05:03:38.416Z</time>
      </trkpt>
      <trkpt lat="45.62493" lon="5.28529">
        <ele>216</ele>
        <time>2022-09-06T05:03:39.416Z</time>
      </trkpt>
      <trkpt lat="45.62496" lon="5.28539">
        <ele>215</ele>
        <time>2022-09-06T05:03:40.416Z</time>
      </trkpt>
      <trkpt lat="45.625" lon="5.28549">
        <ele>214</ele>
        <time>2022-09-06T05:03:41.416Z</time>
      </trkpt>
      <trkpt lat="45.62504" lon="5.28558">
        <ele>214</ele>
        <time>2022-09-06T05:03:42.416Z</time>
      </trkpt>
      <trkpt lat="45.62509" lon="5.28567">
        <ele>214</ele>
        <time>2022-09-06T05:03:43.416Z</time>
      </trkpt>
      <trkpt lat="45.62514" lon="5.28576">
        <ele>214</ele>
        <time>2022-09-06T05:03:44.416Z</time>
      </trkpt>
      <trkpt lat="45.62519" lon="5.28584">
        <ele>214</ele>
        <time>2022-09-06T05:03:45.415Z</time>
      </trkpt>
      <trkpt lat="45.62524" lon="5.28592">
        <ele>215</ele>
        <time>2022-09-06T05:03:46.416Z</time>
      </trkpt>
      <trkpt lat="45.62529" lon="5.286">
        <ele>215</ele>
        <time>2022-09-06T05:03:47.416Z</time>
      </trkpt>
      <trkpt lat="45.62535" lon="5.28608">
        <ele>216</ele>
        <time>2022-09-06T05:03:48.416Z</time>
      </trkpt>
      <trkpt lat="45.6254" lon="5.28616">
        <ele>216</ele>
        <time>2022-09-06T05:03:49.415Z</time>
      </trkpt>
      <trkpt lat="45.62545" lon="5.28624">
        <ele>216</ele>
        <time>2022-09-06T05:03:50.416Z</time>
      </trkpt>
      <trkpt lat="45.6255" lon="5.28633">
        <ele>216</ele>
        <time>2022-09-06T05:03:51.416Z</time>
      </trkpt>
      <trkpt lat="45.62555" lon="5.28641">
        <ele>216</ele>
        <time>2022-09-06T05:03:52.415Z</time>
      </trkpt>
      <trkpt lat="45.6256" lon="5.28649">
        <ele>217</ele>
        <time>2022-09-06T05:03:53.415Z</time>
      </trkpt>
      <trkpt lat="45.62565" lon="5.28657">
        <ele>217</ele>
        <time>2022-09-06T05:03:54.416Z</time>
      </trkpt>
      <trkpt lat="45.62569" lon="5.28665">
        <ele>217</ele>
        <time>2022-09-06T05:03:55.416Z</time>
      </trkpt>
      <trkpt lat="45.62573" lon="5.28673">
        <ele>217</ele>
        <time>2022-09-06T05:03:56.416Z</time>
      </trkpt>
      <trkpt lat="45.62576" lon="5.28682">
        <ele>217</ele>
        <time>2022-09-06T05:03:57.416Z</time>
      </trkpt>
      <trkpt lat="45.62578" lon="5.2869">
        <ele>217</ele>
        <time>2022-09-06T05:03:58.416Z</time>
      </trkpt>
      <trkpt lat="45.62581" lon="5.28699">
        <ele>217</ele>
        <time>2022-09-06T05:03:59.416Z</time>
      </trkpt>
      <trkpt lat="45.62585" lon="5.28707">
        <ele>217</ele>
        <time>2022-09-06T05:04:00.416Z</time>
      </trkpt>
      <trkpt lat="45.62589" lon="5.28713">
        <ele>218</ele>
        <time>2022-09-06T05:04:01.416Z</time>
      </trkpt>
      <trkpt lat="45.62595" lon="5.28716">
        <ele>218</ele>
        <time>2022-09-06T05:04:02.416Z</time>
      </trkpt>
      <trkpt lat="45.62602" lon="5.28717">
        <ele>218</ele>
        <time>2022-09-06T05:04:03.416Z</time>
      </trkpt>
      <trkpt lat="45.62609" lon="5.28715">
        <ele>218</ele>
        <time>2022-09-06T05:04:04.416Z</time>
      </trkpt>
      <trkpt lat="45.62616" lon="5.28712">
        <ele>218</ele>
        <time>2022-09-06T05:04:05.416Z</time>
      </trkpt>
      <trkpt lat="45.62624" lon="5.2871">
        <ele>218</ele>
        <time>2022-09-06T05:04:06.416Z</time>
      </trkpt>
      <trkpt lat="45.62631" lon="5.28709">
        <ele>218</ele>
        <time>2022-09-06T05:04:07.416Z</time>
      </trkpt>
      <trkpt lat="45.62639" lon="5.2871">
        <ele>218</ele>
        <time>2022-09-06T05:04:08.415Z</time>
      </trkpt>
      <trkpt lat="45.62648" lon="5.28711">
        <ele>218</ele>
        <time>2022-09-06T05:04:09.415Z</time>
      </trkpt>
      <trkpt lat="45.62656" lon="5.28712">
        <ele>218</ele>
        <time>2022-09-06T05:04:10.415Z</time>
      </trkpt>
      <trkpt lat="45.62664" lon="5.28713">
        <ele>218</ele>
        <time>2022-09-06T05:04:11.416Z</time>
      </trkpt>
      <trkpt lat="45.62672" lon="5.28715">
        <ele>218</ele>
        <time>2022-09-06T05:04:12.416Z</time>
      </trkpt>
      <trkpt lat="45.6268" lon="5.28716">
        <ele>218</ele>
        <time>2022-09-06T05:04:13.416Z</time>
      </trkpt>
      <trkpt lat="45.62688" lon="5.28718">
        <ele>218</ele>
        <time>2022-09-06T05:04:14.416Z</time>
      </trkpt>
      <trkpt lat="45.62697" lon="5.2872">
        <ele>218</ele>
        <time>2022-09-06T05:04:15.416Z</time>
      </trkpt>
      <trkpt lat="45.62704" lon="5.28722">
        <ele>218</ele>
        <time>2022-09-06T05:04:16.416Z</time>
      </trkpt>
      <trkpt lat="45.62712" lon="5.28725">
        <ele>218</ele>
        <time>2022-09-06T05:04:17.416Z</time>
      </trkpt>
      <trkpt lat="45.62719" lon="5.28729">
        <ele>218</ele>
        <time>2022-09-06T05:04:18.416Z</time>
      </trkpt>
      <trkpt lat="45.62726" lon="5.28735">
        <ele>218</ele>
        <time>2022-09-06T05:04:19.415Z</time>
      </trkpt>
      <trkpt lat="45.62733" lon="5.28741">
        <ele>218</ele>
        <time>2022-09-06T05:04:20.415Z</time>
      </trkpt>
      <trkpt lat="45.6274" lon="5.28748">
        <ele>219</ele>
        <time>2022-09-06T05:04:21.416Z</time>
      </trkpt>
      <trkpt lat="45.62746" lon="5.28755">
        <ele>219</ele>
        <time>2022-09-06T05:04:22.416Z</time>
      </trkpt>
      <trkpt lat="45.62752" lon="5.28763">
        <ele>219</ele>
        <time>2022-09-06T05:04:23.415Z</time>
      </trkpt>
      <trkpt lat="45.62758" lon="5.28771">
        <ele>218</ele>
        <time>2022-09-06T05:04:24.416Z</time>
      </trkpt>
      <trkpt lat="45.62764" lon="5.28779">
        <ele>218</ele>
        <time>2022-09-06T05:04:25.416Z</time>
      </trkpt>
      <trkpt lat="45.6277" lon="5.28787">
        <ele>217</ele>
        <time>2022-09-06T05:04:26.416Z</time>
      </trkpt>
      <trkpt lat="45.62776" lon="5.28795">
        <ele>217</ele>
        <time>2022-09-06T05:04:27.416Z</time>
      </trkpt>
      <trkpt lat="45.62783" lon="5.28803">
        <ele>217</ele>
        <time>2022-09-06T05:04:28.416Z</time>
      </trkpt>
      <trkpt lat="45.62789" lon="5.28811">
        <ele>216</ele>
        <time>2022-09-06T05:04:29.416Z</time>
      </trkpt>
      <trkpt lat="45.62795" lon="5.28819">
        <ele>216</ele>
        <time>2022-09-06T05:04:30.415Z</time>
      </trkpt>
      <trkpt lat="45.62801" lon="5.28827">
        <ele>216</ele>
        <time>2022-09-06T05:04:31.415Z</time>
      </trkpt>
      <trkpt lat="45.62808" lon="5.28835">
        <ele>217</ele>
        <time>2022-09-06T05:04:32.416Z</time>
      </trkpt>
      <trkpt lat="45.62814" lon="5.28843">
        <ele>217</ele>
        <time>2022-09-06T05:04:33.416Z</time>
      </trkpt>
      <trkpt lat="45.6282" lon="5.28851">
        <ele>217</ele>
        <time>2022-09-06T05:04:34.415Z</time>
      </trkpt>
      <trkpt lat="45.62826" lon="5.28859">
        <ele>217</ele>
        <time>2022-09-06T05:04:35.416Z</time>
      </trkpt>
      <trkpt lat="45.62833" lon="5.28867">
        <ele>218</ele>
        <time>2022-09-06T05:04:36.416Z</time>
      </trkpt>
      <trkpt lat="45.62839" lon="5.28875">
        <ele>219</ele>
        <time>2022-09-06T05:04:37.416Z</time>
      </trkpt>
      <trkpt lat="45.62845" lon="5.28883">
        <ele>219</ele>
        <time>2022-09-06T05:04:38.416Z</time>
      </trkpt>
      <trkpt lat="45.62851" lon="5.28891">
        <ele>220</ele>
        <time>2022-09-06T05:04:39.415Z</time>
      </trkpt>
      <trkpt lat="45.62857" lon="5.28899">
        <ele>221</ele>
        <time>2022-09-06T05:04:40.415Z</time>
      </trkpt>
      <trkpt lat="45.62864" lon="5.28907">
        <ele>221</ele>
        <time>2022-09-06T05:04:41.415Z</time>
      </trkpt>
      <trkpt lat="45.6287" lon="5.28915">
        <ele>222</ele>
        <time>2022-09-06T05:04:42.415Z</time>
      </trkpt>
      <trkpt lat="45.62876" lon="5.28923">
        <ele>222</ele>
        <time>2022-09-06T05:04:43.415Z</time>
      </trkpt>
      <trkpt lat="45.62882" lon="5.28931">
        <ele>222</ele>
        <time>2022-09-06T05:04:44.416Z</time>
      </trkpt>
      <trkpt lat="45.62888" lon="5.28939">
        <ele>222</ele>
        <time>2022-09-06T05:04:45.416Z</time>
      </trkpt>
      <trkpt lat="45.62894" lon="5.28946">
        <ele>222</ele>
        <time>2022-09-06T05:04:46.415Z</time>
      </trkpt>
      <trkpt lat="45.629" lon="5.28954">
        <ele>222</ele>
        <time>2022-09-06T05:04:47.416Z</time>
      </trkpt>
      <trkpt lat="45.62906" lon="5.28962">
        <ele>222</ele>
        <time>2022-09-06T05:04:48.415Z</time>
      </trkpt>
      <trkpt lat="45.62912" lon="5.2897">
        <ele>222</ele>
        <time>2022-09-06T05:04:49.415Z</time>
      </trkpt>
      <trkpt lat="45.62918" lon="5.28977">
        <ele>222</ele>
        <time>2022-09-06T05:04:50.416Z</time>
      </trkpt>
      <trkpt lat="45.62924" lon="5.28985">
        <ele>222</ele>
        <time>2022-09-06T05:04:51.416Z</time>
      </trkpt>
      <trkpt lat="45.6293" lon="5.28993">
        <ele>222</ele>
        <time>2022-09-06T05:04:52.416Z</time>
      </trkpt>
      <trkpt lat="45.62936" lon="5.29001">
        <ele>222</ele>
        <time>2022-09-06T05:04:53.416Z</time>
      </trkpt>
      <trkpt lat="45.62942" lon="5.29008">
        <ele>223</ele>
        <time>2022-09-06T05:04:54.416Z</time>
      </trkpt>
      <trkpt lat="45.62948" lon="5.29016">
        <ele>223</ele>
        <time>2022-09-06T05:04:55.415Z</time>
      </trkpt>
      <trkpt lat="45.62954" lon="5.29024">
        <ele>223</ele>
        <time>2022-09-06T05:04:56.416Z</time>
      </trkpt>
      <trkpt lat="45.6296" lon="5.29031">
        <ele>223</ele>
        <time>2022-09-06T05:04:57.416Z</time>
      </trkpt>
      <trkpt lat="45.62966" lon="5.29039">
        <ele>223</ele>
        <time>2022-09-06T05:04:58.416Z</time>
      </trkpt>
      <trkpt lat="45.62972" lon="5.29047">
        <ele>222</ele>
        <time>2022-09-06T05:04:59.416Z</time>
      </trkpt>
      <trkpt lat="45.62978" lon="5.29054">
        <ele>222</ele>
        <time>2022-09-06T05:05:00.416Z</time>
      </trkpt>
      <trkpt lat="45.62984" lon="5.29062">
        <ele>221</ele>
        <time>2022-09-06T05:05:01.416Z</time>
      </trkpt>
      <trkpt lat="45.6299" lon="5.2907">
        <ele>221</ele>
        <time>2022-09-06T05:05:02.415Z</time>
      </trkpt>
      <trkpt lat="45.62996" lon="5.29077">
        <ele>222</ele>
        <time>2022-09-06T05:05:03.415Z</time>
      </trkpt>
      <trkpt lat="45.63002" lon="5.29086">
        <ele>222</ele>
        <time>2022-09-06T05:05:04.415Z</time>
      </trkpt>
      <trkpt lat="45.63008" lon="5.29094">
        <ele>222</ele>
        <time>2022-09-06T05:05:05.415Z</time>
      </trkpt>
      <trkpt lat="45.63014" lon="5.29101">
        <ele>223</ele>
        <time>2022-09-06T05:05:06.416Z</time>
      </trkpt>
      <trkpt lat="45.6302" lon="5.29109">
        <ele>222</ele>
        <time>2022-09-06T05:05:07.416Z</time>
      </trkpt>
      <trkpt lat="45.63026" lon="5.29116">
        <ele>222</ele>
        <time>2022-09-06T05:05:08.416Z</time>
      </trkpt>
      <trkpt lat="45.63033" lon="5.29124">
        <ele>222</ele>
        <time>2022-09-06T05:05:09.416Z</time>
      </trkpt>
      <trkpt lat="45.63039" lon="5.29132">
        <ele>221</ele>
        <time>2022-09-06T05:05:10.416Z</time>
      </trkpt>
      <trkpt lat="45.63045" lon="5.2914">
        <ele>221</ele>
        <time>2022-09-06T05:05:11.416Z</time>
      </trkpt>
      <trkpt lat="45.63051" lon="5.29148">
        <ele>221</ele>
        <time>2022-09-06T05:05:12.416Z</time>
      </trkpt>
      <trkpt lat="45.63058" lon="5.29155">
        <ele>221</ele>
        <time>2022-09-06T05:05:13.416Z</time>
      </trkpt>
      <trkpt lat="45.63064" lon="5.29163">
        <ele>221</ele>
        <time>2022-09-06T05:05:14.416Z</time>
      </trkpt>
      <trkpt lat="45.6307" lon="5.29171">
        <ele>221</ele>
        <time>2022-09-06T05:05:15.416Z</time>
      </trkpt>
      <trkpt lat="45.63077" lon="5.29179">
        <ele>221</ele>
        <time>2022-09-06T05:05:16.416Z</time>
      </trkpt>
      <trkpt lat="45.63083" lon="5.29188">
        <ele>221</ele>
        <time>2022-09-06T05:05:17.416Z</time>
      </trkpt>
      <trkpt lat="45.63089" lon="5.29196">
        <ele>221</ele>
        <time>2022-09-06T05:05:18.416Z</time>
      </trkpt>
      <trkpt lat="45.63096" lon="5.29204">
        <ele>221</ele>
        <time>2022-09-06T05:05:19.415Z</time>
      </trkpt>
      <trkpt lat="45.63102" lon="5.29212">
        <ele>221</ele>
        <time>2022-09-06T05:05:20.416Z</time>
      </trkpt>
      <trkpt lat="45.63108" lon="5.2922">
        <ele>221</ele>
        <time>2022-09-06T05:05:21.416Z</time>
      </trkpt>
      <trkpt lat="45.63114" lon="5.29228">
        <ele>221</ele>
        <time>2022-09-06T05:05:22.415Z</time>
      </trkpt>
      <trkpt lat="45.6312" lon="5.29236">
        <ele>221</ele>
        <time>2022-09-06T05:05:23.416Z</time>
      </trkpt>
      <trkpt lat="45.63127" lon="5.29244">
        <ele>221</ele>
        <time>2022-09-06T05:05:24.416Z</time>
      </trkpt>
      <trkpt lat="45.63133" lon="5.29252">
        <ele>221</ele>
        <time>2022-09-06T05:05:25.416Z</time>
      </trkpt>
      <trkpt lat="45.63139" lon="5.2926">
        <ele>220</ele>
        <time>2022-09-06T05:05:26.415Z</time>
      </trkpt>
      <trkpt lat="45.63145" lon="5.29267">
        <ele>220</ele>
        <time>2022-09-06T05:05:27.416Z</time>
      </trkpt>
      <trkpt lat="45.63152" lon="5.29275">
        <ele>220</ele>
        <time>2022-09-06T05:05:28.416Z</time>
      </trkpt>
      <trkpt lat="45.63158" lon="5.29283">
        <ele>220</ele>
        <time>2022-09-06T05:05:29.416Z</time>
      </trkpt>
      <trkpt lat="45.63164" lon="5.2929">
        <ele>220</ele>
        <time>2022-09-06T05:05:30.415Z</time>
      </trkpt>
      <trkpt lat="45.6317" lon="5.29298">
        <ele>220</ele>
        <time>2022-09-06T05:05:31.416Z</time>
      </trkpt>
      <trkpt lat="45.63176" lon="5.29306">
        <ele>220</ele>
        <time>2022-09-06T05:05:32.415Z</time>
      </trkpt>
      <trkpt lat="45.63182" lon="5.29314">
        <ele>221</ele>
        <time>2022-09-06T05:05:33.415Z</time>
      </trkpt>
      <trkpt lat="45.63189" lon="5.29321">
        <ele>221</ele>
        <time>2022-09-06T05:05:34.416Z</time>
      </trkpt>
      <trkpt lat="45.63195" lon="5.29329">
        <ele>221</ele>
        <time>2022-09-06T05:05:35.416Z</time>
      </trkpt>
      <trkpt lat="45.63201" lon="5.29336">
        <ele>221</ele>
        <time>2022-09-06T05:05:36.416Z</time>
      </trkpt>
      <trkpt lat="45.63206" lon="5.29344">
        <ele>221</ele>
        <time>2022-09-06T05:05:37.415Z</time>
      </trkpt>
      <trkpt lat="45.63212" lon="5.29352">
        <ele>220</ele>
        <time>2022-09-06T05:05:38.415Z</time>
      </trkpt>
      <trkpt lat="45.63218" lon="5.2936">
        <ele>220</ele>
        <time>2022-09-06T05:05:39.416Z</time>
      </trkpt>
      <trkpt lat="45.63225" lon="5.29368">
        <ele>220</ele>
        <time>2022-09-06T05:05:40.415Z</time>
      </trkpt>
      <trkpt lat="45.63231" lon="5.29375">
        <ele>220</ele>
        <time>2022-09-06T05:05:41.416Z</time>
      </trkpt>
      <trkpt lat="45.63237" lon="5.29383">
        <ele>219</ele>
        <time>2022-09-06T05:05:42.416Z</time>
      </trkpt>
      <trkpt lat="45.63243" lon="5.29391">
        <ele>220</ele>
        <time>2022-09-06T05:05:43.416Z</time>
      </trkpt>
      <trkpt lat="45.63249" lon="5.29399">
        <ele>220</ele>
        <time>2022-09-06T05:05:44.416Z</time>
      </trkpt>
      <trkpt lat="45.63255" lon="5.29407">
        <ele>220</ele>
        <time>2022-09-06T05:05:45.416Z</time>
      </trkpt>
      <trkpt lat="45.63261" lon="5.29415">
        <ele>220</ele>
        <time>2022-09-06T05:05:46.415Z</time>
      </trkpt>
      <trkpt lat="45.63267" lon="5.29422">
        <ele>221</ele>
        <time>2022-09-06T05:05:47.416Z</time>
      </trkpt>
      <trkpt lat="45.63273" lon="5.2943">
        <ele>221</ele>
        <time>2022-09-06T05:05:48.416Z</time>
      </trkpt>
      <trkpt lat="45.63279" lon="5.29437">
        <ele>221</ele>
        <time>2022-09-06T05:05:49.416Z</time>
      </trkpt>
      <trkpt lat="45.63285" lon="5.29445">
        <ele>221</ele>
        <time>2022-09-06T05:05:50.416Z</time>
      </trkpt>
      <trkpt lat="45.63291" lon="5.29453">
        <ele>221</ele>
        <time>2022-09-06T05:05:51.415Z</time>
      </trkpt>
      <trkpt lat="45.63298" lon="5.29461">
        <ele>221</ele>
        <time>2022-09-06T05:05:52.416Z</time>
      </trkpt>
      <trkpt lat="45.63304" lon="5.29468">
        <ele>221</ele>
        <time>2022-09-06T05:05:53.415Z</time>
      </trkpt>
      <trkpt lat="45.6331" lon="5.29476">
        <ele>221</ele>
        <time>2022-09-06T05:05:54.416Z</time>
      </trkpt>
      <trkpt lat="45.63316" lon="5.29484">
        <ele>221</ele>
        <time>2022-09-06T05:05:55.415Z</time>
      </trkpt>
      <trkpt lat="45.63322" lon="5.29491">
        <ele>220</ele>
        <time>2022-09-06T05:05:56.416Z</time>
      </trkpt>
      <trkpt lat="45.63328" lon="5.29499">
        <ele>220</ele>
        <time>2022-09-06T05:05:57.416Z</time>
      </trkpt>
      <trkpt lat="45.63334" lon="5.29506">
        <ele>220</ele>
        <time>2022-09-06T05:05:58.416Z</time>
      </trkpt>
      <trkpt lat="45.6334" lon="5.29514">
        <ele>220</ele>
        <time>2022-09-06T05:05:59.416Z</time>
      </trkpt>
      <trkpt lat="45.63347" lon="5.29521">
        <ele>220</ele>
        <time>2022-09-06T05:06:00.415Z</time>
      </trkpt>
      <trkpt lat="45.63353" lon="5.29528">
        <ele>220</ele>
        <time>2022-09-06T05:06:01.416Z</time>
      </trkpt>
      <trkpt lat="45.6336" lon="5.29534">
        <ele>220</ele>
        <time>2022-09-06T05:06:02.416Z</time>
      </trkpt>
      <trkpt lat="45.63367" lon="5.2954">
        <ele>220</ele>
        <time>2022-09-06T05:06:03.415Z</time>
      </trkpt>
      <trkpt lat="45.63374" lon="5.29546">
        <ele>220</ele>
        <time>2022-09-06T05:06:04.415Z</time>
      </trkpt>
      <trkpt lat="45.63381" lon="5.29552">
        <ele>220</ele>
        <time>2022-09-06T05:06:05.416Z</time>
      </trkpt>
      <trkpt lat="45.63388" lon="5.29557">
        <ele>221</ele>
        <time>2022-09-06T05:06:06.415Z</time>
      </trkpt>
      <trkpt lat="45.63396" lon="5.29561">
        <ele>222</ele>
        <time>2022-09-06T05:06:07.416Z</time>
      </trkpt>
      <trkpt lat="45.63403" lon="5.29565">
        <ele>222</ele>
        <time>2022-09-06T05:06:08.416Z</time>
      </trkpt>
      <trkpt lat="45.63411" lon="5.29569">
        <ele>223</ele>
        <time>2022-09-06T05:06:09.416Z</time>
      </trkpt>
      <trkpt lat="45.63418" lon="5.29572">
        <ele>224</ele>
        <time>2022-09-06T05:06:10.416Z</time>
      </trkpt>
      <trkpt lat="45.63426" lon="5.29575">
        <ele>224</ele>
        <time>2022-09-06T05:06:11.416Z</time>
      </trkpt>
      <trkpt lat="45.63433" lon="5.29578">
        <ele>224</ele>
        <time>2022-09-06T05:06:12.416Z</time>
      </trkpt>
      <trkpt lat="45.63441" lon="5.2958">
        <ele>224</ele>
        <time>2022-09-06T05:06:13.416Z</time>
      </trkpt>
      <trkpt lat="45.63448" lon="5.29581">
        <ele>224</ele>
        <time>2022-09-06T05:06:14.416Z</time>
      </trkpt>
      <trkpt lat="45.63456" lon="5.29583">
        <ele>224</ele>
        <time>2022-09-06T05:06:15.415Z</time>
      </trkpt>
      <trkpt lat="45.63464" lon="5.29585">
        <ele>224</ele>
        <time>2022-09-06T05:06:16.415Z</time>
      </trkpt>
      <trkpt lat="45.63471" lon="5.29586">
        <ele>224</ele>
        <time>2022-09-06T05:06:17.416Z</time>
      </trkpt>
      <trkpt lat="45.63479" lon="5.29588">
        <ele>224</ele>
        <time>2022-09-06T05:06:18.415Z</time>
      </trkpt>
      <trkpt lat="45.63486" lon="5.29589">
        <ele>223</ele>
        <time>2022-09-06T05:06:19.415Z</time>
      </trkpt>
      <trkpt lat="45.63494" lon="5.2959">
        <ele>223</ele>
        <time>2022-09-06T05:06:20.416Z</time>
      </trkpt>
      <trkpt lat="45.63501" lon="5.29591">
        <ele>223</ele>
        <time>2022-09-06T05:06:21.416Z</time>
      </trkpt>
      <trkpt lat="45.63509" lon="5.29592">
        <ele>222</ele>
        <time>2022-09-06T05:06:22.415Z</time>
      </trkpt>
      <trkpt lat="45.63516" lon="5.29593">
        <ele>222</ele>
        <time>2022-09-06T05:06:23.416Z</time>
      </trkpt>
      <trkpt lat="45.63523" lon="5.29594">
        <ele>222</ele>
        <time>2022-09-06T05:06:24.415Z</time>
      </trkpt>
      <trkpt lat="45.6353" lon="5.29595">
        <ele>221</ele>
        <time>2022-09-06T05:06:25.416Z</time>
      </trkpt>
      <trkpt lat="45.63537" lon="5.29596">
        <ele>222</ele>
        <time>2022-09-06T05:06:26.416Z</time>
      </trkpt>
      <trkpt lat="45.63544" lon="5.29597">
        <ele>222</ele>
        <time>2022-09-06T05:06:27.415Z</time>
      </trkpt>
      <trkpt lat="45.63551" lon="5.29598">
        <ele>222</ele>
        <time>2022-09-06T05:06:28.416Z</time>
      </trkpt>
      <trkpt lat="45.63558" lon="5.29599">
        <ele>222</ele>
        <time>2022-09-06T05:06:29.416Z</time>
      </trkpt>
      <trkpt lat="45.63565" lon="5.296">
        <ele>222</ele>
        <time>2022-09-06T05:06:30.416Z</time>
      </trkpt>
      <trkpt lat="45.63572" lon="5.296">
        <ele>222</ele>
        <time>2022-09-06T05:06:31.416Z</time>
      </trkpt>
      <trkpt lat="45.63579" lon="5.29601">
        <ele>222</ele>
        <time>2022-09-06T05:06:32.416Z</time>
      </trkpt>
      <trkpt lat="45.63586" lon="5.29602">
        <ele>222</ele>
        <time>2022-09-06T05:06:33.416Z</time>
      </trkpt>
      <trkpt lat="45.63593" lon="5.29603">
        <ele>222</ele>
        <time>2022-09-06T05:06:34.416Z</time>
      </trkpt>
      <trkpt lat="45.636" lon="5.29604">
        <ele>223</ele>
        <time>2022-09-06T05:06:35.416Z</time>
      </trkpt>
      <trkpt lat="45.63607" lon="5.29605">
        <ele>223</ele>
        <time>2022-09-06T05:06:36.416Z</time>
      </trkpt>
      <trkpt lat="45.63614" lon="5.29606">
        <ele>223</ele>
        <time>2022-09-06T05:06:37.415Z</time>
      </trkpt>
      <trkpt lat="45.63621" lon="5.29607">
        <ele>223</ele>
        <time>2022-09-06T05:06:38.416Z</time>
      </trkpt>
      <trkpt lat="45.63628" lon="5.29608">
        <ele>223</ele>
        <time>2022-09-06T05:06:39.415Z</time>
      </trkpt>
      <trkpt lat="45.63634" lon="5.29609">
        <ele>223</ele>
        <time>2022-09-06T05:06:40.416Z</time>
      </trkpt>
      <trkpt lat="45.63642" lon="5.2961">
        <ele>223</ele>
        <time>2022-09-06T05:06:41.416Z</time>
      </trkpt>
      <trkpt lat="45.63649" lon="5.29611">
        <ele>223</ele>
        <time>2022-09-06T05:06:42.415Z</time>
      </trkpt>
      <trkpt lat="45.63655" lon="5.29612">
        <ele>222</ele>
        <time>2022-09-06T05:06:43.416Z</time>
      </trkpt>
      <trkpt lat="45.63662" lon="5.29613">
        <ele>222</ele>
        <time>2022-09-06T05:06:44.416Z</time>
      </trkpt>
      <trkpt lat="45.63669" lon="5.29614">
        <ele>221</ele>
        <time>2022-09-06T05:06:45.416Z</time>
      </trkpt>
      <trkpt lat="45.63675" lon="5.29614">
        <ele>221</ele>
        <time>2022-09-06T05:06:46.415Z</time>
      </trkpt>
      <trkpt lat="45.63682" lon="5.29615">
        <ele>220</ele>
        <time>2022-09-06T05:06:47.416Z</time>
      </trkpt>
      <trkpt lat="45.63689" lon="5.29616">
        <ele>220</ele>
        <time>2022-09-06T05:06:48.416Z</time>
      </trkpt>
      <trkpt lat="45.63696" lon="5.29617">
        <ele>220</ele>
        <time>2022-09-06T05:06:49.416Z</time>
      </trkpt>
      <trkpt lat="45.63703" lon="5.29618">
        <ele>220</ele>
        <time>2022-09-06T05:06:50.416Z</time>
      </trkpt>
      <trkpt lat="45.6371" lon="5.29619">
        <ele>220</ele>
        <time>2022-09-06T05:06:51.416Z</time>
      </trkpt>
      <trkpt lat="45.63716" lon="5.2962">
        <ele>220</ele>
        <time>2022-09-06T05:06:52.416Z</time>
      </trkpt>
      <trkpt lat="45.63723" lon="5.29621">
        <ele>220</ele>
        <time>2022-09-06T05:06:53.415Z</time>
      </trkpt>
      <trkpt lat="45.6373" lon="5.29622">
        <ele>221</ele>
        <time>2022-09-06T05:06:54.415Z</time>
      </trkpt>
      <trkpt lat="45.63737" lon="5.29623">
        <ele>221</ele>
        <time>2022-09-06T05:06:55.415Z</time>
      </trkpt>
      <trkpt lat="45.63744" lon="5.29624">
        <ele>221</ele>
        <time>2022-09-06T05:06:56.416Z</time>
      </trkpt>
      <trkpt lat="45.63751" lon="5.29625">
        <ele>221</ele>
        <time>2022-09-06T05:06:57.416Z</time>
      </trkpt>
      <trkpt lat="45.63758" lon="5.29626">
        <ele>222</ele>
        <time>2022-09-06T05:06:58.416Z</time>
      </trkpt>
      <trkpt lat="45.63765" lon="5.29627">
        <ele>222</ele>
        <time>2022-09-06T05:06:59.415Z</time>
      </trkpt>
      <trkpt lat="45.63772" lon="5.29628">
        <ele>222</ele>
        <time>2022-09-06T05:07:00.415Z</time>
      </trkpt>
      <trkpt lat="45.63779" lon="5.2963">
        <ele>222</ele>
        <time>2022-09-06T05:07:01.416Z</time>
      </trkpt>
      <trkpt lat="45.63787" lon="5.29631">
        <ele>222</ele>
        <time>2022-09-06T05:07:02.415Z</time>
      </trkpt>
      <trkpt lat="45.63794" lon="5.29632">
        <ele>222</ele>
        <time>2022-09-06T05:07:03.415Z</time>
      </trkpt>
      <trkpt lat="45.63801" lon="5.29633">
        <ele>222</ele>
        <time>2022-09-06T05:07:04.415Z</time>
      </trkpt>
      <trkpt lat="45.63808" lon="5.29635">
        <ele>221</ele>
        <time>2022-09-06T05:07:05.416Z</time>
      </trkpt>
      <trkpt lat="45.63816" lon="5.29636">
        <ele>221</ele>
        <time>2022-09-06T05:07:06.415Z</time>
      </trkpt>
      <trkpt lat="45.63823" lon="5.29637">
        <ele>220</ele>
        <time>2022-09-06T05:07:07.415Z</time>
      </trkpt>
      <trkpt lat="45.6383" lon="5.29638">
        <ele>220</ele>
        <time>2022-09-06T05:07:08.416Z</time>
      </trkpt>
      <trkpt lat="45.63837" lon="5.29639">
        <ele>220</ele>
        <time>2022-09-06T05:07:09.416Z</time>
      </trkpt>
      <trkpt lat="45.63845" lon="5.2964">
        <ele>219</ele>
        <time>2022-09-06T05:07:10.415Z</time>
      </trkpt>
      <trkpt lat="45.63852" lon="5.29641">
        <ele>219</ele>
        <time>2022-09-06T05:07:11.416Z</time>
      </trkpt>
      <trkpt lat="45.6386" lon="5.29642">
        <ele>219</ele>
        <time>2022-09-06T05:07:12.416Z</time>
      </trkpt>
      <trkpt lat="45.63867" lon="5.29644">
        <ele>219</ele>
        <time>2022-09-06T05:07:13.416Z</time>
      </trkpt>
      <trkpt lat="45.63875" lon="5.29645">
        <ele>220</ele>
        <time>2022-09-06T05:07:14.416Z</time>
      </trkpt>
      <trkpt lat="45.63882" lon="5.29647">
        <ele>220</ele>
        <time>2022-09-06T05:07:15.416Z</time>
      </trkpt>
      <trkpt lat="45.63889" lon="5.29647">
        <ele>219</ele>
        <time>2022-09-06T05:07:16.415Z</time>
      </trkpt>
      <trkpt lat="45.63897" lon="5.29649">
        <ele>219</ele>
        <time>2022-09-06T05:07:17.416Z</time>
      </trkpt>
      <trkpt lat="45.63902" lon="5.2965">
        <ele>219</ele>
        <time>2022-09-06T05:07:18.416Z</time>
      </trkpt>
      <trkpt lat="45.63911" lon="5.29651">
        <ele>218</ele>
        <time>2022-09-06T05:07:19.416Z</time>
      </trkpt>
      <trkpt lat="45.63919" lon="5.29653">
        <ele>218</ele>
        <time>2022-09-06T05:07:20.415Z</time>
      </trkpt>
      <trkpt lat="45.63927" lon="5.29654">
        <ele>218</ele>
        <time>2022-09-06T05:07:21.415Z</time>
      </trkpt>
      <trkpt lat="45.63934" lon="5.29655">
        <ele>218</ele>
        <time>2022-09-06T05:07:22.415Z</time>
      </trkpt>
      <trkpt lat="45.63941" lon="5.29656">
        <ele>218</ele>
        <time>2022-09-06T05:07:23.416Z</time>
      </trkpt>
      <trkpt lat="45.63949" lon="5.29658">
        <ele>218</ele>
        <time>2022-09-06T05:07:24.415Z</time>
      </trkpt>
      <trkpt lat="45.63956" lon="5.29659">
        <ele>217</ele>
        <time>2022-09-06T05:07:25.416Z</time>
      </trkpt>
      <trkpt lat="45.63962" lon="5.2966">
        <ele>217</ele>
        <time>2022-09-06T05:07:26.415Z</time>
      </trkpt>
      <trkpt lat="45.63969" lon="5.29661">
        <ele>217</ele>
        <time>2022-09-06T05:07:27.415Z</time>
      </trkpt>
      <trkpt lat="45.63978" lon="5.29663">
        <ele>217</ele>
        <time>2022-09-06T05:07:28.415Z</time>
      </trkpt>
      <trkpt lat="45.63984" lon="5.29664">
        <ele>217</ele>
        <time>2022-09-06T05:07:29.416Z</time>
      </trkpt>
      <trkpt lat="45.63992" lon="5.29665">
        <ele>217</ele>
        <time>2022-09-06T05:07:30.416Z</time>
      </trkpt>
      <trkpt lat="45.63999" lon="5.29666">
        <ele>217</ele>
        <time>2022-09-06T05:07:31.416Z</time>
      </trkpt>
      <trkpt lat="45.64006" lon="5.29667">
        <ele>217</ele>
        <time>2022-09-06T05:07:32.416Z</time>
      </trkpt>
      <trkpt lat="45.64015" lon="5.29668">
        <ele>217</ele>
        <time>2022-09-06T05:07:33.415Z</time>
      </trkpt>
      <trkpt lat="45.64022" lon="5.29669">
        <ele>217</ele>
        <time>2022-09-06T05:07:34.416Z</time>
      </trkpt>
      <trkpt lat="45.64029" lon="5.2967">
        <ele>217</ele>
        <time>2022-09-06T05:07:35.416Z</time>
      </trkpt>
      <trkpt lat="45.64035" lon="5.29671">
        <ele>218</ele>
        <time>2022-09-06T05:07:36.416Z</time>
      </trkpt>
      <trkpt lat="45.64042" lon="5.29672">
        <ele>218</ele>
        <time>2022-09-06T05:07:37.416Z</time>
      </trkpt>
      <trkpt lat="45.6405" lon="5.29673">
        <ele>218</ele>
        <time>2022-09-06T05:07:38.416Z</time>
      </trkpt>
      <trkpt lat="45.64057" lon="5.29674">
        <ele>218</ele>
        <time>2022-09-06T05:07:39.416Z</time>
      </trkpt>
      <trkpt lat="45.64064" lon="5.29675">
        <ele>218</ele>
        <time>2022-09-06T05:07:40.416Z</time>
      </trkpt>
      <trkpt lat="45.64071" lon="5.29676">
        <ele>218</ele>
        <time>2022-09-06T05:07:41.416Z</time>
      </trkpt>
      <trkpt lat="45.64078" lon="5.29677">
        <ele>219</ele>
        <time>2022-09-06T05:07:42.416Z</time>
      </trkpt>
      <trkpt lat="45.64086" lon="5.29678">
        <ele>219</ele>
        <time>2022-09-06T05:07:43.416Z</time>
      </trkpt>
      <trkpt lat="45.64093" lon="5.29679">
        <ele>219</ele>
        <time>2022-09-06T05:07:44.416Z</time>
      </trkpt>
      <trkpt lat="45.641" lon="5.2968">
        <ele>219</ele>
        <time>2022-09-06T05:07:45.415Z</time>
      </trkpt>
      <trkpt lat="45.64107" lon="5.29682">
        <ele>219</ele>
        <time>2022-09-06T05:07:46.416Z</time>
      </trkpt>
      <trkpt lat="45.64114" lon="5.29683">
        <ele>219</ele>
        <time>2022-09-06T05:07:47.416Z</time>
      </trkpt>
      <trkpt lat="45.6412" lon="5.29684">
        <ele>219</ele>
        <time>2022-09-06T05:07:48.416Z</time>
      </trkpt>
      <trkpt lat="45.64127" lon="5.29685">
        <ele>219</ele>
        <time>2022-09-06T05:07:49.416Z</time>
      </trkpt>
      <trkpt lat="45.64134" lon="5.29686">
        <ele>219</ele>
        <time>2022-09-06T05:07:50.415Z</time>
      </trkpt>
      <trkpt lat="45.64141" lon="5.29687">
        <ele>219</ele>
        <time>2022-09-06T05:07:51.416Z</time>
      </trkpt>
      <trkpt lat="45.64148" lon="5.29688">
        <ele>218</ele>
        <time>2022-09-06T05:07:52.415Z</time>
      </trkpt>
      <trkpt lat="45.64155" lon="5.29689">
        <ele>218</ele>
        <time>2022-09-06T05:07:53.416Z</time>
      </trkpt>
      <trkpt lat="45.64162" lon="5.29691">
        <ele>218</ele>
        <time>2022-09-06T05:07:54.416Z</time>
      </trkpt>
      <trkpt lat="45.6417" lon="5.29692">
        <ele>217</ele>
        <time>2022-09-06T05:07:55.415Z</time>
      </trkpt>
      <trkpt lat="45.64176" lon="5.29693">
        <ele>217</ele>
        <time>2022-09-06T05:07:56.416Z</time>
      </trkpt>
      <trkpt lat="45.64183" lon="5.29694">
        <ele>217</ele>
        <time>2022-09-06T05:07:57.416Z</time>
      </trkpt>
      <trkpt lat="45.64192" lon="5.29696">
        <ele>218</ele>
        <time>2022-09-06T05:07:58.416Z</time>
      </trkpt>
      <trkpt lat="45.64199" lon="5.29698">
        <ele>218</ele>
        <time>2022-09-06T05:07:59.416Z</time>
      </trkpt>
      <trkpt lat="45.64206" lon="5.29701">
        <ele>218</ele>
        <time>2022-09-06T05:08:00.416Z</time>
      </trkpt>
      <trkpt lat="45.64213" lon="5.29703">
        <ele>218</ele>
        <time>2022-09-06T05:08:01.416Z</time>
      </trkpt>
      <trkpt lat="45.64219" lon="5.29706">
        <ele>218</ele>
        <time>2022-09-06T05:08:02.416Z</time>
      </trkpt>
      <trkpt lat="45.64227" lon="5.29709">
        <ele>218</ele>
        <time>2022-09-06T05:08:03.416Z</time>
      </trkpt>
      <trkpt lat="45.64235" lon="5.29713">
        <ele>218</ele>
        <time>2022-09-06T05:08:04.416Z</time>
      </trkpt>
      <trkpt lat="45.64241" lon="5.29717">
        <ele>218</ele>
        <time>2022-09-06T05:08:05.416Z</time>
      </trkpt>
      <trkpt lat="45.64248" lon="5.29721">
        <ele>218</ele>
        <time>2022-09-06T05:08:06.416Z</time>
      </trkpt>
      <trkpt lat="45.64253" lon="5.29725">
        <ele>218</ele>
        <time>2022-09-06T05:08:07.416Z</time>
      </trkpt>
      <trkpt lat="45.6426" lon="5.2973">
        <ele>219</ele>
        <time>2022-09-06T05:08:08.416Z</time>
      </trkpt>
      <trkpt lat="45.64266" lon="5.29736">
        <ele>219</ele>
        <time>2022-09-06T05:08:09.416Z</time>
      </trkpt>
      <trkpt lat="45.64274" lon="5.29743">
        <ele>219</ele>
        <time>2022-09-06T05:08:10.415Z</time>
      </trkpt>
      <trkpt lat="45.6428" lon="5.29749">
        <ele>219</ele>
        <time>2022-09-06T05:08:11.416Z</time>
      </trkpt>
      <trkpt lat="45.64286" lon="5.29756">
        <ele>219</ele>
        <time>2022-09-06T05:08:12.416Z</time>
      </trkpt>
      <trkpt lat="45.64291" lon="5.29762">
        <ele>218</ele>
        <time>2022-09-06T05:08:13.416Z</time>
      </trkpt>
      <trkpt lat="45.64296" lon="5.29769">
        <ele>218</ele>
        <time>2022-09-06T05:08:14.416Z</time>
      </trkpt>
      <trkpt lat="45.64301" lon="5.29776">
        <ele>218</ele>
        <time>2022-09-06T05:08:15.416Z</time>
      </trkpt>
      <trkpt lat="45.64306" lon="5.29782">
        <ele>218</ele>
        <time>2022-09-06T05:08:16.416Z</time>
      </trkpt>
      <trkpt lat="45.64312" lon="5.2979">
        <ele>218</ele>
        <time>2022-09-06T05:08:17.416Z</time>
      </trkpt>
      <trkpt lat="45.64317" lon="5.29797">
        <ele>218</ele>
        <time>2022-09-06T05:08:18.416Z</time>
      </trkpt>
      <trkpt lat="45.64322" lon="5.29804">
        <ele>218</ele>
        <time>2022-09-06T05:08:19.416Z</time>
      </trkpt>
      <trkpt lat="45.64327" lon="5.29812">
        <ele>218</ele>
        <time>2022-09-06T05:08:20.415Z</time>
      </trkpt>
      <trkpt lat="45.64332" lon="5.29819">
        <ele>219</ele>
        <time>2022-09-06T05:08:21.416Z</time>
      </trkpt>
      <trkpt lat="45.64337" lon="5.29827">
        <ele>219</ele>
        <time>2022-09-06T05:08:22.416Z</time>
      </trkpt>
      <trkpt lat="45.64342" lon="5.29834">
        <ele>220</ele>
        <time>2022-09-06T05:08:23.416Z</time>
      </trkpt>
      <trkpt lat="45.64347" lon="5.29841">
        <ele>220</ele>
        <time>2022-09-06T05:08:24.416Z</time>
      </trkpt>
      <trkpt lat="45.64352" lon="5.29848">
        <ele>220</ele>
        <time>2022-09-06T05:08:25.416Z</time>
      </trkpt>
      <trkpt lat="45.64356" lon="5.29854">
        <ele>220</ele>
        <time>2022-09-06T05:08:26.416Z</time>
      </trkpt>
      <trkpt lat="45.64361" lon="5.29861">
        <ele>220</ele>
        <time>2022-09-06T05:08:27.416Z</time>
      </trkpt>
      <trkpt lat="45.64367" lon="5.2987">
        <ele>220</ele>
        <time>2022-09-06T05:08:28.416Z</time>
      </trkpt>
      <trkpt lat="45.64373" lon="5.29877">
        <ele>220</ele>
        <time>2022-09-06T05:08:29.416Z</time>
      </trkpt>
      <trkpt lat="45.64378" lon="5.29886">
        <ele>221</ele>
        <time>2022-09-06T05:08:30.416Z</time>
      </trkpt>
      <trkpt lat="45.64383" lon="5.29893">
        <ele>221</ele>
        <time>2022-09-06T05:08:31.416Z</time>
      </trkpt>
      <trkpt lat="45.64389" lon="5.29902">
        <ele>221</ele>
        <time>2022-09-06T05:08:32.416Z</time>
      </trkpt>
      <trkpt lat="45.64395" lon="5.29909">
        <ele>221</ele>
        <time>2022-09-06T05:08:33.416Z</time>
      </trkpt>
      <trkpt lat="45.64401" lon="5.29917">
        <ele>221</ele>
        <time>2022-09-06T05:08:34.416Z</time>
      </trkpt>
      <trkpt lat="45.64406" lon="5.29925">
        <ele>222</ele>
        <time>2022-09-06T05:08:35.416Z</time>
      </trkpt>
      <trkpt lat="45.64411" lon="5.29932">
        <ele>222</ele>
        <time>2022-09-06T05:08:36.415Z</time>
      </trkpt>
      <trkpt lat="45.64418" lon="5.29941">
        <ele>223</ele>
        <time>2022-09-06T05:08:37.416Z</time>
      </trkpt>
      <trkpt lat="45.64424" lon="5.29949">
        <ele>223</ele>
        <time>2022-09-06T05:08:38.416Z</time>
      </trkpt>
      <trkpt lat="45.6443" lon="5.29958">
        <ele>223</ele>
        <time>2022-09-06T05:08:39.416Z</time>
      </trkpt>
      <trkpt lat="45.64436" lon="5.29967">
        <ele>223</ele>
        <time>2022-09-06T05:08:40.415Z</time>
      </trkpt>
      <trkpt lat="45.64441" lon="5.29973">
        <ele>223</ele>
        <time>2022-09-06T05:08:41.416Z</time>
      </trkpt>
      <trkpt lat="45.64447" lon="5.29982">
        <ele>223</ele>
        <time>2022-09-06T05:08:42.415Z</time>
      </trkpt>
      <trkpt lat="45.64454" lon="5.29992">
        <ele>223</ele>
        <time>2022-09-06T05:08:43.415Z</time>
      </trkpt>
      <trkpt lat="45.6446" lon="5.30001">
        <ele>223</ele>
        <time>2022-09-06T05:08:44.416Z</time>
      </trkpt>
      <trkpt lat="45.64466" lon="5.30011">
        <ele>222</ele>
        <time>2022-09-06T05:08:45.416Z</time>
      </trkpt>
      <trkpt lat="45.64471" lon="5.30018">
        <ele>222</ele>
        <time>2022-09-06T05:08:46.416Z</time>
      </trkpt>
      <trkpt lat="45.64477" lon="5.30027">
        <ele>222</ele>
        <time>2022-09-06T05:08:47.415Z</time>
      </trkpt>
      <trkpt lat="45.64483" lon="5.30037">
        <ele>222</ele>
        <time>2022-09-06T05:08:48.416Z</time>
      </trkpt>
      <trkpt lat="45.64489" lon="5.30046">
        <ele>222</ele>
        <time>2022-09-06T05:08:49.415Z</time>
      </trkpt>
      <trkpt lat="45.64495" lon="5.30056">
        <ele>222</ele>
        <time>2022-09-06T05:08:50.416Z</time>
      </trkpt>
      <trkpt lat="45.64501" lon="5.30066">
        <ele>222</ele>
        <time>2022-09-06T05:08:51.416Z</time>
      </trkpt>
      <trkpt lat="45.64507" lon="5.30075">
        <ele>222</ele>
        <time>2022-09-06T05:08:52.416Z</time>
      </trkpt>
      <trkpt lat="45.64513" lon="5.30083">
        <ele>223</ele>
        <time>2022-09-06T05:08:53.416Z</time>
      </trkpt>
      <trkpt lat="45.64521" lon="5.30094">
        <ele>223</ele>
        <time>2022-09-06T05:08:54.416Z</time>
      </trkpt>
      <trkpt lat="45.64527" lon="5.30103">
        <ele>223</ele>
        <time>2022-09-06T05:08:55.416Z</time>
      </trkpt>
      <trkpt lat="45.64531" lon="5.30111">
        <ele>223</ele>
        <time>2022-09-06T05:08:56.416Z</time>
      </trkpt>
      <trkpt lat="45.64536" lon="5.30121">
        <ele>222</ele>
        <time>2022-09-06T05:08:57.416Z</time>
      </trkpt>
      <trkpt lat="45.64542" lon="5.30133">
        <ele>222</ele>
        <time>2022-09-06T05:08:58.416Z</time>
      </trkpt>
      <trkpt lat="45.64547" lon="5.30142">
        <ele>221</ele>
        <time>2022-09-06T05:08:59.416Z</time>
      </trkpt>
      <trkpt lat="45.64552" lon="5.3015">
        <ele>221</ele>
        <time>2022-09-06T05:09:00.416Z</time>
      </trkpt>
      <trkpt lat="45.64557" lon="5.30156">
        <ele>221</ele>
        <time>2022-09-06T05:09:01.416Z</time>
      </trkpt>
      <trkpt lat="45.64562" lon="5.30163">
        <ele>221</ele>
        <time>2022-09-06T05:09:02.416Z</time>
      </trkpt>
      <trkpt lat="45.64568" lon="5.30171">
        <ele>221</ele>
        <time>2022-09-06T05:09:03.416Z</time>
      </trkpt>
      <trkpt lat="45.64572" lon="5.30177">
        <ele>220</ele>
        <time>2022-09-06T05:09:04.416Z</time>
      </trkpt>
      <trkpt lat="45.64573" lon="5.30184">
        <ele>220</ele>
        <time>2022-09-06T05:09:05.416Z</time>
      </trkpt>
      <trkpt lat="45.64573" lon="5.3019">
        <ele>220</ele>
        <time>2022-09-06T05:09:06.416Z</time>
      </trkpt>
      <trkpt lat="45.64571" lon="5.30198">
        <ele>221</ele>
        <time>2022-09-06T05:09:07.416Z</time>
      </trkpt>
      <trkpt lat="45.64569" lon="5.30207">
        <ele>221</ele>
        <time>2022-09-06T05:09:08.416Z</time>
      </trkpt>
      <trkpt lat="45.64565" lon="5.30215">
        <ele>221</ele>
        <time>2022-09-06T05:09:09.415Z</time>
      </trkpt>
      <trkpt lat="45.6456" lon="5.30221">
        <ele>221</ele>
        <time>2022-09-06T05:09:10.415Z</time>
      </trkpt>
      <trkpt lat="45.64555" lon="5.30227">
        <ele>220</ele>
        <time>2022-09-06T05:09:11.416Z</time>
      </trkpt>
      <trkpt lat="45.64549" lon="5.30232">
        <ele>220</ele>
        <time>2022-09-06T05:09:12.416Z</time>
      </trkpt>
      <trkpt lat="45.64541" lon="5.30239">
        <ele>220</ele>
        <time>2022-09-06T05:09:13.416Z</time>
      </trkpt>
      <trkpt lat="45.64535" lon="5.30244">
        <ele>221</ele>
        <time>2022-09-06T05:09:14.416Z</time>
      </trkpt>
      <trkpt lat="45.64529" lon="5.30249">
        <ele>221</ele>
        <time>2022-09-06T05:09:15.416Z</time>
      </trkpt>
      <trkpt lat="45.64525" lon="5.30254">
        <ele>222</ele>
        <time>2022-09-06T05:09:16.415Z</time>
      </trkpt>
      <trkpt lat="45.6452" lon="5.3026">
        <ele>222</ele>
        <time>2022-09-06T05:09:17.415Z</time>
      </trkpt>
      <trkpt lat="45.64515" lon="5.30267">
        <ele>223</ele>
        <time>2022-09-06T05:09:18.416Z</time>
      </trkpt>
      <trkpt lat="45.64511" lon="5.30276">
        <ele>223</ele>
        <time>2022-09-06T05:09:19.415Z</time>
      </trkpt>
      <trkpt lat="45.64508" lon="5.30284">
        <ele>222</ele>
        <time>2022-09-06T05:09:20.416Z</time>
      </trkpt>
      <trkpt lat="45.64505" lon="5.30293">
        <ele>222</ele>
        <time>2022-09-06T05:09:21.415Z</time>
      </trkpt>
      <trkpt lat="45.64504" lon="5.303">
        <ele>222</ele>
        <time>2022-09-06T05:09:22.415Z</time>
      </trkpt>
      <trkpt lat="45.64502" lon="5.30311">
        <ele>222</ele>
        <time>2022-09-06T05:09:23.416Z</time>
      </trkpt>
      <trkpt lat="45.645" lon="5.3032">
        <ele>222</ele>
        <time>2022-09-06T05:09:24.416Z</time>
      </trkpt>
      <trkpt lat="45.64499" lon="5.30329">
        <ele>222</ele>
        <time>2022-09-06T05:09:25.415Z</time>
      </trkpt>
      <trkpt lat="45.64497" lon="5.30337">
        <ele>222</ele>
        <time>2022-09-06T05:09:26.416Z</time>
      </trkpt>
      <trkpt lat="45.64496" lon="5.30348">
        <ele>222</ele>
        <time>2022-09-06T05:09:27.415Z</time>
      </trkpt>
      <trkpt lat="45.64495" lon="5.30356">
        <ele>223</ele>
        <time>2022-09-06T05:09:28.415Z</time>
      </trkpt>
      <trkpt lat="45.64493" lon="5.30367">
        <ele>223</ele>
        <time>2022-09-06T05:09:29.415Z</time>
      </trkpt>
      <trkpt lat="45.64492" lon="5.30376">
        <ele>223</ele>
        <time>2022-09-06T05:09:30.416Z</time>
      </trkpt>
      <trkpt lat="45.64491" lon="5.30383">
        <ele>224</ele>
        <time>2022-09-06T05:09:31.416Z</time>
      </trkpt>
      <trkpt lat="45.64489" lon="5.30393">
        <ele>225</ele>
        <time>2022-09-06T05:09:32.415Z</time>
      </trkpt>
      <trkpt lat="45.64488" lon="5.30404">
        <ele>225</ele>
        <time>2022-09-06T05:09:33.415Z</time>
      </trkpt>
      <trkpt lat="45.64486" lon="5.30412">
        <ele>225</ele>
        <time>2022-09-06T05:09:34.415Z</time>
      </trkpt>
      <trkpt lat="45.64485" lon="5.30421">
        <ele>225</ele>
        <time>2022-09-06T05:09:35.416Z</time>
      </trkpt>
      <trkpt lat="45.64484" lon="5.30428">
        <ele>225</ele>
        <time>2022-09-06T05:09:36.415Z</time>
      </trkpt>
      <trkpt lat="45.64483" lon="5.30437">
        <ele>224</ele>
        <time>2022-09-06T05:09:37.416Z</time>
      </trkpt>
      <trkpt lat="45.64481" lon="5.30446">
        <ele>224</ele>
        <time>2022-09-06T05:09:38.416Z</time>
      </trkpt>
      <trkpt lat="45.6448" lon="5.30456">
        <ele>225</ele>
        <time>2022-09-06T05:09:39.416Z</time>
      </trkpt>
      <trkpt lat="45.64478" lon="5.30465">
        <ele>225</ele>
        <time>2022-09-06T05:09:40.416Z</time>
      </trkpt>
      <trkpt lat="45.64477" lon="5.30474">
        <ele>225</ele>
        <time>2022-09-06T05:09:41.415Z</time>
      </trkpt>
      <trkpt lat="45.64475" lon="5.30482">
        <ele>225</ele>
        <time>2022-09-06T05:09:42.416Z</time>
      </trkpt>
      <trkpt lat="45.64474" lon="5.30491">
        <ele>225</ele>
        <time>2022-09-06T05:09:43.416Z</time>
      </trkpt>
      <trkpt lat="45.64473" lon="5.30499">
        <ele>225</ele>
        <time>2022-09-06T05:09:44.416Z</time>
      </trkpt>
      <trkpt lat="45.64471" lon="5.30508">
        <ele>226</ele>
        <time>2022-09-06T05:09:45.416Z</time>
      </trkpt>
      <trkpt lat="45.6447" lon="5.30517">
        <ele>226</ele>
        <time>2022-09-06T05:09:46.416Z</time>
      </trkpt>
      <trkpt lat="45.64469" lon="5.30524">
        <ele>226</ele>
        <time>2022-09-06T05:09:47.415Z</time>
      </trkpt>
      <trkpt lat="45.64468" lon="5.30533">
        <ele>226</ele>
        <time>2022-09-06T05:09:48.416Z</time>
      </trkpt>
      <trkpt lat="45.64466" lon="5.30542">
        <ele>226</ele>
        <time>2022-09-06T05:09:49.416Z</time>
      </trkpt>
      <trkpt lat="45.64465" lon="5.30551">
        <ele>226</ele>
        <time>2022-09-06T05:09:50.416Z</time>
      </trkpt>
      <trkpt lat="45.64464" lon="5.3056">
        <ele>226</ele>
        <time>2022-09-06T05:09:51.416Z</time>
      </trkpt>
      <trkpt lat="45.64462" lon="5.3057">
        <ele>227</ele>
        <time>2022-09-06T05:09:52.416Z</time>
      </trkpt>
      <trkpt lat="45.64461" lon="5.30579">
        <ele>227</ele>
        <time>2022-09-06T05:09:53.416Z</time>
      </trkpt>
      <trkpt lat="45.6446" lon="5.30588">
        <ele>226</ele>
        <time>2022-09-06T05:09:54.416Z</time>
      </trkpt>
      <trkpt lat="45.64458" lon="5.30596">
        <ele>226</ele>
        <time>2022-09-06T05:09:55.416Z</time>
      </trkpt>
      <trkpt lat="45.64457" lon="5.30604">
        <ele>226</ele>
        <time>2022-09-06T05:09:56.416Z</time>
      </trkpt>
      <trkpt lat="45.64455" lon="5.30615">
        <ele>226</ele>
        <time>2022-09-06T05:09:57.416Z</time>
      </trkpt>
      <trkpt lat="45.64454" lon="5.30624">
        <ele>227</ele>
        <time>2022-09-06T05:09:58.416Z</time>
      </trkpt>
      <trkpt lat="45.64453" lon="5.30634">
        <ele>227</ele>
        <time>2022-09-06T05:09:59.415Z</time>
      </trkpt>
      <trkpt lat="45.64451" lon="5.30641">
        <ele>228</ele>
        <time>2022-09-06T05:10:00.415Z</time>
      </trkpt>
      <trkpt lat="45.6445" lon="5.3065">
        <ele>228</ele>
        <time>2022-09-06T05:10:01.416Z</time>
      </trkpt>
      <trkpt lat="45.64448" lon="5.30661">
        <ele>229</ele>
        <time>2022-09-06T05:10:02.416Z</time>
      </trkpt>
      <trkpt lat="45.64447" lon="5.3067">
        <ele>229</ele>
        <time>2022-09-06T05:10:03.416Z</time>
      </trkpt>
      <trkpt lat="45.64445" lon="5.30679">
        <ele>229</ele>
        <time>2022-09-06T05:10:04.416Z</time>
      </trkpt>
      <trkpt lat="45.64444" lon="5.30688">
        <ele>229</ele>
        <time>2022-09-06T05:10:05.415Z</time>
      </trkpt>
      <trkpt lat="45.64443" lon="5.30698">
        <ele>229</ele>
        <time>2022-09-06T05:10:06.416Z</time>
      </trkpt>
      <trkpt lat="45.64441" lon="5.30707">
        <ele>229</ele>
        <time>2022-09-06T05:10:07.416Z</time>
      </trkpt>
      <trkpt lat="45.6444" lon="5.30716">
        <ele>230</ele>
        <time>2022-09-06T05:10:08.416Z</time>
      </trkpt>
      <trkpt lat="45.64439" lon="5.30725">
        <ele>230</ele>
        <time>2022-09-06T05:10:09.416Z</time>
      </trkpt>
      <trkpt lat="45.64437" lon="5.30732">
        <ele>230</ele>
        <time>2022-09-06T05:10:10.416Z</time>
      </trkpt>
      <trkpt lat="45.64436" lon="5.30743">
        <ele>230</ele>
        <time>2022-09-06T05:10:11.415Z</time>
      </trkpt>
      <trkpt lat="45.64435" lon="5.30752">
        <ele>230</ele>
        <time>2022-09-06T05:10:12.415Z</time>
      </trkpt>
      <trkpt lat="45.64433" lon="5.30761">
        <ele>230</ele>
        <time>2022-09-06T05:10:13.416Z</time>
      </trkpt>
      <trkpt lat="45.64432" lon="5.3077">
        <ele>230</ele>
        <time>2022-09-06T05:10:14.416Z</time>
      </trkpt>
      <trkpt lat="45.6443" lon="5.30779">
        <ele>230</ele>
        <time>2022-09-06T05:10:15.415Z</time>
      </trkpt>
      <trkpt lat="45.64429" lon="5.30787">
        <ele>229</ele>
        <time>2022-09-06T05:10:16.416Z</time>
      </trkpt>
      <trkpt lat="45.64427" lon="5.30796">
        <ele>230</ele>
        <time>2022-09-06T05:10:17.416Z</time>
      </trkpt>
      <trkpt lat="45.64426" lon="5.30804">
        <ele>230</ele>
        <time>2022-09-06T05:10:18.416Z</time>
      </trkpt>
      <trkpt lat="45.64425" lon="5.30812">
        <ele>230</ele>
        <time>2022-09-06T05:10:19.415Z</time>
      </trkpt>
      <trkpt lat="45.64423" lon="5.30823">
        <ele>231</ele>
        <time>2022-09-06T05:10:20.416Z</time>
      </trkpt>
      <trkpt lat="45.64422" lon="5.30832">
        <ele>232</ele>
        <time>2022-09-06T05:10:21.415Z</time>
      </trkpt>
      <trkpt lat="45.64421" lon="5.3084">
        <ele>232</ele>
        <time>2022-09-06T05:10:22.415Z</time>
      </trkpt>
      <trkpt lat="45.64419" lon="5.30849">
        <ele>233</ele>
        <time>2022-09-06T05:10:23.416Z</time>
      </trkpt>
      <trkpt lat="45.64418" lon="5.30856">
        <ele>233</ele>
        <time>2022-09-06T05:10:24.416Z</time>
      </trkpt>
      <trkpt lat="45.64416" lon="5.30866">
        <ele>233</ele>
        <time>2022-09-06T05:10:25.416Z</time>
      </trkpt>
      <trkpt lat="45.64415" lon="5.30875">
        <ele>233</ele>
        <time>2022-09-06T05:10:26.415Z</time>
      </trkpt>
      <trkpt lat="45.64414" lon="5.30883">
        <ele>233</ele>
        <time>2022-09-06T05:10:27.416Z</time>
      </trkpt>
      <trkpt lat="45.64413" lon="5.30892">
        <ele>233</ele>
        <time>2022-09-06T05:10:28.415Z</time>
      </trkpt>
      <trkpt lat="45.64412" lon="5.30903">
        <ele>233</ele>
        <time>2022-09-06T05:10:29.416Z</time>
      </trkpt>
      <trkpt lat="45.64411" lon="5.30913">
        <ele>232</ele>
        <time>2022-09-06T05:10:30.416Z</time>
      </trkpt>
      <trkpt lat="45.64411" lon="5.30923">
        <ele>232</ele>
        <time>2022-09-06T05:10:31.416Z</time>
      </trkpt>
      <trkpt lat="45.64412" lon="5.30933">
        <ele>232</ele>
        <time>2022-09-06T05:10:32.416Z</time>
      </trkpt>
      <trkpt lat="45.64412" lon="5.30943">
        <ele>232</ele>
        <time>2022-09-06T05:10:33.416Z</time>
      </trkpt>
      <trkpt lat="45.64413" lon="5.30953">
        <ele>232</ele>
        <time>2022-09-06T05:10:34.415Z</time>
      </trkpt>
      <trkpt lat="45.64413" lon="5.30963">
        <ele>233</ele>
        <time>2022-09-06T05:10:35.416Z</time>
      </trkpt>
      <trkpt lat="45.64414" lon="5.30974">
        <ele>233</ele>
        <time>2022-09-06T05:10:36.416Z</time>
      </trkpt>
      <trkpt lat="45.64416" lon="5.30983">
        <ele>234</ele>
        <time>2022-09-06T05:10:37.416Z</time>
      </trkpt>
      <trkpt lat="45.64417" lon="5.30996">
        <ele>234</ele>
        <time>2022-09-06T05:10:38.415Z</time>
      </trkpt>
      <trkpt lat="45.64418" lon="5.31007">
        <ele>234</ele>
        <time>2022-09-06T05:10:39.416Z</time>
      </trkpt>
      <trkpt lat="45.6442" lon="5.31017">
        <ele>234</ele>
        <time>2022-09-06T05:10:40.416Z</time>
      </trkpt>
      <trkpt lat="45.64421" lon="5.31028">
        <ele>234</ele>
        <time>2022-09-06T05:10:41.415Z</time>
      </trkpt>
      <trkpt lat="45.64422" lon="5.31037">
        <ele>234</ele>
        <time>2022-09-06T05:10:42.416Z</time>
      </trkpt>
      <trkpt lat="45.64423" lon="5.3105">
        <ele>234</ele>
        <time>2022-09-06T05:10:43.416Z</time>
      </trkpt>
      <trkpt lat="45.64424" lon="5.31061">
        <ele>235</ele>
        <time>2022-09-06T05:10:44.415Z</time>
      </trkpt>
      <trkpt lat="45.64424" lon="5.31072">
        <ele>235</ele>
        <time>2022-09-06T05:10:45.415Z</time>
      </trkpt>
      <trkpt lat="45.64425" lon="5.31083">
        <ele>235</ele>
        <time>2022-09-06T05:10:46.416Z</time>
      </trkpt>
      <trkpt lat="45.64426" lon="5.31094">
        <ele>235</ele>
        <time>2022-09-06T05:10:47.415Z</time>
      </trkpt>
      <trkpt lat="45.64426" lon="5.31104">
        <ele>235</ele>
        <time>2022-09-06T05:10:48.416Z</time>
      </trkpt>
      <trkpt lat="45.64427" lon="5.31115">
        <ele>235</ele>
        <time>2022-09-06T05:10:49.416Z</time>
      </trkpt>
      <trkpt lat="45.64428" lon="5.31126">
        <ele>235</ele>
        <time>2022-09-06T05:10:50.416Z</time>
      </trkpt>
      <trkpt lat="45.64429" lon="5.31137">
        <ele>234</ele>
        <time>2022-09-06T05:10:51.415Z</time>
      </trkpt>
      <trkpt lat="45.64429" lon="5.31148">
        <ele>234</ele>
        <time>2022-09-06T05:10:52.416Z</time>
      </trkpt>
      <trkpt lat="45.6443" lon="5.31159">
        <ele>234</ele>
        <time>2022-09-06T05:10:53.415Z</time>
      </trkpt>
      <trkpt lat="45.6443" lon="5.3117">
        <ele>234</ele>
        <time>2022-09-06T05:10:54.415Z</time>
      </trkpt>
      <trkpt lat="45.6443" lon="5.31181">
        <ele>234</ele>
        <time>2022-09-06T05:10:55.415Z</time>
      </trkpt>
      <trkpt lat="45.6443" lon="5.31191">
        <ele>234</ele>
        <time>2022-09-06T05:10:56.415Z</time>
      </trkpt>
      <trkpt lat="45.6443" lon="5.31202">
        <ele>234</ele>
        <time>2022-09-06T05:10:57.415Z</time>
      </trkpt>
      <trkpt lat="45.6443" lon="5.31213">
        <ele>234</ele>
        <time>2022-09-06T05:10:58.416Z</time>
      </trkpt>
      <trkpt lat="45.6443" lon="5.31222">
        <ele>235</ele>
        <time>2022-09-06T05:10:59.416Z</time>
      </trkpt>
      <trkpt lat="45.6443" lon="5.31233">
        <ele>235</ele>
        <time>2022-09-06T05:11:00.416Z</time>
      </trkpt>
      <trkpt lat="45.6443" lon="5.31246">
        <ele>234</ele>
        <time>2022-09-06T05:11:01.416Z</time>
      </trkpt>
      <trkpt lat="45.64429" lon="5.31257">
        <ele>234</ele>
        <time>2022-09-06T05:11:02.416Z</time>
      </trkpt>
      <trkpt lat="45.64429" lon="5.31267">
        <ele>234</ele>
        <time>2022-09-06T05:11:03.416Z</time>
      </trkpt>
      <trkpt lat="45.64429" lon="5.31278">
        <ele>233</ele>
        <time>2022-09-06T05:11:04.415Z</time>
      </trkpt>
      <trkpt lat="45.64428" lon="5.31286">
        <ele>232</ele>
        <time>2022-09-06T05:11:05.416Z</time>
      </trkpt>
      <trkpt lat="45.64428" lon="5.31299">
        <ele>232</ele>
        <time>2022-09-06T05:11:06.416Z</time>
      </trkpt>
      <trkpt lat="45.64428" lon="5.3131">
        <ele>232</ele>
        <time>2022-09-06T05:11:07.416Z</time>
      </trkpt>
      <trkpt lat="45.64427" lon="5.3132">
        <ele>231</ele>
        <time>2022-09-06T05:11:08.415Z</time>
      </trkpt>
      <trkpt lat="45.64427" lon="5.31329">
        <ele>232</ele>
        <time>2022-09-06T05:11:09.415Z</time>
      </trkpt>
      <trkpt lat="45.64426" lon="5.31341">
        <ele>232</ele>
        <time>2022-09-06T05:11:10.416Z</time>
      </trkpt>
      <trkpt lat="45.64426" lon="5.31352">
        <ele>232</ele>
        <time>2022-09-06T05:11:11.416Z</time>
      </trkpt>
      <trkpt lat="45.64426" lon="5.31362">
        <ele>232</ele>
        <time>2022-09-06T05:11:12.416Z</time>
      </trkpt>
      <trkpt lat="45.64426" lon="5.31371">
        <ele>232</ele>
        <time>2022-09-06T05:11:13.415Z</time>
      </trkpt>
      <trkpt lat="45.64426" lon="5.31382">
        <ele>232</ele>
        <time>2022-09-06T05:11:14.415Z</time>
      </trkpt>
      <trkpt lat="45.64425" lon="5.31391">
        <ele>232</ele>
        <time>2022-09-06T05:11:15.416Z</time>
      </trkpt>
      <trkpt lat="45.64425" lon="5.31401">
        <ele>232</ele>
        <time>2022-09-06T05:11:16.416Z</time>
      </trkpt>
      <trkpt lat="45.64425" lon="5.3141">
        <ele>232</ele>
        <time>2022-09-06T05:11:17.415Z</time>
      </trkpt>
      <trkpt lat="45.64424" lon="5.31418">
        <ele>231</ele>
        <time>2022-09-06T05:11:18.416Z</time>
      </trkpt>
      <trkpt lat="45.64424" lon="5.31429">
        <ele>231</ele>
        <time>2022-09-06T05:11:19.416Z</time>
      </trkpt>
      <trkpt lat="45.64424" lon="5.31438">
        <ele>231</ele>
        <time>2022-09-06T05:11:20.416Z</time>
      </trkpt>
      <trkpt lat="45.64424" lon="5.31447">
        <ele>231</ele>
        <time>2022-09-06T05:11:21.416Z</time>
      </trkpt>
      <trkpt lat="45.64424" lon="5.31456">
        <ele>231</ele>
        <time>2022-09-06T05:11:22.416Z</time>
      </trkpt>
      <trkpt lat="45.64423" lon="5.31465">
        <ele>231</ele>
        <time>2022-09-06T05:11:23.416Z</time>
      </trkpt>
      <trkpt lat="45.64424" lon="5.31473">
        <ele>231</ele>
        <time>2022-09-06T05:11:24.416Z</time>
      </trkpt>
      <trkpt lat="45.64423" lon="5.31482">
        <ele>231</ele>
        <time>2022-09-06T05:11:25.415Z</time>
      </trkpt>
      <trkpt lat="45.64423" lon="5.31491">
        <ele>231</ele>
        <time>2022-09-06T05:11:26.416Z</time>
      </trkpt>
      <trkpt lat="45.64423" lon="5.31499">
        <ele>231</ele>
        <time>2022-09-06T05:11:27.415Z</time>
      </trkpt>
      <trkpt lat="45.64423" lon="5.31508">
        <ele>231</ele>
        <time>2022-09-06T05:11:28.416Z</time>
      </trkpt>
      <trkpt lat="45.64423" lon="5.31517">
        <ele>230</ele>
        <time>2022-09-06T05:11:29.415Z</time>
      </trkpt>
      <trkpt lat="45.64423" lon="5.31526">
        <ele>230</ele>
        <time>2022-09-06T05:11:30.416Z</time>
      </trkpt>
      <trkpt lat="45.64423" lon="5.31535">
        <ele>230</ele>
        <time>2022-09-06T05:11:31.416Z</time>
      </trkpt>
      <trkpt lat="45.64423" lon="5.31543">
        <ele>229</ele>
        <time>2022-09-06T05:11:32.416Z</time>
      </trkpt>
      <trkpt lat="45.64423" lon="5.31552">
        <ele>230</ele>
        <time>2022-09-06T05:11:33.416Z</time>
      </trkpt>
      <trkpt lat="45.64423" lon="5.31561">
        <ele>230</ele>
        <time>2022-09-06T05:11:34.416Z</time>
      </trkpt>
      <trkpt lat="45.64423" lon="5.3157">
        <ele>230</ele>
        <time>2022-09-06T05:11:35.416Z</time>
      </trkpt>
      <trkpt lat="45.64423" lon="5.31579">
        <ele>229</ele>
        <time>2022-09-06T05:11:36.415Z</time>
      </trkpt>
      <trkpt lat="45.64423" lon="5.31586">
        <ele>229</ele>
        <time>2022-09-06T05:11:37.416Z</time>
      </trkpt>
      <trkpt lat="45.64423" lon="5.31597">
        <ele>230</ele>
        <time>2022-09-06T05:11:38.415Z</time>
      </trkpt>
      <trkpt lat="45.64423" lon="5.31606">
        <ele>230</ele>
        <time>2022-09-06T05:11:39.416Z</time>
      </trkpt>
      <trkpt lat="45.64423" lon="5.31615">
        <ele>230</ele>
        <time>2022-09-06T05:11:40.416Z</time>
      </trkpt>
      <trkpt lat="45.64423" lon="5.31624">
        <ele>231</ele>
        <time>2022-09-06T05:11:41.416Z</time>
      </trkpt>
      <trkpt lat="45.64422" lon="5.31633">
        <ele>231</ele>
        <time>2022-09-06T05:11:42.415Z</time>
      </trkpt>
      <trkpt lat="45.64422" lon="5.31642">
        <ele>232</ele>
        <time>2022-09-06T05:11:43.416Z</time>
      </trkpt>
      <trkpt lat="45.64422" lon="5.31651">
        <ele>232</ele>
        <time>2022-09-06T05:11:44.415Z</time>
      </trkpt>
      <trkpt lat="45.64422" lon="5.3166">
        <ele>233</ele>
        <time>2022-09-06T05:11:45.416Z</time>
      </trkpt>
      <trkpt lat="45.64422" lon="5.31668">
        <ele>233</ele>
        <time>2022-09-06T05:11:46.416Z</time>
      </trkpt>
      <trkpt lat="45.64421" lon="5.3168">
        <ele>234</ele>
        <time>2022-09-06T05:11:47.415Z</time>
      </trkpt>
      <trkpt lat="45.64421" lon="5.31689">
        <ele>235</ele>
        <time>2022-09-06T05:11:48.416Z</time>
      </trkpt>
      <trkpt lat="45.64421" lon="5.31699">
        <ele>235</ele>
        <time>2022-09-06T05:11:49.416Z</time>
      </trkpt>
      <trkpt lat="45.64421" lon="5.31708">
        <ele>236</ele>
        <time>2022-09-06T05:11:50.416Z</time>
      </trkpt>
      <trkpt lat="45.6442" lon="5.31718">
        <ele>236</ele>
        <time>2022-09-06T05:11:51.416Z</time>
      </trkpt>
      <trkpt lat="45.6442" lon="5.31728">
        <ele>236</ele>
        <time>2022-09-06T05:11:52.416Z</time>
      </trkpt>
      <trkpt lat="45.6442" lon="5.31738">
        <ele>236</ele>
        <time>2022-09-06T05:11:53.415Z</time>
      </trkpt>
      <trkpt lat="45.6442" lon="5.31748">
        <ele>236</ele>
        <time>2022-09-06T05:11:54.416Z</time>
      </trkpt>
      <trkpt lat="45.6442" lon="5.31756">
        <ele>236</ele>
        <time>2022-09-06T05:11:55.416Z</time>
      </trkpt>
      <trkpt lat="45.64419" lon="5.31767">
        <ele>236</ele>
        <time>2022-09-06T05:11:56.415Z</time>
      </trkpt>
      <trkpt lat="45.64419" lon="5.31777">
        <ele>236</ele>
        <time>2022-09-06T05:11:57.416Z</time>
      </trkpt>
      <trkpt lat="45.64419" lon="5.31786">
        <ele>236</ele>
        <time>2022-09-06T05:11:58.415Z</time>
      </trkpt>
      <trkpt lat="45.64419" lon="5.31796">
        <ele>236</ele>
        <time>2022-09-06T05:11:59.416Z</time>
      </trkpt>
      <trkpt lat="45.64419" lon="5.31804">
        <ele>236</ele>
        <time>2022-09-06T05:12:00.416Z</time>
      </trkpt>
      <trkpt lat="45.64418" lon="5.31816">
        <ele>236</ele>
        <time>2022-09-06T05:12:01.415Z</time>
      </trkpt>
      <trkpt lat="45.64418" lon="5.31826">
        <ele>236</ele>
        <time>2022-09-06T05:12:02.415Z</time>
      </trkpt>
      <trkpt lat="45.64418" lon="5.31834">
        <ele>236</ele>
        <time>2022-09-06T05:12:03.415Z</time>
      </trkpt>
      <trkpt lat="45.64417" lon="5.31844">
        <ele>237</ele>
        <time>2022-09-06T05:12:04.415Z</time>
      </trkpt>
      <trkpt lat="45.64417" lon="5.31856">
        <ele>237</ele>
        <time>2022-09-06T05:12:05.416Z</time>
      </trkpt>
      <trkpt lat="45.64417" lon="5.31867">
        <ele>237</ele>
        <time>2022-09-06T05:12:06.416Z</time>
      </trkpt>
      <trkpt lat="45.64416" lon="5.31877">
        <ele>238</ele>
        <time>2022-09-06T05:12:07.416Z</time>
      </trkpt>
      <trkpt lat="45.64416" lon="5.31885">
        <ele>238</ele>
        <time>2022-09-06T05:12:08.416Z</time>
      </trkpt>
      <trkpt lat="45.64416" lon="5.31896">
        <ele>238</ele>
        <time>2022-09-06T05:12:09.416Z</time>
      </trkpt>
      <trkpt lat="45.64416" lon="5.31909">
        <ele>238</ele>
        <time>2022-09-06T05:12:10.416Z</time>
      </trkpt>
      <trkpt lat="45.64415" lon="5.31919">
        <ele>238</ele>
        <time>2022-09-06T05:12:11.415Z</time>
      </trkpt>
      <trkpt lat="45.64415" lon="5.3193">
        <ele>238</ele>
        <time>2022-09-06T05:12:12.416Z</time>
      </trkpt>
      <trkpt lat="45.64415" lon="5.31941">
        <ele>238</ele>
        <time>2022-09-06T05:12:13.416Z</time>
      </trkpt>
      <trkpt lat="45.64415" lon="5.31951">
        <ele>238</ele>
        <time>2022-09-06T05:12:14.416Z</time>
      </trkpt>
      <trkpt lat="45.64415" lon="5.31962">
        <ele>238</ele>
        <time>2022-09-06T05:12:15.416Z</time>
      </trkpt>
      <trkpt lat="45.64415" lon="5.31973">
        <ele>238</ele>
        <time>2022-09-06T05:12:16.416Z</time>
      </trkpt>
      <trkpt lat="45.64414" lon="5.31983">
        <ele>238</ele>
        <time>2022-09-06T05:12:17.416Z</time>
      </trkpt>
      <trkpt lat="45.64414" lon="5.31992">
        <ele>238</ele>
        <time>2022-09-06T05:12:18.416Z</time>
      </trkpt>
      <trkpt lat="45.64414" lon="5.32004">
        <ele>237</ele>
        <time>2022-09-06T05:12:19.416Z</time>
      </trkpt>
      <trkpt lat="45.64414" lon="5.32015">
        <ele>237</ele>
        <time>2022-09-06T05:12:20.416Z</time>
      </trkpt>
      <trkpt lat="45.64413" lon="5.32026">
        <ele>237</ele>
        <time>2022-09-06T05:12:21.415Z</time>
      </trkpt>
      <trkpt lat="45.64413" lon="5.32037">
        <ele>237</ele>
        <time>2022-09-06T05:12:22.416Z</time>
      </trkpt>
      <trkpt lat="45.64412" lon="5.32047">
        <ele>237</ele>
        <time>2022-09-06T05:12:23.416Z</time>
      </trkpt>
      <trkpt lat="45.64412" lon="5.32058">
        <ele>238</ele>
        <time>2022-09-06T05:12:24.416Z</time>
      </trkpt>
      <trkpt lat="45.64411" lon="5.3207">
        <ele>237</ele>
        <time>2022-09-06T05:12:25.416Z</time>
      </trkpt>
      <trkpt lat="45.64409" lon="5.32081">
        <ele>237</ele>
        <time>2022-09-06T05:12:26.416Z</time>
      </trkpt>
      <trkpt lat="45.64408" lon="5.32093">
        <ele>237</ele>
        <time>2022-09-06T05:12:27.416Z</time>
      </trkpt>
      <trkpt lat="45.64407" lon="5.32104">
        <ele>237</ele>
        <time>2022-09-06T05:12:28.416Z</time>
      </trkpt>
      <trkpt lat="45.64405" lon="5.32116">
        <ele>237</ele>
        <time>2022-09-06T05:12:29.416Z</time>
      </trkpt>
      <trkpt lat="45.64404" lon="5.32128">
        <ele>237</ele>
        <time>2022-09-06T05:12:30.415Z</time>
      </trkpt>
      <trkpt lat="45.64402" lon="5.3214">
        <ele>237</ele>
        <time>2022-09-06T05:12:31.416Z</time>
      </trkpt>
      <trkpt lat="45.64401" lon="5.32153">
        <ele>237</ele>
        <time>2022-09-06T05:12:32.416Z</time>
      </trkpt>
      <trkpt lat="45.64399" lon="5.32165">
        <ele>236</ele>
        <time>2022-09-06T05:12:33.416Z</time>
      </trkpt>
      <trkpt lat="45.64398" lon="5.32177">
        <ele>236</ele>
        <time>2022-09-06T05:12:34.416Z</time>
      </trkpt>
      <trkpt lat="45.64396" lon="5.3219">
        <ele>236</ele>
        <time>2022-09-06T05:12:35.416Z</time>
      </trkpt>
      <trkpt lat="45.64395" lon="5.32202">
        <ele>236</ele>
        <time>2022-09-06T05:12:36.416Z</time>
      </trkpt>
      <trkpt lat="45.64393" lon="5.32214">
        <ele>236</ele>
        <time>2022-09-06T05:12:37.416Z</time>
      </trkpt>
      <trkpt lat="45.64392" lon="5.32227">
        <ele>236</ele>
        <time>2022-09-06T05:12:38.416Z</time>
      </trkpt>
      <trkpt lat="45.6439" lon="5.32239">
        <ele>235</ele>
        <time>2022-09-06T05:12:39.415Z</time>
      </trkpt>
      <trkpt lat="45.64389" lon="5.32249">
        <ele>235</ele>
        <time>2022-09-06T05:12:40.416Z</time>
      </trkpt>
      <trkpt lat="45.64387" lon="5.32261">
        <ele>235</ele>
        <time>2022-09-06T05:12:41.416Z</time>
      </trkpt>
      <trkpt lat="45.64385" lon="5.32276">
        <ele>235</ele>
        <time>2022-09-06T05:12:42.416Z</time>
      </trkpt>
      <trkpt lat="45.64384" lon="5.32288">
        <ele>236</ele>
        <time>2022-09-06T05:12:43.416Z</time>
      </trkpt>
      <trkpt lat="45.64383" lon="5.32299">
        <ele>236</ele>
        <time>2022-09-06T05:12:44.416Z</time>
      </trkpt>
      <trkpt lat="45.64382" lon="5.32309">
        <ele>236</ele>
        <time>2022-09-06T05:12:45.416Z</time>
      </trkpt>
      <trkpt lat="45.6438" lon="5.32323">
        <ele>236</ele>
        <time>2022-09-06T05:12:46.416Z</time>
      </trkpt>
      <trkpt lat="45.64379" lon="5.32335">
        <ele>236</ele>
        <time>2022-09-06T05:12:47.416Z</time>
      </trkpt>
      <trkpt lat="45.64377" lon="5.32346">
        <ele>236</ele>
        <time>2022-09-06T05:12:48.415Z</time>
      </trkpt>
      <trkpt lat="45.64376" lon="5.32356">
        <ele>236</ele>
        <time>2022-09-06T05:12:49.416Z</time>
      </trkpt>
      <trkpt lat="45.64375" lon="5.32367">
        <ele>236</ele>
        <time>2022-09-06T05:12:50.416Z</time>
      </trkpt>
      <trkpt lat="45.64373" lon="5.32381">
        <ele>236</ele>
        <time>2022-09-06T05:12:51.416Z</time>
      </trkpt>
      <trkpt lat="45.64372" lon="5.32391">
        <ele>236</ele>
        <time>2022-09-06T05:12:52.415Z</time>
      </trkpt>
      <trkpt lat="45.6437" lon="5.32405">
        <ele>236</ele>
        <time>2022-09-06T05:12:53.416Z</time>
      </trkpt>
      <trkpt lat="45.64369" lon="5.32417">
        <ele>236</ele>
        <time>2022-09-06T05:12:54.415Z</time>
      </trkpt>
      <trkpt lat="45.64367" lon="5.32429">
        <ele>236</ele>
        <time>2022-09-06T05:12:55.416Z</time>
      </trkpt>
      <trkpt lat="45.64366" lon="5.32441">
        <ele>235</ele>
        <time>2022-09-06T05:12:56.416Z</time>
      </trkpt>
      <trkpt lat="45.64365" lon="5.32453">
        <ele>235</ele>
        <time>2022-09-06T05:12:57.416Z</time>
      </trkpt>
      <trkpt lat="45.64363" lon="5.32465">
        <ele>236</ele>
        <time>2022-09-06T05:12:58.416Z</time>
      </trkpt>
      <trkpt lat="45.64362" lon="5.32474">
        <ele>236</ele>
        <time>2022-09-06T05:12:59.416Z</time>
      </trkpt>
      <trkpt lat="45.64361" lon="5.32486">
        <ele>236</ele>
        <time>2022-09-06T05:13:00.416Z</time>
      </trkpt>
      <trkpt lat="45.64359" lon="5.325">
        <ele>236</ele>
        <time>2022-09-06T05:13:01.415Z</time>
      </trkpt>
      <trkpt lat="45.64358" lon="5.32512">
        <ele>236</ele>
        <time>2022-09-06T05:13:02.416Z</time>
      </trkpt>
      <trkpt lat="45.64357" lon="5.32524">
        <ele>235</ele>
        <time>2022-09-06T05:13:03.416Z</time>
      </trkpt>
      <trkpt lat="45.64356" lon="5.32533">
        <ele>235</ele>
        <time>2022-09-06T05:13:04.415Z</time>
      </trkpt>
      <trkpt lat="45.64354" lon="5.32547">
        <ele>235</ele>
        <time>2022-09-06T05:13:05.416Z</time>
      </trkpt>
      <trkpt lat="45.64352" lon="5.32559">
        <ele>235</ele>
        <time>2022-09-06T05:13:06.416Z</time>
      </trkpt>
      <trkpt lat="45.64351" lon="5.32571">
        <ele>235</ele>
        <time>2022-09-06T05:13:07.416Z</time>
      </trkpt>
      <trkpt lat="45.6435" lon="5.32582">
        <ele>236</ele>
        <time>2022-09-06T05:13:08.415Z</time>
      </trkpt>
      <trkpt lat="45.64349" lon="5.32591">
        <ele>236</ele>
        <time>2022-09-06T05:13:09.416Z</time>
      </trkpt>
      <trkpt lat="45.64347" lon="5.32605">
        <ele>237</ele>
        <time>2022-09-06T05:13:10.416Z</time>
      </trkpt>
      <trkpt lat="45.64346" lon="5.32614">
        <ele>238</ele>
        <time>2022-09-06T05:13:11.416Z</time>
      </trkpt>
      <trkpt lat="45.64345" lon="5.32626">
        <ele>238</ele>
        <time>2022-09-06T05:13:12.416Z</time>
      </trkpt>
      <trkpt lat="45.64343" lon="5.3264">
        <ele>238</ele>
        <time>2022-09-06T05:13:13.415Z</time>
      </trkpt>
      <trkpt lat="45.64342" lon="5.32651">
        <ele>238</ele>
        <time>2022-09-06T05:13:14.416Z</time>
      </trkpt>
      <trkpt lat="45.6434" lon="5.32663">
        <ele>238</ele>
        <time>2022-09-06T05:13:15.416Z</time>
      </trkpt>
      <trkpt lat="45.64339" lon="5.32674">
        <ele>238</ele>
        <time>2022-09-06T05:13:16.416Z</time>
      </trkpt>
      <trkpt lat="45.64337" lon="5.32685">
        <ele>238</ele>
        <time>2022-09-06T05:13:17.416Z</time>
      </trkpt>
      <trkpt lat="45.64335" lon="5.32695">
        <ele>238</ele>
        <time>2022-09-06T05:13:18.416Z</time>
      </trkpt>
      <trkpt lat="45.64333" lon="5.32708">
        <ele>238</ele>
        <time>2022-09-06T05:13:19.415Z</time>
      </trkpt>
      <trkpt lat="45.64331" lon="5.32719">
        <ele>239</ele>
        <time>2022-09-06T05:13:20.416Z</time>
      </trkpt>
      <trkpt lat="45.64329" lon="5.32731">
        <ele>239</ele>
        <time>2022-09-06T05:13:21.416Z</time>
      </trkpt>
      <trkpt lat="45.64327" lon="5.32742">
        <ele>238</ele>
        <time>2022-09-06T05:13:22.416Z</time>
      </trkpt>
      <trkpt lat="45.64325" lon="5.32751">
        <ele>238</ele>
        <time>2022-09-06T05:13:23.415Z</time>
      </trkpt>
      <trkpt lat="45.64323" lon="5.32762">
        <ele>238</ele>
        <time>2022-09-06T05:13:24.415Z</time>
      </trkpt>
      <trkpt lat="45.6432" lon="5.32775">
        <ele>238</ele>
        <time>2022-09-06T05:13:25.415Z</time>
      </trkpt>
      <trkpt lat="45.64318" lon="5.32786">
        <ele>237</ele>
        <time>2022-09-06T05:13:26.416Z</time>
      </trkpt>
      <trkpt lat="45.64316" lon="5.32796">
        <ele>237</ele>
        <time>2022-09-06T05:13:27.415Z</time>
      </trkpt>
      <trkpt lat="45.64314" lon="5.32807">
        <ele>237</ele>
        <time>2022-09-06T05:13:28.416Z</time>
      </trkpt>
      <trkpt lat="45.64312" lon="5.32818">
        <ele>237</ele>
        <time>2022-09-06T05:13:29.416Z</time>
      </trkpt>
      <trkpt lat="45.6431" lon="5.32829">
        <ele>236</ele>
        <time>2022-09-06T05:13:30.416Z</time>
      </trkpt>
      <trkpt lat="45.64308" lon="5.3284">
        <ele>237</ele>
        <time>2022-09-06T05:13:31.416Z</time>
      </trkpt>
      <trkpt lat="45.64306" lon="5.32849">
        <ele>237</ele>
        <time>2022-09-06T05:13:32.416Z</time>
      </trkpt>
      <trkpt lat="45.64304" lon="5.32862">
        <ele>237</ele>
        <time>2022-09-06T05:13:33.416Z</time>
      </trkpt>
      <trkpt lat="45.64302" lon="5.32872">
        <ele>237</ele>
        <time>2022-09-06T05:13:34.416Z</time>
      </trkpt>
      <trkpt lat="45.64299" lon="5.32883">
        <ele>237</ele>
        <time>2022-09-06T05:13:35.416Z</time>
      </trkpt>
      <trkpt lat="45.64298" lon="5.32891">
        <ele>237</ele>
        <time>2022-09-06T05:13:36.415Z</time>
      </trkpt>
      <trkpt lat="45.64295" lon="5.32902">
        <ele>237</ele>
        <time>2022-09-06T05:13:37.415Z</time>
      </trkpt>
      <trkpt lat="45.64293" lon="5.32915">
        <ele>237</ele>
        <time>2022-09-06T05:13:38.416Z</time>
      </trkpt>
      <trkpt lat="45.6429" lon="5.32926">
        <ele>237</ele>
        <time>2022-09-06T05:13:39.416Z</time>
      </trkpt>
      <trkpt lat="45.64288" lon="5.32937">
        <ele>237</ele>
        <time>2022-09-06T05:13:40.416Z</time>
      </trkpt>
      <trkpt lat="45.64287" lon="5.32946">
        <ele>237</ele>
        <time>2022-09-06T05:13:41.415Z</time>
      </trkpt>
      <trkpt lat="45.64285" lon="5.32957">
        <ele>238</ele>
        <time>2022-09-06T05:13:42.416Z</time>
      </trkpt>
      <trkpt lat="45.64282" lon="5.3297">
        <ele>238</ele>
        <time>2022-09-06T05:13:43.416Z</time>
      </trkpt>
      <trkpt lat="45.6428" lon="5.32981">
        <ele>238</ele>
        <time>2022-09-06T05:13:44.416Z</time>
      </trkpt>
      <trkpt lat="45.64278" lon="5.32992">
        <ele>238</ele>
        <time>2022-09-06T05:13:45.416Z</time>
      </trkpt>
      <trkpt lat="45.64276" lon="5.33003">
        <ele>237</ele>
        <time>2022-09-06T05:13:46.415Z</time>
      </trkpt>
      <trkpt lat="45.64274" lon="5.33013">
        <ele>237</ele>
        <time>2022-09-06T05:13:47.416Z</time>
      </trkpt>
      <trkpt lat="45.64272" lon="5.33024">
        <ele>237</ele>
        <time>2022-09-06T05:13:48.416Z</time>
      </trkpt>
      <trkpt lat="45.6427" lon="5.33036">
        <ele>236</ele>
        <time>2022-09-06T05:13:49.416Z</time>
      </trkpt>
      <trkpt lat="45.64269" lon="5.33047">
        <ele>236</ele>
        <time>2022-09-06T05:13:50.416Z</time>
      </trkpt>
      <trkpt lat="45.64267" lon="5.33056">
        <ele>235</ele>
        <time>2022-09-06T05:13:51.416Z</time>
      </trkpt>
      <trkpt lat="45.64266" lon="5.33069">
        <ele>235</ele>
        <time>2022-09-06T05:13:52.415Z</time>
      </trkpt>
      <trkpt lat="45.64265" lon="5.33081">
        <ele>235</ele>
        <time>2022-09-06T05:13:53.416Z</time>
      </trkpt>
      <trkpt lat="45.64264" lon="5.33093">
        <ele>235</ele>
        <time>2022-09-06T05:13:54.416Z</time>
      </trkpt>
      <trkpt lat="45.64263" lon="5.33105">
        <ele>235</ele>
        <time>2022-09-06T05:13:55.416Z</time>
      </trkpt>
      <trkpt lat="45.64263" lon="5.33117">
        <ele>235</ele>
        <time>2022-09-06T05:13:56.416Z</time>
      </trkpt>
      <trkpt lat="45.64262" lon="5.33129">
        <ele>234</ele>
        <time>2022-09-06T05:13:57.416Z</time>
      </trkpt>
      <trkpt lat="45.64262" lon="5.33141">
        <ele>234</ele>
        <time>2022-09-06T05:13:58.416Z</time>
      </trkpt>
      <trkpt lat="45.64261" lon="5.33153">
        <ele>234</ele>
        <time>2022-09-06T05:13:59.416Z</time>
      </trkpt>
      <trkpt lat="45.64261" lon="5.33162">
        <ele>234</ele>
        <time>2022-09-06T05:14:00.416Z</time>
      </trkpt>
      <trkpt lat="45.6426" lon="5.33177">
        <ele>234</ele>
        <time>2022-09-06T05:14:01.415Z</time>
      </trkpt>
      <trkpt lat="45.6426" lon="5.33189">
        <ele>234</ele>
        <time>2022-09-06T05:14:02.416Z</time>
      </trkpt>
      <trkpt lat="45.64259" lon="5.33201">
        <ele>234</ele>
        <time>2022-09-06T05:14:03.416Z</time>
      </trkpt>
      <trkpt lat="45.64259" lon="5.33213">
        <ele>234</ele>
        <time>2022-09-06T05:14:04.416Z</time>
      </trkpt>
      <trkpt lat="45.64258" lon="5.33225">
        <ele>235</ele>
        <time>2022-09-06T05:14:05.416Z</time>
      </trkpt>
      <trkpt lat="45.64257" lon="5.33237">
        <ele>235</ele>
        <time>2022-09-06T05:14:06.416Z</time>
      </trkpt>
      <trkpt lat="45.64257" lon="5.33249">
        <ele>235</ele>
        <time>2022-09-06T05:14:07.416Z</time>
      </trkpt>
      <trkpt lat="45.64256" lon="5.33261">
        <ele>235</ele>
        <time>2022-09-06T05:14:08.416Z</time>
      </trkpt>
      <trkpt lat="45.64256" lon="5.33273">
        <ele>235</ele>
        <time>2022-09-06T05:14:09.416Z</time>
      </trkpt>
      <trkpt lat="45.64255" lon="5.33285">
        <ele>235</ele>
        <time>2022-09-06T05:14:10.416Z</time>
      </trkpt>
      <trkpt lat="45.64255" lon="5.33297">
        <ele>235</ele>
        <time>2022-09-06T05:14:11.416Z</time>
      </trkpt>
      <trkpt lat="45.64254" lon="5.33309">
        <ele>235</ele>
        <time>2022-09-06T05:14:12.416Z</time>
      </trkpt>
      <trkpt lat="45.64254" lon="5.33321">
        <ele>235</ele>
        <time>2022-09-06T05:14:13.416Z</time>
      </trkpt>
      <trkpt lat="45.64253" lon="5.33333">
        <ele>235</ele>
        <time>2022-09-06T05:14:14.416Z</time>
      </trkpt>
      <trkpt lat="45.64253" lon="5.33343">
        <ele>235</ele>
        <time>2022-09-06T05:14:15.416Z</time>
      </trkpt>
      <trkpt lat="45.64252" lon="5.33357">
        <ele>235</ele>
        <time>2022-09-06T05:14:16.416Z</time>
      </trkpt>
      <trkpt lat="45.64252" lon="5.33369">
        <ele>235</ele>
        <time>2022-09-06T05:14:17.415Z</time>
      </trkpt>
      <trkpt lat="45.64251" lon="5.33381">
        <ele>234</ele>
        <time>2022-09-06T05:14:18.416Z</time>
      </trkpt>
      <trkpt lat="45.64251" lon="5.33393">
        <ele>234</ele>
        <time>2022-09-06T05:14:19.416Z</time>
      </trkpt>
      <trkpt lat="45.6425" lon="5.33402">
        <ele>235</ele>
        <time>2022-09-06T05:14:20.415Z</time>
      </trkpt>
      <trkpt lat="45.6425" lon="5.33417">
        <ele>235</ele>
        <time>2022-09-06T05:14:21.416Z</time>
      </trkpt>
      <trkpt lat="45.64249" lon="5.33428">
        <ele>235</ele>
        <time>2022-09-06T05:14:22.415Z</time>
      </trkpt>
      <trkpt lat="45.64249" lon="5.3344">
        <ele>235</ele>
        <time>2022-09-06T05:14:23.416Z</time>
      </trkpt>
      <trkpt lat="45.64248" lon="5.33451">
        <ele>234</ele>
        <time>2022-09-06T05:14:24.415Z</time>
      </trkpt>
      <trkpt lat="45.64248" lon="5.33462">
        <ele>234</ele>
        <time>2022-09-06T05:14:25.415Z</time>
      </trkpt>
      <trkpt lat="45.64247" lon="5.33474">
        <ele>234</ele>
        <time>2022-09-06T05:14:26.416Z</time>
      </trkpt>
      <trkpt lat="45.64247" lon="5.33485">
        <ele>234</ele>
        <time>2022-09-06T05:14:27.416Z</time>
      </trkpt>
      <trkpt lat="45.64246" lon="5.33496">
        <ele>234</ele>
        <time>2022-09-06T05:14:28.416Z</time>
      </trkpt>
      <trkpt lat="45.64246" lon="5.33505">
        <ele>235</ele>
        <time>2022-09-06T05:14:29.416Z</time>
      </trkpt>
      <trkpt lat="45.64245" lon="5.33518">
        <ele>235</ele>
        <time>2022-09-06T05:14:30.415Z</time>
      </trkpt>
      <trkpt lat="45.64245" lon="5.3353">
        <ele>235</ele>
        <time>2022-09-06T05:14:31.416Z</time>
      </trkpt>
      <trkpt lat="45.64245" lon="5.33541">
        <ele>235</ele>
        <time>2022-09-06T05:14:32.415Z</time>
      </trkpt>
      <trkpt lat="45.64244" lon="5.3355">
        <ele>235</ele>
        <time>2022-09-06T05:14:33.415Z</time>
      </trkpt>
      <trkpt lat="45.64244" lon="5.33561">
        <ele>236</ele>
        <time>2022-09-06T05:14:34.416Z</time>
      </trkpt>
      <trkpt lat="45.64243" lon="5.33574">
        <ele>236</ele>
        <time>2022-09-06T05:14:35.416Z</time>
      </trkpt>
      <trkpt lat="45.64243" lon="5.33585">
        <ele>236</ele>
        <time>2022-09-06T05:14:36.416Z</time>
      </trkpt>
      <trkpt lat="45.64242" lon="5.33596">
        <ele>236</ele>
        <time>2022-09-06T05:14:37.416Z</time>
      </trkpt>
      <trkpt lat="45.64241" lon="5.33607">
        <ele>235</ele>
        <time>2022-09-06T05:14:38.416Z</time>
      </trkpt>
      <trkpt lat="45.64241" lon="5.33618">
        <ele>235</ele>
        <time>2022-09-06T05:14:39.416Z</time>
      </trkpt>
      <trkpt lat="45.6424" lon="5.33629">
        <ele>235</ele>
        <time>2022-09-06T05:14:40.416Z</time>
      </trkpt>
      <trkpt lat="45.64239" lon="5.3364">
        <ele>234</ele>
        <time>2022-09-06T05:14:41.416Z</time>
      </trkpt>
      <trkpt lat="45.64238" lon="5.33651">
        <ele>234</ele>
        <time>2022-09-06T05:14:42.416Z</time>
      </trkpt>
      <trkpt lat="45.64236" lon="5.33661">
        <ele>234</ele>
        <time>2022-09-06T05:14:43.416Z</time>
      </trkpt>
      <trkpt lat="45.64234" lon="5.33672">
        <ele>234</ele>
        <time>2022-09-06T05:14:44.415Z</time>
      </trkpt>
      <trkpt lat="45.64232" lon="5.33682">
        <ele>234</ele>
        <time>2022-09-06T05:14:45.415Z</time>
      </trkpt>
      <trkpt lat="45.6423" lon="5.33692">
        <ele>233</ele>
        <time>2022-09-06T05:14:46.416Z</time>
      </trkpt>
      <trkpt lat="45.64228" lon="5.33702">
        <ele>233</ele>
        <time>2022-09-06T05:14:47.416Z</time>
      </trkpt>
      <trkpt lat="45.64225" lon="5.33711">
        <ele>232</ele>
        <time>2022-09-06T05:14:48.416Z</time>
      </trkpt>
      <trkpt lat="45.64223" lon="5.3372">
        <ele>232</ele>
        <time>2022-09-06T05:14:49.415Z</time>
      </trkpt>
      <trkpt lat="45.64221" lon="5.33729">
        <ele>232</ele>
        <time>2022-09-06T05:14:50.416Z</time>
      </trkpt>
      <trkpt lat="45.64218" lon="5.33737">
        <ele>233</ele>
        <time>2022-09-06T05:14:51.415Z</time>
      </trkpt>
      <trkpt lat="45.64217" lon="5.33744">
        <ele>233</ele>
        <time>2022-09-06T05:14:52.415Z</time>
      </trkpt>
      <trkpt lat="45.64214" lon="5.33754">
        <ele>233</ele>
        <time>2022-09-06T05:14:53.416Z</time>
      </trkpt>
      <trkpt lat="45.64212" lon="5.33762">
        <ele>234</ele>
        <time>2022-09-06T05:14:54.415Z</time>
      </trkpt>
      <trkpt lat="45.6421" lon="5.33771">
        <ele>234</ele>
        <time>2022-09-06T05:14:55.416Z</time>
      </trkpt>
      <trkpt lat="45.64208" lon="5.33779">
        <ele>234</ele>
        <time>2022-09-06T05:14:56.415Z</time>
      </trkpt>
      <trkpt lat="45.64206" lon="5.33785">
        <ele>235</ele>
        <time>2022-09-06T05:14:57.415Z</time>
      </trkpt>
      <trkpt lat="45.64204" lon="5.33795">
        <ele>235</ele>
        <time>2022-09-06T05:14:58.415Z</time>
      </trkpt>
      <trkpt lat="45.64201" lon="5.33803">
        <ele>235</ele>
        <time>2022-09-06T05:14:59.416Z</time>
      </trkpt>
      <trkpt lat="45.64199" lon="5.33811">
        <ele>235</ele>
        <time>2022-09-06T05:15:00.416Z</time>
      </trkpt>
      <trkpt lat="45.64197" lon="5.33819">
        <ele>236</ele>
        <time>2022-09-06T05:15:01.415Z</time>
      </trkpt>
      <trkpt lat="45.64196" lon="5.33827">
        <ele>236</ele>
        <time>2022-09-06T05:15:02.416Z</time>
      </trkpt>
      <trkpt lat="45.64194" lon="5.33835">
        <ele>236</ele>
        <time>2022-09-06T05:15:03.416Z</time>
      </trkpt>
      <trkpt lat="45.64191" lon="5.33842">
        <ele>236</ele>
        <time>2022-09-06T05:15:04.416Z</time>
      </trkpt>
      <trkpt lat="45.64189" lon="5.3385">
        <ele>237</ele>
        <time>2022-09-06T05:15:05.415Z</time>
      </trkpt>
      <trkpt lat="45.64188" lon="5.33857">
        <ele>237</ele>
        <time>2022-09-06T05:15:06.416Z</time>
      </trkpt>
      <trkpt lat="45.64186" lon="5.33865">
        <ele>237</ele>
        <time>2022-09-06T05:15:07.415Z</time>
      </trkpt>
      <trkpt lat="45.64183" lon="5.33872">
        <ele>237</ele>
        <time>2022-09-06T05:15:08.416Z</time>
      </trkpt>
      <trkpt lat="45.64181" lon="5.33879">
        <ele>237</ele>
        <time>2022-09-06T05:15:09.416Z</time>
      </trkpt>
      <trkpt lat="45.64179" lon="5.33887">
        <ele>237</ele>
        <time>2022-09-06T05:15:10.416Z</time>
      </trkpt>
      <trkpt lat="45.64177" lon="5.33894">
        <ele>237</ele>
        <time>2022-09-06T05:15:11.416Z</time>
      </trkpt>
      <trkpt lat="45.64175" lon="5.33902">
        <ele>237</ele>
        <time>2022-09-06T05:15:12.416Z</time>
      </trkpt>
      <trkpt lat="45.64173" lon="5.33909">
        <ele>237</ele>
        <time>2022-09-06T05:15:13.416Z</time>
      </trkpt>
      <trkpt lat="45.64172" lon="5.33916">
        <ele>236</ele>
        <time>2022-09-06T05:15:14.416Z</time>
      </trkpt>
      <trkpt lat="45.6417" lon="5.33924">
        <ele>236</ele>
        <time>2022-09-06T05:15:15.416Z</time>
      </trkpt>
      <trkpt lat="45.64168" lon="5.33931">
        <ele>236</ele>
        <time>2022-09-06T05:15:16.415Z</time>
      </trkpt>
      <trkpt lat="45.64167" lon="5.33938">
        <ele>236</ele>
        <time>2022-09-06T05:15:17.416Z</time>
      </trkpt>
      <trkpt lat="45.64165" lon="5.33945">
        <ele>235</ele>
        <time>2022-09-06T05:15:18.416Z</time>
      </trkpt>
      <trkpt lat="45.64164" lon="5.33953">
        <ele>235</ele>
        <time>2022-09-06T05:15:19.416Z</time>
      </trkpt>
      <trkpt lat="45.64162" lon="5.3396">
        <ele>236</ele>
        <time>2022-09-06T05:15:20.416Z</time>
      </trkpt>
      <trkpt lat="45.64161" lon="5.33967">
        <ele>236</ele>
        <time>2022-09-06T05:15:21.416Z</time>
      </trkpt>
      <trkpt lat="45.64159" lon="5.33974">
        <ele>237</ele>
        <time>2022-09-06T05:15:22.416Z</time>
      </trkpt>
      <trkpt lat="45.64158" lon="5.33981">
        <ele>237</ele>
        <time>2022-09-06T05:15:23.416Z</time>
      </trkpt>
      <trkpt lat="45.64157" lon="5.33988">
        <ele>237</ele>
        <time>2022-09-06T05:15:24.416Z</time>
      </trkpt>
      <trkpt lat="45.64155" lon="5.33995">
        <ele>238</ele>
        <time>2022-09-06T05:15:25.415Z</time>
      </trkpt>
      <trkpt lat="45.64154" lon="5.34002">
        <ele>238</ele>
        <time>2022-09-06T05:15:26.415Z</time>
      </trkpt>
      <trkpt lat="45.64153" lon="5.34008">
        <ele>238</ele>
        <time>2022-09-06T05:15:27.416Z</time>
      </trkpt>
      <trkpt lat="45.64152" lon="5.34015">
        <ele>238</ele>
        <time>2022-09-06T05:15:28.415Z</time>
      </trkpt>
      <trkpt lat="45.6415" lon="5.34022">
        <ele>238</ele>
        <time>2022-09-06T05:15:29.416Z</time>
      </trkpt>
      <trkpt lat="45.64149" lon="5.34028">
        <ele>239</ele>
        <time>2022-09-06T05:15:30.416Z</time>
      </trkpt>
      <trkpt lat="45.64148" lon="5.34035">
        <ele>239</ele>
        <time>2022-09-06T05:15:31.416Z</time>
      </trkpt>
      <trkpt lat="45.64147" lon="5.34042">
        <ele>239</ele>
        <time>2022-09-06T05:15:32.416Z</time>
      </trkpt>
      <trkpt lat="45.64146" lon="5.34049">
        <ele>240</ele>
        <time>2022-09-06T05:15:33.416Z</time>
      </trkpt>
      <trkpt lat="45.64144" lon="5.34055">
        <ele>240</ele>
        <time>2022-09-06T05:15:34.415Z</time>
      </trkpt>
      <trkpt lat="45.64143" lon="5.34062">
        <ele>241</ele>
        <time>2022-09-06T05:15:35.416Z</time>
      </trkpt>
      <trkpt lat="45.64142" lon="5.34068">
        <ele>241</ele>
        <time>2022-09-06T05:15:36.416Z</time>
      </trkpt>
      <trkpt lat="45.64141" lon="5.34075">
        <ele>241</ele>
        <time>2022-09-06T05:15:37.416Z</time>
      </trkpt>
      <trkpt lat="45.6414" lon="5.34082">
        <ele>241</ele>
        <time>2022-09-06T05:15:38.416Z</time>
      </trkpt>
      <trkpt lat="45.64139" lon="5.34087">
        <ele>241</ele>
        <time>2022-09-06T05:15:39.415Z</time>
      </trkpt>
      <trkpt lat="45.64137" lon="5.34095">
        <ele>241</ele>
        <time>2022-09-06T05:15:40.416Z</time>
      </trkpt>
      <trkpt lat="45.64136" lon="5.34101">
        <ele>241</ele>
        <time>2022-09-06T05:15:41.416Z</time>
      </trkpt>
      <trkpt lat="45.64135" lon="5.34108">
        <ele>241</ele>
        <time>2022-09-06T05:15:42.416Z</time>
      </trkpt>
      <trkpt lat="45.64133" lon="5.34114">
        <ele>242</ele>
        <time>2022-09-06T05:15:43.416Z</time>
      </trkpt>
      <trkpt lat="45.64132" lon="5.34121">
        <ele>243</ele>
        <time>2022-09-06T05:15:44.415Z</time>
      </trkpt>
      <trkpt lat="45.64131" lon="5.34127">
        <ele>243</ele>
        <time>2022-09-06T05:15:45.416Z</time>
      </trkpt>
      <trkpt lat="45.64129" lon="5.34134">
        <ele>243</ele>
        <time>2022-09-06T05:15:46.416Z</time>
      </trkpt>
      <trkpt lat="45.64128" lon="5.3414">
        <ele>243</ele>
        <time>2022-09-06T05:15:47.415Z</time>
      </trkpt>
      <trkpt lat="45.64127" lon="5.34147">
        <ele>244</ele>
        <time>2022-09-06T05:15:48.416Z</time>
      </trkpt>
      <trkpt lat="45.64126" lon="5.34154">
        <ele>245</ele>
        <time>2022-09-06T05:15:49.416Z</time>
      </trkpt>
      <trkpt lat="45.64124" lon="5.3416">
        <ele>245</ele>
        <time>2022-09-06T05:15:50.416Z</time>
      </trkpt>
      <trkpt lat="45.64123" lon="5.34167">
        <ele>246</ele>
        <time>2022-09-06T05:15:51.416Z</time>
      </trkpt>
      <trkpt lat="45.64122" lon="5.34173">
        <ele>246</ele>
        <time>2022-09-06T05:15:52.416Z</time>
      </trkpt>
      <trkpt lat="45.64121" lon="5.3418">
        <ele>246</ele>
        <time>2022-09-06T05:15:53.416Z</time>
      </trkpt>
      <trkpt lat="45.6412" lon="5.34187">
        <ele>247</ele>
        <time>2022-09-06T05:15:54.416Z</time>
      </trkpt>
      <trkpt lat="45.64118" lon="5.34193">
        <ele>247</ele>
        <time>2022-09-06T05:15:55.416Z</time>
      </trkpt>
      <trkpt lat="45.64117" lon="5.34199">
        <ele>247</ele>
        <time>2022-09-06T05:15:56.415Z</time>
      </trkpt>
      <trkpt lat="45.64116" lon="5.34206">
        <ele>248</ele>
        <time>2022-09-06T05:15:57.416Z</time>
      </trkpt>
      <trkpt lat="45.64115" lon="5.34213">
        <ele>248</ele>
        <time>2022-09-06T05:15:58.416Z</time>
      </trkpt>
      <trkpt lat="45.64113" lon="5.34219">
        <ele>248</ele>
        <time>2022-09-06T05:15:59.416Z</time>
      </trkpt>
      <trkpt lat="45.64112" lon="5.34226">
        <ele>248</ele>
        <time>2022-09-06T05:16:00.415Z</time>
      </trkpt>
      <trkpt lat="45.64111" lon="5.34232">
        <ele>248</ele>
        <time>2022-09-06T05:16:01.415Z</time>
      </trkpt>
      <trkpt lat="45.6411" lon="5.34239">
        <ele>249</ele>
        <time>2022-09-06T05:16:02.416Z</time>
      </trkpt>
      <trkpt lat="45.64108" lon="5.34246">
        <ele>249</ele>
        <time>2022-09-06T05:16:03.415Z</time>
      </trkpt>
      <trkpt lat="45.64107" lon="5.34252">
        <ele>249</ele>
        <time>2022-09-06T05:16:04.415Z</time>
      </trkpt>
      <trkpt lat="45.64106" lon="5.34259">
        <ele>250</ele>
        <time>2022-09-06T05:16:05.416Z</time>
      </trkpt>
      <trkpt lat="45.64104" lon="5.34266">
        <ele>250</ele>
        <time>2022-09-06T05:16:06.416Z</time>
      </trkpt>
      <trkpt lat="45.64103" lon="5.34273">
        <ele>250</ele>
        <time>2022-09-06T05:16:07.416Z</time>
      </trkpt>
      <trkpt lat="45.64102" lon="5.34279">
        <ele>250</ele>
        <time>2022-09-06T05:16:08.416Z</time>
      </trkpt>
      <trkpt lat="45.64101" lon="5.34286">
        <ele>250</ele>
        <time>2022-09-06T05:16:09.415Z</time>
      </trkpt>
      <trkpt lat="45.64099" lon="5.34294">
        <ele>250</ele>
        <time>2022-09-06T05:16:10.416Z</time>
      </trkpt>
      <trkpt lat="45.64098" lon="5.34301">
        <ele>250</ele>
        <time>2022-09-06T05:16:11.416Z</time>
      </trkpt>
      <trkpt lat="45.64097" lon="5.34308">
        <ele>250</ele>
        <time>2022-09-06T05:16:12.416Z</time>
      </trkpt>
      <trkpt lat="45.64096" lon="5.34315">
        <ele>250</ele>
        <time>2022-09-06T05:16:13.416Z</time>
      </trkpt>
      <trkpt lat="45.64096" lon="5.34323">
        <ele>250</ele>
        <time>2022-09-06T05:16:14.416Z</time>
      </trkpt>
      <trkpt lat="45.64095" lon="5.34331">
        <ele>250</ele>
        <time>2022-09-06T05:16:15.415Z</time>
      </trkpt>
      <trkpt lat="45.64094" lon="5.34339">
        <ele>250</ele>
        <time>2022-09-06T05:16:16.416Z</time>
      </trkpt>
      <trkpt lat="45.64094" lon="5.34347">
        <ele>250</ele>
        <time>2022-09-06T05:16:17.416Z</time>
      </trkpt>
      <trkpt lat="45.64094" lon="5.34356">
        <ele>250</ele>
        <time>2022-09-06T05:16:18.416Z</time>
      </trkpt>
      <trkpt lat="45.64094" lon="5.34364">
        <ele>250</ele>
        <time>2022-09-06T05:16:19.415Z</time>
      </trkpt>
      <trkpt lat="45.64094" lon="5.34373">
        <ele>250</ele>
        <time>2022-09-06T05:16:20.415Z</time>
      </trkpt>
      <trkpt lat="45.64095" lon="5.34383">
        <ele>249</ele>
        <time>2022-09-06T05:16:21.416Z</time>
      </trkpt>
      <trkpt lat="45.64096" lon="5.34393">
        <ele>249</ele>
        <time>2022-09-06T05:16:22.415Z</time>
      </trkpt>
      <trkpt lat="45.64097" lon="5.34403">
        <ele>249</ele>
        <time>2022-09-06T05:16:23.416Z</time>
      </trkpt>
      <trkpt lat="45.64099" lon="5.34413">
        <ele>249</ele>
        <time>2022-09-06T05:16:24.416Z</time>
      </trkpt>
      <trkpt lat="45.64101" lon="5.34424">
        <ele>248</ele>
        <time>2022-09-06T05:16:25.415Z</time>
      </trkpt>
      <trkpt lat="45.64103" lon="5.34435">
        <ele>248</ele>
        <time>2022-09-06T05:16:26.416Z</time>
      </trkpt>
      <trkpt lat="45.64105" lon="5.34446">
        <ele>248</ele>
        <time>2022-09-06T05:16:27.416Z</time>
      </trkpt>
      <trkpt lat="45.64108" lon="5.34457">
        <ele>248</ele>
        <time>2022-09-06T05:16:28.416Z</time>
      </trkpt>
      <trkpt lat="45.64109" lon="5.34469">
        <ele>248</ele>
        <time>2022-09-06T05:16:29.416Z</time>
      </trkpt>
      <trkpt lat="45.64111" lon="5.34481">
        <ele>249</ele>
        <time>2022-09-06T05:16:30.415Z</time>
      </trkpt>
      <trkpt lat="45.64112" lon="5.34493">
        <ele>249</ele>
        <time>2022-09-06T05:16:31.416Z</time>
      </trkpt>
      <trkpt lat="45.64113" lon="5.34505">
        <ele>249</ele>
        <time>2022-09-06T05:16:32.416Z</time>
      </trkpt>
      <trkpt lat="45.64113" lon="5.34518">
        <ele>249</ele>
        <time>2022-09-06T05:16:33.416Z</time>
      </trkpt>
      <trkpt lat="45.64113" lon="5.3453">
        <ele>249</ele>
        <time>2022-09-06T05:16:34.415Z</time>
      </trkpt>
      <trkpt lat="45.64112" lon="5.34543">
        <ele>249</ele>
        <time>2022-09-06T05:16:35.416Z</time>
      </trkpt>
      <trkpt lat="45.6411" lon="5.34555">
        <ele>248</ele>
        <time>2022-09-06T05:16:36.416Z</time>
      </trkpt>
      <trkpt lat="45.64108" lon="5.34567">
        <ele>248</ele>
        <time>2022-09-06T05:16:37.416Z</time>
      </trkpt>
      <trkpt lat="45.64105" lon="5.34579">
        <ele>248</ele>
        <time>2022-09-06T05:16:38.416Z</time>
      </trkpt>
      <trkpt lat="45.64102" lon="5.34591">
        <ele>248</ele>
        <time>2022-09-06T05:16:39.416Z</time>
      </trkpt>
      <trkpt lat="45.64098" lon="5.34602">
        <ele>248</ele>
        <time>2022-09-06T05:16:40.415Z</time>
      </trkpt>
      <trkpt lat="45.64094" lon="5.34614">
        <ele>247</ele>
        <time>2022-09-06T05:16:41.415Z</time>
      </trkpt>
      <trkpt lat="45.64091" lon="5.34625">
        <ele>247</ele>
        <time>2022-09-06T05:16:42.415Z</time>
      </trkpt>
      <trkpt lat="45.64087" lon="5.34636">
        <ele>246</ele>
        <time>2022-09-06T05:16:43.416Z</time>
      </trkpt>
      <trkpt lat="45.64083" lon="5.34647">
        <ele>246</ele>
        <time>2022-09-06T05:16:44.416Z</time>
      </trkpt>
      <trkpt lat="45.64079" lon="5.34658">
        <ele>246</ele>
        <time>2022-09-06T05:16:45.416Z</time>
      </trkpt>
      <trkpt lat="45.64075" lon="5.34669">
        <ele>245</ele>
        <time>2022-09-06T05:16:46.416Z</time>
      </trkpt>
      <trkpt lat="45.64072" lon="5.34681">
        <ele>245</ele>
        <time>2022-09-06T05:16:47.416Z</time>
      </trkpt>
      <trkpt lat="45.64068" lon="5.34692">
        <ele>245</ele>
        <time>2022-09-06T05:16:48.416Z</time>
      </trkpt>
      <trkpt lat="45.64064" lon="5.34703">
        <ele>245</ele>
        <time>2022-09-06T05:16:49.416Z</time>
      </trkpt>
      <trkpt lat="45.6406" lon="5.34715">
        <ele>245</ele>
        <time>2022-09-06T05:16:50.416Z</time>
      </trkpt>
      <trkpt lat="45.64057" lon="5.34724">
        <ele>246</ele>
        <time>2022-09-06T05:16:51.415Z</time>
      </trkpt>
      <trkpt lat="45.64054" lon="5.34735">
        <ele>246</ele>
        <time>2022-09-06T05:16:52.416Z</time>
      </trkpt>
      <trkpt lat="45.64051" lon="5.34747">
        <ele>246</ele>
        <time>2022-09-06T05:16:53.416Z</time>
      </trkpt>
      <trkpt lat="45.64048" lon="5.34759">
        <ele>246</ele>
        <time>2022-09-06T05:16:54.416Z</time>
      </trkpt>
      <trkpt lat="45.64045" lon="5.34771">
        <ele>246</ele>
        <time>2022-09-06T05:16:55.416Z</time>
      </trkpt>
      <trkpt lat="45.64042" lon="5.34786">
        <ele>246</ele>
        <time>2022-09-06T05:16:56.416Z</time>
      </trkpt>
      <trkpt lat="45.64041" lon="5.34796">
        <ele>246</ele>
        <time>2022-09-06T05:16:57.416Z</time>
      </trkpt>
      <trkpt lat="45.64039" lon="5.3481">
        <ele>246</ele>
        <time>2022-09-06T05:16:58.416Z</time>
      </trkpt>
      <trkpt lat="45.64038" lon="5.34823">
        <ele>246</ele>
        <time>2022-09-06T05:16:59.416Z</time>
      </trkpt>
      <trkpt lat="45.64037" lon="5.34836">
        <ele>246</ele>
        <time>2022-09-06T05:17:00.416Z</time>
      </trkpt>
      <trkpt lat="45.64035" lon="5.34852">
        <ele>246</ele>
        <time>2022-09-06T05:17:01.416Z</time>
      </trkpt>
      <trkpt lat="45.64034" lon="5.34865">
        <ele>246</ele>
        <time>2022-09-06T05:17:02.416Z</time>
      </trkpt>
      <trkpt lat="45.64033" lon="5.34879">
        <ele>246</ele>
        <time>2022-09-06T05:17:03.416Z</time>
      </trkpt>
      <trkpt lat="45.64032" lon="5.34893">
        <ele>246</ele>
        <time>2022-09-06T05:17:04.416Z</time>
      </trkpt>
      <trkpt lat="45.6403" lon="5.34906">
        <ele>246</ele>
        <time>2022-09-06T05:17:05.416Z</time>
      </trkpt>
      <trkpt lat="45.64029" lon="5.3492">
        <ele>246</ele>
        <time>2022-09-06T05:17:06.415Z</time>
      </trkpt>
      <trkpt lat="45.64028" lon="5.34934">
        <ele>246</ele>
        <time>2022-09-06T05:17:07.415Z</time>
      </trkpt>
      <trkpt lat="45.64026" lon="5.34948">
        <ele>247</ele>
        <time>2022-09-06T05:17:08.416Z</time>
      </trkpt>
      <trkpt lat="45.64025" lon="5.34962">
        <ele>247</ele>
        <time>2022-09-06T05:17:09.416Z</time>
      </trkpt>
      <trkpt lat="45.64024" lon="5.34973">
        <ele>247</ele>
        <time>2022-09-06T05:17:10.416Z</time>
      </trkpt>
      <trkpt lat="45.64023" lon="5.34987">
        <ele>247</ele>
        <time>2022-09-06T05:17:11.416Z</time>
      </trkpt>
      <trkpt lat="45.64021" lon="5.35004">
        <ele>247</ele>
        <time>2022-09-06T05:17:12.416Z</time>
      </trkpt>
      <trkpt lat="45.6402" lon="5.35017">
        <ele>247</ele>
        <time>2022-09-06T05:17:13.415Z</time>
      </trkpt>
      <trkpt lat="45.64019" lon="5.35028">
        <ele>247</ele>
        <time>2022-09-06T05:17:14.416Z</time>
      </trkpt>
      <trkpt lat="45.64018" lon="5.35043">
        <ele>246</ele>
        <time>2022-09-06T05:17:15.416Z</time>
      </trkpt>
      <trkpt lat="45.64017" lon="5.35056">
        <ele>246</ele>
        <time>2022-09-06T05:17:16.415Z</time>
      </trkpt>
      <trkpt lat="45.64015" lon="5.35069">
        <ele>245</ele>
        <time>2022-09-06T05:17:17.416Z</time>
      </trkpt>
      <trkpt lat="45.64014" lon="5.35082">
        <ele>245</ele>
        <time>2022-09-06T05:17:18.416Z</time>
      </trkpt>
      <trkpt lat="45.64013" lon="5.35091">
        <ele>244</ele>
        <time>2022-09-06T05:17:19.416Z</time>
      </trkpt>
      <trkpt lat="45.64011" lon="5.35106">
        <ele>243</ele>
        <time>2022-09-06T05:17:20.415Z</time>
      </trkpt>
      <trkpt lat="45.6401" lon="5.35116">
        <ele>243</ele>
        <time>2022-09-06T05:17:21.416Z</time>
      </trkpt>
      <trkpt lat="45.64009" lon="5.35128">
        <ele>242</ele>
        <time>2022-09-06T05:17:22.415Z</time>
      </trkpt>
      <trkpt lat="45.64007" lon="5.35141">
        <ele>241</ele>
        <time>2022-09-06T05:17:23.416Z</time>
      </trkpt>
      <trkpt lat="45.64006" lon="5.35153">
        <ele>240</ele>
        <time>2022-09-06T05:17:24.415Z</time>
      </trkpt>
      <trkpt lat="45.64005" lon="5.35165">
        <ele>239</ele>
        <time>2022-09-06T05:17:25.416Z</time>
      </trkpt>
      <trkpt lat="45.64003" lon="5.35179">
        <ele>239</ele>
        <time>2022-09-06T05:17:26.415Z</time>
      </trkpt>
      <trkpt lat="45.64002" lon="5.35191">
        <ele>239</ele>
        <time>2022-09-06T05:17:27.416Z</time>
      </trkpt>
      <trkpt lat="45.64001" lon="5.35202">
        <ele>238</ele>
        <time>2022-09-06T05:17:28.415Z</time>
      </trkpt>
      <trkpt lat="45.64" lon="5.35214">
        <ele>239</ele>
        <time>2022-09-06T05:17:29.416Z</time>
      </trkpt>
      <trkpt lat="45.63998" lon="5.35226">
        <ele>239</ele>
        <time>2022-09-06T05:17:30.416Z</time>
      </trkpt>
      <trkpt lat="45.63997" lon="5.35237">
        <ele>239</ele>
        <time>2022-09-06T05:17:31.416Z</time>
      </trkpt>
      <trkpt lat="45.63997" lon="5.35246">
        <ele>240</ele>
        <time>2022-09-06T05:17:32.415Z</time>
      </trkpt>
      <trkpt lat="45.63996" lon="5.35258">
        <ele>241</ele>
        <time>2022-09-06T05:17:33.416Z</time>
      </trkpt>
      <trkpt lat="45.63994" lon="5.35271">
        <ele>241</ele>
        <time>2022-09-06T05:17:34.416Z</time>
      </trkpt>
      <trkpt lat="45.63993" lon="5.35282">
        <ele>241</ele>
        <time>2022-09-06T05:17:35.416Z</time>
      </trkpt>
      <trkpt lat="45.63992" lon="5.35293">
        <ele>242</ele>
        <time>2022-09-06T05:17:36.416Z</time>
      </trkpt>
      <trkpt lat="45.63991" lon="5.35304">
        <ele>242</ele>
        <time>2022-09-06T05:17:37.416Z</time>
      </trkpt>
      <trkpt lat="45.6399" lon="5.35314">
        <ele>242</ele>
        <time>2022-09-06T05:17:38.415Z</time>
      </trkpt>
      <trkpt lat="45.63989" lon="5.35325">
        <ele>243</ele>
        <time>2022-09-06T05:17:39.416Z</time>
      </trkpt>
      <trkpt lat="45.63988" lon="5.35335">
        <ele>243</ele>
        <time>2022-09-06T05:17:40.416Z</time>
      </trkpt>
      <trkpt lat="45.63987" lon="5.35346">
        <ele>244</ele>
        <time>2022-09-06T05:17:41.415Z</time>
      </trkpt>
      <trkpt lat="45.63986" lon="5.35354">
        <ele>244</ele>
        <time>2022-09-06T05:17:42.415Z</time>
      </trkpt>
      <trkpt lat="45.63985" lon="5.35364">
        <ele>245</ele>
        <time>2022-09-06T05:17:43.416Z</time>
      </trkpt>
      <trkpt lat="45.63984" lon="5.35375">
        <ele>245</ele>
        <time>2022-09-06T05:17:44.416Z</time>
      </trkpt>
      <trkpt lat="45.63983" lon="5.35385">
        <ele>245</ele>
        <time>2022-09-06T05:17:45.416Z</time>
      </trkpt>
      <trkpt lat="45.63982" lon="5.35395">
        <ele>245</ele>
        <time>2022-09-06T05:17:46.415Z</time>
      </trkpt>
      <trkpt lat="45.63981" lon="5.35405">
        <ele>245</ele>
        <time>2022-09-06T05:17:47.416Z</time>
      </trkpt>
      <trkpt lat="45.6398" lon="5.35415">
        <ele>245</ele>
        <time>2022-09-06T05:17:48.416Z</time>
      </trkpt>
      <trkpt lat="45.63979" lon="5.35425">
        <ele>245</ele>
        <time>2022-09-06T05:17:49.415Z</time>
      </trkpt>
      <trkpt lat="45.63977" lon="5.35434">
        <ele>245</ele>
        <time>2022-09-06T05:17:50.415Z</time>
      </trkpt>
      <trkpt lat="45.63976" lon="5.35444">
        <ele>245</ele>
        <time>2022-09-06T05:17:51.415Z</time>
      </trkpt>
      <trkpt lat="45.63975" lon="5.35454">
        <ele>245</ele>
        <time>2022-09-06T05:17:52.416Z</time>
      </trkpt>
      <trkpt lat="45.63975" lon="5.35463">
        <ele>245</ele>
        <time>2022-09-06T05:17:53.416Z</time>
      </trkpt>
      <trkpt lat="45.63974" lon="5.35473">
        <ele>245</ele>
        <time>2022-09-06T05:17:54.416Z</time>
      </trkpt>
      <trkpt lat="45.63973" lon="5.35484">
        <ele>245</ele>
        <time>2022-09-06T05:17:55.416Z</time>
      </trkpt>
      <trkpt lat="45.63972" lon="5.35492">
        <ele>245</ele>
        <time>2022-09-06T05:17:56.415Z</time>
      </trkpt>
      <trkpt lat="45.63971" lon="5.35501">
        <ele>246</ele>
        <time>2022-09-06T05:17:57.416Z</time>
      </trkpt>
      <trkpt lat="45.6397" lon="5.35511">
        <ele>246</ele>
        <time>2022-09-06T05:17:58.415Z</time>
      </trkpt>
      <trkpt lat="45.63969" lon="5.3552">
        <ele>246</ele>
        <time>2022-09-06T05:17:59.415Z</time>
      </trkpt>
      <trkpt lat="45.63968" lon="5.3553">
        <ele>246</ele>
        <time>2022-09-06T05:18:00.416Z</time>
      </trkpt>
      <trkpt lat="45.63967" lon="5.3554">
        <ele>245</ele>
        <time>2022-09-06T05:18:01.416Z</time>
      </trkpt>
      <trkpt lat="45.63966" lon="5.3555">
        <ele>245</ele>
        <time>2022-09-06T05:18:02.416Z</time>
      </trkpt>
      <trkpt lat="45.63965" lon="5.3556">
        <ele>245</ele>
        <time>2022-09-06T05:18:03.416Z</time>
      </trkpt>
      <trkpt lat="45.63964" lon="5.3557">
        <ele>245</ele>
        <time>2022-09-06T05:18:04.416Z</time>
      </trkpt>
      <trkpt lat="45.63963" lon="5.3558">
        <ele>245</ele>
        <time>2022-09-06T05:18:05.415Z</time>
      </trkpt>
      <trkpt lat="45.63962" lon="5.35591">
        <ele>245</ele>
        <time>2022-09-06T05:18:06.416Z</time>
      </trkpt>
      <trkpt lat="45.63961" lon="5.35601">
        <ele>245</ele>
        <time>2022-09-06T05:18:07.415Z</time>
      </trkpt>
      <trkpt lat="45.63959" lon="5.35611">
        <ele>245</ele>
        <time>2022-09-06T05:18:08.416Z</time>
      </trkpt>
      <trkpt lat="45.63958" lon="5.35622">
        <ele>245</ele>
        <time>2022-09-06T05:18:09.416Z</time>
      </trkpt>
      <trkpt lat="45.63957" lon="5.35633">
        <ele>246</ele>
        <time>2022-09-06T05:18:10.415Z</time>
      </trkpt>
      <trkpt lat="45.63956" lon="5.35644">
        <ele>246</ele>
        <time>2022-09-06T05:18:11.415Z</time>
      </trkpt>
      <trkpt lat="45.63955" lon="5.35655">
        <ele>246</ele>
        <time>2022-09-06T05:18:12.416Z</time>
      </trkpt>
      <trkpt lat="45.63954" lon="5.35666">
        <ele>246</ele>
        <time>2022-09-06T05:18:13.416Z</time>
      </trkpt>
      <trkpt lat="45.63953" lon="5.35678">
        <ele>246</ele>
        <time>2022-09-06T05:18:14.415Z</time>
      </trkpt>
      <trkpt lat="45.63952" lon="5.35692">
        <ele>246</ele>
        <time>2022-09-06T05:18:15.415Z</time>
      </trkpt>
      <trkpt lat="45.63951" lon="5.35701">
        <ele>246</ele>
        <time>2022-09-06T05:18:16.415Z</time>
      </trkpt>
      <trkpt lat="45.6395" lon="5.35713">
        <ele>246</ele>
        <time>2022-09-06T05:18:17.416Z</time>
      </trkpt>
      <trkpt lat="45.63949" lon="5.35724">
        <ele>247</ele>
        <time>2022-09-06T05:18:18.416Z</time>
      </trkpt>
      <trkpt lat="45.63948" lon="5.35735">
        <ele>246</ele>
        <time>2022-09-06T05:18:19.416Z</time>
      </trkpt>
      <trkpt lat="45.63946" lon="5.35746">
        <ele>246</ele>
        <time>2022-09-06T05:18:20.415Z</time>
      </trkpt>
      <trkpt lat="45.63946" lon="5.35757">
        <ele>245</ele>
        <time>2022-09-06T05:18:21.416Z</time>
      </trkpt>
      <trkpt lat="45.63944" lon="5.3577">
        <ele>245</ele>
        <time>2022-09-06T05:18:22.416Z</time>
      </trkpt>
      <trkpt lat="45.63943" lon="5.35779">
        <ele>245</ele>
        <time>2022-09-06T05:18:23.416Z</time>
      </trkpt>
      <trkpt lat="45.63942" lon="5.3579">
        <ele>245</ele>
        <time>2022-09-06T05:18:24.415Z</time>
      </trkpt>
      <trkpt lat="45.63941" lon="5.35801">
        <ele>245</ele>
        <time>2022-09-06T05:18:25.415Z</time>
      </trkpt>
      <trkpt lat="45.6394" lon="5.35811">
        <ele>246</ele>
        <time>2022-09-06T05:18:26.415Z</time>
      </trkpt>
      <trkpt lat="45.63939" lon="5.35822">
        <ele>246</ele>
        <time>2022-09-06T05:18:27.415Z</time>
      </trkpt>
      <trkpt lat="45.63938" lon="5.35832">
        <ele>246</ele>
        <time>2022-09-06T05:18:28.415Z</time>
      </trkpt>
      <trkpt lat="45.63937" lon="5.35843">
        <ele>247</ele>
        <time>2022-09-06T05:18:29.416Z</time>
      </trkpt>
      <trkpt lat="45.63935" lon="5.35853">
        <ele>247</ele>
        <time>2022-09-06T05:18:30.415Z</time>
      </trkpt>
      <trkpt lat="45.63934" lon="5.35863">
        <ele>247</ele>
        <time>2022-09-06T05:18:31.416Z</time>
      </trkpt>
      <trkpt lat="45.63933" lon="5.35873">
        <ele>247</ele>
        <time>2022-09-06T05:18:32.416Z</time>
      </trkpt>
      <trkpt lat="45.63932" lon="5.35883">
        <ele>247</ele>
        <time>2022-09-06T05:18:33.416Z</time>
      </trkpt>
      <trkpt lat="45.63932" lon="5.35893">
        <ele>247</ele>
        <time>2022-09-06T05:18:34.416Z</time>
      </trkpt>
      <trkpt lat="45.63931" lon="5.35902">
        <ele>247</ele>
        <time>2022-09-06T05:18:35.416Z</time>
      </trkpt>
      <trkpt lat="45.6393" lon="5.35912">
        <ele>247</ele>
        <time>2022-09-06T05:18:36.416Z</time>
      </trkpt>
      <trkpt lat="45.6393" lon="5.35921">
        <ele>247</ele>
        <time>2022-09-06T05:18:37.416Z</time>
      </trkpt>
      <trkpt lat="45.63929" lon="5.35931">
        <ele>247</ele>
        <time>2022-09-06T05:18:38.415Z</time>
      </trkpt>
      <trkpt lat="45.63928" lon="5.35941">
        <ele>247</ele>
        <time>2022-09-06T05:18:39.415Z</time>
      </trkpt>
      <trkpt lat="45.63927" lon="5.35952">
        <ele>247</ele>
        <time>2022-09-06T05:18:40.415Z</time>
      </trkpt>
      <trkpt lat="45.63926" lon="5.35962">
        <ele>248</ele>
        <time>2022-09-06T05:18:41.415Z</time>
      </trkpt>
      <trkpt lat="45.63925" lon="5.35971">
        <ele>248</ele>
        <time>2022-09-06T05:18:42.415Z</time>
      </trkpt>
      <trkpt lat="45.63924" lon="5.3598">
        <ele>248</ele>
        <time>2022-09-06T05:18:43.416Z</time>
      </trkpt>
      <trkpt lat="45.63923" lon="5.3599">
        <ele>248</ele>
        <time>2022-09-06T05:18:44.416Z</time>
      </trkpt>
      <trkpt lat="45.63922" lon="5.35999">
        <ele>249</ele>
        <time>2022-09-06T05:18:45.416Z</time>
      </trkpt>
      <trkpt lat="45.63921" lon="5.36008">
        <ele>250</ele>
        <time>2022-09-06T05:18:46.416Z</time>
      </trkpt>
      <trkpt lat="45.6392" lon="5.36018">
        <ele>250</ele>
        <time>2022-09-06T05:18:47.416Z</time>
      </trkpt>
      <trkpt lat="45.63919" lon="5.36027">
        <ele>251</ele>
        <time>2022-09-06T05:18:48.415Z</time>
      </trkpt>
      <trkpt lat="45.63918" lon="5.36035">
        <ele>251</ele>
        <time>2022-09-06T05:18:49.416Z</time>
      </trkpt>
      <trkpt lat="45.63917" lon="5.36046">
        <ele>251</ele>
        <time>2022-09-06T05:18:50.416Z</time>
      </trkpt>
      <trkpt lat="45.63916" lon="5.36055">
        <ele>251</ele>
        <time>2022-09-06T05:18:51.416Z</time>
      </trkpt>
      <trkpt lat="45.63915" lon="5.36064">
        <ele>251</ele>
        <time>2022-09-06T05:18:52.415Z</time>
      </trkpt>
      <trkpt lat="45.63915" lon="5.36073">
        <ele>250</ele>
        <time>2022-09-06T05:18:53.416Z</time>
      </trkpt>
      <trkpt lat="45.63914" lon="5.36081">
        <ele>250</ele>
        <time>2022-09-06T05:18:54.415Z</time>
      </trkpt>
      <trkpt lat="45.63913" lon="5.36092">
        <ele>250</ele>
        <time>2022-09-06T05:18:55.416Z</time>
      </trkpt>
      <trkpt lat="45.63912" lon="5.36101">
        <ele>250</ele>
        <time>2022-09-06T05:18:56.415Z</time>
      </trkpt>
      <trkpt lat="45.63911" lon="5.3611">
        <ele>250</ele>
        <time>2022-09-06T05:18:57.416Z</time>
      </trkpt>
      <trkpt lat="45.6391" lon="5.3612">
        <ele>250</ele>
        <time>2022-09-06T05:18:58.416Z</time>
      </trkpt>
      <trkpt lat="45.63909" lon="5.36129">
        <ele>250</ele>
        <time>2022-09-06T05:18:59.416Z</time>
      </trkpt>
      <trkpt lat="45.63908" lon="5.36138">
        <ele>250</ele>
        <time>2022-09-06T05:19:00.416Z</time>
      </trkpt>
      <trkpt lat="45.63907" lon="5.36148">
        <ele>250</ele>
        <time>2022-09-06T05:19:01.416Z</time>
      </trkpt>
      <trkpt lat="45.63906" lon="5.36157">
        <ele>250</ele>
        <time>2022-09-06T05:19:02.416Z</time>
      </trkpt>
      <trkpt lat="45.63905" lon="5.36166">
        <ele>250</ele>
        <time>2022-09-06T05:19:03.415Z</time>
      </trkpt>
      <trkpt lat="45.63904" lon="5.36175">
        <ele>251</ele>
        <time>2022-09-06T05:19:04.416Z</time>
      </trkpt>
      <trkpt lat="45.63904" lon="5.36184">
        <ele>251</ele>
        <time>2022-09-06T05:19:05.416Z</time>
      </trkpt>
      <trkpt lat="45.63903" lon="5.36192">
        <ele>251</ele>
        <time>2022-09-06T05:19:06.416Z</time>
      </trkpt>
      <trkpt lat="45.63902" lon="5.362">
        <ele>251</ele>
        <time>2022-09-06T05:19:07.416Z</time>
      </trkpt>
      <trkpt lat="45.63902" lon="5.36206">
        <ele>251</ele>
        <time>2022-09-06T05:19:08.416Z</time>
      </trkpt>
      <trkpt lat="45.63902" lon="5.36213">
        <ele>250</ele>
        <time>2022-09-06T05:19:09.415Z</time>
      </trkpt>
      <trkpt lat="45.63901" lon="5.36222">
        <ele>250</ele>
        <time>2022-09-06T05:19:10.416Z</time>
      </trkpt>
      <trkpt lat="45.63901" lon="5.3623">
        <ele>250</ele>
        <time>2022-09-06T05:19:11.415Z</time>
      </trkpt>
      <trkpt lat="45.63901" lon="5.36237">
        <ele>251</ele>
        <time>2022-09-06T05:19:12.416Z</time>
      </trkpt>
      <trkpt lat="45.63901" lon="5.36244">
        <ele>251</ele>
        <time>2022-09-06T05:19:13.416Z</time>
      </trkpt>
      <trkpt lat="45.63901" lon="5.36252">
        <ele>251</ele>
        <time>2022-09-06T05:19:14.415Z</time>
      </trkpt>
      <trkpt lat="45.63902" lon="5.36259">
        <ele>252</ele>
        <time>2022-09-06T05:19:15.415Z</time>
      </trkpt>
      <trkpt lat="45.63902" lon="5.36267">
        <ele>253</ele>
        <time>2022-09-06T05:19:16.416Z</time>
      </trkpt>
      <trkpt lat="45.63903" lon="5.36274">
        <ele>253</ele>
        <time>2022-09-06T05:19:17.415Z</time>
      </trkpt>
      <trkpt lat="45.63904" lon="5.36282">
        <ele>254</ele>
        <time>2022-09-06T05:19:18.415Z</time>
      </trkpt>
      <trkpt lat="45.63905" lon="5.36289">
        <ele>254</ele>
        <time>2022-09-06T05:19:19.416Z</time>
      </trkpt>
      <trkpt lat="45.63907" lon="5.36297">
        <ele>254</ele>
        <time>2022-09-06T05:19:20.415Z</time>
      </trkpt>
      <trkpt lat="45.63908" lon="5.36305">
        <ele>254</ele>
        <time>2022-09-06T05:19:21.416Z</time>
      </trkpt>
      <trkpt lat="45.6391" lon="5.36313">
        <ele>254</ele>
        <time>2022-09-06T05:19:22.416Z</time>
      </trkpt>
      <trkpt lat="45.63912" lon="5.36322">
        <ele>254</ele>
        <time>2022-09-06T05:19:23.415Z</time>
      </trkpt>
      <trkpt lat="45.63914" lon="5.36331">
        <ele>254</ele>
        <time>2022-09-06T05:19:24.416Z</time>
      </trkpt>
      <trkpt lat="45.63917" lon="5.3634">
        <ele>254</ele>
        <time>2022-09-06T05:19:25.416Z</time>
      </trkpt>
      <trkpt lat="45.63919" lon="5.36349">
        <ele>254</ele>
        <time>2022-09-06T05:19:26.416Z</time>
      </trkpt>
      <trkpt lat="45.63922" lon="5.36358">
        <ele>254</ele>
        <time>2022-09-06T05:19:27.416Z</time>
      </trkpt>
      <trkpt lat="45.63924" lon="5.36368">
        <ele>254</ele>
        <time>2022-09-06T05:19:28.416Z</time>
      </trkpt>
      <trkpt lat="45.63927" lon="5.36378">
        <ele>254</ele>
        <time>2022-09-06T05:19:29.416Z</time>
      </trkpt>
      <trkpt lat="45.6393" lon="5.36388">
        <ele>255</ele>
        <time>2022-09-06T05:19:30.416Z</time>
      </trkpt>
      <trkpt lat="45.63932" lon="5.36398">
        <ele>255</ele>
        <time>2022-09-06T05:19:31.416Z</time>
      </trkpt>
      <trkpt lat="45.63935" lon="5.36408">
        <ele>255</ele>
        <time>2022-09-06T05:19:32.415Z</time>
      </trkpt>
      <trkpt lat="45.63938" lon="5.36419">
        <ele>255</ele>
        <time>2022-09-06T05:19:33.416Z</time>
      </trkpt>
      <trkpt lat="45.63941" lon="5.36429">
        <ele>255</ele>
        <time>2022-09-06T05:19:34.416Z</time>
      </trkpt>
      <trkpt lat="45.63944" lon="5.3644">
        <ele>255</ele>
        <time>2022-09-06T05:19:35.416Z</time>
      </trkpt>
      <trkpt lat="45.63947" lon="5.36451">
        <ele>255</ele>
        <time>2022-09-06T05:19:36.416Z</time>
      </trkpt>
      <trkpt lat="45.6395" lon="5.36462">
        <ele>255</ele>
        <time>2022-09-06T05:19:37.416Z</time>
      </trkpt>
      <trkpt lat="45.63953" lon="5.36473">
        <ele>255</ele>
        <time>2022-09-06T05:19:38.415Z</time>
      </trkpt>
      <trkpt lat="45.63956" lon="5.36484">
        <ele>255</ele>
        <time>2022-09-06T05:19:39.416Z</time>
      </trkpt>
      <trkpt lat="45.63959" lon="5.36496">
        <ele>255</ele>
        <time>2022-09-06T05:19:40.415Z</time>
      </trkpt>
      <trkpt lat="45.63962" lon="5.36508">
        <ele>255</ele>
        <time>2022-09-06T05:19:41.416Z</time>
      </trkpt>
      <trkpt lat="45.63966" lon="5.3652">
        <ele>255</ele>
        <time>2022-09-06T05:19:42.416Z</time>
      </trkpt>
      <trkpt lat="45.63969" lon="5.36532">
        <ele>254</ele>
        <time>2022-09-06T05:19:43.416Z</time>
      </trkpt>
      <trkpt lat="45.63972" lon="5.36544">
        <ele>254</ele>
        <time>2022-09-06T05:19:44.416Z</time>
      </trkpt>
      <trkpt lat="45.63976" lon="5.36556">
        <ele>253</ele>
        <time>2022-09-06T05:19:45.416Z</time>
      </trkpt>
      <trkpt lat="45.63979" lon="5.36568">
        <ele>252</ele>
        <time>2022-09-06T05:19:46.416Z</time>
      </trkpt>
      <trkpt lat="45.63982" lon="5.36581">
        <ele>252</ele>
        <time>2022-09-06T05:19:47.416Z</time>
      </trkpt>
      <trkpt lat="45.63986" lon="5.36594">
        <ele>251</ele>
        <time>2022-09-06T05:19:48.415Z</time>
      </trkpt>
      <trkpt lat="45.63989" lon="5.36607">
        <ele>251</ele>
        <time>2022-09-06T05:19:49.416Z</time>
      </trkpt>
      <trkpt lat="45.63991" lon="5.3662">
        <ele>250</ele>
        <time>2022-09-06T05:19:50.416Z</time>
      </trkpt>
      <trkpt lat="45.63994" lon="5.36633">
        <ele>250</ele>
        <time>2022-09-06T05:19:51.416Z</time>
      </trkpt>
      <trkpt lat="45.63996" lon="5.36646">
        <ele>250</ele>
        <time>2022-09-06T05:19:52.415Z</time>
      </trkpt>
      <trkpt lat="45.63999" lon="5.3666">
        <ele>250</ele>
        <time>2022-09-06T05:19:53.415Z</time>
      </trkpt>
      <trkpt lat="45.64001" lon="5.36673">
        <ele>250</ele>
        <time>2022-09-06T05:19:54.416Z</time>
      </trkpt>
      <trkpt lat="45.64002" lon="5.36687">
        <ele>249</ele>
        <time>2022-09-06T05:19:55.416Z</time>
      </trkpt>
      <trkpt lat="45.64004" lon="5.36701">
        <ele>249</ele>
        <time>2022-09-06T05:19:56.415Z</time>
      </trkpt>
      <trkpt lat="45.64006" lon="5.36715">
        <ele>248</ele>
        <time>2022-09-06T05:19:57.416Z</time>
      </trkpt>
      <trkpt lat="45.64008" lon="5.36729">
        <ele>247</ele>
        <time>2022-09-06T05:19:58.416Z</time>
      </trkpt>
      <trkpt lat="45.64009" lon="5.36742">
        <ele>247</ele>
        <time>2022-09-06T05:19:59.416Z</time>
      </trkpt>
      <trkpt lat="45.64011" lon="5.36756">
        <ele>246</ele>
        <time>2022-09-06T05:20:00.416Z</time>
      </trkpt>
      <trkpt lat="45.64013" lon="5.36767">
        <ele>246</ele>
        <time>2022-09-06T05:20:01.415Z</time>
      </trkpt>
      <trkpt lat="45.64015" lon="5.36783">
        <ele>245</ele>
        <time>2022-09-06T05:20:02.416Z</time>
      </trkpt>
      <trkpt lat="45.64016" lon="5.36797">
        <ele>245</ele>
        <time>2022-09-06T05:20:03.415Z</time>
      </trkpt>
      <trkpt lat="45.64018" lon="5.36811">
        <ele>245</ele>
        <time>2022-09-06T05:20:04.416Z</time>
      </trkpt>
      <trkpt lat="45.64019" lon="5.36821">
        <ele>245</ele>
        <time>2022-09-06T05:20:05.416Z</time>
      </trkpt>
      <trkpt lat="45.64021" lon="5.36835">
        <ele>245</ele>
        <time>2022-09-06T05:20:06.415Z</time>
      </trkpt>
      <trkpt lat="45.64023" lon="5.3685">
        <ele>245</ele>
        <time>2022-09-06T05:20:07.416Z</time>
      </trkpt>
      <trkpt lat="45.64025" lon="5.36863">
        <ele>245</ele>
        <time>2022-09-06T05:20:08.415Z</time>
      </trkpt>
      <trkpt lat="45.64027" lon="5.36876">
        <ele>244</ele>
        <time>2022-09-06T05:20:09.416Z</time>
      </trkpt>
      <trkpt lat="45.64028" lon="5.36889">
        <ele>244</ele>
        <time>2022-09-06T05:20:10.415Z</time>
      </trkpt>
      <trkpt lat="45.6403" lon="5.36901">
        <ele>244</ele>
        <time>2022-09-06T05:20:11.415Z</time>
      </trkpt>
      <trkpt lat="45.64031" lon="5.36914">
        <ele>243</ele>
        <time>2022-09-06T05:20:12.415Z</time>
      </trkpt>
      <trkpt lat="45.64032" lon="5.36926">
        <ele>243</ele>
        <time>2022-09-06T05:20:13.416Z</time>
      </trkpt>
      <trkpt lat="45.64034" lon="5.36938">
        <ele>242</ele>
        <time>2022-09-06T05:20:14.416Z</time>
      </trkpt>
      <trkpt lat="45.64035" lon="5.3695">
        <ele>241</ele>
        <time>2022-09-06T05:20:15.415Z</time>
      </trkpt>
      <trkpt lat="45.64036" lon="5.36961">
        <ele>241</ele>
        <time>2022-09-06T05:20:16.415Z</time>
      </trkpt>
      <trkpt lat="45.64038" lon="5.36973">
        <ele>240</ele>
        <time>2022-09-06T05:20:17.416Z</time>
      </trkpt>
      <trkpt lat="45.64039" lon="5.36984">
        <ele>240</ele>
        <time>2022-09-06T05:20:18.416Z</time>
      </trkpt>
      <trkpt lat="45.64041" lon="5.36995">
        <ele>239</ele>
        <time>2022-09-06T05:20:19.416Z</time>
      </trkpt>
      <trkpt lat="45.64042" lon="5.37004">
        <ele>239</ele>
        <time>2022-09-06T05:20:20.416Z</time>
      </trkpt>
      <trkpt lat="45.64043" lon="5.37017">
        <ele>240</ele>
        <time>2022-09-06T05:20:21.416Z</time>
      </trkpt>
      <trkpt lat="45.64045" lon="5.37028">
        <ele>240</ele>
        <time>2022-09-06T05:20:22.416Z</time>
      </trkpt>
      <trkpt lat="45.64046" lon="5.37039">
        <ele>240</ele>
        <time>2022-09-06T05:20:23.416Z</time>
      </trkpt>
      <trkpt lat="45.64047" lon="5.37047">
        <ele>240</ele>
        <time>2022-09-06T05:20:24.416Z</time>
      </trkpt>
      <trkpt lat="45.64048" lon="5.3706">
        <ele>240</ele>
        <time>2022-09-06T05:20:25.416Z</time>
      </trkpt>
      <trkpt lat="45.6405" lon="5.37071">
        <ele>240</ele>
        <time>2022-09-06T05:20:26.416Z</time>
      </trkpt>
      <trkpt lat="45.64051" lon="5.37081">
        <ele>240</ele>
        <time>2022-09-06T05:20:27.416Z</time>
      </trkpt>
      <trkpt lat="45.64052" lon="5.37092">
        <ele>240</ele>
        <time>2022-09-06T05:20:28.415Z</time>
      </trkpt>
      <trkpt lat="45.64053" lon="5.37102">
        <ele>240</ele>
        <time>2022-09-06T05:20:29.416Z</time>
      </trkpt>
      <trkpt lat="45.64055" lon="5.37112">
        <ele>241</ele>
        <time>2022-09-06T05:20:30.416Z</time>
      </trkpt>
      <trkpt lat="45.64056" lon="5.37123">
        <ele>241</ele>
        <time>2022-09-06T05:20:31.416Z</time>
      </trkpt>
      <trkpt lat="45.64057" lon="5.37133">
        <ele>241</ele>
        <time>2022-09-06T05:20:32.416Z</time>
      </trkpt>
      <trkpt lat="45.64058" lon="5.37141">
        <ele>241</ele>
        <time>2022-09-06T05:20:33.416Z</time>
      </trkpt>
      <trkpt lat="45.6406" lon="5.37153">
        <ele>241</ele>
        <time>2022-09-06T05:20:34.415Z</time>
      </trkpt>
      <trkpt lat="45.64061" lon="5.37161">
        <ele>241</ele>
        <time>2022-09-06T05:20:35.416Z</time>
      </trkpt>
      <trkpt lat="45.64062" lon="5.37171">
        <ele>242</ele>
        <time>2022-09-06T05:20:36.416Z</time>
      </trkpt>
      <trkpt lat="45.64064" lon="5.37183">
        <ele>242</ele>
        <time>2022-09-06T05:20:37.415Z</time>
      </trkpt>
      <trkpt lat="45.64065" lon="5.37193">
        <ele>242</ele>
        <time>2022-09-06T05:20:38.416Z</time>
      </trkpt>
      <trkpt lat="45.64067" lon="5.37203">
        <ele>243</ele>
        <time>2022-09-06T05:20:39.415Z</time>
      </trkpt>
      <trkpt lat="45.64068" lon="5.37213">
        <ele>243</ele>
        <time>2022-09-06T05:20:40.416Z</time>
      </trkpt>
      <trkpt lat="45.64069" lon="5.37224">
        <ele>243</ele>
        <time>2022-09-06T05:20:41.415Z</time>
      </trkpt>
      <trkpt lat="45.6407" lon="5.37234">
        <ele>243</ele>
        <time>2022-09-06T05:20:42.416Z</time>
      </trkpt>
      <trkpt lat="45.6407" lon="5.37242">
        <ele>243</ele>
        <time>2022-09-06T05:20:43.415Z</time>
      </trkpt>
      <trkpt lat="45.64072" lon="5.37255">
        <ele>243</ele>
        <time>2022-09-06T05:20:44.415Z</time>
      </trkpt>
      <trkpt lat="45.64073" lon="5.37265">
        <ele>242</ele>
        <time>2022-09-06T05:20:45.416Z</time>
      </trkpt>
      <trkpt lat="45.64074" lon="5.37276">
        <ele>242</ele>
        <time>2022-09-06T05:20:46.415Z</time>
      </trkpt>
      <trkpt lat="45.64076" lon="5.37287">
        <ele>241</ele>
        <time>2022-09-06T05:20:47.416Z</time>
      </trkpt>
      <trkpt lat="45.64077" lon="5.37298">
        <ele>241</ele>
        <time>2022-09-06T05:20:48.416Z</time>
      </trkpt>
      <trkpt lat="45.64078" lon="5.37309">
        <ele>241</ele>
        <time>2022-09-06T05:20:49.415Z</time>
      </trkpt>
      <trkpt lat="45.64079" lon="5.3732">
        <ele>242</ele>
        <time>2022-09-06T05:20:50.416Z</time>
      </trkpt>
      <trkpt lat="45.64081" lon="5.37331">
        <ele>242</ele>
        <time>2022-09-06T05:20:51.416Z</time>
      </trkpt>
      <trkpt lat="45.64082" lon="5.3734">
        <ele>242</ele>
        <time>2022-09-06T05:20:52.416Z</time>
      </trkpt>
      <trkpt lat="45.64083" lon="5.37353">
        <ele>243</ele>
        <time>2022-09-06T05:20:53.415Z</time>
      </trkpt>
      <trkpt lat="45.64084" lon="5.37364">
        <ele>243</ele>
        <time>2022-09-06T05:20:54.416Z</time>
      </trkpt>
      <trkpt lat="45.64086" lon="5.37376">
        <ele>243</ele>
        <time>2022-09-06T05:20:55.416Z</time>
      </trkpt>
      <trkpt lat="45.64087" lon="5.37387">
        <ele>243</ele>
        <time>2022-09-06T05:20:56.416Z</time>
      </trkpt>
      <trkpt lat="45.64088" lon="5.37396">
        <ele>243</ele>
        <time>2022-09-06T05:20:57.415Z</time>
      </trkpt>
      <trkpt lat="45.6409" lon="5.37409">
        <ele>243</ele>
        <time>2022-09-06T05:20:58.416Z</time>
      </trkpt>
      <trkpt lat="45.64091" lon="5.37421">
        <ele>243</ele>
        <time>2022-09-06T05:20:59.416Z</time>
      </trkpt>
      <trkpt lat="45.64093" lon="5.37432">
        <ele>242</ele>
        <time>2022-09-06T05:21:00.415Z</time>
      </trkpt>
      <trkpt lat="45.64094" lon="5.37444">
        <ele>242</ele>
        <time>2022-09-06T05:21:01.415Z</time>
      </trkpt>
      <trkpt lat="45.64095" lon="5.37453">
        <ele>242</ele>
        <time>2022-09-06T05:21:02.415Z</time>
      </trkpt>
      <trkpt lat="45.64097" lon="5.37467">
        <ele>242</ele>
        <time>2022-09-06T05:21:03.416Z</time>
      </trkpt>
      <trkpt lat="45.64098" lon="5.37479">
        <ele>242</ele>
        <time>2022-09-06T05:21:04.416Z</time>
      </trkpt>
      <trkpt lat="45.641" lon="5.37491">
        <ele>242</ele>
        <time>2022-09-06T05:21:05.416Z</time>
      </trkpt>
      <trkpt lat="45.64101" lon="5.37502">
        <ele>242</ele>
        <time>2022-09-06T05:21:06.416Z</time>
      </trkpt>
      <trkpt lat="45.64102" lon="5.37512">
        <ele>241</ele>
        <time>2022-09-06T05:21:07.416Z</time>
      </trkpt>
      <trkpt lat="45.64104" lon="5.37525">
        <ele>241</ele>
        <time>2022-09-06T05:21:08.416Z</time>
      </trkpt>
      <trkpt lat="45.64105" lon="5.37537">
        <ele>241</ele>
        <time>2022-09-06T05:21:09.415Z</time>
      </trkpt>
      <trkpt lat="45.64107" lon="5.37548">
        <ele>241</ele>
        <time>2022-09-06T05:21:10.415Z</time>
      </trkpt>
      <trkpt lat="45.64108" lon="5.37559">
        <ele>241</ele>
        <time>2022-09-06T05:21:11.416Z</time>
      </trkpt>
      <trkpt lat="45.64109" lon="5.37571">
        <ele>241</ele>
        <time>2022-09-06T05:21:12.416Z</time>
      </trkpt>
      <trkpt lat="45.64111" lon="5.37582">
        <ele>241</ele>
        <time>2022-09-06T05:21:13.416Z</time>
      </trkpt>
      <trkpt lat="45.64112" lon="5.37593">
        <ele>240</ele>
        <time>2022-09-06T05:21:14.416Z</time>
      </trkpt>
      <trkpt lat="45.64114" lon="5.37604">
        <ele>240</ele>
        <time>2022-09-06T05:21:15.416Z</time>
      </trkpt>
      <trkpt lat="45.64115" lon="5.37615">
        <ele>240</ele>
        <time>2022-09-06T05:21:16.415Z</time>
      </trkpt>
      <trkpt lat="45.64116" lon="5.37625">
        <ele>241</ele>
        <time>2022-09-06T05:21:17.415Z</time>
      </trkpt>
      <trkpt lat="45.64117" lon="5.37636">
        <ele>240</ele>
        <time>2022-09-06T05:21:18.415Z</time>
      </trkpt>
      <trkpt lat="45.64118" lon="5.37646">
        <ele>240</ele>
        <time>2022-09-06T05:21:19.416Z</time>
      </trkpt>
      <trkpt lat="45.6412" lon="5.37656">
        <ele>239</ele>
        <time>2022-09-06T05:21:20.415Z</time>
      </trkpt>
      <trkpt lat="45.64121" lon="5.37667">
        <ele>239</ele>
        <time>2022-09-06T05:21:21.416Z</time>
      </trkpt>
      <trkpt lat="45.64122" lon="5.37677">
        <ele>239</ele>
        <time>2022-09-06T05:21:22.415Z</time>
      </trkpt>
      <trkpt lat="45.64124" lon="5.37687">
        <ele>239</ele>
        <time>2022-09-06T05:21:23.416Z</time>
      </trkpt>
      <trkpt lat="45.64125" lon="5.37697">
        <ele>239</ele>
        <time>2022-09-06T05:21:24.416Z</time>
      </trkpt>
      <trkpt lat="45.64126" lon="5.37707">
        <ele>239</ele>
        <time>2022-09-06T05:21:25.416Z</time>
      </trkpt>
      <trkpt lat="45.64127" lon="5.37717">
        <ele>238</ele>
        <time>2022-09-06T05:21:26.415Z</time>
      </trkpt>
      <trkpt lat="45.64128" lon="5.37727">
        <ele>238</ele>
        <time>2022-09-06T05:21:27.416Z</time>
      </trkpt>
      <trkpt lat="45.64129" lon="5.37737">
        <ele>238</ele>
        <time>2022-09-06T05:21:28.416Z</time>
      </trkpt>
      <trkpt lat="45.6413" lon="5.37747">
        <ele>238</ele>
        <time>2022-09-06T05:21:29.416Z</time>
      </trkpt>
      <trkpt lat="45.64132" lon="5.37757">
        <ele>238</ele>
        <time>2022-09-06T05:21:30.416Z</time>
      </trkpt>
      <trkpt lat="45.64133" lon="5.37766">
        <ele>239</ele>
        <time>2022-09-06T05:21:31.416Z</time>
      </trkpt>
      <trkpt lat="45.64134" lon="5.37776">
        <ele>238</ele>
        <time>2022-09-06T05:21:32.415Z</time>
      </trkpt>
      <trkpt lat="45.64135" lon="5.37785">
        <ele>239</ele>
        <time>2022-09-06T05:21:33.416Z</time>
      </trkpt>
      <trkpt lat="45.64136" lon="5.37794">
        <ele>238</ele>
        <time>2022-09-06T05:21:34.416Z</time>
      </trkpt>
      <trkpt lat="45.64137" lon="5.37802">
        <ele>238</ele>
        <time>2022-09-06T05:21:35.416Z</time>
      </trkpt>
      <trkpt lat="45.64138" lon="5.37811">
        <ele>238</ele>
        <time>2022-09-06T05:21:36.416Z</time>
      </trkpt>
      <trkpt lat="45.64139" lon="5.37819">
        <ele>239</ele>
        <time>2022-09-06T05:21:37.416Z</time>
      </trkpt>
      <trkpt lat="45.6414" lon="5.37827">
        <ele>239</ele>
        <time>2022-09-06T05:21:38.415Z</time>
      </trkpt>
      <trkpt lat="45.64141" lon="5.37834">
        <ele>239</ele>
        <time>2022-09-06T05:21:39.415Z</time>
      </trkpt>
      <trkpt lat="45.64142" lon="5.37842">
        <ele>240</ele>
        <time>2022-09-06T05:21:40.415Z</time>
      </trkpt>
      <trkpt lat="45.64143" lon="5.37851">
        <ele>240</ele>
        <time>2022-09-06T05:21:41.416Z</time>
      </trkpt>
      <trkpt lat="45.64144" lon="5.37859">
        <ele>241</ele>
        <time>2022-09-06T05:21:42.416Z</time>
      </trkpt>
      <trkpt lat="45.64145" lon="5.37867">
        <ele>242</ele>
        <time>2022-09-06T05:21:43.416Z</time>
      </trkpt>
      <trkpt lat="45.64146" lon="5.37873">
        <ele>243</ele>
        <time>2022-09-06T05:21:44.416Z</time>
      </trkpt>
      <trkpt lat="45.64147" lon="5.37882">
        <ele>243</ele>
        <time>2022-09-06T05:21:45.415Z</time>
      </trkpt>
      <trkpt lat="45.64148" lon="5.3789">
        <ele>244</ele>
        <time>2022-09-06T05:21:46.415Z</time>
      </trkpt>
      <trkpt lat="45.64149" lon="5.37898">
        <ele>244</ele>
        <time>2022-09-06T05:21:47.416Z</time>
      </trkpt>
      <trkpt lat="45.64149" lon="5.37906">
        <ele>244</ele>
        <time>2022-09-06T05:21:48.416Z</time>
      </trkpt>
      <trkpt lat="45.64151" lon="5.37914">
        <ele>244</ele>
        <time>2022-09-06T05:21:49.416Z</time>
      </trkpt>
      <trkpt lat="45.64152" lon="5.37922">
        <ele>244</ele>
        <time>2022-09-06T05:21:50.416Z</time>
      </trkpt>
      <trkpt lat="45.64153" lon="5.37929">
        <ele>244</ele>
        <time>2022-09-06T05:21:51.416Z</time>
      </trkpt>
      <trkpt lat="45.64154" lon="5.37938">
        <ele>245</ele>
        <time>2022-09-06T05:21:52.416Z</time>
      </trkpt>
      <trkpt lat="45.64155" lon="5.37944">
        <ele>245</ele>
        <time>2022-09-06T05:21:53.416Z</time>
      </trkpt>
      <trkpt lat="45.64155" lon="5.37952">
        <ele>245</ele>
        <time>2022-09-06T05:21:54.415Z</time>
      </trkpt>
      <trkpt lat="45.64157" lon="5.37961">
        <ele>245</ele>
        <time>2022-09-06T05:21:55.416Z</time>
      </trkpt>
      <trkpt lat="45.64158" lon="5.37969">
        <ele>245</ele>
        <time>2022-09-06T05:21:56.416Z</time>
      </trkpt>
      <trkpt lat="45.64159" lon="5.37977">
        <ele>246</ele>
        <time>2022-09-06T05:21:57.416Z</time>
      </trkpt>
      <trkpt lat="45.6416" lon="5.37985">
        <ele>246</ele>
        <time>2022-09-06T05:21:58.416Z</time>
      </trkpt>
      <trkpt lat="45.6416" lon="5.37992">
        <ele>247</ele>
        <time>2022-09-06T05:21:59.416Z</time>
      </trkpt>
      <trkpt lat="45.64162" lon="5.38001">
        <ele>247</ele>
        <time>2022-09-06T05:22:00.416Z</time>
      </trkpt>
      <trkpt lat="45.64163" lon="5.38009">
        <ele>247</ele>
        <time>2022-09-06T05:22:01.416Z</time>
      </trkpt>
      <trkpt lat="45.64164" lon="5.38017">
        <ele>247</ele>
        <time>2022-09-06T05:22:02.416Z</time>
      </trkpt>
      <trkpt lat="45.64165" lon="5.38023">
        <ele>248</ele>
        <time>2022-09-06T05:22:03.416Z</time>
      </trkpt>
      <trkpt lat="45.64166" lon="5.38032">
        <ele>248</ele>
        <time>2022-09-06T05:22:04.416Z</time>
      </trkpt>
      <trkpt lat="45.64167" lon="5.38041">
        <ele>248</ele>
        <time>2022-09-06T05:22:05.416Z</time>
      </trkpt>
      <trkpt lat="45.64168" lon="5.3805">
        <ele>248</ele>
        <time>2022-09-06T05:22:06.416Z</time>
      </trkpt>
      <trkpt lat="45.6417" lon="5.38058">
        <ele>248</ele>
        <time>2022-09-06T05:22:07.416Z</time>
      </trkpt>
      <trkpt lat="45.6417" lon="5.38065">
        <ele>248</ele>
        <time>2022-09-06T05:22:08.416Z</time>
      </trkpt>
      <trkpt lat="45.64171" lon="5.38074">
        <ele>248</ele>
        <time>2022-09-06T05:22:09.415Z</time>
      </trkpt>
      <trkpt lat="45.64173" lon="5.38084">
        <ele>249</ele>
        <time>2022-09-06T05:22:10.415Z</time>
      </trkpt>
      <trkpt lat="45.64174" lon="5.38092">
        <ele>249</ele>
        <time>2022-09-06T05:22:11.416Z</time>
      </trkpt>
      <trkpt lat="45.64175" lon="5.38101">
        <ele>249</ele>
        <time>2022-09-06T05:22:12.416Z</time>
      </trkpt>
      <trkpt lat="45.64176" lon="5.38109">
        <ele>249</ele>
        <time>2022-09-06T05:22:13.416Z</time>
      </trkpt>
      <trkpt lat="45.64177" lon="5.38117">
        <ele>249</ele>
        <time>2022-09-06T05:22:14.415Z</time>
      </trkpt>
      <trkpt lat="45.64178" lon="5.38123">
        <ele>249</ele>
        <time>2022-09-06T05:22:15.416Z</time>
      </trkpt>
      <trkpt lat="45.64178" lon="5.3813">
        <ele>248</ele>
        <time>2022-09-06T05:22:16.416Z</time>
      </trkpt>
      <trkpt lat="45.64179" lon="5.38136">
        <ele>248</ele>
        <time>2022-09-06T05:22:17.416Z</time>
      </trkpt>
      <trkpt lat="45.6418" lon="5.38144">
        <ele>248</ele>
        <time>2022-09-06T05:22:18.416Z</time>
      </trkpt>
      <trkpt lat="45.64181" lon="5.38151">
        <ele>248</ele>
        <time>2022-09-06T05:22:19.415Z</time>
      </trkpt>
      <trkpt lat="45.64182" lon="5.38159">
        <ele>248</ele>
        <time>2022-09-06T05:22:20.415Z</time>
      </trkpt>
      <trkpt lat="45.64183" lon="5.38167">
        <ele>248</ele>
        <time>2022-09-06T05:22:21.416Z</time>
      </trkpt>
      <trkpt lat="45.64184" lon="5.38175">
        <ele>248</ele>
        <time>2022-09-06T05:22:22.415Z</time>
      </trkpt>
      <trkpt lat="45.64185" lon="5.38182">
        <ele>248</ele>
        <time>2022-09-06T05:22:23.415Z</time>
      </trkpt>
      <trkpt lat="45.64186" lon="5.38192">
        <ele>248</ele>
        <time>2022-09-06T05:22:24.416Z</time>
      </trkpt>
      <trkpt lat="45.64187" lon="5.38201">
        <ele>248</ele>
        <time>2022-09-06T05:22:25.416Z</time>
      </trkpt>
      <trkpt lat="45.64188" lon="5.3821">
        <ele>248</ele>
        <time>2022-09-06T05:22:26.415Z</time>
      </trkpt>
      <trkpt lat="45.64189" lon="5.38218">
        <ele>247</ele>
        <time>2022-09-06T05:22:27.416Z</time>
      </trkpt>
      <trkpt lat="45.64189" lon="5.38227">
        <ele>248</ele>
        <time>2022-09-06T05:22:28.416Z</time>
      </trkpt>
      <trkpt lat="45.64191" lon="5.38236">
        <ele>248</ele>
        <time>2022-09-06T05:22:29.415Z</time>
      </trkpt>
      <trkpt lat="45.64192" lon="5.38245">
        <ele>249</ele>
        <time>2022-09-06T05:22:30.416Z</time>
      </trkpt>
      <trkpt lat="45.64192" lon="5.38252">
        <ele>249</ele>
        <time>2022-09-06T05:22:31.416Z</time>
      </trkpt>
      <trkpt lat="45.64193" lon="5.38261">
        <ele>250</ele>
        <time>2022-09-06T05:22:32.416Z</time>
      </trkpt>
      <trkpt lat="45.64195" lon="5.38272">
        <ele>250</ele>
        <time>2022-09-06T05:22:33.416Z</time>
      </trkpt>
      <trkpt lat="45.64196" lon="5.38281">
        <ele>250</ele>
        <time>2022-09-06T05:22:34.416Z</time>
      </trkpt>
      <trkpt lat="45.64197" lon="5.38289">
        <ele>250</ele>
        <time>2022-09-06T05:22:35.416Z</time>
      </trkpt>
      <trkpt lat="45.64198" lon="5.38297">
        <ele>250</ele>
        <time>2022-09-06T05:22:36.415Z</time>
      </trkpt>
      <trkpt lat="45.642" lon="5.38307">
        <ele>250</ele>
        <time>2022-09-06T05:22:37.415Z</time>
      </trkpt>
      <trkpt lat="45.64201" lon="5.38316">
        <ele>251</ele>
        <time>2022-09-06T05:22:38.415Z</time>
      </trkpt>
      <trkpt lat="45.64202" lon="5.38326">
        <ele>251</ele>
        <time>2022-09-06T05:22:39.416Z</time>
      </trkpt>
      <trkpt lat="45.64204" lon="5.38335">
        <ele>251</ele>
        <time>2022-09-06T05:22:40.415Z</time>
      </trkpt>
      <trkpt lat="45.64205" lon="5.38343">
        <ele>250</ele>
        <time>2022-09-06T05:22:41.416Z</time>
      </trkpt>
      <trkpt lat="45.64206" lon="5.38354">
        <ele>250</ele>
        <time>2022-09-06T05:22:42.416Z</time>
      </trkpt>
      <trkpt lat="45.64208" lon="5.38364">
        <ele>250</ele>
        <time>2022-09-06T05:22:43.416Z</time>
      </trkpt>
      <trkpt lat="45.6421" lon="5.38375">
        <ele>250</ele>
        <time>2022-09-06T05:22:44.416Z</time>
      </trkpt>
      <trkpt lat="45.64211" lon="5.38383">
        <ele>250</ele>
        <time>2022-09-06T05:22:45.416Z</time>
      </trkpt>
      <trkpt lat="45.64213" lon="5.38393">
        <ele>250</ele>
        <time>2022-09-06T05:22:46.416Z</time>
      </trkpt>
      <trkpt lat="45.64216" lon="5.38406">
        <ele>250</ele>
        <time>2022-09-06T05:22:47.416Z</time>
      </trkpt>
      <trkpt lat="45.64218" lon="5.38416">
        <ele>250</ele>
        <time>2022-09-06T05:22:48.415Z</time>
      </trkpt>
      <trkpt lat="45.64221" lon="5.38427">
        <ele>250</ele>
        <time>2022-09-06T05:22:49.416Z</time>
      </trkpt>
      <trkpt lat="45.64223" lon="5.38436">
        <ele>250</ele>
        <time>2022-09-06T05:22:50.415Z</time>
      </trkpt>
      <trkpt lat="45.64225" lon="5.38447">
        <ele>250</ele>
        <time>2022-09-06T05:22:51.416Z</time>
      </trkpt>
      <trkpt lat="45.64229" lon="5.3846">
        <ele>250</ele>
        <time>2022-09-06T05:22:52.416Z</time>
      </trkpt>
      <trkpt lat="45.64232" lon="5.38472">
        <ele>250</ele>
        <time>2022-09-06T05:22:53.415Z</time>
      </trkpt>
      <trkpt lat="45.64235" lon="5.38483">
        <ele>251</ele>
        <time>2022-09-06T05:22:54.415Z</time>
      </trkpt>
      <trkpt lat="45.64237" lon="5.38492">
        <ele>251</ele>
        <time>2022-09-06T05:22:55.416Z</time>
      </trkpt>
      <trkpt lat="45.6424" lon="5.38503">
        <ele>251</ele>
        <time>2022-09-06T05:22:56.416Z</time>
      </trkpt>
      <trkpt lat="45.64245" lon="5.38517">
        <ele>251</ele>
        <time>2022-09-06T05:22:57.416Z</time>
      </trkpt>
      <trkpt lat="45.64248" lon="5.38528">
        <ele>251</ele>
        <time>2022-09-06T05:22:58.416Z</time>
      </trkpt>
      <trkpt lat="45.64252" lon="5.3854">
        <ele>251</ele>
        <time>2022-09-06T05:22:59.416Z</time>
      </trkpt>
      <trkpt lat="45.64255" lon="5.38549">
        <ele>250</ele>
        <time>2022-09-06T05:23:00.416Z</time>
      </trkpt>
      <trkpt lat="45.6426" lon="5.38563">
        <ele>250</ele>
        <time>2022-09-06T05:23:01.416Z</time>
      </trkpt>
      <trkpt lat="45.64264" lon="5.38574">
        <ele>249</ele>
        <time>2022-09-06T05:23:02.416Z</time>
      </trkpt>
      <trkpt lat="45.64268" lon="5.38585">
        <ele>249</ele>
        <time>2022-09-06T05:23:03.416Z</time>
      </trkpt>
      <trkpt lat="45.64273" lon="5.38597">
        <ele>248</ele>
        <time>2022-09-06T05:23:04.416Z</time>
      </trkpt>
      <trkpt lat="45.64278" lon="5.38608">
        <ele>247</ele>
        <time>2022-09-06T05:23:05.416Z</time>
      </trkpt>
      <trkpt lat="45.64283" lon="5.38619">
        <ele>246</ele>
        <time>2022-09-06T05:23:06.416Z</time>
      </trkpt>
      <trkpt lat="45.64287" lon="5.38631">
        <ele>246</ele>
        <time>2022-09-06T05:23:07.416Z</time>
      </trkpt>
      <trkpt lat="45.64292" lon="5.38642">
        <ele>246</ele>
        <time>2022-09-06T05:23:08.416Z</time>
      </trkpt>
      <trkpt lat="45.64297" lon="5.38654">
        <ele>246</ele>
        <time>2022-09-06T05:23:09.416Z</time>
      </trkpt>
      <trkpt lat="45.64302" lon="5.38665">
        <ele>246</ele>
        <time>2022-09-06T05:23:10.416Z</time>
      </trkpt>
      <trkpt lat="45.64307" lon="5.38677">
        <ele>246</ele>
        <time>2022-09-06T05:23:11.415Z</time>
      </trkpt>
      <trkpt lat="45.64312" lon="5.38688">
        <ele>245</ele>
        <time>2022-09-06T05:23:12.416Z</time>
      </trkpt>
      <trkpt lat="45.64317" lon="5.387">
        <ele>245</ele>
        <time>2022-09-06T05:23:13.416Z</time>
      </trkpt>
      <trkpt lat="45.64322" lon="5.38711">
        <ele>246</ele>
        <time>2022-09-06T05:23:14.416Z</time>
      </trkpt>
      <trkpt lat="45.64326" lon="5.38721">
        <ele>246</ele>
        <time>2022-09-06T05:23:15.416Z</time>
      </trkpt>
      <trkpt lat="45.64333" lon="5.38735">
        <ele>247</ele>
        <time>2022-09-06T05:23:16.415Z</time>
      </trkpt>
      <trkpt lat="45.64338" lon="5.38747">
        <ele>247</ele>
        <time>2022-09-06T05:23:17.415Z</time>
      </trkpt>
      <trkpt lat="45.64343" lon="5.38759">
        <ele>247</ele>
        <time>2022-09-06T05:23:18.416Z</time>
      </trkpt>
      <trkpt lat="45.64348" lon="5.38771">
        <ele>246</ele>
        <time>2022-09-06T05:23:19.416Z</time>
      </trkpt>
      <trkpt lat="45.64353" lon="5.38784">
        <ele>246</ele>
        <time>2022-09-06T05:23:20.416Z</time>
      </trkpt>
      <trkpt lat="45.64358" lon="5.38796">
        <ele>246</ele>
        <time>2022-09-06T05:23:21.415Z</time>
      </trkpt>
      <trkpt lat="45.64362" lon="5.38809">
        <ele>246</ele>
        <time>2022-09-06T05:23:22.416Z</time>
      </trkpt>
      <trkpt lat="45.64366" lon="5.38819">
        <ele>246</ele>
        <time>2022-09-06T05:23:23.416Z</time>
      </trkpt>
      <trkpt lat="45.6437" lon="5.38832">
        <ele>246</ele>
        <time>2022-09-06T05:23:24.415Z</time>
      </trkpt>
      <trkpt lat="45.64375" lon="5.38847">
        <ele>246</ele>
        <time>2022-09-06T05:23:25.415Z</time>
      </trkpt>
      <trkpt lat="45.64379" lon="5.3886">
        <ele>245</ele>
        <time>2022-09-06T05:23:26.416Z</time>
      </trkpt>
      <trkpt lat="45.64383" lon="5.38873">
        <ele>245</ele>
        <time>2022-09-06T05:23:27.416Z</time>
      </trkpt>
      <trkpt lat="45.64386" lon="5.38883">
        <ele>244</ele>
        <time>2022-09-06T05:23:28.415Z</time>
      </trkpt>
      <trkpt lat="45.6439" lon="5.38899">
        <ele>244</ele>
        <time>2022-09-06T05:23:29.415Z</time>
      </trkpt>
      <trkpt lat="45.64393" lon="5.38912">
        <ele>243</ele>
        <time>2022-09-06T05:23:30.416Z</time>
      </trkpt>
      <trkpt lat="45.64396" lon="5.38925">
        <ele>243</ele>
        <time>2022-09-06T05:23:31.416Z</time>
      </trkpt>
      <trkpt lat="45.64399" lon="5.38935">
        <ele>243</ele>
        <time>2022-09-06T05:23:32.416Z</time>
      </trkpt>
      <trkpt lat="45.64402" lon="5.38951">
        <ele>243</ele>
        <time>2022-09-06T05:23:33.415Z</time>
      </trkpt>
      <trkpt lat="45.64405" lon="5.38964">
        <ele>243</ele>
        <time>2022-09-06T05:23:34.416Z</time>
      </trkpt>
      <trkpt lat="45.64407" lon="5.38976">
        <ele>243</ele>
        <time>2022-09-06T05:23:35.416Z</time>
      </trkpt>
      <trkpt lat="45.6441" lon="5.38989">
        <ele>243</ele>
        <time>2022-09-06T05:23:36.415Z</time>
      </trkpt>
      <trkpt lat="45.64412" lon="5.38999">
        <ele>243</ele>
        <time>2022-09-06T05:23:37.416Z</time>
      </trkpt>
      <trkpt lat="45.64415" lon="5.39011">
        <ele>243</ele>
        <time>2022-09-06T05:23:38.415Z</time>
      </trkpt>
      <trkpt lat="45.64417" lon="5.39026">
        <ele>243</ele>
        <time>2022-09-06T05:23:39.415Z</time>
      </trkpt>
      <trkpt lat="45.64419" lon="5.39039">
        <ele>242</ele>
        <time>2022-09-06T05:23:40.415Z</time>
      </trkpt>
      <trkpt lat="45.64421" lon="5.39051">
        <ele>242</ele>
        <time>2022-09-06T05:23:41.416Z</time>
      </trkpt>
      <trkpt lat="45.64423" lon="5.39061">
        <ele>242</ele>
        <time>2022-09-06T05:23:42.416Z</time>
      </trkpt>
      <trkpt lat="45.64424" lon="5.39074">
        <ele>242</ele>
        <time>2022-09-06T05:23:43.416Z</time>
      </trkpt>
      <trkpt lat="45.64426" lon="5.39088">
        <ele>242</ele>
        <time>2022-09-06T05:23:44.415Z</time>
      </trkpt>
      <trkpt lat="45.64428" lon="5.391">
        <ele>242</ele>
        <time>2022-09-06T05:23:45.415Z</time>
      </trkpt>
      <trkpt lat="45.64429" lon="5.39112">
        <ele>242</ele>
        <time>2022-09-06T05:23:46.416Z</time>
      </trkpt>
      <trkpt lat="45.64429" lon="5.39122">
        <ele>242</ele>
        <time>2022-09-06T05:23:47.416Z</time>
      </trkpt>
      <trkpt lat="45.6443" lon="5.39136">
        <ele>243</ele>
        <time>2022-09-06T05:23:48.416Z</time>
      </trkpt>
      <trkpt lat="45.64431" lon="5.39148">
        <ele>243</ele>
        <time>2022-09-06T05:23:49.416Z</time>
      </trkpt>
      <trkpt lat="45.64432" lon="5.3916">
        <ele>243</ele>
        <time>2022-09-06T05:23:50.415Z</time>
      </trkpt>
      <trkpt lat="45.64433" lon="5.39171">
        <ele>243</ele>
        <time>2022-09-06T05:23:51.416Z</time>
      </trkpt>
      <trkpt lat="45.64433" lon="5.39183">
        <ele>243</ele>
        <time>2022-09-06T05:23:52.416Z</time>
      </trkpt>
      <trkpt lat="45.64434" lon="5.39195">
        <ele>243</ele>
        <time>2022-09-06T05:23:53.416Z</time>
      </trkpt>
      <trkpt lat="45.64434" lon="5.39206">
        <ele>243</ele>
        <time>2022-09-06T05:23:54.416Z</time>
      </trkpt>
      <trkpt lat="45.64434" lon="5.39218">
        <ele>242</ele>
        <time>2022-09-06T05:23:55.416Z</time>
      </trkpt>
      <trkpt lat="45.64434" lon="5.3923">
        <ele>242</ele>
        <time>2022-09-06T05:23:56.416Z</time>
      </trkpt>
      <trkpt lat="45.64434" lon="5.39241">
        <ele>241</ele>
        <time>2022-09-06T05:23:57.415Z</time>
      </trkpt>
      <trkpt lat="45.64434" lon="5.39253">
        <ele>241</ele>
        <time>2022-09-06T05:23:58.415Z</time>
      </trkpt>
      <trkpt lat="45.64434" lon="5.39264">
        <ele>240</ele>
        <time>2022-09-06T05:23:59.416Z</time>
      </trkpt>
      <trkpt lat="45.64433" lon="5.39276">
        <ele>240</ele>
        <time>2022-09-06T05:24:00.415Z</time>
      </trkpt>
      <trkpt lat="45.64433" lon="5.39287">
        <ele>239</ele>
        <time>2022-09-06T05:24:01.416Z</time>
      </trkpt>
      <trkpt lat="45.64432" lon="5.39299">
        <ele>239</ele>
        <time>2022-09-06T05:24:02.416Z</time>
      </trkpt>
      <trkpt lat="45.64432" lon="5.39311">
        <ele>240</ele>
        <time>2022-09-06T05:24:03.416Z</time>
      </trkpt>
      <trkpt lat="45.64431" lon="5.39322">
        <ele>240</ele>
        <time>2022-09-06T05:24:04.416Z</time>
      </trkpt>
      <trkpt lat="45.6443" lon="5.39333">
        <ele>239</ele>
        <time>2022-09-06T05:24:05.416Z</time>
      </trkpt>
      <trkpt lat="45.64429" lon="5.39342">
        <ele>239</ele>
        <time>2022-09-06T05:24:06.416Z</time>
      </trkpt>
      <trkpt lat="45.64428" lon="5.39356">
        <ele>239</ele>
        <time>2022-09-06T05:24:07.416Z</time>
      </trkpt>
      <trkpt lat="45.64427" lon="5.39367">
        <ele>238</ele>
        <time>2022-09-06T05:24:08.416Z</time>
      </trkpt>
      <trkpt lat="45.64425" lon="5.39378">
        <ele>237</ele>
        <time>2022-09-06T05:24:09.415Z</time>
      </trkpt>
      <trkpt lat="45.64424" lon="5.39389">
        <ele>236</ele>
        <time>2022-09-06T05:24:10.416Z</time>
      </trkpt>
      <trkpt lat="45.64423" lon="5.39398">
        <ele>236</ele>
        <time>2022-09-06T05:24:11.415Z</time>
      </trkpt>
      <trkpt lat="45.64422" lon="5.39411">
        <ele>235</ele>
        <time>2022-09-06T05:24:12.416Z</time>
      </trkpt>
      <trkpt lat="45.6442" lon="5.39422">
        <ele>235</ele>
        <time>2022-09-06T05:24:13.416Z</time>
      </trkpt>
      <trkpt lat="45.64418" lon="5.39433">
        <ele>235</ele>
        <time>2022-09-06T05:24:14.416Z</time>
      </trkpt>
      <trkpt lat="45.64417" lon="5.39443">
        <ele>234</ele>
        <time>2022-09-06T05:24:15.416Z</time>
      </trkpt>
      <trkpt lat="45.64415" lon="5.39454">
        <ele>235</ele>
        <time>2022-09-06T05:24:16.416Z</time>
      </trkpt>
      <trkpt lat="45.64413" lon="5.39465">
        <ele>235</ele>
        <time>2022-09-06T05:24:17.415Z</time>
      </trkpt>
      <trkpt lat="45.64411" lon="5.39476">
        <ele>235</ele>
        <time>2022-09-06T05:24:18.416Z</time>
      </trkpt>
      <trkpt lat="45.64409" lon="5.39487">
        <ele>236</ele>
        <time>2022-09-06T05:24:19.416Z</time>
      </trkpt>
      <trkpt lat="45.64407" lon="5.39498">
        <ele>237</ele>
        <time>2022-09-06T05:24:20.416Z</time>
      </trkpt>
      <trkpt lat="45.64405" lon="5.39508">
        <ele>237</ele>
        <time>2022-09-06T05:24:21.416Z</time>
      </trkpt>
      <trkpt lat="45.64403" lon="5.39519">
        <ele>237</ele>
        <time>2022-09-06T05:24:22.416Z</time>
      </trkpt>
      <trkpt lat="45.64401" lon="5.39529">
        <ele>237</ele>
        <time>2022-09-06T05:24:23.415Z</time>
      </trkpt>
      <trkpt lat="45.64399" lon="5.3954">
        <ele>237</ele>
        <time>2022-09-06T05:24:24.415Z</time>
      </trkpt>
      <trkpt lat="45.64397" lon="5.3955">
        <ele>238</ele>
        <time>2022-09-06T05:24:25.416Z</time>
      </trkpt>
      <trkpt lat="45.64394" lon="5.3956">
        <ele>238</ele>
        <time>2022-09-06T05:24:26.416Z</time>
      </trkpt>
      <trkpt lat="45.64392" lon="5.39571">
        <ele>238</ele>
        <time>2022-09-06T05:24:27.416Z</time>
      </trkpt>
      <trkpt lat="45.6439" lon="5.39581">
        <ele>238</ele>
        <time>2022-09-06T05:24:28.416Z</time>
      </trkpt>
      <trkpt lat="45.64389" lon="5.39589">
        <ele>238</ele>
        <time>2022-09-06T05:24:29.416Z</time>
      </trkpt>
      <trkpt lat="45.64386" lon="5.39601">
        <ele>238</ele>
        <time>2022-09-06T05:24:30.416Z</time>
      </trkpt>
      <trkpt lat="45.64384" lon="5.39611">
        <ele>238</ele>
        <time>2022-09-06T05:24:31.416Z</time>
      </trkpt>
      <trkpt lat="45.64382" lon="5.39621">
        <ele>238</ele>
        <time>2022-09-06T05:24:32.416Z</time>
      </trkpt>
      <trkpt lat="45.6438" lon="5.3963">
        <ele>238</ele>
        <time>2022-09-06T05:24:33.416Z</time>
      </trkpt>
      <trkpt lat="45.64378" lon="5.3964">
        <ele>239</ele>
        <time>2022-09-06T05:24:34.416Z</time>
      </trkpt>
      <trkpt lat="45.64376" lon="5.3965">
        <ele>240</ele>
        <time>2022-09-06T05:24:35.415Z</time>
      </trkpt>
      <trkpt lat="45.64374" lon="5.39659">
        <ele>240</ele>
        <time>2022-09-06T05:24:36.416Z</time>
      </trkpt>
      <trkpt lat="45.64372" lon="5.39669">
        <ele>241</ele>
        <time>2022-09-06T05:24:37.416Z</time>
      </trkpt>
      <trkpt lat="45.64371" lon="5.39677">
        <ele>241</ele>
        <time>2022-09-06T05:24:38.416Z</time>
      </trkpt>
      <trkpt lat="45.64369" lon="5.39686">
        <ele>241</ele>
        <time>2022-09-06T05:24:39.415Z</time>
      </trkpt>
      <trkpt lat="45.64366" lon="5.39697">
        <ele>241</ele>
        <time>2022-09-06T05:24:40.416Z</time>
      </trkpt>
      <trkpt lat="45.64365" lon="5.39707">
        <ele>241</ele>
        <time>2022-09-06T05:24:41.416Z</time>
      </trkpt>
      <trkpt lat="45.64363" lon="5.39716">
        <ele>241</ele>
        <time>2022-09-06T05:24:42.416Z</time>
      </trkpt>
      <trkpt lat="45.64361" lon="5.39726">
        <ele>241</ele>
        <time>2022-09-06T05:24:43.416Z</time>
      </trkpt>
      <trkpt lat="45.64359" lon="5.39733">
        <ele>241</ele>
        <time>2022-09-06T05:24:44.416Z</time>
      </trkpt>
      <trkpt lat="45.64357" lon="5.39745">
        <ele>242</ele>
        <time>2022-09-06T05:24:45.416Z</time>
      </trkpt>
      <trkpt lat="45.64355" lon="5.39754">
        <ele>242</ele>
        <time>2022-09-06T05:24:46.415Z</time>
      </trkpt>
      <trkpt lat="45.64353" lon="5.39763">
        <ele>242</ele>
        <time>2022-09-06T05:24:47.416Z</time>
      </trkpt>
      <trkpt lat="45.64352" lon="5.39771">
        <ele>243</ele>
        <time>2022-09-06T05:24:48.416Z</time>
      </trkpt>
      <trkpt lat="45.6435" lon="5.3978">
        <ele>243</ele>
        <time>2022-09-06T05:24:49.416Z</time>
      </trkpt>
      <trkpt lat="45.64348" lon="5.39792">
        <ele>243</ele>
        <time>2022-09-06T05:24:50.416Z</time>
      </trkpt>
      <trkpt lat="45.64346" lon="5.39801">
        <ele>243</ele>
        <time>2022-09-06T05:24:51.415Z</time>
      </trkpt>
      <trkpt lat="45.64344" lon="5.39811">
        <ele>244</ele>
        <time>2022-09-06T05:24:52.416Z</time>
      </trkpt>
      <trkpt lat="45.64343" lon="5.39818">
        <ele>244</ele>
        <time>2022-09-06T05:24:53.416Z</time>
      </trkpt>
      <trkpt lat="45.6434" lon="5.39829">
        <ele>244</ele>
        <time>2022-09-06T05:24:54.416Z</time>
      </trkpt>
      <trkpt lat="45.64338" lon="5.39838">
        <ele>243</ele>
        <time>2022-09-06T05:24:55.416Z</time>
      </trkpt>
      <trkpt lat="45.64337" lon="5.39847">
        <ele>243</ele>
        <time>2022-09-06T05:24:56.416Z</time>
      </trkpt>
      <trkpt lat="45.64335" lon="5.39855">
        <ele>243</ele>
        <time>2022-09-06T05:24:57.416Z</time>
      </trkpt>
      <trkpt lat="45.64334" lon="5.39864">
        <ele>243</ele>
        <time>2022-09-06T05:24:58.416Z</time>
      </trkpt>
      <trkpt lat="45.64332" lon="5.39873">
        <ele>243</ele>
        <time>2022-09-06T05:24:59.415Z</time>
      </trkpt>
      <trkpt lat="45.6433" lon="5.39882">
        <ele>242</ele>
        <time>2022-09-06T05:25:00.416Z</time>
      </trkpt>
      <trkpt lat="45.64328" lon="5.39893">
        <ele>242</ele>
        <time>2022-09-06T05:25:01.415Z</time>
      </trkpt>
      <trkpt lat="45.64326" lon="5.39902">
        <ele>242</ele>
        <time>2022-09-06T05:25:02.416Z</time>
      </trkpt>
      <trkpt lat="45.64325" lon="5.39909">
        <ele>241</ele>
        <time>2022-09-06T05:25:03.416Z</time>
      </trkpt>
      <trkpt lat="45.64322" lon="5.3992">
        <ele>240</ele>
        <time>2022-09-06T05:25:04.415Z</time>
      </trkpt>
      <trkpt lat="45.64321" lon="5.39929">
        <ele>240</ele>
        <time>2022-09-06T05:25:05.415Z</time>
      </trkpt>
      <trkpt lat="45.64319" lon="5.39938">
        <ele>239</ele>
        <time>2022-09-06T05:25:06.415Z</time>
      </trkpt>
      <trkpt lat="45.64318" lon="5.39945">
        <ele>239</ele>
        <time>2022-09-06T05:25:07.416Z</time>
      </trkpt>
      <trkpt lat="45.64316" lon="5.39954">
        <ele>239</ele>
        <time>2022-09-06T05:25:08.416Z</time>
      </trkpt>
      <trkpt lat="45.64314" lon="5.39962">
        <ele>239</ele>
        <time>2022-09-06T05:25:09.415Z</time>
      </trkpt>
      <trkpt lat="45.64312" lon="5.39972">
        <ele>239</ele>
        <time>2022-09-06T05:25:10.416Z</time>
      </trkpt>
      <trkpt lat="45.6431" lon="5.39981">
        <ele>239</ele>
        <time>2022-09-06T05:25:11.415Z</time>
      </trkpt>
      <trkpt lat="45.64309" lon="5.3999">
        <ele>240</ele>
        <time>2022-09-06T05:25:12.416Z</time>
      </trkpt>
      <trkpt lat="45.64307" lon="5.39997">
        <ele>240</ele>
        <time>2022-09-06T05:25:13.416Z</time>
      </trkpt>
      <trkpt lat="45.64305" lon="5.40007">
        <ele>240</ele>
        <time>2022-09-06T05:25:14.416Z</time>
      </trkpt>
      <trkpt lat="45.64303" lon="5.40016">
        <ele>240</ele>
        <time>2022-09-06T05:25:15.416Z</time>
      </trkpt>
      <trkpt lat="45.64301" lon="5.40025">
        <ele>240</ele>
        <time>2022-09-06T05:25:16.416Z</time>
      </trkpt>
      <trkpt lat="45.643" lon="5.40032">
        <ele>240</ele>
        <time>2022-09-06T05:25:17.416Z</time>
      </trkpt>
      <trkpt lat="45.64298" lon="5.40041">
        <ele>240</ele>
        <time>2022-09-06T05:25:18.416Z</time>
      </trkpt>
      <trkpt lat="45.64296" lon="5.40052">
        <ele>240</ele>
        <time>2022-09-06T05:25:19.416Z</time>
      </trkpt>
      <trkpt lat="45.64294" lon="5.40061">
        <ele>240</ele>
        <time>2022-09-06T05:25:20.416Z</time>
      </trkpt>
      <trkpt lat="45.64293" lon="5.40069">
        <ele>240</ele>
        <time>2022-09-06T05:25:21.416Z</time>
      </trkpt>
      <trkpt lat="45.64291" lon="5.40076">
        <ele>239</ele>
        <time>2022-09-06T05:25:22.416Z</time>
      </trkpt>
      <trkpt lat="45.64289" lon="5.40087">
        <ele>240</ele>
        <time>2022-09-06T05:25:23.415Z</time>
      </trkpt>
      <trkpt lat="45.64288" lon="5.40095">
        <ele>239</ele>
        <time>2022-09-06T05:25:24.416Z</time>
      </trkpt>
      <trkpt lat="45.64286" lon="5.40104">
        <ele>239</ele>
        <time>2022-09-06T05:25:25.416Z</time>
      </trkpt>
      <trkpt lat="45.64284" lon="5.40113">
        <ele>240</ele>
        <time>2022-09-06T05:25:26.416Z</time>
      </trkpt>
      <trkpt lat="45.64283" lon="5.40122">
        <ele>240</ele>
        <time>2022-09-06T05:25:27.415Z</time>
      </trkpt>
      <trkpt lat="45.64281" lon="5.40131">
        <ele>240</ele>
        <time>2022-09-06T05:25:28.416Z</time>
      </trkpt>
      <trkpt lat="45.64279" lon="5.4014">
        <ele>240</ele>
        <time>2022-09-06T05:25:29.416Z</time>
      </trkpt>
      <trkpt lat="45.64278" lon="5.40149">
        <ele>241</ele>
        <time>2022-09-06T05:25:30.415Z</time>
      </trkpt>
      <trkpt lat="45.64276" lon="5.40156">
        <ele>240</ele>
        <time>2022-09-06T05:25:31.415Z</time>
      </trkpt>
      <trkpt lat="45.64274" lon="5.40167">
        <ele>241</ele>
        <time>2022-09-06T05:25:32.416Z</time>
      </trkpt>
      <trkpt lat="45.64273" lon="5.40175">
        <ele>240</ele>
        <time>2022-09-06T05:25:33.416Z</time>
      </trkpt>
      <trkpt lat="45.6427" lon="5.40186">
        <ele>240</ele>
        <time>2022-09-06T05:25:34.416Z</time>
      </trkpt>
      <trkpt lat="45.64268" lon="5.40195">
        <ele>240</ele>
        <time>2022-09-06T05:25:35.416Z</time>
      </trkpt>
      <trkpt lat="45.64266" lon="5.40204">
        <ele>240</ele>
        <time>2022-09-06T05:25:36.416Z</time>
      </trkpt>
      <trkpt lat="45.64265" lon="5.40213">
        <ele>240</ele>
        <time>2022-09-06T05:25:37.415Z</time>
      </trkpt>
      <trkpt lat="45.64263" lon="5.40223">
        <ele>239</ele>
        <time>2022-09-06T05:25:38.416Z</time>
      </trkpt>
      <trkpt lat="45.64261" lon="5.40232">
        <ele>240</ele>
        <time>2022-09-06T05:25:39.416Z</time>
      </trkpt>
      <trkpt lat="45.64259" lon="5.40241">
        <ele>240</ele>
        <time>2022-09-06T05:25:40.416Z</time>
      </trkpt>
      <trkpt lat="45.64258" lon="5.40249">
        <ele>241</ele>
        <time>2022-09-06T05:25:41.416Z</time>
      </trkpt>
      <trkpt lat="45.64255" lon="5.40261">
        <ele>241</ele>
        <time>2022-09-06T05:25:42.416Z</time>
      </trkpt>
      <trkpt lat="45.64254" lon="5.4027">
        <ele>242</ele>
        <time>2022-09-06T05:25:43.416Z</time>
      </trkpt>
      <trkpt lat="45.64252" lon="5.4028">
        <ele>242</ele>
        <time>2022-09-06T05:25:44.415Z</time>
      </trkpt>
      <trkpt lat="45.6425" lon="5.40289">
        <ele>242</ele>
        <time>2022-09-06T05:25:45.416Z</time>
      </trkpt>
      <trkpt lat="45.64248" lon="5.40298">
        <ele>242</ele>
        <time>2022-09-06T05:25:46.416Z</time>
      </trkpt>
      <trkpt lat="45.64246" lon="5.40308">
        <ele>242</ele>
        <time>2022-09-06T05:25:47.416Z</time>
      </trkpt>
      <trkpt lat="45.64244" lon="5.40318">
        <ele>243</ele>
        <time>2022-09-06T05:25:48.416Z</time>
      </trkpt>
      <trkpt lat="45.64242" lon="5.40328">
        <ele>243</ele>
        <time>2022-09-06T05:25:49.416Z</time>
      </trkpt>
      <trkpt lat="45.6424" lon="5.40337">
        <ele>243</ele>
        <time>2022-09-06T05:25:50.416Z</time>
      </trkpt>
      <trkpt lat="45.64239" lon="5.40345">
        <ele>243</ele>
        <time>2022-09-06T05:25:51.416Z</time>
      </trkpt>
      <trkpt lat="45.64236" lon="5.40357">
        <ele>244</ele>
        <time>2022-09-06T05:25:52.416Z</time>
      </trkpt>
      <trkpt lat="45.64234" lon="5.40367">
        <ele>244</ele>
        <time>2022-09-06T05:25:53.415Z</time>
      </trkpt>
      <trkpt lat="45.64232" lon="5.40377">
        <ele>244</ele>
        <time>2022-09-06T05:25:54.416Z</time>
      </trkpt>
      <trkpt lat="45.64231" lon="5.40387">
        <ele>244</ele>
        <time>2022-09-06T05:25:55.416Z</time>
      </trkpt>
      <trkpt lat="45.64228" lon="5.40397">
        <ele>243</ele>
        <time>2022-09-06T05:25:56.416Z</time>
      </trkpt>
      <trkpt lat="45.64226" lon="5.40407">
        <ele>243</ele>
        <time>2022-09-06T05:25:57.416Z</time>
      </trkpt>
      <trkpt lat="45.64225" lon="5.40417">
        <ele>242</ele>
        <time>2022-09-06T05:25:58.416Z</time>
      </trkpt>
      <trkpt lat="45.64222" lon="5.40426">
        <ele>241</ele>
        <time>2022-09-06T05:25:59.416Z</time>
      </trkpt>
      <trkpt lat="45.64221" lon="5.40434">
        <ele>241</ele>
        <time>2022-09-06T05:26:00.415Z</time>
      </trkpt>
      <trkpt lat="45.64218" lon="5.40446">
        <ele>241</ele>
        <time>2022-09-06T05:26:01.416Z</time>
      </trkpt>
      <trkpt lat="45.64216" lon="5.40456">
        <ele>240</ele>
        <time>2022-09-06T05:26:02.416Z</time>
      </trkpt>
      <trkpt lat="45.64214" lon="5.40466">
        <ele>240</ele>
        <time>2022-09-06T05:26:03.415Z</time>
      </trkpt>
      <trkpt lat="45.64213" lon="5.40473">
        <ele>240</ele>
        <time>2022-09-06T05:26:04.415Z</time>
      </trkpt>
      <trkpt lat="45.6421" lon="5.40485">
        <ele>240</ele>
        <time>2022-09-06T05:26:05.416Z</time>
      </trkpt>
      <trkpt lat="45.64209" lon="5.40495">
        <ele>240</ele>
        <time>2022-09-06T05:26:06.416Z</time>
      </trkpt>
      <trkpt lat="45.64207" lon="5.40504">
        <ele>240</ele>
        <time>2022-09-06T05:26:07.415Z</time>
      </trkpt>
      <trkpt lat="45.64205" lon="5.40514">
        <ele>240</ele>
        <time>2022-09-06T05:26:08.416Z</time>
      </trkpt>
      <trkpt lat="45.64203" lon="5.40523">
        <ele>241</ele>
        <time>2022-09-06T05:26:09.415Z</time>
      </trkpt>
      <trkpt lat="45.64202" lon="5.40531">
        <ele>241</ele>
        <time>2022-09-06T05:26:10.416Z</time>
      </trkpt>
      <trkpt lat="45.642" lon="5.40542">
        <ele>241</ele>
        <time>2022-09-06T05:26:11.416Z</time>
      </trkpt>
      <trkpt lat="45.64198" lon="5.40551">
        <ele>241</ele>
        <time>2022-09-06T05:26:12.416Z</time>
      </trkpt>
      <trkpt lat="45.64196" lon="5.4056">
        <ele>241</ele>
        <time>2022-09-06T05:26:13.416Z</time>
      </trkpt>
      <trkpt lat="45.64194" lon="5.40568">
        <ele>241</ele>
        <time>2022-09-06T05:26:14.416Z</time>
      </trkpt>
      <trkpt lat="45.64192" lon="5.40577">
        <ele>241</ele>
        <time>2022-09-06T05:26:15.416Z</time>
      </trkpt>
      <trkpt lat="45.6419" lon="5.40589">
        <ele>241</ele>
        <time>2022-09-06T05:26:16.416Z</time>
      </trkpt>
      <trkpt lat="45.64188" lon="5.40599">
        <ele>242</ele>
        <time>2022-09-06T05:26:17.415Z</time>
      </trkpt>
      <trkpt lat="45.64186" lon="5.40609">
        <ele>242</ele>
        <time>2022-09-06T05:26:18.416Z</time>
      </trkpt>
      <trkpt lat="45.64185" lon="5.40617">
        <ele>243</ele>
        <time>2022-09-06T05:26:19.415Z</time>
      </trkpt>
      <trkpt lat="45.64183" lon="5.4063">
        <ele>243</ele>
        <time>2022-09-06T05:26:20.416Z</time>
      </trkpt>
      <trkpt lat="45.64181" lon="5.4064">
        <ele>244</ele>
        <time>2022-09-06T05:26:21.416Z</time>
      </trkpt>
      <trkpt lat="45.64178" lon="5.40651">
        <ele>243</ele>
        <time>2022-09-06T05:26:22.416Z</time>
      </trkpt>
      <trkpt lat="45.64176" lon="5.40661">
        <ele>243</ele>
        <time>2022-09-06T05:26:23.416Z</time>
      </trkpt>
      <trkpt lat="45.64175" lon="5.40672">
        <ele>243</ele>
        <time>2022-09-06T05:26:24.416Z</time>
      </trkpt>
      <trkpt lat="45.64172" lon="5.40683">
        <ele>243</ele>
        <time>2022-09-06T05:26:25.416Z</time>
      </trkpt>
      <trkpt lat="45.6417" lon="5.40693">
        <ele>243</ele>
        <time>2022-09-06T05:26:26.416Z</time>
      </trkpt>
      <trkpt lat="45.64168" lon="5.40704">
        <ele>244</ele>
        <time>2022-09-06T05:26:27.415Z</time>
      </trkpt>
      <trkpt lat="45.64166" lon="5.40713">
        <ele>244</ele>
        <time>2022-09-06T05:26:28.416Z</time>
      </trkpt>
      <trkpt lat="45.64164" lon="5.40726">
        <ele>244</ele>
        <time>2022-09-06T05:26:29.415Z</time>
      </trkpt>
      <trkpt lat="45.64162" lon="5.40737">
        <ele>244</ele>
        <time>2022-09-06T05:26:30.415Z</time>
      </trkpt>
      <trkpt lat="45.64159" lon="5.40748">
        <ele>244</ele>
        <time>2022-09-06T05:26:31.416Z</time>
      </trkpt>
      <trkpt lat="45.64158" lon="5.40757">
        <ele>244</ele>
        <time>2022-09-06T05:26:32.416Z</time>
      </trkpt>
      <trkpt lat="45.64156" lon="5.40768">
        <ele>244</ele>
        <time>2022-09-06T05:26:33.415Z</time>
      </trkpt>
      <trkpt lat="45.64153" lon="5.40781">
        <ele>244</ele>
        <time>2022-09-06T05:26:34.416Z</time>
      </trkpt>
      <trkpt lat="45.64151" lon="5.40791">
        <ele>244</ele>
        <time>2022-09-06T05:26:35.416Z</time>
      </trkpt>
      <trkpt lat="45.64149" lon="5.40802">
        <ele>245</ele>
        <time>2022-09-06T05:26:36.415Z</time>
      </trkpt>
      <trkpt lat="45.64148" lon="5.4081">
        <ele>245</ele>
        <time>2022-09-06T05:26:37.416Z</time>
      </trkpt>
      <trkpt lat="45.64146" lon="5.40821">
        <ele>246</ele>
        <time>2022-09-06T05:26:38.415Z</time>
      </trkpt>
      <trkpt lat="45.64143" lon="5.40834">
        <ele>246</ele>
        <time>2022-09-06T05:26:39.416Z</time>
      </trkpt>
      <trkpt lat="45.64141" lon="5.40844">
        <ele>246</ele>
        <time>2022-09-06T05:26:40.415Z</time>
      </trkpt>
      <trkpt lat="45.64139" lon="5.40855">
        <ele>246</ele>
        <time>2022-09-06T05:26:41.416Z</time>
      </trkpt>
      <trkpt lat="45.64137" lon="5.40865">
        <ele>246</ele>
        <time>2022-09-06T05:26:42.415Z</time>
      </trkpt>
      <trkpt lat="45.64135" lon="5.40875">
        <ele>246</ele>
        <time>2022-09-06T05:26:43.416Z</time>
      </trkpt>
      <trkpt lat="45.64133" lon="5.40886">
        <ele>246</ele>
        <time>2022-09-06T05:26:44.416Z</time>
      </trkpt>
      <trkpt lat="45.64131" lon="5.40896">
        <ele>246</ele>
        <time>2022-09-06T05:26:45.416Z</time>
      </trkpt>
      <trkpt lat="45.64129" lon="5.40904">
        <ele>245</ele>
        <time>2022-09-06T05:26:46.416Z</time>
      </trkpt>
      <trkpt lat="45.64127" lon="5.40914">
        <ele>245</ele>
        <time>2022-09-06T05:26:47.416Z</time>
      </trkpt>
      <trkpt lat="45.64125" lon="5.40926">
        <ele>245</ele>
        <time>2022-09-06T05:26:48.416Z</time>
      </trkpt>
      <trkpt lat="45.64122" lon="5.40936">
        <ele>244</ele>
        <time>2022-09-06T05:26:49.415Z</time>
      </trkpt>
      <trkpt lat="45.64121" lon="5.40947">
        <ele>244</ele>
        <time>2022-09-06T05:26:50.416Z</time>
      </trkpt>
      <trkpt lat="45.64119" lon="5.40955">
        <ele>244</ele>
        <time>2022-09-06T05:26:51.416Z</time>
      </trkpt>
      <trkpt lat="45.64117" lon="5.40965">
        <ele>243</ele>
        <time>2022-09-06T05:26:52.415Z</time>
      </trkpt>
      <trkpt lat="45.64114" lon="5.40977">
        <ele>243</ele>
        <time>2022-09-06T05:26:53.415Z</time>
      </trkpt>
      <trkpt lat="45.64112" lon="5.40988">
        <ele>243</ele>
        <time>2022-09-06T05:26:54.416Z</time>
      </trkpt>
      <trkpt lat="45.6411" lon="5.40998">
        <ele>243</ele>
        <time>2022-09-06T05:26:55.415Z</time>
      </trkpt>
      <trkpt lat="45.64109" lon="5.41006">
        <ele>243</ele>
        <time>2022-09-06T05:26:56.416Z</time>
      </trkpt>
      <trkpt lat="45.64107" lon="5.41016">
        <ele>243</ele>
        <time>2022-09-06T05:26:57.415Z</time>
      </trkpt>
      <trkpt lat="45.64105" lon="5.41028">
        <ele>243</ele>
        <time>2022-09-06T05:26:58.416Z</time>
      </trkpt>
      <trkpt lat="45.64103" lon="5.41039">
        <ele>244</ele>
        <time>2022-09-06T05:26:59.416Z</time>
      </trkpt>
      <trkpt lat="45.64101" lon="5.41049">
        <ele>244</ele>
        <time>2022-09-06T05:27:00.416Z</time>
      </trkpt>
      <trkpt lat="45.64099" lon="5.41057">
        <ele>244</ele>
        <time>2022-09-06T05:27:01.415Z</time>
      </trkpt>
      <trkpt lat="45.64097" lon="5.4107">
        <ele>244</ele>
        <time>2022-09-06T05:27:02.416Z</time>
      </trkpt>
      <trkpt lat="45.64095" lon="5.4108">
        <ele>245</ele>
        <time>2022-09-06T05:27:03.415Z</time>
      </trkpt>
      <trkpt lat="45.64093" lon="5.4109">
        <ele>245</ele>
        <time>2022-09-06T05:27:04.416Z</time>
      </trkpt>
      <trkpt lat="45.64091" lon="5.411">
        <ele>244</ele>
        <time>2022-09-06T05:27:05.416Z</time>
      </trkpt>
      <trkpt lat="45.64089" lon="5.41109">
        <ele>244</ele>
        <time>2022-09-06T05:27:06.415Z</time>
      </trkpt>
      <trkpt lat="45.64088" lon="5.41117">
        <ele>244</ele>
        <time>2022-09-06T05:27:07.415Z</time>
      </trkpt>
      <trkpt lat="45.64085" lon="5.41129">
        <ele>244</ele>
        <time>2022-09-06T05:27:08.416Z</time>
      </trkpt>
      <trkpt lat="45.64083" lon="5.41139">
        <ele>244</ele>
        <time>2022-09-06T05:27:09.415Z</time>
      </trkpt>
      <trkpt lat="45.64082" lon="5.41147">
        <ele>244</ele>
        <time>2022-09-06T05:27:10.416Z</time>
      </trkpt>
      <trkpt lat="45.6408" lon="5.41157">
        <ele>245</ele>
        <time>2022-09-06T05:27:11.415Z</time>
      </trkpt>
      <trkpt lat="45.64077" lon="5.41168">
        <ele>245</ele>
        <time>2022-09-06T05:27:12.416Z</time>
      </trkpt>
      <trkpt lat="45.64076" lon="5.41178">
        <ele>245</ele>
        <time>2022-09-06T05:27:13.415Z</time>
      </trkpt>
      <trkpt lat="45.64074" lon="5.41188">
        <ele>244</ele>
        <time>2022-09-06T05:27:14.416Z</time>
      </trkpt>
      <trkpt lat="45.64072" lon="5.41196">
        <ele>244</ele>
        <time>2022-09-06T05:27:15.416Z</time>
      </trkpt>
      <trkpt lat="45.6407" lon="5.41206">
        <ele>244</ele>
        <time>2022-09-06T05:27:16.416Z</time>
      </trkpt>
      <trkpt lat="45.64068" lon="5.41217">
        <ele>244</ele>
        <time>2022-09-06T05:27:17.415Z</time>
      </trkpt>
      <trkpt lat="45.64066" lon="5.41227">
        <ele>244</ele>
        <time>2022-09-06T05:27:18.416Z</time>
      </trkpt>
      <trkpt lat="45.64064" lon="5.41237">
        <ele>244</ele>
        <time>2022-09-06T05:27:19.415Z</time>
      </trkpt>
      <trkpt lat="45.64063" lon="5.41245">
        <ele>244</ele>
        <time>2022-09-06T05:27:20.416Z</time>
      </trkpt>
      <trkpt lat="45.64061" lon="5.41254">
        <ele>244</ele>
        <time>2022-09-06T05:27:21.416Z</time>
      </trkpt>
      <trkpt lat="45.64059" lon="5.41266">
        <ele>243</ele>
        <time>2022-09-06T05:27:22.416Z</time>
      </trkpt>
      <trkpt lat="45.64057" lon="5.41276">
        <ele>243</ele>
        <time>2022-09-06T05:27:23.416Z</time>
      </trkpt>
      <trkpt lat="45.64055" lon="5.41286">
        <ele>243</ele>
        <time>2022-09-06T05:27:24.415Z</time>
      </trkpt>
      <trkpt lat="45.64053" lon="5.41295">
        <ele>242</ele>
        <time>2022-09-06T05:27:25.415Z</time>
      </trkpt>
      <trkpt lat="45.64051" lon="5.41305">
        <ele>242</ele>
        <time>2022-09-06T05:27:26.416Z</time>
      </trkpt>
      <trkpt lat="45.64049" lon="5.41315">
        <ele>242</ele>
        <time>2022-09-06T05:27:27.416Z</time>
      </trkpt>
      <trkpt lat="45.64048" lon="5.41324">
        <ele>242</ele>
        <time>2022-09-06T05:27:28.415Z</time>
      </trkpt>
      <trkpt lat="45.64046" lon="5.41332">
        <ele>242</ele>
        <time>2022-09-06T05:27:29.416Z</time>
      </trkpt>
      <trkpt lat="45.64044" lon="5.41342">
        <ele>242</ele>
        <time>2022-09-06T05:27:30.416Z</time>
      </trkpt>
      <trkpt lat="45.64042" lon="5.41353">
        <ele>242</ele>
        <time>2022-09-06T05:27:31.415Z</time>
      </trkpt>
      <trkpt lat="45.6404" lon="5.41363">
        <ele>241</ele>
        <time>2022-09-06T05:27:32.416Z</time>
      </trkpt>
      <trkpt lat="45.64038" lon="5.41372">
        <ele>240</ele>
        <time>2022-09-06T05:27:33.415Z</time>
      </trkpt>
      <trkpt lat="45.64036" lon="5.4138">
        <ele>239</ele>
        <time>2022-09-06T05:27:34.416Z</time>
      </trkpt>
      <trkpt lat="45.64034" lon="5.41391">
        <ele>239</ele>
        <time>2022-09-06T05:27:35.416Z</time>
      </trkpt>
      <trkpt lat="45.64032" lon="5.41399">
        <ele>239</ele>
        <time>2022-09-06T05:27:36.415Z</time>
      </trkpt>
      <trkpt lat="45.6403" lon="5.41409">
        <ele>239</ele>
        <time>2022-09-06T05:27:37.416Z</time>
      </trkpt>
      <trkpt lat="45.64029" lon="5.41418">
        <ele>239</ele>
        <time>2022-09-06T05:27:38.416Z</time>
      </trkpt>
      <trkpt lat="45.64027" lon="5.41428">
        <ele>239</ele>
        <time>2022-09-06T05:27:39.416Z</time>
      </trkpt>
      <trkpt lat="45.64025" lon="5.41438">
        <ele>240</ele>
        <time>2022-09-06T05:27:40.416Z</time>
      </trkpt>
      <trkpt lat="45.64023" lon="5.41448">
        <ele>240</ele>
        <time>2022-09-06T05:27:41.416Z</time>
      </trkpt>
      <trkpt lat="45.64021" lon="5.41459">
        <ele>240</ele>
        <time>2022-09-06T05:27:42.415Z</time>
      </trkpt>
      <trkpt lat="45.64019" lon="5.41467">
        <ele>241</ele>
        <time>2022-09-06T05:27:43.415Z</time>
      </trkpt>
      <trkpt lat="45.64017" lon="5.41477">
        <ele>242</ele>
        <time>2022-09-06T05:27:44.416Z</time>
      </trkpt>
      <trkpt lat="45.64016" lon="5.41487">
        <ele>242</ele>
        <time>2022-09-06T05:27:45.415Z</time>
      </trkpt>
      <trkpt lat="45.64013" lon="5.41499">
        <ele>243</ele>
        <time>2022-09-06T05:27:46.416Z</time>
      </trkpt>
      <trkpt lat="45.64011" lon="5.41509">
        <ele>243</ele>
        <time>2022-09-06T05:27:47.415Z</time>
      </trkpt>
      <trkpt lat="45.6401" lon="5.41517">
        <ele>243</ele>
        <time>2022-09-06T05:27:48.415Z</time>
      </trkpt>
      <trkpt lat="45.64008" lon="5.41527">
        <ele>244</ele>
        <time>2022-09-06T05:27:49.416Z</time>
      </trkpt>
      <trkpt lat="45.64005" lon="5.41539">
        <ele>244</ele>
        <time>2022-09-06T05:27:50.416Z</time>
      </trkpt>
      <trkpt lat="45.64003" lon="5.41549">
        <ele>245</ele>
        <time>2022-09-06T05:27:51.416Z</time>
      </trkpt>
      <trkpt lat="45.64001" lon="5.41559">
        <ele>245</ele>
        <time>2022-09-06T05:27:52.415Z</time>
      </trkpt>
      <trkpt lat="45.64" lon="5.41567">
        <ele>246</ele>
        <time>2022-09-06T05:27:53.416Z</time>
      </trkpt>
      <trkpt lat="45.63998" lon="5.41578">
        <ele>246</ele>
        <time>2022-09-06T05:27:54.416Z</time>
      </trkpt>
      <trkpt lat="45.63996" lon="5.4159">
        <ele>246</ele>
        <time>2022-09-06T05:27:55.416Z</time>
      </trkpt>
      <trkpt lat="45.63994" lon="5.416">
        <ele>246</ele>
        <time>2022-09-06T05:27:56.416Z</time>
      </trkpt>
      <trkpt lat="45.63992" lon="5.4161">
        <ele>246</ele>
        <time>2022-09-06T05:27:57.415Z</time>
      </trkpt>
      <trkpt lat="45.6399" lon="5.41618">
        <ele>246</ele>
        <time>2022-09-06T05:27:58.415Z</time>
      </trkpt>
      <trkpt lat="45.63989" lon="5.41628">
        <ele>246</ele>
        <time>2022-09-06T05:27:59.416Z</time>
      </trkpt>
      <trkpt lat="45.63987" lon="5.41641">
        <ele>246</ele>
        <time>2022-09-06T05:28:00.416Z</time>
      </trkpt>
      <trkpt lat="45.63986" lon="5.41651">
        <ele>246</ele>
        <time>2022-09-06T05:28:01.416Z</time>
      </trkpt>
      <trkpt lat="45.63985" lon="5.41661">
        <ele>245</ele>
        <time>2022-09-06T05:28:02.416Z</time>
      </trkpt>
      <trkpt lat="45.63985" lon="5.41669">
        <ele>245</ele>
        <time>2022-09-06T05:28:03.415Z</time>
      </trkpt>
      <trkpt lat="45.63985" lon="5.41681">
        <ele>245</ele>
        <time>2022-09-06T05:28:04.416Z</time>
      </trkpt>
      <trkpt lat="45.63985" lon="5.41692">
        <ele>245</ele>
        <time>2022-09-06T05:28:05.416Z</time>
      </trkpt>
      <trkpt lat="45.63985" lon="5.41702">
        <ele>245</ele>
        <time>2022-09-06T05:28:06.415Z</time>
      </trkpt>
      <trkpt lat="45.63986" lon="5.41712">
        <ele>245</ele>
        <time>2022-09-06T05:28:07.416Z</time>
      </trkpt>
      <trkpt lat="45.63986" lon="5.41721">
        <ele>245</ele>
        <time>2022-09-06T05:28:08.415Z</time>
      </trkpt>
      <trkpt lat="45.63987" lon="5.41731">
        <ele>245</ele>
        <time>2022-09-06T05:28:09.416Z</time>
      </trkpt>
      <trkpt lat="45.63989" lon="5.41744">
        <ele>246</ele>
        <time>2022-09-06T05:28:10.416Z</time>
      </trkpt>
      <trkpt lat="45.6399" lon="5.41752">
        <ele>246</ele>
        <time>2022-09-06T05:28:11.416Z</time>
      </trkpt>
      <trkpt lat="45.63991" lon="5.41763">
        <ele>245</ele>
        <time>2022-09-06T05:28:12.416Z</time>
      </trkpt>
      <trkpt lat="45.63992" lon="5.41773">
        <ele>245</ele>
        <time>2022-09-06T05:28:13.416Z</time>
      </trkpt>
      <trkpt lat="45.63993" lon="5.41783">
        <ele>245</ele>
        <time>2022-09-06T05:28:14.416Z</time>
      </trkpt>
      <trkpt lat="45.63994" lon="5.41793">
        <ele>244</ele>
        <time>2022-09-06T05:28:15.416Z</time>
      </trkpt>
      <trkpt lat="45.63996" lon="5.41806">
        <ele>244</ele>
        <time>2022-09-06T05:28:16.416Z</time>
      </trkpt>
      <trkpt lat="45.63997" lon="5.41816">
        <ele>244</ele>
        <time>2022-09-06T05:28:17.416Z</time>
      </trkpt>
      <trkpt lat="45.63998" lon="5.41827">
        <ele>244</ele>
        <time>2022-09-06T05:28:18.416Z</time>
      </trkpt>
      <trkpt lat="45.64" lon="5.41837">
        <ele>244</ele>
        <time>2022-09-06T05:28:19.415Z</time>
      </trkpt>
      <trkpt lat="45.64001" lon="5.41847">
        <ele>245</ele>
        <time>2022-09-06T05:28:20.416Z</time>
      </trkpt>
      <trkpt lat="45.64002" lon="5.41857">
        <ele>245</ele>
        <time>2022-09-06T05:28:21.415Z</time>
      </trkpt>
      <trkpt lat="45.64004" lon="5.41867">
        <ele>245</ele>
        <time>2022-09-06T05:28:22.416Z</time>
      </trkpt>
      <trkpt lat="45.64005" lon="5.41877">
        <ele>245</ele>
        <time>2022-09-06T05:28:23.415Z</time>
      </trkpt>
      <trkpt lat="45.64007" lon="5.41887">
        <ele>246</ele>
        <time>2022-09-06T05:28:24.416Z</time>
      </trkpt>
      <trkpt lat="45.64008" lon="5.41897">
        <ele>246</ele>
        <time>2022-09-06T05:28:25.416Z</time>
      </trkpt>
      <trkpt lat="45.64009" lon="5.41907">
        <ele>246</ele>
        <time>2022-09-06T05:28:26.416Z</time>
      </trkpt>
      <trkpt lat="45.6401" lon="5.41917">
        <ele>245</ele>
        <time>2022-09-06T05:28:27.416Z</time>
      </trkpt>
      <trkpt lat="45.64012" lon="5.41927">
        <ele>245</ele>
        <time>2022-09-06T05:28:28.416Z</time>
      </trkpt>
      <trkpt lat="45.64013" lon="5.41937">
        <ele>245</ele>
        <time>2022-09-06T05:28:29.416Z</time>
      </trkpt>
      <trkpt lat="45.64014" lon="5.41947">
        <ele>245</ele>
        <time>2022-09-06T05:28:30.416Z</time>
      </trkpt>
      <trkpt lat="45.64015" lon="5.41955">
        <ele>244</ele>
        <time>2022-09-06T05:28:31.416Z</time>
      </trkpt>
      <trkpt lat="45.64016" lon="5.41965">
        <ele>244</ele>
        <time>2022-09-06T05:28:32.415Z</time>
      </trkpt>
      <trkpt lat="45.64018" lon="5.41978">
        <ele>244</ele>
        <time>2022-09-06T05:28:33.416Z</time>
      </trkpt>
      <trkpt lat="45.64019" lon="5.41988">
        <ele>244</ele>
        <time>2022-09-06T05:28:34.416Z</time>
      </trkpt>
      <trkpt lat="45.6402" lon="5.41998">
        <ele>244</ele>
        <time>2022-09-06T05:28:35.415Z</time>
      </trkpt>
      <trkpt lat="45.64021" lon="5.42008">
        <ele>243</ele>
        <time>2022-09-06T05:28:36.416Z</time>
      </trkpt>
      <trkpt lat="45.64022" lon="5.42017">
        <ele>243</ele>
        <time>2022-09-06T05:28:37.415Z</time>
      </trkpt>
      <trkpt lat="45.64024" lon="5.42029">
        <ele>244</ele>
        <time>2022-09-06T05:28:38.416Z</time>
      </trkpt>
      <trkpt lat="45.64025" lon="5.42039">
        <ele>244</ele>
        <time>2022-09-06T05:28:39.416Z</time>
      </trkpt>
      <trkpt lat="45.64027" lon="5.42049">
        <ele>244</ele>
        <time>2022-09-06T05:28:40.416Z</time>
      </trkpt>
      <trkpt lat="45.64029" lon="5.42057">
        <ele>244</ele>
        <time>2022-09-06T05:28:41.416Z</time>
      </trkpt>
      <trkpt lat="45.64031" lon="5.42067">
        <ele>244</ele>
        <time>2022-09-06T05:28:42.416Z</time>
      </trkpt>
      <trkpt lat="45.64035" lon="5.42078">
        <ele>244</ele>
        <time>2022-09-06T05:28:43.416Z</time>
      </trkpt>
      <trkpt lat="45.6404" lon="5.42086">
        <ele>244</ele>
        <time>2022-09-06T05:28:44.416Z</time>
      </trkpt>
      <trkpt lat="45.64045" lon="5.42094">
        <ele>244</ele>
        <time>2022-09-06T05:28:45.416Z</time>
      </trkpt>
      <trkpt lat="45.64049" lon="5.421">
        <ele>244</ele>
        <time>2022-09-06T05:28:46.416Z</time>
      </trkpt>
      <trkpt lat="45.64055" lon="5.42107">
        <ele>244</ele>
        <time>2022-09-06T05:28:47.415Z</time>
      </trkpt>
      <trkpt lat="45.64061" lon="5.42115">
        <ele>243</ele>
        <time>2022-09-06T05:28:48.415Z</time>
      </trkpt>
      <trkpt lat="45.64066" lon="5.4212">
        <ele>243</ele>
        <time>2022-09-06T05:28:49.416Z</time>
      </trkpt>
      <trkpt lat="45.64074" lon="5.42128">
        <ele>243</ele>
        <time>2022-09-06T05:28:50.416Z</time>
      </trkpt>
      <trkpt lat="45.64079" lon="5.42133">
        <ele>243</ele>
        <time>2022-09-06T05:28:51.415Z</time>
      </trkpt>
      <trkpt lat="45.64086" lon="5.4214">
        <ele>244</ele>
        <time>2022-09-06T05:28:52.416Z</time>
      </trkpt>
      <trkpt lat="45.64092" lon="5.42146">
        <ele>244</ele>
        <time>2022-09-06T05:28:53.416Z</time>
      </trkpt>
      <trkpt lat="45.64098" lon="5.42152">
        <ele>244</ele>
        <time>2022-09-06T05:28:54.415Z</time>
      </trkpt>
      <trkpt lat="45.64104" lon="5.42158">
        <ele>244</ele>
        <time>2022-09-06T05:28:55.416Z</time>
      </trkpt>
      <trkpt lat="45.64109" lon="5.42164">
        <ele>244</ele>
        <time>2022-09-06T05:28:56.415Z</time>
      </trkpt>
      <trkpt lat="45.64115" lon="5.4217">
        <ele>244</ele>
        <time>2022-09-06T05:28:57.416Z</time>
      </trkpt>
      <trkpt lat="45.6412" lon="5.42177">
        <ele>244</ele>
        <time>2022-09-06T05:28:58.415Z</time>
      </trkpt>
      <trkpt lat="45.64125" lon="5.42184">
        <ele>244</ele>
        <time>2022-09-06T05:28:59.416Z</time>
      </trkpt>
      <trkpt lat="45.64129" lon="5.42191">
        <ele>244</ele>
        <time>2022-09-06T05:29:00.416Z</time>
      </trkpt>
      <trkpt lat="45.64134" lon="5.42198">
        <ele>244</ele>
        <time>2022-09-06T05:29:01.416Z</time>
      </trkpt>
      <trkpt lat="45.64139" lon="5.42208">
        <ele>244</ele>
        <time>2022-09-06T05:29:02.415Z</time>
      </trkpt>
      <trkpt lat="45.64142" lon="5.42216">
        <ele>244</ele>
        <time>2022-09-06T05:29:03.416Z</time>
      </trkpt>
      <trkpt lat="45.64146" lon="5.42225">
        <ele>243</ele>
        <time>2022-09-06T05:29:04.416Z</time>
      </trkpt>
      <trkpt lat="45.64149" lon="5.42234">
        <ele>243</ele>
        <time>2022-09-06T05:29:05.416Z</time>
      </trkpt>
      <trkpt lat="45.64152" lon="5.42243">
        <ele>243</ele>
        <time>2022-09-06T05:29:06.416Z</time>
      </trkpt>
      <trkpt lat="45.64155" lon="5.42253">
        <ele>243</ele>
        <time>2022-09-06T05:29:07.415Z</time>
      </trkpt>
      <trkpt lat="45.64157" lon="5.42262">
        <ele>244</ele>
        <time>2022-09-06T05:29:08.415Z</time>
      </trkpt>
      <trkpt lat="45.64159" lon="5.4227">
        <ele>244</ele>
        <time>2022-09-06T05:29:09.416Z</time>
      </trkpt>
      <trkpt lat="45.64161" lon="5.42279">
        <ele>244</ele>
        <time>2022-09-06T05:29:10.416Z</time>
      </trkpt>
      <trkpt lat="45.64164" lon="5.42288">
        <ele>245</ele>
        <time>2022-09-06T05:29:11.415Z</time>
      </trkpt>
      <trkpt lat="45.64166" lon="5.42297">
        <ele>245</ele>
        <time>2022-09-06T05:29:12.415Z</time>
      </trkpt>
      <trkpt lat="45.64168" lon="5.42307">
        <ele>245</ele>
        <time>2022-09-06T05:29:13.416Z</time>
      </trkpt>
      <trkpt lat="45.6417" lon="5.42316">
        <ele>245</ele>
        <time>2022-09-06T05:29:14.416Z</time>
      </trkpt>
      <trkpt lat="45.64173" lon="5.42326">
        <ele>245</ele>
        <time>2022-09-06T05:29:15.416Z</time>
      </trkpt>
      <trkpt lat="45.64175" lon="5.42335">
        <ele>245</ele>
        <time>2022-09-06T05:29:16.416Z</time>
      </trkpt>
      <trkpt lat="45.64178" lon="5.42345">
        <ele>245</ele>
        <time>2022-09-06T05:29:17.415Z</time>
      </trkpt>
      <trkpt lat="45.6418" lon="5.42355">
        <ele>245</ele>
        <time>2022-09-06T05:29:18.416Z</time>
      </trkpt>
      <trkpt lat="45.64183" lon="5.42366">
        <ele>245</ele>
        <time>2022-09-06T05:29:19.416Z</time>
      </trkpt>
      <trkpt lat="45.64185" lon="5.42374">
        <ele>245</ele>
        <time>2022-09-06T05:29:20.416Z</time>
      </trkpt>
      <trkpt lat="45.64187" lon="5.42383">
        <ele>245</ele>
        <time>2022-09-06T05:29:21.416Z</time>
      </trkpt>
      <trkpt lat="45.6419" lon="5.42393">
        <ele>245</ele>
        <time>2022-09-06T05:29:22.416Z</time>
      </trkpt>
      <trkpt lat="45.64193" lon="5.42404">
        <ele>246</ele>
        <time>2022-09-06T05:29:23.416Z</time>
      </trkpt>
      <trkpt lat="45.64195" lon="5.42414">
        <ele>247</ele>
        <time>2022-09-06T05:29:24.416Z</time>
      </trkpt>
      <trkpt lat="45.64198" lon="5.42424">
        <ele>247</ele>
        <time>2022-09-06T05:29:25.416Z</time>
      </trkpt>
      <trkpt lat="45.642" lon="5.42433">
        <ele>247</ele>
        <time>2022-09-06T05:29:26.416Z</time>
      </trkpt>
      <trkpt lat="45.64202" lon="5.42443">
        <ele>247</ele>
        <time>2022-09-06T05:29:27.416Z</time>
      </trkpt>
      <trkpt lat="45.64204" lon="5.42453">
        <ele>248</ele>
        <time>2022-09-06T05:29:28.415Z</time>
      </trkpt>
      <trkpt lat="45.64207" lon="5.42463">
        <ele>248</ele>
        <time>2022-09-06T05:29:29.416Z</time>
      </trkpt>
      <trkpt lat="45.64209" lon="5.42472">
        <ele>248</ele>
        <time>2022-09-06T05:29:30.415Z</time>
      </trkpt>
      <trkpt lat="45.64211" lon="5.42482">
        <ele>249</ele>
        <time>2022-09-06T05:29:31.416Z</time>
      </trkpt>
      <trkpt lat="45.64213" lon="5.42492">
        <ele>249</ele>
        <time>2022-09-06T05:29:32.416Z</time>
      </trkpt>
      <trkpt lat="45.64215" lon="5.42502">
        <ele>249</ele>
        <time>2022-09-06T05:29:33.416Z</time>
      </trkpt>
      <trkpt lat="45.64218" lon="5.42512">
        <ele>249</ele>
        <time>2022-09-06T05:29:34.416Z</time>
      </trkpt>
      <trkpt lat="45.6422" lon="5.42522">
        <ele>249</ele>
        <time>2022-09-06T05:29:35.416Z</time>
      </trkpt>
      <trkpt lat="45.64223" lon="5.42532">
        <ele>249</ele>
        <time>2022-09-06T05:29:36.415Z</time>
      </trkpt>
      <trkpt lat="45.64225" lon="5.42542">
        <ele>249</ele>
        <time>2022-09-06T05:29:37.416Z</time>
      </trkpt>
      <trkpt lat="45.64228" lon="5.42552">
        <ele>249</ele>
        <time>2022-09-06T05:29:38.416Z</time>
      </trkpt>
      <trkpt lat="45.64229" lon="5.42561">
        <ele>249</ele>
        <time>2022-09-06T05:29:39.416Z</time>
      </trkpt>
      <trkpt lat="45.64232" lon="5.42573">
        <ele>248</ele>
        <time>2022-09-06T05:29:40.416Z</time>
      </trkpt>
      <trkpt lat="45.64234" lon="5.42583">
        <ele>248</ele>
        <time>2022-09-06T05:29:41.416Z</time>
      </trkpt>
      <trkpt lat="45.64236" lon="5.42593">
        <ele>248</ele>
        <time>2022-09-06T05:29:42.416Z</time>
      </trkpt>
      <trkpt lat="45.64239" lon="5.42603">
        <ele>248</ele>
        <time>2022-09-06T05:29:43.416Z</time>
      </trkpt>
      <trkpt lat="45.6424" lon="5.42611">
        <ele>248</ele>
        <time>2022-09-06T05:29:44.416Z</time>
      </trkpt>
      <trkpt lat="45.64243" lon="5.42623">
        <ele>248</ele>
        <time>2022-09-06T05:29:45.416Z</time>
      </trkpt>
      <trkpt lat="45.64245" lon="5.42633">
        <ele>247</ele>
        <time>2022-09-06T05:29:46.416Z</time>
      </trkpt>
      <trkpt lat="45.64248" lon="5.42642">
        <ele>247</ele>
        <time>2022-09-06T05:29:47.415Z</time>
      </trkpt>
      <trkpt lat="45.6425" lon="5.42652">
        <ele>247</ele>
        <time>2022-09-06T05:29:48.415Z</time>
      </trkpt>
      <trkpt lat="45.64252" lon="5.4266">
        <ele>246</ele>
        <time>2022-09-06T05:29:49.415Z</time>
      </trkpt>
      <trkpt lat="45.64254" lon="5.42672">
        <ele>246</ele>
        <time>2022-09-06T05:29:50.416Z</time>
      </trkpt>
      <trkpt lat="45.64257" lon="5.42682">
        <ele>246</ele>
        <time>2022-09-06T05:29:51.416Z</time>
      </trkpt>
      <trkpt lat="45.64258" lon="5.42689">
        <ele>246</ele>
        <time>2022-09-06T05:29:52.416Z</time>
      </trkpt>
      <trkpt lat="45.64261" lon="5.42699">
        <ele>246</ele>
        <time>2022-09-06T05:29:53.416Z</time>
      </trkpt>
      <trkpt lat="45.64263" lon="5.42709">
        <ele>246</ele>
        <time>2022-09-06T05:29:54.415Z</time>
      </trkpt>
      <trkpt lat="45.64266" lon="5.42719">
        <ele>246</ele>
        <time>2022-09-06T05:29:55.416Z</time>
      </trkpt>
      <trkpt lat="45.64268" lon="5.42729">
        <ele>247</ele>
        <time>2022-09-06T05:29:56.416Z</time>
      </trkpt>
      <trkpt lat="45.6427" lon="5.42739">
        <ele>247</ele>
        <time>2022-09-06T05:29:57.416Z</time>
      </trkpt>
      <trkpt lat="45.64273" lon="5.42748">
        <ele>247</ele>
        <time>2022-09-06T05:29:58.416Z</time>
      </trkpt>
      <trkpt lat="45.64275" lon="5.4276">
        <ele>248</ele>
        <time>2022-09-06T05:29:59.415Z</time>
      </trkpt>
      <trkpt lat="45.64277" lon="5.42768">
        <ele>248</ele>
        <time>2022-09-06T05:30:00.416Z</time>
      </trkpt>
      <trkpt lat="45.6428" lon="5.42779">
        <ele>249</ele>
        <time>2022-09-06T05:30:01.416Z</time>
      </trkpt>
      <trkpt lat="45.64282" lon="5.42789">
        <ele>249</ele>
        <time>2022-09-06T05:30:02.416Z</time>
      </trkpt>
      <trkpt lat="45.64284" lon="5.42799">
        <ele>249</ele>
        <time>2022-09-06T05:30:03.416Z</time>
      </trkpt>
      <trkpt lat="45.64287" lon="5.42809">
        <ele>249</ele>
        <time>2022-09-06T05:30:04.416Z</time>
      </trkpt>
      <trkpt lat="45.64289" lon="5.42819">
        <ele>250</ele>
        <time>2022-09-06T05:30:05.415Z</time>
      </trkpt>
      <trkpt lat="45.64292" lon="5.42829">
        <ele>250</ele>
        <time>2022-09-06T05:30:06.416Z</time>
      </trkpt>
      <trkpt lat="45.64294" lon="5.4284">
        <ele>250</ele>
        <time>2022-09-06T05:30:07.416Z</time>
      </trkpt>
      <trkpt lat="45.64296" lon="5.4285">
        <ele>250</ele>
        <time>2022-09-06T05:30:08.415Z</time>
      </trkpt>
      <trkpt lat="45.64298" lon="5.4286">
        <ele>250</ele>
        <time>2022-09-06T05:30:09.415Z</time>
      </trkpt>
      <trkpt lat="45.64301" lon="5.4287">
        <ele>249</ele>
        <time>2022-09-06T05:30:10.415Z</time>
      </trkpt>
      <trkpt lat="45.64303" lon="5.4288">
        <ele>249</ele>
        <time>2022-09-06T05:30:11.415Z</time>
      </trkpt>
      <trkpt lat="45.64306" lon="5.4289">
        <ele>249</ele>
        <time>2022-09-06T05:30:12.415Z</time>
      </trkpt>
      <trkpt lat="45.64309" lon="5.429">
        <ele>249</ele>
        <time>2022-09-06T05:30:13.416Z</time>
      </trkpt>
      <trkpt lat="45.64311" lon="5.42909">
        <ele>249</ele>
        <time>2022-09-06T05:30:14.416Z</time>
      </trkpt>
      <trkpt lat="45.64313" lon="5.42919">
        <ele>248</ele>
        <time>2022-09-06T05:30:15.416Z</time>
      </trkpt>
      <trkpt lat="45.64315" lon="5.42929">
        <ele>248</ele>
        <time>2022-09-06T05:30:16.415Z</time>
      </trkpt>
      <trkpt lat="45.64318" lon="5.42939">
        <ele>248</ele>
        <time>2022-09-06T05:30:17.415Z</time>
      </trkpt>
      <trkpt lat="45.6432" lon="5.42949">
        <ele>248</ele>
        <time>2022-09-06T05:30:18.416Z</time>
      </trkpt>
      <trkpt lat="45.64322" lon="5.42959">
        <ele>248</ele>
        <time>2022-09-06T05:30:19.416Z</time>
      </trkpt>
      <trkpt lat="45.64324" lon="5.42969">
        <ele>248</ele>
        <time>2022-09-06T05:30:20.416Z</time>
      </trkpt>
      <trkpt lat="45.64327" lon="5.42978">
        <ele>248</ele>
        <time>2022-09-06T05:30:21.416Z</time>
      </trkpt>
      <trkpt lat="45.6433" lon="5.4299">
        <ele>249</ele>
        <time>2022-09-06T05:30:22.416Z</time>
      </trkpt>
      <trkpt lat="45.64331" lon="5.42998">
        <ele>249</ele>
        <time>2022-09-06T05:30:23.415Z</time>
      </trkpt>
      <trkpt lat="45.64334" lon="5.43008">
        <ele>249</ele>
        <time>2022-09-06T05:30:24.416Z</time>
      </trkpt>
      <trkpt lat="45.64336" lon="5.43018">
        <ele>249</ele>
        <time>2022-09-06T05:30:25.415Z</time>
      </trkpt>
      <trkpt lat="45.64338" lon="5.43027">
        <ele>249</ele>
        <time>2022-09-06T05:30:26.416Z</time>
      </trkpt>
      <trkpt lat="45.6434" lon="5.43037">
        <ele>249</ele>
        <time>2022-09-06T05:30:27.416Z</time>
      </trkpt>
      <trkpt lat="45.64343" lon="5.43047">
        <ele>248</ele>
        <time>2022-09-06T05:30:28.416Z</time>
      </trkpt>
      <trkpt lat="45.64345" lon="5.43057">
        <ele>248</ele>
        <time>2022-09-06T05:30:29.416Z</time>
      </trkpt>
      <trkpt lat="45.64347" lon="5.43066">
        <ele>248</ele>
        <time>2022-09-06T05:30:30.416Z</time>
      </trkpt>
      <trkpt lat="45.6435" lon="5.43076">
        <ele>248</ele>
        <time>2022-09-06T05:30:31.416Z</time>
      </trkpt>
      <trkpt lat="45.64352" lon="5.43086">
        <ele>248</ele>
        <time>2022-09-06T05:30:32.415Z</time>
      </trkpt>
      <trkpt lat="45.64355" lon="5.43096">
        <ele>248</ele>
        <time>2022-09-06T05:30:33.416Z</time>
      </trkpt>
      <trkpt lat="45.64357" lon="5.43106">
        <ele>248</ele>
        <time>2022-09-06T05:30:34.416Z</time>
      </trkpt>
      <trkpt lat="45.6436" lon="5.43116">
        <ele>248</ele>
        <time>2022-09-06T05:30:35.416Z</time>
      </trkpt>
      <trkpt lat="45.64362" lon="5.43126">
        <ele>248</ele>
        <time>2022-09-06T05:30:36.416Z</time>
      </trkpt>
      <trkpt lat="45.64364" lon="5.43136">
        <ele>248</ele>
        <time>2022-09-06T05:30:37.415Z</time>
      </trkpt>
      <trkpt lat="45.64367" lon="5.43146">
        <ele>248</ele>
        <time>2022-09-06T05:30:38.416Z</time>
      </trkpt>
      <trkpt lat="45.64369" lon="5.43156">
        <ele>247</ele>
        <time>2022-09-06T05:30:39.416Z</time>
      </trkpt>
      <trkpt lat="45.64373" lon="5.43168">
        <ele>247</ele>
        <time>2022-09-06T05:30:40.416Z</time>
      </trkpt>
      <trkpt lat="45.64375" lon="5.43176">
        <ele>247</ele>
        <time>2022-09-06T05:30:41.416Z</time>
      </trkpt>
      <trkpt lat="45.64378" lon="5.43186">
        <ele>247</ele>
        <time>2022-09-06T05:30:42.416Z</time>
      </trkpt>
      <trkpt lat="45.64382" lon="5.43196">
        <ele>247</ele>
        <time>2022-09-06T05:30:43.416Z</time>
      </trkpt>
      <trkpt lat="45.64385" lon="5.43206">
        <ele>247</ele>
        <time>2022-09-06T05:30:44.416Z</time>
      </trkpt>
      <trkpt lat="45.6439" lon="5.43218">
        <ele>247</ele>
        <time>2022-09-06T05:30:45.416Z</time>
      </trkpt>
      <trkpt lat="45.64394" lon="5.43228">
        <ele>246</ele>
        <time>2022-09-06T05:30:46.416Z</time>
      </trkpt>
      <trkpt lat="45.64398" lon="5.43238">
        <ele>246</ele>
        <time>2022-09-06T05:30:47.416Z</time>
      </trkpt>
      <trkpt lat="45.64402" lon="5.43246">
        <ele>246</ele>
        <time>2022-09-06T05:30:48.416Z</time>
      </trkpt>
      <trkpt lat="45.64406" lon="5.43257">
        <ele>246</ele>
        <time>2022-09-06T05:30:49.416Z</time>
      </trkpt>
      <trkpt lat="45.64411" lon="5.4327">
        <ele>246</ele>
        <time>2022-09-06T05:30:50.415Z</time>
      </trkpt>
      <trkpt lat="45.64415" lon="5.43278">
        <ele>246</ele>
        <time>2022-09-06T05:30:51.416Z</time>
      </trkpt>
      <trkpt lat="45.6442" lon="5.43291">
        <ele>246</ele>
        <time>2022-09-06T05:30:52.416Z</time>
      </trkpt>
      <trkpt lat="45.64424" lon="5.433">
        <ele>245</ele>
        <time>2022-09-06T05:30:53.416Z</time>
      </trkpt>
      <trkpt lat="45.64429" lon="5.43311">
        <ele>245</ele>
        <time>2022-09-06T05:30:54.416Z</time>
      </trkpt>
      <trkpt lat="45.64433" lon="5.43322">
        <ele>245</ele>
        <time>2022-09-06T05:30:55.416Z</time>
      </trkpt>
      <trkpt lat="45.64438" lon="5.43335">
        <ele>244</ele>
        <time>2022-09-06T05:30:56.416Z</time>
      </trkpt>
      <trkpt lat="45.64442" lon="5.43343">
        <ele>244</ele>
        <time>2022-09-06T05:30:57.415Z</time>
      </trkpt>
      <trkpt lat="45.64448" lon="5.43357">
        <ele>244</ele>
        <time>2022-09-06T05:30:58.415Z</time>
      </trkpt>
      <trkpt lat="45.64452" lon="5.43365">
        <ele>244</ele>
        <time>2022-09-06T05:30:59.416Z</time>
      </trkpt>
      <trkpt lat="45.64457" lon="5.43378">
        <ele>244</ele>
        <time>2022-09-06T05:31:00.416Z</time>
      </trkpt>
      <trkpt lat="45.64462" lon="5.43389">
        <ele>243</ele>
        <time>2022-09-06T05:31:01.415Z</time>
      </trkpt>
      <trkpt lat="45.64466" lon="5.434">
        <ele>242</ele>
        <time>2022-09-06T05:31:02.416Z</time>
      </trkpt>
      <trkpt lat="45.6447" lon="5.43409">
        <ele>242</ele>
        <time>2022-09-06T05:31:03.416Z</time>
      </trkpt>
      <trkpt lat="45.64474" lon="5.4342">
        <ele>242</ele>
        <time>2022-09-06T05:31:04.416Z</time>
      </trkpt>
      <trkpt lat="45.64479" lon="5.4343">
        <ele>242</ele>
        <time>2022-09-06T05:31:05.416Z</time>
      </trkpt>
      <trkpt lat="45.64483" lon="5.43441">
        <ele>241</ele>
        <time>2022-09-06T05:31:06.416Z</time>
      </trkpt>
      <trkpt lat="45.64488" lon="5.43452">
        <ele>241</ele>
        <time>2022-09-06T05:31:07.416Z</time>
      </trkpt>
      <trkpt lat="45.64492" lon="5.43463">
        <ele>241</ele>
        <time>2022-09-06T05:31:08.416Z</time>
      </trkpt>
      <trkpt lat="45.64497" lon="5.43475">
        <ele>241</ele>
        <time>2022-09-06T05:31:09.415Z</time>
      </trkpt>
      <trkpt lat="45.64502" lon="5.43488">
        <ele>240</ele>
        <time>2022-09-06T05:31:10.416Z</time>
      </trkpt>
      <trkpt lat="45.64507" lon="5.43499">
        <ele>240</ele>
        <time>2022-09-06T05:31:11.416Z</time>
      </trkpt>
      <trkpt lat="45.64512" lon="5.4351">
        <ele>239</ele>
        <time>2022-09-06T05:31:12.416Z</time>
      </trkpt>
      <trkpt lat="45.64515" lon="5.43519">
        <ele>239</ele>
        <time>2022-09-06T05:31:13.416Z</time>
      </trkpt>
      <trkpt lat="45.6452" lon="5.4353">
        <ele>238</ele>
        <time>2022-09-06T05:31:14.415Z</time>
      </trkpt>
      <trkpt lat="45.64525" lon="5.43542">
        <ele>238</ele>
        <time>2022-09-06T05:31:15.416Z</time>
      </trkpt>
      <trkpt lat="45.64531" lon="5.43556">
        <ele>238</ele>
        <time>2022-09-06T05:31:16.416Z</time>
      </trkpt>
      <trkpt lat="45.64536" lon="5.43567">
        <ele>238</ele>
        <time>2022-09-06T05:31:17.416Z</time>
      </trkpt>
      <trkpt lat="45.64541" lon="5.43579">
        <ele>238</ele>
        <time>2022-09-06T05:31:18.416Z</time>
      </trkpt>
      <trkpt lat="45.64546" lon="5.4359">
        <ele>238</ele>
        <time>2022-09-06T05:31:19.415Z</time>
      </trkpt>
      <trkpt lat="45.64551" lon="5.43602">
        <ele>238</ele>
        <time>2022-09-06T05:31:20.415Z</time>
      </trkpt>
      <trkpt lat="45.64556" lon="5.43614">
        <ele>238</ele>
        <time>2022-09-06T05:31:21.416Z</time>
      </trkpt>
      <trkpt lat="45.64561" lon="5.43626">
        <ele>239</ele>
        <time>2022-09-06T05:31:22.416Z</time>
      </trkpt>
      <trkpt lat="45.64565" lon="5.43636">
        <ele>239</ele>
        <time>2022-09-06T05:31:23.415Z</time>
      </trkpt>
      <trkpt lat="45.64571" lon="5.4365">
        <ele>239</ele>
        <time>2022-09-06T05:31:24.415Z</time>
      </trkpt>
      <trkpt lat="45.64576" lon="5.43663">
        <ele>238</ele>
        <time>2022-09-06T05:31:25.415Z</time>
      </trkpt>
      <trkpt lat="45.64581" lon="5.43672">
        <ele>238</ele>
        <time>2022-09-06T05:31:26.416Z</time>
      </trkpt>
      <trkpt lat="45.64586" lon="5.43685">
        <ele>238</ele>
        <time>2022-09-06T05:31:27.416Z</time>
      </trkpt>
      <trkpt lat="45.64591" lon="5.43697">
        <ele>237</ele>
        <time>2022-09-06T05:31:28.415Z</time>
      </trkpt>
      <trkpt lat="45.64596" lon="5.4371">
        <ele>237</ele>
        <time>2022-09-06T05:31:29.415Z</time>
      </trkpt>
      <trkpt lat="45.64603" lon="5.43725">
        <ele>237</ele>
        <time>2022-09-06T05:31:30.415Z</time>
      </trkpt>
      <trkpt lat="45.64608" lon="5.43737">
        <ele>238</ele>
        <time>2022-09-06T05:31:31.416Z</time>
      </trkpt>
      <trkpt lat="45.64612" lon="5.43747">
        <ele>238</ele>
        <time>2022-09-06T05:31:32.416Z</time>
      </trkpt>
      <trkpt lat="45.64618" lon="5.43763">
        <ele>238</ele>
        <time>2022-09-06T05:31:33.416Z</time>
      </trkpt>
      <trkpt lat="45.64623" lon="5.43773">
        <ele>237</ele>
        <time>2022-09-06T05:31:34.416Z</time>
      </trkpt>
      <trkpt lat="45.64628" lon="5.43785">
        <ele>237</ele>
        <time>2022-09-06T05:31:35.415Z</time>
      </trkpt>
      <trkpt lat="45.64633" lon="5.43798">
        <ele>237</ele>
        <time>2022-09-06T05:31:36.416Z</time>
      </trkpt>
      <trkpt lat="45.64638" lon="5.43811">
        <ele>237</ele>
        <time>2022-09-06T05:31:37.416Z</time>
      </trkpt>
      <trkpt lat="45.64643" lon="5.43823">
        <ele>237</ele>
        <time>2022-09-06T05:31:38.416Z</time>
      </trkpt>
      <trkpt lat="45.64649" lon="5.43838">
        <ele>237</ele>
        <time>2022-09-06T05:31:39.415Z</time>
      </trkpt>
      <trkpt lat="45.64654" lon="5.43851">
        <ele>237</ele>
        <time>2022-09-06T05:31:40.415Z</time>
      </trkpt>
      <trkpt lat="45.64658" lon="5.43861">
        <ele>237</ele>
        <time>2022-09-06T05:31:41.416Z</time>
      </trkpt>
      <trkpt lat="45.64663" lon="5.43874">
        <ele>236</ele>
        <time>2022-09-06T05:31:42.416Z</time>
      </trkpt>
      <trkpt lat="45.64669" lon="5.43887">
        <ele>236</ele>
        <time>2022-09-06T05:31:43.416Z</time>
      </trkpt>
      <trkpt lat="45.64675" lon="5.43902">
        <ele>236</ele>
        <time>2022-09-06T05:31:44.415Z</time>
      </trkpt>
      <trkpt lat="45.6468" lon="5.43915">
        <ele>236</ele>
        <time>2022-09-06T05:31:45.415Z</time>
      </trkpt>
      <trkpt lat="45.64684" lon="5.43925">
        <ele>236</ele>
        <time>2022-09-06T05:31:46.415Z</time>
      </trkpt>
      <trkpt lat="45.64689" lon="5.43937">
        <ele>235</ele>
        <time>2022-09-06T05:31:47.416Z</time>
      </trkpt>
      <trkpt lat="45.64696" lon="5.43952">
        <ele>235</ele>
        <time>2022-09-06T05:31:48.415Z</time>
      </trkpt>
      <trkpt lat="45.64701" lon="5.43965">
        <ele>235</ele>
        <time>2022-09-06T05:31:49.415Z</time>
      </trkpt>
      <trkpt lat="45.64707" lon="5.43976">
        <ele>235</ele>
        <time>2022-09-06T05:31:50.415Z</time>
      </trkpt>
      <trkpt lat="45.64712" lon="5.43985">
        <ele>234</ele>
        <time>2022-09-06T05:31:51.415Z</time>
      </trkpt>
      <trkpt lat="45.6472" lon="5.43998">
        <ele>234</ele>
        <time>2022-09-06T05:31:52.416Z</time>
      </trkpt>
      <trkpt lat="45.64727" lon="5.44009">
        <ele>233</ele>
        <time>2022-09-06T05:31:53.415Z</time>
      </trkpt>
      <trkpt lat="45.64732" lon="5.44016">
        <ele>233</ele>
        <time>2022-09-06T05:31:54.415Z</time>
      </trkpt>
      <trkpt lat="45.6474" lon="5.44025">
        <ele>233</ele>
        <time>2022-09-06T05:31:55.416Z</time>
      </trkpt>
      <trkpt lat="45.64747" lon="5.44033">
        <ele>233</ele>
        <time>2022-09-06T05:31:56.416Z</time>
      </trkpt>
      <trkpt lat="45.64757" lon="5.44043">
        <ele>233</ele>
        <time>2022-09-06T05:31:57.416Z</time>
      </trkpt>
      <trkpt lat="45.64766" lon="5.4405">
        <ele>233</ele>
        <time>2022-09-06T05:31:58.415Z</time>
      </trkpt>
      <trkpt lat="45.64775" lon="5.44057">
        <ele>233</ele>
        <time>2022-09-06T05:31:59.416Z</time>
      </trkpt>
      <trkpt lat="45.64784" lon="5.44064">
        <ele>233</ele>
        <time>2022-09-06T05:32:00.415Z</time>
      </trkpt>
      <trkpt lat="45.64792" lon="5.44069">
        <ele>232</ele>
        <time>2022-09-06T05:32:01.416Z</time>
      </trkpt>
      <trkpt lat="45.64803" lon="5.44076">
        <ele>232</ele>
        <time>2022-09-06T05:32:02.415Z</time>
      </trkpt>
      <trkpt lat="45.64813" lon="5.44083">
        <ele>232</ele>
        <time>2022-09-06T05:32:03.416Z</time>
      </trkpt>
      <trkpt lat="45.64822" lon="5.44091">
        <ele>232</ele>
        <time>2022-09-06T05:32:04.416Z</time>
      </trkpt>
      <trkpt lat="45.64832" lon="5.44099">
        <ele>232</ele>
        <time>2022-09-06T05:32:05.415Z</time>
      </trkpt>
      <trkpt lat="45.64839" lon="5.44106">
        <ele>231</ele>
        <time>2022-09-06T05:32:06.416Z</time>
      </trkpt>
      <trkpt lat="45.64849" lon="5.44118">
        <ele>231</ele>
        <time>2022-09-06T05:32:07.416Z</time>
      </trkpt>
      <trkpt lat="45.64857" lon="5.44129">
        <ele>230</ele>
        <time>2022-09-06T05:32:08.415Z</time>
      </trkpt>
      <trkpt lat="45.64864" lon="5.44142">
        <ele>229</ele>
        <time>2022-09-06T05:32:09.415Z</time>
      </trkpt>
      <trkpt lat="45.64869" lon="5.44153">
        <ele>229</ele>
        <time>2022-09-06T05:32:10.415Z</time>
      </trkpt>
      <trkpt lat="45.64875" lon="5.44168">
        <ele>228</ele>
        <time>2022-09-06T05:32:11.416Z</time>
      </trkpt>
      <trkpt lat="45.6488" lon="5.44185">
        <ele>228</ele>
        <time>2022-09-06T05:32:12.416Z</time>
      </trkpt>
      <trkpt lat="45.64884" lon="5.442">
        <ele>227</ele>
        <time>2022-09-06T05:32:13.415Z</time>
      </trkpt>
      <trkpt lat="45.64888" lon="5.44215">
        <ele>227</ele>
        <time>2022-09-06T05:32:14.415Z</time>
      </trkpt>
      <trkpt lat="45.64892" lon="5.4423">
        <ele>227</ele>
        <time>2022-09-06T05:32:15.415Z</time>
      </trkpt>
      <trkpt lat="45.64895" lon="5.44245">
        <ele>227</ele>
        <time>2022-09-06T05:32:16.416Z</time>
      </trkpt>
      <trkpt lat="45.64898" lon="5.44259">
        <ele>227</ele>
        <time>2022-09-06T05:32:17.415Z</time>
      </trkpt>
      <trkpt lat="45.64902" lon="5.44273">
        <ele>226</ele>
        <time>2022-09-06T05:32:18.415Z</time>
      </trkpt>
      <trkpt lat="45.64905" lon="5.44287">
        <ele>226</ele>
        <time>2022-09-06T05:32:19.415Z</time>
      </trkpt>
      <trkpt lat="45.64909" lon="5.44301">
        <ele>225</ele>
        <time>2022-09-06T05:32:20.415Z</time>
      </trkpt>
      <trkpt lat="45.64912" lon="5.44315">
        <ele>225</ele>
        <time>2022-09-06T05:32:21.416Z</time>
      </trkpt>
      <trkpt lat="45.64915" lon="5.44328">
        <ele>224</ele>
        <time>2022-09-06T05:32:22.415Z</time>
      </trkpt>
      <trkpt lat="45.64918" lon="5.44341">
        <ele>224</ele>
        <time>2022-09-06T05:32:23.415Z</time>
      </trkpt>
      <trkpt lat="45.64921" lon="5.44353">
        <ele>224</ele>
        <time>2022-09-06T05:32:24.415Z</time>
      </trkpt>
      <trkpt lat="45.64924" lon="5.44366">
        <ele>224</ele>
        <time>2022-09-06T05:32:25.415Z</time>
      </trkpt>
      <trkpt lat="45.64926" lon="5.44378">
        <ele>223</ele>
        <time>2022-09-06T05:32:26.415Z</time>
      </trkpt>
      <trkpt lat="45.64929" lon="5.4439">
        <ele>223</ele>
        <time>2022-09-06T05:32:27.416Z</time>
      </trkpt>
      <trkpt lat="45.64932" lon="5.44401">
        <ele>223</ele>
        <time>2022-09-06T05:32:28.415Z</time>
      </trkpt>
      <trkpt lat="45.64935" lon="5.44413">
        <ele>223</ele>
        <time>2022-09-06T05:32:29.415Z</time>
      </trkpt>
      <trkpt lat="45.64938" lon="5.44424">
        <ele>223</ele>
        <time>2022-09-06T05:32:30.415Z</time>
      </trkpt>
      <trkpt lat="45.6494" lon="5.44436">
        <ele>223</ele>
        <time>2022-09-06T05:32:31.415Z</time>
      </trkpt>
      <trkpt lat="45.64943" lon="5.44447">
        <ele>223</ele>
        <time>2022-09-06T05:32:32.416Z</time>
      </trkpt>
      <trkpt lat="45.64945" lon="5.44456">
        <ele>223</ele>
        <time>2022-09-06T05:32:33.415Z</time>
      </trkpt>
      <trkpt lat="45.64947" lon="5.44468">
        <ele>223</ele>
        <time>2022-09-06T05:32:34.415Z</time>
      </trkpt>
      <trkpt lat="45.6495" lon="5.44481">
        <ele>223</ele>
        <time>2022-09-06T05:32:35.415Z</time>
      </trkpt>
      <trkpt lat="45.64953" lon="5.44492">
        <ele>223</ele>
        <time>2022-09-06T05:32:36.415Z</time>
      </trkpt>
      <trkpt lat="45.64955" lon="5.44503">
        <ele>223</ele>
        <time>2022-09-06T05:32:37.416Z</time>
      </trkpt>
      <trkpt lat="45.64958" lon="5.44512">
        <ele>223</ele>
        <time>2022-09-06T05:32:38.415Z</time>
      </trkpt>
      <trkpt lat="45.64961" lon="5.44523">
        <ele>223</ele>
        <time>2022-09-06T05:32:39.415Z</time>
      </trkpt>
      <trkpt lat="45.64964" lon="5.44535">
        <ele>223</ele>
        <time>2022-09-06T05:32:40.415Z</time>
      </trkpt>
      <trkpt lat="45.64968" lon="5.44545">
        <ele>223</ele>
        <time>2022-09-06T05:32:41.416Z</time>
      </trkpt>
      <trkpt lat="45.64972" lon="5.44555">
        <ele>223</ele>
        <time>2022-09-06T05:32:42.415Z</time>
      </trkpt>
      <trkpt lat="45.64977" lon="5.44565">
        <ele>224</ele>
        <time>2022-09-06T05:32:43.415Z</time>
      </trkpt>
      <trkpt lat="45.64982" lon="5.44574">
        <ele>224</ele>
        <time>2022-09-06T05:32:44.415Z</time>
      </trkpt>
      <trkpt lat="45.64986" lon="5.44581">
        <ele>224</ele>
        <time>2022-09-06T05:32:45.415Z</time>
      </trkpt>
      <trkpt lat="45.64993" lon="5.44591">
        <ele>224</ele>
        <time>2022-09-06T05:32:46.415Z</time>
      </trkpt>
      <trkpt lat="45.64997" lon="5.44597">
        <ele>224</ele>
        <time>2022-09-06T05:32:47.415Z</time>
      </trkpt>
      <trkpt lat="45.65003" lon="5.44605">
        <ele>224</ele>
        <time>2022-09-06T05:32:48.415Z</time>
      </trkpt>
      <trkpt lat="45.6501" lon="5.44615">
        <ele>225</ele>
        <time>2022-09-06T05:32:49.415Z</time>
      </trkpt>
      <trkpt lat="45.65015" lon="5.44623">
        <ele>225</ele>
        <time>2022-09-06T05:32:50.415Z</time>
      </trkpt>
      <trkpt lat="45.65021" lon="5.44631">
        <ele>225</ele>
        <time>2022-09-06T05:32:51.415Z</time>
      </trkpt>
      <trkpt lat="45.65027" lon="5.44638">
        <ele>226</ele>
        <time>2022-09-06T05:32:52.415Z</time>
      </trkpt>
      <trkpt lat="45.65032" lon="5.44645">
        <ele>226</ele>
        <time>2022-09-06T05:32:53.415Z</time>
      </trkpt>
      <trkpt lat="45.65039" lon="5.44654">
        <ele>226</ele>
        <time>2022-09-06T05:32:54.415Z</time>
      </trkpt>
      <trkpt lat="45.65045" lon="5.44662">
        <ele>226</ele>
        <time>2022-09-06T05:32:55.415Z</time>
      </trkpt>
      <trkpt lat="45.65051" lon="5.4467">
        <ele>226</ele>
        <time>2022-09-06T05:32:56.415Z</time>
      </trkpt>
      <trkpt lat="45.65055" lon="5.44676">
        <ele>227</ele>
        <time>2022-09-06T05:32:57.416Z</time>
      </trkpt>
      <trkpt lat="45.65061" lon="5.44684">
        <ele>227</ele>
        <time>2022-09-06T05:32:58.416Z</time>
      </trkpt>
      <trkpt lat="45.65069" lon="5.44693">
        <ele>227</ele>
        <time>2022-09-06T05:32:59.415Z</time>
      </trkpt>
      <trkpt lat="45.65075" lon="5.447">
        <ele>227</ele>
        <time>2022-09-06T05:33:00.416Z</time>
      </trkpt>
      <trkpt lat="45.65081" lon="5.44707">
        <ele>227</ele>
        <time>2022-09-06T05:33:01.416Z</time>
      </trkpt>
      <trkpt lat="45.65087" lon="5.44714">
        <ele>227</ele>
        <time>2022-09-06T05:33:02.416Z</time>
      </trkpt>
      <trkpt lat="45.65094" lon="5.4472">
        <ele>226</ele>
        <time>2022-09-06T05:33:03.416Z</time>
      </trkpt>
      <trkpt lat="45.651" lon="5.44725">
        <ele>227</ele>
        <time>2022-09-06T05:33:04.416Z</time>
      </trkpt>
      <trkpt lat="45.65107" lon="5.4473">
        <ele>227</ele>
        <time>2022-09-06T05:33:05.415Z</time>
      </trkpt>
      <trkpt lat="45.65113" lon="5.44735">
        <ele>227</ele>
        <time>2022-09-06T05:33:06.416Z</time>
      </trkpt>
      <trkpt lat="45.65119" lon="5.44738">
        <ele>227</ele>
        <time>2022-09-06T05:33:07.416Z</time>
      </trkpt>
      <trkpt lat="45.65127" lon="5.44743">
        <ele>228</ele>
        <time>2022-09-06T05:33:08.416Z</time>
      </trkpt>
      <trkpt lat="45.65134" lon="5.44747">
        <ele>228</ele>
        <time>2022-09-06T05:33:09.416Z</time>
      </trkpt>
      <trkpt lat="45.65141" lon="5.44752">
        <ele>228</ele>
        <time>2022-09-06T05:33:10.416Z</time>
      </trkpt>
      <trkpt lat="45.65147" lon="5.44755">
        <ele>229</ele>
        <time>2022-09-06T05:33:11.416Z</time>
      </trkpt>
      <trkpt lat="45.65154" lon="5.4476">
        <ele>229</ele>
        <time>2022-09-06T05:33:12.416Z</time>
      </trkpt>
      <trkpt lat="45.65161" lon="5.44766">
        <ele>229</ele>
        <time>2022-09-06T05:33:13.416Z</time>
      </trkpt>
      <trkpt lat="45.65168" lon="5.44772">
        <ele>229</ele>
        <time>2022-09-06T05:33:14.416Z</time>
      </trkpt>
      <trkpt lat="45.65174" lon="5.44778">
        <ele>229</ele>
        <time>2022-09-06T05:33:15.416Z</time>
      </trkpt>
      <trkpt lat="45.65179" lon="5.44783">
        <ele>229</ele>
        <time>2022-09-06T05:33:16.416Z</time>
      </trkpt>
      <trkpt lat="45.65185" lon="5.44788">
        <ele>229</ele>
        <time>2022-09-06T05:33:17.416Z</time>
      </trkpt>
      <trkpt lat="45.65193" lon="5.44796">
        <ele>229</ele>
        <time>2022-09-06T05:33:18.416Z</time>
      </trkpt>
      <trkpt lat="45.65199" lon="5.44802">
        <ele>229</ele>
        <time>2022-09-06T05:33:19.415Z</time>
      </trkpt>
      <trkpt lat="45.65204" lon="5.44809">
        <ele>229</ele>
        <time>2022-09-06T05:33:20.416Z</time>
      </trkpt>
      <trkpt lat="45.65208" lon="5.44814">
        <ele>229</ele>
        <time>2022-09-06T05:33:21.416Z</time>
      </trkpt>
      <trkpt lat="45.65215" lon="5.44824">
        <ele>230</ele>
        <time>2022-09-06T05:33:22.415Z</time>
      </trkpt>
      <trkpt lat="45.6522" lon="5.44832">
        <ele>230</ele>
        <time>2022-09-06T05:33:23.416Z</time>
      </trkpt>
      <trkpt lat="45.65224" lon="5.4484">
        <ele>230</ele>
        <time>2022-09-06T05:33:24.416Z</time>
      </trkpt>
      <trkpt lat="45.65228" lon="5.44847">
        <ele>230</ele>
        <time>2022-09-06T05:33:25.415Z</time>
      </trkpt>
      <trkpt lat="45.65232" lon="5.44856">
        <ele>230</ele>
        <time>2022-09-06T05:33:26.416Z</time>
      </trkpt>
      <trkpt lat="45.65237" lon="5.44868">
        <ele>230</ele>
        <time>2022-09-06T05:33:27.415Z</time>
      </trkpt>
      <trkpt lat="45.65241" lon="5.44877">
        <ele>230</ele>
        <time>2022-09-06T05:33:28.416Z</time>
      </trkpt>
      <trkpt lat="45.65245" lon="5.44887">
        <ele>230</ele>
        <time>2022-09-06T05:33:29.416Z</time>
      </trkpt>
      <trkpt lat="45.65249" lon="5.44897">
        <ele>230</ele>
        <time>2022-09-06T05:33:30.416Z</time>
      </trkpt>
      <trkpt lat="45.65254" lon="5.44907">
        <ele>229</ele>
        <time>2022-09-06T05:33:31.415Z</time>
      </trkpt>
      <trkpt lat="45.65258" lon="5.44917">
        <ele>229</ele>
        <time>2022-09-06T05:33:32.416Z</time>
      </trkpt>
      <trkpt lat="45.65262" lon="5.44928">
        <ele>229</ele>
        <time>2022-09-06T05:33:33.415Z</time>
      </trkpt>
      <trkpt lat="45.65265" lon="5.44936">
        <ele>229</ele>
        <time>2022-09-06T05:33:34.416Z</time>
      </trkpt>
      <trkpt lat="45.65269" lon="5.44946">
        <ele>229</ele>
        <time>2022-09-06T05:33:35.416Z</time>
      </trkpt>
      <trkpt lat="45.65274" lon="5.44959">
        <ele>228</ele>
        <time>2022-09-06T05:33:36.415Z</time>
      </trkpt>
      <trkpt lat="45.65278" lon="5.4497">
        <ele>228</ele>
        <time>2022-09-06T05:33:37.416Z</time>
      </trkpt>
      <trkpt lat="45.65283" lon="5.4498">
        <ele>229</ele>
        <time>2022-09-06T05:33:38.416Z</time>
      </trkpt>
      <trkpt lat="45.65287" lon="5.44991">
        <ele>228</ele>
        <time>2022-09-06T05:33:39.416Z</time>
      </trkpt>
      <trkpt lat="45.65292" lon="5.45001">
        <ele>228</ele>
        <time>2022-09-06T05:33:40.416Z</time>
      </trkpt>
      <trkpt lat="45.65296" lon="5.45012">
        <ele>227</ele>
        <time>2022-09-06T05:33:41.416Z</time>
      </trkpt>
      <trkpt lat="45.653" lon="5.45023">
        <ele>226</ele>
        <time>2022-09-06T05:33:42.416Z</time>
      </trkpt>
      <trkpt lat="45.65305" lon="5.45034">
        <ele>226</ele>
        <time>2022-09-06T05:33:43.416Z</time>
      </trkpt>
      <trkpt lat="45.65309" lon="5.45043">
        <ele>226</ele>
        <time>2022-09-06T05:33:44.416Z</time>
      </trkpt>
      <trkpt lat="45.65314" lon="5.45056">
        <ele>225</ele>
        <time>2022-09-06T05:33:45.416Z</time>
      </trkpt>
      <trkpt lat="45.65319" lon="5.45067">
        <ele>225</ele>
        <time>2022-09-06T05:33:46.416Z</time>
      </trkpt>
      <trkpt lat="45.65323" lon="5.45078">
        <ele>225</ele>
        <time>2022-09-06T05:33:47.416Z</time>
      </trkpt>
      <trkpt lat="45.65327" lon="5.45087">
        <ele>224</ele>
        <time>2022-09-06T05:33:48.416Z</time>
      </trkpt>
      <trkpt lat="45.65331" lon="5.45098">
        <ele>224</ele>
        <time>2022-09-06T05:33:49.416Z</time>
      </trkpt>
      <trkpt lat="45.65337" lon="5.45111">
        <ele>223</ele>
        <time>2022-09-06T05:33:50.416Z</time>
      </trkpt>
      <trkpt lat="45.65341" lon="5.45122">
        <ele>223</ele>
        <time>2022-09-06T05:33:51.416Z</time>
      </trkpt>
      <trkpt lat="45.65346" lon="5.45133">
        <ele>223</ele>
        <time>2022-09-06T05:33:52.416Z</time>
      </trkpt>
      <trkpt lat="45.6535" lon="5.45142">
        <ele>222</ele>
        <time>2022-09-06T05:33:53.416Z</time>
      </trkpt>
      <trkpt lat="45.65355" lon="5.45155">
        <ele>222</ele>
        <time>2022-09-06T05:33:54.416Z</time>
      </trkpt>
      <trkpt lat="45.65359" lon="5.45166">
        <ele>222</ele>
        <time>2022-09-06T05:33:55.415Z</time>
      </trkpt>
      <trkpt lat="45.65364" lon="5.45176">
        <ele>221</ele>
        <time>2022-09-06T05:33:56.415Z</time>
      </trkpt>
      <trkpt lat="45.65367" lon="5.45185">
        <ele>221</ele>
        <time>2022-09-06T05:33:57.416Z</time>
      </trkpt>
      <trkpt lat="45.65371" lon="5.45195">
        <ele>221</ele>
        <time>2022-09-06T05:33:58.416Z</time>
      </trkpt>
      <trkpt lat="45.65376" lon="5.45208">
        <ele>221</ele>
        <time>2022-09-06T05:33:59.415Z</time>
      </trkpt>
      <trkpt lat="45.6538" lon="5.45219">
        <ele>221</ele>
        <time>2022-09-06T05:34:00.416Z</time>
      </trkpt>
      <trkpt lat="45.65385" lon="5.45229">
        <ele>221</ele>
        <time>2022-09-06T05:34:01.416Z</time>
      </trkpt>
      <trkpt lat="45.65389" lon="5.4524">
        <ele>221</ele>
        <time>2022-09-06T05:34:02.416Z</time>
      </trkpt>
      <trkpt lat="45.65392" lon="5.45248">
        <ele>222</ele>
        <time>2022-09-06T05:34:03.415Z</time>
      </trkpt>
      <trkpt lat="45.65396" lon="5.45261">
        <ele>222</ele>
        <time>2022-09-06T05:34:04.415Z</time>
      </trkpt>
      <trkpt lat="45.65399" lon="5.45273">
        <ele>222</ele>
        <time>2022-09-06T05:34:05.415Z</time>
      </trkpt>
      <trkpt lat="45.65401" lon="5.45284">
        <ele>222</ele>
        <time>2022-09-06T05:34:06.416Z</time>
      </trkpt>
      <trkpt lat="45.65403" lon="5.45294">
        <ele>222</ele>
        <time>2022-09-06T05:34:07.415Z</time>
      </trkpt>
      <trkpt lat="45.65404" lon="5.45306">
        <ele>222</ele>
        <time>2022-09-06T05:34:08.416Z</time>
      </trkpt>
      <trkpt lat="45.65405" lon="5.4532">
        <ele>222</ele>
        <time>2022-09-06T05:34:09.416Z</time>
      </trkpt>
      <trkpt lat="45.65405" lon="5.45332">
        <ele>222</ele>
        <time>2022-09-06T05:34:10.416Z</time>
      </trkpt>
      <trkpt lat="45.65405" lon="5.45344">
        <ele>222</ele>
        <time>2022-09-06T05:34:11.416Z</time>
      </trkpt>
      <trkpt lat="45.65404" lon="5.45353">
        <ele>223</ele>
        <time>2022-09-06T05:34:12.415Z</time>
      </trkpt>
      <trkpt lat="45.65403" lon="5.45367">
        <ele>222</ele>
        <time>2022-09-06T05:34:13.416Z</time>
      </trkpt>
      <trkpt lat="45.65402" lon="5.45379">
        <ele>222</ele>
        <time>2022-09-06T05:34:14.416Z</time>
      </trkpt>
      <trkpt lat="45.65401" lon="5.45391">
        <ele>222</ele>
        <time>2022-09-06T05:34:15.416Z</time>
      </trkpt>
      <trkpt lat="45.65399" lon="5.454">
        <ele>223</ele>
        <time>2022-09-06T05:34:16.416Z</time>
      </trkpt>
      <trkpt lat="45.65398" lon="5.45412">
        <ele>223</ele>
        <time>2022-09-06T05:34:17.416Z</time>
      </trkpt>
      <trkpt lat="45.65396" lon="5.45425">
        <ele>223</ele>
        <time>2022-09-06T05:34:18.416Z</time>
      </trkpt>
      <trkpt lat="45.65394" lon="5.45437">
        <ele>223</ele>
        <time>2022-09-06T05:34:19.416Z</time>
      </trkpt>
      <trkpt lat="45.65393" lon="5.45448">
        <ele>223</ele>
        <time>2022-09-06T05:34:20.416Z</time>
      </trkpt>
      <trkpt lat="45.65391" lon="5.45459">
        <ele>223</ele>
        <time>2022-09-06T05:34:21.415Z</time>
      </trkpt>
      <trkpt lat="45.6539" lon="5.45468">
        <ele>223</ele>
        <time>2022-09-06T05:34:22.415Z</time>
      </trkpt>
      <trkpt lat="45.65388" lon="5.45481">
        <ele>223</ele>
        <time>2022-09-06T05:34:23.416Z</time>
      </trkpt>
      <trkpt lat="45.65387" lon="5.45492">
        <ele>223</ele>
        <time>2022-09-06T05:34:24.415Z</time>
      </trkpt>
      <trkpt lat="45.65386" lon="5.45503">
        <ele>223</ele>
        <time>2022-09-06T05:34:25.416Z</time>
      </trkpt>
      <trkpt lat="45.65385" lon="5.45512">
        <ele>223</ele>
        <time>2022-09-06T05:34:26.416Z</time>
      </trkpt>
      <trkpt lat="45.65383" lon="5.45525">
        <ele>223</ele>
        <time>2022-09-06T05:34:27.416Z</time>
      </trkpt>
      <trkpt lat="45.65382" lon="5.45536">
        <ele>223</ele>
        <time>2022-09-06T05:34:28.415Z</time>
      </trkpt>
      <trkpt lat="45.6538" lon="5.45547">
        <ele>223</ele>
        <time>2022-09-06T05:34:29.415Z</time>
      </trkpt>
      <trkpt lat="45.65379" lon="5.45558">
        <ele>223</ele>
        <time>2022-09-06T05:34:30.415Z</time>
      </trkpt>
      <trkpt lat="45.65377" lon="5.45569">
        <ele>223</ele>
        <time>2022-09-06T05:34:31.416Z</time>
      </trkpt>
      <trkpt lat="45.65376" lon="5.4558">
        <ele>223</ele>
        <time>2022-09-06T05:34:32.416Z</time>
      </trkpt>
      <trkpt lat="45.65375" lon="5.4559">
        <ele>223</ele>
        <time>2022-09-06T05:34:33.416Z</time>
      </trkpt>
      <trkpt lat="45.65376" lon="5.456">
        <ele>223</ele>
        <time>2022-09-06T05:34:34.415Z</time>
      </trkpt>
      <trkpt lat="45.65378" lon="5.45607">
        <ele>223</ele>
        <time>2022-09-06T05:34:35.416Z</time>
      </trkpt>
      <trkpt lat="45.65382" lon="5.45617">
        <ele>222</ele>
        <time>2022-09-06T05:34:36.415Z</time>
      </trkpt>
      <trkpt lat="45.65388" lon="5.45623">
        <ele>222</ele>
        <time>2022-09-06T05:34:37.415Z</time>
      </trkpt>
      <trkpt lat="45.65394" lon="5.45627">
        <ele>222</ele>
        <time>2022-09-06T05:34:38.415Z</time>
      </trkpt>
      <trkpt lat="45.65399" lon="5.4563">
        <ele>222</ele>
        <time>2022-09-06T05:34:39.416Z</time>
      </trkpt>
      <trkpt lat="45.65406" lon="5.45635">
        <ele>221</ele>
        <time>2022-09-06T05:34:40.416Z</time>
      </trkpt>
      <trkpt lat="45.65415" lon="5.4564">
        <ele>221</ele>
        <time>2022-09-06T05:34:41.416Z</time>
      </trkpt>
      <trkpt lat="45.65422" lon="5.45645">
        <ele>222</ele>
        <time>2022-09-06T05:34:42.416Z</time>
      </trkpt>
      <trkpt lat="45.6543" lon="5.45647">
        <ele>222</ele>
        <time>2022-09-06T05:34:43.416Z</time>
      </trkpt>
      <trkpt lat="45.65438" lon="5.45652">
        <ele>222</ele>
        <time>2022-09-06T05:34:44.416Z</time>
      </trkpt>
      <trkpt lat="45.65444" lon="5.45656">
        <ele>222</ele>
        <time>2022-09-06T05:34:45.416Z</time>
      </trkpt>
      <trkpt lat="45.65453" lon="5.45661">
        <ele>223</ele>
        <time>2022-09-06T05:34:46.416Z</time>
      </trkpt>
      <trkpt lat="45.6546" lon="5.45666">
        <ele>223</ele>
        <time>2022-09-06T05:34:47.416Z</time>
      </trkpt>
      <trkpt lat="45.65466" lon="5.45669">
        <ele>223</ele>
        <time>2022-09-06T05:34:48.416Z</time>
      </trkpt>
      <trkpt lat="45.65473" lon="5.45674">
        <ele>223</ele>
        <time>2022-09-06T05:34:49.416Z</time>
      </trkpt>
      <trkpt lat="45.65481" lon="5.45679">
        <ele>222</ele>
        <time>2022-09-06T05:34:50.415Z</time>
      </trkpt>
      <trkpt lat="45.65488" lon="5.45683">
        <ele>222</ele>
        <time>2022-09-06T05:34:51.415Z</time>
      </trkpt>
      <trkpt lat="45.65495" lon="5.45688">
        <ele>222</ele>
        <time>2022-09-06T05:34:52.415Z</time>
      </trkpt>
      <trkpt lat="45.65502" lon="5.45693">
        <ele>222</ele>
        <time>2022-09-06T05:34:53.415Z</time>
      </trkpt>
      <trkpt lat="45.65509" lon="5.45698">
        <ele>222</ele>
        <time>2022-09-06T05:34:54.416Z</time>
      </trkpt>
      <trkpt lat="45.65516" lon="5.45703">
        <ele>223</ele>
        <time>2022-09-06T05:34:55.416Z</time>
      </trkpt>
      <trkpt lat="45.65523" lon="5.45708">
        <ele>223</ele>
        <time>2022-09-06T05:34:56.416Z</time>
      </trkpt>
      <trkpt lat="45.6553" lon="5.45712">
        <ele>223</ele>
        <time>2022-09-06T05:34:57.416Z</time>
      </trkpt>
      <trkpt lat="45.65537" lon="5.45717">
        <ele>223</ele>
        <time>2022-09-06T05:34:58.416Z</time>
      </trkpt>
      <trkpt lat="45.65544" lon="5.45722">
        <ele>224</ele>
        <time>2022-09-06T05:34:59.415Z</time>
      </trkpt>
      <trkpt lat="45.65551" lon="5.45726">
        <ele>224</ele>
        <time>2022-09-06T05:35:00.416Z</time>
      </trkpt>
      <trkpt lat="45.65558" lon="5.45731">
        <ele>224</ele>
        <time>2022-09-06T05:35:01.416Z</time>
      </trkpt>
      <trkpt lat="45.65565" lon="5.45735">
        <ele>224</ele>
        <time>2022-09-06T05:35:02.416Z</time>
      </trkpt>
      <trkpt lat="45.65572" lon="5.4574">
        <ele>224</ele>
        <time>2022-09-06T05:35:03.416Z</time>
      </trkpt>
      <trkpt lat="45.65579" lon="5.45744">
        <ele>224</ele>
        <time>2022-09-06T05:35:04.415Z</time>
      </trkpt>
      <trkpt lat="45.65586" lon="5.45749">
        <ele>224</ele>
        <time>2022-09-06T05:35:05.416Z</time>
      </trkpt>
      <trkpt lat="45.65593" lon="5.45753">
        <ele>225</ele>
        <time>2022-09-06T05:35:06.415Z</time>
      </trkpt>
      <trkpt lat="45.65601" lon="5.45757">
        <ele>225</ele>
        <time>2022-09-06T05:35:07.416Z</time>
      </trkpt>
      <trkpt lat="45.65608" lon="5.45761">
        <ele>226</ele>
        <time>2022-09-06T05:35:08.416Z</time>
      </trkpt>
      <trkpt lat="45.65616" lon="5.45765">
        <ele>226</ele>
        <time>2022-09-06T05:35:09.416Z</time>
      </trkpt>
      <trkpt lat="45.65623" lon="5.45769">
        <ele>226</ele>
        <time>2022-09-06T05:35:10.416Z</time>
      </trkpt>
      <trkpt lat="45.65631" lon="5.45772">
        <ele>226</ele>
        <time>2022-09-06T05:35:11.416Z</time>
      </trkpt>
      <trkpt lat="45.65638" lon="5.45776">
        <ele>226</ele>
        <time>2022-09-06T05:35:12.416Z</time>
      </trkpt>
      <trkpt lat="45.65646" lon="5.45779">
        <ele>226</ele>
        <time>2022-09-06T05:35:13.416Z</time>
      </trkpt>
      <trkpt lat="45.65654" lon="5.45782">
        <ele>226</ele>
        <time>2022-09-06T05:35:14.416Z</time>
      </trkpt>
      <trkpt lat="45.65662" lon="5.45784">
        <ele>225</ele>
        <time>2022-09-06T05:35:15.415Z</time>
      </trkpt>
      <trkpt lat="45.6567" lon="5.45786">
        <ele>225</ele>
        <time>2022-09-06T05:35:16.416Z</time>
      </trkpt>
      <trkpt lat="45.65678" lon="5.45789">
        <ele>225</ele>
        <time>2022-09-06T05:35:17.416Z</time>
      </trkpt>
      <trkpt lat="45.65686" lon="5.45791">
        <ele>224</ele>
        <time>2022-09-06T05:35:18.416Z</time>
      </trkpt>
      <trkpt lat="45.65694" lon="5.45793">
        <ele>224</ele>
        <time>2022-09-06T05:35:19.416Z</time>
      </trkpt>
      <trkpt lat="45.65702" lon="5.45795">
        <ele>224</ele>
        <time>2022-09-06T05:35:20.416Z</time>
      </trkpt>
      <trkpt lat="45.6571" lon="5.45797">
        <ele>224</ele>
        <time>2022-09-06T05:35:21.416Z</time>
      </trkpt>
      <trkpt lat="45.65719" lon="5.45799">
        <ele>224</ele>
        <time>2022-09-06T05:35:22.416Z</time>
      </trkpt>
      <trkpt lat="45.65727" lon="5.45801">
        <ele>225</ele>
        <time>2022-09-06T05:35:23.416Z</time>
      </trkpt>
      <trkpt lat="45.65735" lon="5.45803">
        <ele>225</ele>
        <time>2022-09-06T05:35:24.416Z</time>
      </trkpt>
      <trkpt lat="45.65743" lon="5.45805">
        <ele>225</ele>
        <time>2022-09-06T05:35:25.416Z</time>
      </trkpt>
      <trkpt lat="45.65751" lon="5.45807">
        <ele>225</ele>
        <time>2022-09-06T05:35:26.416Z</time>
      </trkpt>
      <trkpt lat="45.65758" lon="5.45809">
        <ele>225</ele>
        <time>2022-09-06T05:35:27.416Z</time>
      </trkpt>
      <trkpt lat="45.65766" lon="5.45812">
        <ele>225</ele>
        <time>2022-09-06T05:35:28.416Z</time>
      </trkpt>
      <trkpt lat="45.65774" lon="5.45814">
        <ele>225</ele>
        <time>2022-09-06T05:35:29.415Z</time>
      </trkpt>
      <trkpt lat="45.65782" lon="5.45817">
        <ele>224</ele>
        <time>2022-09-06T05:35:30.416Z</time>
      </trkpt>
      <trkpt lat="45.6579" lon="5.45819">
        <ele>225</ele>
        <time>2022-09-06T05:35:31.416Z</time>
      </trkpt>
      <trkpt lat="45.65797" lon="5.45822">
        <ele>225</ele>
        <time>2022-09-06T05:35:32.416Z</time>
      </trkpt>
      <trkpt lat="45.65805" lon="5.45825">
        <ele>225</ele>
        <time>2022-09-06T05:35:33.416Z</time>
      </trkpt>
      <trkpt lat="45.65812" lon="5.45829">
        <ele>225</ele>
        <time>2022-09-06T05:35:34.415Z</time>
      </trkpt>
      <trkpt lat="45.6582" lon="5.45833">
        <ele>225</ele>
        <time>2022-09-06T05:35:35.416Z</time>
      </trkpt>
      <trkpt lat="45.65827" lon="5.45837">
        <ele>225</ele>
        <time>2022-09-06T05:35:36.416Z</time>
      </trkpt>
      <trkpt lat="45.65834" lon="5.45841">
        <ele>225</ele>
        <time>2022-09-06T05:35:37.415Z</time>
      </trkpt>
      <trkpt lat="45.65841" lon="5.45846">
        <ele>225</ele>
        <time>2022-09-06T05:35:38.415Z</time>
      </trkpt>
      <trkpt lat="45.65847" lon="5.4585">
        <ele>225</ele>
        <time>2022-09-06T05:35:39.415Z</time>
      </trkpt>
      <trkpt lat="45.65855" lon="5.45855">
        <ele>225</ele>
        <time>2022-09-06T05:35:40.416Z</time>
      </trkpt>
      <trkpt lat="45.65862" lon="5.45861">
        <ele>225</ele>
        <time>2022-09-06T05:35:41.416Z</time>
      </trkpt>
      <trkpt lat="45.65867" lon="5.45865">
        <ele>225</ele>
        <time>2022-09-06T05:35:42.415Z</time>
      </trkpt>
      <trkpt lat="45.65874" lon="5.45871">
        <ele>225</ele>
        <time>2022-09-06T05:35:43.416Z</time>
      </trkpt>
      <trkpt lat="45.65881" lon="5.45876">
        <ele>225</ele>
        <time>2022-09-06T05:35:44.416Z</time>
      </trkpt>
      <trkpt lat="45.65887" lon="5.45881">
        <ele>225</ele>
        <time>2022-09-06T05:35:45.416Z</time>
      </trkpt>
      <trkpt lat="45.65892" lon="5.45886">
        <ele>225</ele>
        <time>2022-09-06T05:35:46.416Z</time>
      </trkpt>
      <trkpt lat="45.65898" lon="5.45891">
        <ele>226</ele>
        <time>2022-09-06T05:35:47.416Z</time>
      </trkpt>
      <trkpt lat="45.65906" lon="5.45898">
        <ele>226</ele>
        <time>2022-09-06T05:35:48.416Z</time>
      </trkpt>
      <trkpt lat="45.65912" lon="5.45903">
        <ele>226</ele>
        <time>2022-09-06T05:35:49.416Z</time>
      </trkpt>
      <trkpt lat="45.65918" lon="5.45909">
        <ele>227</ele>
        <time>2022-09-06T05:35:50.416Z</time>
      </trkpt>
      <trkpt lat="45.65924" lon="5.45915">
        <ele>227</ele>
        <time>2022-09-06T05:35:51.415Z</time>
      </trkpt>
      <trkpt lat="45.65931" lon="5.4592">
        <ele>227</ele>
        <time>2022-09-06T05:35:52.416Z</time>
      </trkpt>
      <trkpt lat="45.65937" lon="5.45926">
        <ele>227</ele>
        <time>2022-09-06T05:35:53.416Z</time>
      </trkpt>
      <trkpt lat="45.65943" lon="5.45931">
        <ele>227</ele>
        <time>2022-09-06T05:35:54.416Z</time>
      </trkpt>
      <trkpt lat="45.65948" lon="5.45936">
        <ele>228</ele>
        <time>2022-09-06T05:35:55.416Z</time>
      </trkpt>
      <trkpt lat="45.65955" lon="5.45942">
        <ele>228</ele>
        <time>2022-09-06T05:35:56.416Z</time>
      </trkpt>
      <trkpt lat="45.65961" lon="5.45947">
        <ele>228</ele>
        <time>2022-09-06T05:35:57.416Z</time>
      </trkpt>
      <trkpt lat="45.65968" lon="5.45953">
        <ele>228</ele>
        <time>2022-09-06T05:35:58.416Z</time>
      </trkpt>
      <trkpt lat="45.65974" lon="5.45959">
        <ele>229</ele>
        <time>2022-09-06T05:35:59.415Z</time>
      </trkpt>
      <trkpt lat="45.6598" lon="5.45965">
        <ele>229</ele>
        <time>2022-09-06T05:36:00.416Z</time>
      </trkpt>
      <trkpt lat="45.65987" lon="5.45971">
        <ele>229</ele>
        <time>2022-09-06T05:36:01.416Z</time>
      </trkpt>
      <trkpt lat="45.65993" lon="5.45977">
        <ele>229</ele>
        <time>2022-09-06T05:36:02.416Z</time>
      </trkpt>
      <trkpt lat="45.66" lon="5.45983">
        <ele>229</ele>
        <time>2022-09-06T05:36:03.416Z</time>
      </trkpt>
      <trkpt lat="45.66006" lon="5.45989">
        <ele>229</ele>
        <time>2022-09-06T05:36:04.415Z</time>
      </trkpt>
      <trkpt lat="45.66012" lon="5.45996">
        <ele>228</ele>
        <time>2022-09-06T05:36:05.415Z</time>
      </trkpt>
      <trkpt lat="45.66019" lon="5.46001">
        <ele>228</ele>
        <time>2022-09-06T05:36:06.415Z</time>
      </trkpt>
      <trkpt lat="45.66025" lon="5.46008">
        <ele>228</ele>
        <time>2022-09-06T05:36:07.416Z</time>
      </trkpt>
      <trkpt lat="45.66032" lon="5.46015">
        <ele>228</ele>
        <time>2022-09-06T05:36:08.416Z</time>
      </trkpt>
      <trkpt lat="45.66038" lon="5.46021">
        <ele>227</ele>
        <time>2022-09-06T05:36:09.416Z</time>
      </trkpt>
      <trkpt lat="45.66044" lon="5.46028">
        <ele>227</ele>
        <time>2022-09-06T05:36:10.415Z</time>
      </trkpt>
      <trkpt lat="45.6605" lon="5.46035">
        <ele>227</ele>
        <time>2022-09-06T05:36:11.416Z</time>
      </trkpt>
      <trkpt lat="45.66057" lon="5.46042">
        <ele>227</ele>
        <time>2022-09-06T05:36:12.416Z</time>
      </trkpt>
      <trkpt lat="45.66062" lon="5.46049">
        <ele>227</ele>
        <time>2022-09-06T05:36:13.416Z</time>
      </trkpt>
      <trkpt lat="45.66068" lon="5.46056">
        <ele>226</ele>
        <time>2022-09-06T05:36:14.416Z</time>
      </trkpt>
      <trkpt lat="45.66074" lon="5.46064">
        <ele>226</ele>
        <time>2022-09-06T05:36:15.416Z</time>
      </trkpt>
      <trkpt lat="45.66079" lon="5.46071">
        <ele>225</ele>
        <time>2022-09-06T05:36:16.416Z</time>
      </trkpt>
      <trkpt lat="45.66085" lon="5.46079">
        <ele>225</ele>
        <time>2022-09-06T05:36:17.415Z</time>
      </trkpt>
      <trkpt lat="45.6609" lon="5.46087">
        <ele>225</ele>
        <time>2022-09-06T05:36:18.415Z</time>
      </trkpt>
      <trkpt lat="45.66096" lon="5.46094">
        <ele>225</ele>
        <time>2022-09-06T05:36:19.415Z</time>
      </trkpt>
      <trkpt lat="45.66101" lon="5.46102">
        <ele>225</ele>
        <time>2022-09-06T05:36:20.416Z</time>
      </trkpt>
      <trkpt lat="45.66107" lon="5.4611">
        <ele>225</ele>
        <time>2022-09-06T05:36:21.415Z</time>
      </trkpt>
      <trkpt lat="45.66113" lon="5.46119">
        <ele>225</ele>
        <time>2022-09-06T05:36:22.415Z</time>
      </trkpt>
      <trkpt lat="45.66118" lon="5.46125">
        <ele>225</ele>
        <time>2022-09-06T05:36:23.416Z</time>
      </trkpt>
      <trkpt lat="45.66123" lon="5.46134">
        <ele>225</ele>
        <time>2022-09-06T05:36:24.416Z</time>
      </trkpt>
      <trkpt lat="45.66129" lon="5.46141">
        <ele>225</ele>
        <time>2022-09-06T05:36:25.416Z</time>
      </trkpt>
      <trkpt lat="45.66136" lon="5.46151">
        <ele>224</ele>
        <time>2022-09-06T05:36:26.415Z</time>
      </trkpt>
      <trkpt lat="45.6614" lon="5.46157">
        <ele>224</ele>
        <time>2022-09-06T05:36:27.415Z</time>
      </trkpt>
      <trkpt lat="45.66146" lon="5.46165">
        <ele>224</ele>
        <time>2022-09-06T05:36:28.415Z</time>
      </trkpt>
      <trkpt lat="45.66151" lon="5.46173">
        <ele>224</ele>
        <time>2022-09-06T05:36:29.415Z</time>
      </trkpt>
      <trkpt lat="45.66158" lon="5.46182">
        <ele>224</ele>
        <time>2022-09-06T05:36:30.415Z</time>
      </trkpt>
      <trkpt lat="45.66162" lon="5.46188">
        <ele>224</ele>
        <time>2022-09-06T05:36:31.416Z</time>
      </trkpt>
      <trkpt lat="45.66168" lon="5.46195">
        <ele>224</ele>
        <time>2022-09-06T05:36:32.415Z</time>
      </trkpt>
      <trkpt lat="45.66174" lon="5.46203">
        <ele>224</ele>
        <time>2022-09-06T05:36:33.416Z</time>
      </trkpt>
      <trkpt lat="45.66179" lon="5.46211">
        <ele>225</ele>
        <time>2022-09-06T05:36:34.415Z</time>
      </trkpt>
      <trkpt lat="45.66185" lon="5.46218">
        <ele>225</ele>
        <time>2022-09-06T05:36:35.416Z</time>
      </trkpt>
      <trkpt lat="45.66191" lon="5.46227">
        <ele>225</ele>
        <time>2022-09-06T05:36:36.416Z</time>
      </trkpt>
      <trkpt lat="45.66196" lon="5.46233">
        <ele>225</ele>
        <time>2022-09-06T05:36:37.416Z</time>
      </trkpt>
      <trkpt lat="45.66202" lon="5.4624">
        <ele>225</ele>
        <time>2022-09-06T05:36:38.416Z</time>
      </trkpt>
      <trkpt lat="45.66207" lon="5.46248">
        <ele>224</ele>
        <time>2022-09-06T05:36:39.415Z</time>
      </trkpt>
      <trkpt lat="45.66212" lon="5.46256">
        <ele>224</ele>
        <time>2022-09-06T05:36:40.416Z</time>
      </trkpt>
      <trkpt lat="45.66218" lon="5.46263">
        <ele>224</ele>
        <time>2022-09-06T05:36:41.416Z</time>
      </trkpt>
      <trkpt lat="45.66223" lon="5.46272">
        <ele>224</ele>
        <time>2022-09-06T05:36:42.416Z</time>
      </trkpt>
      <trkpt lat="45.66228" lon="5.4628">
        <ele>224</ele>
        <time>2022-09-06T05:36:43.416Z</time>
      </trkpt>
      <trkpt lat="45.66233" lon="5.46288">
        <ele>224</ele>
        <time>2022-09-06T05:36:44.416Z</time>
      </trkpt>
      <trkpt lat="45.66237" lon="5.46297">
        <ele>224</ele>
        <time>2022-09-06T05:36:45.416Z</time>
      </trkpt>
      <trkpt lat="45.66242" lon="5.46306">
        <ele>224</ele>
        <time>2022-09-06T05:36:46.416Z</time>
      </trkpt>
      <trkpt lat="45.66246" lon="5.46315">
        <ele>224</ele>
        <time>2022-09-06T05:36:47.415Z</time>
      </trkpt>
      <trkpt lat="45.66251" lon="5.46324">
        <ele>224</ele>
        <time>2022-09-06T05:36:48.416Z</time>
      </trkpt>
      <trkpt lat="45.66256" lon="5.46335">
        <ele>224</ele>
        <time>2022-09-06T05:36:49.416Z</time>
      </trkpt>
      <trkpt lat="45.6626" lon="5.46344">
        <ele>224</ele>
        <time>2022-09-06T05:36:50.416Z</time>
      </trkpt>
      <trkpt lat="45.66263" lon="5.46352">
        <ele>224</ele>
        <time>2022-09-06T05:36:51.416Z</time>
      </trkpt>
      <trkpt lat="45.66267" lon="5.46362">
        <ele>224</ele>
        <time>2022-09-06T05:36:52.416Z</time>
      </trkpt>
      <trkpt lat="45.66271" lon="5.46372">
        <ele>224</ele>
        <time>2022-09-06T05:36:53.416Z</time>
      </trkpt>
      <trkpt lat="45.66274" lon="5.46382">
        <ele>224</ele>
        <time>2022-09-06T05:36:54.415Z</time>
      </trkpt>
      <trkpt lat="45.66278" lon="5.46392">
        <ele>225</ele>
        <time>2022-09-06T05:36:55.416Z</time>
      </trkpt>
      <trkpt lat="45.66281" lon="5.46402">
        <ele>225</ele>
        <time>2022-09-06T05:36:56.415Z</time>
      </trkpt>
      <trkpt lat="45.66284" lon="5.46413">
        <ele>224</ele>
        <time>2022-09-06T05:36:57.415Z</time>
      </trkpt>
      <trkpt lat="45.66287" lon="5.46423">
        <ele>224</ele>
        <time>2022-09-06T05:36:58.415Z</time>
      </trkpt>
      <trkpt lat="45.6629" lon="5.46434">
        <ele>224</ele>
        <time>2022-09-06T05:36:59.415Z</time>
      </trkpt>
      <trkpt lat="45.66292" lon="5.46444">
        <ele>224</ele>
        <time>2022-09-06T05:37:00.416Z</time>
      </trkpt>
      <trkpt lat="45.66295" lon="5.46454">
        <ele>224</ele>
        <time>2022-09-06T05:37:01.416Z</time>
      </trkpt>
      <trkpt lat="45.66298" lon="5.46465">
        <ele>224</ele>
        <time>2022-09-06T05:37:02.416Z</time>
      </trkpt>
      <trkpt lat="45.663" lon="5.46475">
        <ele>224</ele>
        <time>2022-09-06T05:37:03.415Z</time>
      </trkpt>
      <trkpt lat="45.66303" lon="5.46485">
        <ele>224</ele>
        <time>2022-09-06T05:37:04.416Z</time>
      </trkpt>
      <trkpt lat="45.66305" lon="5.46496">
        <ele>224</ele>
        <time>2022-09-06T05:37:05.416Z</time>
      </trkpt>
      <trkpt lat="45.66308" lon="5.46506">
        <ele>224</ele>
        <time>2022-09-06T05:37:06.416Z</time>
      </trkpt>
      <trkpt lat="45.6631" lon="5.46516">
        <ele>224</ele>
        <time>2022-09-06T05:37:07.416Z</time>
      </trkpt>
      <trkpt lat="45.66313" lon="5.46526">
        <ele>224</ele>
        <time>2022-09-06T05:37:08.416Z</time>
      </trkpt>
      <trkpt lat="45.66316" lon="5.46537">
        <ele>225</ele>
        <time>2022-09-06T05:37:09.416Z</time>
      </trkpt>
      <trkpt lat="45.66319" lon="5.46547">
        <ele>225</ele>
        <time>2022-09-06T05:37:10.415Z</time>
      </trkpt>
      <trkpt lat="45.66321" lon="5.46558">
        <ele>225</ele>
        <time>2022-09-06T05:37:11.416Z</time>
      </trkpt>
      <trkpt lat="45.66324" lon="5.46568">
        <ele>225</ele>
        <time>2022-09-06T05:37:12.416Z</time>
      </trkpt>
      <trkpt lat="45.66327" lon="5.46579">
        <ele>225</ele>
        <time>2022-09-06T05:37:13.416Z</time>
      </trkpt>
      <trkpt lat="45.66329" lon="5.46589">
        <ele>224</ele>
        <time>2022-09-06T05:37:14.416Z</time>
      </trkpt>
      <trkpt lat="45.66332" lon="5.46599">
        <ele>224</ele>
        <time>2022-09-06T05:37:15.416Z</time>
      </trkpt>
      <trkpt lat="45.66334" lon="5.4661">
        <ele>224</ele>
        <time>2022-09-06T05:37:16.416Z</time>
      </trkpt>
      <trkpt lat="45.66337" lon="5.4662">
        <ele>225</ele>
        <time>2022-09-06T05:37:17.415Z</time>
      </trkpt>
      <trkpt lat="45.6634" lon="5.46631">
        <ele>225</ele>
        <time>2022-09-06T05:37:18.416Z</time>
      </trkpt>
      <trkpt lat="45.66342" lon="5.46641">
        <ele>225</ele>
        <time>2022-09-06T05:37:19.416Z</time>
      </trkpt>
      <trkpt lat="45.66344" lon="5.46652">
        <ele>225</ele>
        <time>2022-09-06T05:37:20.415Z</time>
      </trkpt>
      <trkpt lat="45.66347" lon="5.46662">
        <ele>224</ele>
        <time>2022-09-06T05:37:21.416Z</time>
      </trkpt>
      <trkpt lat="45.6635" lon="5.46673">
        <ele>225</ele>
        <time>2022-09-06T05:37:22.415Z</time>
      </trkpt>
      <trkpt lat="45.66353" lon="5.46685">
        <ele>225</ele>
        <time>2022-09-06T05:37:23.416Z</time>
      </trkpt>
      <trkpt lat="45.66356" lon="5.46696">
        <ele>225</ele>
        <time>2022-09-06T05:37:24.416Z</time>
      </trkpt>
      <trkpt lat="45.66358" lon="5.46704">
        <ele>225</ele>
        <time>2022-09-06T05:37:25.416Z</time>
      </trkpt>
      <trkpt lat="45.66361" lon="5.46714">
        <ele>224</ele>
        <time>2022-09-06T05:37:26.416Z</time>
      </trkpt>
      <trkpt lat="45.66363" lon="5.46725">
        <ele>224</ele>
        <time>2022-09-06T05:37:27.416Z</time>
      </trkpt>
      <trkpt lat="45.66367" lon="5.46738">
        <ele>224</ele>
        <time>2022-09-06T05:37:28.415Z</time>
      </trkpt>
      <trkpt lat="45.66369" lon="5.46749">
        <ele>224</ele>
        <time>2022-09-06T05:37:29.415Z</time>
      </trkpt>
      <trkpt lat="45.66372" lon="5.4676">
        <ele>224</ele>
        <time>2022-09-06T05:37:30.416Z</time>
      </trkpt>
      <trkpt lat="45.66374" lon="5.46771">
        <ele>224</ele>
        <time>2022-09-06T05:37:31.416Z</time>
      </trkpt>
      <trkpt lat="45.66377" lon="5.46782">
        <ele>224</ele>
        <time>2022-09-06T05:37:32.416Z</time>
      </trkpt>
      <trkpt lat="45.6638" lon="5.46793">
        <ele>224</ele>
        <time>2022-09-06T05:37:33.416Z</time>
      </trkpt>
      <trkpt lat="45.66383" lon="5.46803">
        <ele>224</ele>
        <time>2022-09-06T05:37:34.416Z</time>
      </trkpt>
      <trkpt lat="45.66386" lon="5.46815">
        <ele>224</ele>
        <time>2022-09-06T05:37:35.416Z</time>
      </trkpt>
      <trkpt lat="45.66388" lon="5.46823">
        <ele>224</ele>
        <time>2022-09-06T05:37:36.416Z</time>
      </trkpt>
      <trkpt lat="45.66391" lon="5.46834">
        <ele>224</ele>
        <time>2022-09-06T05:37:37.416Z</time>
      </trkpt>
      <trkpt lat="45.66394" lon="5.46846">
        <ele>224</ele>
        <time>2022-09-06T05:37:38.416Z</time>
      </trkpt>
      <trkpt lat="45.66397" lon="5.46857">
        <ele>224</ele>
        <time>2022-09-06T05:37:39.416Z</time>
      </trkpt>
      <trkpt lat="45.664" lon="5.4687">
        <ele>224</ele>
        <time>2022-09-06T05:37:40.416Z</time>
      </trkpt>
      <trkpt lat="45.66402" lon="5.46879">
        <ele>224</ele>
        <time>2022-09-06T05:37:41.415Z</time>
      </trkpt>
      <trkpt lat="45.66405" lon="5.4689">
        <ele>224</ele>
        <time>2022-09-06T05:37:42.415Z</time>
      </trkpt>
      <trkpt lat="45.66409" lon="5.46903">
        <ele>224</ele>
        <time>2022-09-06T05:37:43.416Z</time>
      </trkpt>
      <trkpt lat="45.66413" lon="5.46914">
        <ele>224</ele>
        <time>2022-09-06T05:37:44.416Z</time>
      </trkpt>
      <trkpt lat="45.66415" lon="5.46922">
        <ele>223</ele>
        <time>2022-09-06T05:37:45.416Z</time>
      </trkpt>
      <trkpt lat="45.66419" lon="5.46933">
        <ele>223</ele>
        <time>2022-09-06T05:37:46.415Z</time>
      </trkpt>
      <trkpt lat="45.66423" lon="5.46942">
        <ele>223</ele>
        <time>2022-09-06T05:37:47.416Z</time>
      </trkpt>
      <trkpt lat="45.66428" lon="5.46951">
        <ele>223</ele>
        <time>2022-09-06T05:37:48.416Z</time>
      </trkpt>
      <trkpt lat="45.66434" lon="5.46959">
        <ele>223</ele>
        <time>2022-09-06T05:37:49.415Z</time>
      </trkpt>
      <trkpt lat="45.66441" lon="5.46965">
        <ele>223</ele>
        <time>2022-09-06T05:37:50.416Z</time>
      </trkpt>
      <trkpt lat="45.66448" lon="5.46971">
        <ele>223</ele>
        <time>2022-09-06T05:37:51.415Z</time>
      </trkpt>
      <trkpt lat="45.66457" lon="5.46976">
        <ele>223</ele>
        <time>2022-09-06T05:37:52.416Z</time>
      </trkpt>
      <trkpt lat="45.66465" lon="5.46981">
        <ele>223</ele>
        <time>2022-09-06T05:37:53.416Z</time>
      </trkpt>
      <trkpt lat="45.66472" lon="5.46986">
        <ele>223</ele>
        <time>2022-09-06T05:37:54.416Z</time>
      </trkpt>
      <trkpt lat="45.66479" lon="5.46989">
        <ele>222</ele>
        <time>2022-09-06T05:37:55.415Z</time>
      </trkpt>
      <trkpt lat="45.66487" lon="5.46994">
        <ele>222</ele>
        <time>2022-09-06T05:37:56.415Z</time>
      </trkpt>
      <trkpt lat="45.66495" lon="5.46998">
        <ele>222</ele>
        <time>2022-09-06T05:37:57.415Z</time>
      </trkpt>
      <trkpt lat="45.66502" lon="5.47002">
        <ele>223</ele>
        <time>2022-09-06T05:37:58.415Z</time>
      </trkpt>
      <trkpt lat="45.66509" lon="5.47007">
        <ele>223</ele>
        <time>2022-09-06T05:37:59.416Z</time>
      </trkpt>
      <trkpt lat="45.66515" lon="5.4701">
        <ele>223</ele>
        <time>2022-09-06T05:38:00.416Z</time>
      </trkpt>
      <trkpt lat="45.66523" lon="5.47014">
        <ele>223</ele>
        <time>2022-09-06T05:38:01.416Z</time>
      </trkpt>
      <trkpt lat="45.66531" lon="5.47019">
        <ele>224</ele>
        <time>2022-09-06T05:38:02.416Z</time>
      </trkpt>
      <trkpt lat="45.66539" lon="5.47022">
        <ele>224</ele>
        <time>2022-09-06T05:38:03.416Z</time>
      </trkpt>
      <trkpt lat="45.66544" lon="5.47025">
        <ele>224</ele>
        <time>2022-09-06T05:38:04.416Z</time>
      </trkpt>
      <trkpt lat="45.66552" lon="5.47029">
        <ele>224</ele>
        <time>2022-09-06T05:38:05.415Z</time>
      </trkpt>
      <trkpt lat="45.66561" lon="5.47033">
        <ele>224</ele>
        <time>2022-09-06T05:38:06.416Z</time>
      </trkpt>
      <trkpt lat="45.66567" lon="5.47035">
        <ele>224</ele>
        <time>2022-09-06T05:38:07.416Z</time>
      </trkpt>
      <trkpt lat="45.66575" lon="5.47038">
        <ele>224</ele>
        <time>2022-09-06T05:38:08.416Z</time>
      </trkpt>
      <trkpt lat="45.66582" lon="5.47042">
        <ele>224</ele>
        <time>2022-09-06T05:38:09.415Z</time>
      </trkpt>
      <trkpt lat="45.66589" lon="5.47045">
        <ele>223</ele>
        <time>2022-09-06T05:38:10.416Z</time>
      </trkpt>
      <trkpt lat="45.66596" lon="5.4705">
        <ele>223</ele>
        <time>2022-09-06T05:38:11.416Z</time>
      </trkpt>
      <trkpt lat="45.66601" lon="5.47055">
        <ele>223</ele>
        <time>2022-09-06T05:38:12.416Z</time>
      </trkpt>
      <trkpt lat="45.66605" lon="5.4706">
        <ele>223</ele>
        <time>2022-09-06T05:38:13.416Z</time>
      </trkpt>
      <trkpt lat="45.66609" lon="5.47065">
        <ele>222</ele>
        <time>2022-09-06T05:38:14.416Z</time>
      </trkpt>
      <trkpt lat="45.66612" lon="5.47069">
        <ele>222</ele>
        <time>2022-09-06T05:38:15.416Z</time>
      </trkpt>
      <trkpt lat="45.66616" lon="5.47072">
        <ele>222</ele>
        <time>2022-09-06T05:38:16.415Z</time>
      </trkpt>
      <trkpt lat="45.6662" lon="5.47074">
        <ele>222</ele>
        <time>2022-09-06T05:38:17.415Z</time>
      </trkpt>
      <trkpt lat="45.66625" lon="5.47075">
        <ele>222</ele>
        <time>2022-09-06T05:38:18.416Z</time>
      </trkpt>
      <trkpt lat="45.66631" lon="5.47075">
        <ele>222</ele>
        <time>2022-09-06T05:38:19.416Z</time>
      </trkpt>
      <trkpt lat="45.66637" lon="5.47075">
        <ele>222</ele>
        <time>2022-09-06T05:38:20.416Z</time>
      </trkpt>
      <trkpt lat="45.66644" lon="5.47075">
        <ele>221</ele>
        <time>2022-09-06T05:38:21.416Z</time>
      </trkpt>
      <trkpt lat="45.66651" lon="5.47074">
        <ele>221</ele>
        <time>2022-09-06T05:38:22.416Z</time>
      </trkpt>
      <trkpt lat="45.66659" lon="5.47073">
        <ele>221</ele>
        <time>2022-09-06T05:38:23.415Z</time>
      </trkpt>
      <trkpt lat="45.66666" lon="5.47072">
        <ele>221</ele>
        <time>2022-09-06T05:38:24.415Z</time>
      </trkpt>
      <trkpt lat="45.66674" lon="5.47072">
        <ele>222</ele>
        <time>2022-09-06T05:38:25.415Z</time>
      </trkpt>
      <trkpt lat="45.66684" lon="5.47071">
        <ele>222</ele>
        <time>2022-09-06T05:38:26.416Z</time>
      </trkpt>
      <trkpt lat="45.66693" lon="5.47071">
        <ele>222</ele>
        <time>2022-09-06T05:38:27.416Z</time>
      </trkpt>
      <trkpt lat="45.667" lon="5.47071">
        <ele>222</ele>
        <time>2022-09-06T05:38:28.416Z</time>
      </trkpt>
      <trkpt lat="45.66709" lon="5.47071">
        <ele>221</ele>
        <time>2022-09-06T05:38:29.416Z</time>
      </trkpt>
      <trkpt lat="45.6672" lon="5.4707">
        <ele>221</ele>
        <time>2022-09-06T05:38:30.416Z</time>
      </trkpt>
      <trkpt lat="45.66727" lon="5.4707">
        <ele>221</ele>
        <time>2022-09-06T05:38:31.416Z</time>
      </trkpt>
      <trkpt lat="45.66736" lon="5.4707">
        <ele>220</ele>
        <time>2022-09-06T05:38:32.415Z</time>
      </trkpt>
      <trkpt lat="45.66745" lon="5.4707">
        <ele>219</ele>
        <time>2022-09-06T05:38:33.416Z</time>
      </trkpt>
      <trkpt lat="45.66754" lon="5.4707">
        <ele>219</ele>
        <time>2022-09-06T05:38:34.416Z</time>
      </trkpt>
      <trkpt lat="45.66763" lon="5.4707">
        <ele>218</ele>
        <time>2022-09-06T05:38:35.415Z</time>
      </trkpt>
      <trkpt lat="45.66774" lon="5.4707">
        <ele>218</ele>
        <time>2022-09-06T05:38:36.415Z</time>
      </trkpt>
      <trkpt lat="45.66781" lon="5.47071">
        <ele>218</ele>
        <time>2022-09-06T05:38:37.416Z</time>
      </trkpt>
      <trkpt lat="45.66791" lon="5.47071">
        <ele>218</ele>
        <time>2022-09-06T05:38:38.415Z</time>
      </trkpt>
      <trkpt lat="45.668" lon="5.47072">
        <ele>218</ele>
        <time>2022-09-06T05:38:39.416Z</time>
      </trkpt>
      <trkpt lat="45.66811" lon="5.47072">
        <ele>217</ele>
        <time>2022-09-06T05:38:40.416Z</time>
      </trkpt>
      <trkpt lat="45.66818" lon="5.47072">
        <ele>217</ele>
        <time>2022-09-06T05:38:41.416Z</time>
      </trkpt>
      <trkpt lat="45.66828" lon="5.47073">
        <ele>217</ele>
        <time>2022-09-06T05:38:42.416Z</time>
      </trkpt>
      <trkpt lat="45.66837" lon="5.47074">
        <ele>216</ele>
        <time>2022-09-06T05:38:43.416Z</time>
      </trkpt>
      <trkpt lat="45.66846" lon="5.47075">
        <ele>216</ele>
        <time>2022-09-06T05:38:44.416Z</time>
      </trkpt>
      <trkpt lat="45.66852" lon="5.47075">
        <ele>216</ele>
        <time>2022-09-06T05:38:45.415Z</time>
      </trkpt>
      <trkpt lat="45.66859" lon="5.47075">
        <ele>215</ele>
        <time>2022-09-06T05:38:46.416Z</time>
      </trkpt>
      <trkpt lat="45.66865" lon="5.47076">
        <ele>215</ele>
        <time>2022-09-06T05:38:47.416Z</time>
      </trkpt>
      <trkpt lat="45.66871" lon="5.47076">
        <ele>215</ele>
        <time>2022-09-06T05:38:48.416Z</time>
      </trkpt>
      <trkpt lat="45.66878" lon="5.47076">
        <ele>214</ele>
        <time>2022-09-06T05:38:49.416Z</time>
      </trkpt>
      <trkpt lat="45.66886" lon="5.47075">
        <ele>214</ele>
        <time>2022-09-06T05:38:50.416Z</time>
      </trkpt>
      <trkpt lat="45.66893" lon="5.47075">
        <ele>214</ele>
        <time>2022-09-06T05:38:51.416Z</time>
      </trkpt>
      <trkpt lat="45.66898" lon="5.47075">
        <ele>214</ele>
        <time>2022-09-06T05:38:52.416Z</time>
      </trkpt>
      <trkpt lat="45.66906" lon="5.47074">
        <ele>214</ele>
        <time>2022-09-06T05:38:53.416Z</time>
      </trkpt>
      <trkpt lat="45.66913" lon="5.47074">
        <ele>214</ele>
        <time>2022-09-06T05:38:54.416Z</time>
      </trkpt>
      <trkpt lat="45.66923" lon="5.47074">
        <ele>214</ele>
        <time>2022-09-06T05:38:55.416Z</time>
      </trkpt>
      <trkpt lat="45.66931" lon="5.47075">
        <ele>214</ele>
        <time>2022-09-06T05:38:56.415Z</time>
      </trkpt>
      <trkpt lat="45.66937" lon="5.47075">
        <ele>214</ele>
        <time>2022-09-06T05:38:57.415Z</time>
      </trkpt>
      <trkpt lat="45.66946" lon="5.47075">
        <ele>214</ele>
        <time>2022-09-06T05:38:58.416Z</time>
      </trkpt>
      <trkpt lat="45.66952" lon="5.47074">
        <ele>214</ele>
        <time>2022-09-06T05:38:59.416Z</time>
      </trkpt>
      <trkpt lat="45.6696" lon="5.47074">
        <ele>215</ele>
        <time>2022-09-06T05:39:00.416Z</time>
      </trkpt>
      <trkpt lat="45.66968" lon="5.47074">
        <ele>214</ele>
        <time>2022-09-06T05:39:01.416Z</time>
      </trkpt>
      <trkpt lat="45.66975" lon="5.47074">
        <ele>214</ele>
        <time>2022-09-06T05:39:02.416Z</time>
      </trkpt>
      <trkpt lat="45.66983" lon="5.47074">
        <ele>215</ele>
        <time>2022-09-06T05:39:03.416Z</time>
      </trkpt>
      <trkpt lat="45.66993" lon="5.47074">
        <ele>215</ele>
        <time>2022-09-06T05:39:04.416Z</time>
      </trkpt>
      <trkpt lat="45.66999" lon="5.47075">
        <ele>215</ele>
        <time>2022-09-06T05:39:05.416Z</time>
      </trkpt>
      <trkpt lat="45.67006" lon="5.47074">
        <ele>215</ele>
        <time>2022-09-06T05:39:06.415Z</time>
      </trkpt>
      <trkpt lat="45.67014" lon="5.47074">
        <ele>215</ele>
        <time>2022-09-06T05:39:07.416Z</time>
      </trkpt>
      <trkpt lat="45.67021" lon="5.47074">
        <ele>214</ele>
        <time>2022-09-06T05:39:08.416Z</time>
      </trkpt>
      <trkpt lat="45.67029" lon="5.47074">
        <ele>214</ele>
        <time>2022-09-06T05:39:09.416Z</time>
      </trkpt>
      <trkpt lat="45.67038" lon="5.47074">
        <ele>214</ele>
        <time>2022-09-06T05:39:10.416Z</time>
      </trkpt>
      <trkpt lat="45.67044" lon="5.47074">
        <ele>214</ele>
        <time>2022-09-06T05:39:11.416Z</time>
      </trkpt>
      <trkpt lat="45.67051" lon="5.47074">
        <ele>213</ele>
        <time>2022-09-06T05:39:12.415Z</time>
      </trkpt>
      <trkpt lat="45.67059" lon="5.47074">
        <ele>213</ele>
        <time>2022-09-06T05:39:13.416Z</time>
      </trkpt>
      <trkpt lat="45.67067" lon="5.47073">
        <ele>213</ele>
        <time>2022-09-06T05:39:14.416Z</time>
      </trkpt>
      <trkpt lat="45.67074" lon="5.47074">
        <ele>213</ele>
        <time>2022-09-06T05:39:15.415Z</time>
      </trkpt>
      <trkpt lat="45.67082" lon="5.47074">
        <ele>213</ele>
        <time>2022-09-06T05:39:16.415Z</time>
      </trkpt>
      <trkpt lat="45.67089" lon="5.47074">
        <ele>212</ele>
        <time>2022-09-06T05:39:17.416Z</time>
      </trkpt>
      <trkpt lat="45.67098" lon="5.47073">
        <ele>213</ele>
        <time>2022-09-06T05:39:18.416Z</time>
      </trkpt>
      <trkpt lat="45.67106" lon="5.47072">
        <ele>213</ele>
        <time>2022-09-06T05:39:19.416Z</time>
      </trkpt>
      <trkpt lat="45.67112" lon="5.47071">
        <ele>213</ele>
        <time>2022-09-06T05:39:20.416Z</time>
      </trkpt>
      <trkpt lat="45.67119" lon="5.47071">
        <ele>214</ele>
        <time>2022-09-06T05:39:21.415Z</time>
      </trkpt>
      <trkpt lat="45.67126" lon="5.47072">
        <ele>214</ele>
        <time>2022-09-06T05:39:22.416Z</time>
      </trkpt>
      <trkpt lat="45.67134" lon="5.47074">
        <ele>214</ele>
        <time>2022-09-06T05:39:23.416Z</time>
      </trkpt>
      <trkpt lat="45.67142" lon="5.47075">
        <ele>214</ele>
        <time>2022-09-06T05:39:24.416Z</time>
      </trkpt>
      <trkpt lat="45.67148" lon="5.47075">
        <ele>214</ele>
        <time>2022-09-06T05:39:25.416Z</time>
      </trkpt>
      <trkpt lat="45.67156" lon="5.47076">
        <ele>214</ele>
        <time>2022-09-06T05:39:26.416Z</time>
      </trkpt>
      <trkpt lat="45.67166" lon="5.47076">
        <ele>213</ele>
        <time>2022-09-06T05:39:27.416Z</time>
      </trkpt>
      <trkpt lat="45.67174" lon="5.47077">
        <ele>213</ele>
        <time>2022-09-06T05:39:28.416Z</time>
      </trkpt>
      <trkpt lat="45.6718" lon="5.47077">
        <ele>213</ele>
        <time>2022-09-06T05:39:29.416Z</time>
      </trkpt>
      <trkpt lat="45.67188" lon="5.47078">
        <ele>213</ele>
        <time>2022-09-06T05:39:30.416Z</time>
      </trkpt>
      <trkpt lat="45.67198" lon="5.47078">
        <ele>213</ele>
        <time>2022-09-06T05:39:31.416Z</time>
      </trkpt>
      <trkpt lat="45.67206" lon="5.47078">
        <ele>214</ele>
        <time>2022-09-06T05:39:32.416Z</time>
      </trkpt>
      <trkpt lat="45.67212" lon="5.47078">
        <ele>214</ele>
        <time>2022-09-06T05:39:33.416Z</time>
      </trkpt>
      <trkpt lat="45.6722" lon="5.47078">
        <ele>215</ele>
        <time>2022-09-06T05:39:34.416Z</time>
      </trkpt>
      <trkpt lat="45.67228" lon="5.47079">
        <ele>215</ele>
        <time>2022-09-06T05:39:35.416Z</time>
      </trkpt>
      <trkpt lat="45.67236" lon="5.4708">
        <ele>215</ele>
        <time>2022-09-06T05:39:36.415Z</time>
      </trkpt>
      <trkpt lat="45.67244" lon="5.4708">
        <ele>215</ele>
        <time>2022-09-06T05:39:37.416Z</time>
      </trkpt>
      <trkpt lat="45.67253" lon="5.47082">
        <ele>214</ele>
        <time>2022-09-06T05:39:38.416Z</time>
      </trkpt>
      <trkpt lat="45.67259" lon="5.47084">
        <ele>214</ele>
        <time>2022-09-06T05:39:39.415Z</time>
      </trkpt>
      <trkpt lat="45.67265" lon="5.47089">
        <ele>214</ele>
        <time>2022-09-06T05:39:40.416Z</time>
      </trkpt>
      <trkpt lat="45.67272" lon="5.47097">
        <ele>214</ele>
        <time>2022-09-06T05:39:41.416Z</time>
      </trkpt>
      <trkpt lat="45.67276" lon="5.47105">
        <ele>214</ele>
        <time>2022-09-06T05:39:42.416Z</time>
      </trkpt>
      <trkpt lat="45.67279" lon="5.47113">
        <ele>213</ele>
        <time>2022-09-06T05:39:43.416Z</time>
      </trkpt>
      <trkpt lat="45.67282" lon="5.47123">
        <ele>213</ele>
        <time>2022-09-06T05:39:44.416Z</time>
      </trkpt>
      <trkpt lat="45.67283" lon="5.47136">
        <ele>213</ele>
        <time>2022-09-06T05:39:45.416Z</time>
      </trkpt>
      <trkpt lat="45.67282" lon="5.47145">
        <ele>213</ele>
        <time>2022-09-06T05:39:46.416Z</time>
      </trkpt>
      <trkpt lat="45.67282" lon="5.47157">
        <ele>213</ele>
        <time>2022-09-06T05:39:47.416Z</time>
      </trkpt>
      <trkpt lat="45.67281" lon="5.47168">
        <ele>213</ele>
        <time>2022-09-06T05:39:48.416Z</time>
      </trkpt>
      <trkpt lat="45.6728" lon="5.47179">
        <ele>213</ele>
        <time>2022-09-06T05:39:49.416Z</time>
      </trkpt>
      <trkpt lat="45.67279" lon="5.47193">
        <ele>213</ele>
        <time>2022-09-06T05:39:50.416Z</time>
      </trkpt>
      <trkpt lat="45.67278" lon="5.47205">
        <ele>213</ele>
        <time>2022-09-06T05:39:51.416Z</time>
      </trkpt>
      <trkpt lat="45.67277" lon="5.47214">
        <ele>214</ele>
        <time>2022-09-06T05:39:52.416Z</time>
      </trkpt>
      <trkpt lat="45.67276" lon="5.47225">
        <ele>214</ele>
        <time>2022-09-06T05:39:53.415Z</time>
      </trkpt>
      <trkpt lat="45.67275" lon="5.47239">
        <ele>213</ele>
        <time>2022-09-06T05:39:54.416Z</time>
      </trkpt>
      <trkpt lat="45.67274" lon="5.47249">
        <ele>213</ele>
        <time>2022-09-06T05:39:55.416Z</time>
      </trkpt>
      <trkpt lat="45.67273" lon="5.4726">
        <ele>213</ele>
        <time>2022-09-06T05:39:56.415Z</time>
      </trkpt>
      <trkpt lat="45.67272" lon="5.47272">
        <ele>213</ele>
        <time>2022-09-06T05:39:57.415Z</time>
      </trkpt>
      <trkpt lat="45.67271" lon="5.47283">
        <ele>213</ele>
        <time>2022-09-06T05:39:58.415Z</time>
      </trkpt>
      <trkpt lat="45.6727" lon="5.47295">
        <ele>213</ele>
        <time>2022-09-06T05:39:59.416Z</time>
      </trkpt>
      <trkpt lat="45.67269" lon="5.47309">
        <ele>212</ele>
        <time>2022-09-06T05:40:00.415Z</time>
      </trkpt>
      <trkpt lat="45.67268" lon="5.47321">
        <ele>212</ele>
        <time>2022-09-06T05:40:01.416Z</time>
      </trkpt>
      <trkpt lat="45.67267" lon="5.4733">
        <ele>212</ele>
        <time>2022-09-06T05:40:02.416Z</time>
      </trkpt>
      <trkpt lat="45.67266" lon="5.47342">
        <ele>212</ele>
        <time>2022-09-06T05:40:03.416Z</time>
      </trkpt>
      <trkpt lat="45.67265" lon="5.47354">
        <ele>212</ele>
        <time>2022-09-06T05:40:04.416Z</time>
      </trkpt>
      <trkpt lat="45.67264" lon="5.47367">
        <ele>212</ele>
        <time>2022-09-06T05:40:05.416Z</time>
      </trkpt>
      <trkpt lat="45.67263" lon="5.47376">
        <ele>212</ele>
        <time>2022-09-06T05:40:06.415Z</time>
      </trkpt>
      <trkpt lat="45.67261" lon="5.47388">
        <ele>212</ele>
        <time>2022-09-06T05:40:07.415Z</time>
      </trkpt>
      <trkpt lat="45.67259" lon="5.47401">
        <ele>212</ele>
        <time>2022-09-06T05:40:08.415Z</time>
      </trkpt>
      <trkpt lat="45.67258" lon="5.4741">
        <ele>212</ele>
        <time>2022-09-06T05:40:09.416Z</time>
      </trkpt>
      <trkpt lat="45.67257" lon="5.47422">
        <ele>213</ele>
        <time>2022-09-06T05:40:10.416Z</time>
      </trkpt>
      <trkpt lat="45.67256" lon="5.47433">
        <ele>213</ele>
        <time>2022-09-06T05:40:11.416Z</time>
      </trkpt>
      <trkpt lat="45.67256" lon="5.47445">
        <ele>213</ele>
        <time>2022-09-06T05:40:12.415Z</time>
      </trkpt>
      <trkpt lat="45.67256" lon="5.47456">
        <ele>213</ele>
        <time>2022-09-06T05:40:13.416Z</time>
      </trkpt>
      <trkpt lat="45.67256" lon="5.4747">
        <ele>212</ele>
        <time>2022-09-06T05:40:14.416Z</time>
      </trkpt>
      <trkpt lat="45.67256" lon="5.4748">
        <ele>213</ele>
        <time>2022-09-06T05:40:15.416Z</time>
      </trkpt>
      <trkpt lat="45.67256" lon="5.47491">
        <ele>213</ele>
        <time>2022-09-06T05:40:16.415Z</time>
      </trkpt>
      <trkpt lat="45.67255" lon="5.47505">
        <ele>213</ele>
        <time>2022-09-06T05:40:17.415Z</time>
      </trkpt>
      <trkpt lat="45.67254" lon="5.47517">
        <ele>213</ele>
        <time>2022-09-06T05:40:18.416Z</time>
      </trkpt>
      <trkpt lat="45.67253" lon="5.47528">
        <ele>213</ele>
        <time>2022-09-06T05:40:19.416Z</time>
      </trkpt>
      <trkpt lat="45.67252" lon="5.47539">
        <ele>212</ele>
        <time>2022-09-06T05:40:20.416Z</time>
      </trkpt>
      <trkpt lat="45.67251" lon="5.47551">
        <ele>212</ele>
        <time>2022-09-06T05:40:21.416Z</time>
      </trkpt>
      <trkpt lat="45.6725" lon="5.47564">
        <ele>211</ele>
        <time>2022-09-06T05:40:22.416Z</time>
      </trkpt>
      <trkpt lat="45.67249" lon="5.47576">
        <ele>211</ele>
        <time>2022-09-06T05:40:23.416Z</time>
      </trkpt>
      <trkpt lat="45.67249" lon="5.47587">
        <ele>210</ele>
        <time>2022-09-06T05:40:24.416Z</time>
      </trkpt>
      <trkpt lat="45.67248" lon="5.47596">
        <ele>210</ele>
        <time>2022-09-06T05:40:25.416Z</time>
      </trkpt>
      <trkpt lat="45.67248" lon="5.47607">
        <ele>209</ele>
        <time>2022-09-06T05:40:26.416Z</time>
      </trkpt>
      <trkpt lat="45.67248" lon="5.47621">
        <ele>209</ele>
        <time>2022-09-06T05:40:27.416Z</time>
      </trkpt>
      <trkpt lat="45.67247" lon="5.47632">
        <ele>209</ele>
        <time>2022-09-06T05:40:28.415Z</time>
      </trkpt>
      <trkpt lat="45.67247" lon="5.47641">
        <ele>209</ele>
        <time>2022-09-06T05:40:29.415Z</time>
      </trkpt>
      <trkpt lat="45.67246" lon="5.47652">
        <ele>209</ele>
        <time>2022-09-06T05:40:30.416Z</time>
      </trkpt>
      <trkpt lat="45.67245" lon="5.47663">
        <ele>209</ele>
        <time>2022-09-06T05:40:31.416Z</time>
      </trkpt>
      <trkpt lat="45.67245" lon="5.47674">
        <ele>209</ele>
        <time>2022-09-06T05:40:32.416Z</time>
      </trkpt>
      <trkpt lat="45.67244" lon="5.47688">
        <ele>209</ele>
        <time>2022-09-06T05:40:33.415Z</time>
      </trkpt>
      <trkpt lat="45.67243" lon="5.47697">
        <ele>209</ele>
        <time>2022-09-06T05:40:34.415Z</time>
      </trkpt>
      <trkpt lat="45.67243" lon="5.47708">
        <ele>208</ele>
        <time>2022-09-06T05:40:35.416Z</time>
      </trkpt>
      <trkpt lat="45.67242" lon="5.47719">
        <ele>208</ele>
        <time>2022-09-06T05:40:36.416Z</time>
      </trkpt>
      <trkpt lat="45.67241" lon="5.47732">
        <ele>209</ele>
        <time>2022-09-06T05:40:37.416Z</time>
      </trkpt>
      <trkpt lat="45.67241" lon="5.47741">
        <ele>209</ele>
        <time>2022-09-06T05:40:38.416Z</time>
      </trkpt>
      <trkpt lat="45.6724" lon="5.47752">
        <ele>209</ele>
        <time>2022-09-06T05:40:39.416Z</time>
      </trkpt>
      <trkpt lat="45.6724" lon="5.47764">
        <ele>209</ele>
        <time>2022-09-06T05:40:40.416Z</time>
      </trkpt>
      <trkpt lat="45.6724" lon="5.47775">
        <ele>210</ele>
        <time>2022-09-06T05:40:41.416Z</time>
      </trkpt>
      <trkpt lat="45.67239" lon="5.47787">
        <ele>210</ele>
        <time>2022-09-06T05:40:42.416Z</time>
      </trkpt>
      <trkpt lat="45.67239" lon="5.47798">
        <ele>210</ele>
        <time>2022-09-06T05:40:43.416Z</time>
      </trkpt>
      <trkpt lat="45.67238" lon="5.47809">
        <ele>210</ele>
        <time>2022-09-06T05:40:44.416Z</time>
      </trkpt>
      <trkpt lat="45.67238" lon="5.4782">
        <ele>210</ele>
        <time>2022-09-06T05:40:45.416Z</time>
      </trkpt>
      <trkpt lat="45.67237" lon="5.47834">
        <ele>210</ele>
        <time>2022-09-06T05:40:46.416Z</time>
      </trkpt>
      <trkpt lat="45.67237" lon="5.47845">
        <ele>210</ele>
        <time>2022-09-06T05:40:47.416Z</time>
      </trkpt>
      <trkpt lat="45.67237" lon="5.47855">
        <ele>211</ele>
        <time>2022-09-06T05:40:48.416Z</time>
      </trkpt>
      <trkpt lat="45.67236" lon="5.47866">
        <ele>211</ele>
        <time>2022-09-06T05:40:49.415Z</time>
      </trkpt>
      <trkpt lat="45.67235" lon="5.47879">
        <ele>211</ele>
        <time>2022-09-06T05:40:50.416Z</time>
      </trkpt>
      <trkpt lat="45.67235" lon="5.47891">
        <ele>210</ele>
        <time>2022-09-06T05:40:51.416Z</time>
      </trkpt>
      <trkpt lat="45.67235" lon="5.479">
        <ele>210</ele>
        <time>2022-09-06T05:40:52.416Z</time>
      </trkpt>
      <trkpt lat="45.67234" lon="5.47911">
        <ele>210</ele>
        <time>2022-09-06T05:40:53.415Z</time>
      </trkpt>
      <trkpt lat="45.67234" lon="5.47924">
        <ele>210</ele>
        <time>2022-09-06T05:40:54.416Z</time>
      </trkpt>
      <trkpt lat="45.67233" lon="5.47936">
        <ele>209</ele>
        <time>2022-09-06T05:40:55.416Z</time>
      </trkpt>
      <trkpt lat="45.67233" lon="5.47947">
        <ele>209</ele>
        <time>2022-09-06T05:40:56.416Z</time>
      </trkpt>
      <trkpt lat="45.67232" lon="5.47956">
        <ele>208</ele>
        <time>2022-09-06T05:40:57.416Z</time>
      </trkpt>
      <trkpt lat="45.67232" lon="5.47967">
        <ele>209</ele>
        <time>2022-09-06T05:40:58.416Z</time>
      </trkpt>
      <trkpt lat="45.67231" lon="5.47978">
        <ele>209</ele>
        <time>2022-09-06T05:40:59.416Z</time>
      </trkpt>
      <trkpt lat="45.67231" lon="5.4799">
        <ele>209</ele>
        <time>2022-09-06T05:41:00.416Z</time>
      </trkpt>
      <trkpt lat="45.6723" lon="5.48001">
        <ele>209</ele>
        <time>2022-09-06T05:41:01.416Z</time>
      </trkpt>
      <trkpt lat="45.67229" lon="5.48012">
        <ele>208</ele>
        <time>2022-09-06T05:41:02.416Z</time>
      </trkpt>
      <trkpt lat="45.67229" lon="5.48024">
        <ele>208</ele>
        <time>2022-09-06T05:41:03.415Z</time>
      </trkpt>
      <trkpt lat="45.67228" lon="5.48038">
        <ele>208</ele>
        <time>2022-09-06T05:41:04.416Z</time>
      </trkpt>
      <trkpt lat="45.67228" lon="5.48049">
        <ele>208</ele>
        <time>2022-09-06T05:41:05.416Z</time>
      </trkpt>
      <trkpt lat="45.67227" lon="5.4806">
        <ele>207</ele>
        <time>2022-09-06T05:41:06.416Z</time>
      </trkpt>
      <trkpt lat="45.67227" lon="5.48069">
        <ele>207</ele>
        <time>2022-09-06T05:41:07.416Z</time>
      </trkpt>
      <trkpt lat="45.67226" lon="5.48083">
        <ele>207</ele>
        <time>2022-09-06T05:41:08.416Z</time>
      </trkpt>
      <trkpt lat="45.67226" lon="5.48094">
        <ele>207</ele>
        <time>2022-09-06T05:41:09.416Z</time>
      </trkpt>
      <trkpt lat="45.67225" lon="5.48106">
        <ele>206</ele>
        <time>2022-09-06T05:41:10.415Z</time>
      </trkpt>
      <trkpt lat="45.67225" lon="5.48115">
        <ele>206</ele>
        <time>2022-09-06T05:41:11.416Z</time>
      </trkpt>
      <trkpt lat="45.67225" lon="5.48127">
        <ele>206</ele>
        <time>2022-09-06T05:41:12.415Z</time>
      </trkpt>
      <trkpt lat="45.67224" lon="5.48141">
        <ele>206</ele>
        <time>2022-09-06T05:41:13.415Z</time>
      </trkpt>
      <trkpt lat="45.67224" lon="5.48152">
        <ele>206</ele>
        <time>2022-09-06T05:41:14.415Z</time>
      </trkpt>
      <trkpt lat="45.67223" lon="5.48164">
        <ele>206</ele>
        <time>2022-09-06T05:41:15.416Z</time>
      </trkpt>
      <trkpt lat="45.67223" lon="5.48173">
        <ele>207</ele>
        <time>2022-09-06T05:41:16.416Z</time>
      </trkpt>
      <trkpt lat="45.67222" lon="5.48187">
        <ele>207</ele>
        <time>2022-09-06T05:41:17.415Z</time>
      </trkpt>
      <trkpt lat="45.67222" lon="5.48199">
        <ele>206</ele>
        <time>2022-09-06T05:41:18.416Z</time>
      </trkpt>
      <trkpt lat="45.67221" lon="5.48211">
        <ele>206</ele>
        <time>2022-09-06T05:41:19.415Z</time>
      </trkpt>
      <trkpt lat="45.6722" lon="5.4822">
        <ele>207</ele>
        <time>2022-09-06T05:41:20.416Z</time>
      </trkpt>
      <trkpt lat="45.6722" lon="5.48231">
        <ele>207</ele>
        <time>2022-09-06T05:41:21.416Z</time>
      </trkpt>
      <trkpt lat="45.67219" lon="5.48243">
        <ele>207</ele>
        <time>2022-09-06T05:41:22.415Z</time>
      </trkpt>
      <trkpt lat="45.67219" lon="5.48257">
        <ele>207</ele>
        <time>2022-09-06T05:41:23.415Z</time>
      </trkpt>
      <trkpt lat="45.67218" lon="5.48266">
        <ele>207</ele>
        <time>2022-09-06T05:41:24.415Z</time>
      </trkpt>
      <trkpt lat="45.67218" lon="5.48278">
        <ele>207</ele>
        <time>2022-09-06T05:41:25.415Z</time>
      </trkpt>
      <trkpt lat="45.67217" lon="5.48292">
        <ele>208</ele>
        <time>2022-09-06T05:41:26.416Z</time>
      </trkpt>
      <trkpt lat="45.67217" lon="5.48303">
        <ele>208</ele>
        <time>2022-09-06T05:41:27.416Z</time>
      </trkpt>
      <trkpt lat="45.67216" lon="5.48315">
        <ele>209</ele>
        <time>2022-09-06T05:41:28.416Z</time>
      </trkpt>
      <trkpt lat="45.67215" lon="5.48324">
        <ele>209</ele>
        <time>2022-09-06T05:41:29.416Z</time>
      </trkpt>
      <trkpt lat="45.67215" lon="5.48335">
        <ele>208</ele>
        <time>2022-09-06T05:41:30.416Z</time>
      </trkpt>
      <trkpt lat="45.67215" lon="5.48347">
        <ele>208</ele>
        <time>2022-09-06T05:41:31.416Z</time>
      </trkpt>
      <trkpt lat="45.67214" lon="5.48358">
        <ele>208</ele>
        <time>2022-09-06T05:41:32.416Z</time>
      </trkpt>
      <trkpt lat="45.67214" lon="5.48369">
        <ele>208</ele>
        <time>2022-09-06T05:41:33.415Z</time>
      </trkpt>
      <trkpt lat="45.67213" lon="5.48381">
        <ele>209</ele>
        <time>2022-09-06T05:41:34.416Z</time>
      </trkpt>
      <trkpt lat="45.67213" lon="5.48392">
        <ele>209</ele>
        <time>2022-09-06T05:41:35.416Z</time>
      </trkpt>
      <trkpt lat="45.67212" lon="5.48404">
        <ele>209</ele>
        <time>2022-09-06T05:41:36.416Z</time>
      </trkpt>
      <trkpt lat="45.67212" lon="5.48415">
        <ele>209</ele>
        <time>2022-09-06T05:41:37.416Z</time>
      </trkpt>
      <trkpt lat="45.67211" lon="5.48427">
        <ele>209</ele>
        <time>2022-09-06T05:41:38.416Z</time>
      </trkpt>
      <trkpt lat="45.6721" lon="5.48438">
        <ele>209</ele>
        <time>2022-09-06T05:41:39.416Z</time>
      </trkpt>
      <trkpt lat="45.6721" lon="5.48452">
        <ele>209</ele>
        <time>2022-09-06T05:41:40.416Z</time>
      </trkpt>
      <trkpt lat="45.67209" lon="5.48463">
        <ele>209</ele>
        <time>2022-09-06T05:41:41.415Z</time>
      </trkpt>
      <trkpt lat="45.67208" lon="5.48475">
        <ele>209</ele>
        <time>2022-09-06T05:41:42.416Z</time>
      </trkpt>
      <trkpt lat="45.67208" lon="5.48484">
        <ele>209</ele>
        <time>2022-09-06T05:41:43.415Z</time>
      </trkpt>
      <trkpt lat="45.67207" lon="5.48496">
        <ele>209</ele>
        <time>2022-09-06T05:41:44.416Z</time>
      </trkpt>
      <trkpt lat="45.67207" lon="5.48507">
        <ele>210</ele>
        <time>2022-09-06T05:41:45.416Z</time>
      </trkpt>
      <trkpt lat="45.67206" lon="5.48519">
        <ele>210</ele>
        <time>2022-09-06T05:41:46.416Z</time>
      </trkpt>
      <trkpt lat="45.67206" lon="5.4853">
        <ele>210</ele>
        <time>2022-09-06T05:41:47.416Z</time>
      </trkpt>
      <trkpt lat="45.67205" lon="5.48542">
        <ele>209</ele>
        <time>2022-09-06T05:41:48.416Z</time>
      </trkpt>
      <trkpt lat="45.67205" lon="5.48553">
        <ele>209</ele>
        <time>2022-09-06T05:41:49.416Z</time>
      </trkpt>
      <trkpt lat="45.67204" lon="5.48565">
        <ele>208</ele>
        <time>2022-09-06T05:41:50.416Z</time>
      </trkpt>
      <trkpt lat="45.67203" lon="5.48576">
        <ele>208</ele>
        <time>2022-09-06T05:41:51.416Z</time>
      </trkpt>
      <trkpt lat="45.67203" lon="5.4859">
        <ele>207</ele>
        <time>2022-09-06T05:41:52.416Z</time>
      </trkpt>
      <trkpt lat="45.67202" lon="5.486">
        <ele>207</ele>
        <time>2022-09-06T05:41:53.416Z</time>
      </trkpt>
      <trkpt lat="45.67202" lon="5.48611">
        <ele>207</ele>
        <time>2022-09-06T05:41:54.416Z</time>
      </trkpt>
      <trkpt lat="45.67201" lon="5.48622">
        <ele>207</ele>
        <time>2022-09-06T05:41:55.416Z</time>
      </trkpt>
      <trkpt lat="45.672" lon="5.48633">
        <ele>207</ele>
        <time>2022-09-06T05:41:56.416Z</time>
      </trkpt>
      <trkpt lat="45.67199" lon="5.48645">
        <ele>207</ele>
        <time>2022-09-06T05:41:57.416Z</time>
      </trkpt>
      <trkpt lat="45.67198" lon="5.48656">
        <ele>206</ele>
        <time>2022-09-06T05:41:58.416Z</time>
      </trkpt>
      <trkpt lat="45.67197" lon="5.48668">
        <ele>206</ele>
        <time>2022-09-06T05:41:59.416Z</time>
      </trkpt>
      <trkpt lat="45.67196" lon="5.48682">
        <ele>206</ele>
        <time>2022-09-06T05:42:00.416Z</time>
      </trkpt>
      <trkpt lat="45.67196" lon="5.48691">
        <ele>207</ele>
        <time>2022-09-06T05:42:01.415Z</time>
      </trkpt>
      <trkpt lat="45.67195" lon="5.48703">
        <ele>207</ele>
        <time>2022-09-06T05:42:02.415Z</time>
      </trkpt>
      <trkpt lat="45.67194" lon="5.48714">
        <ele>207</ele>
        <time>2022-09-06T05:42:03.416Z</time>
      </trkpt>
      <trkpt lat="45.67193" lon="5.48725">
        <ele>207</ele>
        <time>2022-09-06T05:42:04.415Z</time>
      </trkpt>
      <trkpt lat="45.67191" lon="5.48737">
        <ele>208</ele>
        <time>2022-09-06T05:42:05.415Z</time>
      </trkpt>
      <trkpt lat="45.6719" lon="5.48748">
        <ele>208</ele>
        <time>2022-09-06T05:42:06.416Z</time>
      </trkpt>
      <trkpt lat="45.67188" lon="5.4876">
        <ele>208</ele>
        <time>2022-09-06T05:42:07.415Z</time>
      </trkpt>
      <trkpt lat="45.67187" lon="5.48771">
        <ele>208</ele>
        <time>2022-09-06T05:42:08.416Z</time>
      </trkpt>
      <trkpt lat="45.67186" lon="5.48783">
        <ele>208</ele>
        <time>2022-09-06T05:42:09.416Z</time>
      </trkpt>
      <trkpt lat="45.67184" lon="5.48794">
        <ele>208</ele>
        <time>2022-09-06T05:42:10.416Z</time>
      </trkpt>
      <trkpt lat="45.67183" lon="5.48806">
        <ele>209</ele>
        <time>2022-09-06T05:42:11.416Z</time>
      </trkpt>
      <trkpt lat="45.67182" lon="5.48817">
        <ele>209</ele>
        <time>2022-09-06T05:42:12.416Z</time>
      </trkpt>
      <trkpt lat="45.6718" lon="5.48828">
        <ele>210</ele>
        <time>2022-09-06T05:42:13.416Z</time>
      </trkpt>
      <trkpt lat="45.67178" lon="5.4884">
        <ele>210</ele>
        <time>2022-09-06T05:42:14.416Z</time>
      </trkpt>
      <trkpt lat="45.67177" lon="5.48851">
        <ele>209</ele>
        <time>2022-09-06T05:42:15.415Z</time>
      </trkpt>
      <trkpt lat="45.67176" lon="5.48863">
        <ele>209</ele>
        <time>2022-09-06T05:42:16.416Z</time>
      </trkpt>
      <trkpt lat="45.67174" lon="5.48874">
        <ele>210</ele>
        <time>2022-09-06T05:42:17.416Z</time>
      </trkpt>
      <trkpt lat="45.67173" lon="5.48885">
        <ele>211</ele>
        <time>2022-09-06T05:42:18.416Z</time>
      </trkpt>
      <trkpt lat="45.67171" lon="5.48899">
        <ele>211</ele>
        <time>2022-09-06T05:42:19.416Z</time>
      </trkpt>
      <trkpt lat="45.6717" lon="5.4891">
        <ele>212</ele>
        <time>2022-09-06T05:42:20.416Z</time>
      </trkpt>
      <trkpt lat="45.67168" lon="5.48919">
        <ele>212</ele>
        <time>2022-09-06T05:42:21.416Z</time>
      </trkpt>
      <trkpt lat="45.67167" lon="5.4893">
        <ele>212</ele>
        <time>2022-09-06T05:42:22.416Z</time>
      </trkpt>
      <trkpt lat="45.67166" lon="5.48941">
        <ele>212</ele>
        <time>2022-09-06T05:42:23.416Z</time>
      </trkpt>
      <trkpt lat="45.67164" lon="5.48952">
        <ele>212</ele>
        <time>2022-09-06T05:42:24.415Z</time>
      </trkpt>
      <trkpt lat="45.67162" lon="5.48963">
        <ele>212</ele>
        <time>2022-09-06T05:42:25.416Z</time>
      </trkpt>
      <trkpt lat="45.67161" lon="5.48974">
        <ele>212</ele>
        <time>2022-09-06T05:42:26.416Z</time>
      </trkpt>
      <trkpt lat="45.67159" lon="5.48985">
        <ele>212</ele>
        <time>2022-09-06T05:42:27.416Z</time>
      </trkpt>
      <trkpt lat="45.67158" lon="5.48996">
        <ele>212</ele>
        <time>2022-09-06T05:42:28.416Z</time>
      </trkpt>
      <trkpt lat="45.67157" lon="5.49007">
        <ele>212</ele>
        <time>2022-09-06T05:42:29.416Z</time>
      </trkpt>
      <trkpt lat="45.67155" lon="5.49021">
        <ele>212</ele>
        <time>2022-09-06T05:42:30.416Z</time>
      </trkpt>
      <trkpt lat="45.67154" lon="5.4903">
        <ele>213</ele>
        <time>2022-09-06T05:42:31.416Z</time>
      </trkpt>
      <trkpt lat="45.67153" lon="5.49041">
        <ele>213</ele>
        <time>2022-09-06T05:42:32.415Z</time>
      </trkpt>
      <trkpt lat="45.67151" lon="5.49052">
        <ele>213</ele>
        <time>2022-09-06T05:42:33.416Z</time>
      </trkpt>
      <trkpt lat="45.6715" lon="5.49064">
        <ele>213</ele>
        <time>2022-09-06T05:42:34.416Z</time>
      </trkpt>
      <trkpt lat="45.67149" lon="5.49075">
        <ele>213</ele>
        <time>2022-09-06T05:42:35.416Z</time>
      </trkpt>
      <trkpt lat="45.67147" lon="5.49086">
        <ele>213</ele>
        <time>2022-09-06T05:42:36.416Z</time>
      </trkpt>
      <trkpt lat="45.67146" lon="5.49097">
        <ele>213</ele>
        <time>2022-09-06T05:42:37.415Z</time>
      </trkpt>
      <trkpt lat="45.67145" lon="5.49108">
        <ele>212</ele>
        <time>2022-09-06T05:42:38.416Z</time>
      </trkpt>
      <trkpt lat="45.67143" lon="5.4912">
        <ele>212</ele>
        <time>2022-09-06T05:42:39.415Z</time>
      </trkpt>
      <trkpt lat="45.67142" lon="5.49131">
        <ele>212</ele>
        <time>2022-09-06T05:42:40.416Z</time>
      </trkpt>
      <trkpt lat="45.6714" lon="5.49142">
        <ele>212</ele>
        <time>2022-09-06T05:42:41.416Z</time>
      </trkpt>
      <trkpt lat="45.67138" lon="5.49156">
        <ele>212</ele>
        <time>2022-09-06T05:42:42.416Z</time>
      </trkpt>
      <trkpt lat="45.67137" lon="5.49165">
        <ele>212</ele>
        <time>2022-09-06T05:42:43.416Z</time>
      </trkpt>
      <trkpt lat="45.67135" lon="5.49177">
        <ele>212</ele>
        <time>2022-09-06T05:42:44.415Z</time>
      </trkpt>
      <trkpt lat="45.67134" lon="5.49188">
        <ele>212</ele>
        <time>2022-09-06T05:42:45.416Z</time>
      </trkpt>
      <trkpt lat="45.67132" lon="5.492">
        <ele>211</ele>
        <time>2022-09-06T05:42:46.416Z</time>
      </trkpt>
      <trkpt lat="45.67131" lon="5.49211">
        <ele>211</ele>
        <time>2022-09-06T05:42:47.416Z</time>
      </trkpt>
      <trkpt lat="45.67129" lon="5.49223">
        <ele>210</ele>
        <time>2022-09-06T05:42:48.416Z</time>
      </trkpt>
      <trkpt lat="45.67128" lon="5.49235">
        <ele>210</ele>
        <time>2022-09-06T05:42:49.416Z</time>
      </trkpt>
      <trkpt lat="45.67126" lon="5.49246">
        <ele>209</ele>
        <time>2022-09-06T05:42:50.416Z</time>
      </trkpt>
      <trkpt lat="45.67125" lon="5.49258">
        <ele>209</ele>
        <time>2022-09-06T05:42:51.416Z</time>
      </trkpt>
      <trkpt lat="45.67124" lon="5.49272">
        <ele>209</ele>
        <time>2022-09-06T05:42:52.415Z</time>
      </trkpt>
      <trkpt lat="45.67122" lon="5.49283">
        <ele>209</ele>
        <time>2022-09-06T05:42:53.416Z</time>
      </trkpt>
      <trkpt lat="45.67121" lon="5.49293">
        <ele>209</ele>
        <time>2022-09-06T05:42:54.415Z</time>
      </trkpt>
      <trkpt lat="45.67119" lon="5.49304">
        <ele>209</ele>
        <time>2022-09-06T05:42:55.415Z</time>
      </trkpt>
      <trkpt lat="45.67118" lon="5.49316">
        <ele>209</ele>
        <time>2022-09-06T05:42:56.416Z</time>
      </trkpt>
      <trkpt lat="45.67116" lon="5.49328">
        <ele>209</ele>
        <time>2022-09-06T05:42:57.416Z</time>
      </trkpt>
      <trkpt lat="45.67115" lon="5.49339">
        <ele>209</ele>
        <time>2022-09-06T05:42:58.416Z</time>
      </trkpt>
      <trkpt lat="45.67113" lon="5.49351">
        <ele>209</ele>
        <time>2022-09-06T05:42:59.415Z</time>
      </trkpt>
      <trkpt lat="45.67111" lon="5.49363">
        <ele>210</ele>
        <time>2022-09-06T05:43:00.416Z</time>
      </trkpt>
      <trkpt lat="45.6711" lon="5.49375">
        <ele>210</ele>
        <time>2022-09-06T05:43:01.415Z</time>
      </trkpt>
      <trkpt lat="45.67109" lon="5.49386">
        <ele>210</ele>
        <time>2022-09-06T05:43:02.415Z</time>
      </trkpt>
      <trkpt lat="45.67107" lon="5.49398">
        <ele>210</ele>
        <time>2022-09-06T05:43:03.416Z</time>
      </trkpt>
      <trkpt lat="45.67105" lon="5.4941">
        <ele>209</ele>
        <time>2022-09-06T05:43:04.416Z</time>
      </trkpt>
      <trkpt lat="45.67104" lon="5.49422">
        <ele>210</ele>
        <time>2022-09-06T05:43:05.416Z</time>
      </trkpt>
      <trkpt lat="45.67102" lon="5.49434">
        <ele>210</ele>
        <time>2022-09-06T05:43:06.416Z</time>
      </trkpt>
      <trkpt lat="45.671" lon="5.49446">
        <ele>210</ele>
        <time>2022-09-06T05:43:07.416Z</time>
      </trkpt>
      <trkpt lat="45.67099" lon="5.49457">
        <ele>210</ele>
        <time>2022-09-06T05:43:08.416Z</time>
      </trkpt>
      <trkpt lat="45.67097" lon="5.49469">
        <ele>210</ele>
        <time>2022-09-06T05:43:09.416Z</time>
      </trkpt>
      <trkpt lat="45.67095" lon="5.49481">
        <ele>210</ele>
        <time>2022-09-06T05:43:10.416Z</time>
      </trkpt>
      <trkpt lat="45.67094" lon="5.49493">
        <ele>210</ele>
        <time>2022-09-06T05:43:11.415Z</time>
      </trkpt>
      <trkpt lat="45.67092" lon="5.49505">
        <ele>210</ele>
        <time>2022-09-06T05:43:12.416Z</time>
      </trkpt>
      <trkpt lat="45.6709" lon="5.49519">
        <ele>210</ele>
        <time>2022-09-06T05:43:13.416Z</time>
      </trkpt>
      <trkpt lat="45.67089" lon="5.49531">
        <ele>211</ele>
        <time>2022-09-06T05:43:14.415Z</time>
      </trkpt>
      <trkpt lat="45.67088" lon="5.49541">
        <ele>211</ele>
        <time>2022-09-06T05:43:15.415Z</time>
      </trkpt>
      <trkpt lat="45.67086" lon="5.49556">
        <ele>211</ele>
        <time>2022-09-06T05:43:16.416Z</time>
      </trkpt>
      <trkpt lat="45.67085" lon="5.49566">
        <ele>211</ele>
        <time>2022-09-06T05:43:17.416Z</time>
      </trkpt>
      <trkpt lat="45.67083" lon="5.4958">
        <ele>210</ele>
        <time>2022-09-06T05:43:18.416Z</time>
      </trkpt>
      <trkpt lat="45.67082" lon="5.4959">
        <ele>209</ele>
        <time>2022-09-06T05:43:19.416Z</time>
      </trkpt>
      <trkpt lat="45.67081" lon="5.49602">
        <ele>208</ele>
        <time>2022-09-06T05:43:20.415Z</time>
      </trkpt>
      <trkpt lat="45.67079" lon="5.49617">
        <ele>208</ele>
        <time>2022-09-06T05:43:21.416Z</time>
      </trkpt>
      <trkpt lat="45.67078" lon="5.49629">
        <ele>208</ele>
        <time>2022-09-06T05:43:22.416Z</time>
      </trkpt>
      <trkpt lat="45.67078" lon="5.49638">
        <ele>208</ele>
        <time>2022-09-06T05:43:23.416Z</time>
      </trkpt>
      <trkpt lat="45.67077" lon="5.4965">
        <ele>208</ele>
        <time>2022-09-06T05:43:24.416Z</time>
      </trkpt>
      <trkpt lat="45.67076" lon="5.49664">
        <ele>208</ele>
        <time>2022-09-06T05:43:25.416Z</time>
      </trkpt>
      <trkpt lat="45.67075" lon="5.49676">
        <ele>209</ele>
        <time>2022-09-06T05:43:26.416Z</time>
      </trkpt>
      <trkpt lat="45.67075" lon="5.49687">
        <ele>209</ele>
        <time>2022-09-06T05:43:27.415Z</time>
      </trkpt>
      <trkpt lat="45.67074" lon="5.49697">
        <ele>209</ele>
        <time>2022-09-06T05:43:28.415Z</time>
      </trkpt>
      <trkpt lat="45.67073" lon="5.49708">
        <ele>209</ele>
        <time>2022-09-06T05:43:29.416Z</time>
      </trkpt>
      <trkpt lat="45.67072" lon="5.49722">
        <ele>209</ele>
        <time>2022-09-06T05:43:30.416Z</time>
      </trkpt>
      <trkpt lat="45.67071" lon="5.49733">
        <ele>208</ele>
        <time>2022-09-06T05:43:31.415Z</time>
      </trkpt>
      <trkpt lat="45.67071" lon="5.49743">
        <ele>208</ele>
        <time>2022-09-06T05:43:32.416Z</time>
      </trkpt>
      <trkpt lat="45.6707" lon="5.49754">
        <ele>208</ele>
        <time>2022-09-06T05:43:33.415Z</time>
      </trkpt>
      <trkpt lat="45.67069" lon="5.49766">
        <ele>209</ele>
        <time>2022-09-06T05:43:34.416Z</time>
      </trkpt>
      <trkpt lat="45.67068" lon="5.49777">
        <ele>209</ele>
        <time>2022-09-06T05:43:35.416Z</time>
      </trkpt>
      <trkpt lat="45.67067" lon="5.4979">
        <ele>209</ele>
        <time>2022-09-06T05:43:36.416Z</time>
      </trkpt>
      <trkpt lat="45.67067" lon="5.49799">
        <ele>209</ele>
        <time>2022-09-06T05:43:37.416Z</time>
      </trkpt>
      <trkpt lat="45.67066" lon="5.49811">
        <ele>209</ele>
        <time>2022-09-06T05:43:38.415Z</time>
      </trkpt>
      <trkpt lat="45.67065" lon="5.49824">
        <ele>209</ele>
        <time>2022-09-06T05:43:39.415Z</time>
      </trkpt>
      <trkpt lat="45.67064" lon="5.49833">
        <ele>209</ele>
        <time>2022-09-06T05:43:40.416Z</time>
      </trkpt>
      <trkpt lat="45.67064" lon="5.49844">
        <ele>209</ele>
        <time>2022-09-06T05:43:41.416Z</time>
      </trkpt>
      <trkpt lat="45.67063" lon="5.49856">
        <ele>209</ele>
        <time>2022-09-06T05:43:42.416Z</time>
      </trkpt>
      <trkpt lat="45.67063" lon="5.49867">
        <ele>208</ele>
        <time>2022-09-06T05:43:43.416Z</time>
      </trkpt>
      <trkpt lat="45.67062" lon="5.4988">
        <ele>209</ele>
        <time>2022-09-06T05:43:44.416Z</time>
      </trkpt>
      <trkpt lat="45.67061" lon="5.49889">
        <ele>209</ele>
        <time>2022-09-06T05:43:45.416Z</time>
      </trkpt>
      <trkpt lat="45.67061" lon="5.49901">
        <ele>209</ele>
        <time>2022-09-06T05:43:46.416Z</time>
      </trkpt>
      <trkpt lat="45.6706" lon="5.49912">
        <ele>209</ele>
        <time>2022-09-06T05:43:47.416Z</time>
      </trkpt>
      <trkpt lat="45.67059" lon="5.49926">
        <ele>209</ele>
        <time>2022-09-06T05:43:48.416Z</time>
      </trkpt>
      <trkpt lat="45.67058" lon="5.49935">
        <ele>209</ele>
        <time>2022-09-06T05:43:49.415Z</time>
      </trkpt>
      <trkpt lat="45.67057" lon="5.49946">
        <ele>209</ele>
        <time>2022-09-06T05:43:50.416Z</time>
      </trkpt>
      <trkpt lat="45.67056" lon="5.49957">
        <ele>209</ele>
        <time>2022-09-06T05:43:51.416Z</time>
      </trkpt>
      <trkpt lat="45.67055" lon="5.49969">
        <ele>208</ele>
        <time>2022-09-06T05:43:52.416Z</time>
      </trkpt>
      <trkpt lat="45.67054" lon="5.49982">
        <ele>208</ele>
        <time>2022-09-06T05:43:53.416Z</time>
      </trkpt>
      <trkpt lat="45.67053" lon="5.49992">
        <ele>209</ele>
        <time>2022-09-06T05:43:54.416Z</time>
      </trkpt>
      <trkpt lat="45.67053" lon="5.50006">
        <ele>209</ele>
        <time>2022-09-06T05:43:55.416Z</time>
      </trkpt>
      <trkpt lat="45.67052" lon="5.50015">
        <ele>209</ele>
        <time>2022-09-06T05:43:56.415Z</time>
      </trkpt>
      <trkpt lat="45.67051" lon="5.50026">
        <ele>208</ele>
        <time>2022-09-06T05:43:57.416Z</time>
      </trkpt>
      <trkpt lat="45.6705" lon="5.5004">
        <ele>208</ele>
        <time>2022-09-06T05:43:58.416Z</time>
      </trkpt>
      <trkpt lat="45.6705" lon="5.5005">
        <ele>208</ele>
        <time>2022-09-06T05:43:59.416Z</time>
      </trkpt>
      <trkpt lat="45.67049" lon="5.50061">
        <ele>208</ele>
        <time>2022-09-06T05:44:00.416Z</time>
      </trkpt>
      <trkpt lat="45.67048" lon="5.50073">
        <ele>208</ele>
        <time>2022-09-06T05:44:01.415Z</time>
      </trkpt>
      <trkpt lat="45.67048" lon="5.50085">
        <ele>208</ele>
        <time>2022-09-06T05:44:02.415Z</time>
      </trkpt>
      <trkpt lat="45.67047" lon="5.50096">
        <ele>208</ele>
        <time>2022-09-06T05:44:03.416Z</time>
      </trkpt>
      <trkpt lat="45.67046" lon="5.5011">
        <ele>208</ele>
        <time>2022-09-06T05:44:04.415Z</time>
      </trkpt>
      <trkpt lat="45.67045" lon="5.50122">
        <ele>208</ele>
        <time>2022-09-06T05:44:05.415Z</time>
      </trkpt>
      <trkpt lat="45.67044" lon="5.50131">
        <ele>208</ele>
        <time>2022-09-06T05:44:06.416Z</time>
      </trkpt>
      <trkpt lat="45.67044" lon="5.50145">
        <ele>209</ele>
        <time>2022-09-06T05:44:07.415Z</time>
      </trkpt>
      <trkpt lat="45.67043" lon="5.50157">
        <ele>209</ele>
        <time>2022-09-06T05:44:08.415Z</time>
      </trkpt>
      <trkpt lat="45.67042" lon="5.50168">
        <ele>209</ele>
        <time>2022-09-06T05:44:09.416Z</time>
      </trkpt>
      <trkpt lat="45.67041" lon="5.50178">
        <ele>209</ele>
        <time>2022-09-06T05:44:10.415Z</time>
      </trkpt>
      <trkpt lat="45.6704" lon="5.50189">
        <ele>210</ele>
        <time>2022-09-06T05:44:11.416Z</time>
      </trkpt>
      <trkpt lat="45.67039" lon="5.50201">
        <ele>210</ele>
        <time>2022-09-06T05:44:12.416Z</time>
      </trkpt>
      <trkpt lat="45.67038" lon="5.50215">
        <ele>210</ele>
        <time>2022-09-06T05:44:13.416Z</time>
      </trkpt>
      <trkpt lat="45.67038" lon="5.50227">
        <ele>210</ele>
        <time>2022-09-06T05:44:14.416Z</time>
      </trkpt>
      <trkpt lat="45.67037" lon="5.50236">
        <ele>210</ele>
        <time>2022-09-06T05:44:15.416Z</time>
      </trkpt>
      <trkpt lat="45.67036" lon="5.50248">
        <ele>210</ele>
        <time>2022-09-06T05:44:16.415Z</time>
      </trkpt>
      <trkpt lat="45.67035" lon="5.5026">
        <ele>210</ele>
        <time>2022-09-06T05:44:17.415Z</time>
      </trkpt>
      <trkpt lat="45.67034" lon="5.50274">
        <ele>210</ele>
        <time>2022-09-06T05:44:18.416Z</time>
      </trkpt>
      <trkpt lat="45.67033" lon="5.50286">
        <ele>210</ele>
        <time>2022-09-06T05:44:19.416Z</time>
      </trkpt>
      <trkpt lat="45.67032" lon="5.50295">
        <ele>209</ele>
        <time>2022-09-06T05:44:20.416Z</time>
      </trkpt>
      <trkpt lat="45.67032" lon="5.50307">
        <ele>209</ele>
        <time>2022-09-06T05:44:21.416Z</time>
      </trkpt>
      <trkpt lat="45.67031" lon="5.50321">
        <ele>210</ele>
        <time>2022-09-06T05:44:22.415Z</time>
      </trkpt>
      <trkpt lat="45.6703" lon="5.5033">
        <ele>210</ele>
        <time>2022-09-06T05:44:23.415Z</time>
      </trkpt>
      <trkpt lat="45.67029" lon="5.50342">
        <ele>210</ele>
        <time>2022-09-06T05:44:24.416Z</time>
      </trkpt>
      <trkpt lat="45.67029" lon="5.50353">
        <ele>210</ele>
        <time>2022-09-06T05:44:25.416Z</time>
      </trkpt>
      <trkpt lat="45.67028" lon="5.50367">
        <ele>210</ele>
        <time>2022-09-06T05:44:26.415Z</time>
      </trkpt>
      <trkpt lat="45.67027" lon="5.50379">
        <ele>210</ele>
        <time>2022-09-06T05:44:27.415Z</time>
      </trkpt>
      <trkpt lat="45.67026" lon="5.50388">
        <ele>210</ele>
        <time>2022-09-06T05:44:28.416Z</time>
      </trkpt>
      <trkpt lat="45.67025" lon="5.50399">
        <ele>210</ele>
        <time>2022-09-06T05:44:29.416Z</time>
      </trkpt>
      <trkpt lat="45.67024" lon="5.50413">
        <ele>210</ele>
        <time>2022-09-06T05:44:30.415Z</time>
      </trkpt>
      <trkpt lat="45.67023" lon="5.50424">
        <ele>211</ele>
        <time>2022-09-06T05:44:31.416Z</time>
      </trkpt>
      <trkpt lat="45.67023" lon="5.50433">
        <ele>211</ele>
        <time>2022-09-06T05:44:32.415Z</time>
      </trkpt>
      <trkpt lat="45.67022" lon="5.50443">
        <ele>211</ele>
        <time>2022-09-06T05:44:33.416Z</time>
      </trkpt>
      <trkpt lat="45.67021" lon="5.50454">
        <ele>211</ele>
        <time>2022-09-06T05:44:34.416Z</time>
      </trkpt>
      <trkpt lat="45.6702" lon="5.50467">
        <ele>211</ele>
        <time>2022-09-06T05:44:35.415Z</time>
      </trkpt>
      <trkpt lat="45.67019" lon="5.50478">
        <ele>211</ele>
        <time>2022-09-06T05:44:36.416Z</time>
      </trkpt>
      <trkpt lat="45.67018" lon="5.50489">
        <ele>211</ele>
        <time>2022-09-06T05:44:37.415Z</time>
      </trkpt>
      <trkpt lat="45.67018" lon="5.50498">
        <ele>211</ele>
        <time>2022-09-06T05:44:38.415Z</time>
      </trkpt>
      <trkpt lat="45.67017" lon="5.50509">
        <ele>211</ele>
        <time>2022-09-06T05:44:39.416Z</time>
      </trkpt>
      <trkpt lat="45.67016" lon="5.50522">
        <ele>211</ele>
        <time>2022-09-06T05:44:40.415Z</time>
      </trkpt>
      <trkpt lat="45.67015" lon="5.50533">
        <ele>211</ele>
        <time>2022-09-06T05:44:41.415Z</time>
      </trkpt>
      <trkpt lat="45.67014" lon="5.50542">
        <ele>211</ele>
        <time>2022-09-06T05:44:42.416Z</time>
      </trkpt>
      <trkpt lat="45.67013" lon="5.50553">
        <ele>211</ele>
        <time>2022-09-06T05:44:43.416Z</time>
      </trkpt>
      <trkpt lat="45.67012" lon="5.50567">
        <ele>211</ele>
        <time>2022-09-06T05:44:44.416Z</time>
      </trkpt>
      <trkpt lat="45.67011" lon="5.50579">
        <ele>210</ele>
        <time>2022-09-06T05:44:45.416Z</time>
      </trkpt>
      <trkpt lat="45.6701" lon="5.50591">
        <ele>210</ele>
        <time>2022-09-06T05:44:46.416Z</time>
      </trkpt>
      <trkpt lat="45.6701" lon="5.506">
        <ele>210</ele>
        <time>2022-09-06T05:44:47.415Z</time>
      </trkpt>
      <trkpt lat="45.67009" lon="5.50612">
        <ele>210</ele>
        <time>2022-09-06T05:44:48.416Z</time>
      </trkpt>
      <trkpt lat="45.67008" lon="5.50624">
        <ele>210</ele>
        <time>2022-09-06T05:44:49.415Z</time>
      </trkpt>
      <trkpt lat="45.67007" lon="5.50639">
        <ele>210</ele>
        <time>2022-09-06T05:44:50.416Z</time>
      </trkpt>
      <trkpt lat="45.67007" lon="5.50651">
        <ele>210</ele>
        <time>2022-09-06T05:44:51.415Z</time>
      </trkpt>
      <trkpt lat="45.67007" lon="5.50661">
        <ele>209</ele>
        <time>2022-09-06T05:44:52.415Z</time>
      </trkpt>
      <trkpt lat="45.67007" lon="5.50673">
        <ele>209</ele>
        <time>2022-09-06T05:44:53.415Z</time>
      </trkpt>
      <trkpt lat="45.67007" lon="5.50687">
        <ele>209</ele>
        <time>2022-09-06T05:44:54.416Z</time>
      </trkpt>
      <trkpt lat="45.67008" lon="5.50699">
        <ele>209</ele>
        <time>2022-09-06T05:44:55.415Z</time>
      </trkpt>
      <trkpt lat="45.67008" lon="5.50709">
        <ele>208</ele>
        <time>2022-09-06T05:44:56.416Z</time>
      </trkpt>
      <trkpt lat="45.67009" lon="5.50721">
        <ele>208</ele>
        <time>2022-09-06T05:44:57.416Z</time>
      </trkpt>
      <trkpt lat="45.6701" lon="5.50735">
        <ele>208</ele>
        <time>2022-09-06T05:44:58.416Z</time>
      </trkpt>
      <trkpt lat="45.67012" lon="5.50747">
        <ele>208</ele>
        <time>2022-09-06T05:44:59.416Z</time>
      </trkpt>
      <trkpt lat="45.67013" lon="5.50758">
        <ele>208</ele>
        <time>2022-09-06T05:45:00.415Z</time>
      </trkpt>
      <trkpt lat="45.67014" lon="5.50768">
        <ele>208</ele>
        <time>2022-09-06T05:45:01.416Z</time>
      </trkpt>
      <trkpt lat="45.67016" lon="5.50779">
        <ele>208</ele>
        <time>2022-09-06T05:45:02.415Z</time>
      </trkpt>
      <trkpt lat="45.67018" lon="5.50794">
        <ele>208</ele>
        <time>2022-09-06T05:45:03.416Z</time>
      </trkpt>
      <trkpt lat="45.6702" lon="5.50805">
        <ele>207</ele>
        <time>2022-09-06T05:45:04.416Z</time>
      </trkpt>
      <trkpt lat="45.67022" lon="5.50817">
        <ele>207</ele>
        <time>2022-09-06T05:45:05.416Z</time>
      </trkpt>
      <trkpt lat="45.67023" lon="5.50826">
        <ele>207</ele>
        <time>2022-09-06T05:45:06.416Z</time>
      </trkpt>
      <trkpt lat="45.67026" lon="5.5084">
        <ele>207</ele>
        <time>2022-09-06T05:45:07.416Z</time>
      </trkpt>
      <trkpt lat="45.67028" lon="5.50851">
        <ele>207</ele>
        <time>2022-09-06T05:45:08.415Z</time>
      </trkpt>
      <trkpt lat="45.6703" lon="5.50863">
        <ele>207</ele>
        <time>2022-09-06T05:45:09.415Z</time>
      </trkpt>
      <trkpt lat="45.67031" lon="5.50872">
        <ele>208</ele>
        <time>2022-09-06T05:45:10.416Z</time>
      </trkpt>
      <trkpt lat="45.67033" lon="5.50883">
        <ele>207</ele>
        <time>2022-09-06T05:45:11.416Z</time>
      </trkpt>
      <trkpt lat="45.67035" lon="5.50896">
        <ele>208</ele>
        <time>2022-09-06T05:45:12.415Z</time>
      </trkpt>
      <trkpt lat="45.67037" lon="5.50905">
        <ele>208</ele>
        <time>2022-09-06T05:45:13.416Z</time>
      </trkpt>
      <trkpt lat="45.67039" lon="5.50917">
        <ele>207</ele>
        <time>2022-09-06T05:45:14.415Z</time>
      </trkpt>
      <trkpt lat="45.67041" lon="5.50928">
        <ele>207</ele>
        <time>2022-09-06T05:45:15.416Z</time>
      </trkpt>
      <trkpt lat="45.67042" lon="5.50939">
        <ele>207</ele>
        <time>2022-09-06T05:45:16.416Z</time>
      </trkpt>
      <trkpt lat="45.67044" lon="5.50951">
        <ele>207</ele>
        <time>2022-09-06T05:45:17.416Z</time>
      </trkpt>
      <trkpt lat="45.67046" lon="5.50962">
        <ele>208</ele>
        <time>2022-09-06T05:45:18.416Z</time>
      </trkpt>
      <trkpt lat="45.67048" lon="5.50974">
        <ele>208</ele>
        <time>2022-09-06T05:45:19.416Z</time>
      </trkpt>
      <trkpt lat="45.6705" lon="5.50985">
        <ele>209</ele>
        <time>2022-09-06T05:45:20.416Z</time>
      </trkpt>
      <trkpt lat="45.67052" lon="5.50997">
        <ele>209</ele>
        <time>2022-09-06T05:45:21.415Z</time>
      </trkpt>
      <trkpt lat="45.67054" lon="5.51008">
        <ele>209</ele>
        <time>2022-09-06T05:45:22.416Z</time>
      </trkpt>
      <trkpt lat="45.67056" lon="5.5102">
        <ele>209</ele>
        <time>2022-09-06T05:45:23.416Z</time>
      </trkpt>
      <trkpt lat="45.67058" lon="5.51031">
        <ele>209</ele>
        <time>2022-09-06T05:45:24.415Z</time>
      </trkpt>
      <trkpt lat="45.6706" lon="5.51045">
        <ele>209</ele>
        <time>2022-09-06T05:45:25.416Z</time>
      </trkpt>
      <trkpt lat="45.67062" lon="5.51056">
        <ele>209</ele>
        <time>2022-09-06T05:45:26.416Z</time>
      </trkpt>
      <trkpt lat="45.67063" lon="5.51068">
        <ele>209</ele>
        <time>2022-09-06T05:45:27.415Z</time>
      </trkpt>
      <trkpt lat="45.67065" lon="5.51079">
        <ele>209</ele>
        <time>2022-09-06T05:45:28.415Z</time>
      </trkpt>
      <trkpt lat="45.67067" lon="5.51091">
        <ele>209</ele>
        <time>2022-09-06T05:45:29.416Z</time>
      </trkpt>
      <trkpt lat="45.67069" lon="5.511">
        <ele>209</ele>
        <time>2022-09-06T05:45:30.416Z</time>
      </trkpt>
      <trkpt lat="45.67071" lon="5.51114">
        <ele>209</ele>
        <time>2022-09-06T05:45:31.415Z</time>
      </trkpt>
      <trkpt lat="45.67072" lon="5.51125">
        <ele>209</ele>
        <time>2022-09-06T05:45:32.415Z</time>
      </trkpt>
      <trkpt lat="45.67074" lon="5.51134">
        <ele>209</ele>
        <time>2022-09-06T05:45:33.416Z</time>
      </trkpt>
      <trkpt lat="45.67075" lon="5.51146">
        <ele>209</ele>
        <time>2022-09-06T05:45:34.416Z</time>
      </trkpt>
      <trkpt lat="45.67078" lon="5.5116">
        <ele>210</ele>
        <time>2022-09-06T05:45:35.416Z</time>
      </trkpt>
      <trkpt lat="45.67079" lon="5.51169">
        <ele>210</ele>
        <time>2022-09-06T05:45:36.415Z</time>
      </trkpt>
      <trkpt lat="45.67081" lon="5.51182">
        <ele>210</ele>
        <time>2022-09-06T05:45:37.416Z</time>
      </trkpt>
      <trkpt lat="45.67083" lon="5.51194">
        <ele>209</ele>
        <time>2022-09-06T05:45:38.416Z</time>
      </trkpt>
      <trkpt lat="45.67084" lon="5.51203">
        <ele>209</ele>
        <time>2022-09-06T05:45:39.416Z</time>
      </trkpt>
      <trkpt lat="45.67087" lon="5.51217">
        <ele>209</ele>
        <time>2022-09-06T05:45:40.416Z</time>
      </trkpt>
      <trkpt lat="45.67088" lon="5.51228">
        <ele>209</ele>
        <time>2022-09-06T05:45:41.416Z</time>
      </trkpt>
      <trkpt lat="45.6709" lon="5.51239">
        <ele>209</ele>
        <time>2022-09-06T05:45:42.416Z</time>
      </trkpt>
      <trkpt lat="45.67092" lon="5.51251">
        <ele>208</ele>
        <time>2022-09-06T05:45:43.416Z</time>
      </trkpt>
      <trkpt lat="45.67093" lon="5.51262">
        <ele>208</ele>
        <time>2022-09-06T05:45:44.416Z</time>
      </trkpt>
      <trkpt lat="45.67095" lon="5.51274">
        <ele>208</ele>
        <time>2022-09-06T05:45:45.415Z</time>
      </trkpt>
      <trkpt lat="45.67097" lon="5.51286">
        <ele>208</ele>
        <time>2022-09-06T05:45:46.416Z</time>
      </trkpt>
      <trkpt lat="45.67098" lon="5.51297">
        <ele>208</ele>
        <time>2022-09-06T05:45:47.415Z</time>
      </trkpt>
      <trkpt lat="45.671" lon="5.51308">
        <ele>208</ele>
        <time>2022-09-06T05:45:48.416Z</time>
      </trkpt>
      <trkpt lat="45.67102" lon="5.5132">
        <ele>207</ele>
        <time>2022-09-06T05:45:49.416Z</time>
      </trkpt>
      <trkpt lat="45.67104" lon="5.51331">
        <ele>207</ele>
        <time>2022-09-06T05:45:50.416Z</time>
      </trkpt>
      <trkpt lat="45.67106" lon="5.51343">
        <ele>207</ele>
        <time>2022-09-06T05:45:51.416Z</time>
      </trkpt>
      <trkpt lat="45.67107" lon="5.51354">
        <ele>207</ele>
        <time>2022-09-06T05:45:52.416Z</time>
      </trkpt>
      <trkpt lat="45.67108" lon="5.51363">
        <ele>207</ele>
        <time>2022-09-06T05:45:53.416Z</time>
      </trkpt>
      <trkpt lat="45.6711" lon="5.51377">
        <ele>208</ele>
        <time>2022-09-06T05:45:54.416Z</time>
      </trkpt>
      <trkpt lat="45.67111" lon="5.51388">
        <ele>208</ele>
        <time>2022-09-06T05:45:55.416Z</time>
      </trkpt>
      <trkpt lat="45.67112" lon="5.514">
        <ele>207</ele>
        <time>2022-09-06T05:45:56.416Z</time>
      </trkpt>
      <trkpt lat="45.67113" lon="5.51409">
        <ele>208</ele>
        <time>2022-09-06T05:45:57.415Z</time>
      </trkpt>
      <trkpt lat="45.67113" lon="5.5142">
        <ele>208</ele>
        <time>2022-09-06T05:45:58.416Z</time>
      </trkpt>
      <trkpt lat="45.67114" lon="5.51432">
        <ele>208</ele>
        <time>2022-09-06T05:45:59.416Z</time>
      </trkpt>
      <trkpt lat="45.67114" lon="5.51446">
        <ele>208</ele>
        <time>2022-09-06T05:46:00.416Z</time>
      </trkpt>
      <trkpt lat="45.67114" lon="5.51457">
        <ele>208</ele>
        <time>2022-09-06T05:46:01.415Z</time>
      </trkpt>
      <trkpt lat="45.67113" lon="5.51467">
        <ele>209</ele>
        <time>2022-09-06T05:46:02.416Z</time>
      </trkpt>
      <trkpt lat="45.67113" lon="5.51478">
        <ele>209</ele>
        <time>2022-09-06T05:46:03.416Z</time>
      </trkpt>
      <trkpt lat="45.67112" lon="5.5149">
        <ele>209</ele>
        <time>2022-09-06T05:46:04.416Z</time>
      </trkpt>
      <trkpt lat="45.67112" lon="5.51501">
        <ele>210</ele>
        <time>2022-09-06T05:46:05.415Z</time>
      </trkpt>
      <trkpt lat="45.67111" lon="5.51512">
        <ele>210</ele>
        <time>2022-09-06T05:46:06.415Z</time>
      </trkpt>
      <trkpt lat="45.6711" lon="5.51523">
        <ele>210</ele>
        <time>2022-09-06T05:46:07.416Z</time>
      </trkpt>
      <trkpt lat="45.67109" lon="5.51534">
        <ele>210</ele>
        <time>2022-09-06T05:46:08.416Z</time>
      </trkpt>
      <trkpt lat="45.67108" lon="5.51545">
        <ele>211</ele>
        <time>2022-09-06T05:46:09.416Z</time>
      </trkpt>
      <trkpt lat="45.67107" lon="5.51556">
        <ele>211</ele>
        <time>2022-09-06T05:46:10.416Z</time>
      </trkpt>
      <trkpt lat="45.67105" lon="5.51567">
        <ele>210</ele>
        <time>2022-09-06T05:46:11.416Z</time>
      </trkpt>
      <trkpt lat="45.67104" lon="5.51578">
        <ele>210</ele>
        <time>2022-09-06T05:46:12.415Z</time>
      </trkpt>
      <trkpt lat="45.67103" lon="5.51589">
        <ele>210</ele>
        <time>2022-09-06T05:46:13.416Z</time>
      </trkpt>
      <trkpt lat="45.67102" lon="5.516">
        <ele>210</ele>
        <time>2022-09-06T05:46:14.416Z</time>
      </trkpt>
      <trkpt lat="45.671" lon="5.51611">
        <ele>210</ele>
        <time>2022-09-06T05:46:15.415Z</time>
      </trkpt>
      <trkpt lat="45.67099" lon="5.51622">
        <ele>210</ele>
        <time>2022-09-06T05:46:16.416Z</time>
      </trkpt>
      <trkpt lat="45.67098" lon="5.51633">
        <ele>210</ele>
        <time>2022-09-06T05:46:17.416Z</time>
      </trkpt>
      <trkpt lat="45.67096" lon="5.51645">
        <ele>210</ele>
        <time>2022-09-06T05:46:18.416Z</time>
      </trkpt>
      <trkpt lat="45.67095" lon="5.51656">
        <ele>211</ele>
        <time>2022-09-06T05:46:19.416Z</time>
      </trkpt>
      <trkpt lat="45.67094" lon="5.51666">
        <ele>211</ele>
        <time>2022-09-06T05:46:20.416Z</time>
      </trkpt>
      <trkpt lat="45.67093" lon="5.51677">
        <ele>211</ele>
        <time>2022-09-06T05:46:21.416Z</time>
      </trkpt>
      <trkpt lat="45.67092" lon="5.51688">
        <ele>211</ele>
        <time>2022-09-06T05:46:22.416Z</time>
      </trkpt>
      <trkpt lat="45.67091" lon="5.51699">
        <ele>212</ele>
        <time>2022-09-06T05:46:23.415Z</time>
      </trkpt>
      <trkpt lat="45.67089" lon="5.5171">
        <ele>212</ele>
        <time>2022-09-06T05:46:24.416Z</time>
      </trkpt>
      <trkpt lat="45.67088" lon="5.51721">
        <ele>212</ele>
        <time>2022-09-06T05:46:25.416Z</time>
      </trkpt>
      <trkpt lat="45.67087" lon="5.51732">
        <ele>212</ele>
        <time>2022-09-06T05:46:26.416Z</time>
      </trkpt>
      <trkpt lat="45.67086" lon="5.51742">
        <ele>212</ele>
        <time>2022-09-06T05:46:27.416Z</time>
      </trkpt>
      <trkpt lat="45.67085" lon="5.51753">
        <ele>212</ele>
        <time>2022-09-06T05:46:28.416Z</time>
      </trkpt>
      <trkpt lat="45.67084" lon="5.51764">
        <ele>212</ele>
        <time>2022-09-06T05:46:29.415Z</time>
      </trkpt>
      <trkpt lat="45.67083" lon="5.51775">
        <ele>212</ele>
        <time>2022-09-06T05:46:30.416Z</time>
      </trkpt>
      <trkpt lat="45.67081" lon="5.51786">
        <ele>212</ele>
        <time>2022-09-06T05:46:31.416Z</time>
      </trkpt>
      <trkpt lat="45.6708" lon="5.51797">
        <ele>212</ele>
        <time>2022-09-06T05:46:32.416Z</time>
      </trkpt>
      <trkpt lat="45.67079" lon="5.51807">
        <ele>212</ele>
        <time>2022-09-06T05:46:33.416Z</time>
      </trkpt>
      <trkpt lat="45.67078" lon="5.51818">
        <ele>212</ele>
        <time>2022-09-06T05:46:34.416Z</time>
      </trkpt>
      <trkpt lat="45.67076" lon="5.51828">
        <ele>211</ele>
        <time>2022-09-06T05:46:35.416Z</time>
      </trkpt>
      <trkpt lat="45.67075" lon="5.51839">
        <ele>211</ele>
        <time>2022-09-06T05:46:36.416Z</time>
      </trkpt>
      <trkpt lat="45.67074" lon="5.5185">
        <ele>211</ele>
        <time>2022-09-06T05:46:37.415Z</time>
      </trkpt>
      <trkpt lat="45.67073" lon="5.51861">
        <ele>211</ele>
        <time>2022-09-06T05:46:38.416Z</time>
      </trkpt>
      <trkpt lat="45.67072" lon="5.51872">
        <ele>212</ele>
        <time>2022-09-06T05:46:39.416Z</time>
      </trkpt>
      <trkpt lat="45.6707" lon="5.51883">
        <ele>212</ele>
        <time>2022-09-06T05:46:40.416Z</time>
      </trkpt>
      <trkpt lat="45.67069" lon="5.51894">
        <ele>212</ele>
        <time>2022-09-06T05:46:41.416Z</time>
      </trkpt>
      <trkpt lat="45.67068" lon="5.51905">
        <ele>213</ele>
        <time>2022-09-06T05:46:42.416Z</time>
      </trkpt>
      <trkpt lat="45.67067" lon="5.51916">
        <ele>213</ele>
        <time>2022-09-06T05:46:43.416Z</time>
      </trkpt>
      <trkpt lat="45.67066" lon="5.51927">
        <ele>213</ele>
        <time>2022-09-06T05:46:44.416Z</time>
      </trkpt>
      <trkpt lat="45.67064" lon="5.51938">
        <ele>213</ele>
        <time>2022-09-06T05:46:45.416Z</time>
      </trkpt>
      <trkpt lat="45.67063" lon="5.51949">
        <ele>213</ele>
        <time>2022-09-06T05:46:46.415Z</time>
      </trkpt>
      <trkpt lat="45.67062" lon="5.5196">
        <ele>213</ele>
        <time>2022-09-06T05:46:47.416Z</time>
      </trkpt>
      <trkpt lat="45.67061" lon="5.51971">
        <ele>213</ele>
        <time>2022-09-06T05:46:48.416Z</time>
      </trkpt>
      <trkpt lat="45.67059" lon="5.51982">
        <ele>213</ele>
        <time>2022-09-06T05:46:49.416Z</time>
      </trkpt>
      <trkpt lat="45.67058" lon="5.51993">
        <ele>212</ele>
        <time>2022-09-06T05:46:50.416Z</time>
      </trkpt>
      <trkpt lat="45.67057" lon="5.52004">
        <ele>212</ele>
        <time>2022-09-06T05:46:51.416Z</time>
      </trkpt>
      <trkpt lat="45.67056" lon="5.52016">
        <ele>212</ele>
        <time>2022-09-06T05:46:52.416Z</time>
      </trkpt>
      <trkpt lat="45.67054" lon="5.52027">
        <ele>211</ele>
        <time>2022-09-06T05:46:53.416Z</time>
      </trkpt>
      <trkpt lat="45.67053" lon="5.52039">
        <ele>211</ele>
        <time>2022-09-06T05:46:54.416Z</time>
      </trkpt>
      <trkpt lat="45.67052" lon="5.5205">
        <ele>211</ele>
        <time>2022-09-06T05:46:55.416Z</time>
      </trkpt>
      <trkpt lat="45.67051" lon="5.52061">
        <ele>211</ele>
        <time>2022-09-06T05:46:56.416Z</time>
      </trkpt>
      <trkpt lat="45.6705" lon="5.52072">
        <ele>211</ele>
        <time>2022-09-06T05:46:57.416Z</time>
      </trkpt>
      <trkpt lat="45.67048" lon="5.52083">
        <ele>211</ele>
        <time>2022-09-06T05:46:58.416Z</time>
      </trkpt>
      <trkpt lat="45.67047" lon="5.52094">
        <ele>211</ele>
        <time>2022-09-06T05:46:59.416Z</time>
      </trkpt>
      <trkpt lat="45.67046" lon="5.52105">
        <ele>211</ele>
        <time>2022-09-06T05:47:00.416Z</time>
      </trkpt>
      <trkpt lat="45.67044" lon="5.52116">
        <ele>210</ele>
        <time>2022-09-06T05:47:01.415Z</time>
      </trkpt>
      <trkpt lat="45.67043" lon="5.52128">
        <ele>210</ele>
        <time>2022-09-06T05:47:02.416Z</time>
      </trkpt>
      <trkpt lat="45.67042" lon="5.52139">
        <ele>209</ele>
        <time>2022-09-06T05:47:03.416Z</time>
      </trkpt>
      <trkpt lat="45.6704" lon="5.5215">
        <ele>209</ele>
        <time>2022-09-06T05:47:04.415Z</time>
      </trkpt>
      <trkpt lat="45.67039" lon="5.52162">
        <ele>209</ele>
        <time>2022-09-06T05:47:05.415Z</time>
      </trkpt>
      <trkpt lat="45.67038" lon="5.52173">
        <ele>209</ele>
        <time>2022-09-06T05:47:06.415Z</time>
      </trkpt>
      <trkpt lat="45.67037" lon="5.52184">
        <ele>209</ele>
        <time>2022-09-06T05:47:07.415Z</time>
      </trkpt>
      <trkpt lat="45.67036" lon="5.52195">
        <ele>209</ele>
        <time>2022-09-06T05:47:08.416Z</time>
      </trkpt>
      <trkpt lat="45.67035" lon="5.52206">
        <ele>209</ele>
        <time>2022-09-06T05:47:09.415Z</time>
      </trkpt>
      <trkpt lat="45.67034" lon="5.52217">
        <ele>210</ele>
        <time>2022-09-06T05:47:10.416Z</time>
      </trkpt>
      <trkpt lat="45.67033" lon="5.52228">
        <ele>210</ele>
        <time>2022-09-06T05:47:11.416Z</time>
      </trkpt>
      <trkpt lat="45.67032" lon="5.52239">
        <ele>210</ele>
        <time>2022-09-06T05:47:12.416Z</time>
      </trkpt>
      <trkpt lat="45.67031" lon="5.5225">
        <ele>210</ele>
        <time>2022-09-06T05:47:13.416Z</time>
      </trkpt>
      <trkpt lat="45.6703" lon="5.5226">
        <ele>210</ele>
        <time>2022-09-06T05:47:14.415Z</time>
      </trkpt>
      <trkpt lat="45.67029" lon="5.52271">
        <ele>211</ele>
        <time>2022-09-06T05:47:15.416Z</time>
      </trkpt>
      <trkpt lat="45.67028" lon="5.52282">
        <ele>211</ele>
        <time>2022-09-06T05:47:16.415Z</time>
      </trkpt>
      <trkpt lat="45.67026" lon="5.52292">
        <ele>212</ele>
        <time>2022-09-06T05:47:17.415Z</time>
      </trkpt>
      <trkpt lat="45.67025" lon="5.52303">
        <ele>212</ele>
        <time>2022-09-06T05:47:18.415Z</time>
      </trkpt>
      <trkpt lat="45.67024" lon="5.52314">
        <ele>212</ele>
        <time>2022-09-06T05:47:19.416Z</time>
      </trkpt>
      <trkpt lat="45.67024" lon="5.52324">
        <ele>212</ele>
        <time>2022-09-06T05:47:20.415Z</time>
      </trkpt>
      <trkpt lat="45.67022" lon="5.52335">
        <ele>212</ele>
        <time>2022-09-06T05:47:21.416Z</time>
      </trkpt>
      <trkpt lat="45.67021" lon="5.52346">
        <ele>212</ele>
        <time>2022-09-06T05:47:22.415Z</time>
      </trkpt>
      <trkpt lat="45.6702" lon="5.52357">
        <ele>212</ele>
        <time>2022-09-06T05:47:23.415Z</time>
      </trkpt>
      <trkpt lat="45.67019" lon="5.52367">
        <ele>211</ele>
        <time>2022-09-06T05:47:24.416Z</time>
      </trkpt>
      <trkpt lat="45.67018" lon="5.52378">
        <ele>211</ele>
        <time>2022-09-06T05:47:25.416Z</time>
      </trkpt>
      <trkpt lat="45.67017" lon="5.52389">
        <ele>211</ele>
        <time>2022-09-06T05:47:26.416Z</time>
      </trkpt>
      <trkpt lat="45.67016" lon="5.524">
        <ele>211</ele>
        <time>2022-09-06T05:47:27.416Z</time>
      </trkpt>
      <trkpt lat="45.67015" lon="5.52411">
        <ele>211</ele>
        <time>2022-09-06T05:47:28.415Z</time>
      </trkpt>
      <trkpt lat="45.67014" lon="5.52422">
        <ele>211</ele>
        <time>2022-09-06T05:47:29.416Z</time>
      </trkpt>
      <trkpt lat="45.67013" lon="5.52433">
        <ele>211</ele>
        <time>2022-09-06T05:47:30.415Z</time>
      </trkpt>
      <trkpt lat="45.67012" lon="5.52443">
        <ele>210</ele>
        <time>2022-09-06T05:47:31.416Z</time>
      </trkpt>
      <trkpt lat="45.67011" lon="5.52454">
        <ele>210</ele>
        <time>2022-09-06T05:47:32.416Z</time>
      </trkpt>
      <trkpt lat="45.67009" lon="5.52466">
        <ele>210</ele>
        <time>2022-09-06T05:47:33.415Z</time>
      </trkpt>
      <trkpt lat="45.67008" lon="5.52477">
        <ele>210</ele>
        <time>2022-09-06T05:47:34.416Z</time>
      </trkpt>
      <trkpt lat="45.67006" lon="5.52488">
        <ele>210</ele>
        <time>2022-09-06T05:47:35.416Z</time>
      </trkpt>
      <trkpt lat="45.67005" lon="5.52499">
        <ele>210</ele>
        <time>2022-09-06T05:47:36.416Z</time>
      </trkpt>
      <trkpt lat="45.67004" lon="5.5251">
        <ele>209</ele>
        <time>2022-09-06T05:47:37.416Z</time>
      </trkpt>
      <trkpt lat="45.67003" lon="5.52521">
        <ele>209</ele>
        <time>2022-09-06T05:47:38.415Z</time>
      </trkpt>
      <trkpt lat="45.67001" lon="5.52532">
        <ele>209</ele>
        <time>2022-09-06T05:47:39.416Z</time>
      </trkpt>
      <trkpt lat="45.67" lon="5.52543">
        <ele>209</ele>
        <time>2022-09-06T05:47:40.416Z</time>
      </trkpt>
      <trkpt lat="45.66999" lon="5.52555">
        <ele>209</ele>
        <time>2022-09-06T05:47:41.416Z</time>
      </trkpt>
      <trkpt lat="45.66997" lon="5.52566">
        <ele>209</ele>
        <time>2022-09-06T05:47:42.416Z</time>
      </trkpt>
      <trkpt lat="45.66996" lon="5.52577">
        <ele>209</ele>
        <time>2022-09-06T05:47:43.416Z</time>
      </trkpt>
      <trkpt lat="45.66994" lon="5.52588">
        <ele>209</ele>
        <time>2022-09-06T05:47:44.415Z</time>
      </trkpt>
      <trkpt lat="45.66992" lon="5.52599">
        <ele>208</ele>
        <time>2022-09-06T05:47:45.416Z</time>
      </trkpt>
      <trkpt lat="45.66991" lon="5.5261">
        <ele>208</ele>
        <time>2022-09-06T05:47:46.416Z</time>
      </trkpt>
      <trkpt lat="45.6699" lon="5.52621">
        <ele>208</ele>
        <time>2022-09-06T05:47:47.415Z</time>
      </trkpt>
      <trkpt lat="45.66988" lon="5.52632">
        <ele>208</ele>
        <time>2022-09-06T05:47:48.416Z</time>
      </trkpt>
      <trkpt lat="45.66986" lon="5.52643">
        <ele>209</ele>
        <time>2022-09-06T05:47:49.416Z</time>
      </trkpt>
      <trkpt lat="45.66985" lon="5.52655">
        <ele>209</ele>
        <time>2022-09-06T05:47:50.416Z</time>
      </trkpt>
      <trkpt lat="45.66983" lon="5.52666">
        <ele>209</ele>
        <time>2022-09-06T05:47:51.416Z</time>
      </trkpt>
      <trkpt lat="45.66981" lon="5.52677">
        <ele>209</ele>
        <time>2022-09-06T05:47:52.416Z</time>
      </trkpt>
      <trkpt lat="45.66979" lon="5.52688">
        <ele>209</ele>
        <time>2022-09-06T05:47:53.416Z</time>
      </trkpt>
      <trkpt lat="45.66978" lon="5.52699">
        <ele>209</ele>
        <time>2022-09-06T05:47:54.416Z</time>
      </trkpt>
      <trkpt lat="45.66976" lon="5.5271">
        <ele>209</ele>
        <time>2022-09-06T05:47:55.415Z</time>
      </trkpt>
      <trkpt lat="45.66975" lon="5.52722">
        <ele>209</ele>
        <time>2022-09-06T05:47:56.415Z</time>
      </trkpt>
      <trkpt lat="45.66974" lon="5.52733">
        <ele>209</ele>
        <time>2022-09-06T05:47:57.416Z</time>
      </trkpt>
      <trkpt lat="45.66973" lon="5.52744">
        <ele>209</ele>
        <time>2022-09-06T05:47:58.415Z</time>
      </trkpt>
      <trkpt lat="45.66972" lon="5.52756">
        <ele>209</ele>
        <time>2022-09-06T05:47:59.416Z</time>
      </trkpt>
      <trkpt lat="45.66971" lon="5.52767">
        <ele>208</ele>
        <time>2022-09-06T05:48:00.415Z</time>
      </trkpt>
      <trkpt lat="45.6697" lon="5.52778">
        <ele>208</ele>
        <time>2022-09-06T05:48:01.416Z</time>
      </trkpt>
      <trkpt lat="45.66969" lon="5.52789">
        <ele>208</ele>
        <time>2022-09-06T05:48:02.416Z</time>
      </trkpt>
      <trkpt lat="45.66968" lon="5.528">
        <ele>207</ele>
        <time>2022-09-06T05:48:03.415Z</time>
      </trkpt>
      <trkpt lat="45.66967" lon="5.52811">
        <ele>207</ele>
        <time>2022-09-06T05:48:04.416Z</time>
      </trkpt>
      <trkpt lat="45.66966" lon="5.52822">
        <ele>207</ele>
        <time>2022-09-06T05:48:05.416Z</time>
      </trkpt>
      <trkpt lat="45.66965" lon="5.52833">
        <ele>207</ele>
        <time>2022-09-06T05:48:06.416Z</time>
      </trkpt>
      <trkpt lat="45.66965" lon="5.52845">
        <ele>207</ele>
        <time>2022-09-06T05:48:07.415Z</time>
      </trkpt>
      <trkpt lat="45.66964" lon="5.52856">
        <ele>207</ele>
        <time>2022-09-06T05:48:08.416Z</time>
      </trkpt>
      <trkpt lat="45.66963" lon="5.52867">
        <ele>207</ele>
        <time>2022-09-06T05:48:09.415Z</time>
      </trkpt>
      <trkpt lat="45.66963" lon="5.52879">
        <ele>208</ele>
        <time>2022-09-06T05:48:10.416Z</time>
      </trkpt>
      <trkpt lat="45.66962" lon="5.5289">
        <ele>209</ele>
        <time>2022-09-06T05:48:11.416Z</time>
      </trkpt>
      <trkpt lat="45.66961" lon="5.52904">
        <ele>209</ele>
        <time>2022-09-06T05:48:12.416Z</time>
      </trkpt>
      <trkpt lat="45.6696" lon="5.52913">
        <ele>209</ele>
        <time>2022-09-06T05:48:13.416Z</time>
      </trkpt>
      <trkpt lat="45.6696" lon="5.52924">
        <ele>209</ele>
        <time>2022-09-06T05:48:14.415Z</time>
      </trkpt>
      <trkpt lat="45.66959" lon="5.52937">
        <ele>210</ele>
        <time>2022-09-06T05:48:15.416Z</time>
      </trkpt>
      <trkpt lat="45.66958" lon="5.52946">
        <ele>209</ele>
        <time>2022-09-06T05:48:16.416Z</time>
      </trkpt>
      <trkpt lat="45.66957" lon="5.52957">
        <ele>209</ele>
        <time>2022-09-06T05:48:17.416Z</time>
      </trkpt>
      <trkpt lat="45.66957" lon="5.52968">
        <ele>209</ele>
        <time>2022-09-06T05:48:18.415Z</time>
      </trkpt>
      <trkpt lat="45.66956" lon="5.52979">
        <ele>209</ele>
        <time>2022-09-06T05:48:19.416Z</time>
      </trkpt>
      <trkpt lat="45.66955" lon="5.5299">
        <ele>209</ele>
        <time>2022-09-06T05:48:20.416Z</time>
      </trkpt>
      <trkpt lat="45.66954" lon="5.53003">
        <ele>209</ele>
        <time>2022-09-06T05:48:21.416Z</time>
      </trkpt>
      <trkpt lat="45.66953" lon="5.53012">
        <ele>209</ele>
        <time>2022-09-06T05:48:22.416Z</time>
      </trkpt>
      <trkpt lat="45.66952" lon="5.53023">
        <ele>209</ele>
        <time>2022-09-06T05:48:23.416Z</time>
      </trkpt>
      <trkpt lat="45.66951" lon="5.53034">
        <ele>209</ele>
        <time>2022-09-06T05:48:24.415Z</time>
      </trkpt>
      <trkpt lat="45.6695" lon="5.53045">
        <ele>209</ele>
        <time>2022-09-06T05:48:25.416Z</time>
      </trkpt>
      <trkpt lat="45.6695" lon="5.53056">
        <ele>209</ele>
        <time>2022-09-06T05:48:26.416Z</time>
      </trkpt>
      <trkpt lat="45.66949" lon="5.53067">
        <ele>209</ele>
        <time>2022-09-06T05:48:27.415Z</time>
      </trkpt>
      <trkpt lat="45.66948" lon="5.53078">
        <ele>209</ele>
        <time>2022-09-06T05:48:28.415Z</time>
      </trkpt>
      <trkpt lat="45.66947" lon="5.53089">
        <ele>209</ele>
        <time>2022-09-06T05:48:29.416Z</time>
      </trkpt>
      <trkpt lat="45.66946" lon="5.53101">
        <ele>209</ele>
        <time>2022-09-06T05:48:30.416Z</time>
      </trkpt>
      <trkpt lat="45.66945" lon="5.53114">
        <ele>209</ele>
        <time>2022-09-06T05:48:31.416Z</time>
      </trkpt>
      <trkpt lat="45.66945" lon="5.53123">
        <ele>210</ele>
        <time>2022-09-06T05:48:32.416Z</time>
      </trkpt>
      <trkpt lat="45.66944" lon="5.53134">
        <ele>210</ele>
        <time>2022-09-06T05:48:33.416Z</time>
      </trkpt>
      <trkpt lat="45.66943" lon="5.53148">
        <ele>211</ele>
        <time>2022-09-06T05:48:34.415Z</time>
      </trkpt>
      <trkpt lat="45.66942" lon="5.53156">
        <ele>211</ele>
        <time>2022-09-06T05:48:35.416Z</time>
      </trkpt>
      <trkpt lat="45.66941" lon="5.53168">
        <ele>211</ele>
        <time>2022-09-06T05:48:36.416Z</time>
      </trkpt>
      <trkpt lat="45.66941" lon="5.53179">
        <ele>211</ele>
        <time>2022-09-06T05:48:37.415Z</time>
      </trkpt>
      <trkpt lat="45.6694" lon="5.5319">
        <ele>211</ele>
        <time>2022-09-06T05:48:38.416Z</time>
      </trkpt>
      <trkpt lat="45.66939" lon="5.53202">
        <ele>211</ele>
        <time>2022-09-06T05:48:39.416Z</time>
      </trkpt>
      <trkpt lat="45.66938" lon="5.53215">
        <ele>210</ele>
        <time>2022-09-06T05:48:40.416Z</time>
      </trkpt>
      <trkpt lat="45.66937" lon="5.53225">
        <ele>210</ele>
        <time>2022-09-06T05:48:41.416Z</time>
      </trkpt>
      <trkpt lat="45.66936" lon="5.53236">
        <ele>210</ele>
        <time>2022-09-06T05:48:42.416Z</time>
      </trkpt>
      <trkpt lat="45.66936" lon="5.53247">
        <ele>210</ele>
        <time>2022-09-06T05:48:43.415Z</time>
      </trkpt>
      <trkpt lat="45.66935" lon="5.53259">
        <ele>210</ele>
        <time>2022-09-06T05:48:44.416Z</time>
      </trkpt>
      <trkpt lat="45.66934" lon="5.5327">
        <ele>210</ele>
        <time>2022-09-06T05:48:45.415Z</time>
      </trkpt>
      <trkpt lat="45.66933" lon="5.53282">
        <ele>210</ele>
        <time>2022-09-06T05:48:46.415Z</time>
      </trkpt>
      <trkpt lat="45.66932" lon="5.53293">
        <ele>210</ele>
        <time>2022-09-06T05:48:47.416Z</time>
      </trkpt>
      <trkpt lat="45.66931" lon="5.53304">
        <ele>209</ele>
        <time>2022-09-06T05:48:48.415Z</time>
      </trkpt>
      <trkpt lat="45.6693" lon="5.53315">
        <ele>209</ele>
        <time>2022-09-06T05:48:49.416Z</time>
      </trkpt>
      <trkpt lat="45.66929" lon="5.53327">
        <ele>208</ele>
        <time>2022-09-06T05:48:50.416Z</time>
      </trkpt>
      <trkpt lat="45.66928" lon="5.53338">
        <ele>208</ele>
        <time>2022-09-06T05:48:51.415Z</time>
      </trkpt>
      <trkpt lat="45.66927" lon="5.53352">
        <ele>208</ele>
        <time>2022-09-06T05:48:52.416Z</time>
      </trkpt>
      <trkpt lat="45.66926" lon="5.53361">
        <ele>207</ele>
        <time>2022-09-06T05:48:53.416Z</time>
      </trkpt>
      <trkpt lat="45.66925" lon="5.53375">
        <ele>207</ele>
        <time>2022-09-06T05:48:54.415Z</time>
      </trkpt>
      <trkpt lat="45.66924" lon="5.53384">
        <ele>207</ele>
        <time>2022-09-06T05:48:55.416Z</time>
      </trkpt>
      <trkpt lat="45.66923" lon="5.53395">
        <ele>206</ele>
        <time>2022-09-06T05:48:56.415Z</time>
      </trkpt>
      <trkpt lat="45.66922" lon="5.53409">
        <ele>206</ele>
        <time>2022-09-06T05:48:57.415Z</time>
      </trkpt>
      <trkpt lat="45.66921" lon="5.53421">
        <ele>206</ele>
        <time>2022-09-06T05:48:58.416Z</time>
      </trkpt>
      <trkpt lat="45.6692" lon="5.5343">
        <ele>206</ele>
        <time>2022-09-06T05:48:59.415Z</time>
      </trkpt>
      <trkpt lat="45.66919" lon="5.53442">
        <ele>206</ele>
        <time>2022-09-06T05:49:00.416Z</time>
      </trkpt>
      <trkpt lat="45.66919" lon="5.53453">
        <ele>206</ele>
        <time>2022-09-06T05:49:01.415Z</time>
      </trkpt>
      <trkpt lat="45.66918" lon="5.53465">
        <ele>206</ele>
        <time>2022-09-06T05:49:02.416Z</time>
      </trkpt>
      <trkpt lat="45.66917" lon="5.53476">
        <ele>207</ele>
        <time>2022-09-06T05:49:03.416Z</time>
      </trkpt>
      <trkpt lat="45.66915" lon="5.5349">
        <ele>207</ele>
        <time>2022-09-06T05:49:04.416Z</time>
      </trkpt>
      <trkpt lat="45.66915" lon="5.53499">
        <ele>208</ele>
        <time>2022-09-06T05:49:05.416Z</time>
      </trkpt>
      <trkpt lat="45.66914" lon="5.53511">
        <ele>208</ele>
        <time>2022-09-06T05:49:06.416Z</time>
      </trkpt>
      <trkpt lat="45.66913" lon="5.53522">
        <ele>208</ele>
        <time>2022-09-06T05:49:07.416Z</time>
      </trkpt>
      <trkpt lat="45.66912" lon="5.53534">
        <ele>209</ele>
        <time>2022-09-06T05:49:08.416Z</time>
      </trkpt>
      <trkpt lat="45.66911" lon="5.53545">
        <ele>209</ele>
        <time>2022-09-06T05:49:09.416Z</time>
      </trkpt>
      <trkpt lat="45.6691" lon="5.53556">
        <ele>209</ele>
        <time>2022-09-06T05:49:10.415Z</time>
      </trkpt>
      <trkpt lat="45.6691" lon="5.53568">
        <ele>209</ele>
        <time>2022-09-06T05:49:11.416Z</time>
      </trkpt>
      <trkpt lat="45.66909" lon="5.53579">
        <ele>209</ele>
        <time>2022-09-06T05:49:12.416Z</time>
      </trkpt>
      <trkpt lat="45.66908" lon="5.53592">
        <ele>209</ele>
        <time>2022-09-06T05:49:13.415Z</time>
      </trkpt>
      <trkpt lat="45.66907" lon="5.53601">
        <ele>209</ele>
        <time>2022-09-06T05:49:14.416Z</time>
      </trkpt>
      <trkpt lat="45.66906" lon="5.53612">
        <ele>208</ele>
        <time>2022-09-06T05:49:15.415Z</time>
      </trkpt>
      <trkpt lat="45.66905" lon="5.53625">
        <ele>208</ele>
        <time>2022-09-06T05:49:16.415Z</time>
      </trkpt>
      <trkpt lat="45.66905" lon="5.53636">
        <ele>208</ele>
        <time>2022-09-06T05:49:17.416Z</time>
      </trkpt>
      <trkpt lat="45.66904" lon="5.53644">
        <ele>208</ele>
        <time>2022-09-06T05:49:18.416Z</time>
      </trkpt>
      <trkpt lat="45.66904" lon="5.53655">
        <ele>208</ele>
        <time>2022-09-06T05:49:19.416Z</time>
      </trkpt>
      <trkpt lat="45.66903" lon="5.53668">
        <ele>208</ele>
        <time>2022-09-06T05:49:20.416Z</time>
      </trkpt>
      <trkpt lat="45.66902" lon="5.53679">
        <ele>208</ele>
        <time>2022-09-06T05:49:21.415Z</time>
      </trkpt>
      <trkpt lat="45.66901" lon="5.53688">
        <ele>207</ele>
        <time>2022-09-06T05:49:22.416Z</time>
      </trkpt>
      <trkpt lat="45.669" lon="5.53699">
        <ele>207</ele>
        <time>2022-09-06T05:49:23.416Z</time>
      </trkpt>
      <trkpt lat="45.66899" lon="5.5371">
        <ele>207</ele>
        <time>2022-09-06T05:49:24.416Z</time>
      </trkpt>
      <trkpt lat="45.66898" lon="5.53721">
        <ele>207</ele>
        <time>2022-09-06T05:49:25.415Z</time>
      </trkpt>
      <trkpt lat="45.66897" lon="5.53734">
        <ele>207</ele>
        <time>2022-09-06T05:49:26.416Z</time>
      </trkpt>
      <trkpt lat="45.66896" lon="5.53743">
        <ele>208</ele>
        <time>2022-09-06T05:49:27.415Z</time>
      </trkpt>
      <trkpt lat="45.66895" lon="5.53754">
        <ele>208</ele>
        <time>2022-09-06T05:49:28.416Z</time>
      </trkpt>
      <trkpt lat="45.66894" lon="5.53765">
        <ele>208</ele>
        <time>2022-09-06T05:49:29.416Z</time>
      </trkpt>
      <trkpt lat="45.66893" lon="5.53778">
        <ele>207</ele>
        <time>2022-09-06T05:49:30.416Z</time>
      </trkpt>
      <trkpt lat="45.66893" lon="5.53789">
        <ele>207</ele>
        <time>2022-09-06T05:49:31.415Z</time>
      </trkpt>
      <trkpt lat="45.66892" lon="5.538">
        <ele>207</ele>
        <time>2022-09-06T05:49:32.416Z</time>
      </trkpt>
      <trkpt lat="45.66891" lon="5.53809">
        <ele>206</ele>
        <time>2022-09-06T05:49:33.415Z</time>
      </trkpt>
      <trkpt lat="45.6689" lon="5.53822">
        <ele>206</ele>
        <time>2022-09-06T05:49:34.416Z</time>
      </trkpt>
      <trkpt lat="45.66889" lon="5.53833">
        <ele>206</ele>
        <time>2022-09-06T05:49:35.415Z</time>
      </trkpt>
      <trkpt lat="45.66888" lon="5.53844">
        <ele>206</ele>
        <time>2022-09-06T05:49:36.416Z</time>
      </trkpt>
      <trkpt lat="45.66888" lon="5.53853">
        <ele>206</ele>
        <time>2022-09-06T05:49:37.416Z</time>
      </trkpt>
      <trkpt lat="45.66887" lon="5.53864">
        <ele>206</ele>
        <time>2022-09-06T05:49:38.416Z</time>
      </trkpt>
      <trkpt lat="45.66886" lon="5.53876">
        <ele>207</ele>
        <time>2022-09-06T05:49:39.416Z</time>
      </trkpt>
      <trkpt lat="45.66885" lon="5.53889">
        <ele>207</ele>
        <time>2022-09-06T05:49:40.415Z</time>
      </trkpt>
      <trkpt lat="45.66884" lon="5.539">
        <ele>207</ele>
        <time>2022-09-06T05:49:41.416Z</time>
      </trkpt>
      <trkpt lat="45.66883" lon="5.53912">
        <ele>207</ele>
        <time>2022-09-06T05:49:42.416Z</time>
      </trkpt>
      <trkpt lat="45.66882" lon="5.53923">
        <ele>207</ele>
        <time>2022-09-06T05:49:43.416Z</time>
      </trkpt>
      <trkpt lat="45.66881" lon="5.53935">
        <ele>207</ele>
        <time>2022-09-06T05:49:44.416Z</time>
      </trkpt>
      <trkpt lat="45.6688" lon="5.53946">
        <ele>207</ele>
        <time>2022-09-06T05:49:45.416Z</time>
      </trkpt>
      <trkpt lat="45.6688" lon="5.53955">
        <ele>207</ele>
        <time>2022-09-06T05:49:46.415Z</time>
      </trkpt>
      <trkpt lat="45.66878" lon="5.53969">
        <ele>208</ele>
        <time>2022-09-06T05:49:47.416Z</time>
      </trkpt>
      <trkpt lat="45.66878" lon="5.5398">
        <ele>208</ele>
        <time>2022-09-06T05:49:48.415Z</time>
      </trkpt>
      <trkpt lat="45.66877" lon="5.53989">
        <ele>208</ele>
        <time>2022-09-06T05:49:49.415Z</time>
      </trkpt>
      <trkpt lat="45.66876" lon="5.54001">
        <ele>208</ele>
        <time>2022-09-06T05:49:50.415Z</time>
      </trkpt>
      <trkpt lat="45.66875" lon="5.54012">
        <ele>208</ele>
        <time>2022-09-06T05:49:51.416Z</time>
      </trkpt>
      <trkpt lat="45.66874" lon="5.54023">
        <ele>208</ele>
        <time>2022-09-06T05:49:52.416Z</time>
      </trkpt>
      <trkpt lat="45.66873" lon="5.54037">
        <ele>209</ele>
        <time>2022-09-06T05:49:53.416Z</time>
      </trkpt>
      <trkpt lat="45.66872" lon="5.54048">
        <ele>209</ele>
        <time>2022-09-06T05:49:54.416Z</time>
      </trkpt>
      <trkpt lat="45.66871" lon="5.54059">
        <ele>208</ele>
        <time>2022-09-06T05:49:55.416Z</time>
      </trkpt>
      <trkpt lat="45.66871" lon="5.54068">
        <ele>208</ele>
        <time>2022-09-06T05:49:56.416Z</time>
      </trkpt>
      <trkpt lat="45.6687" lon="5.54079">
        <ele>208</ele>
        <time>2022-09-06T05:49:57.416Z</time>
      </trkpt>
      <trkpt lat="45.66869" lon="5.54092">
        <ele>208</ele>
        <time>2022-09-06T05:49:58.415Z</time>
      </trkpt>
      <trkpt lat="45.66868" lon="5.54103">
        <ele>208</ele>
        <time>2022-09-06T05:49:59.416Z</time>
      </trkpt>
      <trkpt lat="45.66868" lon="5.54112">
        <ele>209</ele>
        <time>2022-09-06T05:50:00.416Z</time>
      </trkpt>
      <trkpt lat="45.66867" lon="5.54123">
        <ele>209</ele>
        <time>2022-09-06T05:50:01.416Z</time>
      </trkpt>
      <trkpt lat="45.66866" lon="5.54136">
        <ele>209</ele>
        <time>2022-09-06T05:50:02.415Z</time>
      </trkpt>
      <trkpt lat="45.66865" lon="5.54147">
        <ele>209</ele>
        <time>2022-09-06T05:50:03.416Z</time>
      </trkpt>
      <trkpt lat="45.66864" lon="5.54158">
        <ele>208</ele>
        <time>2022-09-06T05:50:04.416Z</time>
      </trkpt>
      <trkpt lat="45.66863" lon="5.54167">
        <ele>208</ele>
        <time>2022-09-06T05:50:05.416Z</time>
      </trkpt>
      <trkpt lat="45.66862" lon="5.54178">
        <ele>208</ele>
        <time>2022-09-06T05:50:06.415Z</time>
      </trkpt>
      <trkpt lat="45.66861" lon="5.54188">
        <ele>207</ele>
        <time>2022-09-06T05:50:07.416Z</time>
      </trkpt>
      <trkpt lat="45.6686" lon="5.54199">
        <ele>207</ele>
        <time>2022-09-06T05:50:08.415Z</time>
      </trkpt>
      <trkpt lat="45.6686" lon="5.5421">
        <ele>207</ele>
        <time>2022-09-06T05:50:09.416Z</time>
      </trkpt>
      <trkpt lat="45.66859" lon="5.5422">
        <ele>206</ele>
        <time>2022-09-06T05:50:10.416Z</time>
      </trkpt>
      <trkpt lat="45.66858" lon="5.54231">
        <ele>206</ele>
        <time>2022-09-06T05:50:11.416Z</time>
      </trkpt>
      <trkpt lat="45.66857" lon="5.54242">
        <ele>206</ele>
        <time>2022-09-06T05:50:12.415Z</time>
      </trkpt>
      <trkpt lat="45.66856" lon="5.54253">
        <ele>207</ele>
        <time>2022-09-06T05:50:13.415Z</time>
      </trkpt>
      <trkpt lat="45.66855" lon="5.54263">
        <ele>207</ele>
        <time>2022-09-06T05:50:14.416Z</time>
      </trkpt>
      <trkpt lat="45.66854" lon="5.54274">
        <ele>207</ele>
        <time>2022-09-06T05:50:15.415Z</time>
      </trkpt>
      <trkpt lat="45.66854" lon="5.54285">
        <ele>207</ele>
        <time>2022-09-06T05:50:16.416Z</time>
      </trkpt>
      <trkpt lat="45.66853" lon="5.54295">
        <ele>207</ele>
        <time>2022-09-06T05:50:17.416Z</time>
      </trkpt>
      <trkpt lat="45.66852" lon="5.54306">
        <ele>208</ele>
        <time>2022-09-06T05:50:18.416Z</time>
      </trkpt>
      <trkpt lat="45.66851" lon="5.54316">
        <ele>208</ele>
        <time>2022-09-06T05:50:19.415Z</time>
      </trkpt>
      <trkpt lat="45.66851" lon="5.54327">
        <ele>208</ele>
        <time>2022-09-06T05:50:20.415Z</time>
      </trkpt>
      <trkpt lat="45.6685" lon="5.54337">
        <ele>208</ele>
        <time>2022-09-06T05:50:21.416Z</time>
      </trkpt>
      <trkpt lat="45.66849" lon="5.5435">
        <ele>208</ele>
        <time>2022-09-06T05:50:22.416Z</time>
      </trkpt>
      <trkpt lat="45.66848" lon="5.54361">
        <ele>208</ele>
        <time>2022-09-06T05:50:23.415Z</time>
      </trkpt>
      <trkpt lat="45.66847" lon="5.5437">
        <ele>208</ele>
        <time>2022-09-06T05:50:24.416Z</time>
      </trkpt>
      <trkpt lat="45.66846" lon="5.5438">
        <ele>208</ele>
        <time>2022-09-06T05:50:25.415Z</time>
      </trkpt>
      <trkpt lat="45.66845" lon="5.54391">
        <ele>208</ele>
        <time>2022-09-06T05:50:26.416Z</time>
      </trkpt>
      <trkpt lat="45.66844" lon="5.54404">
        <ele>208</ele>
        <time>2022-09-06T05:50:27.415Z</time>
      </trkpt>
      <trkpt lat="45.66843" lon="5.54413">
        <ele>208</ele>
        <time>2022-09-06T05:50:28.415Z</time>
      </trkpt>
      <trkpt lat="45.66843" lon="5.54424">
        <ele>208</ele>
        <time>2022-09-06T05:50:29.415Z</time>
      </trkpt>
      <trkpt lat="45.66842" lon="5.54436">
        <ele>208</ele>
        <time>2022-09-06T05:50:30.415Z</time>
      </trkpt>
      <trkpt lat="45.66841" lon="5.54446">
        <ele>208</ele>
        <time>2022-09-06T05:50:31.416Z</time>
      </trkpt>
      <trkpt lat="45.6684" lon="5.54458">
        <ele>208</ele>
        <time>2022-09-06T05:50:32.416Z</time>
      </trkpt>
      <trkpt lat="45.66839" lon="5.54469">
        <ele>208</ele>
        <time>2022-09-06T05:50:33.415Z</time>
      </trkpt>
      <trkpt lat="45.66838" lon="5.5448">
        <ele>209</ele>
        <time>2022-09-06T05:50:34.416Z</time>
      </trkpt>
      <trkpt lat="45.66837" lon="5.54491">
        <ele>209</ele>
        <time>2022-09-06T05:50:35.416Z</time>
      </trkpt>
      <trkpt lat="45.66836" lon="5.54503">
        <ele>209</ele>
        <time>2022-09-06T05:50:36.416Z</time>
      </trkpt>
      <trkpt lat="45.66835" lon="5.54516">
        <ele>209</ele>
        <time>2022-09-06T05:50:37.416Z</time>
      </trkpt>
      <trkpt lat="45.66834" lon="5.54525">
        <ele>208</ele>
        <time>2022-09-06T05:50:38.416Z</time>
      </trkpt>
      <trkpt lat="45.66833" lon="5.54537">
        <ele>208</ele>
        <time>2022-09-06T05:50:39.416Z</time>
      </trkpt>
      <trkpt lat="45.66832" lon="5.5455">
        <ele>208</ele>
        <time>2022-09-06T05:50:40.416Z</time>
      </trkpt>
      <trkpt lat="45.66832" lon="5.54559">
        <ele>208</ele>
        <time>2022-09-06T05:50:41.415Z</time>
      </trkpt>
      <trkpt lat="45.66831" lon="5.5457">
        <ele>208</ele>
        <time>2022-09-06T05:50:42.415Z</time>
      </trkpt>
      <trkpt lat="45.6683" lon="5.54582">
        <ele>209</ele>
        <time>2022-09-06T05:50:43.415Z</time>
      </trkpt>
      <trkpt lat="45.66829" lon="5.54595">
        <ele>209</ele>
        <time>2022-09-06T05:50:44.416Z</time>
      </trkpt>
      <trkpt lat="45.66827" lon="5.54605">
        <ele>209</ele>
        <time>2022-09-06T05:50:45.416Z</time>
      </trkpt>
      <trkpt lat="45.66825" lon="5.54618">
        <ele>209</ele>
        <time>2022-09-06T05:50:46.415Z</time>
      </trkpt>
      <trkpt lat="45.66824" lon="5.54627">
        <ele>209</ele>
        <time>2022-09-06T05:50:47.416Z</time>
      </trkpt>
      <trkpt lat="45.66822" lon="5.54638">
        <ele>209</ele>
        <time>2022-09-06T05:50:48.415Z</time>
      </trkpt>
      <trkpt lat="45.6682" lon="5.54649">
        <ele>209</ele>
        <time>2022-09-06T05:50:49.416Z</time>
      </trkpt>
      <trkpt lat="45.66818" lon="5.54661">
        <ele>210</ele>
        <time>2022-09-06T05:50:50.416Z</time>
      </trkpt>
      <trkpt lat="45.66815" lon="5.54672">
        <ele>210</ele>
        <time>2022-09-06T05:50:51.416Z</time>
      </trkpt>
      <trkpt lat="45.66813" lon="5.54683">
        <ele>210</ele>
        <time>2022-09-06T05:50:52.415Z</time>
      </trkpt>
      <trkpt lat="45.66811" lon="5.54694">
        <ele>209</ele>
        <time>2022-09-06T05:50:53.416Z</time>
      </trkpt>
      <trkpt lat="45.66808" lon="5.54705">
        <ele>209</ele>
        <time>2022-09-06T05:50:54.416Z</time>
      </trkpt>
      <trkpt lat="45.66805" lon="5.54719">
        <ele>209</ele>
        <time>2022-09-06T05:50:55.416Z</time>
      </trkpt>
      <trkpt lat="45.66803" lon="5.5473">
        <ele>209</ele>
        <time>2022-09-06T05:50:56.415Z</time>
      </trkpt>
      <trkpt lat="45.66802" lon="5.54739">
        <ele>209</ele>
        <time>2022-09-06T05:50:57.415Z</time>
      </trkpt>
      <trkpt lat="45.66799" lon="5.5475">
        <ele>209</ele>
        <time>2022-09-06T05:50:58.415Z</time>
      </trkpt>
      <trkpt lat="45.66797" lon="5.54763">
        <ele>209</ele>
        <time>2022-09-06T05:50:59.416Z</time>
      </trkpt>
      <trkpt lat="45.66794" lon="5.54774">
        <ele>209</ele>
        <time>2022-09-06T05:51:00.416Z</time>
      </trkpt>
      <trkpt lat="45.66792" lon="5.54785">
        <ele>209</ele>
        <time>2022-09-06T05:51:01.416Z</time>
      </trkpt>
      <trkpt lat="45.6679" lon="5.54794">
        <ele>209</ele>
        <time>2022-09-06T05:51:02.415Z</time>
      </trkpt>
      <trkpt lat="45.66787" lon="5.54808">
        <ele>209</ele>
        <time>2022-09-06T05:51:03.416Z</time>
      </trkpt>
      <trkpt lat="45.66785" lon="5.54819">
        <ele>209</ele>
        <time>2022-09-06T05:51:04.416Z</time>
      </trkpt>
      <trkpt lat="45.66783" lon="5.54828">
        <ele>208</ele>
        <time>2022-09-06T05:51:05.416Z</time>
      </trkpt>
      <trkpt lat="45.66781" lon="5.54839">
        <ele>208</ele>
        <time>2022-09-06T05:51:06.416Z</time>
      </trkpt>
      <trkpt lat="45.66778" lon="5.5485">
        <ele>207</ele>
        <time>2022-09-06T05:51:07.416Z</time>
      </trkpt>
      <trkpt lat="45.66776" lon="5.54861">
        <ele>207</ele>
        <time>2022-09-06T05:51:08.415Z</time>
      </trkpt>
      <trkpt lat="45.66774" lon="5.54873">
        <ele>207</ele>
        <time>2022-09-06T05:51:09.416Z</time>
      </trkpt>
      <trkpt lat="45.66771" lon="5.54886">
        <ele>206</ele>
        <time>2022-09-06T05:51:10.415Z</time>
      </trkpt>
      <trkpt lat="45.66769" lon="5.54895">
        <ele>206</ele>
        <time>2022-09-06T05:51:11.416Z</time>
      </trkpt>
      <trkpt lat="45.66767" lon="5.54906">
        <ele>206</ele>
        <time>2022-09-06T05:51:12.416Z</time>
      </trkpt>
      <trkpt lat="45.66764" lon="5.54918">
        <ele>207</ele>
        <time>2022-09-06T05:51:13.416Z</time>
      </trkpt>
      <trkpt lat="45.66762" lon="5.54932">
        <ele>207</ele>
        <time>2022-09-06T05:51:14.416Z</time>
      </trkpt>
      <trkpt lat="45.6676" lon="5.54941">
        <ele>207</ele>
        <time>2022-09-06T05:51:15.416Z</time>
      </trkpt>
      <trkpt lat="45.66757" lon="5.54952">
        <ele>207</ele>
        <time>2022-09-06T05:51:16.416Z</time>
      </trkpt>
      <trkpt lat="45.66755" lon="5.54964">
        <ele>207</ele>
        <time>2022-09-06T05:51:17.416Z</time>
      </trkpt>
      <trkpt lat="45.66753" lon="5.54975">
        <ele>207</ele>
        <time>2022-09-06T05:51:18.416Z</time>
      </trkpt>
      <trkpt lat="45.66751" lon="5.54986">
        <ele>207</ele>
        <time>2022-09-06T05:51:19.416Z</time>
      </trkpt>
      <trkpt lat="45.66748" lon="5.54998">
        <ele>207</ele>
        <time>2022-09-06T05:51:20.416Z</time>
      </trkpt>
      <trkpt lat="45.66746" lon="5.55009">
        <ele>207</ele>
        <time>2022-09-06T05:51:21.416Z</time>
      </trkpt>
      <trkpt lat="45.66743" lon="5.55021">
        <ele>208</ele>
        <time>2022-09-06T05:51:22.416Z</time>
      </trkpt>
      <trkpt lat="45.66741" lon="5.55032">
        <ele>208</ele>
        <time>2022-09-06T05:51:23.416Z</time>
      </trkpt>
      <trkpt lat="45.66739" lon="5.55043">
        <ele>208</ele>
        <time>2022-09-06T05:51:24.416Z</time>
      </trkpt>
      <trkpt lat="45.66737" lon="5.55055">
        <ele>208</ele>
        <time>2022-09-06T05:51:25.416Z</time>
      </trkpt>
      <trkpt lat="45.66734" lon="5.55066">
        <ele>209</ele>
        <time>2022-09-06T05:51:26.415Z</time>
      </trkpt>
      <trkpt lat="45.66732" lon="5.55077">
        <ele>208</ele>
        <time>2022-09-06T05:51:27.415Z</time>
      </trkpt>
      <trkpt lat="45.66729" lon="5.55091">
        <ele>208</ele>
        <time>2022-09-06T05:51:28.416Z</time>
      </trkpt>
      <trkpt lat="45.66727" lon="5.55102">
        <ele>208</ele>
        <time>2022-09-06T05:51:29.416Z</time>
      </trkpt>
      <trkpt lat="45.66726" lon="5.55111">
        <ele>208</ele>
        <time>2022-09-06T05:51:30.416Z</time>
      </trkpt>
      <trkpt lat="45.66723" lon="5.55125">
        <ele>208</ele>
        <time>2022-09-06T05:51:31.416Z</time>
      </trkpt>
      <trkpt lat="45.6672" lon="5.55136">
        <ele>208</ele>
        <time>2022-09-06T05:51:32.416Z</time>
      </trkpt>
      <trkpt lat="45.66718" lon="5.55147">
        <ele>208</ele>
        <time>2022-09-06T05:51:33.415Z</time>
      </trkpt>
      <trkpt lat="45.66716" lon="5.55158">
        <ele>208</ele>
        <time>2022-09-06T05:51:34.416Z</time>
      </trkpt>
      <trkpt lat="45.66713" lon="5.5517">
        <ele>208</ele>
        <time>2022-09-06T05:51:35.416Z</time>
      </trkpt>
      <trkpt lat="45.66711" lon="5.55181">
        <ele>208</ele>
        <time>2022-09-06T05:51:36.415Z</time>
      </trkpt>
      <trkpt lat="45.66708" lon="5.55193">
        <ele>208</ele>
        <time>2022-09-06T05:51:37.415Z</time>
      </trkpt>
      <trkpt lat="45.66706" lon="5.55204">
        <ele>208</ele>
        <time>2022-09-06T05:51:38.416Z</time>
      </trkpt>
      <trkpt lat="45.66704" lon="5.55215">
        <ele>209</ele>
        <time>2022-09-06T05:51:39.415Z</time>
      </trkpt>
      <trkpt lat="45.66702" lon="5.55226">
        <ele>209</ele>
        <time>2022-09-06T05:51:40.415Z</time>
      </trkpt>
      <trkpt lat="45.66699" lon="5.55237">
        <ele>209</ele>
        <time>2022-09-06T05:51:41.415Z</time>
      </trkpt>
      <trkpt lat="45.66697" lon="5.55248">
        <ele>209</ele>
        <time>2022-09-06T05:51:42.415Z</time>
      </trkpt>
      <trkpt lat="45.66695" lon="5.55259">
        <ele>209</ele>
        <time>2022-09-06T05:51:43.416Z</time>
      </trkpt>
      <trkpt lat="45.66693" lon="5.5527">
        <ele>208</ele>
        <time>2022-09-06T05:51:44.416Z</time>
      </trkpt>
      <trkpt lat="45.66691" lon="5.55281">
        <ele>208</ele>
        <time>2022-09-06T05:51:45.416Z</time>
      </trkpt>
      <trkpt lat="45.66689" lon="5.55292">
        <ele>208</ele>
        <time>2022-09-06T05:51:46.416Z</time>
      </trkpt>
      <trkpt lat="45.66686" lon="5.55303">
        <ele>208</ele>
        <time>2022-09-06T05:51:47.416Z</time>
      </trkpt>
      <trkpt lat="45.66684" lon="5.55314">
        <ele>208</ele>
        <time>2022-09-06T05:51:48.415Z</time>
      </trkpt>
      <trkpt lat="45.66682" lon="5.55323">
        <ele>208</ele>
        <time>2022-09-06T05:51:49.416Z</time>
      </trkpt>
      <trkpt lat="45.66679" lon="5.55336">
        <ele>208</ele>
        <time>2022-09-06T05:51:50.416Z</time>
      </trkpt>
      <trkpt lat="45.66677" lon="5.55347">
        <ele>207</ele>
        <time>2022-09-06T05:51:51.416Z</time>
      </trkpt>
      <trkpt lat="45.66675" lon="5.55358">
        <ele>207</ele>
        <time>2022-09-06T05:51:52.416Z</time>
      </trkpt>
      <trkpt lat="45.66673" lon="5.55369">
        <ele>207</ele>
        <time>2022-09-06T05:51:53.416Z</time>
      </trkpt>
      <trkpt lat="45.6667" lon="5.5538">
        <ele>208</ele>
        <time>2022-09-06T05:51:54.416Z</time>
      </trkpt>
      <trkpt lat="45.66668" lon="5.55391">
        <ele>208</ele>
        <time>2022-09-06T05:51:55.416Z</time>
      </trkpt>
      <trkpt lat="45.66666" lon="5.55402">
        <ele>208</ele>
        <time>2022-09-06T05:51:56.415Z</time>
      </trkpt>
      <trkpt lat="45.66664" lon="5.55413">
        <ele>207</ele>
        <time>2022-09-06T05:51:57.415Z</time>
      </trkpt>
      <trkpt lat="45.66661" lon="5.55423">
        <ele>207</ele>
        <time>2022-09-06T05:51:58.416Z</time>
      </trkpt>
      <trkpt lat="45.66659" lon="5.55434">
        <ele>207</ele>
        <time>2022-09-06T05:51:59.416Z</time>
      </trkpt>
      <trkpt lat="45.66657" lon="5.55445">
        <ele>207</ele>
        <time>2022-09-06T05:52:00.416Z</time>
      </trkpt>
      <trkpt lat="45.66655" lon="5.55456">
        <ele>207</ele>
        <time>2022-09-06T05:52:01.416Z</time>
      </trkpt>
      <trkpt lat="45.66653" lon="5.55467">
        <ele>207</ele>
        <time>2022-09-06T05:52:02.415Z</time>
      </trkpt>
      <trkpt lat="45.6665" lon="5.55478">
        <ele>207</ele>
        <time>2022-09-06T05:52:03.416Z</time>
      </trkpt>
      <trkpt lat="45.66648" lon="5.55488">
        <ele>207</ele>
        <time>2022-09-06T05:52:04.415Z</time>
      </trkpt>
      <trkpt lat="45.66646" lon="5.55499">
        <ele>207</ele>
        <time>2022-09-06T05:52:05.415Z</time>
      </trkpt>
      <trkpt lat="45.66644" lon="5.5551">
        <ele>207</ele>
        <time>2022-09-06T05:52:06.416Z</time>
      </trkpt>
      <trkpt lat="45.66642" lon="5.55521">
        <ele>207</ele>
        <time>2022-09-06T05:52:07.416Z</time>
      </trkpt>
      <trkpt lat="45.6664" lon="5.55532">
        <ele>207</ele>
        <time>2022-09-06T05:52:08.416Z</time>
      </trkpt>
      <trkpt lat="45.66637" lon="5.55542">
        <ele>207</ele>
        <time>2022-09-06T05:52:09.416Z</time>
      </trkpt>
      <trkpt lat="45.66635" lon="5.55553">
        <ele>207</ele>
        <time>2022-09-06T05:52:10.415Z</time>
      </trkpt>
      <trkpt lat="45.66633" lon="5.55564">
        <ele>207</ele>
        <time>2022-09-06T05:52:11.416Z</time>
      </trkpt>
      <trkpt lat="45.66632" lon="5.55573">
        <ele>207</ele>
        <time>2022-09-06T05:52:12.416Z</time>
      </trkpt>
      <trkpt lat="45.66629" lon="5.55586">
        <ele>207</ele>
        <time>2022-09-06T05:52:13.416Z</time>
      </trkpt>
      <trkpt lat="45.66627" lon="5.55597">
        <ele>208</ele>
        <time>2022-09-06T05:52:14.416Z</time>
      </trkpt>
      <trkpt lat="45.66625" lon="5.55608">
        <ele>208</ele>
        <time>2022-09-06T05:52:15.416Z</time>
      </trkpt>
      <trkpt lat="45.66623" lon="5.55619">
        <ele>208</ele>
        <time>2022-09-06T05:52:16.416Z</time>
      </trkpt>
      <trkpt lat="45.66621" lon="5.5563">
        <ele>208</ele>
        <time>2022-09-06T05:52:17.415Z</time>
      </trkpt>
      <trkpt lat="45.66618" lon="5.55641">
        <ele>208</ele>
        <time>2022-09-06T05:52:18.416Z</time>
      </trkpt>
      <trkpt lat="45.66616" lon="5.55652">
        <ele>207</ele>
        <time>2022-09-06T05:52:19.416Z</time>
      </trkpt>
      <trkpt lat="45.66614" lon="5.55662">
        <ele>207</ele>
        <time>2022-09-06T05:52:20.416Z</time>
      </trkpt>
      <trkpt lat="45.66612" lon="5.55671">
        <ele>206</ele>
        <time>2022-09-06T05:52:21.416Z</time>
      </trkpt>
      <trkpt lat="45.66609" lon="5.55684">
        <ele>206</ele>
        <time>2022-09-06T05:52:22.416Z</time>
      </trkpt>
      <trkpt lat="45.66607" lon="5.55695">
        <ele>206</ele>
        <time>2022-09-06T05:52:23.416Z</time>
      </trkpt>
      <trkpt lat="45.66605" lon="5.55706">
        <ele>205</ele>
        <time>2022-09-06T05:52:24.416Z</time>
      </trkpt>
      <trkpt lat="45.66603" lon="5.55714">
        <ele>205</ele>
        <time>2022-09-06T05:52:25.416Z</time>
      </trkpt>
      <trkpt lat="45.66601" lon="5.55725">
        <ele>205</ele>
        <time>2022-09-06T05:52:26.416Z</time>
      </trkpt>
      <trkpt lat="45.66598" lon="5.55738">
        <ele>204</ele>
        <time>2022-09-06T05:52:27.416Z</time>
      </trkpt>
      <trkpt lat="45.66596" lon="5.55749">
        <ele>205</ele>
        <time>2022-09-06T05:52:28.416Z</time>
      </trkpt>
      <trkpt lat="45.66594" lon="5.5576">
        <ele>205</ele>
        <time>2022-09-06T05:52:29.416Z</time>
      </trkpt>
      <trkpt lat="45.66592" lon="5.55771">
        <ele>205</ele>
        <time>2022-09-06T05:52:30.416Z</time>
      </trkpt>
      <trkpt lat="45.6659" lon="5.55782">
        <ele>205</ele>
        <time>2022-09-06T05:52:31.415Z</time>
      </trkpt>
      <trkpt lat="45.66587" lon="5.55793">
        <ele>205</ele>
        <time>2022-09-06T05:52:32.416Z</time>
      </trkpt>
      <trkpt lat="45.66585" lon="5.55804">
        <ele>205</ele>
        <time>2022-09-06T05:52:33.416Z</time>
      </trkpt>
      <trkpt lat="45.66583" lon="5.55815">
        <ele>205</ele>
        <time>2022-09-06T05:52:34.415Z</time>
      </trkpt>
      <trkpt lat="45.6658" lon="5.55826">
        <ele>205</ele>
        <time>2022-09-06T05:52:35.416Z</time>
      </trkpt>
      <trkpt lat="45.66578" lon="5.55837">
        <ele>205</ele>
        <time>2022-09-06T05:52:36.416Z</time>
      </trkpt>
      <trkpt lat="45.66576" lon="5.55847">
        <ele>205</ele>
        <time>2022-09-06T05:52:37.415Z</time>
      </trkpt>
      <trkpt lat="45.66574" lon="5.55856">
        <ele>205</ele>
        <time>2022-09-06T05:52:38.416Z</time>
      </trkpt>
      <trkpt lat="45.66572" lon="5.55867">
        <ele>206</ele>
        <time>2022-09-06T05:52:39.415Z</time>
      </trkpt>
      <trkpt lat="45.6657" lon="5.55878">
        <ele>206</ele>
        <time>2022-09-06T05:52:40.415Z</time>
      </trkpt>
      <trkpt lat="45.66568" lon="5.55889">
        <ele>206</ele>
        <time>2022-09-06T05:52:41.415Z</time>
      </trkpt>
      <trkpt lat="45.66566" lon="5.55902">
        <ele>207</ele>
        <time>2022-09-06T05:52:42.416Z</time>
      </trkpt>
      <trkpt lat="45.66564" lon="5.5591">
        <ele>207</ele>
        <time>2022-09-06T05:52:43.416Z</time>
      </trkpt>
      <trkpt lat="45.66562" lon="5.55921">
        <ele>207</ele>
        <time>2022-09-06T05:52:44.415Z</time>
      </trkpt>
      <trkpt lat="45.66559" lon="5.55931">
        <ele>207</ele>
        <time>2022-09-06T05:52:45.416Z</time>
      </trkpt>
      <trkpt lat="45.66557" lon="5.55944">
        <ele>207</ele>
        <time>2022-09-06T05:52:46.416Z</time>
      </trkpt>
      <trkpt lat="45.66554" lon="5.55955">
        <ele>207</ele>
        <time>2022-09-06T05:52:47.416Z</time>
      </trkpt>
      <trkpt lat="45.66552" lon="5.55966">
        <ele>207</ele>
        <time>2022-09-06T05:52:48.416Z</time>
      </trkpt>
      <trkpt lat="45.6655" lon="5.55976">
        <ele>207</ele>
        <time>2022-09-06T05:52:49.416Z</time>
      </trkpt>
      <trkpt lat="45.66548" lon="5.55987">
        <ele>207</ele>
        <time>2022-09-06T05:52:50.415Z</time>
      </trkpt>
      <trkpt lat="45.66546" lon="5.55998">
        <ele>207</ele>
        <time>2022-09-06T05:52:51.415Z</time>
      </trkpt>
      <trkpt lat="45.66544" lon="5.56009">
        <ele>208</ele>
        <time>2022-09-06T05:52:52.415Z</time>
      </trkpt>
      <trkpt lat="45.66542" lon="5.56019">
        <ele>208</ele>
        <time>2022-09-06T05:52:53.415Z</time>
      </trkpt>
      <trkpt lat="45.6654" lon="5.5603">
        <ele>209</ele>
        <time>2022-09-06T05:52:54.416Z</time>
      </trkpt>
      <trkpt lat="45.66537" lon="5.56041">
        <ele>209</ele>
        <time>2022-09-06T05:52:55.416Z</time>
      </trkpt>
      <trkpt lat="45.66535" lon="5.56051">
        <ele>209</ele>
        <time>2022-09-06T05:52:56.415Z</time>
      </trkpt>
      <trkpt lat="45.66533" lon="5.56062">
        <ele>209</ele>
        <time>2022-09-06T05:52:57.415Z</time>
      </trkpt>
      <trkpt lat="45.66531" lon="5.56072">
        <ele>209</ele>
        <time>2022-09-06T05:52:58.416Z</time>
      </trkpt>
      <trkpt lat="45.66529" lon="5.56083">
        <ele>209</ele>
        <time>2022-09-06T05:52:59.416Z</time>
      </trkpt>
      <trkpt lat="45.66527" lon="5.56093">
        <ele>209</ele>
        <time>2022-09-06T05:53:00.415Z</time>
      </trkpt>
      <trkpt lat="45.66525" lon="5.56104">
        <ele>209</ele>
        <time>2022-09-06T05:53:01.415Z</time>
      </trkpt>
      <trkpt lat="45.66523" lon="5.56115">
        <ele>209</ele>
        <time>2022-09-06T05:53:02.416Z</time>
      </trkpt>
      <trkpt lat="45.66521" lon="5.56125">
        <ele>209</ele>
        <time>2022-09-06T05:53:03.416Z</time>
      </trkpt>
      <trkpt lat="45.66519" lon="5.56136">
        <ele>209</ele>
        <time>2022-09-06T05:53:04.415Z</time>
      </trkpt>
      <trkpt lat="45.66516" lon="5.56147">
        <ele>209</ele>
        <time>2022-09-06T05:53:05.416Z</time>
      </trkpt>
      <trkpt lat="45.66515" lon="5.56157">
        <ele>209</ele>
        <time>2022-09-06T05:53:06.416Z</time>
      </trkpt>
      <trkpt lat="45.66512" lon="5.56168">
        <ele>210</ele>
        <time>2022-09-06T05:53:07.416Z</time>
      </trkpt>
      <trkpt lat="45.6651" lon="5.56178">
        <ele>209</ele>
        <time>2022-09-06T05:53:08.416Z</time>
      </trkpt>
      <trkpt lat="45.66508" lon="5.56189">
        <ele>209</ele>
        <time>2022-09-06T05:53:09.416Z</time>
      </trkpt>
      <trkpt lat="45.66506" lon="5.56199">
        <ele>209</ele>
        <time>2022-09-06T05:53:10.416Z</time>
      </trkpt>
      <trkpt lat="45.66505" lon="5.5621">
        <ele>209</ele>
        <time>2022-09-06T05:53:11.415Z</time>
      </trkpt>
      <trkpt lat="45.66502" lon="5.5622">
        <ele>209</ele>
        <time>2022-09-06T05:53:12.416Z</time>
      </trkpt>
      <trkpt lat="45.665" lon="5.56231">
        <ele>208</ele>
        <time>2022-09-06T05:53:13.416Z</time>
      </trkpt>
      <trkpt lat="45.66498" lon="5.56241">
        <ele>208</ele>
        <time>2022-09-06T05:53:14.415Z</time>
      </trkpt>
      <trkpt lat="45.66496" lon="5.56251">
        <ele>207</ele>
        <time>2022-09-06T05:53:15.415Z</time>
      </trkpt>
      <trkpt lat="45.66494" lon="5.56261">
        <ele>207</ele>
        <time>2022-09-06T05:53:16.415Z</time>
      </trkpt>
      <trkpt lat="45.66492" lon="5.56272">
        <ele>207</ele>
        <time>2022-09-06T05:53:17.416Z</time>
      </trkpt>
      <trkpt lat="45.6649" lon="5.5628">
        <ele>207</ele>
        <time>2022-09-06T05:53:18.415Z</time>
      </trkpt>
      <trkpt lat="45.66488" lon="5.5629">
        <ele>207</ele>
        <time>2022-09-06T05:53:19.416Z</time>
      </trkpt>
      <trkpt lat="45.66486" lon="5.563">
        <ele>207</ele>
        <time>2022-09-06T05:53:20.416Z</time>
      </trkpt>
      <trkpt lat="45.66484" lon="5.56311">
        <ele>207</ele>
        <time>2022-09-06T05:53:21.415Z</time>
      </trkpt>
      <trkpt lat="45.66482" lon="5.56321">
        <ele>207</ele>
        <time>2022-09-06T05:53:22.416Z</time>
      </trkpt>
      <trkpt lat="45.6648" lon="5.56331">
        <ele>207</ele>
        <time>2022-09-06T05:53:23.416Z</time>
      </trkpt>
      <trkpt lat="45.66478" lon="5.56341">
        <ele>207</ele>
        <time>2022-09-06T05:53:24.416Z</time>
      </trkpt>
      <trkpt lat="45.66476" lon="5.56352">
        <ele>207</ele>
        <time>2022-09-06T05:53:25.415Z</time>
      </trkpt>
      <trkpt lat="45.66474" lon="5.56362">
        <ele>207</ele>
        <time>2022-09-06T05:53:26.416Z</time>
      </trkpt>
      <trkpt lat="45.66472" lon="5.56372">
        <ele>207</ele>
        <time>2022-09-06T05:53:27.416Z</time>
      </trkpt>
      <trkpt lat="45.6647" lon="5.56383">
        <ele>207</ele>
        <time>2022-09-06T05:53:28.416Z</time>
      </trkpt>
      <trkpt lat="45.66468" lon="5.56393">
        <ele>207</ele>
        <time>2022-09-06T05:53:29.416Z</time>
      </trkpt>
      <trkpt lat="45.66466" lon="5.56403">
        <ele>207</ele>
        <time>2022-09-06T05:53:30.416Z</time>
      </trkpt>
      <trkpt lat="45.66464" lon="5.56414">
        <ele>207</ele>
        <time>2022-09-06T05:53:31.416Z</time>
      </trkpt>
      <trkpt lat="45.66461" lon="5.56424">
        <ele>206</ele>
        <time>2022-09-06T05:53:32.416Z</time>
      </trkpt>
      <trkpt lat="45.66459" lon="5.56435">
        <ele>206</ele>
        <time>2022-09-06T05:53:33.416Z</time>
      </trkpt>
      <trkpt lat="45.66457" lon="5.56445">
        <ele>206</ele>
        <time>2022-09-06T05:53:34.416Z</time>
      </trkpt>
      <trkpt lat="45.66455" lon="5.56456">
        <ele>206</ele>
        <time>2022-09-06T05:53:35.416Z</time>
      </trkpt>
      <trkpt lat="45.66453" lon="5.56466">
        <ele>207</ele>
        <time>2022-09-06T05:53:36.416Z</time>
      </trkpt>
      <trkpt lat="45.6645" lon="5.56477">
        <ele>207</ele>
        <time>2022-09-06T05:53:37.416Z</time>
      </trkpt>
      <trkpt lat="45.66448" lon="5.56488">
        <ele>207</ele>
        <time>2022-09-06T05:53:38.416Z</time>
      </trkpt>
      <trkpt lat="45.66446" lon="5.565">
        <ele>207</ele>
        <time>2022-09-06T05:53:39.416Z</time>
      </trkpt>
      <trkpt lat="45.66444" lon="5.56511">
        <ele>207</ele>
        <time>2022-09-06T05:53:40.416Z</time>
      </trkpt>
      <trkpt lat="45.66442" lon="5.5652">
        <ele>208</ele>
        <time>2022-09-06T05:53:41.416Z</time>
      </trkpt>
      <trkpt lat="45.6644" lon="5.5653">
        <ele>208</ele>
        <time>2022-09-06T05:53:42.416Z</time>
      </trkpt>
      <trkpt lat="45.66438" lon="5.56541">
        <ele>208</ele>
        <time>2022-09-06T05:53:43.416Z</time>
      </trkpt>
      <trkpt lat="45.66435" lon="5.56551">
        <ele>208</ele>
        <time>2022-09-06T05:53:44.416Z</time>
      </trkpt>
      <trkpt lat="45.66433" lon="5.56561">
        <ele>208</ele>
        <time>2022-09-06T05:53:45.416Z</time>
      </trkpt>
      <trkpt lat="45.66431" lon="5.56572">
        <ele>208</ele>
        <time>2022-09-06T05:53:46.416Z</time>
      </trkpt>
      <trkpt lat="45.66429" lon="5.56582">
        <ele>208</ele>
        <time>2022-09-06T05:53:47.415Z</time>
      </trkpt>
      <trkpt lat="45.66427" lon="5.56592">
        <ele>208</ele>
        <time>2022-09-06T05:53:48.416Z</time>
      </trkpt>
      <trkpt lat="45.66425" lon="5.56603">
        <ele>208</ele>
        <time>2022-09-06T05:53:49.415Z</time>
      </trkpt>
      <trkpt lat="45.66423" lon="5.56613">
        <ele>208</ele>
        <time>2022-09-06T05:53:50.415Z</time>
      </trkpt>
      <trkpt lat="45.6642" lon="5.56623">
        <ele>208</ele>
        <time>2022-09-06T05:53:51.416Z</time>
      </trkpt>
      <trkpt lat="45.66419" lon="5.56634">
        <ele>208</ele>
        <time>2022-09-06T05:53:52.416Z</time>
      </trkpt>
      <trkpt lat="45.66417" lon="5.56644">
        <ele>208</ele>
        <time>2022-09-06T05:53:53.416Z</time>
      </trkpt>
      <trkpt lat="45.66415" lon="5.56655">
        <ele>208</ele>
        <time>2022-09-06T05:53:54.416Z</time>
      </trkpt>
      <trkpt lat="45.66414" lon="5.56666">
        <ele>208</ele>
        <time>2022-09-06T05:53:55.415Z</time>
      </trkpt>
      <trkpt lat="45.66413" lon="5.56676">
        <ele>208</ele>
        <time>2022-09-06T05:53:56.416Z</time>
      </trkpt>
      <trkpt lat="45.66412" lon="5.56687">
        <ele>208</ele>
        <time>2022-09-06T05:53:57.416Z</time>
      </trkpt>
      <trkpt lat="45.66411" lon="5.56698">
        <ele>208</ele>
        <time>2022-09-06T05:53:58.415Z</time>
      </trkpt>
      <trkpt lat="45.66411" lon="5.56708">
        <ele>208</ele>
        <time>2022-09-06T05:53:59.415Z</time>
      </trkpt>
      <trkpt lat="45.6641" lon="5.56719">
        <ele>208</ele>
        <time>2022-09-06T05:54:00.416Z</time>
      </trkpt>
      <trkpt lat="45.6641" lon="5.56729">
        <ele>208</ele>
        <time>2022-09-06T05:54:01.416Z</time>
      </trkpt>
      <trkpt lat="45.66409" lon="5.5674">
        <ele>208</ele>
        <time>2022-09-06T05:54:02.416Z</time>
      </trkpt>
      <trkpt lat="45.66409" lon="5.56751">
        <ele>208</ele>
        <time>2022-09-06T05:54:03.416Z</time>
      </trkpt>
      <trkpt lat="45.6641" lon="5.56761">
        <ele>208</ele>
        <time>2022-09-06T05:54:04.416Z</time>
      </trkpt>
      <trkpt lat="45.6641" lon="5.56772">
        <ele>209</ele>
        <time>2022-09-06T05:54:05.416Z</time>
      </trkpt>
      <trkpt lat="45.6641" lon="5.56782">
        <ele>209</ele>
        <time>2022-09-06T05:54:06.416Z</time>
      </trkpt>
      <trkpt lat="45.66411" lon="5.56793">
        <ele>209</ele>
        <time>2022-09-06T05:54:07.416Z</time>
      </trkpt>
      <trkpt lat="45.66412" lon="5.56803">
        <ele>209</ele>
        <time>2022-09-06T05:54:08.416Z</time>
      </trkpt>
      <trkpt lat="45.66413" lon="5.56813">
        <ele>209</ele>
        <time>2022-09-06T05:54:09.416Z</time>
      </trkpt>
      <trkpt lat="45.66414" lon="5.56824">
        <ele>209</ele>
        <time>2022-09-06T05:54:10.416Z</time>
      </trkpt>
      <trkpt lat="45.66415" lon="5.56834">
        <ele>209</ele>
        <time>2022-09-06T05:54:11.416Z</time>
      </trkpt>
      <trkpt lat="45.66416" lon="5.56845">
        <ele>209</ele>
        <time>2022-09-06T05:54:12.415Z</time>
      </trkpt>
      <trkpt lat="45.66418" lon="5.56855">
        <ele>210</ele>
        <time>2022-09-06T05:54:13.416Z</time>
      </trkpt>
      <trkpt lat="45.66419" lon="5.56866">
        <ele>210</ele>
        <time>2022-09-06T05:54:14.416Z</time>
      </trkpt>
      <trkpt lat="45.66421" lon="5.56876">
        <ele>210</ele>
        <time>2022-09-06T05:54:15.416Z</time>
      </trkpt>
      <trkpt lat="45.66423" lon="5.56886">
        <ele>210</ele>
        <time>2022-09-06T05:54:16.416Z</time>
      </trkpt>
      <trkpt lat="45.66425" lon="5.56897">
        <ele>210</ele>
        <time>2022-09-06T05:54:17.416Z</time>
      </trkpt>
      <trkpt lat="45.66427" lon="5.56907">
        <ele>210</ele>
        <time>2022-09-06T05:54:18.416Z</time>
      </trkpt>
      <trkpt lat="45.6643" lon="5.56917">
        <ele>209</ele>
        <time>2022-09-06T05:54:19.416Z</time>
      </trkpt>
      <trkpt lat="45.66432" lon="5.56927">
        <ele>209</ele>
        <time>2022-09-06T05:54:20.415Z</time>
      </trkpt>
      <trkpt lat="45.66435" lon="5.56937">
        <ele>209</ele>
        <time>2022-09-06T05:54:21.416Z</time>
      </trkpt>
      <trkpt lat="45.66439" lon="5.5695">
        <ele>209</ele>
        <time>2022-09-06T05:54:22.416Z</time>
      </trkpt>
      <trkpt lat="45.66441" lon="5.56958">
        <ele>209</ele>
        <time>2022-09-06T05:54:23.416Z</time>
      </trkpt>
      <trkpt lat="45.66444" lon="5.56968">
        <ele>209</ele>
        <time>2022-09-06T05:54:24.416Z</time>
      </trkpt>
      <trkpt lat="45.66447" lon="5.56978">
        <ele>209</ele>
        <time>2022-09-06T05:54:25.415Z</time>
      </trkpt>
      <trkpt lat="45.66451" lon="5.56988">
        <ele>209</ele>
        <time>2022-09-06T05:54:26.416Z</time>
      </trkpt>
      <trkpt lat="45.66454" lon="5.56998">
        <ele>209</ele>
        <time>2022-09-06T05:54:27.416Z</time>
      </trkpt>
      <trkpt lat="45.66458" lon="5.5701">
        <ele>209</ele>
        <time>2022-09-06T05:54:28.416Z</time>
      </trkpt>
      <trkpt lat="45.66461" lon="5.57018">
        <ele>210</ele>
        <time>2022-09-06T05:54:29.416Z</time>
      </trkpt>
      <trkpt lat="45.66466" lon="5.57027">
        <ele>210</ele>
        <time>2022-09-06T05:54:30.416Z</time>
      </trkpt>
      <trkpt lat="45.6647" lon="5.57037">
        <ele>210</ele>
        <time>2022-09-06T05:54:31.416Z</time>
      </trkpt>
      <trkpt lat="45.66474" lon="5.57046">
        <ele>210</ele>
        <time>2022-09-06T05:54:32.416Z</time>
      </trkpt>
      <trkpt lat="45.66479" lon="5.57055">
        <ele>210</ele>
        <time>2022-09-06T05:54:33.416Z</time>
      </trkpt>
      <trkpt lat="45.66483" lon="5.57064">
        <ele>210</ele>
        <time>2022-09-06T05:54:34.415Z</time>
      </trkpt>
      <trkpt lat="45.66488" lon="5.57073">
        <ele>210</ele>
        <time>2022-09-06T05:54:35.416Z</time>
      </trkpt>
      <trkpt lat="45.66493" lon="5.57081">
        <ele>210</ele>
        <time>2022-09-06T05:54:36.416Z</time>
      </trkpt>
      <trkpt lat="45.66497" lon="5.5709">
        <ele>209</ele>
        <time>2022-09-06T05:54:37.415Z</time>
      </trkpt>
      <trkpt lat="45.66502" lon="5.57098">
        <ele>209</ele>
        <time>2022-09-06T05:54:38.416Z</time>
      </trkpt>
      <trkpt lat="45.66507" lon="5.57106">
        <ele>209</ele>
        <time>2022-09-06T05:54:39.416Z</time>
      </trkpt>
      <trkpt lat="45.66513" lon="5.57114">
        <ele>209</ele>
        <time>2022-09-06T05:54:40.416Z</time>
      </trkpt>
      <trkpt lat="45.66518" lon="5.57122">
        <ele>208</ele>
        <time>2022-09-06T05:54:41.416Z</time>
      </trkpt>
      <trkpt lat="45.66523" lon="5.5713">
        <ele>208</ele>
        <time>2022-09-06T05:54:42.416Z</time>
      </trkpt>
      <trkpt lat="45.66529" lon="5.57138">
        <ele>208</ele>
        <time>2022-09-06T05:54:43.416Z</time>
      </trkpt>
      <trkpt lat="45.66534" lon="5.57145">
        <ele>208</ele>
        <time>2022-09-06T05:54:44.416Z</time>
      </trkpt>
      <trkpt lat="45.6654" lon="5.57153">
        <ele>208</ele>
        <time>2022-09-06T05:54:45.416Z</time>
      </trkpt>
      <trkpt lat="45.66547" lon="5.57161">
        <ele>208</ele>
        <time>2022-09-06T05:54:46.416Z</time>
      </trkpt>
      <trkpt lat="45.66553" lon="5.57169">
        <ele>208</ele>
        <time>2022-09-06T05:54:47.416Z</time>
      </trkpt>
      <trkpt lat="45.66559" lon="5.57176">
        <ele>208</ele>
        <time>2022-09-06T05:54:48.415Z</time>
      </trkpt>
      <trkpt lat="45.66565" lon="5.57183">
        <ele>209</ele>
        <time>2022-09-06T05:54:49.416Z</time>
      </trkpt>
      <trkpt lat="45.66571" lon="5.57189">
        <ele>209</ele>
        <time>2022-09-06T05:54:50.416Z</time>
      </trkpt>
      <trkpt lat="45.66577" lon="5.57196">
        <ele>209</ele>
        <time>2022-09-06T05:54:51.416Z</time>
      </trkpt>
      <trkpt lat="45.66581" lon="5.57201">
        <ele>209</ele>
        <time>2022-09-06T05:54:52.416Z</time>
      </trkpt>
      <trkpt lat="45.66589" lon="5.57208">
        <ele>209</ele>
        <time>2022-09-06T05:54:53.415Z</time>
      </trkpt>
      <trkpt lat="45.66595" lon="5.57215">
        <ele>209</ele>
        <time>2022-09-06T05:54:54.416Z</time>
      </trkpt>
      <trkpt lat="45.66601" lon="5.5722">
        <ele>209</ele>
        <time>2022-09-06T05:54:55.416Z</time>
      </trkpt>
      <trkpt lat="45.66608" lon="5.57226">
        <ele>209</ele>
        <time>2022-09-06T05:54:56.416Z</time>
      </trkpt>
      <trkpt lat="45.66614" lon="5.57231">
        <ele>209</ele>
        <time>2022-09-06T05:54:57.416Z</time>
      </trkpt>
      <trkpt lat="45.66621" lon="5.57235">
        <ele>209</ele>
        <time>2022-09-06T05:54:58.416Z</time>
      </trkpt>
      <trkpt lat="45.66628" lon="5.5724">
        <ele>209</ele>
        <time>2022-09-06T05:54:59.416Z</time>
      </trkpt>
      <trkpt lat="45.66635" lon="5.57244">
        <ele>209</ele>
        <time>2022-09-06T05:55:00.415Z</time>
      </trkpt>
      <trkpt lat="45.66642" lon="5.57248">
        <ele>210</ele>
        <time>2022-09-06T05:55:01.416Z</time>
      </trkpt>
      <trkpt lat="45.66649" lon="5.57252">
        <ele>210</ele>
        <time>2022-09-06T05:55:02.416Z</time>
      </trkpt>
      <trkpt lat="45.66656" lon="5.57256">
        <ele>210</ele>
        <time>2022-09-06T05:55:03.416Z</time>
      </trkpt>
      <trkpt lat="45.66663" lon="5.5726">
        <ele>210</ele>
        <time>2022-09-06T05:55:04.416Z</time>
      </trkpt>
      <trkpt lat="45.6667" lon="5.57264">
        <ele>210</ele>
        <time>2022-09-06T05:55:05.416Z</time>
      </trkpt>
      <trkpt lat="45.66677" lon="5.57268">
        <ele>211</ele>
        <time>2022-09-06T05:55:06.416Z</time>
      </trkpt>
      <trkpt lat="45.66684" lon="5.57272">
        <ele>211</ele>
        <time>2022-09-06T05:55:07.416Z</time>
      </trkpt>
      <trkpt lat="45.66691" lon="5.57276">
        <ele>211</ele>
        <time>2022-09-06T05:55:08.416Z</time>
      </trkpt>
      <trkpt lat="45.66697" lon="5.5728">
        <ele>211</ele>
        <time>2022-09-06T05:55:09.416Z</time>
      </trkpt>
      <trkpt lat="45.66704" lon="5.57284">
        <ele>211</ele>
        <time>2022-09-06T05:55:10.416Z</time>
      </trkpt>
      <trkpt lat="45.66711" lon="5.57287">
        <ele>211</ele>
        <time>2022-09-06T05:55:11.415Z</time>
      </trkpt>
      <trkpt lat="45.66718" lon="5.57291">
        <ele>211</ele>
        <time>2022-09-06T05:55:12.415Z</time>
      </trkpt>
      <trkpt lat="45.66725" lon="5.57294">
        <ele>211</ele>
        <time>2022-09-06T05:55:13.416Z</time>
      </trkpt>
      <trkpt lat="45.66731" lon="5.57298">
        <ele>211</ele>
        <time>2022-09-06T05:55:14.416Z</time>
      </trkpt>
      <trkpt lat="45.66738" lon="5.57301">
        <ele>212</ele>
        <time>2022-09-06T05:55:15.415Z</time>
      </trkpt>
      <trkpt lat="45.66744" lon="5.57305">
        <ele>211</ele>
        <time>2022-09-06T05:55:16.416Z</time>
      </trkpt>
      <trkpt lat="45.6675" lon="5.57309">
        <ele>211</ele>
        <time>2022-09-06T05:55:17.416Z</time>
      </trkpt>
      <trkpt lat="45.66757" lon="5.57312">
        <ele>211</ele>
        <time>2022-09-06T05:55:18.415Z</time>
      </trkpt>
      <trkpt lat="45.66762" lon="5.57315">
        <ele>211</ele>
        <time>2022-09-06T05:55:19.416Z</time>
      </trkpt>
      <trkpt lat="45.6677" lon="5.57319">
        <ele>211</ele>
        <time>2022-09-06T05:55:20.415Z</time>
      </trkpt>
      <trkpt lat="45.66776" lon="5.57323">
        <ele>212</ele>
        <time>2022-09-06T05:55:21.416Z</time>
      </trkpt>
      <trkpt lat="45.66782" lon="5.57326">
        <ele>212</ele>
        <time>2022-09-06T05:55:22.416Z</time>
      </trkpt>
      <trkpt lat="45.66789" lon="5.57329">
        <ele>213</ele>
        <time>2022-09-06T05:55:23.416Z</time>
      </trkpt>
      <trkpt lat="45.66795" lon="5.57332">
        <ele>214</ele>
        <time>2022-09-06T05:55:24.416Z</time>
      </trkpt>
      <trkpt lat="45.66801" lon="5.57336">
        <ele>214</ele>
        <time>2022-09-06T05:55:25.416Z</time>
      </trkpt>
      <trkpt lat="45.66808" lon="5.57339">
        <ele>215</ele>
        <time>2022-09-06T05:55:26.416Z</time>
      </trkpt>
      <trkpt lat="45.66814" lon="5.57343">
        <ele>216</ele>
        <time>2022-09-06T05:55:27.415Z</time>
      </trkpt>
      <trkpt lat="45.66819" lon="5.57346">
        <ele>216</ele>
        <time>2022-09-06T05:55:28.416Z</time>
      </trkpt>
      <trkpt lat="45.66826" lon="5.5735">
        <ele>217</ele>
        <time>2022-09-06T05:55:29.415Z</time>
      </trkpt>
      <trkpt lat="45.66833" lon="5.57354">
        <ele>217</ele>
        <time>2022-09-06T05:55:30.416Z</time>
      </trkpt>
      <trkpt lat="45.66839" lon="5.57358">
        <ele>218</ele>
        <time>2022-09-06T05:55:31.416Z</time>
      </trkpt>
      <trkpt lat="45.66846" lon="5.57362">
        <ele>219</ele>
        <time>2022-09-06T05:55:32.416Z</time>
      </trkpt>
      <trkpt lat="45.66852" lon="5.57366">
        <ele>220</ele>
        <time>2022-09-06T05:55:33.416Z</time>
      </trkpt>
      <trkpt lat="45.66858" lon="5.57369">
        <ele>220</ele>
        <time>2022-09-06T05:55:34.416Z</time>
      </trkpt>
      <trkpt lat="45.66865" lon="5.57373">
        <ele>220</ele>
        <time>2022-09-06T05:55:35.416Z</time>
      </trkpt>
      <trkpt lat="45.66871" lon="5.57378">
        <ele>220</ele>
        <time>2022-09-06T05:55:36.416Z</time>
      </trkpt>
      <trkpt lat="45.66876" lon="5.57381">
        <ele>220</ele>
        <time>2022-09-06T05:55:37.416Z</time>
      </trkpt>
      <trkpt lat="45.66884" lon="5.57386">
        <ele>220</ele>
        <time>2022-09-06T05:55:38.415Z</time>
      </trkpt>
      <trkpt lat="45.6689" lon="5.5739">
        <ele>220</ele>
        <time>2022-09-06T05:55:39.416Z</time>
      </trkpt>
      <trkpt lat="45.66897" lon="5.57394">
        <ele>220</ele>
        <time>2022-09-06T05:55:40.416Z</time>
      </trkpt>
      <trkpt lat="45.66903" lon="5.57398">
        <ele>220</ele>
        <time>2022-09-06T05:55:41.415Z</time>
      </trkpt>
      <trkpt lat="45.66909" lon="5.57402">
        <ele>220</ele>
        <time>2022-09-06T05:55:42.416Z</time>
      </trkpt>
      <trkpt lat="45.66916" lon="5.57406">
        <ele>220</ele>
        <time>2022-09-06T05:55:43.415Z</time>
      </trkpt>
      <trkpt lat="45.66922" lon="5.5741">
        <ele>220</ele>
        <time>2022-09-06T05:55:44.415Z</time>
      </trkpt>
      <trkpt lat="45.66928" lon="5.57414">
        <ele>220</ele>
        <time>2022-09-06T05:55:45.416Z</time>
      </trkpt>
      <trkpt lat="45.66936" lon="5.57419">
        <ele>220</ele>
        <time>2022-09-06T05:55:46.415Z</time>
      </trkpt>
      <trkpt lat="45.66943" lon="5.57424">
        <ele>219</ele>
        <time>2022-09-06T05:55:47.416Z</time>
      </trkpt>
      <trkpt lat="45.6695" lon="5.57428">
        <ele>219</ele>
        <time>2022-09-06T05:55:48.415Z</time>
      </trkpt>
      <trkpt lat="45.66957" lon="5.57433">
        <ele>219</ele>
        <time>2022-09-06T05:55:49.415Z</time>
      </trkpt>
      <trkpt lat="45.66962" lon="5.57436">
        <ele>219</ele>
        <time>2022-09-06T05:55:50.416Z</time>
      </trkpt>
      <trkpt lat="45.66971" lon="5.57442">
        <ele>219</ele>
        <time>2022-09-06T05:55:51.416Z</time>
      </trkpt>
      <trkpt lat="45.66978" lon="5.57446">
        <ele>218</ele>
        <time>2022-09-06T05:55:52.416Z</time>
      </trkpt>
      <trkpt lat="45.66985" lon="5.57451">
        <ele>218</ele>
        <time>2022-09-06T05:55:53.415Z</time>
      </trkpt>
      <trkpt lat="45.6699" lon="5.57455">
        <ele>218</ele>
        <time>2022-09-06T05:55:54.416Z</time>
      </trkpt>
      <trkpt lat="45.66997" lon="5.57459">
        <ele>218</ele>
        <time>2022-09-06T05:55:55.415Z</time>
      </trkpt>
      <trkpt lat="45.67005" lon="5.57464">
        <ele>218</ele>
        <time>2022-09-06T05:55:56.415Z</time>
      </trkpt>
      <trkpt lat="45.67012" lon="5.57469">
        <ele>218</ele>
        <time>2022-09-06T05:55:57.416Z</time>
      </trkpt>
      <trkpt lat="45.67019" lon="5.57473">
        <ele>218</ele>
        <time>2022-09-06T05:55:58.416Z</time>
      </trkpt>
      <trkpt lat="45.67026" lon="5.57478">
        <ele>218</ele>
        <time>2022-09-06T05:55:59.416Z</time>
      </trkpt>
      <trkpt lat="45.67032" lon="5.57482">
        <ele>217</ele>
        <time>2022-09-06T05:56:00.416Z</time>
      </trkpt>
      <trkpt lat="45.67039" lon="5.57487">
        <ele>217</ele>
        <time>2022-09-06T05:56:01.416Z</time>
      </trkpt>
      <trkpt lat="45.67046" lon="5.57491">
        <ele>217</ele>
        <time>2022-09-06T05:56:02.416Z</time>
      </trkpt>
      <trkpt lat="45.67051" lon="5.57494">
        <ele>217</ele>
        <time>2022-09-06T05:56:03.416Z</time>
      </trkpt>
      <trkpt lat="45.67059" lon="5.575">
        <ele>217</ele>
        <time>2022-09-06T05:56:04.416Z</time>
      </trkpt>
      <trkpt lat="45.67066" lon="5.57504">
        <ele>217</ele>
        <time>2022-09-06T05:56:05.415Z</time>
      </trkpt>
      <trkpt lat="45.67073" lon="5.57508">
        <ele>217</ele>
        <time>2022-09-06T05:56:06.416Z</time>
      </trkpt>
      <trkpt lat="45.67079" lon="5.57512">
        <ele>217</ele>
        <time>2022-09-06T05:56:07.416Z</time>
      </trkpt>
      <trkpt lat="45.67086" lon="5.57517">
        <ele>218</ele>
        <time>2022-09-06T05:56:08.415Z</time>
      </trkpt>
      <trkpt lat="45.67093" lon="5.57521">
        <ele>218</ele>
        <time>2022-09-06T05:56:09.416Z</time>
      </trkpt>
      <trkpt lat="45.671" lon="5.57525">
        <ele>218</ele>
        <time>2022-09-06T05:56:10.416Z</time>
      </trkpt>
      <trkpt lat="45.67107" lon="5.5753">
        <ele>219</ele>
        <time>2022-09-06T05:56:11.416Z</time>
      </trkpt>
      <trkpt lat="45.67113" lon="5.57534">
        <ele>219</ele>
        <time>2022-09-06T05:56:12.416Z</time>
      </trkpt>
      <trkpt lat="45.6712" lon="5.57539">
        <ele>219</ele>
        <time>2022-09-06T05:56:13.415Z</time>
      </trkpt>
      <trkpt lat="45.67127" lon="5.57543">
        <ele>219</ele>
        <time>2022-09-06T05:56:14.415Z</time>
      </trkpt>
      <trkpt lat="45.67133" lon="5.57547">
        <ele>219</ele>
        <time>2022-09-06T05:56:15.416Z</time>
      </trkpt>
      <trkpt lat="45.6714" lon="5.57551">
        <ele>219</ele>
        <time>2022-09-06T05:56:16.416Z</time>
      </trkpt>
      <trkpt lat="45.67146" lon="5.57555">
        <ele>220</ele>
        <time>2022-09-06T05:56:17.416Z</time>
      </trkpt>
      <trkpt lat="45.67152" lon="5.57559">
        <ele>220</ele>
        <time>2022-09-06T05:56:18.416Z</time>
      </trkpt>
      <trkpt lat="45.67159" lon="5.57563">
        <ele>220</ele>
        <time>2022-09-06T05:56:19.416Z</time>
      </trkpt>
      <trkpt lat="45.67165" lon="5.57567">
        <ele>220</ele>
        <time>2022-09-06T05:56:20.415Z</time>
      </trkpt>
      <trkpt lat="45.67171" lon="5.57571">
        <ele>221</ele>
        <time>2022-09-06T05:56:21.416Z</time>
      </trkpt>
      <trkpt lat="45.67176" lon="5.57575">
        <ele>221</ele>
        <time>2022-09-06T05:56:22.416Z</time>
      </trkpt>
      <trkpt lat="45.67182" lon="5.57579">
        <ele>222</ele>
        <time>2022-09-06T05:56:23.415Z</time>
      </trkpt>
      <trkpt lat="45.67189" lon="5.57584">
        <ele>222</ele>
        <time>2022-09-06T05:56:24.416Z</time>
      </trkpt>
      <trkpt lat="45.67195" lon="5.57588">
        <ele>222</ele>
        <time>2022-09-06T05:56:25.416Z</time>
      </trkpt>
      <trkpt lat="45.67201" lon="5.57593">
        <ele>222</ele>
        <time>2022-09-06T05:56:26.416Z</time>
      </trkpt>
      <trkpt lat="45.67207" lon="5.57597">
        <ele>222</ele>
        <time>2022-09-06T05:56:27.416Z</time>
      </trkpt>
      <trkpt lat="45.67213" lon="5.57602">
        <ele>222</ele>
        <time>2022-09-06T05:56:28.416Z</time>
      </trkpt>
      <trkpt lat="45.67219" lon="5.57607">
        <ele>222</ele>
        <time>2022-09-06T05:56:29.416Z</time>
      </trkpt>
      <trkpt lat="45.67224" lon="5.57611">
        <ele>223</ele>
        <time>2022-09-06T05:56:30.416Z</time>
      </trkpt>
      <trkpt lat="45.67231" lon="5.57617">
        <ele>223</ele>
        <time>2022-09-06T05:56:31.415Z</time>
      </trkpt>
      <trkpt lat="45.67236" lon="5.57622">
        <ele>223</ele>
        <time>2022-09-06T05:56:32.416Z</time>
      </trkpt>
      <trkpt lat="45.67242" lon="5.57628">
        <ele>224</ele>
        <time>2022-09-06T05:56:33.416Z</time>
      </trkpt>
      <trkpt lat="45.67246" lon="5.57633">
        <ele>224</ele>
        <time>2022-09-06T05:56:34.416Z</time>
      </trkpt>
      <trkpt lat="45.67251" lon="5.5764">
        <ele>223</ele>
        <time>2022-09-06T05:56:35.415Z</time>
      </trkpt>
      <trkpt lat="45.67256" lon="5.57651">
        <ele>223</ele>
        <time>2022-09-06T05:56:36.416Z</time>
      </trkpt>
      <trkpt lat="45.67258" lon="5.57661">
        <ele>223</ele>
        <time>2022-09-06T05:56:37.416Z</time>
      </trkpt>
      <trkpt lat="45.6726" lon="5.57671">
        <ele>222</ele>
        <time>2022-09-06T05:56:38.415Z</time>
      </trkpt>
      <trkpt lat="45.6726" lon="5.5768">
        <ele>222</ele>
        <time>2022-09-06T05:56:39.416Z</time>
      </trkpt>
      <trkpt lat="45.67259" lon="5.57693">
        <ele>222</ele>
        <time>2022-09-06T05:56:40.416Z</time>
      </trkpt>
      <trkpt lat="45.67256" lon="5.57703">
        <ele>223</ele>
        <time>2022-09-06T05:56:41.416Z</time>
      </trkpt>
      <trkpt lat="45.67252" lon="5.57712">
        <ele>223</ele>
        <time>2022-09-06T05:56:42.415Z</time>
      </trkpt>
      <trkpt lat="45.67248" lon="5.57719">
        <ele>223</ele>
        <time>2022-09-06T05:56:43.416Z</time>
      </trkpt>
      <trkpt lat="45.67243" lon="5.5773">
        <ele>223</ele>
        <time>2022-09-06T05:56:44.415Z</time>
      </trkpt>
      <trkpt lat="45.67237" lon="5.57738">
        <ele>223</ele>
        <time>2022-09-06T05:56:45.416Z</time>
      </trkpt>
      <trkpt lat="45.67231" lon="5.57746">
        <ele>223</ele>
        <time>2022-09-06T05:56:46.416Z</time>
      </trkpt>
      <trkpt lat="45.67225" lon="5.57754">
        <ele>223</ele>
        <time>2022-09-06T05:56:47.416Z</time>
      </trkpt>
      <trkpt lat="45.67219" lon="5.57762">
        <ele>222</ele>
        <time>2022-09-06T05:56:48.416Z</time>
      </trkpt>
      <trkpt lat="45.67213" lon="5.57769">
        <ele>222</ele>
        <time>2022-09-06T05:56:49.416Z</time>
      </trkpt>
      <trkpt lat="45.67207" lon="5.57776">
        <ele>222</ele>
        <time>2022-09-06T05:56:50.416Z</time>
      </trkpt>
      <trkpt lat="45.672" lon="5.57783">
        <ele>221</ele>
        <time>2022-09-06T05:56:51.415Z</time>
      </trkpt>
      <trkpt lat="45.67193" lon="5.57789">
        <ele>221</ele>
        <time>2022-09-06T05:56:52.416Z</time>
      </trkpt>
      <trkpt lat="45.67186" lon="5.57796">
        <ele>220</ele>
        <time>2022-09-06T05:56:53.416Z</time>
      </trkpt>
      <trkpt lat="45.6718" lon="5.57804">
        <ele>220</ele>
        <time>2022-09-06T05:56:54.416Z</time>
      </trkpt>
      <trkpt lat="45.67173" lon="5.57812">
        <ele>219</ele>
        <time>2022-09-06T05:56:55.415Z</time>
      </trkpt>
      <trkpt lat="45.67167" lon="5.5782">
        <ele>219</ele>
        <time>2022-09-06T05:56:56.416Z</time>
      </trkpt>
      <trkpt lat="45.67162" lon="5.57829">
        <ele>219</ele>
        <time>2022-09-06T05:56:57.415Z</time>
      </trkpt>
      <trkpt lat="45.67156" lon="5.57838">
        <ele>218</ele>
        <time>2022-09-06T05:56:58.416Z</time>
      </trkpt>
      <trkpt lat="45.67151" lon="5.57848">
        <ele>218</ele>
        <time>2022-09-06T05:56:59.416Z</time>
      </trkpt>
      <trkpt lat="45.67146" lon="5.57858">
        <ele>219</ele>
        <time>2022-09-06T05:57:00.415Z</time>
      </trkpt>
      <trkpt lat="45.67142" lon="5.57866">
        <ele>219</ele>
        <time>2022-09-06T05:57:01.416Z</time>
      </trkpt>
      <trkpt lat="45.67137" lon="5.57876">
        <ele>218</ele>
        <time>2022-09-06T05:57:02.416Z</time>
      </trkpt>
      <trkpt lat="45.67132" lon="5.57886">
        <ele>218</ele>
        <time>2022-09-06T05:57:03.416Z</time>
      </trkpt>
      <trkpt lat="45.67128" lon="5.57896">
        <ele>218</ele>
        <time>2022-09-06T05:57:04.415Z</time>
      </trkpt>
      <trkpt lat="45.67123" lon="5.57906">
        <ele>218</ele>
        <time>2022-09-06T05:57:05.416Z</time>
      </trkpt>
      <trkpt lat="45.67118" lon="5.57917">
        <ele>218</ele>
        <time>2022-09-06T05:57:06.416Z</time>
      </trkpt>
      <trkpt lat="45.67113" lon="5.57927">
        <ele>218</ele>
        <time>2022-09-06T05:57:07.416Z</time>
      </trkpt>
      <trkpt lat="45.67108" lon="5.57938">
        <ele>218</ele>
        <time>2022-09-06T05:57:08.415Z</time>
      </trkpt>
      <trkpt lat="45.67104" lon="5.57949">
        <ele>218</ele>
        <time>2022-09-06T05:57:09.416Z</time>
      </trkpt>
      <trkpt lat="45.67099" lon="5.57959">
        <ele>218</ele>
        <time>2022-09-06T05:57:10.416Z</time>
      </trkpt>
      <trkpt lat="45.67093" lon="5.57972">
        <ele>217</ele>
        <time>2022-09-06T05:57:11.416Z</time>
      </trkpt>
      <trkpt lat="45.67089" lon="5.57983">
        <ele>218</ele>
        <time>2022-09-06T05:57:12.416Z</time>
      </trkpt>
      <trkpt lat="45.67084" lon="5.57994">
        <ele>218</ele>
        <time>2022-09-06T05:57:13.416Z</time>
      </trkpt>
      <trkpt lat="45.67079" lon="5.58005">
        <ele>218</ele>
        <time>2022-09-06T05:57:14.416Z</time>
      </trkpt>
      <trkpt lat="45.67074" lon="5.58014">
        <ele>217</ele>
        <time>2022-09-06T05:57:15.416Z</time>
      </trkpt>
      <trkpt lat="45.67069" lon="5.58027">
        <ele>217</ele>
        <time>2022-09-06T05:57:16.415Z</time>
      </trkpt>
      <trkpt lat="45.67064" lon="5.58038">
        <ele>216</ele>
        <time>2022-09-06T05:57:17.416Z</time>
      </trkpt>
      <trkpt lat="45.67059" lon="5.58049">
        <ele>216</ele>
        <time>2022-09-06T05:57:18.415Z</time>
      </trkpt>
      <trkpt lat="45.67055" lon="5.5806">
        <ele>216</ele>
        <time>2022-09-06T05:57:19.415Z</time>
      </trkpt>
      <trkpt lat="45.67051" lon="5.58069">
        <ele>216</ele>
        <time>2022-09-06T05:57:20.416Z</time>
      </trkpt>
      <trkpt lat="45.67047" lon="5.5808">
        <ele>215</ele>
        <time>2022-09-06T05:57:21.416Z</time>
      </trkpt>
      <trkpt lat="45.67043" lon="5.58091">
        <ele>215</ele>
        <time>2022-09-06T05:57:22.416Z</time>
      </trkpt>
      <trkpt lat="45.67039" lon="5.58105">
        <ele>215</ele>
        <time>2022-09-06T05:57:23.415Z</time>
      </trkpt>
      <trkpt lat="45.67036" lon="5.58115">
        <ele>215</ele>
        <time>2022-09-06T05:57:24.416Z</time>
      </trkpt>
      <trkpt lat="45.67033" lon="5.58127">
        <ele>214</ele>
        <time>2022-09-06T05:57:25.416Z</time>
      </trkpt>
      <trkpt lat="45.67031" lon="5.5814">
        <ele>214</ele>
        <time>2022-09-06T05:57:26.416Z</time>
      </trkpt>
      <trkpt lat="45.6703" lon="5.58152">
        <ele>214</ele>
        <time>2022-09-06T05:57:27.415Z</time>
      </trkpt>
      <trkpt lat="45.67028" lon="5.58165">
        <ele>214</ele>
        <time>2022-09-06T05:57:28.416Z</time>
      </trkpt>
      <trkpt lat="45.67028" lon="5.58178">
        <ele>214</ele>
        <time>2022-09-06T05:57:29.415Z</time>
      </trkpt>
      <trkpt lat="45.67029" lon="5.58191">
        <ele>214</ele>
        <time>2022-09-06T05:57:30.416Z</time>
      </trkpt>
      <trkpt lat="45.67031" lon="5.58205">
        <ele>214</ele>
        <time>2022-09-06T05:57:31.415Z</time>
      </trkpt>
      <trkpt lat="45.67033" lon="5.58218">
        <ele>214</ele>
        <time>2022-09-06T05:57:32.416Z</time>
      </trkpt>
      <trkpt lat="45.67036" lon="5.58231">
        <ele>214</ele>
        <time>2022-09-06T05:57:33.416Z</time>
      </trkpt>
      <trkpt lat="45.67039" lon="5.58245">
        <ele>214</ele>
        <time>2022-09-06T05:57:34.415Z</time>
      </trkpt>
      <trkpt lat="45.67042" lon="5.58258">
        <ele>213</ele>
        <time>2022-09-06T05:57:35.416Z</time>
      </trkpt>
      <trkpt lat="45.67045" lon="5.58272">
        <ele>213</ele>
        <time>2022-09-06T05:57:36.416Z</time>
      </trkpt>
      <trkpt lat="45.67049" lon="5.58285">
        <ele>213</ele>
        <time>2022-09-06T05:57:37.416Z</time>
      </trkpt>
      <trkpt lat="45.67052" lon="5.58299">
        <ele>212</ele>
        <time>2022-09-06T05:57:38.416Z</time>
      </trkpt>
      <trkpt lat="45.67056" lon="5.58312">
        <ele>212</ele>
        <time>2022-09-06T05:57:39.416Z</time>
      </trkpt>
      <trkpt lat="45.6706" lon="5.58328">
        <ele>212</ele>
        <time>2022-09-06T05:57:40.416Z</time>
      </trkpt>
      <trkpt lat="45.67064" lon="5.58342">
        <ele>212</ele>
        <time>2022-09-06T05:57:41.416Z</time>
      </trkpt>
      <trkpt lat="45.67068" lon="5.58355">
        <ele>211</ele>
        <time>2022-09-06T05:57:42.416Z</time>
      </trkpt>
      <trkpt lat="45.67071" lon="5.58369">
        <ele>211</ele>
        <time>2022-09-06T05:57:43.416Z</time>
      </trkpt>
      <trkpt lat="45.67075" lon="5.58382">
        <ele>211</ele>
        <time>2022-09-06T05:57:44.415Z</time>
      </trkpt>
      <trkpt lat="45.67078" lon="5.58396">
        <ele>211</ele>
        <time>2022-09-06T05:57:45.416Z</time>
      </trkpt>
      <trkpt lat="45.67081" lon="5.58409">
        <ele>211</ele>
        <time>2022-09-06T05:57:46.416Z</time>
      </trkpt>
      <trkpt lat="45.67085" lon="5.58422">
        <ele>211</ele>
        <time>2022-09-06T05:57:47.416Z</time>
      </trkpt>
      <trkpt lat="45.67088" lon="5.58435">
        <ele>211</ele>
        <time>2022-09-06T05:57:48.416Z</time>
      </trkpt>
      <trkpt lat="45.67092" lon="5.58448">
        <ele>210</ele>
        <time>2022-09-06T05:57:49.416Z</time>
      </trkpt>
      <trkpt lat="45.67095" lon="5.58461">
        <ele>210</ele>
        <time>2022-09-06T05:57:50.416Z</time>
      </trkpt>
      <trkpt lat="45.67098" lon="5.58474">
        <ele>210</ele>
        <time>2022-09-06T05:57:51.416Z</time>
      </trkpt>
      <trkpt lat="45.67101" lon="5.58484">
        <ele>209</ele>
        <time>2022-09-06T05:57:52.416Z</time>
      </trkpt>
      <trkpt lat="45.67104" lon="5.58499">
        <ele>209</ele>
        <time>2022-09-06T05:57:53.415Z</time>
      </trkpt>
      <trkpt lat="45.67108" lon="5.58512">
        <ele>209</ele>
        <time>2022-09-06T05:57:54.416Z</time>
      </trkpt>
      <trkpt lat="45.67111" lon="5.58524">
        <ele>209</ele>
        <time>2022-09-06T05:57:55.416Z</time>
      </trkpt>
      <trkpt lat="45.67114" lon="5.58536">
        <ele>209</ele>
        <time>2022-09-06T05:57:56.416Z</time>
      </trkpt>
      <trkpt lat="45.67117" lon="5.58549">
        <ele>209</ele>
        <time>2022-09-06T05:57:57.416Z</time>
      </trkpt>
      <trkpt lat="45.67121" lon="5.58561">
        <ele>208</ele>
        <time>2022-09-06T05:57:58.416Z</time>
      </trkpt>
      <trkpt lat="45.67124" lon="5.58573">
        <ele>208</ele>
        <time>2022-09-06T05:57:59.415Z</time>
      </trkpt>
      <trkpt lat="45.67126" lon="5.58583">
        <ele>208</ele>
        <time>2022-09-06T05:58:00.416Z</time>
      </trkpt>
      <trkpt lat="45.67129" lon="5.58595">
        <ele>208</ele>
        <time>2022-09-06T05:58:01.415Z</time>
      </trkpt>
      <trkpt lat="45.67133" lon="5.58609">
        <ele>208</ele>
        <time>2022-09-06T05:58:02.416Z</time>
      </trkpt>
      <trkpt lat="45.67136" lon="5.58621">
        <ele>208</ele>
        <time>2022-09-06T05:58:03.415Z</time>
      </trkpt>
      <trkpt lat="45.67139" lon="5.58633">
        <ele>208</ele>
        <time>2022-09-06T05:58:04.416Z</time>
      </trkpt>
      <trkpt lat="45.67142" lon="5.58645">
        <ele>208</ele>
        <time>2022-09-06T05:58:05.416Z</time>
      </trkpt>
      <trkpt lat="45.67145" lon="5.58657">
        <ele>208</ele>
        <time>2022-09-06T05:58:06.416Z</time>
      </trkpt>
      <trkpt lat="45.67148" lon="5.58668">
        <ele>208</ele>
        <time>2022-09-06T05:58:07.416Z</time>
      </trkpt>
      <trkpt lat="45.67151" lon="5.5868">
        <ele>208</ele>
        <time>2022-09-06T05:58:08.415Z</time>
      </trkpt>
      <trkpt lat="45.67154" lon="5.58692">
        <ele>208</ele>
        <time>2022-09-06T05:58:09.416Z</time>
      </trkpt>
      <trkpt lat="45.67157" lon="5.58704">
        <ele>208</ele>
        <time>2022-09-06T05:58:10.416Z</time>
      </trkpt>
      <trkpt lat="45.6716" lon="5.58716">
        <ele>208</ele>
        <time>2022-09-06T05:58:11.415Z</time>
      </trkpt>
      <trkpt lat="45.67163" lon="5.58727">
        <ele>208</ele>
        <time>2022-09-06T05:58:12.416Z</time>
      </trkpt>
      <trkpt lat="45.67166" lon="5.58739">
        <ele>208</ele>
        <time>2022-09-06T05:58:13.415Z</time>
      </trkpt>
      <trkpt lat="45.67169" lon="5.58751">
        <ele>208</ele>
        <time>2022-09-06T05:58:14.416Z</time>
      </trkpt>
      <trkpt lat="45.67172" lon="5.58763">
        <ele>208</ele>
        <time>2022-09-06T05:58:15.415Z</time>
      </trkpt>
      <trkpt lat="45.67175" lon="5.58774">
        <ele>209</ele>
        <time>2022-09-06T05:58:16.415Z</time>
      </trkpt>
      <trkpt lat="45.67178" lon="5.58786">
        <ele>209</ele>
        <time>2022-09-06T05:58:17.415Z</time>
      </trkpt>
      <trkpt lat="45.67181" lon="5.58798">
        <ele>209</ele>
        <time>2022-09-06T05:58:18.415Z</time>
      </trkpt>
      <trkpt lat="45.67184" lon="5.58809">
        <ele>209</ele>
        <time>2022-09-06T05:58:19.415Z</time>
      </trkpt>
      <trkpt lat="45.67187" lon="5.58821">
        <ele>209</ele>
        <time>2022-09-06T05:58:20.415Z</time>
      </trkpt>
      <trkpt lat="45.6719" lon="5.58832">
        <ele>209</ele>
        <time>2022-09-06T05:58:21.416Z</time>
      </trkpt>
      <trkpt lat="45.67193" lon="5.58843">
        <ele>209</ele>
        <time>2022-09-06T05:58:22.416Z</time>
      </trkpt>
      <trkpt lat="45.67196" lon="5.58855">
        <ele>209</ele>
        <time>2022-09-06T05:58:23.415Z</time>
      </trkpt>
      <trkpt lat="45.67199" lon="5.58866">
        <ele>209</ele>
        <time>2022-09-06T05:58:24.415Z</time>
      </trkpt>
      <trkpt lat="45.67201" lon="5.58878">
        <ele>209</ele>
        <time>2022-09-06T05:58:25.415Z</time>
      </trkpt>
      <trkpt lat="45.67204" lon="5.58889">
        <ele>209</ele>
        <time>2022-09-06T05:58:26.415Z</time>
      </trkpt>
      <trkpt lat="45.67207" lon="5.589">
        <ele>208</ele>
        <time>2022-09-06T05:58:27.415Z</time>
      </trkpt>
      <trkpt lat="45.6721" lon="5.58911">
        <ele>208</ele>
        <time>2022-09-06T05:58:28.415Z</time>
      </trkpt>
      <trkpt lat="45.67213" lon="5.58922">
        <ele>208</ele>
        <time>2022-09-06T05:58:29.415Z</time>
      </trkpt>
      <trkpt lat="45.67216" lon="5.58933">
        <ele>208</ele>
        <time>2022-09-06T05:58:30.416Z</time>
      </trkpt>
      <trkpt lat="45.67218" lon="5.58942">
        <ele>208</ele>
        <time>2022-09-06T05:58:31.416Z</time>
      </trkpt>
      <trkpt lat="45.67221" lon="5.58953">
        <ele>208</ele>
        <time>2022-09-06T05:58:32.416Z</time>
      </trkpt>
      <trkpt lat="45.67224" lon="5.58967">
        <ele>208</ele>
        <time>2022-09-06T05:58:33.416Z</time>
      </trkpt>
      <trkpt lat="45.67227" lon="5.58978">
        <ele>208</ele>
        <time>2022-09-06T05:58:34.415Z</time>
      </trkpt>
      <trkpt lat="45.6723" lon="5.58989">
        <ele>208</ele>
        <time>2022-09-06T05:58:35.416Z</time>
      </trkpt>
      <trkpt lat="45.67232" lon="5.59">
        <ele>207</ele>
        <time>2022-09-06T05:58:36.416Z</time>
      </trkpt>
      <trkpt lat="45.67235" lon="5.59009">
        <ele>207</ele>
        <time>2022-09-06T05:58:37.416Z</time>
      </trkpt>
      <trkpt lat="45.67238" lon="5.59022">
        <ele>207</ele>
        <time>2022-09-06T05:58:38.416Z</time>
      </trkpt>
      <trkpt lat="45.67241" lon="5.59034">
        <ele>207</ele>
        <time>2022-09-06T05:58:39.415Z</time>
      </trkpt>
      <trkpt lat="45.67244" lon="5.59045">
        <ele>207</ele>
        <time>2022-09-06T05:58:40.416Z</time>
      </trkpt>
      <trkpt lat="45.67246" lon="5.59054">
        <ele>208</ele>
        <time>2022-09-06T05:58:41.415Z</time>
      </trkpt>
      <trkpt lat="45.6725" lon="5.59067">
        <ele>208</ele>
        <time>2022-09-06T05:58:42.416Z</time>
      </trkpt>
      <trkpt lat="45.67253" lon="5.59079">
        <ele>208</ele>
        <time>2022-09-06T05:58:43.416Z</time>
      </trkpt>
      <trkpt lat="45.67255" lon="5.5909">
        <ele>209</ele>
        <time>2022-09-06T05:58:44.416Z</time>
      </trkpt>
      <trkpt lat="45.67258" lon="5.59101">
        <ele>209</ele>
        <time>2022-09-06T05:58:45.416Z</time>
      </trkpt>
      <trkpt lat="45.67261" lon="5.59112">
        <ele>209</ele>
        <time>2022-09-06T05:58:46.415Z</time>
      </trkpt>
      <trkpt lat="45.67264" lon="5.59123">
        <ele>209</ele>
        <time>2022-09-06T05:58:47.416Z</time>
      </trkpt>
      <trkpt lat="45.67266" lon="5.59132">
        <ele>209</ele>
        <time>2022-09-06T05:58:48.416Z</time>
      </trkpt>
      <trkpt lat="45.67268" lon="5.59143">
        <ele>209</ele>
        <time>2022-09-06T05:58:49.415Z</time>
      </trkpt>
      <trkpt lat="45.67271" lon="5.59154">
        <ele>209</ele>
        <time>2022-09-06T05:58:50.416Z</time>
      </trkpt>
      <trkpt lat="45.67273" lon="5.59165">
        <ele>209</ele>
        <time>2022-09-06T05:58:51.416Z</time>
      </trkpt>
      <trkpt lat="45.67276" lon="5.59176">
        <ele>209</ele>
        <time>2022-09-06T05:58:52.416Z</time>
      </trkpt>
      <trkpt lat="45.67279" lon="5.59187">
        <ele>208</ele>
        <time>2022-09-06T05:58:53.416Z</time>
      </trkpt>
      <trkpt lat="45.67281" lon="5.59198">
        <ele>208</ele>
        <time>2022-09-06T05:58:54.416Z</time>
      </trkpt>
      <trkpt lat="45.67284" lon="5.59208">
        <ele>208</ele>
        <time>2022-09-06T05:58:55.415Z</time>
      </trkpt>
      <trkpt lat="45.67287" lon="5.59219">
        <ele>207</ele>
        <time>2022-09-06T05:58:56.415Z</time>
      </trkpt>
      <trkpt lat="45.6729" lon="5.5923">
        <ele>207</ele>
        <time>2022-09-06T05:58:57.415Z</time>
      </trkpt>
      <trkpt lat="45.67293" lon="5.59244">
        <ele>208</ele>
        <time>2022-09-06T05:58:58.416Z</time>
      </trkpt>
      <trkpt lat="45.67296" lon="5.59255">
        <ele>208</ele>
        <time>2022-09-06T05:58:59.416Z</time>
      </trkpt>
      <trkpt lat="45.67298" lon="5.59266">
        <ele>208</ele>
        <time>2022-09-06T05:59:00.416Z</time>
      </trkpt>
      <trkpt lat="45.67301" lon="5.59277">
        <ele>208</ele>
        <time>2022-09-06T05:59:01.415Z</time>
      </trkpt>
      <trkpt lat="45.67304" lon="5.59288">
        <ele>208</ele>
        <time>2022-09-06T05:59:02.415Z</time>
      </trkpt>
      <trkpt lat="45.67306" lon="5.59297">
        <ele>208</ele>
        <time>2022-09-06T05:59:03.416Z</time>
      </trkpt>
      <trkpt lat="45.67309" lon="5.59311">
        <ele>208</ele>
        <time>2022-09-06T05:59:04.416Z</time>
      </trkpt>
      <trkpt lat="45.67312" lon="5.59322">
        <ele>208</ele>
        <time>2022-09-06T05:59:05.416Z</time>
      </trkpt>
      <trkpt lat="45.67315" lon="5.59334">
        <ele>208</ele>
        <time>2022-09-06T05:59:06.416Z</time>
      </trkpt>
      <trkpt lat="45.67318" lon="5.59345">
        <ele>208</ele>
        <time>2022-09-06T05:59:07.415Z</time>
      </trkpt>
      <trkpt lat="45.6732" lon="5.59357">
        <ele>208</ele>
        <time>2022-09-06T05:59:08.416Z</time>
      </trkpt>
      <trkpt lat="45.67323" lon="5.59368">
        <ele>207</ele>
        <time>2022-09-06T05:59:09.416Z</time>
      </trkpt>
      <trkpt lat="45.67326" lon="5.5938">
        <ele>207</ele>
        <time>2022-09-06T05:59:10.416Z</time>
      </trkpt>
      <trkpt lat="45.67329" lon="5.59391">
        <ele>207</ele>
        <time>2022-09-06T05:59:11.416Z</time>
      </trkpt>
      <trkpt lat="45.67332" lon="5.59403">
        <ele>207</ele>
        <time>2022-09-06T05:59:12.416Z</time>
      </trkpt>
      <trkpt lat="45.67334" lon="5.59414">
        <ele>207</ele>
        <time>2022-09-06T05:59:13.416Z</time>
      </trkpt>
      <trkpt lat="45.67337" lon="5.59425">
        <ele>208</ele>
        <time>2022-09-06T05:59:14.416Z</time>
      </trkpt>
      <trkpt lat="45.6734" lon="5.59436">
        <ele>208</ele>
        <time>2022-09-06T05:59:15.416Z</time>
      </trkpt>
      <trkpt lat="45.67343" lon="5.59448">
        <ele>208</ele>
        <time>2022-09-06T05:59:16.416Z</time>
      </trkpt>
      <trkpt lat="45.67346" lon="5.59459">
        <ele>208</ele>
        <time>2022-09-06T05:59:17.416Z</time>
      </trkpt>
      <trkpt lat="45.67348" lon="5.59468">
        <ele>209</ele>
        <time>2022-09-06T05:59:18.415Z</time>
      </trkpt>
      <trkpt lat="45.67351" lon="5.59481">
        <ele>209</ele>
        <time>2022-09-06T05:59:19.416Z</time>
      </trkpt>
      <trkpt lat="45.67354" lon="5.59492">
        <ele>209</ele>
        <time>2022-09-06T05:59:20.416Z</time>
      </trkpt>
      <trkpt lat="45.67357" lon="5.59503">
        <ele>209</ele>
        <time>2022-09-06T05:59:21.416Z</time>
      </trkpt>
      <trkpt lat="45.6736" lon="5.59514">
        <ele>209</ele>
        <time>2022-09-06T05:59:22.415Z</time>
      </trkpt>
      <trkpt lat="45.67362" lon="5.59524">
        <ele>210</ele>
        <time>2022-09-06T05:59:23.416Z</time>
      </trkpt>
      <trkpt lat="45.67365" lon="5.59535">
        <ele>210</ele>
        <time>2022-09-06T05:59:24.416Z</time>
      </trkpt>
      <trkpt lat="45.67368" lon="5.59546">
        <ele>210</ele>
        <time>2022-09-06T05:59:25.415Z</time>
      </trkpt>
      <trkpt lat="45.6737" lon="5.59555">
        <ele>211</ele>
        <time>2022-09-06T05:59:26.415Z</time>
      </trkpt>
      <trkpt lat="45.67373" lon="5.59568">
        <ele>211</ele>
        <time>2022-09-06T05:59:27.415Z</time>
      </trkpt>
      <trkpt lat="45.67376" lon="5.59579">
        <ele>211</ele>
        <time>2022-09-06T05:59:28.416Z</time>
      </trkpt>
      <trkpt lat="45.67379" lon="5.5959">
        <ele>211</ele>
        <time>2022-09-06T05:59:29.416Z</time>
      </trkpt>
      <trkpt lat="45.67382" lon="5.59601">
        <ele>210</ele>
        <time>2022-09-06T05:59:30.416Z</time>
      </trkpt>
      <trkpt lat="45.67384" lon="5.59611">
        <ele>210</ele>
        <time>2022-09-06T05:59:31.415Z</time>
      </trkpt>
      <trkpt lat="45.67387" lon="5.59622">
        <ele>210</ele>
        <time>2022-09-06T05:59:32.416Z</time>
      </trkpt>
      <trkpt lat="45.67389" lon="5.59632">
        <ele>209</ele>
        <time>2022-09-06T05:59:33.416Z</time>
      </trkpt>
      <trkpt lat="45.67392" lon="5.59643">
        <ele>209</ele>
        <time>2022-09-06T05:59:34.415Z</time>
      </trkpt>
      <trkpt lat="45.67395" lon="5.59651">
        <ele>209</ele>
        <time>2022-09-06T05:59:35.416Z</time>
      </trkpt>
      <trkpt lat="45.67398" lon="5.59663">
        <ele>209</ele>
        <time>2022-09-06T05:59:36.416Z</time>
      </trkpt>
      <trkpt lat="45.67401" lon="5.59673">
        <ele>209</ele>
        <time>2022-09-06T05:59:37.416Z</time>
      </trkpt>
      <trkpt lat="45.67404" lon="5.59683">
        <ele>208</ele>
        <time>2022-09-06T05:59:38.415Z</time>
      </trkpt>
      <trkpt lat="45.67407" lon="5.59694">
        <ele>208</ele>
        <time>2022-09-06T05:59:39.415Z</time>
      </trkpt>
      <trkpt lat="45.6741" lon="5.59703">
        <ele>208</ele>
        <time>2022-09-06T05:59:40.416Z</time>
      </trkpt>
      <trkpt lat="45.67413" lon="5.59713">
        <ele>208</ele>
        <time>2022-09-06T05:59:41.416Z</time>
      </trkpt>
      <trkpt lat="45.67416" lon="5.59723">
        <ele>208</ele>
        <time>2022-09-06T05:59:42.416Z</time>
      </trkpt>
      <trkpt lat="45.67419" lon="5.59733">
        <ele>208</ele>
        <time>2022-09-06T05:59:43.415Z</time>
      </trkpt>
      <trkpt lat="45.67422" lon="5.5974">
        <ele>208</ele>
        <time>2022-09-06T05:59:44.416Z</time>
      </trkpt>
      <trkpt lat="45.67425" lon="5.5975">
        <ele>208</ele>
        <time>2022-09-06T05:59:45.416Z</time>
      </trkpt>
      <trkpt lat="45.67429" lon="5.59762">
        <ele>208</ele>
        <time>2022-09-06T05:59:46.416Z</time>
      </trkpt>
      <trkpt lat="45.67432" lon="5.59772">
        <ele>207</ele>
        <time>2022-09-06T05:59:47.416Z</time>
      </trkpt>
      <trkpt lat="45.67436" lon="5.59782">
        <ele>208</ele>
        <time>2022-09-06T05:59:48.415Z</time>
      </trkpt>
      <trkpt lat="45.67439" lon="5.59792">
        <ele>208</ele>
        <time>2022-09-06T05:59:49.416Z</time>
      </trkpt>
      <trkpt lat="45.67442" lon="5.59799">
        <ele>208</ele>
        <time>2022-09-06T05:59:50.415Z</time>
      </trkpt>
      <trkpt lat="45.67445" lon="5.59809">
        <ele>208</ele>
        <time>2022-09-06T05:59:51.416Z</time>
      </trkpt>
      <trkpt lat="45.67449" lon="5.59819">
        <ele>208</ele>
        <time>2022-09-06T05:59:52.416Z</time>
      </trkpt>
      <trkpt lat="45.67452" lon="5.59829">
        <ele>209</ele>
        <time>2022-09-06T05:59:53.416Z</time>
      </trkpt>
      <trkpt lat="45.67455" lon="5.59839">
        <ele>208</ele>
        <time>2022-09-06T05:59:54.415Z</time>
      </trkpt>
      <trkpt lat="45.67459" lon="5.59849">
        <ele>208</ele>
        <time>2022-09-06T05:59:55.416Z</time>
      </trkpt>
      <trkpt lat="45.67462" lon="5.59858">
        <ele>208</ele>
        <time>2022-09-06T05:59:56.416Z</time>
      </trkpt>
      <trkpt lat="45.67465" lon="5.59868">
        <ele>208</ele>
        <time>2022-09-06T05:59:57.415Z</time>
      </trkpt>
      <trkpt lat="45.67469" lon="5.59878">
        <ele>208</ele>
        <time>2022-09-06T05:59:58.416Z</time>
      </trkpt>
      <trkpt lat="45.67472" lon="5.59887">
        <ele>208</ele>
        <time>2022-09-06T05:59:59.416Z</time>
      </trkpt>
      <trkpt lat="45.67475" lon="5.59897">
        <ele>208</ele>
        <time>2022-09-06T06:00:00.416Z</time>
      </trkpt>
      <trkpt lat="45.67479" lon="5.59909">
        <ele>208</ele>
        <time>2022-09-06T06:00:01.415Z</time>
      </trkpt>
      <trkpt lat="45.67481" lon="5.59917">
        <ele>209</ele>
        <time>2022-09-06T06:00:02.415Z</time>
      </trkpt>
      <trkpt lat="45.67485" lon="5.59926">
        <ele>209</ele>
        <time>2022-09-06T06:00:03.416Z</time>
      </trkpt>
      <trkpt lat="45.67489" lon="5.59938">
        <ele>209</ele>
        <time>2022-09-06T06:00:04.416Z</time>
      </trkpt>
      <trkpt lat="45.67492" lon="5.59948">
        <ele>210</ele>
        <time>2022-09-06T06:00:05.416Z</time>
      </trkpt>
      <trkpt lat="45.67495" lon="5.59957">
        <ele>210</ele>
        <time>2022-09-06T06:00:06.415Z</time>
      </trkpt>
      <trkpt lat="45.67498" lon="5.59965">
        <ele>210</ele>
        <time>2022-09-06T06:00:07.416Z</time>
      </trkpt>
      <trkpt lat="45.67501" lon="5.59974">
        <ele>211</ele>
        <time>2022-09-06T06:00:08.416Z</time>
      </trkpt>
      <trkpt lat="45.67505" lon="5.59986">
        <ele>211</ele>
        <time>2022-09-06T06:00:09.416Z</time>
      </trkpt>
      <trkpt lat="45.67509" lon="5.59996">
        <ele>210</ele>
        <time>2022-09-06T06:00:10.416Z</time>
      </trkpt>
      <trkpt lat="45.67512" lon="5.60005">
        <ele>210</ele>
        <time>2022-09-06T06:00:11.416Z</time>
      </trkpt>
      <trkpt lat="45.67516" lon="5.60015">
        <ele>210</ele>
        <time>2022-09-06T06:00:12.416Z</time>
      </trkpt>
      <trkpt lat="45.67519" lon="5.60025">
        <ele>210</ele>
        <time>2022-09-06T06:00:13.416Z</time>
      </trkpt>
      <trkpt lat="45.67522" lon="5.60035">
        <ele>210</ele>
        <time>2022-09-06T06:00:14.416Z</time>
      </trkpt>
      <trkpt lat="45.67526" lon="5.60045">
        <ele>211</ele>
        <time>2022-09-06T06:00:15.416Z</time>
      </trkpt>
      <trkpt lat="45.6753" lon="5.60056">
        <ele>210</ele>
        <time>2022-09-06T06:00:16.416Z</time>
      </trkpt>
      <trkpt lat="45.67533" lon="5.60064">
        <ele>210</ele>
        <time>2022-09-06T06:00:17.416Z</time>
      </trkpt>
      <trkpt lat="45.67537" lon="5.60076">
        <ele>210</ele>
        <time>2022-09-06T06:00:18.416Z</time>
      </trkpt>
      <trkpt lat="45.6754" lon="5.60086">
        <ele>209</ele>
        <time>2022-09-06T06:00:19.416Z</time>
      </trkpt>
      <trkpt lat="45.67544" lon="5.60097">
        <ele>209</ele>
        <time>2022-09-06T06:00:20.415Z</time>
      </trkpt>
      <trkpt lat="45.67548" lon="5.60107">
        <ele>209</ele>
        <time>2022-09-06T06:00:21.415Z</time>
      </trkpt>
      <trkpt lat="45.67551" lon="5.60118">
        <ele>209</ele>
        <time>2022-09-06T06:00:22.416Z</time>
      </trkpt>
      <trkpt lat="45.67555" lon="5.60128">
        <ele>209</ele>
        <time>2022-09-06T06:00:23.416Z</time>
      </trkpt>
      <trkpt lat="45.67558" lon="5.60139">
        <ele>210</ele>
        <time>2022-09-06T06:00:24.415Z</time>
      </trkpt>
      <trkpt lat="45.67561" lon="5.60148">
        <ele>209</ele>
        <time>2022-09-06T06:00:25.416Z</time>
      </trkpt>
      <trkpt lat="45.67564" lon="5.60158">
        <ele>209</ele>
        <time>2022-09-06T06:00:26.415Z</time>
      </trkpt>
      <trkpt lat="45.67568" lon="5.60171">
        <ele>209</ele>
        <time>2022-09-06T06:00:27.416Z</time>
      </trkpt>
      <trkpt lat="45.67571" lon="5.60182">
        <ele>210</ele>
        <time>2022-09-06T06:00:28.416Z</time>
      </trkpt>
      <trkpt lat="45.67573" lon="5.60193">
        <ele>210</ele>
        <time>2022-09-06T06:00:29.416Z</time>
      </trkpt>
      <trkpt lat="45.67575" lon="5.60205">
        <ele>210</ele>
        <time>2022-09-06T06:00:30.416Z</time>
      </trkpt>
      <trkpt lat="45.67576" lon="5.60214">
        <ele>210</ele>
        <time>2022-09-06T06:00:31.415Z</time>
      </trkpt>
      <trkpt lat="45.67578" lon="5.60226">
        <ele>210</ele>
        <time>2022-09-06T06:00:32.416Z</time>
      </trkpt>
      <trkpt lat="45.6758" lon="5.60237">
        <ele>209</ele>
        <time>2022-09-06T06:00:33.416Z</time>
      </trkpt>
      <trkpt lat="45.67581" lon="5.60249">
        <ele>209</ele>
        <time>2022-09-06T06:00:34.415Z</time>
      </trkpt>
      <trkpt lat="45.67582" lon="5.6026">
        <ele>208</ele>
        <time>2022-09-06T06:00:35.416Z</time>
      </trkpt>
      <trkpt lat="45.67583" lon="5.60272">
        <ele>208</ele>
        <time>2022-09-06T06:00:36.416Z</time>
      </trkpt>
      <trkpt lat="45.67583" lon="5.60283">
        <ele>208</ele>
        <time>2022-09-06T06:00:37.416Z</time>
      </trkpt>
      <trkpt lat="45.67584" lon="5.60295">
        <ele>208</ele>
        <time>2022-09-06T06:00:38.415Z</time>
      </trkpt>
      <trkpt lat="45.67584" lon="5.60306">
        <ele>208</ele>
        <time>2022-09-06T06:00:39.415Z</time>
      </trkpt>
      <trkpt lat="45.67585" lon="5.60317">
        <ele>208</ele>
        <time>2022-09-06T06:00:40.416Z</time>
      </trkpt>
      <trkpt lat="45.67585" lon="5.60331">
        <ele>208</ele>
        <time>2022-09-06T06:00:41.415Z</time>
      </trkpt>
      <trkpt lat="45.67586" lon="5.60341">
        <ele>208</ele>
        <time>2022-09-06T06:00:42.415Z</time>
      </trkpt>
      <trkpt lat="45.67587" lon="5.60352">
        <ele>208</ele>
        <time>2022-09-06T06:00:43.415Z</time>
      </trkpt>
      <trkpt lat="45.67588" lon="5.60361">
        <ele>208</ele>
        <time>2022-09-06T06:00:44.416Z</time>
      </trkpt>
      <trkpt lat="45.6759" lon="5.60374">
        <ele>208</ele>
        <time>2022-09-06T06:00:45.415Z</time>
      </trkpt>
      <trkpt lat="45.67591" lon="5.60385">
        <ele>208</ele>
        <time>2022-09-06T06:00:46.416Z</time>
      </trkpt>
      <trkpt lat="45.67593" lon="5.60396">
        <ele>208</ele>
        <time>2022-09-06T06:00:47.416Z</time>
      </trkpt>
      <trkpt lat="45.67595" lon="5.60404">
        <ele>208</ele>
        <time>2022-09-06T06:00:48.416Z</time>
      </trkpt>
      <trkpt lat="45.67597" lon="5.60415">
        <ele>208</ele>
        <time>2022-09-06T06:00:49.416Z</time>
      </trkpt>
      <trkpt lat="45.67598" lon="5.60426">
        <ele>208</ele>
        <time>2022-09-06T06:00:50.416Z</time>
      </trkpt>
      <trkpt lat="45.676" lon="5.60437">
        <ele>209</ele>
        <time>2022-09-06T06:00:51.416Z</time>
      </trkpt>
      <trkpt lat="45.67602" lon="5.60448">
        <ele>209</ele>
        <time>2022-09-06T06:00:52.416Z</time>
      </trkpt>
      <trkpt lat="45.67604" lon="5.60459">
        <ele>209</ele>
        <time>2022-09-06T06:00:53.416Z</time>
      </trkpt>
      <trkpt lat="45.67605" lon="5.60469">
        <ele>209</ele>
        <time>2022-09-06T06:00:54.415Z</time>
      </trkpt>
      <trkpt lat="45.67607" lon="5.60481">
        <ele>210</ele>
        <time>2022-09-06T06:00:55.416Z</time>
      </trkpt>
      <trkpt lat="45.67609" lon="5.60491">
        <ele>209</ele>
        <time>2022-09-06T06:00:56.416Z</time>
      </trkpt>
      <trkpt lat="45.6761" lon="5.60499">
        <ele>210</ele>
        <time>2022-09-06T06:00:57.416Z</time>
      </trkpt>
      <trkpt lat="45.67611" lon="5.60508">
        <ele>209</ele>
        <time>2022-09-06T06:00:58.416Z</time>
      </trkpt>
      <trkpt lat="45.67612" lon="5.60518">
        <ele>209</ele>
        <time>2022-09-06T06:00:59.416Z</time>
      </trkpt>
      <trkpt lat="45.67614" lon="5.60529">
        <ele>209</ele>
        <time>2022-09-06T06:01:00.415Z</time>
      </trkpt>
      <trkpt lat="45.67615" lon="5.60538">
        <ele>209</ele>
        <time>2022-09-06T06:01:01.416Z</time>
      </trkpt>
      <trkpt lat="45.67616" lon="5.60547">
        <ele>209</ele>
        <time>2022-09-06T06:01:02.415Z</time>
      </trkpt>
      <trkpt lat="45.67617" lon="5.60554">
        <ele>209</ele>
        <time>2022-09-06T06:01:03.415Z</time>
      </trkpt>
      <trkpt lat="45.67618" lon="5.60564">
        <ele>209</ele>
        <time>2022-09-06T06:01:04.415Z</time>
      </trkpt>
      <trkpt lat="45.67619" lon="5.60572">
        <ele>209</ele>
        <time>2022-09-06T06:01:05.415Z</time>
      </trkpt>
      <trkpt lat="45.67618" lon="5.60579">
        <ele>209</ele>
        <time>2022-09-06T06:01:06.415Z</time>
      </trkpt>
      <trkpt lat="45.67617" lon="5.60589">
        <ele>209</ele>
        <time>2022-09-06T06:01:07.416Z</time>
      </trkpt>
      <trkpt lat="45.67616" lon="5.60595">
        <ele>209</ele>
        <time>2022-09-06T06:01:08.416Z</time>
      </trkpt>
      <trkpt lat="45.67612" lon="5.60603">
        <ele>209</ele>
        <time>2022-09-06T06:01:09.416Z</time>
      </trkpt>
      <trkpt lat="45.67607" lon="5.60611">
        <ele>209</ele>
        <time>2022-09-06T06:01:10.415Z</time>
      </trkpt>
      <trkpt lat="45.67602" lon="5.60617">
        <ele>209</ele>
        <time>2022-09-06T06:01:11.416Z</time>
      </trkpt>
      <trkpt lat="45.67598" lon="5.60622">
        <ele>209</ele>
        <time>2022-09-06T06:01:12.416Z</time>
      </trkpt>
      <trkpt lat="45.67591" lon="5.60629">
        <ele>209</ele>
        <time>2022-09-06T06:01:13.416Z</time>
      </trkpt>
      <trkpt lat="45.67585" lon="5.60636">
        <ele>209</ele>
        <time>2022-09-06T06:01:14.415Z</time>
      </trkpt>
      <trkpt lat="45.6758" lon="5.60643">
        <ele>209</ele>
        <time>2022-09-06T06:01:15.416Z</time>
      </trkpt>
      <trkpt lat="45.67574" lon="5.6065">
        <ele>209</ele>
        <time>2022-09-06T06:01:16.415Z</time>
      </trkpt>
      <trkpt lat="45.67568" lon="5.60657">
        <ele>208</ele>
        <time>2022-09-06T06:01:17.415Z</time>
      </trkpt>
      <trkpt lat="45.67562" lon="5.60664">
        <ele>208</ele>
        <time>2022-09-06T06:01:18.416Z</time>
      </trkpt>
      <trkpt lat="45.67556" lon="5.60671">
        <ele>207</ele>
        <time>2022-09-06T06:01:19.416Z</time>
      </trkpt>
      <trkpt lat="45.6755" lon="5.6068">
        <ele>207</ele>
        <time>2022-09-06T06:01:20.416Z</time>
      </trkpt>
      <trkpt lat="45.67544" lon="5.60687">
        <ele>207</ele>
        <time>2022-09-06T06:01:21.416Z</time>
      </trkpt>
      <trkpt lat="45.67538" lon="5.60695">
        <ele>207</ele>
        <time>2022-09-06T06:01:22.415Z</time>
      </trkpt>
      <trkpt lat="45.67532" lon="5.60704">
        <ele>207</ele>
        <time>2022-09-06T06:01:23.416Z</time>
      </trkpt>
      <trkpt lat="45.67526" lon="5.60712">
        <ele>207</ele>
        <time>2022-09-06T06:01:24.416Z</time>
      </trkpt>
      <trkpt lat="45.6752" lon="5.60721">
        <ele>207</ele>
        <time>2022-09-06T06:01:25.416Z</time>
      </trkpt>
      <trkpt lat="45.67514" lon="5.60729">
        <ele>207</ele>
        <time>2022-09-06T06:01:26.416Z</time>
      </trkpt>
      <trkpt lat="45.67508" lon="5.60737">
        <ele>207</ele>
        <time>2022-09-06T06:01:27.415Z</time>
      </trkpt>
      <trkpt lat="45.67502" lon="5.60745">
        <ele>207</ele>
        <time>2022-09-06T06:01:28.416Z</time>
      </trkpt>
      <trkpt lat="45.67496" lon="5.60753">
        <ele>207</ele>
        <time>2022-09-06T06:01:29.416Z</time>
      </trkpt>
      <trkpt lat="45.6749" lon="5.60761">
        <ele>207</ele>
        <time>2022-09-06T06:01:30.416Z</time>
      </trkpt>
      <trkpt lat="45.67484" lon="5.60768">
        <ele>207</ele>
        <time>2022-09-06T06:01:31.415Z</time>
      </trkpt>
      <trkpt lat="45.67478" lon="5.60776">
        <ele>207</ele>
        <time>2022-09-06T06:01:32.416Z</time>
      </trkpt>
      <trkpt lat="45.67472" lon="5.60783">
        <ele>208</ele>
        <time>2022-09-06T06:01:33.416Z</time>
      </trkpt>
      <trkpt lat="45.67466" lon="5.60789">
        <ele>208</ele>
        <time>2022-09-06T06:01:34.416Z</time>
      </trkpt>
      <trkpt lat="45.67459" lon="5.60796">
        <ele>208</ele>
        <time>2022-09-06T06:01:35.416Z</time>
      </trkpt>
      <trkpt lat="45.67453" lon="5.60802">
        <ele>208</ele>
        <time>2022-09-06T06:01:36.415Z</time>
      </trkpt>
      <trkpt lat="45.67447" lon="5.60808">
        <ele>208</ele>
        <time>2022-09-06T06:01:37.416Z</time>
      </trkpt>
      <trkpt lat="45.6744" lon="5.60815">
        <ele>209</ele>
        <time>2022-09-06T06:01:38.416Z</time>
      </trkpt>
      <trkpt lat="45.67434" lon="5.6082">
        <ele>209</ele>
        <time>2022-09-06T06:01:39.415Z</time>
      </trkpt>
      <trkpt lat="45.67428" lon="5.60826">
        <ele>210</ele>
        <time>2022-09-06T06:01:40.415Z</time>
      </trkpt>
      <trkpt lat="45.67422" lon="5.60831">
        <ele>210</ele>
        <time>2022-09-06T06:01:41.415Z</time>
      </trkpt>
      <trkpt lat="45.67417" lon="5.60835">
        <ele>211</ele>
        <time>2022-09-06T06:01:42.416Z</time>
      </trkpt>
      <trkpt lat="45.67409" lon="5.60841">
        <ele>212</ele>
        <time>2022-09-06T06:01:43.416Z</time>
      </trkpt>
      <trkpt lat="45.67403" lon="5.60846">
        <ele>212</ele>
        <time>2022-09-06T06:01:44.415Z</time>
      </trkpt>
      <trkpt lat="45.67396" lon="5.60851">
        <ele>213</ele>
        <time>2022-09-06T06:01:45.416Z</time>
      </trkpt>
      <trkpt lat="45.67389" lon="5.60856">
        <ele>213</ele>
        <time>2022-09-06T06:01:46.415Z</time>
      </trkpt>
      <trkpt lat="45.67383" lon="5.6086">
        <ele>213</ele>
        <time>2022-09-06T06:01:47.416Z</time>
      </trkpt>
      <trkpt lat="45.67377" lon="5.60864">
        <ele>214</ele>
        <time>2022-09-06T06:01:48.416Z</time>
      </trkpt>
      <trkpt lat="45.6737" lon="5.60868">
        <ele>214</ele>
        <time>2022-09-06T06:01:49.415Z</time>
      </trkpt>
      <trkpt lat="45.67365" lon="5.60871">
        <ele>215</ele>
        <time>2022-09-06T06:01:50.415Z</time>
      </trkpt>
      <trkpt lat="45.67359" lon="5.60875">
        <ele>215</ele>
        <time>2022-09-06T06:01:51.415Z</time>
      </trkpt>
      <trkpt lat="45.67352" lon="5.60879">
        <ele>215</ele>
        <time>2022-09-06T06:01:52.416Z</time>
      </trkpt>
      <trkpt lat="45.67347" lon="5.60881">
        <ele>215</ele>
        <time>2022-09-06T06:01:53.416Z</time>
      </trkpt>
      <trkpt lat="45.6734" lon="5.60886">
        <ele>215</ele>
        <time>2022-09-06T06:01:54.415Z</time>
      </trkpt>
      <trkpt lat="45.67334" lon="5.60889">
        <ele>215</ele>
        <time>2022-09-06T06:01:55.416Z</time>
      </trkpt>
      <trkpt lat="45.67327" lon="5.60893">
        <ele>216</ele>
        <time>2022-09-06T06:01:56.415Z</time>
      </trkpt>
      <trkpt lat="45.67321" lon="5.60897">
        <ele>216</ele>
        <time>2022-09-06T06:01:57.416Z</time>
      </trkpt>
      <trkpt lat="45.67315" lon="5.60902">
        <ele>217</ele>
        <time>2022-09-06T06:01:58.416Z</time>
      </trkpt>
      <trkpt lat="45.67309" lon="5.60906">
        <ele>218</ele>
        <time>2022-09-06T06:01:59.415Z</time>
      </trkpt>
      <trkpt lat="45.67303" lon="5.6091">
        <ele>218</ele>
        <time>2022-09-06T06:02:00.415Z</time>
      </trkpt>
      <trkpt lat="45.67297" lon="5.60914">
        <ele>219</ele>
        <time>2022-09-06T06:02:01.415Z</time>
      </trkpt>
      <trkpt lat="45.67291" lon="5.60919">
        <ele>219</ele>
        <time>2022-09-06T06:02:02.416Z</time>
      </trkpt>
      <trkpt lat="45.67285" lon="5.60923">
        <ele>220</ele>
        <time>2022-09-06T06:02:03.415Z</time>
      </trkpt>
      <trkpt lat="45.67279" lon="5.60928">
        <ele>221</ele>
        <time>2022-09-06T06:02:04.415Z</time>
      </trkpt>
      <trkpt lat="45.67274" lon="5.60933">
        <ele>222</ele>
        <time>2022-09-06T06:02:05.415Z</time>
      </trkpt>
      <trkpt lat="45.6727" lon="5.60938">
        <ele>222</ele>
        <time>2022-09-06T06:02:06.416Z</time>
      </trkpt>
      <trkpt lat="45.67267" lon="5.60945">
        <ele>222</ele>
        <time>2022-09-06T06:02:07.416Z</time>
      </trkpt>
      <trkpt lat="45.67265" lon="5.60951">
        <ele>221</ele>
        <time>2022-09-06T06:02:08.416Z</time>
      </trkpt>
      <trkpt lat="45.67263" lon="5.60958">
        <ele>221</ele>
        <time>2022-09-06T06:02:09.415Z</time>
      </trkpt>
      <trkpt lat="45.6726" lon="5.60964">
        <ele>220</ele>
        <time>2022-09-06T06:02:10.415Z</time>
      </trkpt>
      <trkpt lat="45.67256" lon="5.60969">
        <ele>220</ele>
        <time>2022-09-06T06:02:11.416Z</time>
      </trkpt>
      <trkpt lat="45.67252" lon="5.60973">
        <ele>219</ele>
        <time>2022-09-06T06:02:12.416Z</time>
      </trkpt>
      <trkpt lat="45.67248" lon="5.60976">
        <ele>219</ele>
        <time>2022-09-06T06:02:13.415Z</time>
      </trkpt>
      <trkpt lat="45.67244" lon="5.60978">
        <ele>218</ele>
        <time>2022-09-06T06:02:14.415Z</time>
      </trkpt>
      <trkpt lat="45.6724" lon="5.60981">
        <ele>218</ele>
        <time>2022-09-06T06:02:15.416Z</time>
      </trkpt>
      <trkpt lat="45.67236" lon="5.60983">
        <ele>218</ele>
        <time>2022-09-06T06:02:16.416Z</time>
      </trkpt>
      <trkpt lat="45.67232" lon="5.60985">
        <ele>218</ele>
        <time>2022-09-06T06:02:17.415Z</time>
      </trkpt>
      <trkpt lat="45.67228" lon="5.60988">
        <ele>217</ele>
        <time>2022-09-06T06:02:18.415Z</time>
      </trkpt>
      <trkpt lat="45.67224" lon="5.6099">
        <ele>217</ele>
        <time>2022-09-06T06:02:19.416Z</time>
      </trkpt>
      <trkpt lat="45.67221" lon="5.60993">
        <ele>217</ele>
        <time>2022-09-06T06:02:20.415Z</time>
      </trkpt>
      <trkpt lat="45.67217" lon="5.60995">
        <ele>217</ele>
        <time>2022-09-06T06:02:21.415Z</time>
      </trkpt>
      <trkpt lat="45.67214" lon="5.60998">
        <ele>217</ele>
        <time>2022-09-06T06:02:22.415Z</time>
      </trkpt>
      <trkpt lat="45.6721" lon="5.61">
        <ele>217</ele>
        <time>2022-09-06T06:02:23.415Z</time>
      </trkpt>
      <trkpt lat="45.67207" lon="5.61001">
        <ele>216</ele>
        <time>2022-09-06T06:02:24.415Z</time>
      </trkpt>
      <trkpt lat="45.67203" lon="5.61004">
        <ele>216</ele>
        <time>2022-09-06T06:02:25.416Z</time>
      </trkpt>
      <trkpt lat="45.672" lon="5.61007">
        <ele>216</ele>
        <time>2022-09-06T06:02:26.416Z</time>
      </trkpt>
      <trkpt lat="45.67196" lon="5.6101">
        <ele>217</ele>
        <time>2022-09-06T06:02:27.416Z</time>
      </trkpt>
      <trkpt lat="45.67193" lon="5.61013">
        <ele>217</ele>
        <time>2022-09-06T06:02:28.415Z</time>
      </trkpt>
      <trkpt lat="45.67189" lon="5.61017">
        <ele>218</ele>
        <time>2022-09-06T06:02:29.416Z</time>
      </trkpt>
      <trkpt lat="45.67186" lon="5.6102">
        <ele>219</ele>
        <time>2022-09-06T06:02:30.416Z</time>
      </trkpt>
      <trkpt lat="45.67183" lon="5.61023">
        <ele>219</ele>
        <time>2022-09-06T06:02:31.416Z</time>
      </trkpt>
      <trkpt lat="45.67179" lon="5.61026">
        <ele>220</ele>
        <time>2022-09-06T06:02:32.416Z</time>
      </trkpt>
      <trkpt lat="45.67176" lon="5.6103">
        <ele>220</ele>
        <time>2022-09-06T06:02:33.416Z</time>
      </trkpt>
      <trkpt lat="45.67173" lon="5.61034">
        <ele>221</ele>
        <time>2022-09-06T06:02:34.415Z</time>
      </trkpt>
      <trkpt lat="45.6717" lon="5.61037">
        <ele>221</ele>
        <time>2022-09-06T06:02:35.416Z</time>
      </trkpt>
      <trkpt lat="45.67167" lon="5.6104">
        <ele>221</ele>
        <time>2022-09-06T06:02:36.416Z</time>
      </trkpt>
      <trkpt lat="45.67164" lon="5.61044">
        <ele>221</ele>
        <time>2022-09-06T06:02:37.416Z</time>
      </trkpt>
      <trkpt lat="45.67161" lon="5.61047">
        <ele>222</ele>
        <time>2022-09-06T06:02:38.415Z</time>
      </trkpt>
      <trkpt lat="45.67159" lon="5.6105">
        <ele>222</ele>
        <time>2022-09-06T06:02:39.416Z</time>
      </trkpt>
      <trkpt lat="45.67155" lon="5.61054">
        <ele>223</ele>
        <time>2022-09-06T06:02:40.416Z</time>
      </trkpt>
      <trkpt lat="45.67152" lon="5.61058">
        <ele>224</ele>
        <time>2022-09-06T06:02:41.416Z</time>
      </trkpt>
      <trkpt lat="45.67149" lon="5.61061">
        <ele>224</ele>
        <time>2022-09-06T06:02:42.416Z</time>
      </trkpt>
      <trkpt lat="45.67145" lon="5.61065">
        <ele>225</ele>
        <time>2022-09-06T06:02:43.415Z</time>
      </trkpt>
      <trkpt lat="45.67142" lon="5.61067">
        <ele>225</ele>
        <time>2022-09-06T06:02:44.416Z</time>
      </trkpt>
      <trkpt lat="45.67139" lon="5.6107">
        <ele>226</ele>
        <time>2022-09-06T06:02:45.415Z</time>
      </trkpt>
      <trkpt lat="45.67135" lon="5.61074">
        <ele>226</ele>
        <time>2022-09-06T06:02:46.416Z</time>
      </trkpt>
      <trkpt lat="45.67131" lon="5.61076">
        <ele>226</ele>
        <time>2022-09-06T06:02:47.416Z</time>
      </trkpt>
      <trkpt lat="45.67128" lon="5.61079">
        <ele>227</ele>
        <time>2022-09-06T06:02:48.416Z</time>
      </trkpt>
      <trkpt lat="45.67124" lon="5.61081">
        <ele>227</ele>
        <time>2022-09-06T06:02:49.415Z</time>
      </trkpt>
      <trkpt lat="45.6712" lon="5.61083">
        <ele>228</ele>
        <time>2022-09-06T06:02:50.416Z</time>
      </trkpt>
      <trkpt lat="45.67116" lon="5.61085">
        <ele>229</ele>
        <time>2022-09-06T06:02:51.416Z</time>
      </trkpt>
      <trkpt lat="45.67112" lon="5.61087">
        <ele>229</ele>
        <time>2022-09-06T06:02:52.416Z</time>
      </trkpt>
      <trkpt lat="45.67108" lon="5.61088">
        <ele>229</ele>
        <time>2022-09-06T06:02:53.416Z</time>
      </trkpt>
      <trkpt lat="45.67104" lon="5.61089">
        <ele>230</ele>
        <time>2022-09-06T06:02:54.415Z</time>
      </trkpt>
      <trkpt lat="45.671" lon="5.6109">
        <ele>230</ele>
        <time>2022-09-06T06:02:55.416Z</time>
      </trkpt>
      <trkpt lat="45.67096" lon="5.61092">
        <ele>230</ele>
        <time>2022-09-06T06:02:56.415Z</time>
      </trkpt>
      <trkpt lat="45.67093" lon="5.61093">
        <ele>230</ele>
        <time>2022-09-06T06:02:57.416Z</time>
      </trkpt>
      <trkpt lat="45.67089" lon="5.61095">
        <ele>231</ele>
        <time>2022-09-06T06:02:58.416Z</time>
      </trkpt>
      <trkpt lat="45.67086" lon="5.61098">
        <ele>231</ele>
        <time>2022-09-06T06:02:59.415Z</time>
      </trkpt>
      <trkpt lat="45.67082" lon="5.611">
        <ele>231</ele>
        <time>2022-09-06T06:03:00.416Z</time>
      </trkpt>
      <trkpt lat="45.67079" lon="5.61102">
        <ele>231</ele>
        <time>2022-09-06T06:03:01.415Z</time>
      </trkpt>
      <trkpt lat="45.67076" lon="5.61105">
        <ele>232</ele>
        <time>2022-09-06T06:03:02.416Z</time>
      </trkpt>
      <trkpt lat="45.67072" lon="5.61108">
        <ele>232</ele>
        <time>2022-09-06T06:03:03.416Z</time>
      </trkpt>
      <trkpt lat="45.67069" lon="5.6111">
        <ele>232</ele>
        <time>2022-09-06T06:03:04.415Z</time>
      </trkpt>
      <trkpt lat="45.67065" lon="5.61113">
        <ele>232</ele>
        <time>2022-09-06T06:03:05.415Z</time>
      </trkpt>
      <trkpt lat="45.67062" lon="5.61116">
        <ele>232</ele>
        <time>2022-09-06T06:03:06.416Z</time>
      </trkpt>
      <trkpt lat="45.67058" lon="5.61118">
        <ele>233</ele>
        <time>2022-09-06T06:03:07.416Z</time>
      </trkpt>
      <trkpt lat="45.67055" lon="5.61121">
        <ele>233</ele>
        <time>2022-09-06T06:03:08.415Z</time>
      </trkpt>
      <trkpt lat="45.67052" lon="5.61124">
        <ele>233</ele>
        <time>2022-09-06T06:03:09.416Z</time>
      </trkpt>
      <trkpt lat="45.67049" lon="5.61128">
        <ele>234</ele>
        <time>2022-09-06T06:03:10.416Z</time>
      </trkpt>
      <trkpt lat="45.67047" lon="5.61132">
        <ele>234</ele>
        <time>2022-09-06T06:03:11.415Z</time>
      </trkpt>
      <trkpt lat="45.67044" lon="5.61136">
        <ele>234</ele>
        <time>2022-09-06T06:03:12.415Z</time>
      </trkpt>
      <trkpt lat="45.67042" lon="5.6114">
        <ele>234</ele>
        <time>2022-09-06T06:03:13.415Z</time>
      </trkpt>
      <trkpt lat="45.6704" lon="5.61145">
        <ele>233</ele>
        <time>2022-09-06T06:03:14.415Z</time>
      </trkpt>
      <trkpt lat="45.67038" lon="5.61149">
        <ele>233</ele>
        <time>2022-09-06T06:03:15.416Z</time>
      </trkpt>
      <trkpt lat="45.67036" lon="5.61153">
        <ele>233</ele>
        <time>2022-09-06T06:03:16.415Z</time>
      </trkpt>
      <trkpt lat="45.67033" lon="5.61157">
        <ele>234</ele>
        <time>2022-09-06T06:03:17.416Z</time>
      </trkpt>
      <trkpt lat="45.67031" lon="5.61162">
        <ele>234</ele>
        <time>2022-09-06T06:03:18.415Z</time>
      </trkpt>
      <trkpt lat="45.67029" lon="5.61165">
        <ele>234</ele>
        <time>2022-09-06T06:03:19.416Z</time>
      </trkpt>
      <trkpt lat="45.67026" lon="5.61169">
        <ele>234</ele>
        <time>2022-09-06T06:03:20.416Z</time>
      </trkpt>
      <trkpt lat="45.67024" lon="5.61174">
        <ele>234</ele>
        <time>2022-09-06T06:03:21.416Z</time>
      </trkpt>
      <trkpt lat="45.67022" lon="5.61178">
        <ele>233</ele>
        <time>2022-09-06T06:03:22.416Z</time>
      </trkpt>
      <trkpt lat="45.67021" lon="5.61182">
        <ele>233</ele>
        <time>2022-09-06T06:03:23.416Z</time>
      </trkpt>
      <trkpt lat="45.67018" lon="5.61186">
        <ele>233</ele>
        <time>2022-09-06T06:03:24.416Z</time>
      </trkpt>
      <trkpt lat="45.67016" lon="5.61189">
        <ele>233</ele>
        <time>2022-09-06T06:03:25.415Z</time>
      </trkpt>
      <trkpt lat="45.67013" lon="5.61192">
        <ele>233</ele>
        <time>2022-09-06T06:03:26.416Z</time>
      </trkpt>
      <trkpt lat="45.67011" lon="5.61195">
        <ele>232</ele>
        <time>2022-09-06T06:03:27.415Z</time>
      </trkpt>
      <trkpt lat="45.67008" lon="5.61197">
        <ele>232</ele>
        <time>2022-09-06T06:03:28.415Z</time>
      </trkpt>
      <trkpt lat="45.67005" lon="5.612">
        <ele>232</ele>
        <time>2022-09-06T06:03:29.415Z</time>
      </trkpt>
      <trkpt lat="45.67002" lon="5.61203">
        <ele>231</ele>
        <time>2022-09-06T06:03:30.416Z</time>
      </trkpt>
      <trkpt lat="45.66999" lon="5.61205">
        <ele>231</ele>
        <time>2022-09-06T06:03:31.415Z</time>
      </trkpt>
      <trkpt lat="45.66996" lon="5.61207">
        <ele>231</ele>
        <time>2022-09-06T06:03:32.416Z</time>
      </trkpt>
      <trkpt lat="45.66992" lon="5.61208">
        <ele>232</ele>
        <time>2022-09-06T06:03:33.416Z</time>
      </trkpt>
      <trkpt lat="45.66989" lon="5.6121">
        <ele>232</ele>
        <time>2022-09-06T06:03:34.416Z</time>
      </trkpt>
      <trkpt lat="45.66986" lon="5.61211">
        <ele>232</ele>
        <time>2022-09-06T06:03:35.416Z</time>
      </trkpt>
      <trkpt lat="45.66983" lon="5.61212">
        <ele>232</ele>
        <time>2022-09-06T06:03:36.416Z</time>
      </trkpt>
      <trkpt lat="45.6698" lon="5.61213">
        <ele>232</ele>
        <time>2022-09-06T06:03:37.416Z</time>
      </trkpt>
      <trkpt lat="45.66977" lon="5.61214">
        <ele>232</ele>
        <time>2022-09-06T06:03:38.416Z</time>
      </trkpt>
      <trkpt lat="45.66973" lon="5.61214">
        <ele>233</ele>
        <time>2022-09-06T06:03:39.416Z</time>
      </trkpt>
      <trkpt lat="45.6697" lon="5.61214">
        <ele>233</ele>
        <time>2022-09-06T06:03:40.416Z</time>
      </trkpt>
      <trkpt lat="45.66967" lon="5.61214">
        <ele>234</ele>
        <time>2022-09-06T06:03:41.416Z</time>
      </trkpt>
      <trkpt lat="45.66963" lon="5.61215">
        <ele>234</ele>
        <time>2022-09-06T06:03:42.415Z</time>
      </trkpt>
      <trkpt lat="45.6696" lon="5.61215">
        <ele>234</ele>
        <time>2022-09-06T06:03:43.416Z</time>
      </trkpt>
      <trkpt lat="45.66956" lon="5.61215">
        <ele>235</ele>
        <time>2022-09-06T06:03:44.415Z</time>
      </trkpt>
      <trkpt lat="45.66953" lon="5.61215">
        <ele>235</ele>
        <time>2022-09-06T06:03:45.416Z</time>
      </trkpt>
      <trkpt lat="45.66949" lon="5.61215">
        <ele>235</ele>
        <time>2022-09-06T06:03:46.416Z</time>
      </trkpt>
      <trkpt lat="45.66946" lon="5.61214">
        <ele>236</ele>
        <time>2022-09-06T06:03:47.416Z</time>
      </trkpt>
      <trkpt lat="45.66943" lon="5.61214">
        <ele>236</ele>
        <time>2022-09-06T06:03:48.415Z</time>
      </trkpt>
      <trkpt lat="45.66939" lon="5.61214">
        <ele>236</ele>
        <time>2022-09-06T06:03:49.416Z</time>
      </trkpt>
      <trkpt lat="45.66935" lon="5.61213">
        <ele>237</ele>
        <time>2022-09-06T06:03:50.415Z</time>
      </trkpt>
      <trkpt lat="45.66932" lon="5.61212">
        <ele>238</ele>
        <time>2022-09-06T06:03:51.416Z</time>
      </trkpt>
      <trkpt lat="45.66929" lon="5.61212">
        <ele>238</ele>
        <time>2022-09-06T06:03:52.416Z</time>
      </trkpt>
      <trkpt lat="45.66925" lon="5.61211">
        <ele>238</ele>
        <time>2022-09-06T06:03:53.416Z</time>
      </trkpt>
      <trkpt lat="45.66921" lon="5.61211">
        <ele>239</ele>
        <time>2022-09-06T06:03:54.415Z</time>
      </trkpt>
      <trkpt lat="45.66918" lon="5.61211">
        <ele>239</ele>
        <time>2022-09-06T06:03:55.416Z</time>
      </trkpt>
      <trkpt lat="45.66915" lon="5.61211">
        <ele>239</ele>
        <time>2022-09-06T06:03:56.415Z</time>
      </trkpt>
      <trkpt lat="45.66911" lon="5.61211">
        <ele>239</ele>
        <time>2022-09-06T06:03:57.415Z</time>
      </trkpt>
      <trkpt lat="45.66908" lon="5.61212">
        <ele>239</ele>
        <time>2022-09-06T06:03:58.416Z</time>
      </trkpt>
      <trkpt lat="45.66904" lon="5.61214">
        <ele>239</ele>
        <time>2022-09-06T06:03:59.416Z</time>
      </trkpt>
      <trkpt lat="45.66901" lon="5.61216">
        <ele>239</ele>
        <time>2022-09-06T06:04:00.416Z</time>
      </trkpt>
      <trkpt lat="45.66899" lon="5.61219">
        <ele>240</ele>
        <time>2022-09-06T06:04:01.415Z</time>
      </trkpt>
      <trkpt lat="45.66896" lon="5.61221">
        <ele>240</ele>
        <time>2022-09-06T06:04:02.416Z</time>
      </trkpt>
      <trkpt lat="45.66893" lon="5.61224">
        <ele>240</ele>
        <time>2022-09-06T06:04:03.415Z</time>
      </trkpt>
      <trkpt lat="45.66891" lon="5.61227">
        <ele>240</ele>
        <time>2022-09-06T06:04:04.416Z</time>
      </trkpt>
      <trkpt lat="45.66888" lon="5.6123">
        <ele>241</ele>
        <time>2022-09-06T06:04:05.416Z</time>
      </trkpt>
      <trkpt lat="45.66886" lon="5.61233">
        <ele>241</ele>
        <time>2022-09-06T06:04:06.416Z</time>
      </trkpt>
      <trkpt lat="45.66884" lon="5.61236">
        <ele>241</ele>
        <time>2022-09-06T06:04:07.415Z</time>
      </trkpt>
      <trkpt lat="45.66882" lon="5.61239">
        <ele>242</ele>
        <time>2022-09-06T06:04:08.415Z</time>
      </trkpt>
      <trkpt lat="45.66879" lon="5.61243">
        <ele>242</ele>
        <time>2022-09-06T06:04:09.416Z</time>
      </trkpt>
      <trkpt lat="45.66877" lon="5.61246">
        <ele>242</ele>
        <time>2022-09-06T06:04:10.416Z</time>
      </trkpt>
      <trkpt lat="45.66874" lon="5.61249">
        <ele>243</ele>
        <time>2022-09-06T06:04:11.416Z</time>
      </trkpt>
      <trkpt lat="45.66872" lon="5.61252">
        <ele>243</ele>
        <time>2022-09-06T06:04:12.416Z</time>
      </trkpt>
      <trkpt lat="45.66869" lon="5.61255">
        <ele>243</ele>
        <time>2022-09-06T06:04:13.416Z</time>
      </trkpt>
      <trkpt lat="45.66867" lon="5.61257">
        <ele>244</ele>
        <time>2022-09-06T06:04:14.416Z</time>
      </trkpt>
      <trkpt lat="45.66864" lon="5.61259">
        <ele>244</ele>
        <time>2022-09-06T06:04:15.416Z</time>
      </trkpt>
      <trkpt lat="45.66861" lon="5.61261">
        <ele>245</ele>
        <time>2022-09-06T06:04:16.416Z</time>
      </trkpt>
      <trkpt lat="45.66858" lon="5.61263">
        <ele>246</ele>
        <time>2022-09-06T06:04:17.415Z</time>
      </trkpt>
      <trkpt lat="45.66855" lon="5.61265">
        <ele>246</ele>
        <time>2022-09-06T06:04:18.416Z</time>
      </trkpt>
      <trkpt lat="45.66852" lon="5.61266">
        <ele>247</ele>
        <time>2022-09-06T06:04:19.416Z</time>
      </trkpt>
      <trkpt lat="45.66849" lon="5.61268">
        <ele>247</ele>
        <time>2022-09-06T06:04:20.415Z</time>
      </trkpt>
      <trkpt lat="45.66846" lon="5.61269">
        <ele>248</ele>
        <time>2022-09-06T06:04:21.416Z</time>
      </trkpt>
      <trkpt lat="45.66842" lon="5.61271">
        <ele>248</ele>
        <time>2022-09-06T06:04:22.416Z</time>
      </trkpt>
      <trkpt lat="45.66839" lon="5.61272">
        <ele>249</ele>
        <time>2022-09-06T06:04:23.416Z</time>
      </trkpt>
      <trkpt lat="45.66836" lon="5.61273">
        <ele>249</ele>
        <time>2022-09-06T06:04:24.416Z</time>
      </trkpt>
      <trkpt lat="45.66833" lon="5.61275">
        <ele>250</ele>
        <time>2022-09-06T06:04:25.416Z</time>
      </trkpt>
      <trkpt lat="45.66829" lon="5.61276">
        <ele>250</ele>
        <time>2022-09-06T06:04:26.416Z</time>
      </trkpt>
      <trkpt lat="45.66826" lon="5.61276">
        <ele>249</ele>
        <time>2022-09-06T06:04:27.415Z</time>
      </trkpt>
      <trkpt lat="45.66822" lon="5.61277">
        <ele>249</ele>
        <time>2022-09-06T06:04:28.415Z</time>
      </trkpt>
      <trkpt lat="45.66819" lon="5.61278">
        <ele>249</ele>
        <time>2022-09-06T06:04:29.415Z</time>
      </trkpt>
      <trkpt lat="45.66816" lon="5.61278">
        <ele>249</ele>
        <time>2022-09-06T06:04:30.416Z</time>
      </trkpt>
      <trkpt lat="45.66813" lon="5.61279">
        <ele>249</ele>
        <time>2022-09-06T06:04:31.416Z</time>
      </trkpt>
      <trkpt lat="45.66809" lon="5.61279">
        <ele>249</ele>
        <time>2022-09-06T06:04:32.416Z</time>
      </trkpt>
      <trkpt lat="45.66806" lon="5.6128">
        <ele>248</ele>
        <time>2022-09-06T06:04:33.415Z</time>
      </trkpt>
      <trkpt lat="45.66802" lon="5.6128">
        <ele>248</ele>
        <time>2022-09-06T06:04:34.415Z</time>
      </trkpt>
      <trkpt lat="45.66799" lon="5.61281">
        <ele>248</ele>
        <time>2022-09-06T06:04:35.416Z</time>
      </trkpt>
      <trkpt lat="45.66795" lon="5.61282">
        <ele>248</ele>
        <time>2022-09-06T06:04:36.416Z</time>
      </trkpt>
      <trkpt lat="45.66792" lon="5.61283">
        <ele>248</ele>
        <time>2022-09-06T06:04:37.416Z</time>
      </trkpt>
      <trkpt lat="45.66789" lon="5.61285">
        <ele>248</ele>
        <time>2022-09-06T06:04:38.416Z</time>
      </trkpt>
      <trkpt lat="45.66786" lon="5.61286">
        <ele>248</ele>
        <time>2022-09-06T06:04:39.416Z</time>
      </trkpt>
      <trkpt lat="45.66782" lon="5.61288">
        <ele>248</ele>
        <time>2022-09-06T06:04:40.415Z</time>
      </trkpt>
      <trkpt lat="45.6678" lon="5.61289">
        <ele>248</ele>
        <time>2022-09-06T06:04:41.415Z</time>
      </trkpt>
      <trkpt lat="45.66777" lon="5.61291">
        <ele>248</ele>
        <time>2022-09-06T06:04:42.416Z</time>
      </trkpt>
      <trkpt lat="45.66774" lon="5.61292">
        <ele>248</ele>
        <time>2022-09-06T06:04:43.416Z</time>
      </trkpt>
      <trkpt lat="45.66772" lon="5.61294">
        <ele>248</ele>
        <time>2022-09-06T06:04:44.416Z</time>
      </trkpt>
      <trkpt lat="45.66769" lon="5.61296">
        <ele>248</ele>
        <time>2022-09-06T06:04:45.416Z</time>
      </trkpt>
      <trkpt lat="45.66766" lon="5.61297">
        <ele>248</ele>
        <time>2022-09-06T06:04:46.416Z</time>
      </trkpt>
      <trkpt lat="45.66763" lon="5.613">
        <ele>248</ele>
        <time>2022-09-06T06:04:47.416Z</time>
      </trkpt>
      <trkpt lat="45.6676" lon="5.61301">
        <ele>248</ele>
        <time>2022-09-06T06:04:48.416Z</time>
      </trkpt>
      <trkpt lat="45.66758" lon="5.61302">
        <ele>248</ele>
        <time>2022-09-06T06:04:49.415Z</time>
      </trkpt>
      <trkpt lat="45.66754" lon="5.61304">
        <ele>249</ele>
        <time>2022-09-06T06:04:50.415Z</time>
      </trkpt>
      <trkpt lat="45.66752" lon="5.61305">
        <ele>249</ele>
        <time>2022-09-06T06:04:51.416Z</time>
      </trkpt>
      <trkpt lat="45.66748" lon="5.61307">
        <ele>250</ele>
        <time>2022-09-06T06:04:52.416Z</time>
      </trkpt>
      <trkpt lat="45.66745" lon="5.61309">
        <ele>251</ele>
        <time>2022-09-06T06:04:53.416Z</time>
      </trkpt>
      <trkpt lat="45.66741" lon="5.61311">
        <ele>251</ele>
        <time>2022-09-06T06:04:54.415Z</time>
      </trkpt>
      <trkpt lat="45.66738" lon="5.61313">
        <ele>252</ele>
        <time>2022-09-06T06:04:55.416Z</time>
      </trkpt>
      <trkpt lat="45.66736" lon="5.61314">
        <ele>253</ele>
        <time>2022-09-06T06:04:56.415Z</time>
      </trkpt>
      <trkpt lat="45.66732" lon="5.61316">
        <ele>254</ele>
        <time>2022-09-06T06:04:57.416Z</time>
      </trkpt>
      <trkpt lat="45.66729" lon="5.61318">
        <ele>255</ele>
        <time>2022-09-06T06:04:58.416Z</time>
      </trkpt>
      <trkpt lat="45.66726" lon="5.6132">
        <ele>255</ele>
        <time>2022-09-06T06:04:59.416Z</time>
      </trkpt>
      <trkpt lat="45.66723" lon="5.61321">
        <ele>256</ele>
        <time>2022-09-06T06:05:00.415Z</time>
      </trkpt>
      <trkpt lat="45.6672" lon="5.61323">
        <ele>256</ele>
        <time>2022-09-06T06:05:01.416Z</time>
      </trkpt>
      <trkpt lat="45.66717" lon="5.61324">
        <ele>257</ele>
        <time>2022-09-06T06:05:02.416Z</time>
      </trkpt>
      <trkpt lat="45.66714" lon="5.61326">
        <ele>258</ele>
        <time>2022-09-06T06:05:03.416Z</time>
      </trkpt>
      <trkpt lat="45.66711" lon="5.61329">
        <ele>259</ele>
        <time>2022-09-06T06:05:04.415Z</time>
      </trkpt>
      <trkpt lat="45.66708" lon="5.6133">
        <ele>260</ele>
        <time>2022-09-06T06:05:05.416Z</time>
      </trkpt>
      <trkpt lat="45.66706" lon="5.61332">
        <ele>262</ele>
        <time>2022-09-06T06:05:06.416Z</time>
      </trkpt>
      <trkpt lat="45.66703" lon="5.61334">
        <ele>263</ele>
        <time>2022-09-06T06:05:07.416Z</time>
      </trkpt>
      <trkpt lat="45.66699" lon="5.61336">
        <ele>263</ele>
        <time>2022-09-06T06:05:08.416Z</time>
      </trkpt>
      <trkpt lat="45.66696" lon="5.61338">
        <ele>264</ele>
        <time>2022-09-06T06:05:09.415Z</time>
      </trkpt>
      <trkpt lat="45.66693" lon="5.6134">
        <ele>264</ele>
        <time>2022-09-06T06:05:10.416Z</time>
      </trkpt>
      <trkpt lat="45.66691" lon="5.61341">
        <ele>265</ele>
        <time>2022-09-06T06:05:11.416Z</time>
      </trkpt>
      <trkpt lat="45.66688" lon="5.61343">
        <ele>265</ele>
        <time>2022-09-06T06:05:12.416Z</time>
      </trkpt>
      <trkpt lat="45.66684" lon="5.61345">
        <ele>265</ele>
        <time>2022-09-06T06:05:13.416Z</time>
      </trkpt>
      <trkpt lat="45.66681" lon="5.61346">
        <ele>266</ele>
        <time>2022-09-06T06:05:14.415Z</time>
      </trkpt>
      <trkpt lat="45.66678" lon="5.61348">
        <ele>267</ele>
        <time>2022-09-06T06:05:15.416Z</time>
      </trkpt>
      <trkpt lat="45.66675" lon="5.61351">
        <ele>268</ele>
        <time>2022-09-06T06:05:16.416Z</time>
      </trkpt>
      <trkpt lat="45.66672" lon="5.61353">
        <ele>269</ele>
        <time>2022-09-06T06:05:17.416Z</time>
      </trkpt>
      <trkpt lat="45.66669" lon="5.61355">
        <ele>270</ele>
        <time>2022-09-06T06:05:18.415Z</time>
      </trkpt>
      <trkpt lat="45.66666" lon="5.61357">
        <ele>271</ele>
        <time>2022-09-06T06:05:19.416Z</time>
      </trkpt>
      <trkpt lat="45.66663" lon="5.61359">
        <ele>271</ele>
        <time>2022-09-06T06:05:20.416Z</time>
      </trkpt>
      <trkpt lat="45.6666" lon="5.6136">
        <ele>272</ele>
        <time>2022-09-06T06:05:21.416Z</time>
      </trkpt>
      <trkpt lat="45.66657" lon="5.61362">
        <ele>272</ele>
        <time>2022-09-06T06:05:22.415Z</time>
      </trkpt>
      <trkpt lat="45.66654" lon="5.61364">
        <ele>273</ele>
        <time>2022-09-06T06:05:23.416Z</time>
      </trkpt>
      <trkpt lat="45.6665" lon="5.61366">
        <ele>273</ele>
        <time>2022-09-06T06:05:24.416Z</time>
      </trkpt>
      <trkpt lat="45.66647" lon="5.61368">
        <ele>273</ele>
        <time>2022-09-06T06:05:25.416Z</time>
      </trkpt>
      <trkpt lat="45.66645" lon="5.61369">
        <ele>274</ele>
        <time>2022-09-06T06:05:26.416Z</time>
      </trkpt>
      <trkpt lat="45.66642" lon="5.61371">
        <ele>274</ele>
        <time>2022-09-06T06:05:27.415Z</time>
      </trkpt>
      <trkpt lat="45.66639" lon="5.61373">
        <ele>274</ele>
        <time>2022-09-06T06:05:28.415Z</time>
      </trkpt>
      <trkpt lat="45.66636" lon="5.61374">
        <ele>274</ele>
        <time>2022-09-06T06:05:29.416Z</time>
      </trkpt>
      <trkpt lat="45.66632" lon="5.61376">
        <ele>274</ele>
        <time>2022-09-06T06:05:30.416Z</time>
      </trkpt>
      <trkpt lat="45.6663" lon="5.61378">
        <ele>274</ele>
        <time>2022-09-06T06:05:31.415Z</time>
      </trkpt>
      <trkpt lat="45.66627" lon="5.6138">
        <ele>275</ele>
        <time>2022-09-06T06:05:32.416Z</time>
      </trkpt>
      <trkpt lat="45.66623" lon="5.61382">
        <ele>275</ele>
        <time>2022-09-06T06:05:33.416Z</time>
      </trkpt>
      <trkpt lat="45.6662" lon="5.61383">
        <ele>275</ele>
        <time>2022-09-06T06:05:34.416Z</time>
      </trkpt>
      <trkpt lat="45.66617" lon="5.61385">
        <ele>276</ele>
        <time>2022-09-06T06:05:35.416Z</time>
      </trkpt>
      <trkpt lat="45.66615" lon="5.61387">
        <ele>277</ele>
        <time>2022-09-06T06:05:36.415Z</time>
      </trkpt>
      <trkpt lat="45.66611" lon="5.61389">
        <ele>277</ele>
        <time>2022-09-06T06:05:37.416Z</time>
      </trkpt>
      <trkpt lat="45.66608" lon="5.61392">
        <ele>277</ele>
        <time>2022-09-06T06:05:38.415Z</time>
      </trkpt>
      <trkpt lat="45.66605" lon="5.61394">
        <ele>278</ele>
        <time>2022-09-06T06:05:39.416Z</time>
      </trkpt>
      <trkpt lat="45.66603" lon="5.61396">
        <ele>278</ele>
        <time>2022-09-06T06:05:40.416Z</time>
      </trkpt>
      <trkpt lat="45.666" lon="5.61399">
        <ele>278</ele>
        <time>2022-09-06T06:05:41.415Z</time>
      </trkpt>
      <trkpt lat="45.66598" lon="5.61403">
        <ele>278</ele>
        <time>2022-09-06T06:05:42.416Z</time>
      </trkpt>
      <trkpt lat="45.66596" lon="5.61406">
        <ele>279</ele>
        <time>2022-09-06T06:05:43.416Z</time>
      </trkpt>
      <trkpt lat="45.66594" lon="5.61409">
        <ele>279</ele>
        <time>2022-09-06T06:05:44.416Z</time>
      </trkpt>
      <trkpt lat="45.66593" lon="5.61412">
        <ele>280</ele>
        <time>2022-09-06T06:05:45.416Z</time>
      </trkpt>
      <trkpt lat="45.66592" lon="5.61417">
        <ele>280</ele>
        <time>2022-09-06T06:05:46.416Z</time>
      </trkpt>
      <trkpt lat="45.66591" lon="5.61421">
        <ele>280</ele>
        <time>2022-09-06T06:05:47.416Z</time>
      </trkpt>
      <trkpt lat="45.6659" lon="5.61425">
        <ele>280</ele>
        <time>2022-09-06T06:05:48.416Z</time>
      </trkpt>
      <trkpt lat="45.66589" lon="5.6143">
        <ele>280</ele>
        <time>2022-09-06T06:05:49.415Z</time>
      </trkpt>
      <trkpt lat="45.66589" lon="5.61435">
        <ele>280</ele>
        <time>2022-09-06T06:05:50.416Z</time>
      </trkpt>
      <trkpt lat="45.66588" lon="5.6144">
        <ele>280</ele>
        <time>2022-09-06T06:05:51.415Z</time>
      </trkpt>
      <trkpt lat="45.66589" lon="5.61444">
        <ele>280</ele>
        <time>2022-09-06T06:05:52.416Z</time>
      </trkpt>
      <trkpt lat="45.66589" lon="5.6145">
        <ele>280</ele>
        <time>2022-09-06T06:05:53.416Z</time>
      </trkpt>
      <trkpt lat="45.6659" lon="5.61455">
        <ele>280</ele>
        <time>2022-09-06T06:05:54.415Z</time>
      </trkpt>
      <trkpt lat="45.6659" lon="5.6146">
        <ele>280</ele>
        <time>2022-09-06T06:05:55.416Z</time>
      </trkpt>
      <trkpt lat="45.66591" lon="5.61466">
        <ele>280</ele>
        <time>2022-09-06T06:05:56.415Z</time>
      </trkpt>
      <trkpt lat="45.66592" lon="5.61471">
        <ele>279</ele>
        <time>2022-09-06T06:05:57.416Z</time>
      </trkpt>
      <trkpt lat="45.66593" lon="5.61476">
        <ele>278</ele>
        <time>2022-09-06T06:05:58.416Z</time>
      </trkpt>
      <trkpt lat="45.66593" lon="5.61481">
        <ele>278</ele>
        <time>2022-09-06T06:05:59.415Z</time>
      </trkpt>
      <trkpt lat="45.66593" lon="5.61487">
        <ele>277</ele>
        <time>2022-09-06T06:06:00.416Z</time>
      </trkpt>
      <trkpt lat="45.66594" lon="5.61492">
        <ele>277</ele>
        <time>2022-09-06T06:06:01.416Z</time>
      </trkpt>
      <trkpt lat="45.66594" lon="5.61497">
        <ele>278</ele>
        <time>2022-09-06T06:06:02.416Z</time>
      </trkpt>
      <trkpt lat="45.66594" lon="5.61502">
        <ele>278</ele>
        <time>2022-09-06T06:06:03.416Z</time>
      </trkpt>
      <trkpt lat="45.66594" lon="5.61507">
        <ele>277</ele>
        <time>2022-09-06T06:06:04.416Z</time>
      </trkpt>
      <trkpt lat="45.66594" lon="5.61512">
        <ele>277</ele>
        <time>2022-09-06T06:06:05.415Z</time>
      </trkpt>
      <trkpt lat="45.66594" lon="5.61517">
        <ele>277</ele>
        <time>2022-09-06T06:06:06.416Z</time>
      </trkpt>
      <trkpt lat="45.66594" lon="5.61522">
        <ele>277</ele>
        <time>2022-09-06T06:06:07.415Z</time>
      </trkpt>
      <trkpt lat="45.66594" lon="5.61527">
        <ele>276</ele>
        <time>2022-09-06T06:06:08.416Z</time>
      </trkpt>
      <trkpt lat="45.66594" lon="5.61532">
        <ele>276</ele>
        <time>2022-09-06T06:06:09.415Z</time>
      </trkpt>
      <trkpt lat="45.66594" lon="5.61537">
        <ele>275</ele>
        <time>2022-09-06T06:06:10.415Z</time>
      </trkpt>
      <trkpt lat="45.66595" lon="5.61543">
        <ele>275</ele>
        <time>2022-09-06T06:06:11.416Z</time>
      </trkpt>
      <trkpt lat="45.66596" lon="5.61549">
        <ele>275</ele>
        <time>2022-09-06T06:06:12.416Z</time>
      </trkpt>
      <trkpt lat="45.66597" lon="5.61554">
        <ele>275</ele>
        <time>2022-09-06T06:06:13.416Z</time>
      </trkpt>
      <trkpt lat="45.66598" lon="5.61559">
        <ele>275</ele>
        <time>2022-09-06T06:06:14.416Z</time>
      </trkpt>
      <trkpt lat="45.666" lon="5.61564">
        <ele>276</ele>
        <time>2022-09-06T06:06:15.416Z</time>
      </trkpt>
      <trkpt lat="45.66601" lon="5.61568">
        <ele>276</ele>
        <time>2022-09-06T06:06:16.416Z</time>
      </trkpt>
      <trkpt lat="45.66603" lon="5.61572">
        <ele>276</ele>
        <time>2022-09-06T06:06:17.415Z</time>
      </trkpt>
      <trkpt lat="45.66605" lon="5.61577">
        <ele>276</ele>
        <time>2022-09-06T06:06:18.416Z</time>
      </trkpt>
      <trkpt lat="45.66608" lon="5.61581">
        <ele>276</ele>
        <time>2022-09-06T06:06:19.416Z</time>
      </trkpt>
      <trkpt lat="45.6661" lon="5.61585">
        <ele>276</ele>
        <time>2022-09-06T06:06:20.416Z</time>
      </trkpt>
      <trkpt lat="45.66613" lon="5.61589">
        <ele>276</ele>
        <time>2022-09-06T06:06:21.415Z</time>
      </trkpt>
      <trkpt lat="45.66616" lon="5.61592">
        <ele>276</ele>
        <time>2022-09-06T06:06:22.416Z</time>
      </trkpt>
      <trkpt lat="45.66619" lon="5.61596">
        <ele>276</ele>
        <time>2022-09-06T06:06:23.416Z</time>
      </trkpt>
      <trkpt lat="45.66622" lon="5.616">
        <ele>276</ele>
        <time>2022-09-06T06:06:24.415Z</time>
      </trkpt>
      <trkpt lat="45.66625" lon="5.61604">
        <ele>277</ele>
        <time>2022-09-06T06:06:25.416Z</time>
      </trkpt>
      <trkpt lat="45.66629" lon="5.61608">
        <ele>277</ele>
        <time>2022-09-06T06:06:26.415Z</time>
      </trkpt>
      <trkpt lat="45.66632" lon="5.61612">
        <ele>277</ele>
        <time>2022-09-06T06:06:27.416Z</time>
      </trkpt>
      <trkpt lat="45.66635" lon="5.61617">
        <ele>277</ele>
        <time>2022-09-06T06:06:28.416Z</time>
      </trkpt>
      <trkpt lat="45.66638" lon="5.61621">
        <ele>277</ele>
        <time>2022-09-06T06:06:29.415Z</time>
      </trkpt>
      <trkpt lat="45.66641" lon="5.61625">
        <ele>276</ele>
        <time>2022-09-06T06:06:30.416Z</time>
      </trkpt>
      <trkpt lat="45.66644" lon="5.61629">
        <ele>276</ele>
        <time>2022-09-06T06:06:31.416Z</time>
      </trkpt>
      <trkpt lat="45.66647" lon="5.61635">
        <ele>276</ele>
        <time>2022-09-06T06:06:32.416Z</time>
      </trkpt>
      <trkpt lat="45.6665" lon="5.6164">
        <ele>276</ele>
        <time>2022-09-06T06:06:33.416Z</time>
      </trkpt>
      <trkpt lat="45.66653" lon="5.61645">
        <ele>276</ele>
        <time>2022-09-06T06:06:34.415Z</time>
      </trkpt>
      <trkpt lat="45.66655" lon="5.61651">
        <ele>276</ele>
        <time>2022-09-06T06:06:35.416Z</time>
      </trkpt>
      <trkpt lat="45.66657" lon="5.61656">
        <ele>276</ele>
        <time>2022-09-06T06:06:36.416Z</time>
      </trkpt>
      <trkpt lat="45.66659" lon="5.61661">
        <ele>275</ele>
        <time>2022-09-06T06:06:37.416Z</time>
      </trkpt>
      <trkpt lat="45.66662" lon="5.61666">
        <ele>275</ele>
        <time>2022-09-06T06:06:38.416Z</time>
      </trkpt>
      <trkpt lat="45.66663" lon="5.6167">
        <ele>275</ele>
        <time>2022-09-06T06:06:39.415Z</time>
      </trkpt>
      <trkpt lat="45.66665" lon="5.61675">
        <ele>275</ele>
        <time>2022-09-06T06:06:40.416Z</time>
      </trkpt>
      <trkpt lat="45.66668" lon="5.61682">
        <ele>275</ele>
        <time>2022-09-06T06:06:41.415Z</time>
      </trkpt>
      <trkpt lat="45.66671" lon="5.61688">
        <ele>275</ele>
        <time>2022-09-06T06:06:42.416Z</time>
      </trkpt>
      <trkpt lat="45.66673" lon="5.61694">
        <ele>274</ele>
        <time>2022-09-06T06:06:43.416Z</time>
      </trkpt>
      <trkpt lat="45.66675" lon="5.617">
        <ele>274</ele>
        <time>2022-09-06T06:06:44.416Z</time>
      </trkpt>
      <trkpt lat="45.66677" lon="5.61705">
        <ele>274</ele>
        <time>2022-09-06T06:06:45.416Z</time>
      </trkpt>
      <trkpt lat="45.6668" lon="5.61711">
        <ele>274</ele>
        <time>2022-09-06T06:06:46.416Z</time>
      </trkpt>
      <trkpt lat="45.66682" lon="5.61718">
        <ele>274</ele>
        <time>2022-09-06T06:06:47.416Z</time>
      </trkpt>
      <trkpt lat="45.66684" lon="5.61724">
        <ele>274</ele>
        <time>2022-09-06T06:06:48.415Z</time>
      </trkpt>
      <trkpt lat="45.66686" lon="5.61731">
        <ele>274</ele>
        <time>2022-09-06T06:06:49.416Z</time>
      </trkpt>
      <trkpt lat="45.66688" lon="5.61738">
        <ele>274</ele>
        <time>2022-09-06T06:06:50.416Z</time>
      </trkpt>
      <trkpt lat="45.66691" lon="5.61745">
        <ele>274</ele>
        <time>2022-09-06T06:06:51.415Z</time>
      </trkpt>
      <trkpt lat="45.66694" lon="5.61752">
        <ele>274</ele>
        <time>2022-09-06T06:06:52.415Z</time>
      </trkpt>
      <trkpt lat="45.66696" lon="5.61757">
        <ele>274</ele>
        <time>2022-09-06T06:06:53.415Z</time>
      </trkpt>
      <trkpt lat="45.66699" lon="5.61765">
        <ele>274</ele>
        <time>2022-09-06T06:06:54.415Z</time>
      </trkpt>
      <trkpt lat="45.66702" lon="5.61774">
        <ele>274</ele>
        <time>2022-09-06T06:06:55.415Z</time>
      </trkpt>
      <trkpt lat="45.66705" lon="5.61781">
        <ele>274</ele>
        <time>2022-09-06T06:06:56.416Z</time>
      </trkpt>
      <trkpt lat="45.66708" lon="5.61789">
        <ele>274</ele>
        <time>2022-09-06T06:06:57.415Z</time>
      </trkpt>
      <trkpt lat="45.66711" lon="5.61797">
        <ele>274</ele>
        <time>2022-09-06T06:06:58.416Z</time>
      </trkpt>
      <trkpt lat="45.66714" lon="5.61805">
        <ele>274</ele>
        <time>2022-09-06T06:06:59.416Z</time>
      </trkpt>
      <trkpt lat="45.66717" lon="5.61813">
        <ele>274</ele>
        <time>2022-09-06T06:07:00.416Z</time>
      </trkpt>
      <trkpt lat="45.6672" lon="5.61822">
        <ele>274</ele>
        <time>2022-09-06T06:07:01.416Z</time>
      </trkpt>
      <trkpt lat="45.66723" lon="5.6183">
        <ele>274</ele>
        <time>2022-09-06T06:07:02.416Z</time>
      </trkpt>
      <trkpt lat="45.66726" lon="5.61837">
        <ele>274</ele>
        <time>2022-09-06T06:07:03.416Z</time>
      </trkpt>
      <trkpt lat="45.66731" lon="5.61847">
        <ele>274</ele>
        <time>2022-09-06T06:07:04.416Z</time>
      </trkpt>
      <trkpt lat="45.66735" lon="5.61855">
        <ele>275</ele>
        <time>2022-09-06T06:07:05.415Z</time>
      </trkpt>
      <trkpt lat="45.66739" lon="5.61863">
        <ele>275</ele>
        <time>2022-09-06T06:07:06.416Z</time>
      </trkpt>
      <trkpt lat="45.66742" lon="5.6187">
        <ele>275</ele>
        <time>2022-09-06T06:07:07.416Z</time>
      </trkpt>
      <trkpt lat="45.66748" lon="5.6188">
        <ele>275</ele>
        <time>2022-09-06T06:07:08.415Z</time>
      </trkpt>
      <trkpt lat="45.6675" lon="5.61888">
        <ele>275</ele>
        <time>2022-09-06T06:07:09.416Z</time>
      </trkpt>
      <trkpt lat="45.66754" lon="5.61895">
        <ele>275</ele>
        <time>2022-09-06T06:07:10.416Z</time>
      </trkpt>
      <trkpt lat="45.66758" lon="5.61905">
        <ele>275</ele>
        <time>2022-09-06T06:07:11.416Z</time>
      </trkpt>
      <trkpt lat="45.66761" lon="5.61911">
        <ele>275</ele>
        <time>2022-09-06T06:07:12.416Z</time>
      </trkpt>
      <trkpt lat="45.66765" lon="5.61921">
        <ele>275</ele>
        <time>2022-09-06T06:07:13.416Z</time>
      </trkpt>
      <trkpt lat="45.66769" lon="5.6193">
        <ele>275</ele>
        <time>2022-09-06T06:07:14.416Z</time>
      </trkpt>
      <trkpt lat="45.66772" lon="5.61939">
        <ele>275</ele>
        <time>2022-09-06T06:07:15.416Z</time>
      </trkpt>
      <trkpt lat="45.66774" lon="5.61946">
        <ele>275</ele>
        <time>2022-09-06T06:07:16.415Z</time>
      </trkpt>
      <trkpt lat="45.66777" lon="5.61954">
        <ele>275</ele>
        <time>2022-09-06T06:07:17.416Z</time>
      </trkpt>
      <trkpt lat="45.6678" lon="5.61965">
        <ele>274</ele>
        <time>2022-09-06T06:07:18.416Z</time>
      </trkpt>
      <trkpt lat="45.66782" lon="5.61974">
        <ele>274</ele>
        <time>2022-09-06T06:07:19.416Z</time>
      </trkpt>
      <trkpt lat="45.66785" lon="5.61983">
        <ele>274</ele>
        <time>2022-09-06T06:07:20.416Z</time>
      </trkpt>
      <trkpt lat="45.66787" lon="5.61992">
        <ele>274</ele>
        <time>2022-09-06T06:07:21.415Z</time>
      </trkpt>
      <trkpt lat="45.6679" lon="5.62001">
        <ele>274</ele>
        <time>2022-09-06T06:07:22.415Z</time>
      </trkpt>
      <trkpt lat="45.66792" lon="5.6201">
        <ele>274</ele>
        <time>2022-09-06T06:07:23.416Z</time>
      </trkpt>
      <trkpt lat="45.66794" lon="5.62018">
        <ele>275</ele>
        <time>2022-09-06T06:07:24.415Z</time>
      </trkpt>
      <trkpt lat="45.66795" lon="5.62027">
        <ele>275</ele>
        <time>2022-09-06T06:07:25.416Z</time>
      </trkpt>
      <trkpt lat="45.66796" lon="5.62035">
        <ele>275</ele>
        <time>2022-09-06T06:07:26.416Z</time>
      </trkpt>
      <trkpt lat="45.66798" lon="5.62044">
        <ele>275</ele>
        <time>2022-09-06T06:07:27.415Z</time>
      </trkpt>
      <trkpt lat="45.668" lon="5.62052">
        <ele>276</ele>
        <time>2022-09-06T06:07:28.416Z</time>
      </trkpt>
      <trkpt lat="45.66801" lon="5.62061">
        <ele>276</ele>
        <time>2022-09-06T06:07:29.415Z</time>
      </trkpt>
      <trkpt lat="45.66802" lon="5.62068">
        <ele>277</ele>
        <time>2022-09-06T06:07:30.416Z</time>
      </trkpt>
      <trkpt lat="45.66803" lon="5.62079">
        <ele>277</ele>
        <time>2022-09-06T06:07:31.416Z</time>
      </trkpt>
      <trkpt lat="45.66803" lon="5.62088">
        <ele>277</ele>
        <time>2022-09-06T06:07:32.415Z</time>
      </trkpt>
      <trkpt lat="45.66802" lon="5.62096">
        <ele>278</ele>
        <time>2022-09-06T06:07:33.415Z</time>
      </trkpt>
      <trkpt lat="45.66802" lon="5.62105">
        <ele>278</ele>
        <time>2022-09-06T06:07:34.416Z</time>
      </trkpt>
      <trkpt lat="45.66802" lon="5.62112">
        <ele>278</ele>
        <time>2022-09-06T06:07:35.416Z</time>
      </trkpt>
      <trkpt lat="45.66801" lon="5.62121">
        <ele>278</ele>
        <time>2022-09-06T06:07:36.416Z</time>
      </trkpt>
      <trkpt lat="45.668" lon="5.62129">
        <ele>279</ele>
        <time>2022-09-06T06:07:37.416Z</time>
      </trkpt>
      <trkpt lat="45.66799" lon="5.62138">
        <ele>279</ele>
        <time>2022-09-06T06:07:38.416Z</time>
      </trkpt>
      <trkpt lat="45.66798" lon="5.62144">
        <ele>279</ele>
        <time>2022-09-06T06:07:39.415Z</time>
      </trkpt>
      <trkpt lat="45.66797" lon="5.62154">
        <ele>279</ele>
        <time>2022-09-06T06:07:40.416Z</time>
      </trkpt>
      <trkpt lat="45.66796" lon="5.62162">
        <ele>279</ele>
        <time>2022-09-06T06:07:41.415Z</time>
      </trkpt>
      <trkpt lat="45.66795" lon="5.62169">
        <ele>279</ele>
        <time>2022-09-06T06:07:42.416Z</time>
      </trkpt>
      <trkpt lat="45.66794" lon="5.62179">
        <ele>279</ele>
        <time>2022-09-06T06:07:43.415Z</time>
      </trkpt>
      <trkpt lat="45.66793" lon="5.62186">
        <ele>279</ele>
        <time>2022-09-06T06:07:44.416Z</time>
      </trkpt>
      <trkpt lat="45.66792" lon="5.62196">
        <ele>279</ele>
        <time>2022-09-06T06:07:45.416Z</time>
      </trkpt>
      <trkpt lat="45.66791" lon="5.62204">
        <ele>280</ele>
        <time>2022-09-06T06:07:46.415Z</time>
      </trkpt>
      <trkpt lat="45.6679" lon="5.62212">
        <ele>280</ele>
        <time>2022-09-06T06:07:47.416Z</time>
      </trkpt>
      <trkpt lat="45.66789" lon="5.62218">
        <ele>281</ele>
        <time>2022-09-06T06:07:48.415Z</time>
      </trkpt>
      <trkpt lat="45.66788" lon="5.62227">
        <ele>282</ele>
        <time>2022-09-06T06:07:49.416Z</time>
      </trkpt>
      <trkpt lat="45.66788" lon="5.62237">
        <ele>282</ele>
        <time>2022-09-06T06:07:50.415Z</time>
      </trkpt>
      <trkpt lat="45.66787" lon="5.62246">
        <ele>282</ele>
        <time>2022-09-06T06:07:51.416Z</time>
      </trkpt>
      <trkpt lat="45.66787" lon="5.62255">
        <ele>282</ele>
        <time>2022-09-06T06:07:52.416Z</time>
      </trkpt>
      <trkpt lat="45.66787" lon="5.62264">
        <ele>282</ele>
        <time>2022-09-06T06:07:53.416Z</time>
      </trkpt>
      <trkpt lat="45.66787" lon="5.62273">
        <ele>282</ele>
        <time>2022-09-06T06:07:54.416Z</time>
      </trkpt>
      <trkpt lat="45.66788" lon="5.62282">
        <ele>282</ele>
        <time>2022-09-06T06:07:55.416Z</time>
      </trkpt>
      <trkpt lat="45.66789" lon="5.62292">
        <ele>282</ele>
        <time>2022-09-06T06:07:56.416Z</time>
      </trkpt>
      <trkpt lat="45.6679" lon="5.62301">
        <ele>282</ele>
        <time>2022-09-06T06:07:57.416Z</time>
      </trkpt>
      <trkpt lat="45.66791" lon="5.62308">
        <ele>282</ele>
        <time>2022-09-06T06:07:58.416Z</time>
      </trkpt>
      <trkpt lat="45.66793" lon="5.62319">
        <ele>282</ele>
        <time>2022-09-06T06:07:59.415Z</time>
      </trkpt>
      <trkpt lat="45.66795" lon="5.62328">
        <ele>282</ele>
        <time>2022-09-06T06:08:00.416Z</time>
      </trkpt>
      <trkpt lat="45.66798" lon="5.62336">
        <ele>282</ele>
        <time>2022-09-06T06:08:01.415Z</time>
      </trkpt>
      <trkpt lat="45.668" lon="5.62345">
        <ele>282</ele>
        <time>2022-09-06T06:08:02.415Z</time>
      </trkpt>
      <trkpt lat="45.66803" lon="5.62353">
        <ele>283</ele>
        <time>2022-09-06T06:08:03.416Z</time>
      </trkpt>
      <trkpt lat="45.66806" lon="5.62362">
        <ele>283</ele>
        <time>2022-09-06T06:08:04.416Z</time>
      </trkpt>
      <trkpt lat="45.66809" lon="5.62369">
        <ele>284</ele>
        <time>2022-09-06T06:08:05.416Z</time>
      </trkpt>
      <trkpt lat="45.66813" lon="5.62377">
        <ele>284</ele>
        <time>2022-09-06T06:08:06.416Z</time>
      </trkpt>
      <trkpt lat="45.66816" lon="5.62382">
        <ele>285</ele>
        <time>2022-09-06T06:08:07.416Z</time>
      </trkpt>
      <trkpt lat="45.66821" lon="5.6239">
        <ele>286</ele>
        <time>2022-09-06T06:08:08.416Z</time>
      </trkpt>
      <trkpt lat="45.66825" lon="5.62397">
        <ele>286</ele>
        <time>2022-09-06T06:08:09.416Z</time>
      </trkpt>
      <trkpt lat="45.66829" lon="5.62404">
        <ele>287</ele>
        <time>2022-09-06T06:08:10.415Z</time>
      </trkpt>
      <trkpt lat="45.66833" lon="5.62409">
        <ele>287</ele>
        <time>2022-09-06T06:08:11.416Z</time>
      </trkpt>
      <trkpt lat="45.66837" lon="5.62416">
        <ele>287</ele>
        <time>2022-09-06T06:08:12.416Z</time>
      </trkpt>
      <trkpt lat="45.66841" lon="5.62423">
        <ele>286</ele>
        <time>2022-09-06T06:08:13.416Z</time>
      </trkpt>
      <trkpt lat="45.66846" lon="5.62432">
        <ele>286</ele>
        <time>2022-09-06T06:08:14.416Z</time>
      </trkpt>
      <trkpt lat="45.6685" lon="5.62439">
        <ele>286</ele>
        <time>2022-09-06T06:08:15.416Z</time>
      </trkpt>
      <trkpt lat="45.66854" lon="5.62447">
        <ele>286</ele>
        <time>2022-09-06T06:08:16.416Z</time>
      </trkpt>
      <trkpt lat="45.66857" lon="5.62454">
        <ele>286</ele>
        <time>2022-09-06T06:08:17.416Z</time>
      </trkpt>
      <trkpt lat="45.66861" lon="5.62465">
        <ele>285</ele>
        <time>2022-09-06T06:08:18.415Z</time>
      </trkpt>
      <trkpt lat="45.66863" lon="5.62474">
        <ele>284</ele>
        <time>2022-09-06T06:08:19.416Z</time>
      </trkpt>
      <trkpt lat="45.66865" lon="5.62482">
        <ele>284</ele>
        <time>2022-09-06T06:08:20.416Z</time>
      </trkpt>
      <trkpt lat="45.66867" lon="5.62494">
        <ele>284</ele>
        <time>2022-09-06T06:08:21.416Z</time>
      </trkpt>
      <trkpt lat="45.66869" lon="5.62504">
        <ele>285</ele>
        <time>2022-09-06T06:08:22.416Z</time>
      </trkpt>
      <trkpt lat="45.6687" lon="5.62514">
        <ele>285</ele>
        <time>2022-09-06T06:08:23.416Z</time>
      </trkpt>
      <trkpt lat="45.66872" lon="5.62524">
        <ele>284</ele>
        <time>2022-09-06T06:08:24.416Z</time>
      </trkpt>
      <trkpt lat="45.66874" lon="5.62531">
        <ele>284</ele>
        <time>2022-09-06T06:08:25.416Z</time>
      </trkpt>
      <trkpt lat="45.66877" lon="5.62542">
        <ele>285</ele>
        <time>2022-09-06T06:08:26.415Z</time>
      </trkpt>
      <trkpt lat="45.6688" lon="5.62551">
        <ele>285</ele>
        <time>2022-09-06T06:08:27.416Z</time>
      </trkpt>
      <trkpt lat="45.66884" lon="5.6256">
        <ele>285</ele>
        <time>2022-09-06T06:08:28.416Z</time>
      </trkpt>
      <trkpt lat="45.66888" lon="5.62569">
        <ele>285</ele>
        <time>2022-09-06T06:08:29.415Z</time>
      </trkpt>
      <trkpt lat="45.66892" lon="5.62578">
        <ele>285</ele>
        <time>2022-09-06T06:08:30.416Z</time>
      </trkpt>
      <trkpt lat="45.66896" lon="5.62587">
        <ele>285</ele>
        <time>2022-09-06T06:08:31.415Z</time>
      </trkpt>
      <trkpt lat="45.669" lon="5.62596">
        <ele>285</ele>
        <time>2022-09-06T06:08:32.415Z</time>
      </trkpt>
      <trkpt lat="45.66904" lon="5.62605">
        <ele>285</ele>
        <time>2022-09-06T06:08:33.416Z</time>
      </trkpt>
      <trkpt lat="45.66908" lon="5.62612">
        <ele>285</ele>
        <time>2022-09-06T06:08:34.416Z</time>
      </trkpt>
      <trkpt lat="45.66912" lon="5.62622">
        <ele>286</ele>
        <time>2022-09-06T06:08:35.416Z</time>
      </trkpt>
      <trkpt lat="45.66917" lon="5.62631">
        <ele>286</ele>
        <time>2022-09-06T06:08:36.416Z</time>
      </trkpt>
      <trkpt lat="45.66921" lon="5.6264">
        <ele>286</ele>
        <time>2022-09-06T06:08:37.415Z</time>
      </trkpt>
      <trkpt lat="45.66925" lon="5.62648">
        <ele>287</ele>
        <time>2022-09-06T06:08:38.416Z</time>
      </trkpt>
      <trkpt lat="45.66928" lon="5.62655">
        <ele>287</ele>
        <time>2022-09-06T06:08:39.415Z</time>
      </trkpt>
      <trkpt lat="45.66931" lon="5.62664">
        <ele>287</ele>
        <time>2022-09-06T06:08:40.416Z</time>
      </trkpt>
      <trkpt lat="45.66936" lon="5.62674">
        <ele>287</ele>
        <time>2022-09-06T06:08:41.415Z</time>
      </trkpt>
      <trkpt lat="45.66939" lon="5.62683">
        <ele>287</ele>
        <time>2022-09-06T06:08:42.415Z</time>
      </trkpt>
      <trkpt lat="45.66943" lon="5.62692">
        <ele>287</ele>
        <time>2022-09-06T06:08:43.416Z</time>
      </trkpt>
      <trkpt lat="45.66946" lon="5.62701">
        <ele>286</ele>
        <time>2022-09-06T06:08:44.416Z</time>
      </trkpt>
      <trkpt lat="45.6695" lon="5.6271">
        <ele>286</ele>
        <time>2022-09-06T06:08:45.415Z</time>
      </trkpt>
      <trkpt lat="45.66953" lon="5.6272">
        <ele>286</ele>
        <time>2022-09-06T06:08:46.416Z</time>
      </trkpt>
      <trkpt lat="45.66957" lon="5.62729">
        <ele>286</ele>
        <time>2022-09-06T06:08:47.415Z</time>
      </trkpt>
      <trkpt lat="45.6696" lon="5.62736">
        <ele>286</ele>
        <time>2022-09-06T06:08:48.416Z</time>
      </trkpt>
      <trkpt lat="45.66963" lon="5.62744">
        <ele>286</ele>
        <time>2022-09-06T06:08:49.416Z</time>
      </trkpt>
      <trkpt lat="45.66968" lon="5.62755">
        <ele>285</ele>
        <time>2022-09-06T06:08:50.416Z</time>
      </trkpt>
      <trkpt lat="45.66971" lon="5.62763">
        <ele>285</ele>
        <time>2022-09-06T06:08:51.416Z</time>
      </trkpt>
      <trkpt lat="45.66974" lon="5.62772">
        <ele>285</ele>
        <time>2022-09-06T06:08:52.416Z</time>
      </trkpt>
      <trkpt lat="45.66977" lon="5.62779">
        <ele>284</ele>
        <time>2022-09-06T06:08:53.415Z</time>
      </trkpt>
      <trkpt lat="45.66981" lon="5.6279">
        <ele>284</ele>
        <time>2022-09-06T06:08:54.416Z</time>
      </trkpt>
      <trkpt lat="45.66985" lon="5.628">
        <ele>284</ele>
        <time>2022-09-06T06:08:55.416Z</time>
      </trkpt>
      <trkpt lat="45.66989" lon="5.62809">
        <ele>284</ele>
        <time>2022-09-06T06:08:56.415Z</time>
      </trkpt>
      <trkpt lat="45.66992" lon="5.62816">
        <ele>284</ele>
        <time>2022-09-06T06:08:57.416Z</time>
      </trkpt>
      <trkpt lat="45.66995" lon="5.62827">
        <ele>284</ele>
        <time>2022-09-06T06:08:58.415Z</time>
      </trkpt>
      <trkpt lat="45.67" lon="5.62839">
        <ele>284</ele>
        <time>2022-09-06T06:08:59.415Z</time>
      </trkpt>
      <trkpt lat="45.67003" lon="5.62848">
        <ele>284</ele>
        <time>2022-09-06T06:09:00.416Z</time>
      </trkpt>
      <trkpt lat="45.67007" lon="5.62858">
        <ele>284</ele>
        <time>2022-09-06T06:09:01.416Z</time>
      </trkpt>
      <trkpt lat="45.6701" lon="5.62867">
        <ele>283</ele>
        <time>2022-09-06T06:09:02.416Z</time>
      </trkpt>
      <trkpt lat="45.67013" lon="5.62877">
        <ele>283</ele>
        <time>2022-09-06T06:09:03.416Z</time>
      </trkpt>
      <trkpt lat="45.67017" lon="5.62887">
        <ele>284</ele>
        <time>2022-09-06T06:09:04.416Z</time>
      </trkpt>
      <trkpt lat="45.67021" lon="5.62896">
        <ele>284</ele>
        <time>2022-09-06T06:09:05.416Z</time>
      </trkpt>
      <trkpt lat="45.67024" lon="5.62905">
        <ele>284</ele>
        <time>2022-09-06T06:09:06.416Z</time>
      </trkpt>
      <trkpt lat="45.67027" lon="5.62915">
        <ele>285</ele>
        <time>2022-09-06T06:09:07.416Z</time>
      </trkpt>
      <trkpt lat="45.6703" lon="5.62925">
        <ele>285</ele>
        <time>2022-09-06T06:09:08.416Z</time>
      </trkpt>
      <trkpt lat="45.67034" lon="5.62934">
        <ele>285</ele>
        <time>2022-09-06T06:09:09.416Z</time>
      </trkpt>
      <trkpt lat="45.67038" lon="5.62944">
        <ele>285</ele>
        <time>2022-09-06T06:09:10.416Z</time>
      </trkpt>
      <trkpt lat="45.67042" lon="5.62953">
        <ele>286</ele>
        <time>2022-09-06T06:09:11.415Z</time>
      </trkpt>
      <trkpt lat="45.67045" lon="5.62961">
        <ele>286</ele>
        <time>2022-09-06T06:09:12.415Z</time>
      </trkpt>
      <trkpt lat="45.67049" lon="5.62972">
        <ele>286</ele>
        <time>2022-09-06T06:09:13.416Z</time>
      </trkpt>
      <trkpt lat="45.67053" lon="5.62981">
        <ele>286</ele>
        <time>2022-09-06T06:09:14.416Z</time>
      </trkpt>
      <trkpt lat="45.67056" lon="5.62991">
        <ele>286</ele>
        <time>2022-09-06T06:09:15.416Z</time>
      </trkpt>
      <trkpt lat="45.67059" lon="5.62998">
        <ele>286</ele>
        <time>2022-09-06T06:09:16.416Z</time>
      </trkpt>
      <trkpt lat="45.67063" lon="5.63009">
        <ele>286</ele>
        <time>2022-09-06T06:09:17.415Z</time>
      </trkpt>
      <trkpt lat="45.67066" lon="5.63018">
        <ele>286</ele>
        <time>2022-09-06T06:09:18.416Z</time>
      </trkpt>
      <trkpt lat="45.67069" lon="5.63027">
        <ele>287</ele>
        <time>2022-09-06T06:09:19.416Z</time>
      </trkpt>
      <trkpt lat="45.67072" lon="5.63037">
        <ele>287</ele>
        <time>2022-09-06T06:09:20.416Z</time>
      </trkpt>
      <trkpt lat="45.67075" lon="5.63046">
        <ele>287</ele>
        <time>2022-09-06T06:09:21.415Z</time>
      </trkpt>
      <trkpt lat="45.67078" lon="5.63055">
        <ele>287</ele>
        <time>2022-09-06T06:09:22.416Z</time>
      </trkpt>
      <trkpt lat="45.67082" lon="5.63064">
        <ele>287</ele>
        <time>2022-09-06T06:09:23.416Z</time>
      </trkpt>
      <trkpt lat="45.67086" lon="5.63073">
        <ele>288</ele>
        <time>2022-09-06T06:09:24.416Z</time>
      </trkpt>
      <trkpt lat="45.6709" lon="5.63083">
        <ele>288</ele>
        <time>2022-09-06T06:09:25.416Z</time>
      </trkpt>
      <trkpt lat="45.67093" lon="5.63093">
        <ele>288</ele>
        <time>2022-09-06T06:09:26.416Z</time>
      </trkpt>
      <trkpt lat="45.67097" lon="5.63102">
        <ele>287</ele>
        <time>2022-09-06T06:09:27.416Z</time>
      </trkpt>
      <trkpt lat="45.671" lon="5.63111">
        <ele>287</ele>
        <time>2022-09-06T06:09:28.416Z</time>
      </trkpt>
      <trkpt lat="45.67103" lon="5.63118">
        <ele>287</ele>
        <time>2022-09-06T06:09:29.416Z</time>
      </trkpt>
      <trkpt lat="45.67106" lon="5.63127">
        <ele>287</ele>
        <time>2022-09-06T06:09:30.416Z</time>
      </trkpt>
      <trkpt lat="45.6711" lon="5.63138">
        <ele>286</ele>
        <time>2022-09-06T06:09:31.416Z</time>
      </trkpt>
      <trkpt lat="45.67113" lon="5.63147">
        <ele>287</ele>
        <time>2022-09-06T06:09:32.416Z</time>
      </trkpt>
      <trkpt lat="45.67116" lon="5.63157">
        <ele>286</ele>
        <time>2022-09-06T06:09:33.416Z</time>
      </trkpt>
      <trkpt lat="45.67119" lon="5.63166">
        <ele>286</ele>
        <time>2022-09-06T06:09:34.416Z</time>
      </trkpt>
      <trkpt lat="45.67122" lon="5.63175">
        <ele>286</ele>
        <time>2022-09-06T06:09:35.416Z</time>
      </trkpt>
      <trkpt lat="45.67126" lon="5.63184">
        <ele>286</ele>
        <time>2022-09-06T06:09:36.416Z</time>
      </trkpt>
      <trkpt lat="45.67129" lon="5.63193">
        <ele>286</ele>
        <time>2022-09-06T06:09:37.416Z</time>
      </trkpt>
      <trkpt lat="45.67132" lon="5.632">
        <ele>286</ele>
        <time>2022-09-06T06:09:38.416Z</time>
      </trkpt>
      <trkpt lat="45.67135" lon="5.63209">
        <ele>286</ele>
        <time>2022-09-06T06:09:39.415Z</time>
      </trkpt>
      <trkpt lat="45.67139" lon="5.6322">
        <ele>286</ele>
        <time>2022-09-06T06:09:40.416Z</time>
      </trkpt>
      <trkpt lat="45.67143" lon="5.63229">
        <ele>287</ele>
        <time>2022-09-06T06:09:41.416Z</time>
      </trkpt>
      <trkpt lat="45.67146" lon="5.63238">
        <ele>287</ele>
        <time>2022-09-06T06:09:42.416Z</time>
      </trkpt>
      <trkpt lat="45.67149" lon="5.63247">
        <ele>287</ele>
        <time>2022-09-06T06:09:43.416Z</time>
      </trkpt>
      <trkpt lat="45.67152" lon="5.63254">
        <ele>287</ele>
        <time>2022-09-06T06:09:44.416Z</time>
      </trkpt>
      <trkpt lat="45.67155" lon="5.63265">
        <ele>287</ele>
        <time>2022-09-06T06:09:45.416Z</time>
      </trkpt>
      <trkpt lat="45.67159" lon="5.63274">
        <ele>287</ele>
        <time>2022-09-06T06:09:46.416Z</time>
      </trkpt>
      <trkpt lat="45.67162" lon="5.63283">
        <ele>288</ele>
        <time>2022-09-06T06:09:47.416Z</time>
      </trkpt>
      <trkpt lat="45.67165" lon="5.63291">
        <ele>288</ele>
        <time>2022-09-06T06:09:48.416Z</time>
      </trkpt>
      <trkpt lat="45.67168" lon="5.63299">
        <ele>288</ele>
        <time>2022-09-06T06:09:49.416Z</time>
      </trkpt>
      <trkpt lat="45.67171" lon="5.63308">
        <ele>288</ele>
        <time>2022-09-06T06:09:50.416Z</time>
      </trkpt>
      <trkpt lat="45.67175" lon="5.63317">
        <ele>288</ele>
        <time>2022-09-06T06:09:51.416Z</time>
      </trkpt>
      <trkpt lat="45.67178" lon="5.63326">
        <ele>288</ele>
        <time>2022-09-06T06:09:52.415Z</time>
      </trkpt>
      <trkpt lat="45.67181" lon="5.63335">
        <ele>288</ele>
        <time>2022-09-06T06:09:53.415Z</time>
      </trkpt>
      <trkpt lat="45.67185" lon="5.63344">
        <ele>288</ele>
        <time>2022-09-06T06:09:54.415Z</time>
      </trkpt>
      <trkpt lat="45.67188" lon="5.63353">
        <ele>288</ele>
        <time>2022-09-06T06:09:55.415Z</time>
      </trkpt>
      <trkpt lat="45.67192" lon="5.63362">
        <ele>289</ele>
        <time>2022-09-06T06:09:56.415Z</time>
      </trkpt>
      <trkpt lat="45.67195" lon="5.63371">
        <ele>289</ele>
        <time>2022-09-06T06:09:57.415Z</time>
      </trkpt>
      <trkpt lat="45.67198" lon="5.6338">
        <ele>289</ele>
        <time>2022-09-06T06:09:58.416Z</time>
      </trkpt>
      <trkpt lat="45.67202" lon="5.63391">
        <ele>289</ele>
        <time>2022-09-06T06:09:59.416Z</time>
      </trkpt>
      <trkpt lat="45.67206" lon="5.634">
        <ele>289</ele>
        <time>2022-09-06T06:10:00.415Z</time>
      </trkpt>
      <trkpt lat="45.67209" lon="5.63409">
        <ele>289</ele>
        <time>2022-09-06T06:10:01.415Z</time>
      </trkpt>
      <trkpt lat="45.67211" lon="5.63416">
        <ele>289</ele>
        <time>2022-09-06T06:10:02.416Z</time>
      </trkpt>
      <trkpt lat="45.67215" lon="5.63427">
        <ele>289</ele>
        <time>2022-09-06T06:10:03.415Z</time>
      </trkpt>
      <trkpt lat="45.67218" lon="5.63436">
        <ele>290</ele>
        <time>2022-09-06T06:10:04.415Z</time>
      </trkpt>
      <trkpt lat="45.67221" lon="5.63445">
        <ele>290</ele>
        <time>2022-09-06T06:10:05.416Z</time>
      </trkpt>
      <trkpt lat="45.67224" lon="5.63453">
        <ele>291</ele>
        <time>2022-09-06T06:10:06.416Z</time>
      </trkpt>
      <trkpt lat="45.67227" lon="5.63461">
        <ele>291</ele>
        <time>2022-09-06T06:10:07.416Z</time>
      </trkpt>
      <trkpt lat="45.67231" lon="5.63471">
        <ele>291</ele>
        <time>2022-09-06T06:10:08.416Z</time>
      </trkpt>
      <trkpt lat="45.67234" lon="5.6348">
        <ele>291</ele>
        <time>2022-09-06T06:10:09.416Z</time>
      </trkpt>
      <trkpt lat="45.67238" lon="5.63489">
        <ele>290</ele>
        <time>2022-09-06T06:10:10.416Z</time>
      </trkpt>
      <trkpt lat="45.67241" lon="5.63498">
        <ele>290</ele>
        <time>2022-09-06T06:10:11.416Z</time>
      </trkpt>
      <trkpt lat="45.67244" lon="5.63506">
        <ele>289</ele>
        <time>2022-09-06T06:10:12.415Z</time>
      </trkpt>
      <trkpt lat="45.67248" lon="5.63516">
        <ele>289</ele>
        <time>2022-09-06T06:10:13.415Z</time>
      </trkpt>
      <trkpt lat="45.67251" lon="5.63525">
        <ele>289</ele>
        <time>2022-09-06T06:10:14.416Z</time>
      </trkpt>
      <trkpt lat="45.67255" lon="5.63534">
        <ele>288</ele>
        <time>2022-09-06T06:10:15.416Z</time>
      </trkpt>
      <trkpt lat="45.67258" lon="5.63543">
        <ele>288</ele>
        <time>2022-09-06T06:10:16.416Z</time>
      </trkpt>
      <trkpt lat="45.67261" lon="5.6355">
        <ele>288</ele>
        <time>2022-09-06T06:10:17.415Z</time>
      </trkpt>
      <trkpt lat="45.67265" lon="5.63561">
        <ele>288</ele>
        <time>2022-09-06T06:10:18.415Z</time>
      </trkpt>
      <trkpt lat="45.67269" lon="5.63569">
        <ele>288</ele>
        <time>2022-09-06T06:10:19.416Z</time>
      </trkpt>
      <trkpt lat="45.67272" lon="5.63578">
        <ele>288</ele>
        <time>2022-09-06T06:10:20.416Z</time>
      </trkpt>
      <trkpt lat="45.67275" lon="5.63588">
        <ele>288</ele>
        <time>2022-09-06T06:10:21.416Z</time>
      </trkpt>
      <trkpt lat="45.67279" lon="5.63596">
        <ele>288</ele>
        <time>2022-09-06T06:10:22.416Z</time>
      </trkpt>
      <trkpt lat="45.67282" lon="5.63605">
        <ele>288</ele>
        <time>2022-09-06T06:10:23.416Z</time>
      </trkpt>
      <trkpt lat="45.67285" lon="5.63614">
        <ele>288</ele>
        <time>2022-09-06T06:10:24.416Z</time>
      </trkpt>
      <trkpt lat="45.67288" lon="5.63623">
        <ele>288</ele>
        <time>2022-09-06T06:10:25.415Z</time>
      </trkpt>
      <trkpt lat="45.67291" lon="5.6363">
        <ele>288</ele>
        <time>2022-09-06T06:10:26.415Z</time>
      </trkpt>
      <trkpt lat="45.67295" lon="5.63641">
        <ele>288</ele>
        <time>2022-09-06T06:10:27.416Z</time>
      </trkpt>
      <trkpt lat="45.67298" lon="5.6365">
        <ele>288</ele>
        <time>2022-09-06T06:10:28.416Z</time>
      </trkpt>
      <trkpt lat="45.67302" lon="5.63659">
        <ele>288</ele>
        <time>2022-09-06T06:10:29.416Z</time>
      </trkpt>
      <trkpt lat="45.67304" lon="5.63666">
        <ele>288</ele>
        <time>2022-09-06T06:10:30.416Z</time>
      </trkpt>
      <trkpt lat="45.67307" lon="5.63674">
        <ele>288</ele>
        <time>2022-09-06T06:10:31.415Z</time>
      </trkpt>
      <trkpt lat="45.67311" lon="5.63685">
        <ele>288</ele>
        <time>2022-09-06T06:10:32.416Z</time>
      </trkpt>
      <trkpt lat="45.67315" lon="5.63694">
        <ele>289</ele>
        <time>2022-09-06T06:10:33.416Z</time>
      </trkpt>
      <trkpt lat="45.67318" lon="5.63703">
        <ele>289</ele>
        <time>2022-09-06T06:10:34.416Z</time>
      </trkpt>
      <trkpt lat="45.67321" lon="5.6371">
        <ele>290</ele>
        <time>2022-09-06T06:10:35.416Z</time>
      </trkpt>
      <trkpt lat="45.67325" lon="5.6372">
        <ele>290</ele>
        <time>2022-09-06T06:10:36.416Z</time>
      </trkpt>
      <trkpt lat="45.67328" lon="5.63729">
        <ele>290</ele>
        <time>2022-09-06T06:10:37.416Z</time>
      </trkpt>
      <trkpt lat="45.67331" lon="5.63738">
        <ele>290</ele>
        <time>2022-09-06T06:10:38.416Z</time>
      </trkpt>
      <trkpt lat="45.67334" lon="5.63747">
        <ele>290</ele>
        <time>2022-09-06T06:10:39.415Z</time>
      </trkpt>
      <trkpt lat="45.67337" lon="5.63755">
        <ele>290</ele>
        <time>2022-09-06T06:10:40.415Z</time>
      </trkpt>
      <trkpt lat="45.67341" lon="5.63764">
        <ele>290</ele>
        <time>2022-09-06T06:10:41.416Z</time>
      </trkpt>
      <trkpt lat="45.67344" lon="5.63773">
        <ele>290</ele>
        <time>2022-09-06T06:10:42.416Z</time>
      </trkpt>
      <trkpt lat="45.67347" lon="5.63782">
        <ele>290</ele>
        <time>2022-09-06T06:10:43.416Z</time>
      </trkpt>
      <trkpt lat="45.6735" lon="5.63791">
        <ele>290</ele>
        <time>2022-09-06T06:10:44.416Z</time>
      </trkpt>
      <trkpt lat="45.67353" lon="5.638">
        <ele>290</ele>
        <time>2022-09-06T06:10:45.416Z</time>
      </trkpt>
      <trkpt lat="45.67356" lon="5.63807">
        <ele>291</ele>
        <time>2022-09-06T06:10:46.416Z</time>
      </trkpt>
      <trkpt lat="45.67359" lon="5.63816">
        <ele>290</ele>
        <time>2022-09-06T06:10:47.416Z</time>
      </trkpt>
      <trkpt lat="45.67362" lon="5.63825">
        <ele>290</ele>
        <time>2022-09-06T06:10:48.415Z</time>
      </trkpt>
      <trkpt lat="45.67365" lon="5.63834">
        <ele>290</ele>
        <time>2022-09-06T06:10:49.416Z</time>
      </trkpt>
      <trkpt lat="45.67368" lon="5.63842">
        <ele>290</ele>
        <time>2022-09-06T06:10:50.415Z</time>
      </trkpt>
      <trkpt lat="45.67371" lon="5.63852">
        <ele>290</ele>
        <time>2022-09-06T06:10:51.415Z</time>
      </trkpt>
      <trkpt lat="45.67375" lon="5.63862">
        <ele>290</ele>
        <time>2022-09-06T06:10:52.416Z</time>
      </trkpt>
      <trkpt lat="45.67378" lon="5.63871">
        <ele>290</ele>
        <time>2022-09-06T06:10:53.416Z</time>
      </trkpt>
      <trkpt lat="45.67381" lon="5.63881">
        <ele>290</ele>
        <time>2022-09-06T06:10:54.416Z</time>
      </trkpt>
      <trkpt lat="45.67383" lon="5.6389">
        <ele>290</ele>
        <time>2022-09-06T06:10:55.415Z</time>
      </trkpt>
      <trkpt lat="45.67386" lon="5.63899">
        <ele>290</ele>
        <time>2022-09-06T06:10:56.416Z</time>
      </trkpt>
      <trkpt lat="45.67388" lon="5.63909">
        <ele>290</ele>
        <time>2022-09-06T06:10:57.416Z</time>
      </trkpt>
      <trkpt lat="45.6739" lon="5.63919">
        <ele>290</ele>
        <time>2022-09-06T06:10:58.416Z</time>
      </trkpt>
      <trkpt lat="45.67391" lon="5.63927">
        <ele>290</ele>
        <time>2022-09-06T06:10:59.416Z</time>
      </trkpt>
      <trkpt lat="45.67393" lon="5.63937">
        <ele>290</ele>
        <time>2022-09-06T06:11:00.416Z</time>
      </trkpt>
      <trkpt lat="45.67394" lon="5.63947">
        <ele>291</ele>
        <time>2022-09-06T06:11:01.415Z</time>
      </trkpt>
      <trkpt lat="45.67395" lon="5.63957">
        <ele>291</ele>
        <time>2022-09-06T06:11:02.416Z</time>
      </trkpt>
      <trkpt lat="45.67397" lon="5.63967">
        <ele>292</ele>
        <time>2022-09-06T06:11:03.416Z</time>
      </trkpt>
      <trkpt lat="45.67398" lon="5.63976">
        <ele>292</ele>
        <time>2022-09-06T06:11:04.416Z</time>
      </trkpt>
      <trkpt lat="45.67398" lon="5.63986">
        <ele>291</ele>
        <time>2022-09-06T06:11:05.415Z</time>
      </trkpt>
      <trkpt lat="45.67399" lon="5.63996">
        <ele>291</ele>
        <time>2022-09-06T06:11:06.415Z</time>
      </trkpt>
      <trkpt lat="45.674" lon="5.64006">
        <ele>291</ele>
        <time>2022-09-06T06:11:07.415Z</time>
      </trkpt>
      <trkpt lat="45.67401" lon="5.64016">
        <ele>291</ele>
        <time>2022-09-06T06:11:08.416Z</time>
      </trkpt>
      <trkpt lat="45.67402" lon="5.64026">
        <ele>291</ele>
        <time>2022-09-06T06:11:09.416Z</time>
      </trkpt>
      <trkpt lat="45.67402" lon="5.64036">
        <ele>291</ele>
        <time>2022-09-06T06:11:10.416Z</time>
      </trkpt>
      <trkpt lat="45.67403" lon="5.64046">
        <ele>291</ele>
        <time>2022-09-06T06:11:11.416Z</time>
      </trkpt>
      <trkpt lat="45.67404" lon="5.64056">
        <ele>291</ele>
        <time>2022-09-06T06:11:12.415Z</time>
      </trkpt>
      <trkpt lat="45.67404" lon="5.64066">
        <ele>292</ele>
        <time>2022-09-06T06:11:13.415Z</time>
      </trkpt>
      <trkpt lat="45.67405" lon="5.64075">
        <ele>292</ele>
        <time>2022-09-06T06:11:14.416Z</time>
      </trkpt>
      <trkpt lat="45.67405" lon="5.64085">
        <ele>292</ele>
        <time>2022-09-06T06:11:15.416Z</time>
      </trkpt>
      <trkpt lat="45.67406" lon="5.64094">
        <ele>293</ele>
        <time>2022-09-06T06:11:16.415Z</time>
      </trkpt>
      <trkpt lat="45.67406" lon="5.64103">
        <ele>293</ele>
        <time>2022-09-06T06:11:17.415Z</time>
      </trkpt>
      <trkpt lat="45.67407" lon="5.64113">
        <ele>293</ele>
        <time>2022-09-06T06:11:18.416Z</time>
      </trkpt>
      <trkpt lat="45.67407" lon="5.64122">
        <ele>292</ele>
        <time>2022-09-06T06:11:19.416Z</time>
      </trkpt>
      <trkpt lat="45.67408" lon="5.64132">
        <ele>292</ele>
        <time>2022-09-06T06:11:20.416Z</time>
      </trkpt>
      <trkpt lat="45.67409" lon="5.64141">
        <ele>292</ele>
        <time>2022-09-06T06:11:21.416Z</time>
      </trkpt>
      <trkpt lat="45.67409" lon="5.64151">
        <ele>293</ele>
        <time>2022-09-06T06:11:22.415Z</time>
      </trkpt>
      <trkpt lat="45.6741" lon="5.64161">
        <ele>293</ele>
        <time>2022-09-06T06:11:23.415Z</time>
      </trkpt>
      <trkpt lat="45.67411" lon="5.6417">
        <ele>293</ele>
        <time>2022-09-06T06:11:24.415Z</time>
      </trkpt>
      <trkpt lat="45.67412" lon="5.6418">
        <ele>292</ele>
        <time>2022-09-06T06:11:25.416Z</time>
      </trkpt>
      <trkpt lat="45.67412" lon="5.6419">
        <ele>293</ele>
        <time>2022-09-06T06:11:26.415Z</time>
      </trkpt>
      <trkpt lat="45.67413" lon="5.64199">
        <ele>293</ele>
        <time>2022-09-06T06:11:27.416Z</time>
      </trkpt>
      <trkpt lat="45.67415" lon="5.64211">
        <ele>294</ele>
        <time>2022-09-06T06:11:28.416Z</time>
      </trkpt>
      <trkpt lat="45.67416" lon="5.64219">
        <ele>294</ele>
        <time>2022-09-06T06:11:29.415Z</time>
      </trkpt>
      <trkpt lat="45.67417" lon="5.64229">
        <ele>295</ele>
        <time>2022-09-06T06:11:30.416Z</time>
      </trkpt>
      <trkpt lat="45.67418" lon="5.6424">
        <ele>295</ele>
        <time>2022-09-06T06:11:31.416Z</time>
      </trkpt>
      <trkpt lat="45.67419" lon="5.6425">
        <ele>295</ele>
        <time>2022-09-06T06:11:32.416Z</time>
      </trkpt>
      <trkpt lat="45.67419" lon="5.6426">
        <ele>296</ele>
        <time>2022-09-06T06:11:33.415Z</time>
      </trkpt>
      <trkpt lat="45.6742" lon="5.64267">
        <ele>296</ele>
        <time>2022-09-06T06:11:34.416Z</time>
      </trkpt>
      <trkpt lat="45.6742" lon="5.64277">
        <ele>295</ele>
        <time>2022-09-06T06:11:35.416Z</time>
      </trkpt>
      <trkpt lat="45.67421" lon="5.64287">
        <ele>295</ele>
        <time>2022-09-06T06:11:36.416Z</time>
      </trkpt>
      <trkpt lat="45.67421" lon="5.64297">
        <ele>295</ele>
        <time>2022-09-06T06:11:37.415Z</time>
      </trkpt>
      <trkpt lat="45.67422" lon="5.64306">
        <ele>295</ele>
        <time>2022-09-06T06:11:38.415Z</time>
      </trkpt>
      <trkpt lat="45.67423" lon="5.64316">
        <ele>295</ele>
        <time>2022-09-06T06:11:39.415Z</time>
      </trkpt>
      <trkpt lat="45.67423" lon="5.64326">
        <ele>296</ele>
        <time>2022-09-06T06:11:40.416Z</time>
      </trkpt>
      <trkpt lat="45.67423" lon="5.64336">
        <ele>296</ele>
        <time>2022-09-06T06:11:41.416Z</time>
      </trkpt>
      <trkpt lat="45.67424" lon="5.64346">
        <ele>296</ele>
        <time>2022-09-06T06:11:42.415Z</time>
      </trkpt>
      <trkpt lat="45.67424" lon="5.64356">
        <ele>296</ele>
        <time>2022-09-06T06:11:43.416Z</time>
      </trkpt>
      <trkpt lat="45.67424" lon="5.64366">
        <ele>296</ele>
        <time>2022-09-06T06:11:44.416Z</time>
      </trkpt>
      <trkpt lat="45.67423" lon="5.64376">
        <ele>297</ele>
        <time>2022-09-06T06:11:45.416Z</time>
      </trkpt>
      <trkpt lat="45.67422" lon="5.64386">
        <ele>297</ele>
        <time>2022-09-06T06:11:46.416Z</time>
      </trkpt>
      <trkpt lat="45.67422" lon="5.64396">
        <ele>297</ele>
        <time>2022-09-06T06:11:47.416Z</time>
      </trkpt>
      <trkpt lat="45.67421" lon="5.64406">
        <ele>297</ele>
        <time>2022-09-06T06:11:48.416Z</time>
      </trkpt>
      <trkpt lat="45.67419" lon="5.64415">
        <ele>297</ele>
        <time>2022-09-06T06:11:49.416Z</time>
      </trkpt>
      <trkpt lat="45.67418" lon="5.64424">
        <ele>297</ele>
        <time>2022-09-06T06:11:50.415Z</time>
      </trkpt>
      <trkpt lat="45.67417" lon="5.64434">
        <ele>297</ele>
        <time>2022-09-06T06:11:51.415Z</time>
      </trkpt>
      <trkpt lat="45.67415" lon="5.64444">
        <ele>297</ele>
        <time>2022-09-06T06:11:52.415Z</time>
      </trkpt>
      <trkpt lat="45.67413" lon="5.64453">
        <ele>296</ele>
        <time>2022-09-06T06:11:53.416Z</time>
      </trkpt>
      <trkpt lat="45.67411" lon="5.64462">
        <ele>295</ele>
        <time>2022-09-06T06:11:54.416Z</time>
      </trkpt>
      <trkpt lat="45.67409" lon="5.64472">
        <ele>294</ele>
        <time>2022-09-06T06:11:55.416Z</time>
      </trkpt>
      <trkpt lat="45.67407" lon="5.64481">
        <ele>294</ele>
        <time>2022-09-06T06:11:56.416Z</time>
      </trkpt>
      <trkpt lat="45.67404" lon="5.64491">
        <ele>294</ele>
        <time>2022-09-06T06:11:57.416Z</time>
      </trkpt>
      <trkpt lat="45.67402" lon="5.645">
        <ele>293</ele>
        <time>2022-09-06T06:11:58.416Z</time>
      </trkpt>
      <trkpt lat="45.67399" lon="5.64509">
        <ele>293</ele>
        <time>2022-09-06T06:11:59.416Z</time>
      </trkpt>
      <trkpt lat="45.67397" lon="5.64518">
        <ele>293</ele>
        <time>2022-09-06T06:12:00.416Z</time>
      </trkpt>
      <trkpt lat="45.67396" lon="5.64527">
        <ele>293</ele>
        <time>2022-09-06T06:12:01.415Z</time>
      </trkpt>
      <trkpt lat="45.67394" lon="5.64537">
        <ele>293</ele>
        <time>2022-09-06T06:12:02.416Z</time>
      </trkpt>
      <trkpt lat="45.67392" lon="5.64547">
        <ele>293</ele>
        <time>2022-09-06T06:12:03.416Z</time>
      </trkpt>
      <trkpt lat="45.6739" lon="5.64557">
        <ele>294</ele>
        <time>2022-09-06T06:12:04.416Z</time>
      </trkpt>
      <trkpt lat="45.67389" lon="5.64566">
        <ele>294</ele>
        <time>2022-09-06T06:12:05.415Z</time>
      </trkpt>
      <trkpt lat="45.67387" lon="5.64576">
        <ele>294</ele>
        <time>2022-09-06T06:12:06.416Z</time>
      </trkpt>
      <trkpt lat="45.67386" lon="5.64585">
        <ele>295</ele>
        <time>2022-09-06T06:12:07.416Z</time>
      </trkpt>
      <trkpt lat="45.67385" lon="5.64594">
        <ele>295</ele>
        <time>2022-09-06T06:12:08.415Z</time>
      </trkpt>
      <trkpt lat="45.67385" lon="5.64604">
        <ele>295</ele>
        <time>2022-09-06T06:12:09.415Z</time>
      </trkpt>
      <trkpt lat="45.67384" lon="5.64614">
        <ele>295</ele>
        <time>2022-09-06T06:12:10.416Z</time>
      </trkpt>
      <trkpt lat="45.67384" lon="5.64624">
        <ele>296</ele>
        <time>2022-09-06T06:12:11.416Z</time>
      </trkpt>
      <trkpt lat="45.67384" lon="5.64633">
        <ele>296</ele>
        <time>2022-09-06T06:12:12.416Z</time>
      </trkpt>
      <trkpt lat="45.67384" lon="5.64643">
        <ele>297</ele>
        <time>2022-09-06T06:12:13.416Z</time>
      </trkpt>
      <trkpt lat="45.67384" lon="5.64652">
        <ele>297</ele>
        <time>2022-09-06T06:12:14.416Z</time>
      </trkpt>
      <trkpt lat="45.67385" lon="5.64662">
        <ele>297</ele>
        <time>2022-09-06T06:12:15.416Z</time>
      </trkpt>
      <trkpt lat="45.67386" lon="5.64671">
        <ele>297</ele>
        <time>2022-09-06T06:12:16.415Z</time>
      </trkpt>
      <trkpt lat="45.67388" lon="5.64681">
        <ele>297</ele>
        <time>2022-09-06T06:12:17.415Z</time>
      </trkpt>
      <trkpt lat="45.67389" lon="5.6469">
        <ele>297</ele>
        <time>2022-09-06T06:12:18.415Z</time>
      </trkpt>
      <trkpt lat="45.67391" lon="5.64699">
        <ele>297</ele>
        <time>2022-09-06T06:12:19.415Z</time>
      </trkpt>
      <trkpt lat="45.67393" lon="5.6471">
        <ele>297</ele>
        <time>2022-09-06T06:12:20.416Z</time>
      </trkpt>
      <trkpt lat="45.67396" lon="5.64719">
        <ele>298</ele>
        <time>2022-09-06T06:12:21.416Z</time>
      </trkpt>
      <trkpt lat="45.67398" lon="5.64726">
        <ele>298</ele>
        <time>2022-09-06T06:12:22.416Z</time>
      </trkpt>
      <trkpt lat="45.674" lon="5.64735">
        <ele>298</ele>
        <time>2022-09-06T06:12:23.416Z</time>
      </trkpt>
      <trkpt lat="45.67404" lon="5.64744">
        <ele>298</ele>
        <time>2022-09-06T06:12:24.416Z</time>
      </trkpt>
      <trkpt lat="45.67408" lon="5.64752">
        <ele>298</ele>
        <time>2022-09-06T06:12:25.416Z</time>
      </trkpt>
      <trkpt lat="45.67411" lon="5.64761">
        <ele>298</ele>
        <time>2022-09-06T06:12:26.415Z</time>
      </trkpt>
      <trkpt lat="45.67415" lon="5.64769">
        <ele>297</ele>
        <time>2022-09-06T06:12:27.416Z</time>
      </trkpt>
      <trkpt lat="45.67419" lon="5.64778">
        <ele>297</ele>
        <time>2022-09-06T06:12:28.416Z</time>
      </trkpt>
      <trkpt lat="45.67423" lon="5.64786">
        <ele>297</ele>
        <time>2022-09-06T06:12:29.415Z</time>
      </trkpt>
      <trkpt lat="45.67428" lon="5.64794">
        <ele>298</ele>
        <time>2022-09-06T06:12:30.416Z</time>
      </trkpt>
      <trkpt lat="45.67432" lon="5.64802">
        <ele>298</ele>
        <time>2022-09-06T06:12:31.416Z</time>
      </trkpt>
      <trkpt lat="45.67437" lon="5.64809">
        <ele>298</ele>
        <time>2022-09-06T06:12:32.416Z</time>
      </trkpt>
      <trkpt lat="45.67443" lon="5.64818">
        <ele>298</ele>
        <time>2022-09-06T06:12:33.415Z</time>
      </trkpt>
      <trkpt lat="45.67449" lon="5.64825">
        <ele>298</ele>
        <time>2022-09-06T06:12:34.415Z</time>
      </trkpt>
      <trkpt lat="45.67454" lon="5.64831">
        <ele>297</ele>
        <time>2022-09-06T06:12:35.415Z</time>
      </trkpt>
      <trkpt lat="45.6746" lon="5.64838">
        <ele>297</ele>
        <time>2022-09-06T06:12:36.416Z</time>
      </trkpt>
      <trkpt lat="45.67466" lon="5.64844">
        <ele>297</ele>
        <time>2022-09-06T06:12:37.416Z</time>
      </trkpt>
      <trkpt lat="45.67472" lon="5.6485">
        <ele>298</ele>
        <time>2022-09-06T06:12:38.416Z</time>
      </trkpt>
      <trkpt lat="45.67478" lon="5.64856">
        <ele>298</ele>
        <time>2022-09-06T06:12:39.416Z</time>
      </trkpt>
      <trkpt lat="45.67484" lon="5.64862">
        <ele>298</ele>
        <time>2022-09-06T06:12:40.416Z</time>
      </trkpt>
      <trkpt lat="45.6749" lon="5.64867">
        <ele>298</ele>
        <time>2022-09-06T06:12:41.416Z</time>
      </trkpt>
      <trkpt lat="45.67497" lon="5.64873">
        <ele>298</ele>
        <time>2022-09-06T06:12:42.416Z</time>
      </trkpt>
      <trkpt lat="45.67503" lon="5.64879">
        <ele>299</ele>
        <time>2022-09-06T06:12:43.415Z</time>
      </trkpt>
      <trkpt lat="45.67509" lon="5.64884">
        <ele>299</ele>
        <time>2022-09-06T06:12:44.415Z</time>
      </trkpt>
      <trkpt lat="45.67514" lon="5.64889">
        <ele>300</ele>
        <time>2022-09-06T06:12:45.416Z</time>
      </trkpt>
      <trkpt lat="45.67522" lon="5.64895">
        <ele>300</ele>
        <time>2022-09-06T06:12:46.416Z</time>
      </trkpt>
      <trkpt lat="45.67527" lon="5.64899">
        <ele>300</ele>
        <time>2022-09-06T06:12:47.415Z</time>
      </trkpt>
      <trkpt lat="45.67535" lon="5.64905">
        <ele>300</ele>
        <time>2022-09-06T06:12:48.416Z</time>
      </trkpt>
      <trkpt lat="45.6754" lon="5.64909">
        <ele>300</ele>
        <time>2022-09-06T06:12:49.416Z</time>
      </trkpt>
      <trkpt lat="45.67547" lon="5.64914">
        <ele>301</ele>
        <time>2022-09-06T06:12:50.416Z</time>
      </trkpt>
      <trkpt lat="45.67553" lon="5.6492">
        <ele>301</ele>
        <time>2022-09-06T06:12:51.416Z</time>
      </trkpt>
      <trkpt lat="45.6756" lon="5.64925">
        <ele>302</ele>
        <time>2022-09-06T06:12:52.415Z</time>
      </trkpt>
      <trkpt lat="45.67566" lon="5.64929">
        <ele>302</ele>
        <time>2022-09-06T06:12:53.416Z</time>
      </trkpt>
      <trkpt lat="45.67572" lon="5.64934">
        <ele>302</ele>
        <time>2022-09-06T06:12:54.415Z</time>
      </trkpt>
      <trkpt lat="45.67578" lon="5.64939">
        <ele>302</ele>
        <time>2022-09-06T06:12:55.416Z</time>
      </trkpt>
      <trkpt lat="45.67584" lon="5.64944">
        <ele>302</ele>
        <time>2022-09-06T06:12:56.416Z</time>
      </trkpt>
      <trkpt lat="45.67591" lon="5.64949">
        <ele>302</ele>
        <time>2022-09-06T06:12:57.415Z</time>
      </trkpt>
      <trkpt lat="45.67598" lon="5.64954">
        <ele>302</ele>
        <time>2022-09-06T06:12:58.416Z</time>
      </trkpt>
      <trkpt lat="45.67604" lon="5.6496">
        <ele>301</ele>
        <time>2022-09-06T06:12:59.416Z</time>
      </trkpt>
      <trkpt lat="45.6761" lon="5.64965">
        <ele>301</ele>
        <time>2022-09-06T06:13:00.416Z</time>
      </trkpt>
      <trkpt lat="45.67616" lon="5.6497">
        <ele>301</ele>
        <time>2022-09-06T06:13:01.416Z</time>
      </trkpt>
      <trkpt lat="45.67622" lon="5.64975">
        <ele>301</ele>
        <time>2022-09-06T06:13:02.415Z</time>
      </trkpt>
      <trkpt lat="45.67628" lon="5.6498">
        <ele>301</ele>
        <time>2022-09-06T06:13:03.415Z</time>
      </trkpt>
      <trkpt lat="45.67634" lon="5.64985">
        <ele>301</ele>
        <time>2022-09-06T06:13:04.416Z</time>
      </trkpt>
      <trkpt lat="45.6764" lon="5.6499">
        <ele>301</ele>
        <time>2022-09-06T06:13:05.415Z</time>
      </trkpt>
      <trkpt lat="45.67645" lon="5.64995">
        <ele>301</ele>
        <time>2022-09-06T06:13:06.416Z</time>
      </trkpt>
      <trkpt lat="45.67651" lon="5.64999">
        <ele>301</ele>
        <time>2022-09-06T06:13:07.415Z</time>
      </trkpt>
      <trkpt lat="45.67657" lon="5.65003">
        <ele>301</ele>
        <time>2022-09-06T06:13:08.416Z</time>
      </trkpt>
      <trkpt lat="45.67663" lon="5.65007">
        <ele>301</ele>
        <time>2022-09-06T06:13:09.416Z</time>
      </trkpt>
      <trkpt lat="45.67669" lon="5.65011">
        <ele>302</ele>
        <time>2022-09-06T06:13:10.416Z</time>
      </trkpt>
      <trkpt lat="45.67675" lon="5.65016">
        <ele>302</ele>
        <time>2022-09-06T06:13:11.415Z</time>
      </trkpt>
      <trkpt lat="45.67681" lon="5.6502">
        <ele>301</ele>
        <time>2022-09-06T06:13:12.416Z</time>
      </trkpt>
      <trkpt lat="45.67687" lon="5.65024">
        <ele>301</ele>
        <time>2022-09-06T06:13:13.416Z</time>
      </trkpt>
      <trkpt lat="45.67693" lon="5.65028">
        <ele>301</ele>
        <time>2022-09-06T06:13:14.416Z</time>
      </trkpt>
      <trkpt lat="45.67699" lon="5.65032">
        <ele>301</ele>
        <time>2022-09-06T06:13:15.416Z</time>
      </trkpt>
      <trkpt lat="45.67706" lon="5.65036">
        <ele>301</ele>
        <time>2022-09-06T06:13:16.416Z</time>
      </trkpt>
      <trkpt lat="45.67712" lon="5.6504">
        <ele>300</ele>
        <time>2022-09-06T06:13:17.416Z</time>
      </trkpt>
      <trkpt lat="45.67718" lon="5.65044">
        <ele>300</ele>
        <time>2022-09-06T06:13:18.416Z</time>
      </trkpt>
      <trkpt lat="45.67725" lon="5.65047">
        <ele>300</ele>
        <time>2022-09-06T06:13:19.416Z</time>
      </trkpt>
      <trkpt lat="45.67731" lon="5.65051">
        <ele>300</ele>
        <time>2022-09-06T06:13:20.416Z</time>
      </trkpt>
      <trkpt lat="45.67737" lon="5.65055">
        <ele>299</ele>
        <time>2022-09-06T06:13:21.416Z</time>
      </trkpt>
      <trkpt lat="45.67744" lon="5.65059">
        <ele>300</ele>
        <time>2022-09-06T06:13:22.416Z</time>
      </trkpt>
      <trkpt lat="45.6775" lon="5.65062">
        <ele>300</ele>
        <time>2022-09-06T06:13:23.415Z</time>
      </trkpt>
      <trkpt lat="45.67757" lon="5.65066">
        <ele>300</ele>
        <time>2022-09-06T06:13:24.416Z</time>
      </trkpt>
      <trkpt lat="45.67763" lon="5.6507">
        <ele>300</ele>
        <time>2022-09-06T06:13:25.416Z</time>
      </trkpt>
      <trkpt lat="45.6777" lon="5.65074">
        <ele>301</ele>
        <time>2022-09-06T06:13:26.416Z</time>
      </trkpt>
      <trkpt lat="45.67776" lon="5.65078">
        <ele>301</ele>
        <time>2022-09-06T06:13:27.415Z</time>
      </trkpt>
      <trkpt lat="45.67782" lon="5.65082">
        <ele>301</ele>
        <time>2022-09-06T06:13:28.416Z</time>
      </trkpt>
      <trkpt lat="45.67789" lon="5.65086">
        <ele>302</ele>
        <time>2022-09-06T06:13:29.416Z</time>
      </trkpt>
      <trkpt lat="45.67796" lon="5.6509">
        <ele>302</ele>
        <time>2022-09-06T06:13:30.415Z</time>
      </trkpt>
      <trkpt lat="45.67802" lon="5.65094">
        <ele>302</ele>
        <time>2022-09-06T06:13:31.416Z</time>
      </trkpt>
      <trkpt lat="45.67808" lon="5.65098">
        <ele>302</ele>
        <time>2022-09-06T06:13:32.416Z</time>
      </trkpt>
      <trkpt lat="45.67815" lon="5.65102">
        <ele>302</ele>
        <time>2022-09-06T06:13:33.416Z</time>
      </trkpt>
      <trkpt lat="45.67822" lon="5.65106">
        <ele>302</ele>
        <time>2022-09-06T06:13:34.416Z</time>
      </trkpt>
      <trkpt lat="45.67829" lon="5.6511">
        <ele>302</ele>
        <time>2022-09-06T06:13:35.415Z</time>
      </trkpt>
      <trkpt lat="45.67836" lon="5.65114">
        <ele>301</ele>
        <time>2022-09-06T06:13:36.416Z</time>
      </trkpt>
      <trkpt lat="45.67842" lon="5.65119">
        <ele>301</ele>
        <time>2022-09-06T06:13:37.415Z</time>
      </trkpt>
      <trkpt lat="45.67849" lon="5.65122">
        <ele>301</ele>
        <time>2022-09-06T06:13:38.415Z</time>
      </trkpt>
      <trkpt lat="45.67856" lon="5.65126">
        <ele>300</ele>
        <time>2022-09-06T06:13:39.416Z</time>
      </trkpt>
      <trkpt lat="45.67862" lon="5.65131">
        <ele>300</ele>
        <time>2022-09-06T06:13:40.416Z</time>
      </trkpt>
      <trkpt lat="45.67869" lon="5.65135">
        <ele>300</ele>
        <time>2022-09-06T06:13:41.416Z</time>
      </trkpt>
      <trkpt lat="45.67876" lon="5.65139">
        <ele>300</ele>
        <time>2022-09-06T06:13:42.416Z</time>
      </trkpt>
      <trkpt lat="45.67883" lon="5.65144">
        <ele>300</ele>
        <time>2022-09-06T06:13:43.415Z</time>
      </trkpt>
      <trkpt lat="45.6789" lon="5.65148">
        <ele>300</ele>
        <time>2022-09-06T06:13:44.416Z</time>
      </trkpt>
      <trkpt lat="45.67898" lon="5.65152">
        <ele>300</ele>
        <time>2022-09-06T06:13:45.415Z</time>
      </trkpt>
      <trkpt lat="45.67905" lon="5.65156">
        <ele>300</ele>
        <time>2022-09-06T06:13:46.416Z</time>
      </trkpt>
      <trkpt lat="45.67911" lon="5.6516">
        <ele>300</ele>
        <time>2022-09-06T06:13:47.416Z</time>
      </trkpt>
      <trkpt lat="45.67918" lon="5.65164">
        <ele>300</ele>
        <time>2022-09-06T06:13:48.415Z</time>
      </trkpt>
      <trkpt lat="45.67925" lon="5.65168">
        <ele>299</ele>
        <time>2022-09-06T06:13:49.416Z</time>
      </trkpt>
      <trkpt lat="45.67932" lon="5.65172">
        <ele>299</ele>
        <time>2022-09-06T06:13:50.416Z</time>
      </trkpt>
      <trkpt lat="45.67938" lon="5.65176">
        <ele>299</ele>
        <time>2022-09-06T06:13:51.415Z</time>
      </trkpt>
      <trkpt lat="45.67945" lon="5.6518">
        <ele>299</ele>
        <time>2022-09-06T06:13:52.415Z</time>
      </trkpt>
      <trkpt lat="45.67952" lon="5.65184">
        <ele>299</ele>
        <time>2022-09-06T06:13:53.416Z</time>
      </trkpt>
      <trkpt lat="45.67958" lon="5.65188">
        <ele>299</ele>
        <time>2022-09-06T06:13:54.416Z</time>
      </trkpt>
      <trkpt lat="45.67965" lon="5.65192">
        <ele>299</ele>
        <time>2022-09-06T06:13:55.415Z</time>
      </trkpt>
      <trkpt lat="45.67971" lon="5.65196">
        <ele>300</ele>
        <time>2022-09-06T06:13:56.416Z</time>
      </trkpt>
      <trkpt lat="45.67978" lon="5.652">
        <ele>300</ele>
        <time>2022-09-06T06:13:57.416Z</time>
      </trkpt>
      <trkpt lat="45.67984" lon="5.65204">
        <ele>300</ele>
        <time>2022-09-06T06:13:58.416Z</time>
      </trkpt>
      <trkpt lat="45.6799" lon="5.65208">
        <ele>300</ele>
        <time>2022-09-06T06:13:59.416Z</time>
      </trkpt>
      <trkpt lat="45.67997" lon="5.65212">
        <ele>300</ele>
        <time>2022-09-06T06:14:00.416Z</time>
      </trkpt>
      <trkpt lat="45.68003" lon="5.65216">
        <ele>300</ele>
        <time>2022-09-06T06:14:01.416Z</time>
      </trkpt>
      <trkpt lat="45.68009" lon="5.6522">
        <ele>300</ele>
        <time>2022-09-06T06:14:02.415Z</time>
      </trkpt>
      <trkpt lat="45.68016" lon="5.65223">
        <ele>301</ele>
        <time>2022-09-06T06:14:03.416Z</time>
      </trkpt>
      <trkpt lat="45.68022" lon="5.65227">
        <ele>300</ele>
        <time>2022-09-06T06:14:04.416Z</time>
      </trkpt>
      <trkpt lat="45.68029" lon="5.65231">
        <ele>301</ele>
        <time>2022-09-06T06:14:05.416Z</time>
      </trkpt>
      <trkpt lat="45.68035" lon="5.65235">
        <ele>301</ele>
        <time>2022-09-06T06:14:06.415Z</time>
      </trkpt>
      <trkpt lat="45.68041" lon="5.65239">
        <ele>301</ele>
        <time>2022-09-06T06:14:07.416Z</time>
      </trkpt>
      <trkpt lat="45.68048" lon="5.65243">
        <ele>301</ele>
        <time>2022-09-06T06:14:08.416Z</time>
      </trkpt>
      <trkpt lat="45.68054" lon="5.65247">
        <ele>301</ele>
        <time>2022-09-06T06:14:09.416Z</time>
      </trkpt>
      <trkpt lat="45.68061" lon="5.65251">
        <ele>301</ele>
        <time>2022-09-06T06:14:10.416Z</time>
      </trkpt>
      <trkpt lat="45.68067" lon="5.65255">
        <ele>301</ele>
        <time>2022-09-06T06:14:11.416Z</time>
      </trkpt>
      <trkpt lat="45.68073" lon="5.65258">
        <ele>301</ele>
        <time>2022-09-06T06:14:12.416Z</time>
      </trkpt>
      <trkpt lat="45.68081" lon="5.65263">
        <ele>301</ele>
        <time>2022-09-06T06:14:13.415Z</time>
      </trkpt>
      <trkpt lat="45.68088" lon="5.65267">
        <ele>301</ele>
        <time>2022-09-06T06:14:14.416Z</time>
      </trkpt>
      <trkpt lat="45.68094" lon="5.65271">
        <ele>300</ele>
        <time>2022-09-06T06:14:15.416Z</time>
      </trkpt>
      <trkpt lat="45.68101" lon="5.65275">
        <ele>300</ele>
        <time>2022-09-06T06:14:16.416Z</time>
      </trkpt>
      <trkpt lat="45.68106" lon="5.65278">
        <ele>300</ele>
        <time>2022-09-06T06:14:17.416Z</time>
      </trkpt>
      <trkpt lat="45.68112" lon="5.65282">
        <ele>300</ele>
        <time>2022-09-06T06:14:18.416Z</time>
      </trkpt>
      <trkpt lat="45.68119" lon="5.65286">
        <ele>300</ele>
        <time>2022-09-06T06:14:19.416Z</time>
      </trkpt>
      <trkpt lat="45.68125" lon="5.6529">
        <ele>300</ele>
        <time>2022-09-06T06:14:20.416Z</time>
      </trkpt>
      <trkpt lat="45.68131" lon="5.65294">
        <ele>300</ele>
        <time>2022-09-06T06:14:21.415Z</time>
      </trkpt>
      <trkpt lat="45.68138" lon="5.65297">
        <ele>299</ele>
        <time>2022-09-06T06:14:22.416Z</time>
      </trkpt>
      <trkpt lat="45.68144" lon="5.65301">
        <ele>299</ele>
        <time>2022-09-06T06:14:23.416Z</time>
      </trkpt>
      <trkpt lat="45.6815" lon="5.65305">
        <ele>299</ele>
        <time>2022-09-06T06:14:24.416Z</time>
      </trkpt>
      <trkpt lat="45.68156" lon="5.65308">
        <ele>299</ele>
        <time>2022-09-06T06:14:25.416Z</time>
      </trkpt>
      <trkpt lat="45.68163" lon="5.65312">
        <ele>299</ele>
        <time>2022-09-06T06:14:26.416Z</time>
      </trkpt>
      <trkpt lat="45.68169" lon="5.65316">
        <ele>299</ele>
        <time>2022-09-06T06:14:27.416Z</time>
      </trkpt>
      <trkpt lat="45.68175" lon="5.6532">
        <ele>299</ele>
        <time>2022-09-06T06:14:28.415Z</time>
      </trkpt>
      <trkpt lat="45.68182" lon="5.65324">
        <ele>299</ele>
        <time>2022-09-06T06:14:29.415Z</time>
      </trkpt>
      <trkpt lat="45.68188" lon="5.65328">
        <ele>299</ele>
        <time>2022-09-06T06:14:30.415Z</time>
      </trkpt>
      <trkpt lat="45.68195" lon="5.65332">
        <ele>299</ele>
        <time>2022-09-06T06:14:31.415Z</time>
      </trkpt>
      <trkpt lat="45.68201" lon="5.65336">
        <ele>299</ele>
        <time>2022-09-06T06:14:32.415Z</time>
      </trkpt>
      <trkpt lat="45.68208" lon="5.6534">
        <ele>299</ele>
        <time>2022-09-06T06:14:33.416Z</time>
      </trkpt>
      <trkpt lat="45.68214" lon="5.65344">
        <ele>299</ele>
        <time>2022-09-06T06:14:34.416Z</time>
      </trkpt>
      <trkpt lat="45.68221" lon="5.65348">
        <ele>300</ele>
        <time>2022-09-06T06:14:35.416Z</time>
      </trkpt>
      <trkpt lat="45.68227" lon="5.65352">
        <ele>300</ele>
        <time>2022-09-06T06:14:36.415Z</time>
      </trkpt>
      <trkpt lat="45.68234" lon="5.65355">
        <ele>300</ele>
        <time>2022-09-06T06:14:37.415Z</time>
      </trkpt>
      <trkpt lat="45.6824" lon="5.65359">
        <ele>300</ele>
        <time>2022-09-06T06:14:38.416Z</time>
      </trkpt>
      <trkpt lat="45.68247" lon="5.65363">
        <ele>300</ele>
        <time>2022-09-06T06:14:39.416Z</time>
      </trkpt>
      <trkpt lat="45.68253" lon="5.65367">
        <ele>299</ele>
        <time>2022-09-06T06:14:40.416Z</time>
      </trkpt>
      <trkpt lat="45.6826" lon="5.65371">
        <ele>299</ele>
        <time>2022-09-06T06:14:41.416Z</time>
      </trkpt>
      <trkpt lat="45.68266" lon="5.65375">
        <ele>298</ele>
        <time>2022-09-06T06:14:42.416Z</time>
      </trkpt>
      <trkpt lat="45.68273" lon="5.65379">
        <ele>298</ele>
        <time>2022-09-06T06:14:43.416Z</time>
      </trkpt>
      <trkpt lat="45.6828" lon="5.65383">
        <ele>298</ele>
        <time>2022-09-06T06:14:44.416Z</time>
      </trkpt>
      <trkpt lat="45.68286" lon="5.65387">
        <ele>298</ele>
        <time>2022-09-06T06:14:45.416Z</time>
      </trkpt>
      <trkpt lat="45.68293" lon="5.65391">
        <ele>298</ele>
        <time>2022-09-06T06:14:46.416Z</time>
      </trkpt>
      <trkpt lat="45.68299" lon="5.65395">
        <ele>298</ele>
        <time>2022-09-06T06:14:47.416Z</time>
      </trkpt>
      <trkpt lat="45.68306" lon="5.65399">
        <ele>299</ele>
        <time>2022-09-06T06:14:48.415Z</time>
      </trkpt>
      <trkpt lat="45.68313" lon="5.65403">
        <ele>299</ele>
        <time>2022-09-06T06:14:49.416Z</time>
      </trkpt>
      <trkpt lat="45.6832" lon="5.65406">
        <ele>300</ele>
        <time>2022-09-06T06:14:50.415Z</time>
      </trkpt>
      <trkpt lat="45.68326" lon="5.6541">
        <ele>300</ele>
        <time>2022-09-06T06:14:51.416Z</time>
      </trkpt>
      <trkpt lat="45.68333" lon="5.65413">
        <ele>301</ele>
        <time>2022-09-06T06:14:52.416Z</time>
      </trkpt>
      <trkpt lat="45.6834" lon="5.65417">
        <ele>301</ele>
        <time>2022-09-06T06:14:53.415Z</time>
      </trkpt>
      <trkpt lat="45.68347" lon="5.65419">
        <ele>301</ele>
        <time>2022-09-06T06:14:54.416Z</time>
      </trkpt>
      <trkpt lat="45.68354" lon="5.65422">
        <ele>301</ele>
        <time>2022-09-06T06:14:55.416Z</time>
      </trkpt>
      <trkpt lat="45.68361" lon="5.65424">
        <ele>301</ele>
        <time>2022-09-06T06:14:56.416Z</time>
      </trkpt>
      <trkpt lat="45.68368" lon="5.65426">
        <ele>302</ele>
        <time>2022-09-06T06:14:57.415Z</time>
      </trkpt>
      <trkpt lat="45.68375" lon="5.65428">
        <ele>302</ele>
        <time>2022-09-06T06:14:58.416Z</time>
      </trkpt>
      <trkpt lat="45.68382" lon="5.6543">
        <ele>303</ele>
        <time>2022-09-06T06:14:59.416Z</time>
      </trkpt>
      <trkpt lat="45.68389" lon="5.65431">
        <ele>303</ele>
        <time>2022-09-06T06:15:00.416Z</time>
      </trkpt>
      <trkpt lat="45.68397" lon="5.65432">
        <ele>303</ele>
        <time>2022-09-06T06:15:01.416Z</time>
      </trkpt>
      <trkpt lat="45.68404" lon="5.65433">
        <ele>303</ele>
        <time>2022-09-06T06:15:02.416Z</time>
      </trkpt>
      <trkpt lat="45.68411" lon="5.65434">
        <ele>303</ele>
        <time>2022-09-06T06:15:03.416Z</time>
      </trkpt>
      <trkpt lat="45.68419" lon="5.65435">
        <ele>303</ele>
        <time>2022-09-06T06:15:04.415Z</time>
      </trkpt>
      <trkpt lat="45.68426" lon="5.65436">
        <ele>303</ele>
        <time>2022-09-06T06:15:05.416Z</time>
      </trkpt>
      <trkpt lat="45.68434" lon="5.65437">
        <ele>303</ele>
        <time>2022-09-06T06:15:06.416Z</time>
      </trkpt>
      <trkpt lat="45.68441" lon="5.65438">
        <ele>303</ele>
        <time>2022-09-06T06:15:07.416Z</time>
      </trkpt>
      <trkpt lat="45.68448" lon="5.65438">
        <ele>302</ele>
        <time>2022-09-06T06:15:08.416Z</time>
      </trkpt>
      <trkpt lat="45.68456" lon="5.65439">
        <ele>302</ele>
        <time>2022-09-06T06:15:09.415Z</time>
      </trkpt>
      <trkpt lat="45.68463" lon="5.6544">
        <ele>302</ele>
        <time>2022-09-06T06:15:10.416Z</time>
      </trkpt>
      <trkpt lat="45.6847" lon="5.65441">
        <ele>301</ele>
        <time>2022-09-06T06:15:11.416Z</time>
      </trkpt>
      <trkpt lat="45.68478" lon="5.65442">
        <ele>301</ele>
        <time>2022-09-06T06:15:12.416Z</time>
      </trkpt>
      <trkpt lat="45.68485" lon="5.65442">
        <ele>301</ele>
        <time>2022-09-06T06:15:13.416Z</time>
      </trkpt>
      <trkpt lat="45.68494" lon="5.65443">
        <ele>301</ele>
        <time>2022-09-06T06:15:14.416Z</time>
      </trkpt>
      <trkpt lat="45.685" lon="5.65444">
        <ele>301</ele>
        <time>2022-09-06T06:15:15.415Z</time>
      </trkpt>
      <trkpt lat="45.68509" lon="5.65445">
        <ele>302</ele>
        <time>2022-09-06T06:15:16.416Z</time>
      </trkpt>
      <trkpt lat="45.68516" lon="5.65445">
        <ele>302</ele>
        <time>2022-09-06T06:15:17.416Z</time>
      </trkpt>
      <trkpt lat="45.68524" lon="5.65446">
        <ele>303</ele>
        <time>2022-09-06T06:15:18.416Z</time>
      </trkpt>
      <trkpt lat="45.68532" lon="5.65447">
        <ele>303</ele>
        <time>2022-09-06T06:15:19.416Z</time>
      </trkpt>
      <trkpt lat="45.68539" lon="5.65448">
        <ele>304</ele>
        <time>2022-09-06T06:15:20.416Z</time>
      </trkpt>
      <trkpt lat="45.68546" lon="5.65448">
        <ele>304</ele>
        <time>2022-09-06T06:15:21.416Z</time>
      </trkpt>
      <trkpt lat="45.68552" lon="5.65449">
        <ele>305</ele>
        <time>2022-09-06T06:15:22.415Z</time>
      </trkpt>
      <trkpt lat="45.6856" lon="5.6545">
        <ele>305</ele>
        <time>2022-09-06T06:15:23.416Z</time>
      </trkpt>
      <trkpt lat="45.68567" lon="5.6545">
        <ele>305</ele>
        <time>2022-09-06T06:15:24.415Z</time>
      </trkpt>
      <trkpt lat="45.68575" lon="5.65451">
        <ele>305</ele>
        <time>2022-09-06T06:15:25.416Z</time>
      </trkpt>
      <trkpt lat="45.68582" lon="5.65452">
        <ele>305</ele>
        <time>2022-09-06T06:15:26.416Z</time>
      </trkpt>
      <trkpt lat="45.6859" lon="5.65453">
        <ele>305</ele>
        <time>2022-09-06T06:15:27.415Z</time>
      </trkpt>
      <trkpt lat="45.68597" lon="5.65454">
        <ele>305</ele>
        <time>2022-09-06T06:15:28.415Z</time>
      </trkpt>
      <trkpt lat="45.68605" lon="5.65454">
        <ele>305</ele>
        <time>2022-09-06T06:15:29.416Z</time>
      </trkpt>
      <trkpt lat="45.68612" lon="5.65455">
        <ele>305</ele>
        <time>2022-09-06T06:15:30.416Z</time>
      </trkpt>
      <trkpt lat="45.6862" lon="5.65456">
        <ele>305</ele>
        <time>2022-09-06T06:15:31.416Z</time>
      </trkpt>
      <trkpt lat="45.68629" lon="5.65457">
        <ele>305</ele>
        <time>2022-09-06T06:15:32.416Z</time>
      </trkpt>
      <trkpt lat="45.68635" lon="5.65457">
        <ele>305</ele>
        <time>2022-09-06T06:15:33.416Z</time>
      </trkpt>
      <trkpt lat="45.68642" lon="5.65458">
        <ele>305</ele>
        <time>2022-09-06T06:15:34.416Z</time>
      </trkpt>
      <trkpt lat="45.68651" lon="5.65459">
        <ele>305</ele>
        <time>2022-09-06T06:15:35.416Z</time>
      </trkpt>
      <trkpt lat="45.68658" lon="5.6546">
        <ele>305</ele>
        <time>2022-09-06T06:15:36.416Z</time>
      </trkpt>
      <trkpt lat="45.68666" lon="5.65461">
        <ele>305</ele>
        <time>2022-09-06T06:15:37.415Z</time>
      </trkpt>
      <trkpt lat="45.68673" lon="5.65462">
        <ele>305</ele>
        <time>2022-09-06T06:15:38.415Z</time>
      </trkpt>
      <trkpt lat="45.68679" lon="5.65462">
        <ele>305</ele>
        <time>2022-09-06T06:15:39.415Z</time>
      </trkpt>
      <trkpt lat="45.68688" lon="5.65463">
        <ele>305</ele>
        <time>2022-09-06T06:15:40.416Z</time>
      </trkpt>
      <trkpt lat="45.68695" lon="5.65464">
        <ele>305</ele>
        <time>2022-09-06T06:15:41.416Z</time>
      </trkpt>
      <trkpt lat="45.68702" lon="5.65465">
        <ele>305</ele>
        <time>2022-09-06T06:15:42.416Z</time>
      </trkpt>
      <trkpt lat="45.68709" lon="5.65466">
        <ele>305</ele>
        <time>2022-09-06T06:15:43.416Z</time>
      </trkpt>
      <trkpt lat="45.68716" lon="5.65466">
        <ele>304</ele>
        <time>2022-09-06T06:15:44.415Z</time>
      </trkpt>
      <trkpt lat="45.68723" lon="5.65467">
        <ele>304</ele>
        <time>2022-09-06T06:15:45.416Z</time>
      </trkpt>
      <trkpt lat="45.68731" lon="5.65468">
        <ele>305</ele>
        <time>2022-09-06T06:15:46.415Z</time>
      </trkpt>
      <trkpt lat="45.68736" lon="5.65469">
        <ele>305</ele>
        <time>2022-09-06T06:15:47.416Z</time>
      </trkpt>
      <trkpt lat="45.68743" lon="5.6547">
        <ele>305</ele>
        <time>2022-09-06T06:15:48.415Z</time>
      </trkpt>
      <trkpt lat="45.68752" lon="5.6547">
        <ele>305</ele>
        <time>2022-09-06T06:15:49.416Z</time>
      </trkpt>
      <trkpt lat="45.68758" lon="5.65471">
        <ele>305</ele>
        <time>2022-09-06T06:15:50.415Z</time>
      </trkpt>
      <trkpt lat="45.68765" lon="5.65471">
        <ele>305</ele>
        <time>2022-09-06T06:15:51.415Z</time>
      </trkpt>
      <trkpt lat="45.68772" lon="5.65472">
        <ele>305</ele>
        <time>2022-09-06T06:15:52.416Z</time>
      </trkpt>
      <trkpt lat="45.68779" lon="5.65472">
        <ele>305</ele>
        <time>2022-09-06T06:15:53.415Z</time>
      </trkpt>
      <trkpt lat="45.68786" lon="5.65472">
        <ele>305</ele>
        <time>2022-09-06T06:15:54.416Z</time>
      </trkpt>
      <trkpt lat="45.68793" lon="5.65471">
        <ele>305</ele>
        <time>2022-09-06T06:15:55.416Z</time>
      </trkpt>
      <trkpt lat="45.688" lon="5.65471">
        <ele>306</ele>
        <time>2022-09-06T06:15:56.416Z</time>
      </trkpt>
      <trkpt lat="45.68805" lon="5.65471">
        <ele>307</ele>
        <time>2022-09-06T06:15:57.415Z</time>
      </trkpt>
      <trkpt lat="45.68812" lon="5.65469">
        <ele>308</ele>
        <time>2022-09-06T06:15:58.416Z</time>
      </trkpt>
      <trkpt lat="45.68821" lon="5.65467">
        <ele>309</ele>
        <time>2022-09-06T06:15:59.416Z</time>
      </trkpt>
      <trkpt lat="45.68827" lon="5.65466">
        <ele>309</ele>
        <time>2022-09-06T06:16:00.415Z</time>
      </trkpt>
      <trkpt lat="45.68834" lon="5.65466">
        <ele>309</ele>
        <time>2022-09-06T06:16:01.416Z</time>
      </trkpt>
      <trkpt lat="45.6884" lon="5.65465">
        <ele>309</ele>
        <time>2022-09-06T06:16:02.416Z</time>
      </trkpt>
      <trkpt lat="45.68846" lon="5.65464">
        <ele>309</ele>
        <time>2022-09-06T06:16:03.416Z</time>
      </trkpt>
      <trkpt lat="45.68854" lon="5.65463">
        <ele>310</ele>
        <time>2022-09-06T06:16:04.415Z</time>
      </trkpt>
      <trkpt lat="45.6886" lon="5.65462">
        <ele>310</ele>
        <time>2022-09-06T06:16:05.416Z</time>
      </trkpt>
      <trkpt lat="45.68867" lon="5.65461">
        <ele>310</ele>
        <time>2022-09-06T06:16:06.416Z</time>
      </trkpt>
      <trkpt lat="45.68874" lon="5.6546">
        <ele>311</ele>
        <time>2022-09-06T06:16:07.416Z</time>
      </trkpt>
      <trkpt lat="45.68881" lon="5.65459">
        <ele>311</ele>
        <time>2022-09-06T06:16:08.416Z</time>
      </trkpt>
      <trkpt lat="45.68888" lon="5.65457">
        <ele>311</ele>
        <time>2022-09-06T06:16:09.416Z</time>
      </trkpt>
      <trkpt lat="45.68895" lon="5.65455">
        <ele>311</ele>
        <time>2022-09-06T06:16:10.416Z</time>
      </trkpt>
      <trkpt lat="45.68902" lon="5.65454">
        <ele>312</ele>
        <time>2022-09-06T06:16:11.416Z</time>
      </trkpt>
      <trkpt lat="45.68907" lon="5.65452">
        <ele>312</ele>
        <time>2022-09-06T06:16:12.416Z</time>
      </trkpt>
      <trkpt lat="45.68914" lon="5.65451">
        <ele>312</ele>
        <time>2022-09-06T06:16:13.415Z</time>
      </trkpt>
      <trkpt lat="45.68922" lon="5.65449">
        <ele>312</ele>
        <time>2022-09-06T06:16:14.416Z</time>
      </trkpt>
      <trkpt lat="45.6893" lon="5.65447">
        <ele>312</ele>
        <time>2022-09-06T06:16:15.416Z</time>
      </trkpt>
      <trkpt lat="45.68937" lon="5.65446">
        <ele>312</ele>
        <time>2022-09-06T06:16:16.416Z</time>
      </trkpt>
      <trkpt lat="45.68943" lon="5.65445">
        <ele>312</ele>
        <time>2022-09-06T06:16:17.416Z</time>
      </trkpt>
      <trkpt lat="45.6895" lon="5.65444">
        <ele>312</ele>
        <time>2022-09-06T06:16:18.416Z</time>
      </trkpt>
      <trkpt lat="45.68959" lon="5.65442">
        <ele>311</ele>
        <time>2022-09-06T06:16:19.416Z</time>
      </trkpt>
      <trkpt lat="45.68966" lon="5.65441">
        <ele>311</ele>
        <time>2022-09-06T06:16:20.416Z</time>
      </trkpt>
      <trkpt lat="45.68973" lon="5.65439">
        <ele>310</ele>
        <time>2022-09-06T06:16:21.416Z</time>
      </trkpt>
      <trkpt lat="45.68979" lon="5.65438">
        <ele>310</ele>
        <time>2022-09-06T06:16:22.415Z</time>
      </trkpt>
      <trkpt lat="45.68988" lon="5.65436">
        <ele>310</ele>
        <time>2022-09-06T06:16:23.416Z</time>
      </trkpt>
      <trkpt lat="45.68995" lon="5.65435">
        <ele>311</ele>
        <time>2022-09-06T06:16:24.416Z</time>
      </trkpt>
      <trkpt lat="45.69002" lon="5.65434">
        <ele>311</ele>
        <time>2022-09-06T06:16:25.416Z</time>
      </trkpt>
      <trkpt lat="45.69009" lon="5.65432">
        <ele>311</ele>
        <time>2022-09-06T06:16:26.416Z</time>
      </trkpt>
      <trkpt lat="45.69016" lon="5.65431">
        <ele>310</ele>
        <time>2022-09-06T06:16:27.416Z</time>
      </trkpt>
      <trkpt lat="45.69023" lon="5.65429">
        <ele>310</ele>
        <time>2022-09-06T06:16:28.416Z</time>
      </trkpt>
      <trkpt lat="45.69031" lon="5.65428">
        <ele>311</ele>
        <time>2022-09-06T06:16:29.416Z</time>
      </trkpt>
      <trkpt lat="45.69038" lon="5.65426">
        <ele>311</ele>
        <time>2022-09-06T06:16:30.416Z</time>
      </trkpt>
      <trkpt lat="45.69045" lon="5.65425">
        <ele>311</ele>
        <time>2022-09-06T06:16:31.416Z</time>
      </trkpt>
      <trkpt lat="45.69051" lon="5.65424">
        <ele>311</ele>
        <time>2022-09-06T06:16:32.416Z</time>
      </trkpt>
      <trkpt lat="45.69058" lon="5.65422">
        <ele>311</ele>
        <time>2022-09-06T06:16:33.415Z</time>
      </trkpt>
      <trkpt lat="45.69065" lon="5.65421">
        <ele>311</ele>
        <time>2022-09-06T06:16:34.416Z</time>
      </trkpt>
      <trkpt lat="45.69071" lon="5.6542">
        <ele>311</ele>
        <time>2022-09-06T06:16:35.416Z</time>
      </trkpt>
      <trkpt lat="45.69078" lon="5.65419">
        <ele>311</ele>
        <time>2022-09-06T06:16:36.416Z</time>
      </trkpt>
      <trkpt lat="45.69083" lon="5.65418">
        <ele>310</ele>
        <time>2022-09-06T06:16:37.416Z</time>
      </trkpt>
      <trkpt lat="45.69092" lon="5.65417">
        <ele>310</ele>
        <time>2022-09-06T06:16:38.415Z</time>
      </trkpt>
      <trkpt lat="45.69099" lon="5.65415">
        <ele>310</ele>
        <time>2022-09-06T06:16:39.416Z</time>
      </trkpt>
      <trkpt lat="45.69105" lon="5.65414">
        <ele>310</ele>
        <time>2022-09-06T06:16:40.416Z</time>
      </trkpt>
      <trkpt lat="45.69112" lon="5.65413">
        <ele>310</ele>
        <time>2022-09-06T06:16:41.416Z</time>
      </trkpt>
      <trkpt lat="45.69118" lon="5.65412">
        <ele>311</ele>
        <time>2022-09-06T06:16:42.416Z</time>
      </trkpt>
      <trkpt lat="45.69126" lon="5.65411">
        <ele>311</ele>
        <time>2022-09-06T06:16:43.416Z</time>
      </trkpt>
      <trkpt lat="45.69133" lon="5.6541">
        <ele>311</ele>
        <time>2022-09-06T06:16:44.416Z</time>
      </trkpt>
      <trkpt lat="45.6914" lon="5.65409">
        <ele>311</ele>
        <time>2022-09-06T06:16:45.416Z</time>
      </trkpt>
      <trkpt lat="45.69147" lon="5.65409">
        <ele>311</ele>
        <time>2022-09-06T06:16:46.416Z</time>
      </trkpt>
      <trkpt lat="45.69154" lon="5.65408">
        <ele>311</ele>
        <time>2022-09-06T06:16:47.416Z</time>
      </trkpt>
      <trkpt lat="45.69161" lon="5.65407">
        <ele>311</ele>
        <time>2022-09-06T06:16:48.416Z</time>
      </trkpt>
      <trkpt lat="45.69168" lon="5.65406">
        <ele>311</ele>
        <time>2022-09-06T06:16:49.416Z</time>
      </trkpt>
      <trkpt lat="45.69175" lon="5.65406">
        <ele>310</ele>
        <time>2022-09-06T06:16:50.416Z</time>
      </trkpt>
      <trkpt lat="45.69181" lon="5.65405">
        <ele>310</ele>
        <time>2022-09-06T06:16:51.415Z</time>
      </trkpt>
      <trkpt lat="45.69189" lon="5.65403">
        <ele>311</ele>
        <time>2022-09-06T06:16:52.416Z</time>
      </trkpt>
      <trkpt lat="45.69196" lon="5.65402">
        <ele>311</ele>
        <time>2022-09-06T06:16:53.416Z</time>
      </trkpt>
      <trkpt lat="45.69204" lon="5.65401">
        <ele>311</ele>
        <time>2022-09-06T06:16:54.415Z</time>
      </trkpt>
      <trkpt lat="45.69211" lon="5.654">
        <ele>311</ele>
        <time>2022-09-06T06:16:55.416Z</time>
      </trkpt>
      <trkpt lat="45.69217" lon="5.65398">
        <ele>311</ele>
        <time>2022-09-06T06:16:56.416Z</time>
      </trkpt>
      <trkpt lat="45.69226" lon="5.65396">
        <ele>311</ele>
        <time>2022-09-06T06:16:57.416Z</time>
      </trkpt>
      <trkpt lat="45.69233" lon="5.65394">
        <ele>311</ele>
        <time>2022-09-06T06:16:58.415Z</time>
      </trkpt>
      <trkpt lat="45.6924" lon="5.65392">
        <ele>311</ele>
        <time>2022-09-06T06:16:59.415Z</time>
      </trkpt>
      <trkpt lat="45.69247" lon="5.65389">
        <ele>312</ele>
        <time>2022-09-06T06:17:00.416Z</time>
      </trkpt>
      <trkpt lat="45.69253" lon="5.65387">
        <ele>312</ele>
        <time>2022-09-06T06:17:01.416Z</time>
      </trkpt>
      <trkpt lat="45.69262" lon="5.65384">
        <ele>311</ele>
        <time>2022-09-06T06:17:02.416Z</time>
      </trkpt>
      <trkpt lat="45.69269" lon="5.6538">
        <ele>311</ele>
        <time>2022-09-06T06:17:03.416Z</time>
      </trkpt>
      <trkpt lat="45.69276" lon="5.65377">
        <ele>311</ele>
        <time>2022-09-06T06:17:04.416Z</time>
      </trkpt>
      <trkpt lat="45.69283" lon="5.65373">
        <ele>311</ele>
        <time>2022-09-06T06:17:05.416Z</time>
      </trkpt>
      <trkpt lat="45.69288" lon="5.65371">
        <ele>310</ele>
        <time>2022-09-06T06:17:06.416Z</time>
      </trkpt>
      <trkpt lat="45.69297" lon="5.65367">
        <ele>310</ele>
        <time>2022-09-06T06:17:07.416Z</time>
      </trkpt>
      <trkpt lat="45.69304" lon="5.65363">
        <ele>310</ele>
        <time>2022-09-06T06:17:08.416Z</time>
      </trkpt>
      <trkpt lat="45.69311" lon="5.6536">
        <ele>310</ele>
        <time>2022-09-06T06:17:09.416Z</time>
      </trkpt>
      <trkpt lat="45.69318" lon="5.65356">
        <ele>310</ele>
        <time>2022-09-06T06:17:10.416Z</time>
      </trkpt>
      <trkpt lat="45.69325" lon="5.65352">
        <ele>310</ele>
        <time>2022-09-06T06:17:11.416Z</time>
      </trkpt>
      <trkpt lat="45.6933" lon="5.6535">
        <ele>309</ele>
        <time>2022-09-06T06:17:12.415Z</time>
      </trkpt>
      <trkpt lat="45.69339" lon="5.65345">
        <ele>309</ele>
        <time>2022-09-06T06:17:13.416Z</time>
      </trkpt>
      <trkpt lat="45.69345" lon="5.65342">
        <ele>308</ele>
        <time>2022-09-06T06:17:14.416Z</time>
      </trkpt>
      <trkpt lat="45.69352" lon="5.65339">
        <ele>308</ele>
        <time>2022-09-06T06:17:15.416Z</time>
      </trkpt>
      <trkpt lat="45.69357" lon="5.65336">
        <ele>308</ele>
        <time>2022-09-06T06:17:16.415Z</time>
      </trkpt>
      <trkpt lat="45.69364" lon="5.65332">
        <ele>309</ele>
        <time>2022-09-06T06:17:17.416Z</time>
      </trkpt>
      <trkpt lat="45.69371" lon="5.65328">
        <ele>310</ele>
        <time>2022-09-06T06:17:18.416Z</time>
      </trkpt>
      <trkpt lat="45.69378" lon="5.65324">
        <ele>310</ele>
        <time>2022-09-06T06:17:19.416Z</time>
      </trkpt>
      <trkpt lat="45.69385" lon="5.65321">
        <ele>310</ele>
        <time>2022-09-06T06:17:20.416Z</time>
      </trkpt>
      <trkpt lat="45.69391" lon="5.65317">
        <ele>309</ele>
        <time>2022-09-06T06:17:21.416Z</time>
      </trkpt>
      <trkpt lat="45.69398" lon="5.65314">
        <ele>309</ele>
        <time>2022-09-06T06:17:22.416Z</time>
      </trkpt>
      <trkpt lat="45.69404" lon="5.6531">
        <ele>310</ele>
        <time>2022-09-06T06:17:23.416Z</time>
      </trkpt>
      <trkpt lat="45.69411" lon="5.65306">
        <ele>310</ele>
        <time>2022-09-06T06:17:24.415Z</time>
      </trkpt>
      <trkpt lat="45.69417" lon="5.65303">
        <ele>310</ele>
        <time>2022-09-06T06:17:25.415Z</time>
      </trkpt>
      <trkpt lat="45.69424" lon="5.653">
        <ele>310</ele>
        <time>2022-09-06T06:17:26.416Z</time>
      </trkpt>
      <trkpt lat="45.69429" lon="5.65297">
        <ele>309</ele>
        <time>2022-09-06T06:17:27.416Z</time>
      </trkpt>
      <trkpt lat="45.69437" lon="5.65293">
        <ele>309</ele>
        <time>2022-09-06T06:17:28.415Z</time>
      </trkpt>
      <trkpt lat="45.69443" lon="5.65289">
        <ele>308</ele>
        <time>2022-09-06T06:17:29.416Z</time>
      </trkpt>
      <trkpt lat="45.6945" lon="5.65286">
        <ele>308</ele>
        <time>2022-09-06T06:17:30.416Z</time>
      </trkpt>
      <trkpt lat="45.69455" lon="5.65283">
        <ele>308</ele>
        <time>2022-09-06T06:17:31.415Z</time>
      </trkpt>
      <trkpt lat="45.69463" lon="5.65279">
        <ele>308</ele>
        <time>2022-09-06T06:17:32.415Z</time>
      </trkpt>
      <trkpt lat="45.69469" lon="5.65276">
        <ele>307</ele>
        <time>2022-09-06T06:17:33.416Z</time>
      </trkpt>
      <trkpt lat="45.69475" lon="5.65272">
        <ele>307</ele>
        <time>2022-09-06T06:17:34.415Z</time>
      </trkpt>
      <trkpt lat="45.69481" lon="5.65269">
        <ele>307</ele>
        <time>2022-09-06T06:17:35.415Z</time>
      </trkpt>
      <trkpt lat="45.69487" lon="5.65266">
        <ele>308</ele>
        <time>2022-09-06T06:17:36.416Z</time>
      </trkpt>
      <trkpt lat="45.69494" lon="5.65262">
        <ele>308</ele>
        <time>2022-09-06T06:17:37.416Z</time>
      </trkpt>
      <trkpt lat="45.69501" lon="5.65258">
        <ele>308</ele>
        <time>2022-09-06T06:17:38.416Z</time>
      </trkpt>
      <trkpt lat="45.69507" lon="5.65254">
        <ele>309</ele>
        <time>2022-09-06T06:17:39.416Z</time>
      </trkpt>
      <trkpt lat="45.69512" lon="5.6525">
        <ele>309</ele>
        <time>2022-09-06T06:17:40.416Z</time>
      </trkpt>
      <trkpt lat="45.69518" lon="5.65246">
        <ele>309</ele>
        <time>2022-09-06T06:17:41.416Z</time>
      </trkpt>
      <trkpt lat="45.69526" lon="5.65241">
        <ele>309</ele>
        <time>2022-09-06T06:17:42.415Z</time>
      </trkpt>
      <trkpt lat="45.69532" lon="5.65236">
        <ele>309</ele>
        <time>2022-09-06T06:17:43.415Z</time>
      </trkpt>
      <trkpt lat="45.69538" lon="5.6523">
        <ele>310</ele>
        <time>2022-09-06T06:17:44.416Z</time>
      </trkpt>
      <trkpt lat="45.69544" lon="5.65225">
        <ele>310</ele>
        <time>2022-09-06T06:17:45.416Z</time>
      </trkpt>
      <trkpt lat="45.69549" lon="5.65221">
        <ele>310</ele>
        <time>2022-09-06T06:17:46.416Z</time>
      </trkpt>
      <trkpt lat="45.69556" lon="5.65214">
        <ele>310</ele>
        <time>2022-09-06T06:17:47.416Z</time>
      </trkpt>
      <trkpt lat="45.69563" lon="5.65208">
        <ele>310</ele>
        <time>2022-09-06T06:17:48.416Z</time>
      </trkpt>
      <trkpt lat="45.69569" lon="5.65203">
        <ele>310</ele>
        <time>2022-09-06T06:17:49.416Z</time>
      </trkpt>
      <trkpt lat="45.69574" lon="5.65198">
        <ele>310</ele>
        <time>2022-09-06T06:17:50.416Z</time>
      </trkpt>
      <trkpt lat="45.69581" lon="5.65193">
        <ele>310</ele>
        <time>2022-09-06T06:17:51.416Z</time>
      </trkpt>
      <trkpt lat="45.69589" lon="5.65186">
        <ele>310</ele>
        <time>2022-09-06T06:17:52.416Z</time>
      </trkpt>
      <trkpt lat="45.69595" lon="5.65181">
        <ele>310</ele>
        <time>2022-09-06T06:17:53.416Z</time>
      </trkpt>
      <trkpt lat="45.69602" lon="5.65176">
        <ele>310</ele>
        <time>2022-09-06T06:17:54.415Z</time>
      </trkpt>
      <trkpt lat="45.69609" lon="5.65171">
        <ele>310</ele>
        <time>2022-09-06T06:17:55.416Z</time>
      </trkpt>
      <trkpt lat="45.69617" lon="5.65166">
        <ele>310</ele>
        <time>2022-09-06T06:17:56.416Z</time>
      </trkpt>
      <trkpt lat="45.69624" lon="5.65161">
        <ele>311</ele>
        <time>2022-09-06T06:17:57.415Z</time>
      </trkpt>
      <trkpt lat="45.69631" lon="5.65158">
        <ele>311</ele>
        <time>2022-09-06T06:17:58.416Z</time>
      </trkpt>
      <trkpt lat="45.69639" lon="5.65154">
        <ele>311</ele>
        <time>2022-09-06T06:17:59.415Z</time>
      </trkpt>
      <trkpt lat="45.69644" lon="5.65152">
        <ele>311</ele>
        <time>2022-09-06T06:18:00.416Z</time>
      </trkpt>
      <trkpt lat="45.69651" lon="5.65148">
        <ele>311</ele>
        <time>2022-09-06T06:18:01.416Z</time>
      </trkpt>
      <trkpt lat="45.69659" lon="5.65144">
        <ele>311</ele>
        <time>2022-09-06T06:18:02.415Z</time>
      </trkpt>
      <trkpt lat="45.69667" lon="5.65141">
        <ele>312</ele>
        <time>2022-09-06T06:18:03.416Z</time>
      </trkpt>
      <trkpt lat="45.69674" lon="5.65138">
        <ele>312</ele>
        <time>2022-09-06T06:18:04.416Z</time>
      </trkpt>
      <trkpt lat="45.69679" lon="5.65135">
        <ele>313</ele>
        <time>2022-09-06T06:18:05.416Z</time>
      </trkpt>
      <trkpt lat="45.69686" lon="5.65131">
        <ele>313</ele>
        <time>2022-09-06T06:18:06.416Z</time>
      </trkpt>
      <trkpt lat="45.69695" lon="5.65127">
        <ele>314</ele>
        <time>2022-09-06T06:18:07.416Z</time>
      </trkpt>
      <trkpt lat="45.69702" lon="5.65124">
        <ele>314</ele>
        <time>2022-09-06T06:18:08.416Z</time>
      </trkpt>
      <trkpt lat="45.69709" lon="5.65121">
        <ele>314</ele>
        <time>2022-09-06T06:18:09.415Z</time>
      </trkpt>
      <trkpt lat="45.69715" lon="5.65118">
        <ele>315</ele>
        <time>2022-09-06T06:18:10.415Z</time>
      </trkpt>
      <trkpt lat="45.69722" lon="5.65114">
        <ele>315</ele>
        <time>2022-09-06T06:18:11.416Z</time>
      </trkpt>
      <trkpt lat="45.6973" lon="5.6511">
        <ele>314</ele>
        <time>2022-09-06T06:18:12.416Z</time>
      </trkpt>
      <trkpt lat="45.69736" lon="5.65107">
        <ele>314</ele>
        <time>2022-09-06T06:18:13.416Z</time>
      </trkpt>
      <trkpt lat="45.69743" lon="5.65103">
        <ele>313</ele>
        <time>2022-09-06T06:18:14.415Z</time>
      </trkpt>
      <trkpt lat="45.69749" lon="5.65099">
        <ele>313</ele>
        <time>2022-09-06T06:18:15.415Z</time>
      </trkpt>
      <trkpt lat="45.69755" lon="5.65095">
        <ele>312</ele>
        <time>2022-09-06T06:18:16.416Z</time>
      </trkpt>
      <trkpt lat="45.69761" lon="5.65091">
        <ele>312</ele>
        <time>2022-09-06T06:18:17.416Z</time>
      </trkpt>
      <trkpt lat="45.69766" lon="5.65087">
        <ele>312</ele>
        <time>2022-09-06T06:18:18.415Z</time>
      </trkpt>
      <trkpt lat="45.69771" lon="5.65082">
        <ele>312</ele>
        <time>2022-09-06T06:18:19.415Z</time>
      </trkpt>
      <trkpt lat="45.69777" lon="5.65076">
        <ele>312</ele>
        <time>2022-09-06T06:18:20.416Z</time>
      </trkpt>
      <trkpt lat="45.69781" lon="5.65072">
        <ele>312</ele>
        <time>2022-09-06T06:18:21.416Z</time>
      </trkpt>
      <trkpt lat="45.69787" lon="5.65066">
        <ele>312</ele>
        <time>2022-09-06T06:18:22.415Z</time>
      </trkpt>
      <trkpt lat="45.69792" lon="5.65061">
        <ele>312</ele>
        <time>2022-09-06T06:18:23.415Z</time>
      </trkpt>
      <trkpt lat="45.69797" lon="5.65056">
        <ele>312</ele>
        <time>2022-09-06T06:18:24.415Z</time>
      </trkpt>
      <trkpt lat="45.69803" lon="5.65051">
        <ele>312</ele>
        <time>2022-09-06T06:18:25.416Z</time>
      </trkpt>
      <trkpt lat="45.69808" lon="5.65046">
        <ele>312</ele>
        <time>2022-09-06T06:18:26.416Z</time>
      </trkpt>
      <trkpt lat="45.69813" lon="5.65041">
        <ele>311</ele>
        <time>2022-09-06T06:18:27.416Z</time>
      </trkpt>
      <trkpt lat="45.69818" lon="5.65036">
        <ele>311</ele>
        <time>2022-09-06T06:18:28.415Z</time>
      </trkpt>
      <trkpt lat="45.69824" lon="5.65032">
        <ele>311</ele>
        <time>2022-09-06T06:18:29.416Z</time>
      </trkpt>
      <trkpt lat="45.69829" lon="5.65027">
        <ele>311</ele>
        <time>2022-09-06T06:18:30.416Z</time>
      </trkpt>
      <trkpt lat="45.69834" lon="5.65024">
        <ele>311</ele>
        <time>2022-09-06T06:18:31.416Z</time>
      </trkpt>
      <trkpt lat="45.6984" lon="5.65019">
        <ele>311</ele>
        <time>2022-09-06T06:18:32.416Z</time>
      </trkpt>
      <trkpt lat="45.69846" lon="5.65015">
        <ele>311</ele>
        <time>2022-09-06T06:18:33.416Z</time>
      </trkpt>
      <trkpt lat="45.69852" lon="5.65012">
        <ele>311</ele>
        <time>2022-09-06T06:18:34.416Z</time>
      </trkpt>
      <trkpt lat="45.69857" lon="5.65009">
        <ele>311</ele>
        <time>2022-09-06T06:18:35.416Z</time>
      </trkpt>
      <trkpt lat="45.69864" lon="5.65004">
        <ele>311</ele>
        <time>2022-09-06T06:18:36.416Z</time>
      </trkpt>
      <trkpt lat="45.69869" lon="5.65002">
        <ele>311</ele>
        <time>2022-09-06T06:18:37.416Z</time>
      </trkpt>
      <trkpt lat="45.69876" lon="5.64998">
        <ele>311</ele>
        <time>2022-09-06T06:18:38.416Z</time>
      </trkpt>
      <trkpt lat="45.69883" lon="5.64996">
        <ele>310</ele>
        <time>2022-09-06T06:18:39.416Z</time>
      </trkpt>
      <trkpt lat="45.69889" lon="5.64993">
        <ele>310</ele>
        <time>2022-09-06T06:18:40.416Z</time>
      </trkpt>
      <trkpt lat="45.69895" lon="5.64991">
        <ele>310</ele>
        <time>2022-09-06T06:18:41.416Z</time>
      </trkpt>
      <trkpt lat="45.69901" lon="5.64988">
        <ele>310</ele>
        <time>2022-09-06T06:18:42.415Z</time>
      </trkpt>
      <trkpt lat="45.69908" lon="5.64986">
        <ele>310</ele>
        <time>2022-09-06T06:18:43.416Z</time>
      </trkpt>
      <trkpt lat="45.69913" lon="5.64983">
        <ele>310</ele>
        <time>2022-09-06T06:18:44.415Z</time>
      </trkpt>
      <trkpt lat="45.69919" lon="5.6498">
        <ele>310</ele>
        <time>2022-09-06T06:18:45.416Z</time>
      </trkpt>
      <trkpt lat="45.69925" lon="5.64977">
        <ele>311</ele>
        <time>2022-09-06T06:18:46.416Z</time>
      </trkpt>
      <trkpt lat="45.69933" lon="5.64974">
        <ele>312</ele>
        <time>2022-09-06T06:18:47.416Z</time>
      </trkpt>
      <trkpt lat="45.69939" lon="5.64971">
        <ele>312</ele>
        <time>2022-09-06T06:18:48.415Z</time>
      </trkpt>
      <trkpt lat="45.69944" lon="5.64968">
        <ele>313</ele>
        <time>2022-09-06T06:18:49.415Z</time>
      </trkpt>
      <trkpt lat="45.6995" lon="5.64965">
        <ele>313</ele>
        <time>2022-09-06T06:18:50.416Z</time>
      </trkpt>
      <trkpt lat="45.69956" lon="5.64962">
        <ele>314</ele>
        <time>2022-09-06T06:18:51.416Z</time>
      </trkpt>
      <trkpt lat="45.69962" lon="5.64959">
        <ele>314</ele>
        <time>2022-09-06T06:18:52.416Z</time>
      </trkpt>
      <trkpt lat="45.69967" lon="5.64956">
        <ele>314</ele>
        <time>2022-09-06T06:18:53.416Z</time>
      </trkpt>
      <trkpt lat="45.69973" lon="5.64953">
        <ele>314</ele>
        <time>2022-09-06T06:18:54.416Z</time>
      </trkpt>
      <trkpt lat="45.69979" lon="5.6495">
        <ele>315</ele>
        <time>2022-09-06T06:18:55.415Z</time>
      </trkpt>
      <trkpt lat="45.69985" lon="5.64947">
        <ele>315</ele>
        <time>2022-09-06T06:18:56.416Z</time>
      </trkpt>
      <trkpt lat="45.69991" lon="5.64944">
        <ele>316</ele>
        <time>2022-09-06T06:18:57.415Z</time>
      </trkpt>
      <trkpt lat="45.69997" lon="5.64942">
        <ele>317</ele>
        <time>2022-09-06T06:18:58.415Z</time>
      </trkpt>
      <trkpt lat="45.70004" lon="5.64941">
        <ele>317</ele>
        <time>2022-09-06T06:18:59.416Z</time>
      </trkpt>
      <trkpt lat="45.7001" lon="5.64941">
        <ele>318</ele>
        <time>2022-09-06T06:19:00.416Z</time>
      </trkpt>
      <trkpt lat="45.70016" lon="5.64941">
        <ele>318</ele>
        <time>2022-09-06T06:19:01.416Z</time>
      </trkpt>
      <trkpt lat="45.70022" lon="5.64942">
        <ele>319</ele>
        <time>2022-09-06T06:19:02.415Z</time>
      </trkpt>
      <trkpt lat="45.70028" lon="5.64943">
        <ele>319</ele>
        <time>2022-09-06T06:19:03.416Z</time>
      </trkpt>
      <trkpt lat="45.70034" lon="5.64946">
        <ele>320</ele>
        <time>2022-09-06T06:19:04.416Z</time>
      </trkpt>
      <trkpt lat="45.70041" lon="5.64949">
        <ele>320</ele>
        <time>2022-09-06T06:19:05.416Z</time>
      </trkpt>
      <trkpt lat="45.70046" lon="5.64953">
        <ele>320</ele>
        <time>2022-09-06T06:19:06.416Z</time>
      </trkpt>
      <trkpt lat="45.70051" lon="5.64957">
        <ele>321</ele>
        <time>2022-09-06T06:19:07.416Z</time>
      </trkpt>
      <trkpt lat="45.70057" lon="5.64963">
        <ele>321</ele>
        <time>2022-09-06T06:19:08.416Z</time>
      </trkpt>
      <trkpt lat="45.70061" lon="5.64968">
        <ele>321</ele>
        <time>2022-09-06T06:19:09.416Z</time>
      </trkpt>
      <trkpt lat="45.70066" lon="5.64974">
        <ele>320</ele>
        <time>2022-09-06T06:19:10.416Z</time>
      </trkpt>
      <trkpt lat="45.7007" lon="5.6498">
        <ele>320</ele>
        <time>2022-09-06T06:19:11.416Z</time>
      </trkpt>
      <trkpt lat="45.70075" lon="5.64987">
        <ele>320</ele>
        <time>2022-09-06T06:19:12.416Z</time>
      </trkpt>
      <trkpt lat="45.7008" lon="5.64993">
        <ele>319</ele>
        <time>2022-09-06T06:19:13.415Z</time>
      </trkpt>
      <trkpt lat="45.70084" lon="5.64999">
        <ele>320</ele>
        <time>2022-09-06T06:19:14.415Z</time>
      </trkpt>
      <trkpt lat="45.70088" lon="5.65005">
        <ele>320</ele>
        <time>2022-09-06T06:19:15.416Z</time>
      </trkpt>
      <trkpt lat="45.70093" lon="5.65011">
        <ele>320</ele>
        <time>2022-09-06T06:19:16.416Z</time>
      </trkpt>
      <trkpt lat="45.70097" lon="5.65017">
        <ele>320</ele>
        <time>2022-09-06T06:19:17.416Z</time>
      </trkpt>
      <trkpt lat="45.70101" lon="5.65024">
        <ele>320</ele>
        <time>2022-09-06T06:19:18.416Z</time>
      </trkpt>
      <trkpt lat="45.70104" lon="5.6503">
        <ele>320</ele>
        <time>2022-09-06T06:19:19.416Z</time>
      </trkpt>
      <trkpt lat="45.70108" lon="5.65035">
        <ele>319</ele>
        <time>2022-09-06T06:19:20.415Z</time>
      </trkpt>
      <trkpt lat="45.70112" lon="5.65041">
        <ele>319</ele>
        <time>2022-09-06T06:19:21.416Z</time>
      </trkpt>
      <trkpt lat="45.70116" lon="5.65047">
        <ele>319</ele>
        <time>2022-09-06T06:19:22.416Z</time>
      </trkpt>
      <trkpt lat="45.70121" lon="5.65052">
        <ele>319</ele>
        <time>2022-09-06T06:19:23.416Z</time>
      </trkpt>
      <trkpt lat="45.70125" lon="5.65057">
        <ele>319</ele>
        <time>2022-09-06T06:19:24.416Z</time>
      </trkpt>
      <trkpt lat="45.70129" lon="5.65063">
        <ele>319</ele>
        <time>2022-09-06T06:19:25.416Z</time>
      </trkpt>
      <trkpt lat="45.70133" lon="5.65068">
        <ele>318</ele>
        <time>2022-09-06T06:19:26.416Z</time>
      </trkpt>
      <trkpt lat="45.70138" lon="5.65072">
        <ele>318</ele>
        <time>2022-09-06T06:19:27.415Z</time>
      </trkpt>
      <trkpt lat="45.70144" lon="5.65076">
        <ele>318</ele>
        <time>2022-09-06T06:19:28.416Z</time>
      </trkpt>
      <trkpt lat="45.7015" lon="5.65079">
        <ele>318</ele>
        <time>2022-09-06T06:19:29.416Z</time>
      </trkpt>
      <trkpt lat="45.70157" lon="5.65081">
        <ele>318</ele>
        <time>2022-09-06T06:19:30.416Z</time>
      </trkpt>
      <trkpt lat="45.70164" lon="5.65082">
        <ele>318</ele>
        <time>2022-09-06T06:19:31.415Z</time>
      </trkpt>
      <trkpt lat="45.70172" lon="5.65081">
        <ele>319</ele>
        <time>2022-09-06T06:19:32.416Z</time>
      </trkpt>
      <trkpt lat="45.70181" lon="5.6508">
        <ele>319</ele>
        <time>2022-09-06T06:19:33.416Z</time>
      </trkpt>
      <trkpt lat="45.70189" lon="5.65079">
        <ele>319</ele>
        <time>2022-09-06T06:19:34.416Z</time>
      </trkpt>
      <trkpt lat="45.70198" lon="5.65077">
        <ele>319</ele>
        <time>2022-09-06T06:19:35.416Z</time>
      </trkpt>
      <trkpt lat="45.70208" lon="5.65076">
        <ele>319</ele>
        <time>2022-09-06T06:19:36.416Z</time>
      </trkpt>
      <trkpt lat="45.70217" lon="5.65076">
        <ele>319</ele>
        <time>2022-09-06T06:19:37.415Z</time>
      </trkpt>
      <trkpt lat="45.70227" lon="5.65076">
        <ele>319</ele>
        <time>2022-09-06T06:19:38.416Z</time>
      </trkpt>
      <trkpt lat="45.70237" lon="5.65077">
        <ele>319</ele>
        <time>2022-09-06T06:19:39.416Z</time>
      </trkpt>
      <trkpt lat="45.70247" lon="5.65079">
        <ele>319</ele>
        <time>2022-09-06T06:19:40.415Z</time>
      </trkpt>
      <trkpt lat="45.70257" lon="5.65083">
        <ele>320</ele>
        <time>2022-09-06T06:19:41.416Z</time>
      </trkpt>
      <trkpt lat="45.70266" lon="5.65086">
        <ele>320</ele>
        <time>2022-09-06T06:19:42.416Z</time>
      </trkpt>
      <trkpt lat="45.70275" lon="5.65091">
        <ele>321</ele>
        <time>2022-09-06T06:19:43.416Z</time>
      </trkpt>
      <trkpt lat="45.70285" lon="5.65095">
        <ele>320</ele>
        <time>2022-09-06T06:19:44.416Z</time>
      </trkpt>
      <trkpt lat="45.70294" lon="5.65098">
        <ele>320</ele>
        <time>2022-09-06T06:19:45.416Z</time>
      </trkpt>
      <trkpt lat="45.70304" lon="5.65099">
        <ele>320</ele>
        <time>2022-09-06T06:19:46.416Z</time>
      </trkpt>
      <trkpt lat="45.70314" lon="5.65098">
        <ele>320</ele>
        <time>2022-09-06T06:19:47.416Z</time>
      </trkpt>
      <trkpt lat="45.70324" lon="5.65095">
        <ele>320</ele>
        <time>2022-09-06T06:19:48.416Z</time>
      </trkpt>
      <trkpt lat="45.70334" lon="5.65092">
        <ele>319</ele>
        <time>2022-09-06T06:19:49.416Z</time>
      </trkpt>
      <trkpt lat="45.70344" lon="5.65089">
        <ele>319</ele>
        <time>2022-09-06T06:19:50.416Z</time>
      </trkpt>
      <trkpt lat="45.70353" lon="5.65085">
        <ele>318</ele>
        <time>2022-09-06T06:19:51.415Z</time>
      </trkpt>
      <trkpt lat="45.70362" lon="5.65084">
        <ele>317</ele>
        <time>2022-09-06T06:19:52.415Z</time>
      </trkpt>
      <trkpt lat="45.7037" lon="5.65086">
        <ele>316</ele>
        <time>2022-09-06T06:19:53.415Z</time>
      </trkpt>
      <trkpt lat="45.70378" lon="5.65092">
        <ele>315</ele>
        <time>2022-09-06T06:19:54.416Z</time>
      </trkpt>
      <trkpt lat="45.70385" lon="5.65099">
        <ele>314</ele>
        <time>2022-09-06T06:19:55.415Z</time>
      </trkpt>
      <trkpt lat="45.7039" lon="5.65109">
        <ele>313</ele>
        <time>2022-09-06T06:19:56.416Z</time>
      </trkpt>
      <trkpt lat="45.70394" lon="5.65121">
        <ele>313</ele>
        <time>2022-09-06T06:19:57.415Z</time>
      </trkpt>
      <trkpt lat="45.70398" lon="5.65136">
        <ele>312</ele>
        <time>2022-09-06T06:19:58.416Z</time>
      </trkpt>
      <trkpt lat="45.704" lon="5.65149">
        <ele>312</ele>
        <time>2022-09-06T06:19:59.415Z</time>
      </trkpt>
      <trkpt lat="45.70404" lon="5.65165">
        <ele>311</ele>
        <time>2022-09-06T06:20:00.415Z</time>
      </trkpt>
      <trkpt lat="45.70406" lon="5.65177">
        <ele>311</ele>
        <time>2022-09-06T06:20:01.416Z</time>
      </trkpt>
      <trkpt lat="45.7041" lon="5.6519">
        <ele>310</ele>
        <time>2022-09-06T06:20:02.416Z</time>
      </trkpt>
      <trkpt lat="45.70412" lon="5.65203">
        <ele>310</ele>
        <time>2022-09-06T06:20:03.416Z</time>
      </trkpt>
      <trkpt lat="45.70415" lon="5.65215">
        <ele>310</ele>
        <time>2022-09-06T06:20:04.416Z</time>
      </trkpt>
      <trkpt lat="45.70416" lon="5.65226">
        <ele>309</ele>
        <time>2022-09-06T06:20:05.416Z</time>
      </trkpt>
      <trkpt lat="45.70416" lon="5.65237">
        <ele>308</ele>
        <time>2022-09-06T06:20:06.416Z</time>
      </trkpt>
      <trkpt lat="45.70414" lon="5.65248">
        <ele>307</ele>
        <time>2022-09-06T06:20:07.416Z</time>
      </trkpt>
      <trkpt lat="45.70409" lon="5.65258">
        <ele>306</ele>
        <time>2022-09-06T06:20:08.415Z</time>
      </trkpt>
      <trkpt lat="45.70403" lon="5.65265">
        <ele>306</ele>
        <time>2022-09-06T06:20:09.416Z</time>
      </trkpt>
      <trkpt lat="45.70395" lon="5.6527">
        <ele>305</ele>
        <time>2022-09-06T06:20:10.415Z</time>
      </trkpt>
      <trkpt lat="45.70387" lon="5.65273">
        <ele>303</ele>
        <time>2022-09-06T06:20:11.416Z</time>
      </trkpt>
      <trkpt lat="45.70378" lon="5.65271">
        <ele>302</ele>
        <time>2022-09-06T06:20:12.416Z</time>
      </trkpt>
      <trkpt lat="45.70369" lon="5.65268">
        <ele>301</ele>
        <time>2022-09-06T06:20:13.415Z</time>
      </trkpt>
      <trkpt lat="45.7036" lon="5.65265">
        <ele>300</ele>
        <time>2022-09-06T06:20:14.416Z</time>
      </trkpt>
      <trkpt lat="45.7035" lon="5.65261">
        <ele>300</ele>
        <time>2022-09-06T06:20:15.416Z</time>
      </trkpt>
      <trkpt lat="45.70341" lon="5.65258">
        <ele>299</ele>
        <time>2022-09-06T06:20:16.416Z</time>
      </trkpt>
      <trkpt lat="45.70332" lon="5.65257">
        <ele>298</ele>
        <time>2022-09-06T06:20:17.416Z</time>
      </trkpt>
      <trkpt lat="45.70323" lon="5.65258">
        <ele>297</ele>
        <time>2022-09-06T06:20:18.416Z</time>
      </trkpt>
      <trkpt lat="45.70314" lon="5.65262">
        <ele>297</ele>
        <time>2022-09-06T06:20:19.416Z</time>
      </trkpt>
      <trkpt lat="45.70308" lon="5.65267">
        <ele>297</ele>
        <time>2022-09-06T06:20:20.416Z</time>
      </trkpt>
      <trkpt lat="45.70302" lon="5.65275">
        <ele>298</ele>
        <time>2022-09-06T06:20:21.416Z</time>
      </trkpt>
      <trkpt lat="45.70297" lon="5.65285">
        <ele>297</ele>
        <time>2022-09-06T06:20:22.416Z</time>
      </trkpt>
      <trkpt lat="45.70294" lon="5.65296">
        <ele>297</ele>
        <time>2022-09-06T06:20:23.416Z</time>
      </trkpt>
      <trkpt lat="45.70291" lon="5.65308">
        <ele>296</ele>
        <time>2022-09-06T06:20:24.416Z</time>
      </trkpt>
      <trkpt lat="45.70289" lon="5.65321">
        <ele>296</ele>
        <time>2022-09-06T06:20:25.415Z</time>
      </trkpt>
      <trkpt lat="45.70288" lon="5.65335">
        <ele>295</ele>
        <time>2022-09-06T06:20:26.415Z</time>
      </trkpt>
      <trkpt lat="45.70288" lon="5.65349">
        <ele>295</ele>
        <time>2022-09-06T06:20:27.416Z</time>
      </trkpt>
      <trkpt lat="45.70288" lon="5.65363">
        <ele>294</ele>
        <time>2022-09-06T06:20:28.415Z</time>
      </trkpt>
      <trkpt lat="45.7029" lon="5.65378">
        <ele>294</ele>
        <time>2022-09-06T06:20:29.416Z</time>
      </trkpt>
      <trkpt lat="45.70292" lon="5.65393">
        <ele>293</ele>
        <time>2022-09-06T06:20:30.415Z</time>
      </trkpt>
      <trkpt lat="45.70296" lon="5.65407">
        <ele>293</ele>
        <time>2022-09-06T06:20:31.415Z</time>
      </trkpt>
      <trkpt lat="45.703" lon="5.65421">
        <ele>293</ele>
        <time>2022-09-06T06:20:32.415Z</time>
      </trkpt>
      <trkpt lat="45.70305" lon="5.65436">
        <ele>293</ele>
        <time>2022-09-06T06:20:33.416Z</time>
      </trkpt>
      <trkpt lat="45.7031" lon="5.65451">
        <ele>292</ele>
        <time>2022-09-06T06:20:34.416Z</time>
      </trkpt>
      <trkpt lat="45.70315" lon="5.65466">
        <ele>292</ele>
        <time>2022-09-06T06:20:35.416Z</time>
      </trkpt>
      <trkpt lat="45.7032" lon="5.6548">
        <ele>291</ele>
        <time>2022-09-06T06:20:36.415Z</time>
      </trkpt>
      <trkpt lat="45.70327" lon="5.65494">
        <ele>291</ele>
        <time>2022-09-06T06:20:37.416Z</time>
      </trkpt>
      <trkpt lat="45.70334" lon="5.65507">
        <ele>290</ele>
        <time>2022-09-06T06:20:38.416Z</time>
      </trkpt>
      <trkpt lat="45.70342" lon="5.65519">
        <ele>289</ele>
        <time>2022-09-06T06:20:39.415Z</time>
      </trkpt>
      <trkpt lat="45.70351" lon="5.6553">
        <ele>289</ele>
        <time>2022-09-06T06:20:40.415Z</time>
      </trkpt>
      <trkpt lat="45.70359" lon="5.65539">
        <ele>288</ele>
        <time>2022-09-06T06:20:41.416Z</time>
      </trkpt>
      <trkpt lat="45.70367" lon="5.65546">
        <ele>287</ele>
        <time>2022-09-06T06:20:42.415Z</time>
      </trkpt>
      <trkpt lat="45.70376" lon="5.65551">
        <ele>286</ele>
        <time>2022-09-06T06:20:43.416Z</time>
      </trkpt>
      <trkpt lat="45.70385" lon="5.65554">
        <ele>285</ele>
        <time>2022-09-06T06:20:44.416Z</time>
      </trkpt>
      <trkpt lat="45.70394" lon="5.65554">
        <ele>284</ele>
        <time>2022-09-06T06:20:45.416Z</time>
      </trkpt>
      <trkpt lat="45.70404" lon="5.65553">
        <ele>283</ele>
        <time>2022-09-06T06:20:46.416Z</time>
      </trkpt>
      <trkpt lat="45.70414" lon="5.65549">
        <ele>283</ele>
        <time>2022-09-06T06:20:47.416Z</time>
      </trkpt>
      <trkpt lat="45.70424" lon="5.65546">
        <ele>282</ele>
        <time>2022-09-06T06:20:48.416Z</time>
      </trkpt>
      <trkpt lat="45.70434" lon="5.65544">
        <ele>281</ele>
        <time>2022-09-06T06:20:49.416Z</time>
      </trkpt>
      <trkpt lat="45.70445" lon="5.65542">
        <ele>281</ele>
        <time>2022-09-06T06:20:50.415Z</time>
      </trkpt>
      <trkpt lat="45.70455" lon="5.65542">
        <ele>281</ele>
        <time>2022-09-06T06:20:51.416Z</time>
      </trkpt>
      <trkpt lat="45.70465" lon="5.65544">
        <ele>281</ele>
        <time>2022-09-06T06:20:52.416Z</time>
      </trkpt>
      <trkpt lat="45.70475" lon="5.65546">
        <ele>280</ele>
        <time>2022-09-06T06:20:53.416Z</time>
      </trkpt>
      <trkpt lat="45.70485" lon="5.65547">
        <ele>280</ele>
        <time>2022-09-06T06:20:54.416Z</time>
      </trkpt>
      <trkpt lat="45.70494" lon="5.65547">
        <ele>279</ele>
        <time>2022-09-06T06:20:55.416Z</time>
      </trkpt>
      <trkpt lat="45.70503" lon="5.65546">
        <ele>279</ele>
        <time>2022-09-06T06:20:56.416Z</time>
      </trkpt>
      <trkpt lat="45.70512" lon="5.65542">
        <ele>278</ele>
        <time>2022-09-06T06:20:57.416Z</time>
      </trkpt>
      <trkpt lat="45.7052" lon="5.65536">
        <ele>278</ele>
        <time>2022-09-06T06:20:58.416Z</time>
      </trkpt>
      <trkpt lat="45.70528" lon="5.65528">
        <ele>277</ele>
        <time>2022-09-06T06:20:59.415Z</time>
      </trkpt>
      <trkpt lat="45.70535" lon="5.65518">
        <ele>276</ele>
        <time>2022-09-06T06:21:00.416Z</time>
      </trkpt>
      <trkpt lat="45.7054" lon="5.65505">
        <ele>276</ele>
        <time>2022-09-06T06:21:01.415Z</time>
      </trkpt>
      <trkpt lat="45.70545" lon="5.65492">
        <ele>275</ele>
        <time>2022-09-06T06:21:02.415Z</time>
      </trkpt>
      <trkpt lat="45.70549" lon="5.65479">
        <ele>274</ele>
        <time>2022-09-06T06:21:03.416Z</time>
      </trkpt>
      <trkpt lat="45.70552" lon="5.65465">
        <ele>273</ele>
        <time>2022-09-06T06:21:04.415Z</time>
      </trkpt>
      <trkpt lat="45.70556" lon="5.65451">
        <ele>272</ele>
        <time>2022-09-06T06:21:05.415Z</time>
      </trkpt>
      <trkpt lat="45.70559" lon="5.65437">
        <ele>271</ele>
        <time>2022-09-06T06:21:06.416Z</time>
      </trkpt>
      <trkpt lat="45.70563" lon="5.65423">
        <ele>271</ele>
        <time>2022-09-06T06:21:07.416Z</time>
      </trkpt>
      <trkpt lat="45.70567" lon="5.65411">
        <ele>270</ele>
        <time>2022-09-06T06:21:08.416Z</time>
      </trkpt>
      <trkpt lat="45.70571" lon="5.654">
        <ele>269</ele>
        <time>2022-09-06T06:21:09.416Z</time>
      </trkpt>
      <trkpt lat="45.70576" lon="5.6539">
        <ele>269</ele>
        <time>2022-09-06T06:21:10.416Z</time>
      </trkpt>
      <trkpt lat="45.70583" lon="5.65383">
        <ele>268</ele>
        <time>2022-09-06T06:21:11.416Z</time>
      </trkpt>
      <trkpt lat="45.7059" lon="5.65377">
        <ele>268</ele>
        <time>2022-09-06T06:21:12.415Z</time>
      </trkpt>
      <trkpt lat="45.70598" lon="5.65372">
        <ele>267</ele>
        <time>2022-09-06T06:21:13.416Z</time>
      </trkpt>
      <trkpt lat="45.70607" lon="5.65369">
        <ele>267</ele>
        <time>2022-09-06T06:21:14.416Z</time>
      </trkpt>
      <trkpt lat="45.70616" lon="5.65367">
        <ele>266</ele>
        <time>2022-09-06T06:21:15.416Z</time>
      </trkpt>
      <trkpt lat="45.70626" lon="5.65365">
        <ele>266</ele>
        <time>2022-09-06T06:21:16.416Z</time>
      </trkpt>
      <trkpt lat="45.70636" lon="5.65364">
        <ele>265</ele>
        <time>2022-09-06T06:21:17.416Z</time>
      </trkpt>
      <trkpt lat="45.70646" lon="5.65361">
        <ele>264</ele>
        <time>2022-09-06T06:21:18.415Z</time>
      </trkpt>
      <trkpt lat="45.70656" lon="5.65358">
        <ele>264</ele>
        <time>2022-09-06T06:21:19.416Z</time>
      </trkpt>
      <trkpt lat="45.70665" lon="5.65353">
        <ele>263</ele>
        <time>2022-09-06T06:21:20.416Z</time>
      </trkpt>
      <trkpt lat="45.70674" lon="5.65348">
        <ele>263</ele>
        <time>2022-09-06T06:21:21.415Z</time>
      </trkpt>
      <trkpt lat="45.70682" lon="5.65343">
        <ele>263</ele>
        <time>2022-09-06T06:21:22.416Z</time>
      </trkpt>
      <trkpt lat="45.7069" lon="5.65336">
        <ele>263</ele>
        <time>2022-09-06T06:21:23.416Z</time>
      </trkpt>
      <trkpt lat="45.70698" lon="5.65328">
        <ele>262</ele>
        <time>2022-09-06T06:21:24.415Z</time>
      </trkpt>
      <trkpt lat="45.70704" lon="5.65319">
        <ele>262</ele>
        <time>2022-09-06T06:21:25.416Z</time>
      </trkpt>
      <trkpt lat="45.70711" lon="5.65308">
        <ele>261</ele>
        <time>2022-09-06T06:21:26.415Z</time>
      </trkpt>
      <trkpt lat="45.70716" lon="5.653">
        <ele>261</ele>
        <time>2022-09-06T06:21:27.416Z</time>
      </trkpt>
      <trkpt lat="45.7072" lon="5.65289">
        <ele>260</ele>
        <time>2022-09-06T06:21:28.416Z</time>
      </trkpt>
      <trkpt lat="45.70725" lon="5.65279">
        <ele>259</ele>
        <time>2022-09-06T06:21:29.416Z</time>
      </trkpt>
      <trkpt lat="45.70729" lon="5.65268">
        <ele>259</ele>
        <time>2022-09-06T06:21:30.415Z</time>
      </trkpt>
      <trkpt lat="45.70733" lon="5.65259">
        <ele>258</ele>
        <time>2022-09-06T06:21:31.416Z</time>
      </trkpt>
      <trkpt lat="45.70737" lon="5.6525">
        <ele>257</ele>
        <time>2022-09-06T06:21:32.416Z</time>
      </trkpt>
      <trkpt lat="45.70742" lon="5.65243">
        <ele>257</ele>
        <time>2022-09-06T06:21:33.416Z</time>
      </trkpt>
      <trkpt lat="45.70747" lon="5.65238">
        <ele>256</ele>
        <time>2022-09-06T06:21:34.415Z</time>
      </trkpt>
      <trkpt lat="45.70753" lon="5.65234">
        <ele>256</ele>
        <time>2022-09-06T06:21:35.415Z</time>
      </trkpt>
      <trkpt lat="45.70759" lon="5.65233">
        <ele>255</ele>
        <time>2022-09-06T06:21:36.416Z</time>
      </trkpt>
      <trkpt lat="45.70766" lon="5.65233">
        <ele>255</ele>
        <time>2022-09-06T06:21:37.416Z</time>
      </trkpt>
      <trkpt lat="45.70774" lon="5.65236">
        <ele>254</ele>
        <time>2022-09-06T06:21:38.415Z</time>
      </trkpt>
      <trkpt lat="45.70782" lon="5.65242">
        <ele>254</ele>
        <time>2022-09-06T06:21:39.416Z</time>
      </trkpt>
      <trkpt lat="45.70786" lon="5.65249">
        <ele>254</ele>
        <time>2022-09-06T06:21:40.415Z</time>
      </trkpt>
      <trkpt lat="45.70788" lon="5.65259">
        <ele>253</ele>
        <time>2022-09-06T06:21:41.416Z</time>
      </trkpt>
      <trkpt lat="45.70789" lon="5.65269">
        <ele>253</ele>
        <time>2022-09-06T06:21:42.415Z</time>
      </trkpt>
      <trkpt lat="45.70787" lon="5.65279">
        <ele>252</ele>
        <time>2022-09-06T06:21:43.416Z</time>
      </trkpt>
      <trkpt lat="45.70784" lon="5.65288">
        <ele>251</ele>
        <time>2022-09-06T06:21:44.416Z</time>
      </trkpt>
      <trkpt lat="45.70781" lon="5.65298">
        <ele>250</ele>
        <time>2022-09-06T06:21:45.416Z</time>
      </trkpt>
      <trkpt lat="45.70777" lon="5.65309">
        <ele>250</ele>
        <time>2022-09-06T06:21:46.416Z</time>
      </trkpt>
      <trkpt lat="45.70774" lon="5.6532">
        <ele>250</ele>
        <time>2022-09-06T06:21:47.416Z</time>
      </trkpt>
      <trkpt lat="45.70772" lon="5.65331">
        <ele>249</ele>
        <time>2022-09-06T06:21:48.416Z</time>
      </trkpt>
      <trkpt lat="45.70771" lon="5.65343">
        <ele>249</ele>
        <time>2022-09-06T06:21:49.416Z</time>
      </trkpt>
      <trkpt lat="45.7077" lon="5.65355">
        <ele>248</ele>
        <time>2022-09-06T06:21:50.415Z</time>
      </trkpt>
      <trkpt lat="45.7077" lon="5.65367">
        <ele>247</ele>
        <time>2022-09-06T06:21:51.416Z</time>
      </trkpt>
      <trkpt lat="45.70771" lon="5.6538">
        <ele>247</ele>
        <time>2022-09-06T06:21:52.416Z</time>
      </trkpt>
      <trkpt lat="45.70772" lon="5.65393">
        <ele>246</ele>
        <time>2022-09-06T06:21:53.416Z</time>
      </trkpt>
      <trkpt lat="45.70773" lon="5.65405">
        <ele>246</ele>
        <time>2022-09-06T06:21:54.415Z</time>
      </trkpt>
      <trkpt lat="45.70774" lon="5.65418">
        <ele>245</ele>
        <time>2022-09-06T06:21:55.416Z</time>
      </trkpt>
      <trkpt lat="45.70774" lon="5.65431">
        <ele>245</ele>
        <time>2022-09-06T06:21:56.415Z</time>
      </trkpt>
      <trkpt lat="45.70773" lon="5.65443">
        <ele>245</ele>
        <time>2022-09-06T06:21:57.416Z</time>
      </trkpt>
      <trkpt lat="45.70771" lon="5.65456">
        <ele>244</ele>
        <time>2022-09-06T06:21:58.416Z</time>
      </trkpt>
      <trkpt lat="45.70771" lon="5.65468">
        <ele>243</ele>
        <time>2022-09-06T06:21:59.416Z</time>
      </trkpt>
      <trkpt lat="45.70771" lon="5.6548">
        <ele>243</ele>
        <time>2022-09-06T06:22:00.416Z</time>
      </trkpt>
      <trkpt lat="45.70772" lon="5.65491">
        <ele>242</ele>
        <time>2022-09-06T06:22:01.416Z</time>
      </trkpt>
      <trkpt lat="45.70775" lon="5.65502">
        <ele>241</ele>
        <time>2022-09-06T06:22:02.416Z</time>
      </trkpt>
      <trkpt lat="45.70778" lon="5.65512">
        <ele>241</ele>
        <time>2022-09-06T06:22:03.416Z</time>
      </trkpt>
      <trkpt lat="45.70782" lon="5.65521">
        <ele>240</ele>
        <time>2022-09-06T06:22:04.415Z</time>
      </trkpt>
      <trkpt lat="45.70786" lon="5.65528">
        <ele>240</ele>
        <time>2022-09-06T06:22:05.416Z</time>
      </trkpt>
      <trkpt lat="45.7079" lon="5.65534">
        <ele>240</ele>
        <time>2022-09-06T06:22:06.415Z</time>
      </trkpt>
      <trkpt lat="45.70792" lon="5.65538">
        <ele>240</ele>
        <time>2022-09-06T06:22:07.416Z</time>
      </trkpt>
      <trkpt lat="45.70794" lon="5.65541">
        <ele>239</ele>
        <time>2022-09-06T06:22:08.416Z</time>
      </trkpt>
      <trkpt lat="45.70795" lon="5.65543">
        <ele>239</ele>
        <time>2022-09-06T06:22:09.416Z</time>
      </trkpt>
      <trkpt lat="45.70796" lon="5.65545">
        <ele>239</ele>
        <time>2022-09-06T06:22:10.416Z</time>
      </trkpt>
      <trkpt lat="45.70797" lon="5.65547">
        <ele>239</ele>
        <time>2022-09-06T06:22:11.416Z</time>
      </trkpt>
      <trkpt lat="45.70798" lon="5.65548">
        <ele>239</ele>
        <time>2022-09-06T06:22:12.415Z</time>
      </trkpt>
      <trkpt lat="45.70798" lon="5.65548">
        <ele>239</ele>
        <time>2022-09-06T06:22:13.416Z</time>
      </trkpt>
      <trkpt lat="45.70798" lon="5.65549">
        <ele>238</ele>
        <time>2022-09-06T06:22:14.415Z</time>
      </trkpt>
      <trkpt lat="45.70798" lon="5.65548">
        <ele>238</ele>
        <time>2022-09-06T06:22:15.416Z</time>
      </trkpt>
      <trkpt lat="45.70799" lon="5.65549">
        <ele>236</ele>
        <time>2022-09-06T06:22:19.524Z</time>
      </trkpt>
      <trkpt lat="45.70801" lon="5.6555">
        <ele>236</ele>
        <time>2022-09-06T06:22:20.524Z</time>
      </trkpt>
      <trkpt lat="45.70803" lon="5.65552">
        <ele>236</ele>
        <time>2022-09-06T06:22:21.524Z</time>
      </trkpt>
      <trkpt lat="45.70805" lon="5.65554">
        <ele>235</ele>
        <time>2022-09-06T06:22:22.524Z</time>
      </trkpt>
      <trkpt lat="45.70807" lon="5.65556">
        <ele>235</ele>
        <time>2022-09-06T06:22:23.525Z</time>
      </trkpt>
      <trkpt lat="45.70809" lon="5.65558">
        <ele>235</ele>
        <time>2022-09-06T06:22:24.525Z</time>
      </trkpt>
      <trkpt lat="45.70811" lon="5.65561">
        <ele>235</ele>
        <time>2022-09-06T06:22:25.525Z</time>
      </trkpt>
      <trkpt lat="45.70814" lon="5.65563">
        <ele>235</ele>
        <time>2022-09-06T06:22:26.525Z</time>
      </trkpt>
      <trkpt lat="45.70817" lon="5.65566">
        <ele>235</ele>
        <time>2022-09-06T06:22:27.525Z</time>
      </trkpt>
      <trkpt lat="45.70819" lon="5.65568">
        <ele>235</ele>
        <time>2022-09-06T06:22:28.525Z</time>
      </trkpt>
      <trkpt lat="45.70822" lon="5.65571">
        <ele>235</ele>
        <time>2022-09-06T06:22:29.525Z</time>
      </trkpt>
      <trkpt lat="45.70825" lon="5.65574">
        <ele>235</ele>
        <time>2022-09-06T06:22:30.524Z</time>
      </trkpt>
      <trkpt lat="45.70828" lon="5.65577">
        <ele>235</ele>
        <time>2022-09-06T06:22:31.525Z</time>
      </trkpt>
      <trkpt lat="45.70831" lon="5.6558">
        <ele>235</ele>
        <time>2022-09-06T06:22:32.525Z</time>
      </trkpt>
      <trkpt lat="45.70835" lon="5.65583">
        <ele>235</ele>
        <time>2022-09-06T06:22:33.524Z</time>
      </trkpt>
      <trkpt lat="45.70838" lon="5.65587">
        <ele>234</ele>
        <time>2022-09-06T06:22:34.525Z</time>
      </trkpt>
      <trkpt lat="45.70842" lon="5.65591">
        <ele>234</ele>
        <time>2022-09-06T06:22:35.525Z</time>
      </trkpt>
      <trkpt lat="45.70847" lon="5.65598">
        <ele>234</ele>
        <time>2022-09-06T06:22:36.525Z</time>
      </trkpt>
      <trkpt lat="45.70849" lon="5.65603">
        <ele>234</ele>
        <time>2022-09-06T06:22:37.525Z</time>
      </trkpt>
      <trkpt lat="45.70853" lon="5.6561">
        <ele>234</ele>
        <time>2022-09-06T06:22:38.525Z</time>
      </trkpt>
      <trkpt lat="45.70856" lon="5.65618">
        <ele>233</ele>
        <time>2022-09-06T06:22:39.525Z</time>
      </trkpt>
      <trkpt lat="45.7086" lon="5.65626">
        <ele>233</ele>
        <time>2022-09-06T06:22:40.525Z</time>
      </trkpt>
      <trkpt lat="45.70864" lon="5.65634">
        <ele>233</ele>
        <time>2022-09-06T06:22:41.525Z</time>
      </trkpt>
      <trkpt lat="45.70868" lon="5.65643">
        <ele>233</ele>
        <time>2022-09-06T06:22:42.525Z</time>
      </trkpt>
      <trkpt lat="45.70872" lon="5.65653">
        <ele>233</ele>
        <time>2022-09-06T06:22:43.525Z</time>
      </trkpt>
      <trkpt lat="45.70876" lon="5.65662">
        <ele>233</ele>
        <time>2022-09-06T06:22:44.525Z</time>
      </trkpt>
      <trkpt lat="45.7088" lon="5.65672">
        <ele>233</ele>
        <time>2022-09-06T06:22:45.525Z</time>
      </trkpt>
      <trkpt lat="45.70884" lon="5.65682">
        <ele>233</ele>
        <time>2022-09-06T06:22:46.525Z</time>
      </trkpt>
      <trkpt lat="45.70888" lon="5.65692">
        <ele>233</ele>
        <time>2022-09-06T06:22:47.525Z</time>
      </trkpt>
      <trkpt lat="45.70892" lon="5.65702">
        <ele>233</ele>
        <time>2022-09-06T06:22:48.524Z</time>
      </trkpt>
      <trkpt lat="45.70897" lon="5.65713">
        <ele>233</ele>
        <time>2022-09-06T06:22:49.525Z</time>
      </trkpt>
      <trkpt lat="45.70902" lon="5.65723">
        <ele>232</ele>
        <time>2022-09-06T06:22:50.525Z</time>
      </trkpt>
      <trkpt lat="45.70907" lon="5.65734">
        <ele>232</ele>
        <time>2022-09-06T06:22:51.525Z</time>
      </trkpt>
      <trkpt lat="45.70912" lon="5.65744">
        <ele>232</ele>
        <time>2022-09-06T06:22:52.525Z</time>
      </trkpt>
      <trkpt lat="45.70916" lon="5.65754">
        <ele>232</ele>
        <time>2022-09-06T06:22:53.525Z</time>
      </trkpt>
      <trkpt lat="45.7092" lon="5.65765">
        <ele>231</ele>
        <time>2022-09-06T06:22:54.525Z</time>
      </trkpt>
      <trkpt lat="45.70924" lon="5.65776">
        <ele>231</ele>
        <time>2022-09-06T06:22:55.525Z</time>
      </trkpt>
      <trkpt lat="45.70928" lon="5.65788">
        <ele>231</ele>
        <time>2022-09-06T06:22:56.525Z</time>
      </trkpt>
      <trkpt lat="45.70931" lon="5.65799">
        <ele>231</ele>
        <time>2022-09-06T06:22:57.525Z</time>
      </trkpt>
      <trkpt lat="45.70934" lon="5.6581">
        <ele>231</ele>
        <time>2022-09-06T06:22:58.525Z</time>
      </trkpt>
      <trkpt lat="45.70937" lon="5.65821">
        <ele>231</ele>
        <time>2022-09-06T06:22:59.525Z</time>
      </trkpt>
      <trkpt lat="45.70941" lon="5.65832">
        <ele>231</ele>
        <time>2022-09-06T06:23:00.525Z</time>
      </trkpt>
      <trkpt lat="45.70944" lon="5.65843">
        <ele>231</ele>
        <time>2022-09-06T06:23:01.525Z</time>
      </trkpt>
      <trkpt lat="45.70948" lon="5.65854">
        <ele>231</ele>
        <time>2022-09-06T06:23:02.525Z</time>
      </trkpt>
      <trkpt lat="45.70952" lon="5.65866">
        <ele>231</ele>
        <time>2022-09-06T06:23:03.525Z</time>
      </trkpt>
      <trkpt lat="45.70957" lon="5.65877">
        <ele>231</ele>
        <time>2022-09-06T06:23:04.524Z</time>
      </trkpt>
      <trkpt lat="45.70961" lon="5.65888">
        <ele>230</ele>
        <time>2022-09-06T06:23:05.525Z</time>
      </trkpt>
      <trkpt lat="45.70966" lon="5.65898">
        <ele>230</ele>
        <time>2022-09-06T06:23:06.525Z</time>
      </trkpt>
      <trkpt lat="45.70972" lon="5.65907">
        <ele>230</ele>
        <time>2022-09-06T06:23:07.525Z</time>
      </trkpt>
      <trkpt lat="45.70978" lon="5.65916">
        <ele>230</ele>
        <time>2022-09-06T06:23:08.525Z</time>
      </trkpt>
      <trkpt lat="45.70985" lon="5.65924">
        <ele>229</ele>
        <time>2022-09-06T06:23:09.525Z</time>
      </trkpt>
      <trkpt lat="45.70992" lon="5.65931">
        <ele>229</ele>
        <time>2022-09-06T06:23:10.524Z</time>
      </trkpt>
      <trkpt lat="45.71" lon="5.65939">
        <ele>229</ele>
        <time>2022-09-06T06:23:11.525Z</time>
      </trkpt>
      <trkpt lat="45.71008" lon="5.65946">
        <ele>229</ele>
        <time>2022-09-06T06:23:12.524Z</time>
      </trkpt>
      <trkpt lat="45.71016" lon="5.65953">
        <ele>229</ele>
        <time>2022-09-06T06:23:13.525Z</time>
      </trkpt>
      <trkpt lat="45.71023" lon="5.6596">
        <ele>229</ele>
        <time>2022-09-06T06:23:14.525Z</time>
      </trkpt>
      <trkpt lat="45.71031" lon="5.65967">
        <ele>229</ele>
        <time>2022-09-06T06:23:15.525Z</time>
      </trkpt>
      <trkpt lat="45.71039" lon="5.65974">
        <ele>229</ele>
        <time>2022-09-06T06:23:16.525Z</time>
      </trkpt>
      <trkpt lat="45.71047" lon="5.65981">
        <ele>229</ele>
        <time>2022-09-06T06:23:17.525Z</time>
      </trkpt>
      <trkpt lat="45.71055" lon="5.65988">
        <ele>229</ele>
        <time>2022-09-06T06:23:18.525Z</time>
      </trkpt>
      <trkpt lat="45.71062" lon="5.65995">
        <ele>229</ele>
        <time>2022-09-06T06:23:19.525Z</time>
      </trkpt>
      <trkpt lat="45.71071" lon="5.66003">
        <ele>230</ele>
        <time>2022-09-06T06:23:20.525Z</time>
      </trkpt>
      <trkpt lat="45.71078" lon="5.6601">
        <ele>230</ele>
        <time>2022-09-06T06:23:21.525Z</time>
      </trkpt>
      <trkpt lat="45.71086" lon="5.66017">
        <ele>230</ele>
        <time>2022-09-06T06:23:22.524Z</time>
      </trkpt>
      <trkpt lat="45.71092" lon="5.66023">
        <ele>230</ele>
        <time>2022-09-06T06:23:23.525Z</time>
      </trkpt>
      <trkpt lat="45.71101" lon="5.6603">
        <ele>230</ele>
        <time>2022-09-06T06:23:24.525Z</time>
      </trkpt>
      <trkpt lat="45.71109" lon="5.66037">
        <ele>230</ele>
        <time>2022-09-06T06:23:25.525Z</time>
      </trkpt>
      <trkpt lat="45.71116" lon="5.66043">
        <ele>230</ele>
        <time>2022-09-06T06:23:26.525Z</time>
      </trkpt>
      <trkpt lat="45.71124" lon="5.6605">
        <ele>230</ele>
        <time>2022-09-06T06:23:27.524Z</time>
      </trkpt>
      <trkpt lat="45.71132" lon="5.66056">
        <ele>230</ele>
        <time>2022-09-06T06:23:28.525Z</time>
      </trkpt>
      <trkpt lat="45.71138" lon="5.66061">
        <ele>230</ele>
        <time>2022-09-06T06:23:29.525Z</time>
      </trkpt>
      <trkpt lat="45.71147" lon="5.66068">
        <ele>230</ele>
        <time>2022-09-06T06:23:30.525Z</time>
      </trkpt>
      <trkpt lat="45.71155" lon="5.66074">
        <ele>230</ele>
        <time>2022-09-06T06:23:31.525Z</time>
      </trkpt>
      <trkpt lat="45.71162" lon="5.6608">
        <ele>230</ele>
        <time>2022-09-06T06:23:32.525Z</time>
      </trkpt>
      <trkpt lat="45.71169" lon="5.66084">
        <ele>229</ele>
        <time>2022-09-06T06:23:33.524Z</time>
      </trkpt>
      <trkpt lat="45.71177" lon="5.6609">
        <ele>229</ele>
        <time>2022-09-06T06:23:34.524Z</time>
      </trkpt>
      <trkpt lat="45.71185" lon="5.66095">
        <ele>228</ele>
        <time>2022-09-06T06:23:35.525Z</time>
      </trkpt>
      <trkpt lat="45.71192" lon="5.661">
        <ele>228</ele>
        <time>2022-09-06T06:23:36.524Z</time>
      </trkpt>
      <trkpt lat="45.712" lon="5.66105">
        <ele>228</ele>
        <time>2022-09-06T06:23:37.524Z</time>
      </trkpt>
      <trkpt lat="45.71208" lon="5.6611">
        <ele>229</ele>
        <time>2022-09-06T06:23:38.524Z</time>
      </trkpt>
      <trkpt lat="45.71215" lon="5.66115">
        <ele>229</ele>
        <time>2022-09-06T06:23:39.524Z</time>
      </trkpt>
      <trkpt lat="45.71223" lon="5.6612">
        <ele>229</ele>
        <time>2022-09-06T06:23:40.525Z</time>
      </trkpt>
      <trkpt lat="45.71231" lon="5.66125">
        <ele>229</ele>
        <time>2022-09-06T06:23:41.525Z</time>
      </trkpt>
      <trkpt lat="45.71239" lon="5.66129">
        <ele>229</ele>
        <time>2022-09-06T06:23:42.525Z</time>
      </trkpt>
      <trkpt lat="45.71246" lon="5.66134">
        <ele>229</ele>
        <time>2022-09-06T06:23:43.525Z</time>
      </trkpt>
      <trkpt lat="45.71254" lon="5.66138">
        <ele>229</ele>
        <time>2022-09-06T06:23:44.524Z</time>
      </trkpt>
      <trkpt lat="45.71261" lon="5.66143">
        <ele>229</ele>
        <time>2022-09-06T06:23:45.524Z</time>
      </trkpt>
      <trkpt lat="45.71269" lon="5.66148">
        <ele>228</ele>
        <time>2022-09-06T06:23:46.524Z</time>
      </trkpt>
      <trkpt lat="45.71277" lon="5.66152">
        <ele>228</ele>
        <time>2022-09-06T06:23:47.524Z</time>
      </trkpt>
      <trkpt lat="45.71284" lon="5.66157">
        <ele>228</ele>
        <time>2022-09-06T06:23:48.525Z</time>
      </trkpt>
      <trkpt lat="45.71292" lon="5.66161">
        <ele>228</ele>
        <time>2022-09-06T06:23:49.525Z</time>
      </trkpt>
      <trkpt lat="45.713" lon="5.66165">
        <ele>228</ele>
        <time>2022-09-06T06:23:50.525Z</time>
      </trkpt>
      <trkpt lat="45.71307" lon="5.6617">
        <ele>229</ele>
        <time>2022-09-06T06:23:51.524Z</time>
      </trkpt>
      <trkpt lat="45.71315" lon="5.66174">
        <ele>230</ele>
        <time>2022-09-06T06:23:52.525Z</time>
      </trkpt>
      <trkpt lat="45.71323" lon="5.66178">
        <ele>230</ele>
        <time>2022-09-06T06:23:53.525Z</time>
      </trkpt>
      <trkpt lat="45.7133" lon="5.66183">
        <ele>230</ele>
        <time>2022-09-06T06:23:54.525Z</time>
      </trkpt>
      <trkpt lat="45.71338" lon="5.66188">
        <ele>230</ele>
        <time>2022-09-06T06:23:55.525Z</time>
      </trkpt>
      <trkpt lat="45.71346" lon="5.66193">
        <ele>229</ele>
        <time>2022-09-06T06:23:56.525Z</time>
      </trkpt>
      <trkpt lat="45.71354" lon="5.66198">
        <ele>229</ele>
        <time>2022-09-06T06:23:57.525Z</time>
      </trkpt>
      <trkpt lat="45.71362" lon="5.66203">
        <ele>228</ele>
        <time>2022-09-06T06:23:58.525Z</time>
      </trkpt>
      <trkpt lat="45.71369" lon="5.66208">
        <ele>228</ele>
        <time>2022-09-06T06:23:59.525Z</time>
      </trkpt>
      <trkpt lat="45.71376" lon="5.66214">
        <ele>228</ele>
        <time>2022-09-06T06:24:00.525Z</time>
      </trkpt>
      <trkpt lat="45.71384" lon="5.66219">
        <ele>228</ele>
        <time>2022-09-06T06:24:01.525Z</time>
      </trkpt>
      <trkpt lat="45.71391" lon="5.66225">
        <ele>228</ele>
        <time>2022-09-06T06:24:02.525Z</time>
      </trkpt>
      <trkpt lat="45.71398" lon="5.66231">
        <ele>228</ele>
        <time>2022-09-06T06:24:03.525Z</time>
      </trkpt>
      <trkpt lat="45.71405" lon="5.66237">
        <ele>228</ele>
        <time>2022-09-06T06:24:04.525Z</time>
      </trkpt>
      <trkpt lat="45.71412" lon="5.66243">
        <ele>228</ele>
        <time>2022-09-06T06:24:05.525Z</time>
      </trkpt>
      <trkpt lat="45.71419" lon="5.6625">
        <ele>228</ele>
        <time>2022-09-06T06:24:06.525Z</time>
      </trkpt>
      <trkpt lat="45.71425" lon="5.66256">
        <ele>229</ele>
        <time>2022-09-06T06:24:07.525Z</time>
      </trkpt>
      <trkpt lat="45.71432" lon="5.66263">
        <ele>229</ele>
        <time>2022-09-06T06:24:08.525Z</time>
      </trkpt>
      <trkpt lat="45.71438" lon="5.66269">
        <ele>229</ele>
        <time>2022-09-06T06:24:09.525Z</time>
      </trkpt>
      <trkpt lat="45.71444" lon="5.66276">
        <ele>229</ele>
        <time>2022-09-06T06:24:10.525Z</time>
      </trkpt>
      <trkpt lat="45.71451" lon="5.66283">
        <ele>230</ele>
        <time>2022-09-06T06:24:11.525Z</time>
      </trkpt>
      <trkpt lat="45.71457" lon="5.66291">
        <ele>229</ele>
        <time>2022-09-06T06:24:12.525Z</time>
      </trkpt>
      <trkpt lat="45.71463" lon="5.66298">
        <ele>229</ele>
        <time>2022-09-06T06:24:13.525Z</time>
      </trkpt>
      <trkpt lat="45.71469" lon="5.66305">
        <ele>229</ele>
        <time>2022-09-06T06:24:14.525Z</time>
      </trkpt>
      <trkpt lat="45.71475" lon="5.66313">
        <ele>229</ele>
        <time>2022-09-06T06:24:15.525Z</time>
      </trkpt>
      <trkpt lat="45.71482" lon="5.6632">
        <ele>229</ele>
        <time>2022-09-06T06:24:16.525Z</time>
      </trkpt>
      <trkpt lat="45.71487" lon="5.66328">
        <ele>230</ele>
        <time>2022-09-06T06:24:17.524Z</time>
      </trkpt>
      <trkpt lat="45.71493" lon="5.66335">
        <ele>230</ele>
        <time>2022-09-06T06:24:18.524Z</time>
      </trkpt>
      <trkpt lat="45.71499" lon="5.66343">
        <ele>230</ele>
        <time>2022-09-06T06:24:19.525Z</time>
      </trkpt>
      <trkpt lat="45.71505" lon="5.6635">
        <ele>230</ele>
        <time>2022-09-06T06:24:20.525Z</time>
      </trkpt>
      <trkpt lat="45.71511" lon="5.66358">
        <ele>229</ele>
        <time>2022-09-06T06:24:21.525Z</time>
      </trkpt>
      <trkpt lat="45.71517" lon="5.66365">
        <ele>229</ele>
        <time>2022-09-06T06:24:22.525Z</time>
      </trkpt>
      <trkpt lat="45.71523" lon="5.66372">
        <ele>228</ele>
        <time>2022-09-06T06:24:23.525Z</time>
      </trkpt>
      <trkpt lat="45.71528" lon="5.6638">
        <ele>228</ele>
        <time>2022-09-06T06:24:24.525Z</time>
      </trkpt>
      <trkpt lat="45.71534" lon="5.66387">
        <ele>228</ele>
        <time>2022-09-06T06:24:25.525Z</time>
      </trkpt>
      <trkpt lat="45.7154" lon="5.66394">
        <ele>228</ele>
        <time>2022-09-06T06:24:26.525Z</time>
      </trkpt>
      <trkpt lat="45.71546" lon="5.66401">
        <ele>227</ele>
        <time>2022-09-06T06:24:27.525Z</time>
      </trkpt>
      <trkpt lat="45.71551" lon="5.66409">
        <ele>227</ele>
        <time>2022-09-06T06:24:28.524Z</time>
      </trkpt>
      <trkpt lat="45.71557" lon="5.66416">
        <ele>227</ele>
        <time>2022-09-06T06:24:29.525Z</time>
      </trkpt>
      <trkpt lat="45.71563" lon="5.66424">
        <ele>227</ele>
        <time>2022-09-06T06:24:30.525Z</time>
      </trkpt>
      <trkpt lat="45.71568" lon="5.66431">
        <ele>227</ele>
        <time>2022-09-06T06:24:31.525Z</time>
      </trkpt>
      <trkpt lat="45.71574" lon="5.66439">
        <ele>226</ele>
        <time>2022-09-06T06:24:32.525Z</time>
      </trkpt>
      <trkpt lat="45.71579" lon="5.66447">
        <ele>226</ele>
        <time>2022-09-06T06:24:33.525Z</time>
      </trkpt>
      <trkpt lat="45.71584" lon="5.66455">
        <ele>226</ele>
        <time>2022-09-06T06:24:34.525Z</time>
      </trkpt>
      <trkpt lat="45.7159" lon="5.66464">
        <ele>225</ele>
        <time>2022-09-06T06:24:35.524Z</time>
      </trkpt>
      <trkpt lat="45.71595" lon="5.66473">
        <ele>225</ele>
        <time>2022-09-06T06:24:36.524Z</time>
      </trkpt>
      <trkpt lat="45.716" lon="5.66482">
        <ele>225</ele>
        <time>2022-09-06T06:24:37.524Z</time>
      </trkpt>
      <trkpt lat="45.71605" lon="5.6649">
        <ele>225</ele>
        <time>2022-09-06T06:24:38.525Z</time>
      </trkpt>
      <trkpt lat="45.7161" lon="5.66499">
        <ele>225</ele>
        <time>2022-09-06T06:24:39.525Z</time>
      </trkpt>
      <trkpt lat="45.71615" lon="5.66508">
        <ele>224</ele>
        <time>2022-09-06T06:24:40.525Z</time>
      </trkpt>
      <trkpt lat="45.71619" lon="5.66517">
        <ele>224</ele>
        <time>2022-09-06T06:24:41.525Z</time>
      </trkpt>
      <trkpt lat="45.71624" lon="5.66526">
        <ele>224</ele>
        <time>2022-09-06T06:24:42.524Z</time>
      </trkpt>
      <trkpt lat="45.71628" lon="5.66536">
        <ele>224</ele>
        <time>2022-09-06T06:24:43.525Z</time>
      </trkpt>
      <trkpt lat="45.71632" lon="5.66545">
        <ele>224</ele>
        <time>2022-09-06T06:24:44.524Z</time>
      </trkpt>
      <trkpt lat="45.71636" lon="5.66554">
        <ele>225</ele>
        <time>2022-09-06T06:24:45.525Z</time>
      </trkpt>
      <trkpt lat="45.7164" lon="5.66564">
        <ele>225</ele>
        <time>2022-09-06T06:24:46.525Z</time>
      </trkpt>
      <trkpt lat="45.71644" lon="5.66573">
        <ele>225</ele>
        <time>2022-09-06T06:24:47.525Z</time>
      </trkpt>
      <trkpt lat="45.71648" lon="5.66583">
        <ele>226</ele>
        <time>2022-09-06T06:24:48.525Z</time>
      </trkpt>
      <trkpt lat="45.71652" lon="5.66592">
        <ele>226</ele>
        <time>2022-09-06T06:24:49.525Z</time>
      </trkpt>
      <trkpt lat="45.71656" lon="5.66601">
        <ele>226</ele>
        <time>2022-09-06T06:24:50.525Z</time>
      </trkpt>
      <trkpt lat="45.7166" lon="5.66611">
        <ele>226</ele>
        <time>2022-09-06T06:24:51.524Z</time>
      </trkpt>
      <trkpt lat="45.71663" lon="5.6662">
        <ele>227</ele>
        <time>2022-09-06T06:24:52.525Z</time>
      </trkpt>
      <trkpt lat="45.71667" lon="5.66629">
        <ele>227</ele>
        <time>2022-09-06T06:24:53.524Z</time>
      </trkpt>
      <trkpt lat="45.71671" lon="5.66638">
        <ele>227</ele>
        <time>2022-09-06T06:24:54.525Z</time>
      </trkpt>
      <trkpt lat="45.71675" lon="5.66647">
        <ele>227</ele>
        <time>2022-09-06T06:24:55.525Z</time>
      </trkpt>
      <trkpt lat="45.71679" lon="5.66655">
        <ele>228</ele>
        <time>2022-09-06T06:24:56.525Z</time>
      </trkpt>
      <trkpt lat="45.71684" lon="5.66663">
        <ele>228</ele>
        <time>2022-09-06T06:24:57.525Z</time>
      </trkpt>
      <trkpt lat="45.71688" lon="5.6667">
        <ele>229</ele>
        <time>2022-09-06T06:24:58.525Z</time>
      </trkpt>
      <trkpt lat="45.71691" lon="5.66678">
        <ele>229</ele>
        <time>2022-09-06T06:24:59.525Z</time>
      </trkpt>
      <trkpt lat="45.71693" lon="5.66686">
        <ele>229</ele>
        <time>2022-09-06T06:25:00.525Z</time>
      </trkpt>
      <trkpt lat="45.71692" lon="5.66694">
        <ele>229</ele>
        <time>2022-09-06T06:25:01.525Z</time>
      </trkpt>
      <trkpt lat="45.7169" lon="5.66702">
        <ele>229</ele>
        <time>2022-09-06T06:25:02.525Z</time>
      </trkpt>
      <trkpt lat="45.71687" lon="5.6671">
        <ele>228</ele>
        <time>2022-09-06T06:25:03.524Z</time>
      </trkpt>
      <trkpt lat="45.71682" lon="5.66716">
        <ele>228</ele>
        <time>2022-09-06T06:25:04.525Z</time>
      </trkpt>
      <trkpt lat="45.71676" lon="5.66722">
        <ele>228</ele>
        <time>2022-09-06T06:25:05.524Z</time>
      </trkpt>
      <trkpt lat="45.7167" lon="5.66727">
        <ele>228</ele>
        <time>2022-09-06T06:25:06.524Z</time>
      </trkpt>
      <trkpt lat="45.71664" lon="5.66733">
        <ele>228</ele>
        <time>2022-09-06T06:25:07.525Z</time>
      </trkpt>
      <trkpt lat="45.71658" lon="5.6674">
        <ele>228</ele>
        <time>2022-09-06T06:25:08.525Z</time>
      </trkpt>
      <trkpt lat="45.71651" lon="5.66746">
        <ele>228</ele>
        <time>2022-09-06T06:25:09.524Z</time>
      </trkpt>
      <trkpt lat="45.71645" lon="5.66752">
        <ele>228</ele>
        <time>2022-09-06T06:25:10.524Z</time>
      </trkpt>
      <trkpt lat="45.71638" lon="5.66759">
        <ele>229</ele>
        <time>2022-09-06T06:25:11.524Z</time>
      </trkpt>
      <trkpt lat="45.71632" lon="5.66765">
        <ele>229</ele>
        <time>2022-09-06T06:25:12.525Z</time>
      </trkpt>
      <trkpt lat="45.71625" lon="5.66771">
        <ele>229</ele>
        <time>2022-09-06T06:25:13.525Z</time>
      </trkpt>
      <trkpt lat="45.71619" lon="5.66777">
        <ele>229</ele>
        <time>2022-09-06T06:25:14.525Z</time>
      </trkpt>
      <trkpt lat="45.71613" lon="5.66784">
        <ele>229</ele>
        <time>2022-09-06T06:25:15.525Z</time>
      </trkpt>
      <trkpt lat="45.71606" lon="5.6679">
        <ele>229</ele>
        <time>2022-09-06T06:25:16.525Z</time>
      </trkpt>
      <trkpt lat="45.716" lon="5.66797">
        <ele>228</ele>
        <time>2022-09-06T06:25:17.524Z</time>
      </trkpt>
      <trkpt lat="45.71594" lon="5.66803">
        <ele>228</ele>
        <time>2022-09-06T06:25:18.525Z</time>
      </trkpt>
      <trkpt lat="45.71587" lon="5.6681">
        <ele>228</ele>
        <time>2022-09-06T06:25:19.525Z</time>
      </trkpt>
      <trkpt lat="45.71581" lon="5.66816">
        <ele>228</ele>
        <time>2022-09-06T06:25:20.525Z</time>
      </trkpt>
      <trkpt lat="45.71575" lon="5.66823">
        <ele>227</ele>
        <time>2022-09-06T06:25:21.524Z</time>
      </trkpt>
      <trkpt lat="45.71569" lon="5.66829">
        <ele>227</ele>
        <time>2022-09-06T06:25:22.525Z</time>
      </trkpt>
      <trkpt lat="45.71562" lon="5.66835">
        <ele>226</ele>
        <time>2022-09-06T06:25:23.525Z</time>
      </trkpt>
      <trkpt lat="45.71556" lon="5.66841">
        <ele>226</ele>
        <time>2022-09-06T06:25:24.525Z</time>
      </trkpt>
      <trkpt lat="45.7155" lon="5.66847">
        <ele>226</ele>
        <time>2022-09-06T06:25:25.525Z</time>
      </trkpt>
      <trkpt lat="45.71544" lon="5.66853">
        <ele>226</ele>
        <time>2022-09-06T06:25:26.524Z</time>
      </trkpt>
      <trkpt lat="45.71538" lon="5.66859">
        <ele>226</ele>
        <time>2022-09-06T06:25:27.525Z</time>
      </trkpt>
      <trkpt lat="45.71532" lon="5.66865">
        <ele>226</ele>
        <time>2022-09-06T06:25:28.525Z</time>
      </trkpt>
      <trkpt lat="45.71526" lon="5.66871">
        <ele>226</ele>
        <time>2022-09-06T06:25:29.525Z</time>
      </trkpt>
      <trkpt lat="45.7152" lon="5.66877">
        <ele>227</ele>
        <time>2022-09-06T06:25:30.525Z</time>
      </trkpt>
      <trkpt lat="45.71514" lon="5.66885">
        <ele>227</ele>
        <time>2022-09-06T06:25:31.524Z</time>
      </trkpt>
      <trkpt lat="45.7151" lon="5.6689">
        <ele>228</ele>
        <time>2022-09-06T06:25:32.525Z</time>
      </trkpt>
      <trkpt lat="45.71505" lon="5.66896">
        <ele>228</ele>
        <time>2022-09-06T06:25:33.525Z</time>
      </trkpt>
      <trkpt lat="45.715" lon="5.66903">
        <ele>229</ele>
        <time>2022-09-06T06:25:34.525Z</time>
      </trkpt>
      <trkpt lat="45.71495" lon="5.66909">
        <ele>229</ele>
        <time>2022-09-06T06:25:35.525Z</time>
      </trkpt>
      <trkpt lat="45.7149" lon="5.66916">
        <ele>230</ele>
        <time>2022-09-06T06:25:36.525Z</time>
      </trkpt>
      <trkpt lat="45.71486" lon="5.66923">
        <ele>231</ele>
        <time>2022-09-06T06:25:37.525Z</time>
      </trkpt>
      <trkpt lat="45.71481" lon="5.66931">
        <ele>232</ele>
        <time>2022-09-06T06:25:38.525Z</time>
      </trkpt>
      <trkpt lat="45.71477" lon="5.66938">
        <ele>233</ele>
        <time>2022-09-06T06:25:39.525Z</time>
      </trkpt>
      <trkpt lat="45.71472" lon="5.66945">
        <ele>233</ele>
        <time>2022-09-06T06:25:40.525Z</time>
      </trkpt>
      <trkpt lat="45.71468" lon="5.66952">
        <ele>234</ele>
        <time>2022-09-06T06:25:41.525Z</time>
      </trkpt>
      <trkpt lat="45.71463" lon="5.66961">
        <ele>235</ele>
        <time>2022-09-06T06:25:42.525Z</time>
      </trkpt>
      <trkpt lat="45.71459" lon="5.66968">
        <ele>236</ele>
        <time>2022-09-06T06:25:43.524Z</time>
      </trkpt>
      <trkpt lat="45.71456" lon="5.66974">
        <ele>236</ele>
        <time>2022-09-06T06:25:44.524Z</time>
      </trkpt>
      <trkpt lat="45.71452" lon="5.66981">
        <ele>237</ele>
        <time>2022-09-06T06:25:45.525Z</time>
      </trkpt>
      <trkpt lat="45.71448" lon="5.66988">
        <ele>237</ele>
        <time>2022-09-06T06:25:46.524Z</time>
      </trkpt>
      <trkpt lat="45.71445" lon="5.66995">
        <ele>238</ele>
        <time>2022-09-06T06:25:47.525Z</time>
      </trkpt>
      <trkpt lat="45.71441" lon="5.67003">
        <ele>240</ele>
        <time>2022-09-06T06:25:48.525Z</time>
      </trkpt>
      <trkpt lat="45.71437" lon="5.6701">
        <ele>241</ele>
        <time>2022-09-06T06:25:49.525Z</time>
      </trkpt>
      <trkpt lat="45.71433" lon="5.67018">
        <ele>242</ele>
        <time>2022-09-06T06:25:50.525Z</time>
      </trkpt>
      <trkpt lat="45.71429" lon="5.67025">
        <ele>243</ele>
        <time>2022-09-06T06:25:51.524Z</time>
      </trkpt>
      <trkpt lat="45.71425" lon="5.67031">
        <ele>243</ele>
        <time>2022-09-06T06:25:52.525Z</time>
      </trkpt>
      <trkpt lat="45.71421" lon="5.67038">
        <ele>244</ele>
        <time>2022-09-06T06:25:53.525Z</time>
      </trkpt>
      <trkpt lat="45.71416" lon="5.67045">
        <ele>245</ele>
        <time>2022-09-06T06:25:54.525Z</time>
      </trkpt>
      <trkpt lat="45.71412" lon="5.67053">
        <ele>245</ele>
        <time>2022-09-06T06:25:55.525Z</time>
      </trkpt>
      <trkpt lat="45.71408" lon="5.6706">
        <ele>247</ele>
        <time>2022-09-06T06:25:56.524Z</time>
      </trkpt>
      <trkpt lat="45.71404" lon="5.67068">
        <ele>248</ele>
        <time>2022-09-06T06:25:57.525Z</time>
      </trkpt>
      <trkpt lat="45.71401" lon="5.67078">
        <ele>251</ele>
        <time>2022-09-06T06:25:58.524Z</time>
      </trkpt>
      <trkpt lat="45.71397" lon="5.67086">
        <ele>253</ele>
        <time>2022-09-06T06:25:59.524Z</time>
      </trkpt>
      <trkpt lat="45.71391" lon="5.67093">
        <ele>255</ele>
        <time>2022-09-06T06:26:00.525Z</time>
      </trkpt>
      <trkpt lat="45.71386" lon="5.67099">
        <ele>257</ele>
        <time>2022-09-06T06:26:01.525Z</time>
      </trkpt>
      <trkpt lat="45.7138" lon="5.67105">
        <ele>259</ele>
        <time>2022-09-06T06:26:02.525Z</time>
      </trkpt>
      <trkpt lat="45.71374" lon="5.67111">
        <ele>261</ele>
        <time>2022-09-06T06:26:03.524Z</time>
      </trkpt>
      <trkpt lat="45.71368" lon="5.67117">
        <ele>263</ele>
        <time>2022-09-06T06:26:04.525Z</time>
      </trkpt>
      <trkpt lat="45.71361" lon="5.67123">
        <ele>264</ele>
        <time>2022-09-06T06:26:05.525Z</time>
      </trkpt>
      <trkpt lat="45.71353" lon="5.67127">
        <ele>265</ele>
        <time>2022-09-06T06:26:06.524Z</time>
      </trkpt>
      <trkpt lat="45.71344" lon="5.6713">
        <ele>266</ele>
        <time>2022-09-06T06:26:07.525Z</time>
      </trkpt>
      <trkpt lat="45.71335" lon="5.67132">
        <ele>266</ele>
        <time>2022-09-06T06:26:08.524Z</time>
      </trkpt>
      <trkpt lat="45.71326" lon="5.67134">
        <ele>265</ele>
        <time>2022-09-06T06:26:09.524Z</time>
      </trkpt>
      <trkpt lat="45.71317" lon="5.67137">
        <ele>264</ele>
        <time>2022-09-06T06:26:10.525Z</time>
      </trkpt>
      <trkpt lat="45.71308" lon="5.6714">
        <ele>263</ele>
        <time>2022-09-06T06:26:11.525Z</time>
      </trkpt>
      <trkpt lat="45.71301" lon="5.67144">
        <ele>261</ele>
        <time>2022-09-06T06:26:12.524Z</time>
      </trkpt>
      <trkpt lat="45.71292" lon="5.67148">
        <ele>259</ele>
        <time>2022-09-06T06:26:13.525Z</time>
      </trkpt>
      <trkpt lat="45.71284" lon="5.67151">
        <ele>258</ele>
        <time>2022-09-06T06:26:14.524Z</time>
      </trkpt>
      <trkpt lat="45.71276" lon="5.67155">
        <ele>256</ele>
        <time>2022-09-06T06:26:15.524Z</time>
      </trkpt>
      <trkpt lat="45.71267" lon="5.67159">
        <ele>254</ele>
        <time>2022-09-06T06:26:16.525Z</time>
      </trkpt>
      <trkpt lat="45.71259" lon="5.67163">
        <ele>252</ele>
        <time>2022-09-06T06:26:17.525Z</time>
      </trkpt>
      <trkpt lat="45.71251" lon="5.67166">
        <ele>250</ele>
        <time>2022-09-06T06:26:18.525Z</time>
      </trkpt>
      <trkpt lat="45.71243" lon="5.67171">
        <ele>249</ele>
        <time>2022-09-06T06:26:19.525Z</time>
      </trkpt>
      <trkpt lat="45.71235" lon="5.67175">
        <ele>247</ele>
        <time>2022-09-06T06:26:20.525Z</time>
      </trkpt>
      <trkpt lat="45.71228" lon="5.67179">
        <ele>246</ele>
        <time>2022-09-06T06:26:21.525Z</time>
      </trkpt>
      <trkpt lat="45.7122" lon="5.67184">
        <ele>246</ele>
        <time>2022-09-06T06:26:22.524Z</time>
      </trkpt>
      <trkpt lat="45.71212" lon="5.67189">
        <ele>245</ele>
        <time>2022-09-06T06:26:23.524Z</time>
      </trkpt>
      <trkpt lat="45.71204" lon="5.67194">
        <ele>245</ele>
        <time>2022-09-06T06:26:24.525Z</time>
      </trkpt>
      <trkpt lat="45.71197" lon="5.67199">
        <ele>245</ele>
        <time>2022-09-06T06:26:25.524Z</time>
      </trkpt>
      <trkpt lat="45.71187" lon="5.67205">
        <ele>244</ele>
        <time>2022-09-06T06:26:26.525Z</time>
      </trkpt>
      <trkpt lat="45.71181" lon="5.6721">
        <ele>244</ele>
        <time>2022-09-06T06:26:27.524Z</time>
      </trkpt>
      <trkpt lat="45.71174" lon="5.67216">
        <ele>243</ele>
        <time>2022-09-06T06:26:28.525Z</time>
      </trkpt>
      <trkpt lat="45.71166" lon="5.67222">
        <ele>243</ele>
        <time>2022-09-06T06:26:29.525Z</time>
      </trkpt>
      <trkpt lat="45.71159" lon="5.67228">
        <ele>243</ele>
        <time>2022-09-06T06:26:30.524Z</time>
      </trkpt>
      <trkpt lat="45.71152" lon="5.67234">
        <ele>243</ele>
        <time>2022-09-06T06:26:31.525Z</time>
      </trkpt>
      <trkpt lat="45.71144" lon="5.67239">
        <ele>243</ele>
        <time>2022-09-06T06:26:32.524Z</time>
      </trkpt>
      <trkpt lat="45.71136" lon="5.67246">
        <ele>243</ele>
        <time>2022-09-06T06:26:33.525Z</time>
      </trkpt>
      <trkpt lat="45.71128" lon="5.67252">
        <ele>243</ele>
        <time>2022-09-06T06:26:34.525Z</time>
      </trkpt>
      <trkpt lat="45.71121" lon="5.67258">
        <ele>243</ele>
        <time>2022-09-06T06:26:35.524Z</time>
      </trkpt>
      <trkpt lat="45.71114" lon="5.67264">
        <ele>243</ele>
        <time>2022-09-06T06:26:36.525Z</time>
      </trkpt>
      <trkpt lat="45.71105" lon="5.67271">
        <ele>243</ele>
        <time>2022-09-06T06:26:37.525Z</time>
      </trkpt>
      <trkpt lat="45.71098" lon="5.67278">
        <ele>244</ele>
        <time>2022-09-06T06:26:38.525Z</time>
      </trkpt>
      <trkpt lat="45.71092" lon="5.67283">
        <ele>244</ele>
        <time>2022-09-06T06:26:39.524Z</time>
      </trkpt>
      <trkpt lat="45.71084" lon="5.6729">
        <ele>244</ele>
        <time>2022-09-06T06:26:40.525Z</time>
      </trkpt>
      <trkpt lat="45.71076" lon="5.67296">
        <ele>244</ele>
        <time>2022-09-06T06:26:41.525Z</time>
      </trkpt>
      <trkpt lat="45.71069" lon="5.67301">
        <ele>245</ele>
        <time>2022-09-06T06:26:42.525Z</time>
      </trkpt>
      <trkpt lat="45.71061" lon="5.67306">
        <ele>245</ele>
        <time>2022-09-06T06:26:43.524Z</time>
      </trkpt>
      <trkpt lat="45.71053" lon="5.67311">
        <ele>245</ele>
        <time>2022-09-06T06:26:44.525Z</time>
      </trkpt>
      <trkpt lat="45.71045" lon="5.67316">
        <ele>244</ele>
        <time>2022-09-06T06:26:45.525Z</time>
      </trkpt>
      <trkpt lat="45.71038" lon="5.67322">
        <ele>243</ele>
        <time>2022-09-06T06:26:46.525Z</time>
      </trkpt>
      <trkpt lat="45.7103" lon="5.67325">
        <ele>242</ele>
        <time>2022-09-06T06:26:47.525Z</time>
      </trkpt>
      <trkpt lat="45.71023" lon="5.6733">
        <ele>242</ele>
        <time>2022-09-06T06:26:48.525Z</time>
      </trkpt>
      <trkpt lat="45.71015" lon="5.67336">
        <ele>241</ele>
        <time>2022-09-06T06:26:49.525Z</time>
      </trkpt>
      <trkpt lat="45.71007" lon="5.67343">
        <ele>240</ele>
        <time>2022-09-06T06:26:50.525Z</time>
      </trkpt>
      <trkpt lat="45.71" lon="5.67351">
        <ele>239</ele>
        <time>2022-09-06T06:26:51.525Z</time>
      </trkpt>
      <trkpt lat="45.70993" lon="5.67358">
        <ele>238</ele>
        <time>2022-09-06T06:26:52.525Z</time>
      </trkpt>
      <trkpt lat="45.70986" lon="5.67367">
        <ele>238</ele>
        <time>2022-09-06T06:26:53.524Z</time>
      </trkpt>
      <trkpt lat="45.7098" lon="5.67375">
        <ele>237</ele>
        <time>2022-09-06T06:26:54.525Z</time>
      </trkpt>
      <trkpt lat="45.70974" lon="5.67385">
        <ele>236</ele>
        <time>2022-09-06T06:26:55.524Z</time>
      </trkpt>
      <trkpt lat="45.70968" lon="5.67394">
        <ele>236</ele>
        <time>2022-09-06T06:26:56.525Z</time>
      </trkpt>
      <trkpt lat="45.70963" lon="5.67403">
        <ele>236</ele>
        <time>2022-09-06T06:26:57.524Z</time>
      </trkpt>
      <trkpt lat="45.70958" lon="5.67413">
        <ele>236</ele>
        <time>2022-09-06T06:26:58.524Z</time>
      </trkpt>
      <trkpt lat="45.70952" lon="5.67424">
        <ele>235</ele>
        <time>2022-09-06T06:26:59.525Z</time>
      </trkpt>
      <trkpt lat="45.70948" lon="5.67434">
        <ele>234</ele>
        <time>2022-09-06T06:27:00.525Z</time>
      </trkpt>
      <trkpt lat="45.70944" lon="5.67445">
        <ele>233</ele>
        <time>2022-09-06T06:27:01.524Z</time>
      </trkpt>
      <trkpt lat="45.7094" lon="5.67456">
        <ele>233</ele>
        <time>2022-09-06T06:27:02.525Z</time>
      </trkpt>
      <trkpt lat="45.70936" lon="5.67467">
        <ele>232</ele>
        <time>2022-09-06T06:27:03.525Z</time>
      </trkpt>
      <trkpt lat="45.70933" lon="5.67479">
        <ele>232</ele>
        <time>2022-09-06T06:27:04.525Z</time>
      </trkpt>
      <trkpt lat="45.7093" lon="5.6749">
        <ele>231</ele>
        <time>2022-09-06T06:27:05.525Z</time>
      </trkpt>
      <trkpt lat="45.70927" lon="5.67502">
        <ele>231</ele>
        <time>2022-09-06T06:27:06.525Z</time>
      </trkpt>
      <trkpt lat="45.70925" lon="5.67514">
        <ele>231</ele>
        <time>2022-09-06T06:27:07.525Z</time>
      </trkpt>
      <trkpt lat="45.70923" lon="5.67527">
        <ele>231</ele>
        <time>2022-09-06T06:27:08.525Z</time>
      </trkpt>
      <trkpt lat="45.70922" lon="5.67539">
        <ele>231</ele>
        <time>2022-09-06T06:27:09.525Z</time>
      </trkpt>
      <trkpt lat="45.7092" lon="5.67551">
        <ele>231</ele>
        <time>2022-09-06T06:27:10.525Z</time>
      </trkpt>
      <trkpt lat="45.70919" lon="5.67562">
        <ele>230</ele>
        <time>2022-09-06T06:27:11.524Z</time>
      </trkpt>
      <trkpt lat="45.70916" lon="5.67574">
        <ele>230</ele>
        <time>2022-09-06T06:27:12.524Z</time>
      </trkpt>
      <trkpt lat="45.70914" lon="5.67585">
        <ele>229</ele>
        <time>2022-09-06T06:27:13.524Z</time>
      </trkpt>
      <trkpt lat="45.70912" lon="5.67595">
        <ele>229</ele>
        <time>2022-09-06T06:27:14.524Z</time>
      </trkpt>
      <trkpt lat="45.70909" lon="5.67603">
        <ele>229</ele>
        <time>2022-09-06T06:27:15.524Z</time>
      </trkpt>
      <trkpt lat="45.70905" lon="5.67612">
        <ele>229</ele>
        <time>2022-09-06T06:27:16.524Z</time>
      </trkpt>
      <trkpt lat="45.70901" lon="5.6762">
        <ele>228</ele>
        <time>2022-09-06T06:27:17.525Z</time>
      </trkpt>
      <trkpt lat="45.70897" lon="5.67626">
        <ele>228</ele>
        <time>2022-09-06T06:27:18.525Z</time>
      </trkpt>
      <trkpt lat="45.70892" lon="5.67632">
        <ele>228</ele>
        <time>2022-09-06T06:27:19.525Z</time>
      </trkpt>
      <trkpt lat="45.7089" lon="5.67639">
        <ele>228</ele>
        <time>2022-09-06T06:27:20.525Z</time>
      </trkpt>
      <trkpt lat="45.70888" lon="5.67646">
        <ele>228</ele>
        <time>2022-09-06T06:27:21.525Z</time>
      </trkpt>
      <trkpt lat="45.70889" lon="5.6765">
        <ele>228</ele>
        <time>2022-09-06T06:27:22.524Z</time>
      </trkpt>
      <trkpt lat="45.70891" lon="5.67655">
        <ele>228</ele>
        <time>2022-09-06T06:27:23.525Z</time>
      </trkpt>
      <trkpt lat="45.70895" lon="5.67661">
        <ele>229</ele>
        <time>2022-09-06T06:27:24.524Z</time>
      </trkpt>
      <trkpt lat="45.70899" lon="5.67667">
        <ele>229</ele>
        <time>2022-09-06T06:27:25.525Z</time>
      </trkpt>
      <trkpt lat="45.70903" lon="5.67674">
        <ele>229</ele>
        <time>2022-09-06T06:27:26.525Z</time>
      </trkpt>
      <trkpt lat="45.70906" lon="5.67684">
        <ele>229</ele>
        <time>2022-09-06T06:27:27.525Z</time>
      </trkpt>
      <trkpt lat="45.70907" lon="5.67695">
        <ele>229</ele>
        <time>2022-09-06T06:27:28.524Z</time>
      </trkpt>
      <trkpt lat="45.70909" lon="5.67705">
        <ele>229</ele>
        <time>2022-09-06T06:27:29.525Z</time>
      </trkpt>
      <trkpt lat="45.7091" lon="5.67717">
        <ele>230</ele>
        <time>2022-09-06T06:27:30.525Z</time>
      </trkpt>
      <trkpt lat="45.70911" lon="5.67728">
        <ele>230</ele>
        <time>2022-09-06T06:27:31.525Z</time>
      </trkpt>
      <trkpt lat="45.70912" lon="5.67739">
        <ele>230</ele>
        <time>2022-09-06T06:27:32.525Z</time>
      </trkpt>
      <trkpt lat="45.70913" lon="5.6775">
        <ele>230</ele>
        <time>2022-09-06T06:27:33.525Z</time>
      </trkpt>
      <trkpt lat="45.70913" lon="5.67761">
        <ele>229</ele>
        <time>2022-09-06T06:27:34.524Z</time>
      </trkpt>
      <trkpt lat="45.70913" lon="5.67772">
        <ele>229</ele>
        <time>2022-09-06T06:27:35.524Z</time>
      </trkpt>
      <trkpt lat="45.70913" lon="5.67782">
        <ele>228</ele>
        <time>2022-09-06T06:27:36.525Z</time>
      </trkpt>
      <trkpt lat="45.70913" lon="5.67793">
        <ele>228</ele>
        <time>2022-09-06T06:27:37.525Z</time>
      </trkpt>
      <trkpt lat="45.70914" lon="5.67804">
        <ele>227</ele>
        <time>2022-09-06T06:27:38.525Z</time>
      </trkpt>
      <trkpt lat="45.70914" lon="5.67815">
        <ele>227</ele>
        <time>2022-09-06T06:27:39.524Z</time>
      </trkpt>
      <trkpt lat="45.70914" lon="5.67826">
        <ele>227</ele>
        <time>2022-09-06T06:27:40.524Z</time>
      </trkpt>
      <trkpt lat="45.70913" lon="5.67838">
        <ele>227</ele>
        <time>2022-09-06T06:27:41.525Z</time>
      </trkpt>
      <trkpt lat="45.70913" lon="5.67849">
        <ele>227</ele>
        <time>2022-09-06T06:27:42.525Z</time>
      </trkpt>
      <trkpt lat="45.70913" lon="5.6786">
        <ele>227</ele>
        <time>2022-09-06T06:27:43.525Z</time>
      </trkpt>
      <trkpt lat="45.70912" lon="5.67871">
        <ele>227</ele>
        <time>2022-09-06T06:27:44.525Z</time>
      </trkpt>
      <trkpt lat="45.70912" lon="5.67882">
        <ele>227</ele>
        <time>2022-09-06T06:27:45.525Z</time>
      </trkpt>
      <trkpt lat="45.70912" lon="5.67893">
        <ele>227</ele>
        <time>2022-09-06T06:27:46.524Z</time>
      </trkpt>
      <trkpt lat="45.70911" lon="5.67904">
        <ele>227</ele>
        <time>2022-09-06T06:27:47.524Z</time>
      </trkpt>
      <trkpt lat="45.70911" lon="5.67915">
        <ele>226</ele>
        <time>2022-09-06T06:27:48.524Z</time>
      </trkpt>
      <trkpt lat="45.70911" lon="5.67925">
        <ele>226</ele>
        <time>2022-09-06T06:27:49.525Z</time>
      </trkpt>
      <trkpt lat="45.7091" lon="5.67937">
        <ele>226</ele>
        <time>2022-09-06T06:27:50.525Z</time>
      </trkpt>
      <trkpt lat="45.7091" lon="5.67947">
        <ele>225</ele>
        <time>2022-09-06T06:27:51.525Z</time>
      </trkpt>
      <trkpt lat="45.7091" lon="5.67958">
        <ele>225</ele>
        <time>2022-09-06T06:27:52.525Z</time>
      </trkpt>
      <trkpt lat="45.7091" lon="5.67969">
        <ele>224</ele>
        <time>2022-09-06T06:27:53.525Z</time>
      </trkpt>
      <trkpt lat="45.7091" lon="5.6798">
        <ele>224</ele>
        <time>2022-09-06T06:27:54.525Z</time>
      </trkpt>
      <trkpt lat="45.7091" lon="5.67991">
        <ele>224</ele>
        <time>2022-09-06T06:27:55.525Z</time>
      </trkpt>
      <trkpt lat="45.7091" lon="5.68001">
        <ele>223</ele>
        <time>2022-09-06T06:27:56.525Z</time>
      </trkpt>
      <trkpt lat="45.70911" lon="5.68012">
        <ele>223</ele>
        <time>2022-09-06T06:27:57.525Z</time>
      </trkpt>
      <trkpt lat="45.70912" lon="5.68022">
        <ele>224</ele>
        <time>2022-09-06T06:27:58.525Z</time>
      </trkpt>
      <trkpt lat="45.70913" lon="5.68032">
        <ele>224</ele>
        <time>2022-09-06T06:27:59.525Z</time>
      </trkpt>
      <trkpt lat="45.70914" lon="5.68042">
        <ele>224</ele>
        <time>2022-09-06T06:28:00.525Z</time>
      </trkpt>
      <trkpt lat="45.70915" lon="5.68052">
        <ele>224</ele>
        <time>2022-09-06T06:28:01.525Z</time>
      </trkpt>
      <trkpt lat="45.70917" lon="5.68063">
        <ele>225</ele>
        <time>2022-09-06T06:28:02.524Z</time>
      </trkpt>
      <trkpt lat="45.70918" lon="5.68073">
        <ele>225</ele>
        <time>2022-09-06T06:28:03.525Z</time>
      </trkpt>
      <trkpt lat="45.70919" lon="5.68083">
        <ele>225</ele>
        <time>2022-09-06T06:28:04.525Z</time>
      </trkpt>
      <trkpt lat="45.7092" lon="5.68094">
        <ele>226</ele>
        <time>2022-09-06T06:28:05.525Z</time>
      </trkpt>
      <trkpt lat="45.70921" lon="5.68104">
        <ele>226</ele>
        <time>2022-09-06T06:28:06.525Z</time>
      </trkpt>
      <trkpt lat="45.70922" lon="5.68115">
        <ele>226</ele>
        <time>2022-09-06T06:28:07.525Z</time>
      </trkpt>
      <trkpt lat="45.70923" lon="5.68125">
        <ele>226</ele>
        <time>2022-09-06T06:28:08.524Z</time>
      </trkpt>
      <trkpt lat="45.70924" lon="5.68135">
        <ele>226</ele>
        <time>2022-09-06T06:28:09.525Z</time>
      </trkpt>
      <trkpt lat="45.70925" lon="5.68145">
        <ele>226</ele>
        <time>2022-09-06T06:28:10.525Z</time>
      </trkpt>
      <trkpt lat="45.70927" lon="5.68154">
        <ele>226</ele>
        <time>2022-09-06T06:28:11.525Z</time>
      </trkpt>
      <trkpt lat="45.70929" lon="5.68164">
        <ele>226</ele>
        <time>2022-09-06T06:28:12.525Z</time>
      </trkpt>
      <trkpt lat="45.70931" lon="5.68173">
        <ele>226</ele>
        <time>2022-09-06T06:28:13.525Z</time>
      </trkpt>
      <trkpt lat="45.70933" lon="5.68181">
        <ele>226</ele>
        <time>2022-09-06T06:28:14.525Z</time>
      </trkpt>
      <trkpt lat="45.70936" lon="5.68189">
        <ele>226</ele>
        <time>2022-09-06T06:28:15.525Z</time>
      </trkpt>
      <trkpt lat="45.7094" lon="5.68196">
        <ele>226</ele>
        <time>2022-09-06T06:28:16.524Z</time>
      </trkpt>
      <trkpt lat="45.70945" lon="5.68203">
        <ele>226</ele>
        <time>2022-09-06T06:28:17.525Z</time>
      </trkpt>
      <trkpt lat="45.7095" lon="5.68209">
        <ele>226</ele>
        <time>2022-09-06T06:28:18.524Z</time>
      </trkpt>
      <trkpt lat="45.70955" lon="5.68215">
        <ele>227</ele>
        <time>2022-09-06T06:28:19.524Z</time>
      </trkpt>
      <trkpt lat="45.7096" lon="5.68221">
        <ele>228</ele>
        <time>2022-09-06T06:28:20.525Z</time>
      </trkpt>
      <trkpt lat="45.70964" lon="5.68227">
        <ele>228</ele>
        <time>2022-09-06T06:28:21.525Z</time>
      </trkpt>
      <trkpt lat="45.70968" lon="5.68234">
        <ele>229</ele>
        <time>2022-09-06T06:28:22.525Z</time>
      </trkpt>
      <trkpt lat="45.70971" lon="5.68242">
        <ele>229</ele>
        <time>2022-09-06T06:28:23.524Z</time>
      </trkpt>
      <trkpt lat="45.70975" lon="5.68249">
        <ele>230</ele>
        <time>2022-09-06T06:28:24.525Z</time>
      </trkpt>
      <trkpt lat="45.70977" lon="5.68257">
        <ele>230</ele>
        <time>2022-09-06T06:28:25.525Z</time>
      </trkpt>
      <trkpt lat="45.7098" lon="5.68264">
        <ele>230</ele>
        <time>2022-09-06T06:28:26.524Z</time>
      </trkpt>
      <trkpt lat="45.70981" lon="5.68272">
        <ele>230</ele>
        <time>2022-09-06T06:28:27.525Z</time>
      </trkpt>
      <trkpt lat="45.70983" lon="5.6828">
        <ele>230</ele>
        <time>2022-09-06T06:28:28.525Z</time>
      </trkpt>
      <trkpt lat="45.70984" lon="5.68289">
        <ele>230</ele>
        <time>2022-09-06T06:28:29.524Z</time>
      </trkpt>
      <trkpt lat="45.70984" lon="5.68298">
        <ele>230</ele>
        <time>2022-09-06T06:28:30.525Z</time>
      </trkpt>
      <trkpt lat="45.70984" lon="5.68307">
        <ele>230</ele>
        <time>2022-09-06T06:28:31.525Z</time>
      </trkpt>
      <trkpt lat="45.70984" lon="5.68317">
        <ele>229</ele>
        <time>2022-09-06T06:28:32.525Z</time>
      </trkpt>
      <trkpt lat="45.70982" lon="5.68327">
        <ele>229</ele>
        <time>2022-09-06T06:28:33.525Z</time>
      </trkpt>
      <trkpt lat="45.7098" lon="5.68337">
        <ele>229</ele>
        <time>2022-09-06T06:28:34.525Z</time>
      </trkpt>
      <trkpt lat="45.70979" lon="5.68347">
        <ele>229</ele>
        <time>2022-09-06T06:28:35.525Z</time>
      </trkpt>
      <trkpt lat="45.70978" lon="5.68357">
        <ele>229</ele>
        <time>2022-09-06T06:28:36.524Z</time>
      </trkpt>
      <trkpt lat="45.70977" lon="5.68367">
        <ele>229</ele>
        <time>2022-09-06T06:28:37.525Z</time>
      </trkpt>
      <trkpt lat="45.70976" lon="5.68378">
        <ele>230</ele>
        <time>2022-09-06T06:28:38.525Z</time>
      </trkpt>
      <trkpt lat="45.70975" lon="5.68388">
        <ele>230</ele>
        <time>2022-09-06T06:28:39.525Z</time>
      </trkpt>
      <trkpt lat="45.70975" lon="5.68398">
        <ele>230</ele>
        <time>2022-09-06T06:28:40.525Z</time>
      </trkpt>
      <trkpt lat="45.70974" lon="5.68409">
        <ele>230</ele>
        <time>2022-09-06T06:28:41.524Z</time>
      </trkpt>
      <trkpt lat="45.70974" lon="5.68419">
        <ele>230</ele>
        <time>2022-09-06T06:28:42.525Z</time>
      </trkpt>
      <trkpt lat="45.70973" lon="5.68429">
        <ele>231</ele>
        <time>2022-09-06T06:28:43.524Z</time>
      </trkpt>
      <trkpt lat="45.70971" lon="5.68439">
        <ele>231</ele>
        <time>2022-09-06T06:28:44.525Z</time>
      </trkpt>
      <trkpt lat="45.70969" lon="5.68449">
        <ele>231</ele>
        <time>2022-09-06T06:28:45.525Z</time>
      </trkpt>
      <trkpt lat="45.70965" lon="5.68459">
        <ele>231</ele>
        <time>2022-09-06T06:28:46.525Z</time>
      </trkpt>
      <trkpt lat="45.7096" lon="5.68468">
        <ele>231</ele>
        <time>2022-09-06T06:28:47.525Z</time>
      </trkpt>
      <trkpt lat="45.70955" lon="5.68476">
        <ele>231</ele>
        <time>2022-09-06T06:28:48.525Z</time>
      </trkpt>
      <trkpt lat="45.70948" lon="5.68485">
        <ele>230</ele>
        <time>2022-09-06T06:28:49.524Z</time>
      </trkpt>
      <trkpt lat="45.70941" lon="5.68495">
        <ele>229</ele>
        <time>2022-09-06T06:28:50.524Z</time>
      </trkpt>
      <trkpt lat="45.70934" lon="5.68504">
        <ele>229</ele>
        <time>2022-09-06T06:28:51.525Z</time>
      </trkpt>
      <trkpt lat="45.70929" lon="5.68512">
        <ele>228</ele>
        <time>2022-09-06T06:28:52.524Z</time>
      </trkpt>
      <trkpt lat="45.70923" lon="5.68522">
        <ele>228</ele>
        <time>2022-09-06T06:28:53.524Z</time>
      </trkpt>
      <trkpt lat="45.70918" lon="5.68533">
        <ele>228</ele>
        <time>2022-09-06T06:28:54.524Z</time>
      </trkpt>
      <trkpt lat="45.70912" lon="5.68546">
        <ele>228</ele>
        <time>2022-09-06T06:28:55.525Z</time>
      </trkpt>
      <trkpt lat="45.70908" lon="5.68555">
        <ele>228</ele>
        <time>2022-09-06T06:28:56.524Z</time>
      </trkpt>
      <trkpt lat="45.70904" lon="5.68567">
        <ele>228</ele>
        <time>2022-09-06T06:28:57.525Z</time>
      </trkpt>
      <trkpt lat="45.70901" lon="5.68578">
        <ele>228</ele>
        <time>2022-09-06T06:28:58.525Z</time>
      </trkpt>
      <trkpt lat="45.70897" lon="5.6859">
        <ele>227</ele>
        <time>2022-09-06T06:28:59.525Z</time>
      </trkpt>
      <trkpt lat="45.70892" lon="5.68604">
        <ele>227</ele>
        <time>2022-09-06T06:29:00.525Z</time>
      </trkpt>
      <trkpt lat="45.70889" lon="5.68616">
        <ele>227</ele>
        <time>2022-09-06T06:29:01.525Z</time>
      </trkpt>
      <trkpt lat="45.70887" lon="5.68626">
        <ele>227</ele>
        <time>2022-09-06T06:29:02.524Z</time>
      </trkpt>
      <trkpt lat="45.70885" lon="5.68638">
        <ele>226</ele>
        <time>2022-09-06T06:29:03.525Z</time>
      </trkpt>
      <trkpt lat="45.70883" lon="5.68653">
        <ele>226</ele>
        <time>2022-09-06T06:29:04.525Z</time>
      </trkpt>
      <trkpt lat="45.70883" lon="5.68662">
        <ele>226</ele>
        <time>2022-09-06T06:29:05.524Z</time>
      </trkpt>
      <trkpt lat="45.70882" lon="5.68675">
        <ele>226</ele>
        <time>2022-09-06T06:29:06.524Z</time>
      </trkpt>
      <trkpt lat="45.70883" lon="5.68687">
        <ele>226</ele>
        <time>2022-09-06T06:29:07.525Z</time>
      </trkpt>
      <trkpt lat="45.70884" lon="5.68699">
        <ele>226</ele>
        <time>2022-09-06T06:29:08.524Z</time>
      </trkpt>
      <trkpt lat="45.70885" lon="5.68711">
        <ele>226</ele>
        <time>2022-09-06T06:29:09.524Z</time>
      </trkpt>
      <trkpt lat="45.70886" lon="5.68724">
        <ele>226</ele>
        <time>2022-09-06T06:29:10.524Z</time>
      </trkpt>
      <trkpt lat="45.70888" lon="5.68736">
        <ele>226</ele>
        <time>2022-09-06T06:29:11.524Z</time>
      </trkpt>
      <trkpt lat="45.7089" lon="5.68745">
        <ele>226</ele>
        <time>2022-09-06T06:29:12.525Z</time>
      </trkpt>
      <trkpt lat="45.70892" lon="5.68756">
        <ele>226</ele>
        <time>2022-09-06T06:29:13.525Z</time>
      </trkpt>
      <trkpt lat="45.70894" lon="5.68766">
        <ele>226</ele>
        <time>2022-09-06T06:29:14.525Z</time>
      </trkpt>
      <trkpt lat="45.70896" lon="5.68777">
        <ele>226</ele>
        <time>2022-09-06T06:29:15.525Z</time>
      </trkpt>
      <trkpt lat="45.70898" lon="5.68788">
        <ele>226</ele>
        <time>2022-09-06T06:29:16.524Z</time>
      </trkpt>
      <trkpt lat="45.709" lon="5.68799">
        <ele>227</ele>
        <time>2022-09-06T06:29:17.525Z</time>
      </trkpt>
      <trkpt lat="45.70902" lon="5.68809">
        <ele>227</ele>
        <time>2022-09-06T06:29:18.525Z</time>
      </trkpt>
      <trkpt lat="45.70904" lon="5.6882">
        <ele>227</ele>
        <time>2022-09-06T06:29:19.525Z</time>
      </trkpt>
      <trkpt lat="45.70905" lon="5.6883">
        <ele>227</ele>
        <time>2022-09-06T06:29:20.525Z</time>
      </trkpt>
      <trkpt lat="45.70906" lon="5.68841">
        <ele>228</ele>
        <time>2022-09-06T06:29:21.525Z</time>
      </trkpt>
      <trkpt lat="45.70906" lon="5.68852">
        <ele>228</ele>
        <time>2022-09-06T06:29:22.524Z</time>
      </trkpt>
      <trkpt lat="45.70906" lon="5.68863">
        <ele>228</ele>
        <time>2022-09-06T06:29:23.525Z</time>
      </trkpt>
      <trkpt lat="45.70905" lon="5.68874">
        <ele>228</ele>
        <time>2022-09-06T06:29:24.524Z</time>
      </trkpt>
      <trkpt lat="45.70904" lon="5.68885">
        <ele>228</ele>
        <time>2022-09-06T06:29:25.525Z</time>
      </trkpt>
      <trkpt lat="45.70903" lon="5.68896">
        <ele>228</ele>
        <time>2022-09-06T06:29:26.525Z</time>
      </trkpt>
      <trkpt lat="45.70902" lon="5.68907">
        <ele>228</ele>
        <time>2022-09-06T06:29:27.525Z</time>
      </trkpt>
      <trkpt lat="45.70901" lon="5.68918">
        <ele>228</ele>
        <time>2022-09-06T06:29:28.525Z</time>
      </trkpt>
      <trkpt lat="45.70901" lon="5.68929">
        <ele>228</ele>
        <time>2022-09-06T06:29:29.525Z</time>
      </trkpt>
      <trkpt lat="45.709" lon="5.6894">
        <ele>228</ele>
        <time>2022-09-06T06:29:30.525Z</time>
      </trkpt>
      <trkpt lat="45.709" lon="5.6895">
        <ele>227</ele>
        <time>2022-09-06T06:29:31.525Z</time>
      </trkpt>
      <trkpt lat="45.709" lon="5.68961">
        <ele>227</ele>
        <time>2022-09-06T06:29:32.525Z</time>
      </trkpt>
      <trkpt lat="45.70898" lon="5.68972">
        <ele>226</ele>
        <time>2022-09-06T06:29:33.525Z</time>
      </trkpt>
      <trkpt lat="45.70896" lon="5.68983">
        <ele>226</ele>
        <time>2022-09-06T06:29:34.525Z</time>
      </trkpt>
      <trkpt lat="45.70894" lon="5.68993">
        <ele>226</ele>
        <time>2022-09-06T06:29:35.525Z</time>
      </trkpt>
      <trkpt lat="45.70891" lon="5.69004">
        <ele>226</ele>
        <time>2022-09-06T06:29:36.525Z</time>
      </trkpt>
      <trkpt lat="45.70888" lon="5.69015">
        <ele>227</ele>
        <time>2022-09-06T06:29:37.525Z</time>
      </trkpt>
      <trkpt lat="45.70886" lon="5.69027">
        <ele>227</ele>
        <time>2022-09-06T06:29:38.524Z</time>
      </trkpt>
      <trkpt lat="45.70885" lon="5.69038">
        <ele>227</ele>
        <time>2022-09-06T06:29:39.525Z</time>
      </trkpt>
      <trkpt lat="45.70884" lon="5.6905">
        <ele>227</ele>
        <time>2022-09-06T06:29:40.525Z</time>
      </trkpt>
      <trkpt lat="45.70884" lon="5.69062">
        <ele>227</ele>
        <time>2022-09-06T06:29:41.525Z</time>
      </trkpt>
      <trkpt lat="45.70885" lon="5.69074">
        <ele>227</ele>
        <time>2022-09-06T06:29:42.525Z</time>
      </trkpt>
      <trkpt lat="45.70887" lon="5.69085">
        <ele>227</ele>
        <time>2022-09-06T06:29:43.524Z</time>
      </trkpt>
      <trkpt lat="45.7089" lon="5.69096">
        <ele>227</ele>
        <time>2022-09-06T06:29:44.525Z</time>
      </trkpt>
      <trkpt lat="45.70894" lon="5.69107">
        <ele>226</ele>
        <time>2022-09-06T06:29:45.524Z</time>
      </trkpt>
      <trkpt lat="45.70898" lon="5.69118">
        <ele>225</ele>
        <time>2022-09-06T06:29:46.525Z</time>
      </trkpt>
      <trkpt lat="45.70903" lon="5.69129">
        <ele>225</ele>
        <time>2022-09-06T06:29:47.525Z</time>
      </trkpt>
      <trkpt lat="45.70908" lon="5.69139">
        <ele>225</ele>
        <time>2022-09-06T06:29:48.525Z</time>
      </trkpt>
      <trkpt lat="45.70912" lon="5.69146">
        <ele>225</ele>
        <time>2022-09-06T06:29:49.524Z</time>
      </trkpt>
      <trkpt lat="45.70917" lon="5.69155">
        <ele>224</ele>
        <time>2022-09-06T06:29:50.525Z</time>
      </trkpt>
      <trkpt lat="45.70924" lon="5.69165">
        <ele>224</ele>
        <time>2022-09-06T06:29:51.524Z</time>
      </trkpt>
      <trkpt lat="45.70929" lon="5.69172">
        <ele>224</ele>
        <time>2022-09-06T06:29:52.525Z</time>
      </trkpt>
      <trkpt lat="45.70934" lon="5.69178">
        <ele>224</ele>
        <time>2022-09-06T06:29:53.525Z</time>
      </trkpt>
      <trkpt lat="45.70941" lon="5.69187">
        <ele>224</ele>
        <time>2022-09-06T06:29:54.525Z</time>
      </trkpt>
      <trkpt lat="45.70945" lon="5.69193">
        <ele>224</ele>
        <time>2022-09-06T06:29:55.525Z</time>
      </trkpt>
      <trkpt lat="45.70951" lon="5.692">
        <ele>224</ele>
        <time>2022-09-06T06:29:56.524Z</time>
      </trkpt>
      <trkpt lat="45.70958" lon="5.69208">
        <ele>224</ele>
        <time>2022-09-06T06:29:57.525Z</time>
      </trkpt>
      <trkpt lat="45.70963" lon="5.69213">
        <ele>224</ele>
        <time>2022-09-06T06:29:58.524Z</time>
      </trkpt>
      <trkpt lat="45.70968" lon="5.6922">
        <ele>224</ele>
        <time>2022-09-06T06:29:59.524Z</time>
      </trkpt>
      <trkpt lat="45.70974" lon="5.69228">
        <ele>224</ele>
        <time>2022-09-06T06:30:00.525Z</time>
      </trkpt>
      <trkpt lat="45.70979" lon="5.69235">
        <ele>224</ele>
        <time>2022-09-06T06:30:01.525Z</time>
      </trkpt>
      <trkpt lat="45.70984" lon="5.69243">
        <ele>225</ele>
        <time>2022-09-06T06:30:02.525Z</time>
      </trkpt>
      <trkpt lat="45.70989" lon="5.6925">
        <ele>225</ele>
        <time>2022-09-06T06:30:03.525Z</time>
      </trkpt>
      <trkpt lat="45.70994" lon="5.69258">
        <ele>225</ele>
        <time>2022-09-06T06:30:04.525Z</time>
      </trkpt>
      <trkpt lat="45.70999" lon="5.69266">
        <ele>226</ele>
        <time>2022-09-06T06:30:05.524Z</time>
      </trkpt>
      <trkpt lat="45.71004" lon="5.69274">
        <ele>226</ele>
        <time>2022-09-06T06:30:06.525Z</time>
      </trkpt>
      <trkpt lat="45.71009" lon="5.69283">
        <ele>226</ele>
        <time>2022-09-06T06:30:07.524Z</time>
      </trkpt>
      <trkpt lat="45.71013" lon="5.69292">
        <ele>225</ele>
        <time>2022-09-06T06:30:08.525Z</time>
      </trkpt>
      <trkpt lat="45.71017" lon="5.69301">
        <ele>225</ele>
        <time>2022-09-06T06:30:09.525Z</time>
      </trkpt>
      <trkpt lat="45.7102" lon="5.6931">
        <ele>225</ele>
        <time>2022-09-06T06:30:10.525Z</time>
      </trkpt>
      <trkpt lat="45.71023" lon="5.69319">
        <ele>225</ele>
        <time>2022-09-06T06:30:11.525Z</time>
      </trkpt>
      <trkpt lat="45.71026" lon="5.69328">
        <ele>225</ele>
        <time>2022-09-06T06:30:12.524Z</time>
      </trkpt>
      <trkpt lat="45.71029" lon="5.69338">
        <ele>226</ele>
        <time>2022-09-06T06:30:13.525Z</time>
      </trkpt>
      <trkpt lat="45.71032" lon="5.69347">
        <ele>226</ele>
        <time>2022-09-06T06:30:14.525Z</time>
      </trkpt>
      <trkpt lat="45.71034" lon="5.69356">
        <ele>227</ele>
        <time>2022-09-06T06:30:15.525Z</time>
      </trkpt>
      <trkpt lat="45.71037" lon="5.69365">
        <ele>227</ele>
        <time>2022-09-06T06:30:16.525Z</time>
      </trkpt>
      <trkpt lat="45.7104" lon="5.69375">
        <ele>227</ele>
        <time>2022-09-06T06:30:17.525Z</time>
      </trkpt>
      <trkpt lat="45.71043" lon="5.69384">
        <ele>227</ele>
        <time>2022-09-06T06:30:18.525Z</time>
      </trkpt>
      <trkpt lat="45.71045" lon="5.69393">
        <ele>227</ele>
        <time>2022-09-06T06:30:19.525Z</time>
      </trkpt>
      <trkpt lat="45.71048" lon="5.69403">
        <ele>227</ele>
        <time>2022-09-06T06:30:20.525Z</time>
      </trkpt>
      <trkpt lat="45.71051" lon="5.69413">
        <ele>226</ele>
        <time>2022-09-06T06:30:21.524Z</time>
      </trkpt>
      <trkpt lat="45.71054" lon="5.69423">
        <ele>226</ele>
        <time>2022-09-06T06:30:22.525Z</time>
      </trkpt>
      <trkpt lat="45.71057" lon="5.69433">
        <ele>226</ele>
        <time>2022-09-06T06:30:23.524Z</time>
      </trkpt>
      <trkpt lat="45.7106" lon="5.69442">
        <ele>226</ele>
        <time>2022-09-06T06:30:24.525Z</time>
      </trkpt>
      <trkpt lat="45.71064" lon="5.69452">
        <ele>226</ele>
        <time>2022-09-06T06:30:25.525Z</time>
      </trkpt>
      <trkpt lat="45.71067" lon="5.69462">
        <ele>226</ele>
        <time>2022-09-06T06:30:26.525Z</time>
      </trkpt>
      <trkpt lat="45.71071" lon="5.69471">
        <ele>226</ele>
        <time>2022-09-06T06:30:27.524Z</time>
      </trkpt>
      <trkpt lat="45.71075" lon="5.69482">
        <ele>226</ele>
        <time>2022-09-06T06:30:28.525Z</time>
      </trkpt>
      <trkpt lat="45.71078" lon="5.6949">
        <ele>226</ele>
        <time>2022-09-06T06:30:29.524Z</time>
      </trkpt>
      <trkpt lat="45.71082" lon="5.69499">
        <ele>226</ele>
        <time>2022-09-06T06:30:30.525Z</time>
      </trkpt>
      <trkpt lat="45.71085" lon="5.69509">
        <ele>225</ele>
        <time>2022-09-06T06:30:31.525Z</time>
      </trkpt>
      <trkpt lat="45.7109" lon="5.6952">
        <ele>225</ele>
        <time>2022-09-06T06:30:32.525Z</time>
      </trkpt>
      <trkpt lat="45.71094" lon="5.69529">
        <ele>225</ele>
        <time>2022-09-06T06:30:33.525Z</time>
      </trkpt>
      <trkpt lat="45.71098" lon="5.69538">
        <ele>225</ele>
        <time>2022-09-06T06:30:34.524Z</time>
      </trkpt>
      <trkpt lat="45.71102" lon="5.69546">
        <ele>225</ele>
        <time>2022-09-06T06:30:35.525Z</time>
      </trkpt>
      <trkpt lat="45.71108" lon="5.69558">
        <ele>226</ele>
        <time>2022-09-06T06:30:36.525Z</time>
      </trkpt>
      <trkpt lat="45.71113" lon="5.69568">
        <ele>226</ele>
        <time>2022-09-06T06:30:37.525Z</time>
      </trkpt>
      <trkpt lat="45.71117" lon="5.69577">
        <ele>226</ele>
        <time>2022-09-06T06:30:38.524Z</time>
      </trkpt>
      <trkpt lat="45.71121" lon="5.69588">
        <ele>226</ele>
        <time>2022-09-06T06:30:39.525Z</time>
      </trkpt>
      <trkpt lat="45.71126" lon="5.69599">
        <ele>226</ele>
        <time>2022-09-06T06:30:40.525Z</time>
      </trkpt>
      <trkpt lat="45.71132" lon="5.69612">
        <ele>226</ele>
        <time>2022-09-06T06:30:41.525Z</time>
      </trkpt>
      <trkpt lat="45.71138" lon="5.69621">
        <ele>226</ele>
        <time>2022-09-06T06:30:42.525Z</time>
      </trkpt>
      <trkpt lat="45.71144" lon="5.6963">
        <ele>226</ele>
        <time>2022-09-06T06:30:43.525Z</time>
      </trkpt>
      <trkpt lat="45.71149" lon="5.69636">
        <ele>227</ele>
        <time>2022-09-06T06:30:44.525Z</time>
      </trkpt>
      <trkpt lat="45.71156" lon="5.69642">
        <ele>227</ele>
        <time>2022-09-06T06:30:45.524Z</time>
      </trkpt>
      <trkpt lat="45.71165" lon="5.69648">
        <ele>227</ele>
        <time>2022-09-06T06:30:46.525Z</time>
      </trkpt>
      <trkpt lat="45.71174" lon="5.69652">
        <ele>227</ele>
        <time>2022-09-06T06:30:47.525Z</time>
      </trkpt>
      <trkpt lat="45.71182" lon="5.69655">
        <ele>227</ele>
        <time>2022-09-06T06:30:48.525Z</time>
      </trkpt>
      <trkpt lat="45.71188" lon="5.69658">
        <ele>227</ele>
        <time>2022-09-06T06:30:49.524Z</time>
      </trkpt>
      <trkpt lat="45.71198" lon="5.69661">
        <ele>227</ele>
        <time>2022-09-06T06:30:50.524Z</time>
      </trkpt>
      <trkpt lat="45.71205" lon="5.69663">
        <ele>227</ele>
        <time>2022-09-06T06:30:51.525Z</time>
      </trkpt>
      <trkpt lat="45.71212" lon="5.69665">
        <ele>227</ele>
        <time>2022-09-06T06:30:52.525Z</time>
      </trkpt>
      <trkpt lat="45.7122" lon="5.69666">
        <ele>227</ele>
        <time>2022-09-06T06:30:53.525Z</time>
      </trkpt>
      <trkpt lat="45.71227" lon="5.69667">
        <ele>227</ele>
        <time>2022-09-06T06:30:54.525Z</time>
      </trkpt>
      <trkpt lat="45.71234" lon="5.69669">
        <ele>227</ele>
        <time>2022-09-06T06:30:55.525Z</time>
      </trkpt>
      <trkpt lat="45.71242" lon="5.69671">
        <ele>227</ele>
        <time>2022-09-06T06:30:56.525Z</time>
      </trkpt>
      <trkpt lat="45.71249" lon="5.69672">
        <ele>227</ele>
        <time>2022-09-06T06:30:57.525Z</time>
      </trkpt>
      <trkpt lat="45.71257" lon="5.69674">
        <ele>227</ele>
        <time>2022-09-06T06:30:58.525Z</time>
      </trkpt>
      <trkpt lat="45.71264" lon="5.69676">
        <ele>227</ele>
        <time>2022-09-06T06:30:59.525Z</time>
      </trkpt>
      <trkpt lat="45.71273" lon="5.69678">
        <ele>227</ele>
        <time>2022-09-06T06:31:00.525Z</time>
      </trkpt>
      <trkpt lat="45.71279" lon="5.69679">
        <ele>227</ele>
        <time>2022-09-06T06:31:01.525Z</time>
      </trkpt>
      <trkpt lat="45.71288" lon="5.6968">
        <ele>227</ele>
        <time>2022-09-06T06:31:02.525Z</time>
      </trkpt>
      <trkpt lat="45.71294" lon="5.69681">
        <ele>228</ele>
        <time>2022-09-06T06:31:03.524Z</time>
      </trkpt>
      <trkpt lat="45.71301" lon="5.69683">
        <ele>227</ele>
        <time>2022-09-06T06:31:04.525Z</time>
      </trkpt>
      <trkpt lat="45.7131" lon="5.69683">
        <ele>227</ele>
        <time>2022-09-06T06:31:05.525Z</time>
      </trkpt>
      <trkpt lat="45.71317" lon="5.69684">
        <ele>227</ele>
        <time>2022-09-06T06:31:06.525Z</time>
      </trkpt>
      <trkpt lat="45.71322" lon="5.69684">
        <ele>227</ele>
        <time>2022-09-06T06:31:07.525Z</time>
      </trkpt>
      <trkpt lat="45.71329" lon="5.69684">
        <ele>227</ele>
        <time>2022-09-06T06:31:08.525Z</time>
      </trkpt>
      <trkpt lat="45.71336" lon="5.69684">
        <ele>227</ele>
        <time>2022-09-06T06:31:09.525Z</time>
      </trkpt>
      <trkpt lat="45.71343" lon="5.69684">
        <ele>227</ele>
        <time>2022-09-06T06:31:10.524Z</time>
      </trkpt>
      <trkpt lat="45.71351" lon="5.69684">
        <ele>227</ele>
        <time>2022-09-06T06:31:11.525Z</time>
      </trkpt>
      <trkpt lat="45.71357" lon="5.69685">
        <ele>226</ele>
        <time>2022-09-06T06:31:12.524Z</time>
      </trkpt>
      <trkpt lat="45.71364" lon="5.69685">
        <ele>226</ele>
        <time>2022-09-06T06:31:13.525Z</time>
      </trkpt>
      <trkpt lat="45.7137" lon="5.69685">
        <ele>226</ele>
        <time>2022-09-06T06:31:14.525Z</time>
      </trkpt>
      <trkpt lat="45.71377" lon="5.69686">
        <ele>226</ele>
        <time>2022-09-06T06:31:15.525Z</time>
      </trkpt>
      <trkpt lat="45.71384" lon="5.69687">
        <ele>225</ele>
        <time>2022-09-06T06:31:16.525Z</time>
      </trkpt>
      <trkpt lat="45.71391" lon="5.69688">
        <ele>226</ele>
        <time>2022-09-06T06:31:17.524Z</time>
      </trkpt>
      <trkpt lat="45.71397" lon="5.69688">
        <ele>226</ele>
        <time>2022-09-06T06:31:18.525Z</time>
      </trkpt>
      <trkpt lat="45.71405" lon="5.69689">
        <ele>226</ele>
        <time>2022-09-06T06:31:19.525Z</time>
      </trkpt>
      <trkpt lat="45.71411" lon="5.69689">
        <ele>227</ele>
        <time>2022-09-06T06:31:20.525Z</time>
      </trkpt>
      <trkpt lat="45.71418" lon="5.6969">
        <ele>227</ele>
        <time>2022-09-06T06:31:21.524Z</time>
      </trkpt>
      <trkpt lat="45.71423" lon="5.6969">
        <ele>227</ele>
        <time>2022-09-06T06:31:22.524Z</time>
      </trkpt>
      <trkpt lat="45.71429" lon="5.69691">
        <ele>227</ele>
        <time>2022-09-06T06:31:23.525Z</time>
      </trkpt>
      <trkpt lat="45.71437" lon="5.69692">
        <ele>227</ele>
        <time>2022-09-06T06:31:24.524Z</time>
      </trkpt>
      <trkpt lat="45.71443" lon="5.69693">
        <ele>227</ele>
        <time>2022-09-06T06:31:25.524Z</time>
      </trkpt>
      <trkpt lat="45.71449" lon="5.69693">
        <ele>227</ele>
        <time>2022-09-06T06:31:26.524Z</time>
      </trkpt>
      <trkpt lat="45.71453" lon="5.69693">
        <ele>227</ele>
        <time>2022-09-06T06:31:27.525Z</time>
      </trkpt>
      <trkpt lat="45.71459" lon="5.69693">
        <ele>227</ele>
        <time>2022-09-06T06:31:28.525Z</time>
      </trkpt>
      <trkpt lat="45.71465" lon="5.69693">
        <ele>227</ele>
        <time>2022-09-06T06:31:29.525Z</time>
      </trkpt>
      <trkpt lat="45.7147" lon="5.69693">
        <ele>227</ele>
        <time>2022-09-06T06:31:30.525Z</time>
      </trkpt>
      <trkpt lat="45.71475" lon="5.69694">
        <ele>226</ele>
        <time>2022-09-06T06:31:31.525Z</time>
      </trkpt>
      <trkpt lat="45.71479" lon="5.69697">
        <ele>226</ele>
        <time>2022-09-06T06:31:32.524Z</time>
      </trkpt>
      <trkpt lat="45.71483" lon="5.69702">
        <ele>227</ele>
        <time>2022-09-06T06:31:33.525Z</time>
      </trkpt>
      <trkpt lat="45.71484" lon="5.69709">
        <ele>227</ele>
        <time>2022-09-06T06:31:34.525Z</time>
      </trkpt>
      <trkpt lat="45.71483" lon="5.69716">
        <ele>226</ele>
        <time>2022-09-06T06:31:35.524Z</time>
      </trkpt>
      <trkpt lat="45.7148" lon="5.69723">
        <ele>226</ele>
        <time>2022-09-06T06:31:36.525Z</time>
      </trkpt>
      <trkpt lat="45.71476" lon="5.69729">
        <ele>226</ele>
        <time>2022-09-06T06:31:37.525Z</time>
      </trkpt>
      <trkpt lat="45.71472" lon="5.69736">
        <ele>226</ele>
        <time>2022-09-06T06:31:38.525Z</time>
      </trkpt>
      <trkpt lat="45.71466" lon="5.69741">
        <ele>226</ele>
        <time>2022-09-06T06:31:39.525Z</time>
      </trkpt>
      <trkpt lat="45.71462" lon="5.69746">
        <ele>226</ele>
        <time>2022-09-06T06:31:40.525Z</time>
      </trkpt>
      <trkpt lat="45.71459" lon="5.69749">
        <ele>226</ele>
        <time>2022-09-06T06:31:41.525Z</time>
      </trkpt>
      <trkpt lat="45.71456" lon="5.69753">
        <ele>226</ele>
        <time>2022-09-06T06:31:42.525Z</time>
      </trkpt>
      <trkpt lat="45.71454" lon="5.69757">
        <ele>226</ele>
        <time>2022-09-06T06:31:43.525Z</time>
      </trkpt>
      <trkpt lat="45.71452" lon="5.69763">
        <ele>226</ele>
        <time>2022-09-06T06:31:44.525Z</time>
      </trkpt>
      <trkpt lat="45.71452" lon="5.69767">
        <ele>227</ele>
        <time>2022-09-06T06:31:45.525Z</time>
      </trkpt>
      <trkpt lat="45.71453" lon="5.69772">
        <ele>227</ele>
        <time>2022-09-06T06:31:46.524Z</time>
      </trkpt>
      <trkpt lat="45.71455" lon="5.69777">
        <ele>227</ele>
        <time>2022-09-06T06:31:47.525Z</time>
      </trkpt>
      <trkpt lat="45.71458" lon="5.69783">
        <ele>228</ele>
        <time>2022-09-06T06:31:48.525Z</time>
      </trkpt>
      <trkpt lat="45.71461" lon="5.6979">
        <ele>228</ele>
        <time>2022-09-06T06:31:49.525Z</time>
      </trkpt>
      <trkpt lat="45.71464" lon="5.69795">
        <ele>228</ele>
        <time>2022-09-06T06:31:50.524Z</time>
      </trkpt>
      <trkpt lat="45.71468" lon="5.69801">
        <ele>228</ele>
        <time>2022-09-06T06:31:51.525Z</time>
      </trkpt>
      <trkpt lat="45.71472" lon="5.69808">
        <ele>229</ele>
        <time>2022-09-06T06:31:52.525Z</time>
      </trkpt>
      <trkpt lat="45.71476" lon="5.69817">
        <ele>229</ele>
        <time>2022-09-06T06:31:53.525Z</time>
      </trkpt>
      <trkpt lat="45.71479" lon="5.69824">
        <ele>229</ele>
        <time>2022-09-06T06:31:54.525Z</time>
      </trkpt>
      <trkpt lat="45.71481" lon="5.6983">
        <ele>229</ele>
        <time>2022-09-06T06:31:55.525Z</time>
      </trkpt>
      <trkpt lat="45.71483" lon="5.69838">
        <ele>229</ele>
        <time>2022-09-06T06:31:56.525Z</time>
      </trkpt>
      <trkpt lat="45.71485" lon="5.69845">
        <ele>229</ele>
        <time>2022-09-06T06:31:57.525Z</time>
      </trkpt>
      <trkpt lat="45.71486" lon="5.69853">
        <ele>229</ele>
        <time>2022-09-06T06:31:58.525Z</time>
      </trkpt>
      <trkpt lat="45.71486" lon="5.69861">
        <ele>229</ele>
        <time>2022-09-06T06:31:59.525Z</time>
      </trkpt>
      <trkpt lat="45.71487" lon="5.69869">
        <ele>228</ele>
        <time>2022-09-06T06:32:00.524Z</time>
      </trkpt>
      <trkpt lat="45.71487" lon="5.69877">
        <ele>228</ele>
        <time>2022-09-06T06:32:01.525Z</time>
      </trkpt>
      <trkpt lat="45.71487" lon="5.69885">
        <ele>228</ele>
        <time>2022-09-06T06:32:02.525Z</time>
      </trkpt>
      <trkpt lat="45.71487" lon="5.69893">
        <ele>228</ele>
        <time>2022-09-06T06:32:03.525Z</time>
      </trkpt>
      <trkpt lat="45.71487" lon="5.69901">
        <ele>227</ele>
        <time>2022-09-06T06:32:04.524Z</time>
      </trkpt>
      <trkpt lat="45.71487" lon="5.69908">
        <ele>227</ele>
        <time>2022-09-06T06:32:05.525Z</time>
      </trkpt>
      <trkpt lat="45.71487" lon="5.69916">
        <ele>228</ele>
        <time>2022-09-06T06:32:06.525Z</time>
      </trkpt>
      <trkpt lat="45.71487" lon="5.69924">
        <ele>228</ele>
        <time>2022-09-06T06:32:07.525Z</time>
      </trkpt>
      <trkpt lat="45.71488" lon="5.69931">
        <ele>229</ele>
        <time>2022-09-06T06:32:08.525Z</time>
      </trkpt>
      <trkpt lat="45.71487" lon="5.69939">
        <ele>229</ele>
        <time>2022-09-06T06:32:09.525Z</time>
      </trkpt>
      <trkpt lat="45.71487" lon="5.69947">
        <ele>229</ele>
        <time>2022-09-06T06:32:10.524Z</time>
      </trkpt>
      <trkpt lat="45.71487" lon="5.69954">
        <ele>230</ele>
        <time>2022-09-06T06:32:11.524Z</time>
      </trkpt>
      <trkpt lat="45.71488" lon="5.69963">
        <ele>230</ele>
        <time>2022-09-06T06:32:12.525Z</time>
      </trkpt>
      <trkpt lat="45.71488" lon="5.69971">
        <ele>230</ele>
        <time>2022-09-06T06:32:13.525Z</time>
      </trkpt>
      <trkpt lat="45.71488" lon="5.69978">
        <ele>231</ele>
        <time>2022-09-06T06:32:14.525Z</time>
      </trkpt>
      <trkpt lat="45.71488" lon="5.69985">
        <ele>231</ele>
        <time>2022-09-06T06:32:15.524Z</time>
      </trkpt>
      <trkpt lat="45.71488" lon="5.69993">
        <ele>231</ele>
        <time>2022-09-06T06:32:16.525Z</time>
      </trkpt>
      <trkpt lat="45.71488" lon="5.70002">
        <ele>231</ele>
        <time>2022-09-06T06:32:17.525Z</time>
      </trkpt>
      <trkpt lat="45.71489" lon="5.70013">
        <ele>232</ele>
        <time>2022-09-06T06:32:18.525Z</time>
      </trkpt>
      <trkpt lat="45.71489" lon="5.7002">
        <ele>232</ele>
        <time>2022-09-06T06:32:19.525Z</time>
      </trkpt>
      <trkpt lat="45.71489" lon="5.7003">
        <ele>232</ele>
        <time>2022-09-06T06:32:20.525Z</time>
      </trkpt>
      <trkpt lat="45.71489" lon="5.70042">
        <ele>231</ele>
        <time>2022-09-06T06:32:21.525Z</time>
      </trkpt>
      <trkpt lat="45.71489" lon="5.70053">
        <ele>231</ele>
        <time>2022-09-06T06:32:22.524Z</time>
      </trkpt>
      <trkpt lat="45.71489" lon="5.70061">
        <ele>231</ele>
        <time>2022-09-06T06:32:23.525Z</time>
      </trkpt>
      <trkpt lat="45.71489" lon="5.70072">
        <ele>231</ele>
        <time>2022-09-06T06:32:24.525Z</time>
      </trkpt>
      <trkpt lat="45.71489" lon="5.70084">
        <ele>231</ele>
        <time>2022-09-06T06:32:25.525Z</time>
      </trkpt>
      <trkpt lat="45.71489" lon="5.70097">
        <ele>231</ele>
        <time>2022-09-06T06:32:26.525Z</time>
      </trkpt>
      <trkpt lat="45.71489" lon="5.70109">
        <ele>231</ele>
        <time>2022-09-06T06:32:27.525Z</time>
      </trkpt>
      <trkpt lat="45.71489" lon="5.70119">
        <ele>231</ele>
        <time>2022-09-06T06:32:28.525Z</time>
      </trkpt>
      <trkpt lat="45.71489" lon="5.70131">
        <ele>230</ele>
        <time>2022-09-06T06:32:29.524Z</time>
      </trkpt>
      <trkpt lat="45.71489" lon="5.70146">
        <ele>229</ele>
        <time>2022-09-06T06:32:30.525Z</time>
      </trkpt>
      <trkpt lat="45.71489" lon="5.70158">
        <ele>229</ele>
        <time>2022-09-06T06:32:31.524Z</time>
      </trkpt>
      <trkpt lat="45.71489" lon="5.70169">
        <ele>228</ele>
        <time>2022-09-06T06:32:32.524Z</time>
      </trkpt>
      <trkpt lat="45.7149" lon="5.70182">
        <ele>228</ele>
        <time>2022-09-06T06:32:33.525Z</time>
      </trkpt>
      <trkpt lat="45.7149" lon="5.70197">
        <ele>229</ele>
        <time>2022-09-06T06:32:34.524Z</time>
      </trkpt>
      <trkpt lat="45.71491" lon="5.7021">
        <ele>229</ele>
        <time>2022-09-06T06:32:35.524Z</time>
      </trkpt>
      <trkpt lat="45.71492" lon="5.70222">
        <ele>228</ele>
        <time>2022-09-06T06:32:36.525Z</time>
      </trkpt>
      <trkpt lat="45.71492" lon="5.70233">
        <ele>229</ele>
        <time>2022-09-06T06:32:37.524Z</time>
      </trkpt>
      <trkpt lat="45.71493" lon="5.70245">
        <ele>228</ele>
        <time>2022-09-06T06:32:38.525Z</time>
      </trkpt>
      <trkpt lat="45.71493" lon="5.70257">
        <ele>228</ele>
        <time>2022-09-06T06:32:39.524Z</time>
      </trkpt>
      <trkpt lat="45.71494" lon="5.7027">
        <ele>228</ele>
        <time>2022-09-06T06:32:40.525Z</time>
      </trkpt>
      <trkpt lat="45.71494" lon="5.70282">
        <ele>228</ele>
        <time>2022-09-06T06:32:41.524Z</time>
      </trkpt>
      <trkpt lat="45.71495" lon="5.70294">
        <ele>227</ele>
        <time>2022-09-06T06:32:42.525Z</time>
      </trkpt>
      <trkpt lat="45.71495" lon="5.70306">
        <ele>227</ele>
        <time>2022-09-06T06:32:43.524Z</time>
      </trkpt>
      <trkpt lat="45.71495" lon="5.70317">
        <ele>227</ele>
        <time>2022-09-06T06:32:44.525Z</time>
      </trkpt>
      <trkpt lat="45.71495" lon="5.70329">
        <ele>227</ele>
        <time>2022-09-06T06:32:45.525Z</time>
      </trkpt>
      <trkpt lat="45.71496" lon="5.7034">
        <ele>226</ele>
        <time>2022-09-06T06:32:46.525Z</time>
      </trkpt>
      <trkpt lat="45.71496" lon="5.70352">
        <ele>226</ele>
        <time>2022-09-06T06:32:47.525Z</time>
      </trkpt>
      <trkpt lat="45.71496" lon="5.70365">
        <ele>226</ele>
        <time>2022-09-06T06:32:48.524Z</time>
      </trkpt>
      <trkpt lat="45.71495" lon="5.70376">
        <ele>226</ele>
        <time>2022-09-06T06:32:49.525Z</time>
      </trkpt>
      <trkpt lat="45.71496" lon="5.70388">
        <ele>225</ele>
        <time>2022-09-06T06:32:50.524Z</time>
      </trkpt>
      <trkpt lat="45.71496" lon="5.70397">
        <ele>225</ele>
        <time>2022-09-06T06:32:51.525Z</time>
      </trkpt>
      <trkpt lat="45.71496" lon="5.70408">
        <ele>226</ele>
        <time>2022-09-06T06:32:52.525Z</time>
      </trkpt>
      <trkpt lat="45.71496" lon="5.70419">
        <ele>226</ele>
        <time>2022-09-06T06:32:53.525Z</time>
      </trkpt>
      <trkpt lat="45.71496" lon="5.70432">
        <ele>226</ele>
        <time>2022-09-06T06:32:54.525Z</time>
      </trkpt>
      <trkpt lat="45.71496" lon="5.70443">
        <ele>225</ele>
        <time>2022-09-06T06:32:55.525Z</time>
      </trkpt>
      <trkpt lat="45.71496" lon="5.70452">
        <ele>224</ele>
        <time>2022-09-06T06:32:56.524Z</time>
      </trkpt>
      <trkpt lat="45.71496" lon="5.70466">
        <ele>224</ele>
        <time>2022-09-06T06:32:57.525Z</time>
      </trkpt>
      <trkpt lat="45.71496" lon="5.70477">
        <ele>224</ele>
        <time>2022-09-06T06:32:58.524Z</time>
      </trkpt>
      <trkpt lat="45.71497" lon="5.70486">
        <ele>224</ele>
        <time>2022-09-06T06:32:59.525Z</time>
      </trkpt>
      <trkpt lat="45.71497" lon="5.70497">
        <ele>224</ele>
        <time>2022-09-06T06:33:00.525Z</time>
      </trkpt>
      <trkpt lat="45.71497" lon="5.70508">
        <ele>225</ele>
        <time>2022-09-06T06:33:01.524Z</time>
      </trkpt>
      <trkpt lat="45.71497" lon="5.70521">
        <ele>225</ele>
        <time>2022-09-06T06:33:02.525Z</time>
      </trkpt>
      <trkpt lat="45.71497" lon="5.70532">
        <ele>225</ele>
        <time>2022-09-06T06:33:03.525Z</time>
      </trkpt>
      <trkpt lat="45.71498" lon="5.70544">
        <ele>225</ele>
        <time>2022-09-06T06:33:04.524Z</time>
      </trkpt>
      <trkpt lat="45.71498" lon="5.70552">
        <ele>224</ele>
        <time>2022-09-06T06:33:05.524Z</time>
      </trkpt>
      <trkpt lat="45.71498" lon="5.70563">
        <ele>225</ele>
        <time>2022-09-06T06:33:06.525Z</time>
      </trkpt>
      <trkpt lat="45.71498" lon="5.70577">
        <ele>225</ele>
        <time>2022-09-06T06:33:07.525Z</time>
      </trkpt>
      <trkpt lat="45.71498" lon="5.70588">
        <ele>226</ele>
        <time>2022-09-06T06:33:08.525Z</time>
      </trkpt>
      <trkpt lat="45.71499" lon="5.70599">
        <ele>227</ele>
        <time>2022-09-06T06:33:09.525Z</time>
      </trkpt>
      <trkpt lat="45.71499" lon="5.70608">
        <ele>227</ele>
        <time>2022-09-06T06:33:10.525Z</time>
      </trkpt>
      <trkpt lat="45.71501" lon="5.70618">
        <ele>227</ele>
        <time>2022-09-06T06:33:11.525Z</time>
      </trkpt>
      <trkpt lat="45.71503" lon="5.70631">
        <ele>227</ele>
        <time>2022-09-06T06:33:12.525Z</time>
      </trkpt>
      <trkpt lat="45.71505" lon="5.70641">
        <ele>227</ele>
        <time>2022-09-06T06:33:13.525Z</time>
      </trkpt>
      <trkpt lat="45.71507" lon="5.7065">
        <ele>227</ele>
        <time>2022-09-06T06:33:14.524Z</time>
      </trkpt>
      <trkpt lat="45.7151" lon="5.70659">
        <ele>227</ele>
        <time>2022-09-06T06:33:15.524Z</time>
      </trkpt>
      <trkpt lat="45.71514" lon="5.70671">
        <ele>226</ele>
        <time>2022-09-06T06:33:16.524Z</time>
      </trkpt>
      <trkpt lat="45.71517" lon="5.70681">
        <ele>226</ele>
        <time>2022-09-06T06:33:17.524Z</time>
      </trkpt>
      <trkpt lat="45.71521" lon="5.7069">
        <ele>226</ele>
        <time>2022-09-06T06:33:18.525Z</time>
      </trkpt>
      <trkpt lat="45.71523" lon="5.70698">
        <ele>227</ele>
        <time>2022-09-06T06:33:19.525Z</time>
      </trkpt>
      <trkpt lat="45.71527" lon="5.70707">
        <ele>227</ele>
        <time>2022-09-06T06:33:20.525Z</time>
      </trkpt>
      <trkpt lat="45.7153" lon="5.70716">
        <ele>227</ele>
        <time>2022-09-06T06:33:21.524Z</time>
      </trkpt>
      <trkpt lat="45.71534" lon="5.70728">
        <ele>226</ele>
        <time>2022-09-06T06:33:22.524Z</time>
      </trkpt>
      <trkpt lat="45.71538" lon="5.70737">
        <ele>226</ele>
        <time>2022-09-06T06:33:23.525Z</time>
      </trkpt>
      <trkpt lat="45.71541" lon="5.70745">
        <ele>226</ele>
        <time>2022-09-06T06:33:24.525Z</time>
      </trkpt>
      <trkpt lat="45.71545" lon="5.70756">
        <ele>227</ele>
        <time>2022-09-06T06:33:25.524Z</time>
      </trkpt>
      <trkpt lat="45.71549" lon="5.70766">
        <ele>227</ele>
        <time>2022-09-06T06:33:26.524Z</time>
      </trkpt>
      <trkpt lat="45.71552" lon="5.70775">
        <ele>227</ele>
        <time>2022-09-06T06:33:27.524Z</time>
      </trkpt>
      <trkpt lat="45.71555" lon="5.70783">
        <ele>226</ele>
        <time>2022-09-06T06:33:28.525Z</time>
      </trkpt>
      <trkpt lat="45.71559" lon="5.70793">
        <ele>226</ele>
        <time>2022-09-06T06:33:29.525Z</time>
      </trkpt>
      <trkpt lat="45.71563" lon="5.70804">
        <ele>227</ele>
        <time>2022-09-06T06:33:30.524Z</time>
      </trkpt>
      <trkpt lat="45.71566" lon="5.70814">
        <ele>227</ele>
        <time>2022-09-06T06:33:31.524Z</time>
      </trkpt>
      <trkpt lat="45.7157" lon="5.70824">
        <ele>227</ele>
        <time>2022-09-06T06:33:32.525Z</time>
      </trkpt>
      <trkpt lat="45.71573" lon="5.70832">
        <ele>227</ele>
        <time>2022-09-06T06:33:33.525Z</time>
      </trkpt>
      <trkpt lat="45.71576" lon="5.70842">
        <ele>227</ele>
        <time>2022-09-06T06:33:34.525Z</time>
      </trkpt>
      <trkpt lat="45.7158" lon="5.70852">
        <ele>227</ele>
        <time>2022-09-06T06:33:35.524Z</time>
      </trkpt>
      <trkpt lat="45.71583" lon="5.70862">
        <ele>227</ele>
        <time>2022-09-06T06:33:36.524Z</time>
      </trkpt>
      <trkpt lat="45.71587" lon="5.70871">
        <ele>227</ele>
        <time>2022-09-06T06:33:37.525Z</time>
      </trkpt>
      <trkpt lat="45.7159" lon="5.70882">
        <ele>226</ele>
        <time>2022-09-06T06:33:38.525Z</time>
      </trkpt>
      <trkpt lat="45.71594" lon="5.70892">
        <ele>226</ele>
        <time>2022-09-06T06:33:39.525Z</time>
      </trkpt>
      <trkpt lat="45.71597" lon="5.70902">
        <ele>227</ele>
        <time>2022-09-06T06:33:40.525Z</time>
      </trkpt>
      <trkpt lat="45.716" lon="5.70912">
        <ele>227</ele>
        <time>2022-09-06T06:33:41.525Z</time>
      </trkpt>
      <trkpt lat="45.71602" lon="5.70923">
        <ele>228</ele>
        <time>2022-09-06T06:33:42.524Z</time>
      </trkpt>
      <trkpt lat="45.71603" lon="5.70934">
        <ele>228</ele>
        <time>2022-09-06T06:33:43.525Z</time>
      </trkpt>
      <trkpt lat="45.71603" lon="5.70945">
        <ele>228</ele>
        <time>2022-09-06T06:33:44.525Z</time>
      </trkpt>
      <trkpt lat="45.71603" lon="5.70958">
        <ele>228</ele>
        <time>2022-09-06T06:33:45.525Z</time>
      </trkpt>
      <trkpt lat="45.71603" lon="5.70969">
        <ele>228</ele>
        <time>2022-09-06T06:33:46.524Z</time>
      </trkpt>
      <trkpt lat="45.71602" lon="5.7098">
        <ele>228</ele>
        <time>2022-09-06T06:33:47.524Z</time>
      </trkpt>
      <trkpt lat="45.71601" lon="5.70988">
        <ele>227</ele>
        <time>2022-09-06T06:33:48.525Z</time>
      </trkpt>
      <trkpt lat="45.716" lon="5.71001">
        <ele>227</ele>
        <time>2022-09-06T06:33:49.525Z</time>
      </trkpt>
      <trkpt lat="45.716" lon="5.71012">
        <ele>227</ele>
        <time>2022-09-06T06:33:50.524Z</time>
      </trkpt>
      <trkpt lat="45.71599" lon="5.71023">
        <ele>227</ele>
        <time>2022-09-06T06:33:51.525Z</time>
      </trkpt>
      <trkpt lat="45.71598" lon="5.71031">
        <ele>227</ele>
        <time>2022-09-06T06:33:52.525Z</time>
      </trkpt>
      <trkpt lat="45.71597" lon="5.71041">
        <ele>227</ele>
        <time>2022-09-06T06:33:53.525Z</time>
      </trkpt>
      <trkpt lat="45.71595" lon="5.71053">
        <ele>226</ele>
        <time>2022-09-06T06:33:54.525Z</time>
      </trkpt>
      <trkpt lat="45.71594" lon="5.71063">
        <ele>226</ele>
        <time>2022-09-06T06:33:55.524Z</time>
      </trkpt>
      <trkpt lat="45.71594" lon="5.71072">
        <ele>226</ele>
        <time>2022-09-06T06:33:56.524Z</time>
      </trkpt>
      <trkpt lat="45.71593" lon="5.71079">
        <ele>226</ele>
        <time>2022-09-06T06:33:57.525Z</time>
      </trkpt>
      <trkpt lat="45.71593" lon="5.71087">
        <ele>227</ele>
        <time>2022-09-06T06:33:58.525Z</time>
      </trkpt>
      <trkpt lat="45.71592" lon="5.71095">
        <ele>227</ele>
        <time>2022-09-06T06:33:59.525Z</time>
      </trkpt>
      <trkpt lat="45.71592" lon="5.711">
        <ele>227</ele>
        <time>2022-09-06T06:34:00.524Z</time>
      </trkpt>
      <trkpt lat="45.71592" lon="5.71102">
        <ele>227</ele>
        <time>2022-09-06T06:34:01.525Z</time>
      </trkpt>
      <trkpt lat="45.71592" lon="5.71105">
        <ele>227</ele>
        <time>2022-09-06T06:34:02.524Z</time>
      </trkpt>
      <trkpt lat="45.71592" lon="5.71106">
        <ele>227</ele>
        <time>2022-09-06T06:34:03.525Z</time>
      </trkpt>
      <trkpt lat="45.71591" lon="5.71108">
        <ele>227</ele>
        <time>2022-09-06T06:34:04.525Z</time>
      </trkpt>
      <trkpt lat="45.71591" lon="5.71109">
        <ele>228</ele>
        <time>2022-09-06T06:34:05.524Z</time>
      </trkpt>
      <trkpt lat="45.71591" lon="5.7111">
        <ele>228</ele>
        <time>2022-09-06T06:34:06.525Z</time>
      </trkpt>
      <trkpt lat="45.7159" lon="5.71111">
        <ele>228</ele>
        <time>2022-09-06T06:34:07.524Z</time>
      </trkpt>
      <trkpt lat="45.7159" lon="5.71112">
        <ele>228</ele>
        <time>2022-09-06T06:34:08.524Z</time>
      </trkpt>
      <trkpt lat="45.71589" lon="5.71116">
        <ele>228</ele>
        <time>2022-09-06T06:34:09.525Z</time>
      </trkpt>
      <trkpt lat="45.71588" lon="5.71119">
        <ele>228</ele>
        <time>2022-09-06T06:34:10.525Z</time>
      </trkpt>
      <trkpt lat="45.71586" lon="5.71123">
        <ele>227</ele>
        <time>2022-09-06T06:34:11.525Z</time>
      </trkpt>
      <trkpt lat="45.71583" lon="5.71129">
        <ele>227</ele>
        <time>2022-09-06T06:34:12.525Z</time>
      </trkpt>
      <trkpt lat="45.71581" lon="5.71133">
        <ele>227</ele>
        <time>2022-09-06T06:34:13.524Z</time>
      </trkpt>
      <trkpt lat="45.71577" lon="5.71141">
        <ele>227</ele>
        <time>2022-09-06T06:34:14.525Z</time>
      </trkpt>
      <trkpt lat="45.71574" lon="5.71149">
        <ele>227</ele>
        <time>2022-09-06T06:34:15.524Z</time>
      </trkpt>
      <trkpt lat="45.71571" lon="5.71157">
        <ele>227</ele>
        <time>2022-09-06T06:34:16.525Z</time>
      </trkpt>
      <trkpt lat="45.71567" lon="5.71165">
        <ele>228</ele>
        <time>2022-09-06T06:34:17.524Z</time>
      </trkpt>
      <trkpt lat="45.71564" lon="5.71172">
        <ele>228</ele>
        <time>2022-09-06T06:34:18.525Z</time>
      </trkpt>
      <trkpt lat="45.7156" lon="5.71181">
        <ele>229</ele>
        <time>2022-09-06T06:34:19.525Z</time>
      </trkpt>
      <trkpt lat="45.71555" lon="5.71192">
        <ele>229</ele>
        <time>2022-09-06T06:34:20.524Z</time>
      </trkpt>
      <trkpt lat="45.71551" lon="5.71201">
        <ele>230</ele>
        <time>2022-09-06T06:34:21.524Z</time>
      </trkpt>
      <trkpt lat="45.71547" lon="5.71208">
        <ele>230</ele>
        <time>2022-09-06T06:34:22.525Z</time>
      </trkpt>
      <trkpt lat="45.71543" lon="5.71218">
        <ele>231</ele>
        <time>2022-09-06T06:34:23.525Z</time>
      </trkpt>
      <trkpt lat="45.71538" lon="5.71227">
        <ele>231</ele>
        <time>2022-09-06T06:34:24.524Z</time>
      </trkpt>
      <trkpt lat="45.71534" lon="5.71239">
        <ele>231</ele>
        <time>2022-09-06T06:34:25.524Z</time>
      </trkpt>
      <trkpt lat="45.71529" lon="5.71249">
        <ele>231</ele>
        <time>2022-09-06T06:34:26.524Z</time>
      </trkpt>
      <trkpt lat="45.71525" lon="5.71259">
        <ele>231</ele>
        <time>2022-09-06T06:34:27.525Z</time>
      </trkpt>
      <trkpt lat="45.71521" lon="5.71269">
        <ele>231</ele>
        <time>2022-09-06T06:34:28.525Z</time>
      </trkpt>
      <trkpt lat="45.71518" lon="5.71277">
        <ele>232</ele>
        <time>2022-09-06T06:34:29.524Z</time>
      </trkpt>
      <trkpt lat="45.71513" lon="5.71288">
        <ele>232</ele>
        <time>2022-09-06T06:34:30.524Z</time>
      </trkpt>
      <trkpt lat="45.7151" lon="5.71298">
        <ele>233</ele>
        <time>2022-09-06T06:34:31.524Z</time>
      </trkpt>
      <trkpt lat="45.71506" lon="5.71307">
        <ele>233</ele>
        <time>2022-09-06T06:34:32.524Z</time>
      </trkpt>
      <trkpt lat="45.71504" lon="5.71314">
        <ele>234</ele>
        <time>2022-09-06T06:34:33.524Z</time>
      </trkpt>
      <trkpt lat="45.715" lon="5.71322">
        <ele>234</ele>
        <time>2022-09-06T06:34:34.525Z</time>
      </trkpt>
      <trkpt lat="45.71496" lon="5.7133">
        <ele>234</ele>
        <time>2022-09-06T06:34:35.524Z</time>
      </trkpt>
      <trkpt lat="45.71493" lon="5.71337">
        <ele>234</ele>
        <time>2022-09-06T06:34:36.524Z</time>
      </trkpt>
      <trkpt lat="45.7149" lon="5.71342">
        <ele>234</ele>
        <time>2022-09-06T06:34:37.524Z</time>
      </trkpt>
      <trkpt lat="45.71486" lon="5.71349">
        <ele>234</ele>
        <time>2022-09-06T06:34:38.524Z</time>
      </trkpt>
      <trkpt lat="45.71483" lon="5.71355">
        <ele>233</ele>
        <time>2022-09-06T06:34:39.525Z</time>
      </trkpt>
      <trkpt lat="45.7148" lon="5.7136">
        <ele>233</ele>
        <time>2022-09-06T06:34:40.524Z</time>
      </trkpt>
      <trkpt lat="45.71476" lon="5.71364">
        <ele>234</ele>
        <time>2022-09-06T06:34:41.524Z</time>
      </trkpt>
      <trkpt lat="45.71473" lon="5.71366">
        <ele>234</ele>
        <time>2022-09-06T06:34:42.524Z</time>
      </trkpt>
      <trkpt lat="45.71469" lon="5.71369">
        <ele>234</ele>
        <time>2022-09-06T06:34:43.524Z</time>
      </trkpt>
      <trkpt lat="45.71463" lon="5.71371">
        <ele>234</ele>
        <time>2022-09-06T06:34:44.524Z</time>
      </trkpt>
      <trkpt lat="45.71458" lon="5.71371">
        <ele>234</ele>
        <time>2022-09-06T06:34:45.525Z</time>
      </trkpt>
      <trkpt lat="45.71453" lon="5.71371">
        <ele>234</ele>
        <time>2022-09-06T06:34:46.524Z</time>
      </trkpt>
      <trkpt lat="45.71448" lon="5.71372">
        <ele>234</ele>
        <time>2022-09-06T06:34:47.524Z</time>
      </trkpt>
      <trkpt lat="45.71444" lon="5.71372">
        <ele>234</ele>
        <time>2022-09-06T06:34:48.524Z</time>
      </trkpt>
      <trkpt lat="45.71438" lon="5.71373">
        <ele>234</ele>
        <time>2022-09-06T06:34:49.524Z</time>
      </trkpt>
      <trkpt lat="45.71434" lon="5.71374">
        <ele>234</ele>
        <time>2022-09-06T06:34:50.525Z</time>
      </trkpt>
      <trkpt lat="45.7143" lon="5.71376">
        <ele>234</ele>
        <time>2022-09-06T06:34:51.525Z</time>
      </trkpt>
      <trkpt lat="45.71425" lon="5.71379">
        <ele>235</ele>
        <time>2022-09-06T06:34:52.524Z</time>
      </trkpt>
      <trkpt lat="45.7142" lon="5.71384">
        <ele>235</ele>
        <time>2022-09-06T06:34:53.524Z</time>
      </trkpt>
      <trkpt lat="45.71416" lon="5.71388">
        <ele>236</ele>
        <time>2022-09-06T06:34:54.524Z</time>
      </trkpt>
      <trkpt lat="45.71412" lon="5.71393">
        <ele>236</ele>
        <time>2022-09-06T06:34:55.524Z</time>
      </trkpt>
      <trkpt lat="45.71409" lon="5.71396">
        <ele>237</ele>
        <time>2022-09-06T06:34:56.524Z</time>
      </trkpt>
      <trkpt lat="45.71405" lon="5.714">
        <ele>237</ele>
        <time>2022-09-06T06:34:57.524Z</time>
      </trkpt>
      <trkpt lat="45.71401" lon="5.71404">
        <ele>237</ele>
        <time>2022-09-06T06:34:58.524Z</time>
      </trkpt>
      <trkpt lat="45.71396" lon="5.71409">
        <ele>238</ele>
        <time>2022-09-06T06:34:59.524Z</time>
      </trkpt>
      <trkpt lat="45.71392" lon="5.71412">
        <ele>239</ele>
        <time>2022-09-06T06:35:00.525Z</time>
      </trkpt>
      <trkpt lat="45.71388" lon="5.71416">
        <ele>240</ele>
        <time>2022-09-06T06:35:01.524Z</time>
      </trkpt>
      <trkpt lat="45.71384" lon="5.71419">
        <ele>240</ele>
        <time>2022-09-06T06:35:02.524Z</time>
      </trkpt>
      <trkpt lat="45.71379" lon="5.71422">
        <ele>241</ele>
        <time>2022-09-06T06:35:03.525Z</time>
      </trkpt>
      <trkpt lat="45.71374" lon="5.71426">
        <ele>241</ele>
        <time>2022-09-06T06:35:04.524Z</time>
      </trkpt>
      <trkpt lat="45.7137" lon="5.71428">
        <ele>242</ele>
        <time>2022-09-06T06:35:05.525Z</time>
      </trkpt>
      <trkpt lat="45.71366" lon="5.71431">
        <ele>242</ele>
        <time>2022-09-06T06:35:06.525Z</time>
      </trkpt>
      <trkpt lat="45.71361" lon="5.71434">
        <ele>242</ele>
        <time>2022-09-06T06:35:07.525Z</time>
      </trkpt>
      <trkpt lat="45.71357" lon="5.71436">
        <ele>243</ele>
        <time>2022-09-06T06:35:08.525Z</time>
      </trkpt>
      <trkpt lat="45.71352" lon="5.71439">
        <ele>243</ele>
        <time>2022-09-06T06:35:09.525Z</time>
      </trkpt>
      <trkpt lat="45.71348" lon="5.71441">
        <ele>244</ele>
        <time>2022-09-06T06:35:10.525Z</time>
      </trkpt>
      <trkpt lat="45.71343" lon="5.71444">
        <ele>245</ele>
        <time>2022-09-06T06:35:11.524Z</time>
      </trkpt>
      <trkpt lat="45.7134" lon="5.71446">
        <ele>246</ele>
        <time>2022-09-06T06:35:12.524Z</time>
      </trkpt>
      <trkpt lat="45.71335" lon="5.71448">
        <ele>246</ele>
        <time>2022-09-06T06:35:13.524Z</time>
      </trkpt>
      <trkpt lat="45.71331" lon="5.7145">
        <ele>246</ele>
        <time>2022-09-06T06:35:14.525Z</time>
      </trkpt>
      <trkpt lat="45.71325" lon="5.71454">
        <ele>247</ele>
        <time>2022-09-06T06:35:15.525Z</time>
      </trkpt>
      <trkpt lat="45.7132" lon="5.71456">
        <ele>247</ele>
        <time>2022-09-06T06:35:16.525Z</time>
      </trkpt>
      <trkpt lat="45.71316" lon="5.71458">
        <ele>248</ele>
        <time>2022-09-06T06:35:17.524Z</time>
      </trkpt>
      <trkpt lat="45.71312" lon="5.7146">
        <ele>248</ele>
        <time>2022-09-06T06:35:18.525Z</time>
      </trkpt>
      <trkpt lat="45.71307" lon="5.71463">
        <ele>249</ele>
        <time>2022-09-06T06:35:19.524Z</time>
      </trkpt>
      <trkpt lat="45.71302" lon="5.71466">
        <ele>249</ele>
        <time>2022-09-06T06:35:20.525Z</time>
      </trkpt>
      <trkpt lat="45.71298" lon="5.71468">
        <ele>250</ele>
        <time>2022-09-06T06:35:21.525Z</time>
      </trkpt>
      <trkpt lat="45.71294" lon="5.71471">
        <ele>250</ele>
        <time>2022-09-06T06:35:22.525Z</time>
      </trkpt>
      <trkpt lat="45.7129" lon="5.71473">
        <ele>250</ele>
        <time>2022-09-06T06:35:23.525Z</time>
      </trkpt>
      <trkpt lat="45.71286" lon="5.71475">
        <ele>251</ele>
        <time>2022-09-06T06:35:24.525Z</time>
      </trkpt>
      <trkpt lat="45.71281" lon="5.71477">
        <ele>251</ele>
        <time>2022-09-06T06:35:25.525Z</time>
      </trkpt>
      <trkpt lat="45.71276" lon="5.71479">
        <ele>251</ele>
        <time>2022-09-06T06:35:26.524Z</time>
      </trkpt>
      <trkpt lat="45.71272" lon="5.7148">
        <ele>251</ele>
        <time>2022-09-06T06:35:27.524Z</time>
      </trkpt>
      <trkpt lat="45.71267" lon="5.71481">
        <ele>251</ele>
        <time>2022-09-06T06:35:28.525Z</time>
      </trkpt>
      <trkpt lat="45.71263" lon="5.71482">
        <ele>251</ele>
        <time>2022-09-06T06:35:29.525Z</time>
      </trkpt>
      <trkpt lat="45.71258" lon="5.71483">
        <ele>251</ele>
        <time>2022-09-06T06:35:30.525Z</time>
      </trkpt>
      <trkpt lat="45.71253" lon="5.71485">
        <ele>252</ele>
        <time>2022-09-06T06:35:31.525Z</time>
      </trkpt>
      <trkpt lat="45.71248" lon="5.71487">
        <ele>252</ele>
        <time>2022-09-06T06:35:32.525Z</time>
      </trkpt>
      <trkpt lat="45.71244" lon="5.71487">
        <ele>252</ele>
        <time>2022-09-06T06:35:33.524Z</time>
      </trkpt>
      <trkpt lat="45.71238" lon="5.71488">
        <ele>251</ele>
        <time>2022-09-06T06:35:34.524Z</time>
      </trkpt>
      <trkpt lat="45.71233" lon="5.71488">
        <ele>251</ele>
        <time>2022-09-06T06:35:35.525Z</time>
      </trkpt>
      <trkpt lat="45.71228" lon="5.71489">
        <ele>251</ele>
        <time>2022-09-06T06:35:36.524Z</time>
      </trkpt>
      <trkpt lat="45.71223" lon="5.7149">
        <ele>252</ele>
        <time>2022-09-06T06:35:37.525Z</time>
      </trkpt>
      <trkpt lat="45.7122" lon="5.7149">
        <ele>252</ele>
        <time>2022-09-06T06:35:38.525Z</time>
      </trkpt>
      <trkpt lat="45.71214" lon="5.71491">
        <ele>252</ele>
        <time>2022-09-06T06:35:39.525Z</time>
      </trkpt>
      <trkpt lat="45.7121" lon="5.71492">
        <ele>252</ele>
        <time>2022-09-06T06:35:40.525Z</time>
      </trkpt>
      <trkpt lat="45.71205" lon="5.71493">
        <ele>253</ele>
        <time>2022-09-06T06:35:41.525Z</time>
      </trkpt>
      <trkpt lat="45.712" lon="5.71493">
        <ele>253</ele>
        <time>2022-09-06T06:35:42.525Z</time>
      </trkpt>
      <trkpt lat="45.71195" lon="5.71494">
        <ele>252</ele>
        <time>2022-09-06T06:35:43.525Z</time>
      </trkpt>
      <trkpt lat="45.7119" lon="5.71494">
        <ele>252</ele>
        <time>2022-09-06T06:35:44.525Z</time>
      </trkpt>
      <trkpt lat="45.71185" lon="5.71494">
        <ele>252</ele>
        <time>2022-09-06T06:35:45.525Z</time>
      </trkpt>
      <trkpt lat="45.71181" lon="5.71495">
        <ele>252</ele>
        <time>2022-09-06T06:35:46.525Z</time>
      </trkpt>
      <trkpt lat="45.71177" lon="5.71495">
        <ele>251</ele>
        <time>2022-09-06T06:35:47.524Z</time>
      </trkpt>
      <trkpt lat="45.71172" lon="5.71495">
        <ele>251</ele>
        <time>2022-09-06T06:35:48.524Z</time>
      </trkpt>
      <trkpt lat="45.71166" lon="5.71495">
        <ele>251</ele>
        <time>2022-09-06T06:35:49.525Z</time>
      </trkpt>
      <trkpt lat="45.71162" lon="5.71496">
        <ele>252</ele>
        <time>2022-09-06T06:35:50.525Z</time>
      </trkpt>
      <trkpt lat="45.71158" lon="5.71496">
        <ele>252</ele>
        <time>2022-09-06T06:35:51.525Z</time>
      </trkpt>
      <trkpt lat="45.71153" lon="5.71497">
        <ele>252</ele>
        <time>2022-09-06T06:35:52.524Z</time>
      </trkpt>
      <trkpt lat="45.71149" lon="5.71498">
        <ele>252</ele>
        <time>2022-09-06T06:35:53.524Z</time>
      </trkpt>
      <trkpt lat="45.71143" lon="5.71499">
        <ele>253</ele>
        <time>2022-09-06T06:35:54.524Z</time>
      </trkpt>
      <trkpt lat="45.7114" lon="5.71501">
        <ele>253</ele>
        <time>2022-09-06T06:35:55.525Z</time>
      </trkpt>
      <trkpt lat="45.71135" lon="5.71503">
        <ele>253</ele>
        <time>2022-09-06T06:35:56.525Z</time>
      </trkpt>
      <trkpt lat="45.71131" lon="5.71505">
        <ele>253</ele>
        <time>2022-09-06T06:35:57.524Z</time>
      </trkpt>
      <trkpt lat="45.71126" lon="5.71509">
        <ele>253</ele>
        <time>2022-09-06T06:35:58.525Z</time>
      </trkpt>
      <trkpt lat="45.71122" lon="5.71513">
        <ele>254</ele>
        <time>2022-09-06T06:35:59.525Z</time>
      </trkpt>
      <trkpt lat="45.71119" lon="5.71518">
        <ele>254</ele>
        <time>2022-09-06T06:36:00.525Z</time>
      </trkpt>
      <trkpt lat="45.71116" lon="5.71523">
        <ele>254</ele>
        <time>2022-09-06T06:36:01.525Z</time>
      </trkpt>
      <trkpt lat="45.71114" lon="5.7153">
        <ele>254</ele>
        <time>2022-09-06T06:36:02.524Z</time>
      </trkpt>
      <trkpt lat="45.71112" lon="5.71537">
        <ele>254</ele>
        <time>2022-09-06T06:36:03.524Z</time>
      </trkpt>
      <trkpt lat="45.7111" lon="5.71545">
        <ele>255</ele>
        <time>2022-09-06T06:36:04.525Z</time>
      </trkpt>
      <trkpt lat="45.71109" lon="5.71554">
        <ele>255</ele>
        <time>2022-09-06T06:36:05.525Z</time>
      </trkpt>
      <trkpt lat="45.71108" lon="5.71563">
        <ele>255</ele>
        <time>2022-09-06T06:36:06.525Z</time>
      </trkpt>
      <trkpt lat="45.71108" lon="5.71572">
        <ele>254</ele>
        <time>2022-09-06T06:36:07.524Z</time>
      </trkpt>
      <trkpt lat="45.71107" lon="5.71582">
        <ele>254</ele>
        <time>2022-09-06T06:36:08.525Z</time>
      </trkpt>
      <trkpt lat="45.71107" lon="5.71596">
        <ele>253</ele>
        <time>2022-09-06T06:36:09.525Z</time>
      </trkpt>
      <trkpt lat="45.71107" lon="5.71608">
        <ele>253</ele>
        <time>2022-09-06T06:36:10.525Z</time>
      </trkpt>
      <trkpt lat="45.71107" lon="5.7162">
        <ele>252</ele>
        <time>2022-09-06T06:36:11.525Z</time>
      </trkpt>
      <trkpt lat="45.71106" lon="5.71633">
        <ele>251</ele>
        <time>2022-09-06T06:36:12.525Z</time>
      </trkpt>
      <trkpt lat="45.71106" lon="5.71646">
        <ele>250</ele>
        <time>2022-09-06T06:36:13.525Z</time>
      </trkpt>
      <trkpt lat="45.71105" lon="5.7166">
        <ele>250</ele>
        <time>2022-09-06T06:36:14.525Z</time>
      </trkpt>
      <trkpt lat="45.71104" lon="5.71673">
        <ele>249</ele>
        <time>2022-09-06T06:36:15.524Z</time>
      </trkpt>
      <trkpt lat="45.71103" lon="5.71687">
        <ele>249</ele>
        <time>2022-09-06T06:36:16.525Z</time>
      </trkpt>
      <trkpt lat="45.71102" lon="5.71698">
        <ele>249</ele>
        <time>2022-09-06T06:36:17.524Z</time>
      </trkpt>
      <trkpt lat="45.711" lon="5.71712">
        <ele>248</ele>
        <time>2022-09-06T06:36:18.524Z</time>
      </trkpt>
      <trkpt lat="45.71098" lon="5.71729">
        <ele>248</ele>
        <time>2022-09-06T06:36:19.525Z</time>
      </trkpt>
      <trkpt lat="45.71097" lon="5.71743">
        <ele>248</ele>
        <time>2022-09-06T06:36:20.525Z</time>
      </trkpt>
      <trkpt lat="45.71095" lon="5.71757">
        <ele>248</ele>
        <time>2022-09-06T06:36:21.525Z</time>
      </trkpt>
      <trkpt lat="45.71094" lon="5.71771">
        <ele>247</ele>
        <time>2022-09-06T06:36:22.524Z</time>
      </trkpt>
      <trkpt lat="45.71092" lon="5.71782">
        <ele>247</ele>
        <time>2022-09-06T06:36:23.525Z</time>
      </trkpt>
      <trkpt lat="45.71088" lon="5.718">
        <ele>246</ele>
        <time>2022-09-06T06:36:24.524Z</time>
      </trkpt>
      <trkpt lat="45.71084" lon="5.71814">
        <ele>245</ele>
        <time>2022-09-06T06:36:25.525Z</time>
      </trkpt>
      <trkpt lat="45.71079" lon="5.71827">
        <ele>245</ele>
        <time>2022-09-06T06:36:26.525Z</time>
      </trkpt>
      <trkpt lat="45.71073" lon="5.71841">
        <ele>245</ele>
        <time>2022-09-06T06:36:27.524Z</time>
      </trkpt>
      <trkpt lat="45.71069" lon="5.71851">
        <ele>245</ele>
        <time>2022-09-06T06:36:28.525Z</time>
      </trkpt>
      <trkpt lat="45.71062" lon="5.71866">
        <ele>245</ele>
        <time>2022-09-06T06:36:29.525Z</time>
      </trkpt>
      <trkpt lat="45.71056" lon="5.7188">
        <ele>245</ele>
        <time>2022-09-06T06:36:30.525Z</time>
      </trkpt>
      <trkpt lat="45.71051" lon="5.71893">
        <ele>245</ele>
        <time>2022-09-06T06:36:31.524Z</time>
      </trkpt>
      <trkpt lat="45.71044" lon="5.71905">
        <ele>245</ele>
        <time>2022-09-06T06:36:32.525Z</time>
      </trkpt>
      <trkpt lat="45.71038" lon="5.71915">
        <ele>244</ele>
        <time>2022-09-06T06:36:33.524Z</time>
      </trkpt>
      <trkpt lat="45.7103" lon="5.71925">
        <ele>244</ele>
        <time>2022-09-06T06:36:34.525Z</time>
      </trkpt>
      <trkpt lat="45.71021" lon="5.71934">
        <ele>244</ele>
        <time>2022-09-06T06:36:35.524Z</time>
      </trkpt>
      <trkpt lat="45.71009" lon="5.71944">
        <ele>244</ele>
        <time>2022-09-06T06:36:36.525Z</time>
      </trkpt>
      <trkpt lat="45.71001" lon="5.7195">
        <ele>243</ele>
        <time>2022-09-06T06:36:37.524Z</time>
      </trkpt>
      <trkpt lat="45.70991" lon="5.71957">
        <ele>242</ele>
        <time>2022-09-06T06:36:38.525Z</time>
      </trkpt>
      <trkpt lat="45.70981" lon="5.71965">
        <ele>241</ele>
        <time>2022-09-06T06:36:39.525Z</time>
      </trkpt>
      <trkpt lat="45.70968" lon="5.71974">
        <ele>241</ele>
        <time>2022-09-06T06:36:40.525Z</time>
      </trkpt>
      <trkpt lat="45.70958" lon="5.71982">
        <ele>240</ele>
        <time>2022-09-06T06:36:41.524Z</time>
      </trkpt>
      <trkpt lat="45.70949" lon="5.7199">
        <ele>239</ele>
        <time>2022-09-06T06:36:42.524Z</time>
      </trkpt>
      <trkpt lat="45.70939" lon="5.71999">
        <ele>239</ele>
        <time>2022-09-06T06:36:43.524Z</time>
      </trkpt>
      <trkpt lat="45.7093" lon="5.72008">
        <ele>238</ele>
        <time>2022-09-06T06:36:44.525Z</time>
      </trkpt>
      <trkpt lat="45.70922" lon="5.72018">
        <ele>238</ele>
        <time>2022-09-06T06:36:45.524Z</time>
      </trkpt>
      <trkpt lat="45.70914" lon="5.72028">
        <ele>238</ele>
        <time>2022-09-06T06:36:46.524Z</time>
      </trkpt>
      <trkpt lat="45.70907" lon="5.72039">
        <ele>237</ele>
        <time>2022-09-06T06:36:47.524Z</time>
      </trkpt>
      <trkpt lat="45.70901" lon="5.72049">
        <ele>237</ele>
        <time>2022-09-06T06:36:48.524Z</time>
      </trkpt>
      <trkpt lat="45.70894" lon="5.72059">
        <ele>236</ele>
        <time>2022-09-06T06:36:49.524Z</time>
      </trkpt>
      <trkpt lat="45.70886" lon="5.72068">
        <ele>236</ele>
        <time>2022-09-06T06:36:50.524Z</time>
      </trkpt>
      <trkpt lat="45.7088" lon="5.72077">
        <ele>236</ele>
        <time>2022-09-06T06:36:51.524Z</time>
      </trkpt>
      <trkpt lat="45.70873" lon="5.72086">
        <ele>236</ele>
        <time>2022-09-06T06:36:52.525Z</time>
      </trkpt>
      <trkpt lat="45.70868" lon="5.72095">
        <ele>236</ele>
        <time>2022-09-06T06:36:53.525Z</time>
      </trkpt>
      <trkpt lat="45.70863" lon="5.72104">
        <ele>236</ele>
        <time>2022-09-06T06:36:54.525Z</time>
      </trkpt>
      <trkpt lat="45.70858" lon="5.72113">
        <ele>236</ele>
        <time>2022-09-06T06:36:55.524Z</time>
      </trkpt>
      <trkpt lat="45.70862" lon="5.72258">
        <ele>236</ele>
        <time>2022-09-06T06:37:08.524Z</time>
      </trkpt>
      <trkpt lat="45.70864" lon="5.72263">
        <ele>236</ele>
        <time>2022-09-06T06:37:09.525Z</time>
      </trkpt>
      <trkpt lat="45.70865" lon="5.72274">
        <ele>236</ele>
        <time>2022-09-06T06:37:10.524Z</time>
      </trkpt>
      <trkpt lat="45.70866" lon="5.72285">
        <ele>236</ele>
        <time>2022-09-06T06:37:11.524Z</time>
      </trkpt>
      <trkpt lat="45.70867" lon="5.72296">
        <ele>236</ele>
        <time>2022-09-06T06:37:12.525Z</time>
      </trkpt>
      <trkpt lat="45.70869" lon="5.72309">
        <ele>236</ele>
        <time>2022-09-06T06:37:13.524Z</time>
      </trkpt>
      <trkpt lat="45.70872" lon="5.72322">
        <ele>236</ele>
        <time>2022-09-06T06:37:14.524Z</time>
      </trkpt>
      <trkpt lat="45.70873" lon="5.72334">
        <ele>237</ele>
        <time>2022-09-06T06:37:15.525Z</time>
      </trkpt>
      <trkpt lat="45.70876" lon="5.72343">
        <ele>238</ele>
        <time>2022-09-06T06:37:16.525Z</time>
      </trkpt>
      <trkpt lat="45.70878" lon="5.72353">
        <ele>238</ele>
        <time>2022-09-06T06:37:17.525Z</time>
      </trkpt>
      <trkpt lat="45.7088" lon="5.72364">
        <ele>239</ele>
        <time>2022-09-06T06:37:18.524Z</time>
      </trkpt>
      <trkpt lat="45.70881" lon="5.72377">
        <ele>240</ele>
        <time>2022-09-06T06:37:19.525Z</time>
      </trkpt>
      <trkpt lat="45.70882" lon="5.72385">
        <ele>241</ele>
        <time>2022-09-06T06:37:20.525Z</time>
      </trkpt>
      <trkpt lat="45.70883" lon="5.72394">
        <ele>241</ele>
        <time>2022-09-06T06:37:21.525Z</time>
      </trkpt>
      <trkpt lat="45.70884" lon="5.72404">
        <ele>242</ele>
        <time>2022-09-06T06:37:22.525Z</time>
      </trkpt>
      <trkpt lat="45.70886" lon="5.72415">
        <ele>242</ele>
        <time>2022-09-06T06:37:23.524Z</time>
      </trkpt>
      <trkpt lat="45.70886" lon="5.72422">
        <ele>243</ele>
        <time>2022-09-06T06:37:24.525Z</time>
      </trkpt>
      <trkpt lat="45.70888" lon="5.72431">
        <ele>243</ele>
        <time>2022-09-06T06:37:25.525Z</time>
      </trkpt>
      <trkpt lat="45.70936" lon="5.72528">
        <ele>244</ele>
        <time>2022-09-06T06:37:34.525Z</time>
      </trkpt>
      <trkpt lat="45.7094" lon="5.72532">
        <ele>244</ele>
        <time>2022-09-06T06:37:35.525Z</time>
      </trkpt>
      <trkpt lat="45.70941" lon="5.72547">
        <ele>244</ele>
        <time>2022-09-06T06:37:36.524Z</time>
      </trkpt>
      <trkpt lat="45.70943" lon="5.72557">
        <ele>244</ele>
        <time>2022-09-06T06:37:37.525Z</time>
      </trkpt>
      <trkpt lat="45.70943" lon="5.72572">
        <ele>245</ele>
        <time>2022-09-06T06:37:38.524Z</time>
      </trkpt>
      <trkpt lat="45.70942" lon="5.72587">
        <ele>245</ele>
        <time>2022-09-06T06:37:39.525Z</time>
      </trkpt>
      <trkpt lat="45.70939" lon="5.72602">
        <ele>245</ele>
        <time>2022-09-06T06:37:40.524Z</time>
      </trkpt>
      <trkpt lat="45.70935" lon="5.72616">
        <ele>246</ele>
        <time>2022-09-06T06:37:41.524Z</time>
      </trkpt>
      <trkpt lat="45.70928" lon="5.7263">
        <ele>246</ele>
        <time>2022-09-06T06:37:42.524Z</time>
      </trkpt>
      <trkpt lat="45.70922" lon="5.72641">
        <ele>246</ele>
        <time>2022-09-06T06:37:43.525Z</time>
      </trkpt>
      <trkpt lat="45.70916" lon="5.72651">
        <ele>246</ele>
        <time>2022-09-06T06:37:44.525Z</time>
      </trkpt>
      <trkpt lat="45.70909" lon="5.72661">
        <ele>246</ele>
        <time>2022-09-06T06:37:45.524Z</time>
      </trkpt>
      <trkpt lat="45.70902" lon="5.72669">
        <ele>245</ele>
        <time>2022-09-06T06:37:46.524Z</time>
      </trkpt>
      <trkpt lat="45.70896" lon="5.72677">
        <ele>245</ele>
        <time>2022-09-06T06:37:47.524Z</time>
      </trkpt>
      <trkpt lat="45.70889" lon="5.72686">
        <ele>244</ele>
        <time>2022-09-06T06:37:48.525Z</time>
      </trkpt>
      <trkpt lat="45.70883" lon="5.72695">
        <ele>244</ele>
        <time>2022-09-06T06:37:49.524Z</time>
      </trkpt>
      <trkpt lat="45.70876" lon="5.72705">
        <ele>244</ele>
        <time>2022-09-06T06:37:50.524Z</time>
      </trkpt>
      <trkpt lat="45.70871" lon="5.72713">
        <ele>244</ele>
        <time>2022-09-06T06:37:51.525Z</time>
      </trkpt>
      <trkpt lat="45.70865" lon="5.72722">
        <ele>244</ele>
        <time>2022-09-06T06:37:52.525Z</time>
      </trkpt>
      <trkpt lat="45.7086" lon="5.72733">
        <ele>244</ele>
        <time>2022-09-06T06:37:53.525Z</time>
      </trkpt>
      <trkpt lat="45.70856" lon="5.72748">
        <ele>245</ele>
        <time>2022-09-06T06:37:54.525Z</time>
      </trkpt>
      <trkpt lat="45.70856" lon="5.72761">
        <ele>246</ele>
        <time>2022-09-06T06:37:55.525Z</time>
      </trkpt>
      <trkpt lat="45.70858" lon="5.7277">
        <ele>247</ele>
        <time>2022-09-06T06:37:56.524Z</time>
      </trkpt>
      <trkpt lat="45.70859" lon="5.7278">
        <ele>248</ele>
        <time>2022-09-06T06:37:57.525Z</time>
      </trkpt>
      <trkpt lat="45.70863" lon="5.72791">
        <ele>248</ele>
        <time>2022-09-06T06:37:58.525Z</time>
      </trkpt>
      <trkpt lat="45.70868" lon="5.72804">
        <ele>248</ele>
        <time>2022-09-06T06:37:59.525Z</time>
      </trkpt>
      <trkpt lat="45.70873" lon="5.72813">
        <ele>248</ele>
        <time>2022-09-06T06:38:00.524Z</time>
      </trkpt>
      <trkpt lat="45.70878" lon="5.72823">
        <ele>249</ele>
        <time>2022-09-06T06:38:01.524Z</time>
      </trkpt>
      <trkpt lat="45.70884" lon="5.72834">
        <ele>249</ele>
        <time>2022-09-06T06:38:02.525Z</time>
      </trkpt>
      <trkpt lat="45.70889" lon="5.72845">
        <ele>249</ele>
        <time>2022-09-06T06:38:03.524Z</time>
      </trkpt>
      <trkpt lat="45.70896" lon="5.72859">
        <ele>249</ele>
        <time>2022-09-06T06:38:04.525Z</time>
      </trkpt>
      <trkpt lat="45.70901" lon="5.7287">
        <ele>249</ele>
        <time>2022-09-06T06:38:05.525Z</time>
      </trkpt>
      <trkpt lat="45.70905" lon="5.7288">
        <ele>249</ele>
        <time>2022-09-06T06:38:06.525Z</time>
      </trkpt>
      <trkpt lat="45.70909" lon="5.72892">
        <ele>249</ele>
        <time>2022-09-06T06:38:07.524Z</time>
      </trkpt>
      <trkpt lat="45.70913" lon="5.72905">
        <ele>249</ele>
        <time>2022-09-06T06:38:08.524Z</time>
      </trkpt>
      <trkpt lat="45.70917" lon="5.72918">
        <ele>248</ele>
        <time>2022-09-06T06:38:09.525Z</time>
      </trkpt>
      <trkpt lat="45.70922" lon="5.72934">
        <ele>248</ele>
        <time>2022-09-06T06:38:10.524Z</time>
      </trkpt>
      <trkpt lat="45.70923" lon="5.72945">
        <ele>247</ele>
        <time>2022-09-06T06:38:11.525Z</time>
      </trkpt>
      <trkpt lat="45.70927" lon="5.72959">
        <ele>247</ele>
        <time>2022-09-06T06:38:12.524Z</time>
      </trkpt>
      <trkpt lat="45.70929" lon="5.72972">
        <ele>246</ele>
        <time>2022-09-06T06:38:13.525Z</time>
      </trkpt>
      <trkpt lat="45.70933" lon="5.72986">
        <ele>245</ele>
        <time>2022-09-06T06:38:14.525Z</time>
      </trkpt>
      <trkpt lat="45.70937" lon="5.73">
        <ele>245</ele>
        <time>2022-09-06T06:38:15.524Z</time>
      </trkpt>
      <trkpt lat="45.70939" lon="5.73015">
        <ele>244</ele>
        <time>2022-09-06T06:38:16.525Z</time>
      </trkpt>
      <trkpt lat="45.7094" lon="5.7303">
        <ele>244</ele>
        <time>2022-09-06T06:38:17.525Z</time>
      </trkpt>
      <trkpt lat="45.7094" lon="5.73045">
        <ele>243</ele>
        <time>2022-09-06T06:38:18.524Z</time>
      </trkpt>
      <trkpt lat="45.70941" lon="5.73059">
        <ele>242</ele>
        <time>2022-09-06T06:38:19.524Z</time>
      </trkpt>
      <trkpt lat="45.70941" lon="5.73074">
        <ele>241</ele>
        <time>2022-09-06T06:38:20.525Z</time>
      </trkpt>
      <trkpt lat="45.70942" lon="5.73087">
        <ele>241</ele>
        <time>2022-09-06T06:38:21.524Z</time>
      </trkpt>
      <trkpt lat="45.70943" lon="5.73101">
        <ele>240</ele>
        <time>2022-09-06T06:38:22.525Z</time>
      </trkpt>
      <trkpt lat="45.70942" lon="5.73115">
        <ele>240</ele>
        <time>2022-09-06T06:38:23.525Z</time>
      </trkpt>
      <trkpt lat="45.70941" lon="5.73128">
        <ele>240</ele>
        <time>2022-09-06T06:38:24.525Z</time>
      </trkpt>
      <trkpt lat="45.70938" lon="5.73144">
        <ele>240</ele>
        <time>2022-09-06T06:38:25.525Z</time>
      </trkpt>
      <trkpt lat="45.70934" lon="5.73156">
        <ele>240</ele>
        <time>2022-09-06T06:38:26.525Z</time>
      </trkpt>
      <trkpt lat="45.7093" lon="5.73165">
        <ele>240</ele>
        <time>2022-09-06T06:38:27.525Z</time>
      </trkpt>
      <trkpt lat="45.70925" lon="5.73175">
        <ele>240</ele>
        <time>2022-09-06T06:38:28.525Z</time>
      </trkpt>
      <trkpt lat="45.70919" lon="5.73188">
        <ele>240</ele>
        <time>2022-09-06T06:38:29.525Z</time>
      </trkpt>
      <trkpt lat="45.70915" lon="5.73198">
        <ele>240</ele>
        <time>2022-09-06T06:38:30.525Z</time>
      </trkpt>
      <trkpt lat="45.70911" lon="5.73208">
        <ele>240</ele>
        <time>2022-09-06T06:38:31.525Z</time>
      </trkpt>
      <trkpt lat="45.70907" lon="5.73219">
        <ele>240</ele>
        <time>2022-09-06T06:38:32.524Z</time>
      </trkpt>
      <trkpt lat="45.70903" lon="5.73229">
        <ele>241</ele>
        <time>2022-09-06T06:38:33.525Z</time>
      </trkpt>
      <trkpt lat="45.709" lon="5.7324">
        <ele>241</ele>
        <time>2022-09-06T06:38:34.524Z</time>
      </trkpt>
      <trkpt lat="45.70897" lon="5.73251">
        <ele>241</ele>
        <time>2022-09-06T06:38:35.524Z</time>
      </trkpt>
      <trkpt lat="45.70895" lon="5.73262">
        <ele>242</ele>
        <time>2022-09-06T06:38:36.525Z</time>
      </trkpt>
      <trkpt lat="45.70893" lon="5.73271">
        <ele>242</ele>
        <time>2022-09-06T06:38:37.525Z</time>
      </trkpt>
      <trkpt lat="45.7089" lon="5.73282">
        <ele>242</ele>
        <time>2022-09-06T06:38:38.525Z</time>
      </trkpt>
      <trkpt lat="45.70887" lon="5.73292">
        <ele>242</ele>
        <time>2022-09-06T06:38:39.525Z</time>
      </trkpt>
      <trkpt lat="45.70884" lon="5.73303">
        <ele>242</ele>
        <time>2022-09-06T06:38:40.525Z</time>
      </trkpt>
      <trkpt lat="45.70879" lon="5.73313">
        <ele>242</ele>
        <time>2022-09-06T06:38:41.524Z</time>
      </trkpt>
      <trkpt lat="45.70876" lon="5.73323">
        <ele>242</ele>
        <time>2022-09-06T06:38:42.524Z</time>
      </trkpt>
      <trkpt lat="45.70872" lon="5.73334">
        <ele>242</ele>
        <time>2022-09-06T06:38:43.524Z</time>
      </trkpt>
      <trkpt lat="45.70869" lon="5.73346">
        <ele>242</ele>
        <time>2022-09-06T06:38:44.524Z</time>
      </trkpt>
      <trkpt lat="45.70865" lon="5.73358">
        <ele>242</ele>
        <time>2022-09-06T06:38:45.524Z</time>
      </trkpt>
      <trkpt lat="45.70861" lon="5.7337">
        <ele>242</ele>
        <time>2022-09-06T06:38:46.524Z</time>
      </trkpt>
      <trkpt lat="45.70856" lon="5.73382">
        <ele>242</ele>
        <time>2022-09-06T06:38:47.525Z</time>
      </trkpt>
      <trkpt lat="45.70848" lon="5.73392">
        <ele>242</ele>
        <time>2022-09-06T06:38:48.525Z</time>
      </trkpt>
      <trkpt lat="45.70839" lon="5.73401">
        <ele>242</ele>
        <time>2022-09-06T06:38:49.525Z</time>
      </trkpt>
      <trkpt lat="45.70831" lon="5.73409">
        <ele>242</ele>
        <time>2022-09-06T06:38:50.524Z</time>
      </trkpt>
      <trkpt lat="45.70825" lon="5.73417">
        <ele>242</ele>
        <time>2022-09-06T06:38:51.525Z</time>
      </trkpt>
      <trkpt lat="45.70816" lon="5.73424">
        <ele>242</ele>
        <time>2022-09-06T06:38:52.524Z</time>
      </trkpt>
      <trkpt lat="45.70809" lon="5.73433">
        <ele>241</ele>
        <time>2022-09-06T06:38:53.525Z</time>
      </trkpt>
      <trkpt lat="45.70802" lon="5.73442">
        <ele>241</ele>
        <time>2022-09-06T06:38:54.525Z</time>
      </trkpt>
      <trkpt lat="45.70797" lon="5.73451">
        <ele>241</ele>
        <time>2022-09-06T06:38:55.524Z</time>
      </trkpt>
      <trkpt lat="45.70794" lon="5.73459">
        <ele>241</ele>
        <time>2022-09-06T06:38:56.524Z</time>
      </trkpt>
      <trkpt lat="45.70789" lon="5.73468">
        <ele>241</ele>
        <time>2022-09-06T06:38:57.525Z</time>
      </trkpt>
      <trkpt lat="45.70782" lon="5.73478">
        <ele>241</ele>
        <time>2022-09-06T06:38:58.525Z</time>
      </trkpt>
      <trkpt lat="45.70777" lon="5.73487">
        <ele>241</ele>
        <time>2022-09-06T06:38:59.525Z</time>
      </trkpt>
      <trkpt lat="45.70771" lon="5.73495">
        <ele>241</ele>
        <time>2022-09-06T06:39:00.525Z</time>
      </trkpt>
      <trkpt lat="45.70765" lon="5.73504">
        <ele>240</ele>
        <time>2022-09-06T06:39:01.525Z</time>
      </trkpt>
      <trkpt lat="45.70759" lon="5.73512">
        <ele>240</ele>
        <time>2022-09-06T06:39:02.524Z</time>
      </trkpt>
      <trkpt lat="45.70754" lon="5.7352">
        <ele>240</ele>
        <time>2022-09-06T06:39:03.524Z</time>
      </trkpt>
      <trkpt lat="45.70749" lon="5.73528">
        <ele>240</ele>
        <time>2022-09-06T06:39:04.524Z</time>
      </trkpt>
      <trkpt lat="45.70743" lon="5.73536">
        <ele>240</ele>
        <time>2022-09-06T06:39:05.525Z</time>
      </trkpt>
      <trkpt lat="45.70739" lon="5.73542">
        <ele>240</ele>
        <time>2022-09-06T06:39:06.524Z</time>
      </trkpt>
      <trkpt lat="45.70734" lon="5.7355">
        <ele>240</ele>
        <time>2022-09-06T06:39:07.524Z</time>
      </trkpt>
      <trkpt lat="45.70727" lon="5.7356">
        <ele>240</ele>
        <time>2022-09-06T06:39:08.525Z</time>
      </trkpt>
      <trkpt lat="45.70723" lon="5.73569">
        <ele>240</ele>
        <time>2022-09-06T06:39:09.524Z</time>
      </trkpt>
      <trkpt lat="45.70719" lon="5.73579">
        <ele>240</ele>
        <time>2022-09-06T06:39:10.524Z</time>
      </trkpt>
      <trkpt lat="45.70715" lon="5.7359">
        <ele>240</ele>
        <time>2022-09-06T06:39:11.524Z</time>
      </trkpt>
      <trkpt lat="45.7071" lon="5.736">
        <ele>241</ele>
        <time>2022-09-06T06:39:12.525Z</time>
      </trkpt>
      <trkpt lat="45.70705" lon="5.73609">
        <ele>241</ele>
        <time>2022-09-06T06:39:13.525Z</time>
      </trkpt>
      <trkpt lat="45.70699" lon="5.73618">
        <ele>241</ele>
        <time>2022-09-06T06:39:14.524Z</time>
      </trkpt>
      <trkpt lat="45.70694" lon="5.73628">
        <ele>241</ele>
        <time>2022-09-06T06:39:15.524Z</time>
      </trkpt>
      <trkpt lat="45.70689" lon="5.73637">
        <ele>242</ele>
        <time>2022-09-06T06:39:16.525Z</time>
      </trkpt>
      <trkpt lat="45.70684" lon="5.73646">
        <ele>242</ele>
        <time>2022-09-06T06:39:17.525Z</time>
      </trkpt>
      <trkpt lat="45.70679" lon="5.73656">
        <ele>242</ele>
        <time>2022-09-06T06:39:18.525Z</time>
      </trkpt>
      <trkpt lat="45.70674" lon="5.73665">
        <ele>242</ele>
        <time>2022-09-06T06:39:19.524Z</time>
      </trkpt>
      <trkpt lat="45.7067" lon="5.73674">
        <ele>243</ele>
        <time>2022-09-06T06:39:20.524Z</time>
      </trkpt>
      <trkpt lat="45.70664" lon="5.73683">
        <ele>243</ele>
        <time>2022-09-06T06:39:21.525Z</time>
      </trkpt>
      <trkpt lat="45.70659" lon="5.73693">
        <ele>243</ele>
        <time>2022-09-06T06:39:22.525Z</time>
      </trkpt>
      <trkpt lat="45.70655" lon="5.73702">
        <ele>244</ele>
        <time>2022-09-06T06:39:23.525Z</time>
      </trkpt>
      <trkpt lat="45.7065" lon="5.7371">
        <ele>244</ele>
        <time>2022-09-06T06:39:24.524Z</time>
      </trkpt>
      <trkpt lat="45.70645" lon="5.73719">
        <ele>244</ele>
        <time>2022-09-06T06:39:25.525Z</time>
      </trkpt>
      <trkpt lat="45.7064" lon="5.73729">
        <ele>244</ele>
        <time>2022-09-06T06:39:26.524Z</time>
      </trkpt>
      <trkpt lat="45.70636" lon="5.73739">
        <ele>245</ele>
        <time>2022-09-06T06:39:27.525Z</time>
      </trkpt>
      <trkpt lat="45.70631" lon="5.73749">
        <ele>245</ele>
        <time>2022-09-06T06:39:28.525Z</time>
      </trkpt>
      <trkpt lat="45.70627" lon="5.7376">
        <ele>245</ele>
        <time>2022-09-06T06:39:29.525Z</time>
      </trkpt>
      <trkpt lat="45.70623" lon="5.73771">
        <ele>246</ele>
        <time>2022-09-06T06:39:30.525Z</time>
      </trkpt>
      <trkpt lat="45.70619" lon="5.73782">
        <ele>246</ele>
        <time>2022-09-06T06:39:31.525Z</time>
      </trkpt>
      <trkpt lat="45.70615" lon="5.73794">
        <ele>246</ele>
        <time>2022-09-06T06:39:32.525Z</time>
      </trkpt>
      <trkpt lat="45.70612" lon="5.73806">
        <ele>245</ele>
        <time>2022-09-06T06:39:33.525Z</time>
      </trkpt>
      <trkpt lat="45.70608" lon="5.73818">
        <ele>245</ele>
        <time>2022-09-06T06:39:34.524Z</time>
      </trkpt>
      <trkpt lat="45.70605" lon="5.7383">
        <ele>245</ele>
        <time>2022-09-06T06:39:35.525Z</time>
      </trkpt>
      <trkpt lat="45.70602" lon="5.73843">
        <ele>244</ele>
        <time>2022-09-06T06:39:36.525Z</time>
      </trkpt>
      <trkpt lat="45.706" lon="5.73856">
        <ele>244</ele>
        <time>2022-09-06T06:39:37.524Z</time>
      </trkpt>
      <trkpt lat="45.70598" lon="5.7387">
        <ele>243</ele>
        <time>2022-09-06T06:39:38.524Z</time>
      </trkpt>
      <trkpt lat="45.70597" lon="5.73883">
        <ele>242</ele>
        <time>2022-09-06T06:39:39.525Z</time>
      </trkpt>
      <trkpt lat="45.70598" lon="5.73897">
        <ele>242</ele>
        <time>2022-09-06T06:39:40.525Z</time>
      </trkpt>
      <trkpt lat="45.70599" lon="5.73912">
        <ele>241</ele>
        <time>2022-09-06T06:39:41.525Z</time>
      </trkpt>
      <trkpt lat="45.70599" lon="5.73926">
        <ele>241</ele>
        <time>2022-09-06T06:39:42.525Z</time>
      </trkpt>
      <trkpt lat="45.706" lon="5.7394">
        <ele>240</ele>
        <time>2022-09-06T06:39:43.525Z</time>
      </trkpt>
      <trkpt lat="45.70601" lon="5.73955">
        <ele>240</ele>
        <time>2022-09-06T06:39:44.525Z</time>
      </trkpt>
      <trkpt lat="45.70602" lon="5.73969">
        <ele>240</ele>
        <time>2022-09-06T06:39:45.524Z</time>
      </trkpt>
      <trkpt lat="45.70602" lon="5.73981">
        <ele>240</ele>
        <time>2022-09-06T06:39:46.525Z</time>
      </trkpt>
      <trkpt lat="45.70603" lon="5.73999">
        <ele>240</ele>
        <time>2022-09-06T06:39:47.525Z</time>
      </trkpt>
      <trkpt lat="45.70604" lon="5.74014">
        <ele>240</ele>
        <time>2022-09-06T06:39:48.525Z</time>
      </trkpt>
      <trkpt lat="45.70604" lon="5.74028">
        <ele>240</ele>
        <time>2022-09-06T06:39:49.525Z</time>
      </trkpt>
      <trkpt lat="45.70604" lon="5.74042">
        <ele>240</ele>
        <time>2022-09-06T06:39:50.525Z</time>
      </trkpt>
      <trkpt lat="45.70604" lon="5.74056">
        <ele>239</ele>
        <time>2022-09-06T06:39:51.525Z</time>
      </trkpt>
      <trkpt lat="45.70605" lon="5.74069">
        <ele>239</ele>
        <time>2022-09-06T06:39:52.525Z</time>
      </trkpt>
      <trkpt lat="45.70605" lon="5.74081">
        <ele>239</ele>
        <time>2022-09-06T06:39:53.525Z</time>
      </trkpt>
      <trkpt lat="45.70606" lon="5.74094">
        <ele>239</ele>
        <time>2022-09-06T06:39:54.525Z</time>
      </trkpt>
      <trkpt lat="45.70607" lon="5.74103">
        <ele>239</ele>
        <time>2022-09-06T06:39:55.524Z</time>
      </trkpt>
      <trkpt lat="45.70608" lon="5.74115">
        <ele>239</ele>
        <time>2022-09-06T06:39:56.525Z</time>
      </trkpt>
      <trkpt lat="45.70608" lon="5.74129">
        <ele>239</ele>
        <time>2022-09-06T06:39:57.524Z</time>
      </trkpt>
      <trkpt lat="45.70609" lon="5.7414">
        <ele>240</ele>
        <time>2022-09-06T06:39:58.525Z</time>
      </trkpt>
      <trkpt lat="45.70609" lon="5.74152">
        <ele>240</ele>
        <time>2022-09-06T06:39:59.525Z</time>
      </trkpt>
      <trkpt lat="45.70608" lon="5.74161">
        <ele>241</ele>
        <time>2022-09-06T06:40:00.525Z</time>
      </trkpt>
      <trkpt lat="45.70608" lon="5.74172">
        <ele>241</ele>
        <time>2022-09-06T06:40:01.524Z</time>
      </trkpt>
      <trkpt lat="45.70607" lon="5.74183">
        <ele>242</ele>
        <time>2022-09-06T06:40:02.524Z</time>
      </trkpt>
      <trkpt lat="45.70606" lon="5.74194">
        <ele>242</ele>
        <time>2022-09-06T06:40:03.524Z</time>
      </trkpt>
      <trkpt lat="45.70604" lon="5.74205">
        <ele>242</ele>
        <time>2022-09-06T06:40:04.525Z</time>
      </trkpt>
      <trkpt lat="45.70602" lon="5.74215">
        <ele>243</ele>
        <time>2022-09-06T06:40:05.525Z</time>
      </trkpt>
      <trkpt lat="45.70599" lon="5.74227">
        <ele>243</ele>
        <time>2022-09-06T06:40:06.525Z</time>
      </trkpt>
      <trkpt lat="45.70597" lon="5.74236">
        <ele>243</ele>
        <time>2022-09-06T06:40:07.525Z</time>
      </trkpt>
      <trkpt lat="45.70596" lon="5.74244">
        <ele>244</ele>
        <time>2022-09-06T06:40:08.525Z</time>
      </trkpt>
      <trkpt lat="45.70594" lon="5.74257">
        <ele>244</ele>
        <time>2022-09-06T06:40:09.525Z</time>
      </trkpt>
      <trkpt lat="45.70593" lon="5.74265">
        <ele>245</ele>
        <time>2022-09-06T06:40:10.525Z</time>
      </trkpt>
      <trkpt lat="45.70592" lon="5.74275">
        <ele>246</ele>
        <time>2022-09-06T06:40:11.525Z</time>
      </trkpt>
      <trkpt lat="45.7059" lon="5.74285">
        <ele>246</ele>
        <time>2022-09-06T06:40:12.524Z</time>
      </trkpt>
      <trkpt lat="45.70589" lon="5.74295">
        <ele>247</ele>
        <time>2022-09-06T06:40:13.524Z</time>
      </trkpt>
      <trkpt lat="45.70588" lon="5.74307">
        <ele>247</ele>
        <time>2022-09-06T06:40:14.525Z</time>
      </trkpt>
      <trkpt lat="45.70587" lon="5.74316">
        <ele>248</ele>
        <time>2022-09-06T06:40:15.525Z</time>
      </trkpt>
      <trkpt lat="45.70586" lon="5.74327">
        <ele>249</ele>
        <time>2022-09-06T06:40:16.525Z</time>
      </trkpt>
      <trkpt lat="45.70585" lon="5.74338">
        <ele>250</ele>
        <time>2022-09-06T06:40:17.524Z</time>
      </trkpt>
      <trkpt lat="45.70583" lon="5.74349">
        <ele>250</ele>
        <time>2022-09-06T06:40:18.525Z</time>
      </trkpt>
      <trkpt lat="45.70582" lon="5.74359">
        <ele>250</ele>
        <time>2022-09-06T06:40:19.525Z</time>
      </trkpt>
      <trkpt lat="45.7058" lon="5.7437">
        <ele>249</ele>
        <time>2022-09-06T06:40:20.525Z</time>
      </trkpt>
      <trkpt lat="45.70579" lon="5.7438">
        <ele>249</ele>
        <time>2022-09-06T06:40:21.524Z</time>
      </trkpt>
      <trkpt lat="45.70577" lon="5.74391">
        <ele>249</ele>
        <time>2022-09-06T06:40:22.525Z</time>
      </trkpt>
      <trkpt lat="45.70575" lon="5.74404">
        <ele>248</ele>
        <time>2022-09-06T06:40:23.524Z</time>
      </trkpt>
      <trkpt lat="45.70573" lon="5.74415">
        <ele>249</ele>
        <time>2022-09-06T06:40:24.524Z</time>
      </trkpt>
      <trkpt lat="45.70572" lon="5.74424">
        <ele>249</ele>
        <time>2022-09-06T06:40:25.525Z</time>
      </trkpt>
      <trkpt lat="45.7057" lon="5.74435">
        <ele>249</ele>
        <time>2022-09-06T06:40:26.525Z</time>
      </trkpt>
      <trkpt lat="45.70568" lon="5.74446">
        <ele>250</ele>
        <time>2022-09-06T06:40:27.524Z</time>
      </trkpt>
      <trkpt lat="45.70565" lon="5.7446">
        <ele>250</ele>
        <time>2022-09-06T06:40:28.524Z</time>
      </trkpt>
      <trkpt lat="45.70563" lon="5.74471">
        <ele>251</ele>
        <time>2022-09-06T06:40:29.524Z</time>
      </trkpt>
      <trkpt lat="45.70562" lon="5.7448">
        <ele>251</ele>
        <time>2022-09-06T06:40:30.524Z</time>
      </trkpt>
      <trkpt lat="45.7056" lon="5.74494">
        <ele>250</ele>
        <time>2022-09-06T06:40:31.524Z</time>
      </trkpt>
      <trkpt lat="45.70559" lon="5.74505">
        <ele>250</ele>
        <time>2022-09-06T06:40:32.524Z</time>
      </trkpt>
      <trkpt lat="45.70557" lon="5.74517">
        <ele>250</ele>
        <time>2022-09-06T06:40:33.525Z</time>
      </trkpt>
      <trkpt lat="45.70555" lon="5.74529">
        <ele>250</ele>
        <time>2022-09-06T06:40:34.524Z</time>
      </trkpt>
      <trkpt lat="45.70552" lon="5.7454">
        <ele>250</ele>
        <time>2022-09-06T06:40:35.525Z</time>
      </trkpt>
      <trkpt lat="45.70549" lon="5.74551">
        <ele>250</ele>
        <time>2022-09-06T06:40:36.524Z</time>
      </trkpt>
      <trkpt lat="45.70545" lon="5.74562">
        <ele>249</ele>
        <time>2022-09-06T06:40:37.525Z</time>
      </trkpt>
      <trkpt lat="45.70541" lon="5.74573">
        <ele>249</ele>
        <time>2022-09-06T06:40:38.524Z</time>
      </trkpt>
      <trkpt lat="45.70537" lon="5.74581">
        <ele>249</ele>
        <time>2022-09-06T06:40:39.525Z</time>
      </trkpt>
      <trkpt lat="45.70532" lon="5.74594">
        <ele>248</ele>
        <time>2022-09-06T06:40:40.525Z</time>
      </trkpt>
      <trkpt lat="45.70528" lon="5.74601">
        <ele>248</ele>
        <time>2022-09-06T06:40:41.524Z</time>
      </trkpt>
      <trkpt lat="45.70523" lon="5.74614">
        <ele>247</ele>
        <time>2022-09-06T06:40:42.524Z</time>
      </trkpt>
      <trkpt lat="45.70519" lon="5.74624">
        <ele>247</ele>
        <time>2022-09-06T06:40:43.525Z</time>
      </trkpt>
      <trkpt lat="45.70516" lon="5.74635">
        <ele>246</ele>
        <time>2022-09-06T06:40:44.524Z</time>
      </trkpt>
      <trkpt lat="45.70513" lon="5.74645">
        <ele>246</ele>
        <time>2022-09-06T06:40:45.524Z</time>
      </trkpt>
      <trkpt lat="45.70511" lon="5.74656">
        <ele>246</ele>
        <time>2022-09-06T06:40:46.525Z</time>
      </trkpt>
      <trkpt lat="45.70509" lon="5.74666">
        <ele>246</ele>
        <time>2022-09-06T06:40:47.525Z</time>
      </trkpt>
      <trkpt lat="45.70506" lon="5.74676">
        <ele>246</ele>
        <time>2022-09-06T06:40:48.525Z</time>
      </trkpt>
      <trkpt lat="45.70503" lon="5.74687">
        <ele>246</ele>
        <time>2022-09-06T06:40:49.525Z</time>
      </trkpt>
      <trkpt lat="45.705" lon="5.74697">
        <ele>246</ele>
        <time>2022-09-06T06:40:50.525Z</time>
      </trkpt>
      <trkpt lat="45.70497" lon="5.74708">
        <ele>246</ele>
        <time>2022-09-06T06:40:51.525Z</time>
      </trkpt>
      <trkpt lat="45.70493" lon="5.74718">
        <ele>246</ele>
        <time>2022-09-06T06:40:52.525Z</time>
      </trkpt>
      <trkpt lat="45.7049" lon="5.74729">
        <ele>245</ele>
        <time>2022-09-06T06:40:53.524Z</time>
      </trkpt>
      <trkpt lat="45.70487" lon="5.74737">
        <ele>245</ele>
        <time>2022-09-06T06:40:54.525Z</time>
      </trkpt>
      <trkpt lat="45.70483" lon="5.7475">
        <ele>245</ele>
        <time>2022-09-06T06:40:55.525Z</time>
      </trkpt>
      <trkpt lat="45.7048" lon="5.74759">
        <ele>244</ele>
        <time>2022-09-06T06:40:56.524Z</time>
      </trkpt>
      <trkpt lat="45.70476" lon="5.7477">
        <ele>244</ele>
        <time>2022-09-06T06:40:57.524Z</time>
      </trkpt>
      <trkpt lat="45.70475" lon="5.74778">
        <ele>243</ele>
        <time>2022-09-06T06:40:58.525Z</time>
      </trkpt>
      <trkpt lat="45.70473" lon="5.74788">
        <ele>243</ele>
        <time>2022-09-06T06:40:59.525Z</time>
      </trkpt>
      <trkpt lat="45.70471" lon="5.74799">
        <ele>243</ele>
        <time>2022-09-06T06:41:00.524Z</time>
      </trkpt>
      <trkpt lat="45.70471" lon="5.7481">
        <ele>243</ele>
        <time>2022-09-06T06:41:01.525Z</time>
      </trkpt>
      <trkpt lat="45.70472" lon="5.74824">
        <ele>242</ele>
        <time>2022-09-06T06:41:02.525Z</time>
      </trkpt>
      <trkpt lat="45.70474" lon="5.74834">
        <ele>242</ele>
        <time>2022-09-06T06:41:03.525Z</time>
      </trkpt>
      <trkpt lat="45.70477" lon="5.74845">
        <ele>241</ele>
        <time>2022-09-06T06:41:04.525Z</time>
      </trkpt>
      <trkpt lat="45.7048" lon="5.74855">
        <ele>241</ele>
        <time>2022-09-06T06:41:05.525Z</time>
      </trkpt>
      <trkpt lat="45.70483" lon="5.74866">
        <ele>241</ele>
        <time>2022-09-06T06:41:06.525Z</time>
      </trkpt>
      <trkpt lat="45.70487" lon="5.74876">
        <ele>240</ele>
        <time>2022-09-06T06:41:07.525Z</time>
      </trkpt>
      <trkpt lat="45.70491" lon="5.74887">
        <ele>241</ele>
        <time>2022-09-06T06:41:08.525Z</time>
      </trkpt>
      <trkpt lat="45.70495" lon="5.74897">
        <ele>241</ele>
        <time>2022-09-06T06:41:09.525Z</time>
      </trkpt>
      <trkpt lat="45.70499" lon="5.74908">
        <ele>241</ele>
        <time>2022-09-06T06:41:10.524Z</time>
      </trkpt>
      <trkpt lat="45.70503" lon="5.74919">
        <ele>241</ele>
        <time>2022-09-06T06:41:11.525Z</time>
      </trkpt>
      <trkpt lat="45.70506" lon="5.7493">
        <ele>240</ele>
        <time>2022-09-06T06:41:12.525Z</time>
      </trkpt>
      <trkpt lat="45.7051" lon="5.74941">
        <ele>240</ele>
        <time>2022-09-06T06:41:13.524Z</time>
      </trkpt>
      <trkpt lat="45.70514" lon="5.74951">
        <ele>240</ele>
        <time>2022-09-06T06:41:14.525Z</time>
      </trkpt>
      <trkpt lat="45.70517" lon="5.74961">
        <ele>240</ele>
        <time>2022-09-06T06:41:15.525Z</time>
      </trkpt>
      <trkpt lat="45.7052" lon="5.74972">
        <ele>240</ele>
        <time>2022-09-06T06:41:16.525Z</time>
      </trkpt>
      <trkpt lat="45.70522" lon="5.74982">
        <ele>239</ele>
        <time>2022-09-06T06:41:17.525Z</time>
      </trkpt>
      <trkpt lat="45.70526" lon="5.74993">
        <ele>239</ele>
        <time>2022-09-06T06:41:18.524Z</time>
      </trkpt>
      <trkpt lat="45.70529" lon="5.75004">
        <ele>239</ele>
        <time>2022-09-06T06:41:19.525Z</time>
      </trkpt>
      <trkpt lat="45.70531" lon="5.75014">
        <ele>239</ele>
        <time>2022-09-06T06:41:20.525Z</time>
      </trkpt>
      <trkpt lat="45.70534" lon="5.75025">
        <ele>239</ele>
        <time>2022-09-06T06:41:21.524Z</time>
      </trkpt>
      <trkpt lat="45.70535" lon="5.75036">
        <ele>239</ele>
        <time>2022-09-06T06:41:22.525Z</time>
      </trkpt>
      <trkpt lat="45.70536" lon="5.75047">
        <ele>239</ele>
        <time>2022-09-06T06:41:23.525Z</time>
      </trkpt>
      <trkpt lat="45.70538" lon="5.75058">
        <ele>238</ele>
        <time>2022-09-06T06:41:24.524Z</time>
      </trkpt>
      <trkpt lat="45.70538" lon="5.7507">
        <ele>237</ele>
        <time>2022-09-06T06:41:25.524Z</time>
      </trkpt>
      <trkpt lat="45.7054" lon="5.75081">
        <ele>237</ele>
        <time>2022-09-06T06:41:26.525Z</time>
      </trkpt>
      <trkpt lat="45.70541" lon="5.75091">
        <ele>238</ele>
        <time>2022-09-06T06:41:27.525Z</time>
      </trkpt>
      <trkpt lat="45.70541" lon="5.75102">
        <ele>238</ele>
        <time>2022-09-06T06:41:28.524Z</time>
      </trkpt>
      <trkpt lat="45.7054" lon="5.75114">
        <ele>239</ele>
        <time>2022-09-06T06:41:29.525Z</time>
      </trkpt>
      <trkpt lat="45.70538" lon="5.75125">
        <ele>238</ele>
        <time>2022-09-06T06:41:30.525Z</time>
      </trkpt>
      <trkpt lat="45.70538" lon="5.75136">
        <ele>238</ele>
        <time>2022-09-06T06:41:31.524Z</time>
      </trkpt>
      <trkpt lat="45.70537" lon="5.75148">
        <ele>238</ele>
        <time>2022-09-06T06:41:32.524Z</time>
      </trkpt>
      <trkpt lat="45.70537" lon="5.7516">
        <ele>239</ele>
        <time>2022-09-06T06:41:33.525Z</time>
      </trkpt>
      <trkpt lat="45.70536" lon="5.75173">
        <ele>239</ele>
        <time>2022-09-06T06:41:34.524Z</time>
      </trkpt>
      <trkpt lat="45.70534" lon="5.75184">
        <ele>238</ele>
        <time>2022-09-06T06:41:35.525Z</time>
      </trkpt>
      <trkpt lat="45.70534" lon="5.75196">
        <ele>238</ele>
        <time>2022-09-06T06:41:36.525Z</time>
      </trkpt>
      <trkpt lat="45.70533" lon="5.75205">
        <ele>238</ele>
        <time>2022-09-06T06:41:37.524Z</time>
      </trkpt>
      <trkpt lat="45.70533" lon="5.75216">
        <ele>237</ele>
        <time>2022-09-06T06:41:38.525Z</time>
      </trkpt>
      <trkpt lat="45.70533" lon="5.75227">
        <ele>237</ele>
        <time>2022-09-06T06:41:39.524Z</time>
      </trkpt>
      <trkpt lat="45.70533" lon="5.75239">
        <ele>237</ele>
        <time>2022-09-06T06:41:40.525Z</time>
      </trkpt>
      <trkpt lat="45.70532" lon="5.7525">
        <ele>237</ele>
        <time>2022-09-06T06:41:41.524Z</time>
      </trkpt>
      <trkpt lat="45.70532" lon="5.75262">
        <ele>236</ele>
        <time>2022-09-06T06:41:42.524Z</time>
      </trkpt>
      <trkpt lat="45.70533" lon="5.75273">
        <ele>236</ele>
        <time>2022-09-06T06:41:43.525Z</time>
      </trkpt>
      <trkpt lat="45.70533" lon="5.75285">
        <ele>236</ele>
        <time>2022-09-06T06:41:44.525Z</time>
      </trkpt>
      <trkpt lat="45.70533" lon="5.75296">
        <ele>235</ele>
        <time>2022-09-06T06:41:45.525Z</time>
      </trkpt>
      <trkpt lat="45.70533" lon="5.75308">
        <ele>235</ele>
        <time>2022-09-06T06:41:46.525Z</time>
      </trkpt>
      <trkpt lat="45.70534" lon="5.75319">
        <ele>234</ele>
        <time>2022-09-06T06:41:47.524Z</time>
      </trkpt>
      <trkpt lat="45.70534" lon="5.75331">
        <ele>234</ele>
        <time>2022-09-06T06:41:48.525Z</time>
      </trkpt>
      <trkpt lat="45.70535" lon="5.75342">
        <ele>234</ele>
        <time>2022-09-06T06:41:49.524Z</time>
      </trkpt>
      <trkpt lat="45.70536" lon="5.75354">
        <ele>234</ele>
        <time>2022-09-06T06:41:50.524Z</time>
      </trkpt>
      <trkpt lat="45.70537" lon="5.75366">
        <ele>233</ele>
        <time>2022-09-06T06:41:51.525Z</time>
      </trkpt>
      <trkpt lat="45.70538" lon="5.75377">
        <ele>234</ele>
        <time>2022-09-06T06:41:52.525Z</time>
      </trkpt>
      <trkpt lat="45.70539" lon="5.75389">
        <ele>234</ele>
        <time>2022-09-06T06:41:53.525Z</time>
      </trkpt>
      <trkpt lat="45.70541" lon="5.754">
        <ele>234</ele>
        <time>2022-09-06T06:41:54.524Z</time>
      </trkpt>
      <trkpt lat="45.70542" lon="5.75412">
        <ele>234</ele>
        <time>2022-09-06T06:41:55.525Z</time>
      </trkpt>
      <trkpt lat="45.70544" lon="5.75423">
        <ele>234</ele>
        <time>2022-09-06T06:41:56.524Z</time>
      </trkpt>
      <trkpt lat="45.70546" lon="5.75435">
        <ele>234</ele>
        <time>2022-09-06T06:41:57.524Z</time>
      </trkpt>
      <trkpt lat="45.70548" lon="5.75447">
        <ele>234</ele>
        <time>2022-09-06T06:41:58.525Z</time>
      </trkpt>
      <trkpt lat="45.7055" lon="5.75459">
        <ele>234</ele>
        <time>2022-09-06T06:41:59.524Z</time>
      </trkpt>
      <trkpt lat="45.70552" lon="5.7547">
        <ele>234</ele>
        <time>2022-09-06T06:42:00.524Z</time>
      </trkpt>
      <trkpt lat="45.70553" lon="5.75483">
        <ele>234</ele>
        <time>2022-09-06T06:42:01.525Z</time>
      </trkpt>
      <trkpt lat="45.70555" lon="5.75494">
        <ele>234</ele>
        <time>2022-09-06T06:42:02.524Z</time>
      </trkpt>
      <trkpt lat="45.70557" lon="5.75506">
        <ele>234</ele>
        <time>2022-09-06T06:42:03.524Z</time>
      </trkpt>
      <trkpt lat="45.70559" lon="5.75518">
        <ele>234</ele>
        <time>2022-09-06T06:42:04.524Z</time>
      </trkpt>
      <trkpt lat="45.70561" lon="5.75529">
        <ele>234</ele>
        <time>2022-09-06T06:42:05.525Z</time>
      </trkpt>
      <trkpt lat="45.70562" lon="5.75541">
        <ele>235</ele>
        <time>2022-09-06T06:42:06.525Z</time>
      </trkpt>
      <trkpt lat="45.70564" lon="5.75552">
        <ele>235</ele>
        <time>2022-09-06T06:42:07.525Z</time>
      </trkpt>
      <trkpt lat="45.70566" lon="5.75563">
        <ele>235</ele>
        <time>2022-09-06T06:42:08.525Z</time>
      </trkpt>
      <trkpt lat="45.70568" lon="5.75575">
        <ele>235</ele>
        <time>2022-09-06T06:42:09.525Z</time>
      </trkpt>
      <trkpt lat="45.70569" lon="5.75586">
        <ele>234</ele>
        <time>2022-09-06T06:42:10.525Z</time>
      </trkpt>
      <trkpt lat="45.70571" lon="5.75597">
        <ele>234</ele>
        <time>2022-09-06T06:42:11.525Z</time>
      </trkpt>
      <trkpt lat="45.70573" lon="5.75608">
        <ele>234</ele>
        <time>2022-09-06T06:42:12.525Z</time>
      </trkpt>
      <trkpt lat="45.70574" lon="5.75619">
        <ele>234</ele>
        <time>2022-09-06T06:42:13.525Z</time>
      </trkpt>
      <trkpt lat="45.70576" lon="5.7563">
        <ele>234</ele>
        <time>2022-09-06T06:42:14.524Z</time>
      </trkpt>
      <trkpt lat="45.70578" lon="5.75642">
        <ele>234</ele>
        <time>2022-09-06T06:42:15.525Z</time>
      </trkpt>
      <trkpt lat="45.7058" lon="5.75653">
        <ele>234</ele>
        <time>2022-09-06T06:42:16.524Z</time>
      </trkpt>
      <trkpt lat="45.70581" lon="5.75664">
        <ele>234</ele>
        <time>2022-09-06T06:42:17.525Z</time>
      </trkpt>
      <trkpt lat="45.70583" lon="5.75675">
        <ele>234</ele>
        <time>2022-09-06T06:42:18.525Z</time>
      </trkpt>
      <trkpt lat="45.70585" lon="5.75686">
        <ele>234</ele>
        <time>2022-09-06T06:42:19.525Z</time>
      </trkpt>
      <trkpt lat="45.70586" lon="5.75697">
        <ele>234</ele>
        <time>2022-09-06T06:42:20.524Z</time>
      </trkpt>
      <trkpt lat="45.70588" lon="5.75708">
        <ele>234</ele>
        <time>2022-09-06T06:42:21.524Z</time>
      </trkpt>
      <trkpt lat="45.7059" lon="5.75719">
        <ele>234</ele>
        <time>2022-09-06T06:42:22.524Z</time>
      </trkpt>
      <trkpt lat="45.70591" lon="5.75729">
        <ele>235</ele>
        <time>2022-09-06T06:42:23.524Z</time>
      </trkpt>
      <trkpt lat="45.70593" lon="5.7574">
        <ele>235</ele>
        <time>2022-09-06T06:42:24.525Z</time>
      </trkpt>
      <trkpt lat="45.70595" lon="5.75751">
        <ele>235</ele>
        <time>2022-09-06T06:42:25.525Z</time>
      </trkpt>
      <trkpt lat="45.70597" lon="5.75762">
        <ele>236</ele>
        <time>2022-09-06T06:42:26.524Z</time>
      </trkpt>
      <trkpt lat="45.70599" lon="5.75772">
        <ele>236</ele>
        <time>2022-09-06T06:42:27.525Z</time>
      </trkpt>
      <trkpt lat="45.706" lon="5.75783">
        <ele>236</ele>
        <time>2022-09-06T06:42:28.525Z</time>
      </trkpt>
      <trkpt lat="45.70602" lon="5.75794">
        <ele>236</ele>
        <time>2022-09-06T06:42:29.525Z</time>
      </trkpt>
      <trkpt lat="45.70604" lon="5.75805">
        <ele>236</ele>
        <time>2022-09-06T06:42:30.525Z</time>
      </trkpt>
      <trkpt lat="45.70606" lon="5.75816">
        <ele>236</ele>
        <time>2022-09-06T06:42:31.524Z</time>
      </trkpt>
      <trkpt lat="45.70607" lon="5.75826">
        <ele>236</ele>
        <time>2022-09-06T06:42:32.525Z</time>
      </trkpt>
      <trkpt lat="45.70609" lon="5.75837">
        <ele>236</ele>
        <time>2022-09-06T06:42:33.524Z</time>
      </trkpt>
      <trkpt lat="45.70611" lon="5.75848">
        <ele>236</ele>
        <time>2022-09-06T06:42:34.525Z</time>
      </trkpt>
      <trkpt lat="45.70612" lon="5.75859">
        <ele>236</ele>
        <time>2022-09-06T06:42:35.525Z</time>
      </trkpt>
      <trkpt lat="45.70614" lon="5.7587">
        <ele>236</ele>
        <time>2022-09-06T06:42:36.524Z</time>
      </trkpt>
      <trkpt lat="45.70615" lon="5.75881">
        <ele>236</ele>
        <time>2022-09-06T06:42:37.524Z</time>
      </trkpt>
      <trkpt lat="45.70616" lon="5.75892">
        <ele>236</ele>
        <time>2022-09-06T06:42:38.524Z</time>
      </trkpt>
      <trkpt lat="45.70617" lon="5.75903">
        <ele>235</ele>
        <time>2022-09-06T06:42:39.525Z</time>
      </trkpt>
      <trkpt lat="45.70618" lon="5.75915">
        <ele>235</ele>
        <time>2022-09-06T06:42:40.525Z</time>
      </trkpt>
      <trkpt lat="45.7062" lon="5.75926">
        <ele>235</ele>
        <time>2022-09-06T06:42:41.525Z</time>
      </trkpt>
      <trkpt lat="45.70621" lon="5.75937">
        <ele>235</ele>
        <time>2022-09-06T06:42:42.524Z</time>
      </trkpt>
      <trkpt lat="45.70622" lon="5.75949">
        <ele>234</ele>
        <time>2022-09-06T06:42:43.525Z</time>
      </trkpt>
      <trkpt lat="45.70624" lon="5.7596">
        <ele>234</ele>
        <time>2022-09-06T06:42:44.525Z</time>
      </trkpt>
      <trkpt lat="45.70625" lon="5.75971">
        <ele>234</ele>
        <time>2022-09-06T06:42:45.524Z</time>
      </trkpt>
      <trkpt lat="45.70627" lon="5.75983">
        <ele>234</ele>
        <time>2022-09-06T06:42:46.525Z</time>
      </trkpt>
      <trkpt lat="45.70628" lon="5.75994">
        <ele>233</ele>
        <time>2022-09-06T06:42:47.524Z</time>
      </trkpt>
      <trkpt lat="45.70629" lon="5.76005">
        <ele>233</ele>
        <time>2022-09-06T06:42:48.525Z</time>
      </trkpt>
      <trkpt lat="45.70631" lon="5.76016">
        <ele>232</ele>
        <time>2022-09-06T06:42:49.525Z</time>
      </trkpt>
      <trkpt lat="45.70633" lon="5.76026">
        <ele>231</ele>
        <time>2022-09-06T06:42:50.525Z</time>
      </trkpt>
      <trkpt lat="45.70634" lon="5.76037">
        <ele>231</ele>
        <time>2022-09-06T06:42:51.525Z</time>
      </trkpt>
      <trkpt lat="45.70635" lon="5.76048">
        <ele>231</ele>
        <time>2022-09-06T06:42:52.524Z</time>
      </trkpt>
      <trkpt lat="45.70636" lon="5.76059">
        <ele>231</ele>
        <time>2022-09-06T06:42:53.525Z</time>
      </trkpt>
      <trkpt lat="45.70635" lon="5.76068">
        <ele>231</ele>
        <time>2022-09-06T06:42:54.525Z</time>
      </trkpt>
      <trkpt lat="45.70633" lon="5.76078">
        <ele>231</ele>
        <time>2022-09-06T06:42:55.525Z</time>
      </trkpt>
      <trkpt lat="45.7063" lon="5.76087">
        <ele>231</ele>
        <time>2022-09-06T06:42:56.524Z</time>
      </trkpt>
      <trkpt lat="45.70627" lon="5.76097">
        <ele>231</ele>
        <time>2022-09-06T06:42:57.525Z</time>
      </trkpt>
      <trkpt lat="45.70625" lon="5.76107">
        <ele>231</ele>
        <time>2022-09-06T06:42:58.525Z</time>
      </trkpt>
      <trkpt lat="45.70625" lon="5.76117">
        <ele>230</ele>
        <time>2022-09-06T06:42:59.524Z</time>
      </trkpt>
      <trkpt lat="45.70627" lon="5.76126">
        <ele>230</ele>
        <time>2022-09-06T06:43:00.525Z</time>
      </trkpt>
      <trkpt lat="45.7063" lon="5.76135">
        <ele>229</ele>
        <time>2022-09-06T06:43:01.524Z</time>
      </trkpt>
      <trkpt lat="45.70633" lon="5.76144">
        <ele>229</ele>
        <time>2022-09-06T06:43:02.524Z</time>
      </trkpt>
      <trkpt lat="45.70636" lon="5.76155">
        <ele>229</ele>
        <time>2022-09-06T06:43:03.525Z</time>
      </trkpt>
      <trkpt lat="45.70637" lon="5.76165">
        <ele>229</ele>
        <time>2022-09-06T06:43:04.525Z</time>
      </trkpt>
      <trkpt lat="45.70636" lon="5.76176">
        <ele>229</ele>
        <time>2022-09-06T06:43:05.524Z</time>
      </trkpt>
      <trkpt lat="45.70636" lon="5.76187">
        <ele>228</ele>
        <time>2022-09-06T06:43:06.525Z</time>
      </trkpt>
      <trkpt lat="45.70635" lon="5.76198">
        <ele>228</ele>
        <time>2022-09-06T06:43:07.525Z</time>
      </trkpt>
      <trkpt lat="45.70633" lon="5.7621">
        <ele>228</ele>
        <time>2022-09-06T06:43:08.525Z</time>
      </trkpt>
      <trkpt lat="45.70633" lon="5.76222">
        <ele>229</ele>
        <time>2022-09-06T06:43:09.525Z</time>
      </trkpt>
      <trkpt lat="45.70632" lon="5.76233">
        <ele>229</ele>
        <time>2022-09-06T06:43:10.525Z</time>
      </trkpt>
      <trkpt lat="45.70631" lon="5.76245">
        <ele>229</ele>
        <time>2022-09-06T06:43:11.524Z</time>
      </trkpt>
      <trkpt lat="45.7063" lon="5.76256">
        <ele>229</ele>
        <time>2022-09-06T06:43:12.524Z</time>
      </trkpt>
      <trkpt lat="45.70629" lon="5.76268">
        <ele>229</ele>
        <time>2022-09-06T06:43:13.525Z</time>
      </trkpt>
      <trkpt lat="45.70628" lon="5.76279">
        <ele>229</ele>
        <time>2022-09-06T06:43:14.525Z</time>
      </trkpt>
      <trkpt lat="45.70627" lon="5.7629">
        <ele>229</ele>
        <time>2022-09-06T06:43:15.525Z</time>
      </trkpt>
      <trkpt lat="45.70625" lon="5.76301">
        <ele>229</ele>
        <time>2022-09-06T06:43:16.525Z</time>
      </trkpt>
      <trkpt lat="45.70624" lon="5.76313">
        <ele>229</ele>
        <time>2022-09-06T06:43:17.525Z</time>
      </trkpt>
      <trkpt lat="45.70623" lon="5.76324">
        <ele>229</ele>
        <time>2022-09-06T06:43:18.525Z</time>
      </trkpt>
      <trkpt lat="45.70621" lon="5.76335">
        <ele>229</ele>
        <time>2022-09-06T06:43:19.525Z</time>
      </trkpt>
      <trkpt lat="45.7062" lon="5.76346">
        <ele>229</ele>
        <time>2022-09-06T06:43:20.525Z</time>
      </trkpt>
      <trkpt lat="45.70618" lon="5.76357">
        <ele>229</ele>
        <time>2022-09-06T06:43:21.525Z</time>
      </trkpt>
      <trkpt lat="45.70617" lon="5.76368">
        <ele>229</ele>
        <time>2022-09-06T06:43:22.525Z</time>
      </trkpt>
      <trkpt lat="45.70615" lon="5.7638">
        <ele>229</ele>
        <time>2022-09-06T06:43:23.525Z</time>
      </trkpt>
      <trkpt lat="45.70614" lon="5.76391">
        <ele>229</ele>
        <time>2022-09-06T06:43:24.525Z</time>
      </trkpt>
      <trkpt lat="45.70612" lon="5.76402">
        <ele>229</ele>
        <time>2022-09-06T06:43:25.525Z</time>
      </trkpt>
      <trkpt lat="45.7061" lon="5.76414">
        <ele>230</ele>
        <time>2022-09-06T06:43:26.525Z</time>
      </trkpt>
      <trkpt lat="45.70609" lon="5.76425">
        <ele>230</ele>
        <time>2022-09-06T06:43:27.525Z</time>
      </trkpt>
      <trkpt lat="45.70607" lon="5.76436">
        <ele>230</ele>
        <time>2022-09-06T06:43:28.524Z</time>
      </trkpt>
      <trkpt lat="45.70605" lon="5.76448">
        <ele>229</ele>
        <time>2022-09-06T06:43:29.524Z</time>
      </trkpt>
      <trkpt lat="45.70604" lon="5.76459">
        <ele>229</ele>
        <time>2022-09-06T06:43:30.525Z</time>
      </trkpt>
      <trkpt lat="45.70602" lon="5.76471">
        <ele>228</ele>
        <time>2022-09-06T06:43:31.525Z</time>
      </trkpt>
      <trkpt lat="45.706" lon="5.76483">
        <ele>228</ele>
        <time>2022-09-06T06:43:32.524Z</time>
      </trkpt>
      <trkpt lat="45.70599" lon="5.76495">
        <ele>228</ele>
        <time>2022-09-06T06:43:33.525Z</time>
      </trkpt>
      <trkpt lat="45.70597" lon="5.76506">
        <ele>228</ele>
        <time>2022-09-06T06:43:34.525Z</time>
      </trkpt>
      <trkpt lat="45.70595" lon="5.76518">
        <ele>228</ele>
        <time>2022-09-06T06:43:35.524Z</time>
      </trkpt>
      <trkpt lat="45.70594" lon="5.7653">
        <ele>228</ele>
        <time>2022-09-06T06:43:36.525Z</time>
      </trkpt>
      <trkpt lat="45.70592" lon="5.76541">
        <ele>228</ele>
        <time>2022-09-06T06:43:37.525Z</time>
      </trkpt>
      <trkpt lat="45.70591" lon="5.76553">
        <ele>228</ele>
        <time>2022-09-06T06:43:38.525Z</time>
      </trkpt>
      <trkpt lat="45.70589" lon="5.76564">
        <ele>228</ele>
        <time>2022-09-06T06:43:39.525Z</time>
      </trkpt>
      <trkpt lat="45.70587" lon="5.76578">
        <ele>228</ele>
        <time>2022-09-06T06:43:40.525Z</time>
      </trkpt>
      <trkpt lat="45.70585" lon="5.76589">
        <ele>228</ele>
        <time>2022-09-06T06:43:41.525Z</time>
      </trkpt>
      <trkpt lat="45.70584" lon="5.766">
        <ele>228</ele>
        <time>2022-09-06T06:43:42.525Z</time>
      </trkpt>
      <trkpt lat="45.70582" lon="5.76612">
        <ele>228</ele>
        <time>2022-09-06T06:43:43.525Z</time>
      </trkpt>
      <trkpt lat="45.7058" lon="5.76623">
        <ele>228</ele>
        <time>2022-09-06T06:43:44.524Z</time>
      </trkpt>
      <trkpt lat="45.70579" lon="5.76634">
        <ele>228</ele>
        <time>2022-09-06T06:43:45.525Z</time>
      </trkpt>
      <trkpt lat="45.70577" lon="5.76645">
        <ele>229</ele>
        <time>2022-09-06T06:43:46.525Z</time>
      </trkpt>
      <trkpt lat="45.70576" lon="5.76656">
        <ele>229</ele>
        <time>2022-09-06T06:43:47.525Z</time>
      </trkpt>
      <trkpt lat="45.70575" lon="5.76665">
        <ele>230</ele>
        <time>2022-09-06T06:43:48.525Z</time>
      </trkpt>
      <trkpt lat="45.70573" lon="5.76676">
        <ele>230</ele>
        <time>2022-09-06T06:43:49.525Z</time>
      </trkpt>
      <trkpt lat="45.70572" lon="5.76686">
        <ele>230</ele>
        <time>2022-09-06T06:43:50.524Z</time>
      </trkpt>
      <trkpt lat="45.7057" lon="5.76697">
        <ele>230</ele>
        <time>2022-09-06T06:43:51.525Z</time>
      </trkpt>
      <trkpt lat="45.70569" lon="5.76708">
        <ele>231</ele>
        <time>2022-09-06T06:43:52.525Z</time>
      </trkpt>
      <trkpt lat="45.70567" lon="5.76718">
        <ele>231</ele>
        <time>2022-09-06T06:43:53.525Z</time>
      </trkpt>
      <trkpt lat="45.70566" lon="5.76728">
        <ele>231</ele>
        <time>2022-09-06T06:43:54.524Z</time>
      </trkpt>
      <trkpt lat="45.70564" lon="5.76738">
        <ele>231</ele>
        <time>2022-09-06T06:43:55.524Z</time>
      </trkpt>
      <trkpt lat="45.70563" lon="5.76748">
        <ele>231</ele>
        <time>2022-09-06T06:43:56.525Z</time>
      </trkpt>
      <trkpt lat="45.70561" lon="5.76758">
        <ele>231</ele>
        <time>2022-09-06T06:43:57.525Z</time>
      </trkpt>
      <trkpt lat="45.7056" lon="5.76768">
        <ele>231</ele>
        <time>2022-09-06T06:43:58.525Z</time>
      </trkpt>
      <trkpt lat="45.70559" lon="5.76778">
        <ele>232</ele>
        <time>2022-09-06T06:43:59.525Z</time>
      </trkpt>
      <trkpt lat="45.70557" lon="5.76788">
        <ele>232</ele>
        <time>2022-09-06T06:44:00.525Z</time>
      </trkpt>
      <trkpt lat="45.70555" lon="5.768">
        <ele>232</ele>
        <time>2022-09-06T06:44:01.525Z</time>
      </trkpt>
      <trkpt lat="45.70554" lon="5.76809">
        <ele>232</ele>
        <time>2022-09-06T06:44:02.524Z</time>
      </trkpt>
      <trkpt lat="45.70552" lon="5.76817">
        <ele>232</ele>
        <time>2022-09-06T06:44:03.525Z</time>
      </trkpt>
      <trkpt lat="45.70551" lon="5.76826">
        <ele>233</ele>
        <time>2022-09-06T06:44:04.524Z</time>
      </trkpt>
      <trkpt lat="45.70549" lon="5.76836">
        <ele>233</ele>
        <time>2022-09-06T06:44:05.524Z</time>
      </trkpt>
      <trkpt lat="45.70547" lon="5.76845">
        <ele>233</ele>
        <time>2022-09-06T06:44:06.524Z</time>
      </trkpt>
      <trkpt lat="45.70545" lon="5.76855">
        <ele>233</ele>
        <time>2022-09-06T06:44:07.524Z</time>
      </trkpt>
      <trkpt lat="45.70544" lon="5.76864">
        <ele>233</ele>
        <time>2022-09-06T06:44:08.524Z</time>
      </trkpt>
      <trkpt lat="45.70542" lon="5.76874">
        <ele>233</ele>
        <time>2022-09-06T06:44:09.525Z</time>
      </trkpt>
      <trkpt lat="45.7054" lon="5.76883">
        <ele>234</ele>
        <time>2022-09-06T06:44:10.524Z</time>
      </trkpt>
      <trkpt lat="45.70538" lon="5.76892">
        <ele>234</ele>
        <time>2022-09-06T06:44:11.524Z</time>
      </trkpt>
      <trkpt lat="45.70535" lon="5.76903">
        <ele>235</ele>
        <time>2022-09-06T06:44:12.524Z</time>
      </trkpt>
      <trkpt lat="45.70533" lon="5.76911">
        <ele>235</ele>
        <time>2022-09-06T06:44:13.525Z</time>
      </trkpt>
      <trkpt lat="45.70529" lon="5.76921">
        <ele>234</ele>
        <time>2022-09-06T06:44:14.525Z</time>
      </trkpt>
      <trkpt lat="45.70527" lon="5.7693">
        <ele>234</ele>
        <time>2022-09-06T06:44:15.525Z</time>
      </trkpt>
      <trkpt lat="45.70524" lon="5.76938">
        <ele>234</ele>
        <time>2022-09-06T06:44:16.525Z</time>
      </trkpt>
      <trkpt lat="45.70522" lon="5.76947">
        <ele>234</ele>
        <time>2022-09-06T06:44:17.525Z</time>
      </trkpt>
      <trkpt lat="45.70519" lon="5.76956">
        <ele>234</ele>
        <time>2022-09-06T06:44:18.525Z</time>
      </trkpt>
      <trkpt lat="45.70516" lon="5.76964">
        <ele>234</ele>
        <time>2022-09-06T06:44:19.524Z</time>
      </trkpt>
      <trkpt lat="45.70514" lon="5.76973">
        <ele>234</ele>
        <time>2022-09-06T06:44:20.525Z</time>
      </trkpt>
      <trkpt lat="45.70511" lon="5.76981">
        <ele>235</ele>
        <time>2022-09-06T06:44:21.525Z</time>
      </trkpt>
      <trkpt lat="45.70508" lon="5.76988">
        <ele>235</ele>
        <time>2022-09-06T06:44:22.525Z</time>
      </trkpt>
      <trkpt lat="45.70505" lon="5.76996">
        <ele>235</ele>
        <time>2022-09-06T06:44:23.525Z</time>
      </trkpt>
      <trkpt lat="45.70502" lon="5.77005">
        <ele>235</ele>
        <time>2022-09-06T06:44:24.525Z</time>
      </trkpt>
      <trkpt lat="45.70499" lon="5.77013">
        <ele>235</ele>
        <time>2022-09-06T06:44:25.525Z</time>
      </trkpt>
      <trkpt lat="45.70495" lon="5.77021">
        <ele>236</ele>
        <time>2022-09-06T06:44:26.525Z</time>
      </trkpt>
      <trkpt lat="45.70493" lon="5.77027">
        <ele>236</ele>
        <time>2022-09-06T06:44:27.524Z</time>
      </trkpt>
      <trkpt lat="45.70489" lon="5.77035">
        <ele>236</ele>
        <time>2022-09-06T06:44:28.525Z</time>
      </trkpt>
      <trkpt lat="45.70486" lon="5.77043">
        <ele>237</ele>
        <time>2022-09-06T06:44:29.524Z</time>
      </trkpt>
      <trkpt lat="45.70482" lon="5.77052">
        <ele>238</ele>
        <time>2022-09-06T06:44:30.525Z</time>
      </trkpt>
      <trkpt lat="45.70478" lon="5.77058">
        <ele>238</ele>
        <time>2022-09-06T06:44:31.525Z</time>
      </trkpt>
      <trkpt lat="45.70474" lon="5.77065">
        <ele>238</ele>
        <time>2022-09-06T06:44:32.525Z</time>
      </trkpt>
      <trkpt lat="45.7047" lon="5.77073">
        <ele>238</ele>
        <time>2022-09-06T06:44:33.525Z</time>
      </trkpt>
      <trkpt lat="45.70467" lon="5.7708">
        <ele>238</ele>
        <time>2022-09-06T06:44:34.524Z</time>
      </trkpt>
      <trkpt lat="45.70462" lon="5.77089">
        <ele>239</ele>
        <time>2022-09-06T06:44:35.525Z</time>
      </trkpt>
      <trkpt lat="45.70458" lon="5.77096">
        <ele>240</ele>
        <time>2022-09-06T06:44:36.525Z</time>
      </trkpt>
      <trkpt lat="45.70455" lon="5.77101">
        <ele>241</ele>
        <time>2022-09-06T06:44:37.525Z</time>
      </trkpt>
      <trkpt lat="45.7045" lon="5.7711">
        <ele>241</ele>
        <time>2022-09-06T06:44:38.525Z</time>
      </trkpt>
      <trkpt lat="45.70446" lon="5.77117">
        <ele>241</ele>
        <time>2022-09-06T06:44:39.525Z</time>
      </trkpt>
      <trkpt lat="45.70442" lon="5.77124">
        <ele>241</ele>
        <time>2022-09-06T06:44:40.525Z</time>
      </trkpt>
      <trkpt lat="45.70439" lon="5.7713">
        <ele>241</ele>
        <time>2022-09-06T06:44:41.524Z</time>
      </trkpt>
      <trkpt lat="45.70434" lon="5.77137">
        <ele>241</ele>
        <time>2022-09-06T06:44:42.525Z</time>
      </trkpt>
      <trkpt lat="45.70431" lon="5.77145">
        <ele>240</ele>
        <time>2022-09-06T06:44:43.525Z</time>
      </trkpt>
      <trkpt lat="45.70426" lon="5.77155">
        <ele>240</ele>
        <time>2022-09-06T06:44:44.525Z</time>
      </trkpt>
      <trkpt lat="45.70422" lon="5.77161">
        <ele>240</ele>
        <time>2022-09-06T06:44:45.525Z</time>
      </trkpt>
      <trkpt lat="45.70419" lon="5.77167">
        <ele>240</ele>
        <time>2022-09-06T06:44:46.525Z</time>
      </trkpt>
      <trkpt lat="45.70415" lon="5.77173">
        <ele>239</ele>
        <time>2022-09-06T06:44:47.524Z</time>
      </trkpt>
      <trkpt lat="45.7041" lon="5.77177">
        <ele>239</ele>
        <time>2022-09-06T06:44:48.525Z</time>
      </trkpt>
      <trkpt lat="45.70404" lon="5.77179">
        <ele>239</ele>
        <time>2022-09-06T06:44:49.524Z</time>
      </trkpt>
      <trkpt lat="45.70399" lon="5.7718">
        <ele>239</ele>
        <time>2022-09-06T06:44:50.524Z</time>
      </trkpt>
      <trkpt lat="45.70393" lon="5.77181">
        <ele>238</ele>
        <time>2022-09-06T06:44:51.524Z</time>
      </trkpt>
      <trkpt lat="45.70386" lon="5.77182">
        <ele>238</ele>
        <time>2022-09-06T06:44:52.525Z</time>
      </trkpt>
      <trkpt lat="45.7038" lon="5.77185">
        <ele>238</ele>
        <time>2022-09-06T06:44:53.525Z</time>
      </trkpt>
      <trkpt lat="45.70375" lon="5.77189">
        <ele>238</ele>
        <time>2022-09-06T06:44:54.525Z</time>
      </trkpt>
      <trkpt lat="45.70372" lon="5.77194">
        <ele>238</ele>
        <time>2022-09-06T06:44:55.525Z</time>
      </trkpt>
      <trkpt lat="45.7037" lon="5.77201">
        <ele>238</ele>
        <time>2022-09-06T06:44:56.525Z</time>
      </trkpt>
      <trkpt lat="45.70368" lon="5.77209">
        <ele>238</ele>
        <time>2022-09-06T06:44:57.524Z</time>
      </trkpt>
      <trkpt lat="45.70365" lon="5.77219">
        <ele>238</ele>
        <time>2022-09-06T06:44:58.525Z</time>
      </trkpt>
      <trkpt lat="45.70363" lon="5.77225">
        <ele>238</ele>
        <time>2022-09-06T06:44:59.524Z</time>
      </trkpt>
      <trkpt lat="45.7036" lon="5.77233">
        <ele>238</ele>
        <time>2022-09-06T06:45:00.525Z</time>
      </trkpt>
      <trkpt lat="45.70357" lon="5.77242">
        <ele>238</ele>
        <time>2022-09-06T06:45:01.525Z</time>
      </trkpt>
      <trkpt lat="45.70354" lon="5.77253">
        <ele>239</ele>
        <time>2022-09-06T06:45:02.525Z</time>
      </trkpt>
      <trkpt lat="45.70352" lon="5.77261">
        <ele>239</ele>
        <time>2022-09-06T06:45:03.525Z</time>
      </trkpt>
      <trkpt lat="45.70349" lon="5.7727">
        <ele>239</ele>
        <time>2022-09-06T06:45:04.525Z</time>
      </trkpt>
      <trkpt lat="45.70347" lon="5.77277">
        <ele>239</ele>
        <time>2022-09-06T06:45:05.525Z</time>
      </trkpt>
      <trkpt lat="45.70345" lon="5.77287">
        <ele>239</ele>
        <time>2022-09-06T06:45:06.525Z</time>
      </trkpt>
      <trkpt lat="45.70343" lon="5.77298">
        <ele>239</ele>
        <time>2022-09-06T06:45:07.525Z</time>
      </trkpt>
      <trkpt lat="45.70341" lon="5.77308">
        <ele>239</ele>
        <time>2022-09-06T06:45:08.525Z</time>
      </trkpt>
      <trkpt lat="45.7034" lon="5.77317">
        <ele>239</ele>
        <time>2022-09-06T06:45:09.524Z</time>
      </trkpt>
      <trkpt lat="45.70338" lon="5.77325">
        <ele>239</ele>
        <time>2022-09-06T06:45:10.524Z</time>
      </trkpt>
      <trkpt lat="45.70336" lon="5.77336">
        <ele>239</ele>
        <time>2022-09-06T06:45:11.525Z</time>
      </trkpt>
      <trkpt lat="45.70334" lon="5.77346">
        <ele>240</ele>
        <time>2022-09-06T06:45:12.524Z</time>
      </trkpt>
      <trkpt lat="45.70332" lon="5.77355">
        <ele>241</ele>
        <time>2022-09-06T06:45:13.525Z</time>
      </trkpt>
      <trkpt lat="45.70331" lon="5.77363">
        <ele>241</ele>
        <time>2022-09-06T06:45:14.525Z</time>
      </trkpt>
      <trkpt lat="45.70329" lon="5.77372">
        <ele>242</ele>
        <time>2022-09-06T06:45:15.525Z</time>
      </trkpt>
      <trkpt lat="45.70327" lon="5.77383">
        <ele>242</ele>
        <time>2022-09-06T06:45:16.524Z</time>
      </trkpt>
      <trkpt lat="45.70325" lon="5.77392">
        <ele>242</ele>
        <time>2022-09-06T06:45:17.524Z</time>
      </trkpt>
      <trkpt lat="45.70324" lon="5.77401">
        <ele>242</ele>
        <time>2022-09-06T06:45:18.525Z</time>
      </trkpt>
      <trkpt lat="45.70322" lon="5.77409">
        <ele>242</ele>
        <time>2022-09-06T06:45:19.525Z</time>
      </trkpt>
      <trkpt lat="45.70321" lon="5.77418">
        <ele>243</ele>
        <time>2022-09-06T06:45:20.525Z</time>
      </trkpt>
      <trkpt lat="45.70319" lon="5.77428">
        <ele>243</ele>
        <time>2022-09-06T06:45:21.525Z</time>
      </trkpt>
      <trkpt lat="45.70317" lon="5.77437">
        <ele>243</ele>
        <time>2022-09-06T06:45:22.525Z</time>
      </trkpt>
      <trkpt lat="45.70315" lon="5.77446">
        <ele>243</ele>
        <time>2022-09-06T06:45:23.524Z</time>
      </trkpt>
      <trkpt lat="45.70314" lon="5.77455">
        <ele>243</ele>
        <time>2022-09-06T06:45:24.524Z</time>
      </trkpt>
      <trkpt lat="45.70313" lon="5.77462">
        <ele>243</ele>
        <time>2022-09-06T06:45:25.524Z</time>
      </trkpt>
      <trkpt lat="45.70311" lon="5.77473">
        <ele>243</ele>
        <time>2022-09-06T06:45:26.525Z</time>
      </trkpt>
      <trkpt lat="45.70309" lon="5.77482">
        <ele>244</ele>
        <time>2022-09-06T06:45:27.524Z</time>
      </trkpt>
      <trkpt lat="45.70308" lon="5.7749">
        <ele>244</ele>
        <time>2022-09-06T06:45:28.524Z</time>
      </trkpt>
      <trkpt lat="45.70308" lon="5.77498">
        <ele>244</ele>
        <time>2022-09-06T06:45:29.525Z</time>
      </trkpt>
      <trkpt lat="45.70306" lon="5.77508">
        <ele>245</ele>
        <time>2022-09-06T06:45:30.525Z</time>
      </trkpt>
      <trkpt lat="45.70306" lon="5.77516">
        <ele>245</ele>
        <time>2022-09-06T06:45:31.524Z</time>
      </trkpt>
      <trkpt lat="45.70305" lon="5.77525">
        <ele>246</ele>
        <time>2022-09-06T06:45:32.524Z</time>
      </trkpt>
      <trkpt lat="45.70304" lon="5.77534">
        <ele>246</ele>
        <time>2022-09-06T06:45:33.524Z</time>
      </trkpt>
      <trkpt lat="45.70303" lon="5.77543">
        <ele>247</ele>
        <time>2022-09-06T06:45:34.525Z</time>
      </trkpt>
      <trkpt lat="45.70302" lon="5.77552">
        <ele>247</ele>
        <time>2022-09-06T06:45:35.525Z</time>
      </trkpt>
      <trkpt lat="45.70301" lon="5.77561">
        <ele>248</ele>
        <time>2022-09-06T06:45:36.525Z</time>
      </trkpt>
      <trkpt lat="45.703" lon="5.7757">
        <ele>249</ele>
        <time>2022-09-06T06:45:37.525Z</time>
      </trkpt>
      <trkpt lat="45.70299" lon="5.77579">
        <ele>249</ele>
        <time>2022-09-06T06:45:38.525Z</time>
      </trkpt>
      <trkpt lat="45.70298" lon="5.77589">
        <ele>250</ele>
        <time>2022-09-06T06:45:39.525Z</time>
      </trkpt>
      <trkpt lat="45.70297" lon="5.77597">
        <ele>251</ele>
        <time>2022-09-06T06:45:40.525Z</time>
      </trkpt>
      <trkpt lat="45.70295" lon="5.77608">
        <ele>252</ele>
        <time>2022-09-06T06:45:41.525Z</time>
      </trkpt>
      <trkpt lat="45.70294" lon="5.77617">
        <ele>252</ele>
        <time>2022-09-06T06:45:42.525Z</time>
      </trkpt>
      <trkpt lat="45.70293" lon="5.77624">
        <ele>252</ele>
        <time>2022-09-06T06:45:43.525Z</time>
      </trkpt>
      <trkpt lat="45.70292" lon="5.77633">
        <ele>251</ele>
        <time>2022-09-06T06:45:44.525Z</time>
      </trkpt>
      <trkpt lat="45.70291" lon="5.77644">
        <ele>251</ele>
        <time>2022-09-06T06:45:45.524Z</time>
      </trkpt>
      <trkpt lat="45.70291" lon="5.77653">
        <ele>250</ele>
        <time>2022-09-06T06:45:46.524Z</time>
      </trkpt>
      <trkpt lat="45.70292" lon="5.77661">
        <ele>250</ele>
        <time>2022-09-06T06:45:47.525Z</time>
      </trkpt>
      <trkpt lat="45.70291" lon="5.77669">
        <ele>249</ele>
        <time>2022-09-06T06:45:48.524Z</time>
      </trkpt>
      <trkpt lat="45.7029" lon="5.77678">
        <ele>249</ele>
        <time>2022-09-06T06:45:49.525Z</time>
      </trkpt>
      <trkpt lat="45.7029" lon="5.77688">
        <ele>249</ele>
        <time>2022-09-06T06:45:50.525Z</time>
      </trkpt>
      <trkpt lat="45.7029" lon="5.77698">
        <ele>249</ele>
        <time>2022-09-06T06:45:51.525Z</time>
      </trkpt>
      <trkpt lat="45.7029" lon="5.77705">
        <ele>250</ele>
        <time>2022-09-06T06:45:52.525Z</time>
      </trkpt>
      <trkpt lat="45.7029" lon="5.77714">
        <ele>250</ele>
        <time>2022-09-06T06:45:53.525Z</time>
      </trkpt>
      <trkpt lat="45.70291" lon="5.77724">
        <ele>250</ele>
        <time>2022-09-06T06:45:54.525Z</time>
      </trkpt>
      <trkpt lat="45.70292" lon="5.77733">
        <ele>250</ele>
        <time>2022-09-06T06:45:55.524Z</time>
      </trkpt>
      <trkpt lat="45.70293" lon="5.77741">
        <ele>251</ele>
        <time>2022-09-06T06:45:56.525Z</time>
      </trkpt>
      <trkpt lat="45.70294" lon="5.7775">
        <ele>251</ele>
        <time>2022-09-06T06:45:57.524Z</time>
      </trkpt>
      <trkpt lat="45.70295" lon="5.77757">
        <ele>252</ele>
        <time>2022-09-06T06:45:58.525Z</time>
      </trkpt>
      <trkpt lat="45.70297" lon="5.77768">
        <ele>252</ele>
        <time>2022-09-06T06:45:59.525Z</time>
      </trkpt>
      <trkpt lat="45.70298" lon="5.77777">
        <ele>253</ele>
        <time>2022-09-06T06:46:00.525Z</time>
      </trkpt>
      <trkpt lat="45.703" lon="5.77786">
        <ele>253</ele>
        <time>2022-09-06T06:46:01.525Z</time>
      </trkpt>
      <trkpt lat="45.70301" lon="5.77793">
        <ele>254</ele>
        <time>2022-09-06T06:46:02.525Z</time>
      </trkpt>
      <trkpt lat="45.70303" lon="5.77804">
        <ele>254</ele>
        <time>2022-09-06T06:46:03.525Z</time>
      </trkpt>
      <trkpt lat="45.70304" lon="5.77812">
        <ele>255</ele>
        <time>2022-09-06T06:46:04.525Z</time>
      </trkpt>
      <trkpt lat="45.70306" lon="5.77821">
        <ele>255</ele>
        <time>2022-09-06T06:46:05.525Z</time>
      </trkpt>
      <trkpt lat="45.70307" lon="5.77829">
        <ele>255</ele>
        <time>2022-09-06T06:46:06.525Z</time>
      </trkpt>
      <trkpt lat="45.70309" lon="5.77836">
        <ele>255</ele>
        <time>2022-09-06T06:46:07.524Z</time>
      </trkpt>
      <trkpt lat="45.7031" lon="5.77847">
        <ele>255</ele>
        <time>2022-09-06T06:46:08.525Z</time>
      </trkpt>
      <trkpt lat="45.70312" lon="5.77855">
        <ele>255</ele>
        <time>2022-09-06T06:46:09.525Z</time>
      </trkpt>
      <trkpt lat="45.70313" lon="5.77864">
        <ele>255</ele>
        <time>2022-09-06T06:46:10.525Z</time>
      </trkpt>
      <trkpt lat="45.70314" lon="5.77873">
        <ele>255</ele>
        <time>2022-09-06T06:46:11.524Z</time>
      </trkpt>
      <trkpt lat="45.70315" lon="5.7788">
        <ele>255</ele>
        <time>2022-09-06T06:46:12.524Z</time>
      </trkpt>
      <trkpt lat="45.70317" lon="5.7789">
        <ele>256</ele>
        <time>2022-09-06T06:46:13.525Z</time>
      </trkpt>
      <trkpt lat="45.70319" lon="5.77898">
        <ele>256</ele>
        <time>2022-09-06T06:46:14.524Z</time>
      </trkpt>
      <trkpt lat="45.70319" lon="5.77905">
        <ele>256</ele>
        <time>2022-09-06T06:46:15.524Z</time>
      </trkpt>
      <trkpt lat="45.70321" lon="5.77913">
        <ele>256</ele>
        <time>2022-09-06T06:46:16.525Z</time>
      </trkpt>
      <trkpt lat="45.70323" lon="5.77924">
        <ele>257</ele>
        <time>2022-09-06T06:46:17.525Z</time>
      </trkpt>
      <trkpt lat="45.70324" lon="5.77932">
        <ele>257</ele>
        <time>2022-09-06T06:46:18.525Z</time>
      </trkpt>
      <trkpt lat="45.70325" lon="5.77941">
        <ele>257</ele>
        <time>2022-09-06T06:46:19.525Z</time>
      </trkpt>
      <trkpt lat="45.70326" lon="5.77949">
        <ele>257</ele>
        <time>2022-09-06T06:46:20.525Z</time>
      </trkpt>
      <trkpt lat="45.70327" lon="5.77957">
        <ele>258</ele>
        <time>2022-09-06T06:46:21.524Z</time>
      </trkpt>
      <trkpt lat="45.70328" lon="5.77966">
        <ele>258</ele>
        <time>2022-09-06T06:46:22.525Z</time>
      </trkpt>
      <trkpt lat="45.70329" lon="5.77973">
        <ele>258</ele>
        <time>2022-09-06T06:46:23.525Z</time>
      </trkpt>
      <trkpt lat="45.7033" lon="5.77981">
        <ele>257</ele>
        <time>2022-09-06T06:46:24.525Z</time>
      </trkpt>
      <trkpt lat="45.70332" lon="5.77989">
        <ele>257</ele>
        <time>2022-09-06T06:46:25.525Z</time>
      </trkpt>
      <trkpt lat="45.70334" lon="5.77997">
        <ele>257</ele>
        <time>2022-09-06T06:46:26.525Z</time>
      </trkpt>
      <trkpt lat="45.70335" lon="5.78005">
        <ele>256</ele>
        <time>2022-09-06T06:46:27.524Z</time>
      </trkpt>
      <trkpt lat="45.70336" lon="5.78013">
        <ele>256</ele>
        <time>2022-09-06T06:46:28.524Z</time>
      </trkpt>
      <trkpt lat="45.70337" lon="5.78022">
        <ele>256</ele>
        <time>2022-09-06T06:46:29.525Z</time>
      </trkpt>
      <trkpt lat="45.70338" lon="5.7803">
        <ele>256</ele>
        <time>2022-09-06T06:46:30.525Z</time>
      </trkpt>
      <trkpt lat="45.7034" lon="5.78038">
        <ele>256</ele>
        <time>2022-09-06T06:46:31.524Z</time>
      </trkpt>
      <trkpt lat="45.70342" lon="5.78047">
        <ele>256</ele>
        <time>2022-09-06T06:46:32.525Z</time>
      </trkpt>
      <trkpt lat="45.70343" lon="5.78057">
        <ele>256</ele>
        <time>2022-09-06T06:46:33.525Z</time>
      </trkpt>
      <trkpt lat="45.70344" lon="5.78066">
        <ele>256</ele>
        <time>2022-09-06T06:46:34.525Z</time>
      </trkpt>
      <trkpt lat="45.70345" lon="5.78075">
        <ele>256</ele>
        <time>2022-09-06T06:46:35.524Z</time>
      </trkpt>
      <trkpt lat="45.70346" lon="5.78084">
        <ele>255</ele>
        <time>2022-09-06T06:46:36.525Z</time>
      </trkpt>
      <trkpt lat="45.70348" lon="5.78093">
        <ele>255</ele>
        <time>2022-09-06T06:46:37.525Z</time>
      </trkpt>
      <trkpt lat="45.70349" lon="5.78101">
        <ele>255</ele>
        <time>2022-09-06T06:46:38.525Z</time>
      </trkpt>
      <trkpt lat="45.70351" lon="5.7811">
        <ele>254</ele>
        <time>2022-09-06T06:46:39.525Z</time>
      </trkpt>
      <trkpt lat="45.70353" lon="5.78119">
        <ele>254</ele>
        <time>2022-09-06T06:46:40.525Z</time>
      </trkpt>
      <trkpt lat="45.70354" lon="5.78128">
        <ele>254</ele>
        <time>2022-09-06T06:46:41.525Z</time>
      </trkpt>
      <trkpt lat="45.70355" lon="5.78137">
        <ele>254</ele>
        <time>2022-09-06T06:46:42.525Z</time>
      </trkpt>
      <trkpt lat="45.70356" lon="5.78146">
        <ele>254</ele>
        <time>2022-09-06T06:46:43.524Z</time>
      </trkpt>
      <trkpt lat="45.70357" lon="5.78155">
        <ele>253</ele>
        <time>2022-09-06T06:46:44.525Z</time>
      </trkpt>
      <trkpt lat="45.70358" lon="5.78164">
        <ele>253</ele>
        <time>2022-09-06T06:46:45.525Z</time>
      </trkpt>
      <trkpt lat="45.70359" lon="5.78173">
        <ele>253</ele>
        <time>2022-09-06T06:46:46.525Z</time>
      </trkpt>
      <trkpt lat="45.7036" lon="5.78181">
        <ele>254</ele>
        <time>2022-09-06T06:46:47.525Z</time>
      </trkpt>
      <trkpt lat="45.70362" lon="5.7819">
        <ele>254</ele>
        <time>2022-09-06T06:46:48.524Z</time>
      </trkpt>
      <trkpt lat="45.70364" lon="5.78198">
        <ele>254</ele>
        <time>2022-09-06T06:46:49.525Z</time>
      </trkpt>
      <trkpt lat="45.70365" lon="5.78207">
        <ele>254</ele>
        <time>2022-09-06T06:46:50.525Z</time>
      </trkpt>
      <trkpt lat="45.70366" lon="5.78215">
        <ele>255</ele>
        <time>2022-09-06T06:46:51.525Z</time>
      </trkpt>
      <trkpt lat="45.70368" lon="5.78224">
        <ele>255</ele>
        <time>2022-09-06T06:46:52.525Z</time>
      </trkpt>
      <trkpt lat="45.70369" lon="5.78232">
        <ele>255</ele>
        <time>2022-09-06T06:46:53.525Z</time>
      </trkpt>
      <trkpt lat="45.70371" lon="5.78241">
        <ele>255</ele>
        <time>2022-09-06T06:46:54.524Z</time>
      </trkpt>
      <trkpt lat="45.70372" lon="5.78249">
        <ele>256</ele>
        <time>2022-09-06T06:46:55.525Z</time>
      </trkpt>
      <trkpt lat="45.70373" lon="5.78258">
        <ele>256</ele>
        <time>2022-09-06T06:46:56.525Z</time>
      </trkpt>
      <trkpt lat="45.70374" lon="5.78266">
        <ele>256</ele>
        <time>2022-09-06T06:46:57.524Z</time>
      </trkpt>
      <trkpt lat="45.70375" lon="5.78275">
        <ele>257</ele>
        <time>2022-09-06T06:46:58.525Z</time>
      </trkpt>
      <trkpt lat="45.70375" lon="5.78283">
        <ele>258</ele>
        <time>2022-09-06T06:46:59.525Z</time>
      </trkpt>
      <trkpt lat="45.70376" lon="5.78292">
        <ele>258</ele>
        <time>2022-09-06T06:47:00.525Z</time>
      </trkpt>
      <trkpt lat="45.70375" lon="5.78301">
        <ele>258</ele>
        <time>2022-09-06T06:47:01.525Z</time>
      </trkpt>
      <trkpt lat="45.70376" lon="5.7831">
        <ele>259</ele>
        <time>2022-09-06T06:47:02.525Z</time>
      </trkpt>
      <trkpt lat="45.70375" lon="5.78319">
        <ele>259</ele>
        <time>2022-09-06T06:47:03.525Z</time>
      </trkpt>
      <trkpt lat="45.70375" lon="5.78326">
        <ele>259</ele>
        <time>2022-09-06T06:47:04.524Z</time>
      </trkpt>
      <trkpt lat="45.70374" lon="5.78335">
        <ele>259</ele>
        <time>2022-09-06T06:47:05.525Z</time>
      </trkpt>
      <trkpt lat="45.70373" lon="5.78343">
        <ele>259</ele>
        <time>2022-09-06T06:47:06.525Z</time>
      </trkpt>
      <trkpt lat="45.70372" lon="5.78352">
        <ele>259</ele>
        <time>2022-09-06T06:47:07.525Z</time>
      </trkpt>
      <trkpt lat="45.70371" lon="5.78361">
        <ele>259</ele>
        <time>2022-09-06T06:47:08.525Z</time>
      </trkpt>
      <trkpt lat="45.7037" lon="5.78369">
        <ele>259</ele>
        <time>2022-09-06T06:47:09.524Z</time>
      </trkpt>
      <trkpt lat="45.70369" lon="5.78377">
        <ele>259</ele>
        <time>2022-09-06T06:47:10.525Z</time>
      </trkpt>
      <trkpt lat="45.70368" lon="5.78386">
        <ele>260</ele>
        <time>2022-09-06T06:47:11.525Z</time>
      </trkpt>
      <trkpt lat="45.70367" lon="5.78394">
        <ele>260</ele>
        <time>2022-09-06T06:47:12.525Z</time>
      </trkpt>
      <trkpt lat="45.70366" lon="5.78404">
        <ele>260</ele>
        <time>2022-09-06T06:47:13.525Z</time>
      </trkpt>
      <trkpt lat="45.70364" lon="5.78412">
        <ele>260</ele>
        <time>2022-09-06T06:47:14.525Z</time>
      </trkpt>
      <trkpt lat="45.70363" lon="5.78419">
        <ele>261</ele>
        <time>2022-09-06T06:47:15.524Z</time>
      </trkpt>
      <trkpt lat="45.70362" lon="5.78427">
        <ele>261</ele>
        <time>2022-09-06T06:47:16.524Z</time>
      </trkpt>
      <trkpt lat="45.70361" lon="5.78435">
        <ele>262</ele>
        <time>2022-09-06T06:47:17.525Z</time>
      </trkpt>
      <trkpt lat="45.7036" lon="5.78443">
        <ele>262</ele>
        <time>2022-09-06T06:47:18.525Z</time>
      </trkpt>
      <trkpt lat="45.70359" lon="5.78451">
        <ele>263</ele>
        <time>2022-09-06T06:47:19.525Z</time>
      </trkpt>
      <trkpt lat="45.70358" lon="5.78459">
        <ele>263</ele>
        <time>2022-09-06T06:47:20.525Z</time>
      </trkpt>
      <trkpt lat="45.70357" lon="5.78464">
        <ele>263</ele>
        <time>2022-09-06T06:47:21.525Z</time>
      </trkpt>
      <trkpt lat="45.70356" lon="5.78472">
        <ele>263</ele>
        <time>2022-09-06T06:47:22.525Z</time>
      </trkpt>
      <trkpt lat="45.70354" lon="5.7848">
        <ele>263</ele>
        <time>2022-09-06T06:47:23.525Z</time>
      </trkpt>
      <trkpt lat="45.70353" lon="5.78487">
        <ele>263</ele>
        <time>2022-09-06T06:47:24.524Z</time>
      </trkpt>
      <trkpt lat="45.70352" lon="5.78495">
        <ele>263</ele>
        <time>2022-09-06T06:47:25.525Z</time>
      </trkpt>
      <trkpt lat="45.7035" lon="5.78503">
        <ele>264</ele>
        <time>2022-09-06T06:47:26.524Z</time>
      </trkpt>
      <trkpt lat="45.70348" lon="5.7851">
        <ele>264</ele>
        <time>2022-09-06T06:47:27.524Z</time>
      </trkpt>
      <trkpt lat="45.70347" lon="5.78518">
        <ele>264</ele>
        <time>2022-09-06T06:47:28.524Z</time>
      </trkpt>
      <trkpt lat="45.70346" lon="5.78526">
        <ele>263</ele>
        <time>2022-09-06T06:47:29.524Z</time>
      </trkpt>
      <trkpt lat="45.70344" lon="5.78534">
        <ele>263</ele>
        <time>2022-09-06T06:47:30.524Z</time>
      </trkpt>
      <trkpt lat="45.70343" lon="5.78541">
        <ele>263</ele>
        <time>2022-09-06T06:47:31.525Z</time>
      </trkpt>
      <trkpt lat="45.70342" lon="5.78549">
        <ele>262</ele>
        <time>2022-09-06T06:47:32.525Z</time>
      </trkpt>
      <trkpt lat="45.70341" lon="5.78557">
        <ele>262</ele>
        <time>2022-09-06T06:47:33.525Z</time>
      </trkpt>
      <trkpt lat="45.7034" lon="5.78565">
        <ele>261</ele>
        <time>2022-09-06T06:47:34.525Z</time>
      </trkpt>
      <trkpt lat="45.70339" lon="5.78573">
        <ele>261</ele>
        <time>2022-09-06T06:47:35.525Z</time>
      </trkpt>
      <trkpt lat="45.70339" lon="5.78581">
        <ele>261</ele>
        <time>2022-09-06T06:47:36.525Z</time>
      </trkpt>
      <trkpt lat="45.70338" lon="5.78589">
        <ele>261</ele>
        <time>2022-09-06T06:47:37.524Z</time>
      </trkpt>
      <trkpt lat="45.70338" lon="5.78597">
        <ele>261</ele>
        <time>2022-09-06T06:47:38.525Z</time>
      </trkpt>
      <trkpt lat="45.70338" lon="5.78606">
        <ele>261</ele>
        <time>2022-09-06T06:47:39.525Z</time>
      </trkpt>
      <trkpt lat="45.70338" lon="5.78614">
        <ele>262</ele>
        <time>2022-09-06T06:47:40.525Z</time>
      </trkpt>
      <trkpt lat="45.70338" lon="5.78623">
        <ele>262</ele>
        <time>2022-09-06T06:47:41.525Z</time>
      </trkpt>
      <trkpt lat="45.70337" lon="5.78632">
        <ele>262</ele>
        <time>2022-09-06T06:47:42.525Z</time>
      </trkpt>
      <trkpt lat="45.70337" lon="5.78641">
        <ele>262</ele>
        <time>2022-09-06T06:47:43.525Z</time>
      </trkpt>
      <trkpt lat="45.70337" lon="5.78651">
        <ele>263</ele>
        <time>2022-09-06T06:47:44.524Z</time>
      </trkpt>
      <trkpt lat="45.70337" lon="5.78658">
        <ele>263</ele>
        <time>2022-09-06T06:47:45.525Z</time>
      </trkpt>
      <trkpt lat="45.70337" lon="5.78668">
        <ele>264</ele>
        <time>2022-09-06T06:47:46.525Z</time>
      </trkpt>
      <trkpt lat="45.70336" lon="5.78677">
        <ele>264</ele>
        <time>2022-09-06T06:47:47.525Z</time>
      </trkpt>
      <trkpt lat="45.70336" lon="5.78686">
        <ele>265</ele>
        <time>2022-09-06T06:47:48.525Z</time>
      </trkpt>
      <trkpt lat="45.70336" lon="5.78696">
        <ele>265</ele>
        <time>2022-09-06T06:47:49.525Z</time>
      </trkpt>
      <trkpt lat="45.70336" lon="5.78705">
        <ele>266</ele>
        <time>2022-09-06T06:47:50.525Z</time>
      </trkpt>
      <trkpt lat="45.70336" lon="5.78714">
        <ele>266</ele>
        <time>2022-09-06T06:47:51.525Z</time>
      </trkpt>
      <trkpt lat="45.70335" lon="5.78723">
        <ele>267</ele>
        <time>2022-09-06T06:47:52.524Z</time>
      </trkpt>
      <trkpt lat="45.70335" lon="5.78732">
        <ele>267</ele>
        <time>2022-09-06T06:47:53.525Z</time>
      </trkpt>
      <trkpt lat="45.70334" lon="5.78741">
        <ele>267</ele>
        <time>2022-09-06T06:47:54.525Z</time>
      </trkpt>
      <trkpt lat="45.70332" lon="5.7875">
        <ele>268</ele>
        <time>2022-09-06T06:47:55.525Z</time>
      </trkpt>
      <trkpt lat="45.70331" lon="5.78759">
        <ele>268</ele>
        <time>2022-09-06T06:47:56.525Z</time>
      </trkpt>
      <trkpt lat="45.70329" lon="5.78768">
        <ele>268</ele>
        <time>2022-09-06T06:47:57.525Z</time>
      </trkpt>
      <trkpt lat="45.70328" lon="5.78776">
        <ele>269</ele>
        <time>2022-09-06T06:47:58.525Z</time>
      </trkpt>
      <trkpt lat="45.70325" lon="5.78784">
        <ele>269</ele>
        <time>2022-09-06T06:47:59.525Z</time>
      </trkpt>
      <trkpt lat="45.70323" lon="5.78793">
        <ele>269</ele>
        <time>2022-09-06T06:48:00.525Z</time>
      </trkpt>
      <trkpt lat="45.70321" lon="5.78801">
        <ele>269</ele>
        <time>2022-09-06T06:48:01.525Z</time>
      </trkpt>
      <trkpt lat="45.70319" lon="5.78809">
        <ele>269</ele>
        <time>2022-09-06T06:48:02.524Z</time>
      </trkpt>
      <trkpt lat="45.70316" lon="5.78819">
        <ele>269</ele>
        <time>2022-09-06T06:48:03.524Z</time>
      </trkpt>
      <trkpt lat="45.70314" lon="5.78825">
        <ele>269</ele>
        <time>2022-09-06T06:48:04.525Z</time>
      </trkpt>
      <trkpt lat="45.70311" lon="5.78834">
        <ele>269</ele>
        <time>2022-09-06T06:48:05.525Z</time>
      </trkpt>
      <trkpt lat="45.70309" lon="5.78842">
        <ele>269</ele>
        <time>2022-09-06T06:48:06.525Z</time>
      </trkpt>
      <trkpt lat="45.70307" lon="5.7885">
        <ele>269</ele>
        <time>2022-09-06T06:48:07.525Z</time>
      </trkpt>
      <trkpt lat="45.70304" lon="5.7886">
        <ele>269</ele>
        <time>2022-09-06T06:48:08.525Z</time>
      </trkpt>
      <trkpt lat="45.70301" lon="5.78868">
        <ele>270</ele>
        <time>2022-09-06T06:48:09.525Z</time>
      </trkpt>
      <trkpt lat="45.70298" lon="5.78876">
        <ele>270</ele>
        <time>2022-09-06T06:48:10.524Z</time>
      </trkpt>
      <trkpt lat="45.70296" lon="5.78884">
        <ele>269</ele>
        <time>2022-09-06T06:48:11.525Z</time>
      </trkpt>
      <trkpt lat="45.70294" lon="5.78893">
        <ele>269</ele>
        <time>2022-09-06T06:48:12.525Z</time>
      </trkpt>
      <trkpt lat="45.70291" lon="5.78901">
        <ele>269</ele>
        <time>2022-09-06T06:48:13.525Z</time>
      </trkpt>
      <trkpt lat="45.70289" lon="5.78908">
        <ele>269</ele>
        <time>2022-09-06T06:48:14.524Z</time>
      </trkpt>
      <trkpt lat="45.70287" lon="5.78916">
        <ele>269</ele>
        <time>2022-09-06T06:48:15.525Z</time>
      </trkpt>
      <trkpt lat="45.70284" lon="5.78924">
        <ele>268</ele>
        <time>2022-09-06T06:48:16.525Z</time>
      </trkpt>
      <trkpt lat="45.70282" lon="5.78931">
        <ele>268</ele>
        <time>2022-09-06T06:48:17.525Z</time>
      </trkpt>
      <trkpt lat="45.7028" lon="5.78939">
        <ele>268</ele>
        <time>2022-09-06T06:48:18.524Z</time>
      </trkpt>
      <trkpt lat="45.70278" lon="5.78947">
        <ele>268</ele>
        <time>2022-09-06T06:48:19.525Z</time>
      </trkpt>
      <trkpt lat="45.70275" lon="5.78955">
        <ele>268</ele>
        <time>2022-09-06T06:48:20.525Z</time>
      </trkpt>
      <trkpt lat="45.70273" lon="5.78963">
        <ele>268</ele>
        <time>2022-09-06T06:48:21.525Z</time>
      </trkpt>
      <trkpt lat="45.70271" lon="5.78971">
        <ele>267</ele>
        <time>2022-09-06T06:48:22.525Z</time>
      </trkpt>
      <trkpt lat="45.70269" lon="5.78978">
        <ele>267</ele>
        <time>2022-09-06T06:48:23.525Z</time>
      </trkpt>
      <trkpt lat="45.70267" lon="5.78986">
        <ele>267</ele>
        <time>2022-09-06T06:48:24.524Z</time>
      </trkpt>
      <trkpt lat="45.70264" lon="5.78994">
        <ele>267</ele>
        <time>2022-09-06T06:48:25.524Z</time>
      </trkpt>
      <trkpt lat="45.70262" lon="5.79002">
        <ele>268</ele>
        <time>2022-09-06T06:48:26.524Z</time>
      </trkpt>
      <trkpt lat="45.7026" lon="5.7901">
        <ele>268</ele>
        <time>2022-09-06T06:48:27.525Z</time>
      </trkpt>
      <trkpt lat="45.70258" lon="5.79017">
        <ele>268</ele>
        <time>2022-09-06T06:48:28.525Z</time>
      </trkpt>
      <trkpt lat="45.70256" lon="5.79025">
        <ele>269</ele>
        <time>2022-09-06T06:48:29.525Z</time>
      </trkpt>
      <trkpt lat="45.70254" lon="5.79033">
        <ele>270</ele>
        <time>2022-09-06T06:48:30.525Z</time>
      </trkpt>
      <trkpt lat="45.70252" lon="5.79041">
        <ele>270</ele>
        <time>2022-09-06T06:48:31.525Z</time>
      </trkpt>
      <trkpt lat="45.7025" lon="5.79049">
        <ele>271</ele>
        <time>2022-09-06T06:48:32.525Z</time>
      </trkpt>
      <trkpt lat="45.70247" lon="5.79056">
        <ele>272</ele>
        <time>2022-09-06T06:48:33.525Z</time>
      </trkpt>
      <trkpt lat="45.70245" lon="5.79064">
        <ele>272</ele>
        <time>2022-09-06T06:48:34.525Z</time>
      </trkpt>
      <trkpt lat="45.70243" lon="5.79071">
        <ele>273</ele>
        <time>2022-09-06T06:48:35.525Z</time>
      </trkpt>
      <trkpt lat="45.70241" lon="5.79079">
        <ele>273</ele>
        <time>2022-09-06T06:48:36.525Z</time>
      </trkpt>
      <trkpt lat="45.70239" lon="5.79087">
        <ele>274</ele>
        <time>2022-09-06T06:48:37.524Z</time>
      </trkpt>
      <trkpt lat="45.70236" lon="5.79094">
        <ele>274</ele>
        <time>2022-09-06T06:48:38.525Z</time>
      </trkpt>
      <trkpt lat="45.70234" lon="5.79102">
        <ele>274</ele>
        <time>2022-09-06T06:48:39.525Z</time>
      </trkpt>
      <trkpt lat="45.70232" lon="5.79109">
        <ele>274</ele>
        <time>2022-09-06T06:48:40.525Z</time>
      </trkpt>
      <trkpt lat="45.7023" lon="5.79117">
        <ele>274</ele>
        <time>2022-09-06T06:48:41.525Z</time>
      </trkpt>
      <trkpt lat="45.70227" lon="5.79125">
        <ele>274</ele>
        <time>2022-09-06T06:48:42.524Z</time>
      </trkpt>
      <trkpt lat="45.70225" lon="5.79133">
        <ele>274</ele>
        <time>2022-09-06T06:48:43.525Z</time>
      </trkpt>
      <trkpt lat="45.70223" lon="5.79141">
        <ele>274</ele>
        <time>2022-09-06T06:48:44.524Z</time>
      </trkpt>
      <trkpt lat="45.70221" lon="5.79148">
        <ele>274</ele>
        <time>2022-09-06T06:48:45.525Z</time>
      </trkpt>
      <trkpt lat="45.70218" lon="5.79156">
        <ele>273</ele>
        <time>2022-09-06T06:48:46.525Z</time>
      </trkpt>
      <trkpt lat="45.70216" lon="5.79163">
        <ele>273</ele>
        <time>2022-09-06T06:48:47.525Z</time>
      </trkpt>
      <trkpt lat="45.70214" lon="5.79171">
        <ele>273</ele>
        <time>2022-09-06T06:48:48.525Z</time>
      </trkpt>
      <trkpt lat="45.70212" lon="5.79178">
        <ele>274</ele>
        <time>2022-09-06T06:48:49.525Z</time>
      </trkpt>
      <trkpt lat="45.7021" lon="5.79185">
        <ele>274</ele>
        <time>2022-09-06T06:48:50.524Z</time>
      </trkpt>
      <trkpt lat="45.70208" lon="5.79193">
        <ele>273</ele>
        <time>2022-09-06T06:48:51.524Z</time>
      </trkpt>
      <trkpt lat="45.70205" lon="5.792">
        <ele>274</ele>
        <time>2022-09-06T06:48:52.525Z</time>
      </trkpt>
      <trkpt lat="45.70202" lon="5.79208">
        <ele>273</ele>
        <time>2022-09-06T06:48:53.525Z</time>
      </trkpt>
      <trkpt lat="45.70199" lon="5.79214">
        <ele>273</ele>
        <time>2022-09-06T06:48:54.525Z</time>
      </trkpt>
      <trkpt lat="45.70196" lon="5.79221">
        <ele>274</ele>
        <time>2022-09-06T06:48:55.525Z</time>
      </trkpt>
      <trkpt lat="45.70193" lon="5.79227">
        <ele>274</ele>
        <time>2022-09-06T06:48:56.525Z</time>
      </trkpt>
      <trkpt lat="45.70189" lon="5.79233">
        <ele>275</ele>
        <time>2022-09-06T06:48:57.525Z</time>
      </trkpt>
      <trkpt lat="45.70185" lon="5.79239">
        <ele>276</ele>
        <time>2022-09-06T06:48:58.525Z</time>
      </trkpt>
      <trkpt lat="45.70181" lon="5.79244">
        <ele>277</ele>
        <time>2022-09-06T06:48:59.525Z</time>
      </trkpt>
      <trkpt lat="45.70177" lon="5.79249">
        <ele>278</ele>
        <time>2022-09-06T06:49:00.525Z</time>
      </trkpt>
      <trkpt lat="45.70172" lon="5.79254">
        <ele>278</ele>
        <time>2022-09-06T06:49:01.524Z</time>
      </trkpt>
      <trkpt lat="45.70167" lon="5.79258">
        <ele>279</ele>
        <time>2022-09-06T06:49:02.525Z</time>
      </trkpt>
      <trkpt lat="45.70163" lon="5.79262">
        <ele>280</ele>
        <time>2022-09-06T06:49:03.525Z</time>
      </trkpt>
      <trkpt lat="45.70158" lon="5.79265">
        <ele>280</ele>
        <time>2022-09-06T06:49:04.525Z</time>
      </trkpt>
      <trkpt lat="45.70153" lon="5.79268">
        <ele>281</ele>
        <time>2022-09-06T06:49:05.525Z</time>
      </trkpt>
      <trkpt lat="45.70148" lon="5.7927">
        <ele>281</ele>
        <time>2022-09-06T06:49:06.525Z</time>
      </trkpt>
      <trkpt lat="45.70143" lon="5.79273">
        <ele>282</ele>
        <time>2022-09-06T06:49:07.524Z</time>
      </trkpt>
      <trkpt lat="45.70138" lon="5.79276">
        <ele>283</ele>
        <time>2022-09-06T06:49:08.525Z</time>
      </trkpt>
      <trkpt lat="45.70134" lon="5.79278">
        <ele>284</ele>
        <time>2022-09-06T06:49:09.524Z</time>
      </trkpt>
      <trkpt lat="45.70129" lon="5.79281">
        <ele>285</ele>
        <time>2022-09-06T06:49:10.524Z</time>
      </trkpt>
      <trkpt lat="45.70125" lon="5.79284">
        <ele>287</ele>
        <time>2022-09-06T06:49:11.525Z</time>
      </trkpt>
      <trkpt lat="45.7012" lon="5.79287">
        <ele>288</ele>
        <time>2022-09-06T06:49:12.525Z</time>
      </trkpt>
      <trkpt lat="45.70117" lon="5.79289">
        <ele>289</ele>
        <time>2022-09-06T06:49:13.525Z</time>
      </trkpt>
      <trkpt lat="45.70112" lon="5.79293">
        <ele>290</ele>
        <time>2022-09-06T06:49:14.524Z</time>
      </trkpt>
      <trkpt lat="45.70107" lon="5.79297">
        <ele>291</ele>
        <time>2022-09-06T06:49:15.524Z</time>
      </trkpt>
      <trkpt lat="45.70102" lon="5.79302">
        <ele>291</ele>
        <time>2022-09-06T06:49:16.524Z</time>
      </trkpt>
      <trkpt lat="45.70098" lon="5.79306">
        <ele>292</ele>
        <time>2022-09-06T06:49:17.524Z</time>
      </trkpt>
      <trkpt lat="45.70094" lon="5.7931">
        <ele>292</ele>
        <time>2022-09-06T06:49:18.524Z</time>
      </trkpt>
      <trkpt lat="45.70089" lon="5.79315">
        <ele>292</ele>
        <time>2022-09-06T06:49:19.524Z</time>
      </trkpt>
      <trkpt lat="45.70084" lon="5.7932">
        <ele>291</ele>
        <time>2022-09-06T06:49:20.525Z</time>
      </trkpt>
      <trkpt lat="45.7008" lon="5.79324">
        <ele>291</ele>
        <time>2022-09-06T06:49:21.525Z</time>
      </trkpt>
      <trkpt lat="45.70076" lon="5.79329">
        <ele>291</ele>
        <time>2022-09-06T06:49:22.524Z</time>
      </trkpt>
      <trkpt lat="45.70072" lon="5.79334">
        <ele>290</ele>
        <time>2022-09-06T06:49:23.525Z</time>
      </trkpt>
      <trkpt lat="45.70068" lon="5.79339">
        <ele>290</ele>
        <time>2022-09-06T06:49:24.525Z</time>
      </trkpt>
      <trkpt lat="45.70063" lon="5.79344">
        <ele>290</ele>
        <time>2022-09-06T06:49:25.524Z</time>
      </trkpt>
      <trkpt lat="45.70059" lon="5.79349">
        <ele>290</ele>
        <time>2022-09-06T06:49:26.525Z</time>
      </trkpt>
      <trkpt lat="45.70055" lon="5.79354">
        <ele>289</ele>
        <time>2022-09-06T06:49:27.525Z</time>
      </trkpt>
      <trkpt lat="45.70051" lon="5.79359">
        <ele>289</ele>
        <time>2022-09-06T06:49:28.525Z</time>
      </trkpt>
      <trkpt lat="45.70047" lon="5.79364">
        <ele>289</ele>
        <time>2022-09-06T06:49:29.525Z</time>
      </trkpt>
      <trkpt lat="45.70042" lon="5.79369">
        <ele>290</ele>
        <time>2022-09-06T06:49:30.525Z</time>
      </trkpt>
      <trkpt lat="45.70038" lon="5.79374">
        <ele>290</ele>
        <time>2022-09-06T06:49:31.524Z</time>
      </trkpt>
      <trkpt lat="45.70034" lon="5.79378">
        <ele>291</ele>
        <time>2022-09-06T06:49:32.525Z</time>
      </trkpt>
      <trkpt lat="45.70029" lon="5.79382">
        <ele>291</ele>
        <time>2022-09-06T06:49:33.525Z</time>
      </trkpt>
      <trkpt lat="45.70025" lon="5.79386">
        <ele>292</ele>
        <time>2022-09-06T06:49:34.525Z</time>
      </trkpt>
      <trkpt lat="45.7002" lon="5.79389">
        <ele>292</ele>
        <time>2022-09-06T06:49:35.525Z</time>
      </trkpt>
      <trkpt lat="45.70015" lon="5.79392">
        <ele>293</ele>
        <time>2022-09-06T06:49:36.525Z</time>
      </trkpt>
      <trkpt lat="45.7001" lon="5.79394">
        <ele>294</ele>
        <time>2022-09-06T06:49:37.524Z</time>
      </trkpt>
      <trkpt lat="45.70005" lon="5.79396">
        <ele>294</ele>
        <time>2022-09-06T06:49:38.525Z</time>
      </trkpt>
      <trkpt lat="45.69999" lon="5.79397">
        <ele>294</ele>
        <time>2022-09-06T06:49:39.525Z</time>
      </trkpt>
      <trkpt lat="45.69993" lon="5.79398">
        <ele>293</ele>
        <time>2022-09-06T06:49:40.525Z</time>
      </trkpt>
      <trkpt lat="45.69987" lon="5.79398">
        <ele>293</ele>
        <time>2022-09-06T06:49:41.524Z</time>
      </trkpt>
      <trkpt lat="45.6998" lon="5.79397">
        <ele>292</ele>
        <time>2022-09-06T06:49:42.524Z</time>
      </trkpt>
      <trkpt lat="45.69974" lon="5.79397">
        <ele>291</ele>
        <time>2022-09-06T06:49:43.525Z</time>
      </trkpt>
      <trkpt lat="45.69968" lon="5.79395">
        <ele>291</ele>
        <time>2022-09-06T06:49:44.525Z</time>
      </trkpt>
      <trkpt lat="45.69962" lon="5.79393">
        <ele>290</ele>
        <time>2022-09-06T06:49:45.525Z</time>
      </trkpt>
      <trkpt lat="45.69957" lon="5.79392">
        <ele>290</ele>
        <time>2022-09-06T06:49:46.525Z</time>
      </trkpt>
      <trkpt lat="45.69952" lon="5.79391">
        <ele>290</ele>
        <time>2022-09-06T06:49:47.524Z</time>
      </trkpt>
      <trkpt lat="45.69945" lon="5.79389">
        <ele>289</ele>
        <time>2022-09-06T06:49:48.525Z</time>
      </trkpt>
      <trkpt lat="45.69939" lon="5.79388">
        <ele>289</ele>
        <time>2022-09-06T06:49:49.524Z</time>
      </trkpt>
      <trkpt lat="45.69933" lon="5.79387">
        <ele>289</ele>
        <time>2022-09-06T06:49:50.524Z</time>
      </trkpt>
      <trkpt lat="45.69929" lon="5.79386">
        <ele>288</ele>
        <time>2022-09-06T06:49:51.525Z</time>
      </trkpt>
      <trkpt lat="45.69923" lon="5.79386">
        <ele>288</ele>
        <time>2022-09-06T06:49:52.525Z</time>
      </trkpt>
      <trkpt lat="45.69916" lon="5.79387">
        <ele>288</ele>
        <time>2022-09-06T06:49:53.524Z</time>
      </trkpt>
      <trkpt lat="45.69909" lon="5.79389">
        <ele>288</ele>
        <time>2022-09-06T06:49:54.525Z</time>
      </trkpt>
      <trkpt lat="45.69903" lon="5.79391">
        <ele>288</ele>
        <time>2022-09-06T06:49:55.525Z</time>
      </trkpt>
      <trkpt lat="45.69898" lon="5.79393">
        <ele>288</ele>
        <time>2022-09-06T06:49:56.525Z</time>
      </trkpt>
      <trkpt lat="45.69891" lon="5.79397">
        <ele>288</ele>
        <time>2022-09-06T06:49:57.525Z</time>
      </trkpt>
      <trkpt lat="45.69884" lon="5.794">
        <ele>289</ele>
        <time>2022-09-06T06:49:58.524Z</time>
      </trkpt>
      <trkpt lat="45.69878" lon="5.79402">
        <ele>290</ele>
        <time>2022-09-06T06:49:59.525Z</time>
      </trkpt>
      <trkpt lat="45.69872" lon="5.79405">
        <ele>291</ele>
        <time>2022-09-06T06:50:00.525Z</time>
      </trkpt>
      <trkpt lat="45.69865" lon="5.79406">
        <ele>291</ele>
        <time>2022-09-06T06:50:01.525Z</time>
      </trkpt>
      <trkpt lat="45.69858" lon="5.79408">
        <ele>291</ele>
        <time>2022-09-06T06:50:02.525Z</time>
      </trkpt>
      <trkpt lat="45.69851" lon="5.79409">
        <ele>291</ele>
        <time>2022-09-06T06:50:03.524Z</time>
      </trkpt>
      <trkpt lat="45.69843" lon="5.79409">
        <ele>291</ele>
        <time>2022-09-06T06:50:04.525Z</time>
      </trkpt>
      <trkpt lat="45.69837" lon="5.79408">
        <ele>291</ele>
        <time>2022-09-06T06:50:05.525Z</time>
      </trkpt>
      <trkpt lat="45.69829" lon="5.79408">
        <ele>291</ele>
        <time>2022-09-06T06:50:06.525Z</time>
      </trkpt>
      <trkpt lat="45.6982" lon="5.79405">
        <ele>291</ele>
        <time>2022-09-06T06:50:07.525Z</time>
      </trkpt>
      <trkpt lat="45.69813" lon="5.79403">
        <ele>290</ele>
        <time>2022-09-06T06:50:08.525Z</time>
      </trkpt>
      <trkpt lat="45.69807" lon="5.794">
        <ele>290</ele>
        <time>2022-09-06T06:50:09.525Z</time>
      </trkpt>
      <trkpt lat="45.69801" lon="5.79397">
        <ele>290</ele>
        <time>2022-09-06T06:50:10.525Z</time>
      </trkpt>
      <trkpt lat="45.69795" lon="5.7939">
        <ele>289</ele>
        <time>2022-09-06T06:50:11.524Z</time>
      </trkpt>
      <trkpt lat="45.69789" lon="5.79383">
        <ele>289</ele>
        <time>2022-09-06T06:50:12.525Z</time>
      </trkpt>
      <trkpt lat="45.69785" lon="5.79376">
        <ele>288</ele>
        <time>2022-09-06T06:50:13.525Z</time>
      </trkpt>
      <trkpt lat="45.6978" lon="5.79368">
        <ele>288</ele>
        <time>2022-09-06T06:50:14.525Z</time>
      </trkpt>
      <trkpt lat="45.69775" lon="5.79361">
        <ele>288</ele>
        <time>2022-09-06T06:50:15.525Z</time>
      </trkpt>
      <trkpt lat="45.69771" lon="5.79354">
        <ele>288</ele>
        <time>2022-09-06T06:50:16.525Z</time>
      </trkpt>
      <trkpt lat="45.69765" lon="5.79345">
        <ele>287</ele>
        <time>2022-09-06T06:50:17.525Z</time>
      </trkpt>
      <trkpt lat="45.69759" lon="5.79339">
        <ele>287</ele>
        <time>2022-09-06T06:50:18.525Z</time>
      </trkpt>
      <trkpt lat="45.69753" lon="5.79336">
        <ele>287</ele>
        <time>2022-09-06T06:50:19.525Z</time>
      </trkpt>
      <trkpt lat="45.69748" lon="5.79333">
        <ele>287</ele>
        <time>2022-09-06T06:50:20.524Z</time>
      </trkpt>
      <trkpt lat="45.69741" lon="5.79329">
        <ele>288</ele>
        <time>2022-09-06T06:50:21.524Z</time>
      </trkpt>
      <trkpt lat="45.69734" lon="5.79327">
        <ele>288</ele>
        <time>2022-09-06T06:50:22.525Z</time>
      </trkpt>
      <trkpt lat="45.69727" lon="5.79326">
        <ele>288</ele>
        <time>2022-09-06T06:50:23.524Z</time>
      </trkpt>
      <trkpt lat="45.69721" lon="5.79326">
        <ele>288</ele>
        <time>2022-09-06T06:50:24.524Z</time>
      </trkpt>
      <trkpt lat="45.69716" lon="5.79325">
        <ele>288</ele>
        <time>2022-09-06T06:50:25.525Z</time>
      </trkpt>
      <trkpt lat="45.69709" lon="5.79325">
        <ele>288</ele>
        <time>2022-09-06T06:50:26.525Z</time>
      </trkpt>
      <trkpt lat="45.69702" lon="5.79326">
        <ele>288</ele>
        <time>2022-09-06T06:50:27.524Z</time>
      </trkpt>
      <trkpt lat="45.69695" lon="5.79328">
        <ele>288</ele>
        <time>2022-09-06T06:50:28.525Z</time>
      </trkpt>
      <trkpt lat="45.69689" lon="5.7933">
        <ele>288</ele>
        <time>2022-09-06T06:50:29.524Z</time>
      </trkpt>
      <trkpt lat="45.69684" lon="5.79332">
        <ele>288</ele>
        <time>2022-09-06T06:50:30.525Z</time>
      </trkpt>
      <trkpt lat="45.69678" lon="5.79335">
        <ele>288</ele>
        <time>2022-09-06T06:50:31.525Z</time>
      </trkpt>
      <trkpt lat="45.69671" lon="5.79341">
        <ele>288</ele>
        <time>2022-09-06T06:50:32.525Z</time>
      </trkpt>
      <trkpt lat="45.69665" lon="5.79346">
        <ele>288</ele>
        <time>2022-09-06T06:50:33.525Z</time>
      </trkpt>
      <trkpt lat="45.69658" lon="5.79353">
        <ele>288</ele>
        <time>2022-09-06T06:50:34.525Z</time>
      </trkpt>
      <trkpt lat="45.69653" lon="5.79359">
        <ele>288</ele>
        <time>2022-09-06T06:50:35.524Z</time>
      </trkpt>
      <trkpt lat="45.69648" lon="5.79365">
        <ele>288</ele>
        <time>2022-09-06T06:50:36.525Z</time>
      </trkpt>
      <trkpt lat="45.69645" lon="5.79371">
        <ele>288</ele>
        <time>2022-09-06T06:50:37.525Z</time>
      </trkpt>
      <trkpt lat="45.6964" lon="5.7938">
        <ele>288</ele>
        <time>2022-09-06T06:50:38.525Z</time>
      </trkpt>
      <trkpt lat="45.69638" lon="5.79387">
        <ele>288</ele>
        <time>2022-09-06T06:50:39.525Z</time>
      </trkpt>
      <trkpt lat="45.69635" lon="5.79396">
        <ele>288</ele>
        <time>2022-09-06T06:50:40.524Z</time>
      </trkpt>
      <trkpt lat="45.69632" lon="5.79407">
        <ele>288</ele>
        <time>2022-09-06T06:50:41.525Z</time>
      </trkpt>
      <trkpt lat="45.6963" lon="5.79417">
        <ele>288</ele>
        <time>2022-09-06T06:50:42.525Z</time>
      </trkpt>
      <trkpt lat="45.6963" lon="5.79427">
        <ele>289</ele>
        <time>2022-09-06T06:50:43.524Z</time>
      </trkpt>
      <trkpt lat="45.6963" lon="5.79435">
        <ele>289</ele>
        <time>2022-09-06T06:50:44.525Z</time>
      </trkpt>
      <trkpt lat="45.69629" lon="5.79446">
        <ele>289</ele>
        <time>2022-09-06T06:50:45.525Z</time>
      </trkpt>
      <trkpt lat="45.69629" lon="5.79456">
        <ele>289</ele>
        <time>2022-09-06T06:50:46.525Z</time>
      </trkpt>
      <trkpt lat="45.6963" lon="5.79464">
        <ele>289</ele>
        <time>2022-09-06T06:50:47.525Z</time>
      </trkpt>
      <trkpt lat="45.6963" lon="5.79474">
        <ele>289</ele>
        <time>2022-09-06T06:50:48.525Z</time>
      </trkpt>
      <trkpt lat="45.69632" lon="5.79484">
        <ele>289</ele>
        <time>2022-09-06T06:50:49.525Z</time>
      </trkpt>
      <trkpt lat="45.69633" lon="5.79496">
        <ele>289</ele>
        <time>2022-09-06T06:50:50.525Z</time>
      </trkpt>
      <trkpt lat="45.69634" lon="5.79504">
        <ele>289</ele>
        <time>2022-09-06T06:50:51.525Z</time>
      </trkpt>
      <trkpt lat="45.69636" lon="5.79514">
        <ele>289</ele>
        <time>2022-09-06T06:50:52.525Z</time>
      </trkpt>
      <trkpt lat="45.69637" lon="5.79525">
        <ele>290</ele>
        <time>2022-09-06T06:50:53.525Z</time>
      </trkpt>
      <trkpt lat="45.69638" lon="5.79534">
        <ele>289</ele>
        <time>2022-09-06T06:50:54.525Z</time>
      </trkpt>
      <trkpt lat="45.69639" lon="5.79544">
        <ele>288</ele>
        <time>2022-09-06T06:50:55.524Z</time>
      </trkpt>
      <trkpt lat="45.6964" lon="5.79553">
        <ele>288</ele>
        <time>2022-09-06T06:50:56.525Z</time>
      </trkpt>
      <trkpt lat="45.69641" lon="5.79563">
        <ele>288</ele>
        <time>2022-09-06T06:50:57.524Z</time>
      </trkpt>
      <trkpt lat="45.69642" lon="5.79572">
        <ele>288</ele>
        <time>2022-09-06T06:50:58.525Z</time>
      </trkpt>
      <trkpt lat="45.69642" lon="5.79579">
        <ele>288</ele>
        <time>2022-09-06T06:50:59.525Z</time>
      </trkpt>
      <trkpt lat="45.69644" lon="5.7959">
        <ele>288</ele>
        <time>2022-09-06T06:51:00.524Z</time>
      </trkpt>
      <trkpt lat="45.69644" lon="5.79599">
        <ele>288</ele>
        <time>2022-09-06T06:51:01.525Z</time>
      </trkpt>
      <trkpt lat="45.69645" lon="5.79608">
        <ele>288</ele>
        <time>2022-09-06T06:51:02.525Z</time>
      </trkpt>
      <trkpt lat="45.69646" lon="5.79617">
        <ele>289</ele>
        <time>2022-09-06T06:51:03.525Z</time>
      </trkpt>
      <trkpt lat="45.69648" lon="5.79626">
        <ele>289</ele>
        <time>2022-09-06T06:51:04.525Z</time>
      </trkpt>
      <trkpt lat="45.69649" lon="5.79635">
        <ele>289</ele>
        <time>2022-09-06T06:51:05.525Z</time>
      </trkpt>
      <trkpt lat="45.6965" lon="5.79644">
        <ele>290</ele>
        <time>2022-09-06T06:51:06.525Z</time>
      </trkpt>
      <trkpt lat="45.6965" lon="5.79653">
        <ele>291</ele>
        <time>2022-09-06T06:51:07.525Z</time>
      </trkpt>
      <trkpt lat="45.69651" lon="5.79661">
        <ele>292</ele>
        <time>2022-09-06T06:51:08.525Z</time>
      </trkpt>
      <trkpt lat="45.69651" lon="5.7967">
        <ele>292</ele>
        <time>2022-09-06T06:51:09.525Z</time>
      </trkpt>
      <trkpt lat="45.69652" lon="5.79681">
        <ele>293</ele>
        <time>2022-09-06T06:51:10.525Z</time>
      </trkpt>
      <trkpt lat="45.69653" lon="5.7969">
        <ele>294</ele>
        <time>2022-09-06T06:51:11.525Z</time>
      </trkpt>
      <trkpt lat="45.69654" lon="5.79699">
        <ele>294</ele>
        <time>2022-09-06T06:51:12.525Z</time>
      </trkpt>
      <trkpt lat="45.69655" lon="5.79708">
        <ele>295</ele>
        <time>2022-09-06T06:51:13.524Z</time>
      </trkpt>
      <trkpt lat="45.69656" lon="5.79717">
        <ele>295</ele>
        <time>2022-09-06T06:51:14.525Z</time>
      </trkpt>
      <trkpt lat="45.69657" lon="5.79727">
        <ele>295</ele>
        <time>2022-09-06T06:51:15.525Z</time>
      </trkpt>
      <trkpt lat="45.69658" lon="5.79736">
        <ele>295</ele>
        <time>2022-09-06T06:51:16.525Z</time>
      </trkpt>
      <trkpt lat="45.69658" lon="5.79743">
        <ele>294</ele>
        <time>2022-09-06T06:51:17.525Z</time>
      </trkpt>
      <trkpt lat="45.69659" lon="5.79752">
        <ele>294</ele>
        <time>2022-09-06T06:51:18.525Z</time>
      </trkpt>
      <trkpt lat="45.69659" lon="5.79761">
        <ele>294</ele>
        <time>2022-09-06T06:51:19.524Z</time>
      </trkpt>
      <trkpt lat="45.6966" lon="5.79772">
        <ele>293</ele>
        <time>2022-09-06T06:51:20.524Z</time>
      </trkpt>
      <trkpt lat="45.69661" lon="5.7978">
        <ele>293</ele>
        <time>2022-09-06T06:51:21.525Z</time>
      </trkpt>
      <trkpt lat="45.69662" lon="5.79789">
        <ele>294</ele>
        <time>2022-09-06T06:51:22.525Z</time>
      </trkpt>
      <trkpt lat="45.69663" lon="5.79797">
        <ele>294</ele>
        <time>2022-09-06T06:51:23.525Z</time>
      </trkpt>
      <trkpt lat="45.69664" lon="5.79806">
        <ele>294</ele>
        <time>2022-09-06T06:51:24.524Z</time>
      </trkpt>
      <trkpt lat="45.69665" lon="5.79815">
        <ele>294</ele>
        <time>2022-09-06T06:51:25.525Z</time>
      </trkpt>
      <trkpt lat="45.69666" lon="5.79824">
        <ele>294</ele>
        <time>2022-09-06T06:51:26.525Z</time>
      </trkpt>
      <trkpt lat="45.69667" lon="5.79834">
        <ele>295</ele>
        <time>2022-09-06T06:51:27.525Z</time>
      </trkpt>
      <trkpt lat="45.69667" lon="5.79842">
        <ele>295</ele>
        <time>2022-09-06T06:51:28.525Z</time>
      </trkpt>
      <trkpt lat="45.69668" lon="5.7985">
        <ele>295</ele>
        <time>2022-09-06T06:51:29.525Z</time>
      </trkpt>
      <trkpt lat="45.69668" lon="5.79859">
        <ele>295</ele>
        <time>2022-09-06T06:51:30.525Z</time>
      </trkpt>
      <trkpt lat="45.69669" lon="5.79868">
        <ele>296</ele>
        <time>2022-09-06T06:51:31.525Z</time>
      </trkpt>
      <trkpt lat="45.6967" lon="5.79877">
        <ele>296</ele>
        <time>2022-09-06T06:51:32.525Z</time>
      </trkpt>
      <trkpt lat="45.69671" lon="5.79886">
        <ele>296</ele>
        <time>2022-09-06T06:51:33.524Z</time>
      </trkpt>
      <trkpt lat="45.69672" lon="5.79895">
        <ele>297</ele>
        <time>2022-09-06T06:51:34.524Z</time>
      </trkpt>
      <trkpt lat="45.69673" lon="5.79903">
        <ele>297</ele>
        <time>2022-09-06T06:51:35.525Z</time>
      </trkpt>
      <trkpt lat="45.69674" lon="5.79912">
        <ele>298</ele>
        <time>2022-09-06T06:51:36.525Z</time>
      </trkpt>
      <trkpt lat="45.69676" lon="5.79921">
        <ele>298</ele>
        <time>2022-09-06T06:51:37.525Z</time>
      </trkpt>
      <trkpt lat="45.69677" lon="5.79929">
        <ele>298</ele>
        <time>2022-09-06T06:51:38.525Z</time>
      </trkpt>
      <trkpt lat="45.69678" lon="5.79938">
        <ele>298</ele>
        <time>2022-09-06T06:51:39.524Z</time>
      </trkpt>
      <trkpt lat="45.69679" lon="5.79947">
        <ele>298</ele>
        <time>2022-09-06T06:51:40.525Z</time>
      </trkpt>
      <trkpt lat="45.69679" lon="5.79956">
        <ele>298</ele>
        <time>2022-09-06T06:51:41.525Z</time>
      </trkpt>
      <trkpt lat="45.6968" lon="5.79965">
        <ele>298</ele>
        <time>2022-09-06T06:51:42.525Z</time>
      </trkpt>
      <trkpt lat="45.69681" lon="5.79974">
        <ele>299</ele>
        <time>2022-09-06T06:51:43.525Z</time>
      </trkpt>
      <trkpt lat="45.69681" lon="5.79983">
        <ele>299</ele>
        <time>2022-09-06T06:51:44.525Z</time>
      </trkpt>
      <trkpt lat="45.69682" lon="5.79992">
        <ele>299</ele>
        <time>2022-09-06T06:51:45.525Z</time>
      </trkpt>
      <trkpt lat="45.69683" lon="5.80001">
        <ele>299</ele>
        <time>2022-09-06T06:51:46.525Z</time>
      </trkpt>
      <trkpt lat="45.69683" lon="5.8001">
        <ele>299</ele>
        <time>2022-09-06T06:51:47.525Z</time>
      </trkpt>
      <trkpt lat="45.69684" lon="5.80019">
        <ele>299</ele>
        <time>2022-09-06T06:51:48.524Z</time>
      </trkpt>
      <trkpt lat="45.69685" lon="5.80028">
        <ele>299</ele>
        <time>2022-09-06T06:51:49.524Z</time>
      </trkpt>
      <trkpt lat="45.69686" lon="5.80036">
        <ele>299</ele>
        <time>2022-09-06T06:51:50.525Z</time>
      </trkpt>
      <trkpt lat="45.69687" lon="5.80045">
        <ele>300</ele>
        <time>2022-09-06T06:51:51.525Z</time>
      </trkpt>
      <trkpt lat="45.69688" lon="5.80053">
        <ele>300</ele>
        <time>2022-09-06T06:51:52.525Z</time>
      </trkpt>
      <trkpt lat="45.6969" lon="5.80062">
        <ele>300</ele>
        <time>2022-09-06T06:51:53.525Z</time>
      </trkpt>
      <trkpt lat="45.69691" lon="5.8007">
        <ele>300</ele>
        <time>2022-09-06T06:51:54.524Z</time>
      </trkpt>
      <trkpt lat="45.69693" lon="5.80079">
        <ele>301</ele>
        <time>2022-09-06T06:51:55.525Z</time>
      </trkpt>
      <trkpt lat="45.69694" lon="5.80088">
        <ele>301</ele>
        <time>2022-09-06T06:51:56.525Z</time>
      </trkpt>
      <trkpt lat="45.69696" lon="5.80096">
        <ele>301</ele>
        <time>2022-09-06T06:51:57.525Z</time>
      </trkpt>
      <trkpt lat="45.69698" lon="5.80104">
        <ele>301</ele>
        <time>2022-09-06T06:51:58.525Z</time>
      </trkpt>
      <trkpt lat="45.697" lon="5.80112">
        <ele>300</ele>
        <time>2022-09-06T06:51:59.525Z</time>
      </trkpt>
      <trkpt lat="45.69703" lon="5.80121">
        <ele>301</ele>
        <time>2022-09-06T06:52:00.525Z</time>
      </trkpt>
      <trkpt lat="45.69705" lon="5.80131">
        <ele>300</ele>
        <time>2022-09-06T06:52:01.524Z</time>
      </trkpt>
      <trkpt lat="45.69707" lon="5.80138">
        <ele>300</ele>
        <time>2022-09-06T06:52:02.525Z</time>
      </trkpt>
      <trkpt lat="45.69709" lon="5.80147">
        <ele>300</ele>
        <time>2022-09-06T06:52:03.524Z</time>
      </trkpt>
      <trkpt lat="45.69711" lon="5.80156">
        <ele>300</ele>
        <time>2022-09-06T06:52:04.525Z</time>
      </trkpt>
      <trkpt lat="45.69712" lon="5.80165">
        <ele>300</ele>
        <time>2022-09-06T06:52:05.525Z</time>
      </trkpt>
      <trkpt lat="45.69712" lon="5.80174">
        <ele>300</ele>
        <time>2022-09-06T06:52:06.525Z</time>
      </trkpt>
      <trkpt lat="45.69711" lon="5.80184">
        <ele>300</ele>
        <time>2022-09-06T06:52:07.525Z</time>
      </trkpt>
      <trkpt lat="45.69711" lon="5.80193">
        <ele>300</ele>
        <time>2022-09-06T06:52:08.525Z</time>
      </trkpt>
      <trkpt lat="45.69709" lon="5.80202">
        <ele>300</ele>
        <time>2022-09-06T06:52:09.525Z</time>
      </trkpt>
      <trkpt lat="45.69706" lon="5.80211">
        <ele>299</ele>
        <time>2022-09-06T06:52:10.525Z</time>
      </trkpt>
      <trkpt lat="45.69703" lon="5.80219">
        <ele>299</ele>
        <time>2022-09-06T06:52:11.525Z</time>
      </trkpt>
      <trkpt lat="45.697" lon="5.80227">
        <ele>299</ele>
        <time>2022-09-06T06:52:12.525Z</time>
      </trkpt>
      <trkpt lat="45.69697" lon="5.80235">
        <ele>299</ele>
        <time>2022-09-06T06:52:13.525Z</time>
      </trkpt>
      <trkpt lat="45.69693" lon="5.80242">
        <ele>299</ele>
        <time>2022-09-06T06:52:14.525Z</time>
      </trkpt>
      <trkpt lat="45.69689" lon="5.8025">
        <ele>299</ele>
        <time>2022-09-06T06:52:15.525Z</time>
      </trkpt>
      <trkpt lat="45.69686" lon="5.80258">
        <ele>299</ele>
        <time>2022-09-06T06:52:16.525Z</time>
      </trkpt>
      <trkpt lat="45.69682" lon="5.80265">
        <ele>299</ele>
        <time>2022-09-06T06:52:17.524Z</time>
      </trkpt>
      <trkpt lat="45.69678" lon="5.80273">
        <ele>299</ele>
        <time>2022-09-06T06:52:18.525Z</time>
      </trkpt>
      <trkpt lat="45.69674" lon="5.8028">
        <ele>299</ele>
        <time>2022-09-06T06:52:19.525Z</time>
      </trkpt>
      <trkpt lat="45.6967" lon="5.80287">
        <ele>299</ele>
        <time>2022-09-06T06:52:20.525Z</time>
      </trkpt>
      <trkpt lat="45.69666" lon="5.80294">
        <ele>300</ele>
        <time>2022-09-06T06:52:21.525Z</time>
      </trkpt>
      <trkpt lat="45.69662" lon="5.80302">
        <ele>300</ele>
        <time>2022-09-06T06:52:22.525Z</time>
      </trkpt>
      <trkpt lat="45.69658" lon="5.80309">
        <ele>301</ele>
        <time>2022-09-06T06:52:23.525Z</time>
      </trkpt>
      <trkpt lat="45.69654" lon="5.80317">
        <ele>301</ele>
        <time>2022-09-06T06:52:24.524Z</time>
      </trkpt>
      <trkpt lat="45.6965" lon="5.80324">
        <ele>301</ele>
        <time>2022-09-06T06:52:25.525Z</time>
      </trkpt>
      <trkpt lat="45.69646" lon="5.80331">
        <ele>301</ele>
        <time>2022-09-06T06:52:26.525Z</time>
      </trkpt>
      <trkpt lat="45.69642" lon="5.80339">
        <ele>301</ele>
        <time>2022-09-06T06:52:27.525Z</time>
      </trkpt>
      <trkpt lat="45.69638" lon="5.80347">
        <ele>301</ele>
        <time>2022-09-06T06:52:28.525Z</time>
      </trkpt>
      <trkpt lat="45.69634" lon="5.80354">
        <ele>301</ele>
        <time>2022-09-06T06:52:29.524Z</time>
      </trkpt>
      <trkpt lat="45.69629" lon="5.80362">
        <ele>300</ele>
        <time>2022-09-06T06:52:30.525Z</time>
      </trkpt>
      <trkpt lat="45.69625" lon="5.80369">
        <ele>301</ele>
        <time>2022-09-06T06:52:31.525Z</time>
      </trkpt>
      <trkpt lat="45.69621" lon="5.80377">
        <ele>301</ele>
        <time>2022-09-06T06:52:32.524Z</time>
      </trkpt>
      <trkpt lat="45.69617" lon="5.80384">
        <ele>301</ele>
        <time>2022-09-06T06:52:33.524Z</time>
      </trkpt>
      <trkpt lat="45.69613" lon="5.80391">
        <ele>301</ele>
        <time>2022-09-06T06:52:34.525Z</time>
      </trkpt>
      <trkpt lat="45.69609" lon="5.80399">
        <ele>301</ele>
        <time>2022-09-06T06:52:35.525Z</time>
      </trkpt>
      <trkpt lat="45.69605" lon="5.80406">
        <ele>301</ele>
        <time>2022-09-06T06:52:36.525Z</time>
      </trkpt>
      <trkpt lat="45.69601" lon="5.80413">
        <ele>301</ele>
        <time>2022-09-06T06:52:37.525Z</time>
      </trkpt>
      <trkpt lat="45.69598" lon="5.80421">
        <ele>300</ele>
        <time>2022-09-06T06:52:38.525Z</time>
      </trkpt>
      <trkpt lat="45.69594" lon="5.80428">
        <ele>301</ele>
        <time>2022-09-06T06:52:39.525Z</time>
      </trkpt>
      <trkpt lat="45.6959" lon="5.80435">
        <ele>301</ele>
        <time>2022-09-06T06:52:40.525Z</time>
      </trkpt>
      <trkpt lat="45.69586" lon="5.80443">
        <ele>301</ele>
        <time>2022-09-06T06:52:41.525Z</time>
      </trkpt>
      <trkpt lat="45.69582" lon="5.8045">
        <ele>300</ele>
        <time>2022-09-06T06:52:42.524Z</time>
      </trkpt>
      <trkpt lat="45.69578" lon="5.80457">
        <ele>301</ele>
        <time>2022-09-06T06:52:43.524Z</time>
      </trkpt>
      <trkpt lat="45.69574" lon="5.80465">
        <ele>301</ele>
        <time>2022-09-06T06:52:44.525Z</time>
      </trkpt>
      <trkpt lat="45.69569" lon="5.80473">
        <ele>300</ele>
        <time>2022-09-06T06:52:45.525Z</time>
      </trkpt>
      <trkpt lat="45.69566" lon="5.80479">
        <ele>300</ele>
        <time>2022-09-06T06:52:46.525Z</time>
      </trkpt>
      <trkpt lat="45.69562" lon="5.80486">
        <ele>300</ele>
        <time>2022-09-06T06:52:47.525Z</time>
      </trkpt>
      <trkpt lat="45.69558" lon="5.80495">
        <ele>300</ele>
        <time>2022-09-06T06:52:48.525Z</time>
      </trkpt>
      <trkpt lat="45.69555" lon="5.80501">
        <ele>301</ele>
        <time>2022-09-06T06:52:49.525Z</time>
      </trkpt>
      <trkpt lat="45.69551" lon="5.80508">
        <ele>301</ele>
        <time>2022-09-06T06:52:50.525Z</time>
      </trkpt>
      <trkpt lat="45.69547" lon="5.80515">
        <ele>301</ele>
        <time>2022-09-06T06:52:51.524Z</time>
      </trkpt>
      <trkpt lat="45.69543" lon="5.80522">
        <ele>302</ele>
        <time>2022-09-06T06:52:52.525Z</time>
      </trkpt>
      <trkpt lat="45.69539" lon="5.8053">
        <ele>302</ele>
        <time>2022-09-06T06:52:53.525Z</time>
      </trkpt>
      <trkpt lat="45.69535" lon="5.80537">
        <ele>302</ele>
        <time>2022-09-06T06:52:54.525Z</time>
      </trkpt>
      <trkpt lat="45.69532" lon="5.80544">
        <ele>303</ele>
        <time>2022-09-06T06:52:55.524Z</time>
      </trkpt>
      <trkpt lat="45.69528" lon="5.80551">
        <ele>303</ele>
        <time>2022-09-06T06:52:56.525Z</time>
      </trkpt>
      <trkpt lat="45.69525" lon="5.80558">
        <ele>304</ele>
        <time>2022-09-06T06:52:57.525Z</time>
      </trkpt>
      <trkpt lat="45.69521" lon="5.80565">
        <ele>304</ele>
        <time>2022-09-06T06:52:58.524Z</time>
      </trkpt>
      <trkpt lat="45.69517" lon="5.80572">
        <ele>304</ele>
        <time>2022-09-06T06:52:59.525Z</time>
      </trkpt>
      <trkpt lat="45.69514" lon="5.80579">
        <ele>304</ele>
        <time>2022-09-06T06:53:00.525Z</time>
      </trkpt>
      <trkpt lat="45.6951" lon="5.80587">
        <ele>304</ele>
        <time>2022-09-06T06:53:01.525Z</time>
      </trkpt>
      <trkpt lat="45.69506" lon="5.80593">
        <ele>304</ele>
        <time>2022-09-06T06:53:02.525Z</time>
      </trkpt>
      <trkpt lat="45.69503" lon="5.806">
        <ele>305</ele>
        <time>2022-09-06T06:53:03.525Z</time>
      </trkpt>
      <trkpt lat="45.69499" lon="5.80608">
        <ele>306</ele>
        <time>2022-09-06T06:53:04.525Z</time>
      </trkpt>
      <trkpt lat="45.69497" lon="5.80614">
        <ele>307</ele>
        <time>2022-09-06T06:53:05.525Z</time>
      </trkpt>
      <trkpt lat="45.69493" lon="5.80621">
        <ele>308</ele>
        <time>2022-09-06T06:53:06.525Z</time>
      </trkpt>
      <trkpt lat="45.6949" lon="5.80628">
        <ele>309</ele>
        <time>2022-09-06T06:53:07.525Z</time>
      </trkpt>
      <trkpt lat="45.69487" lon="5.80634">
        <ele>310</ele>
        <time>2022-09-06T06:53:08.524Z</time>
      </trkpt>
      <trkpt lat="45.69484" lon="5.80641">
        <ele>312</ele>
        <time>2022-09-06T06:53:09.525Z</time>
      </trkpt>
      <trkpt lat="45.6948" lon="5.80648">
        <ele>313</ele>
        <time>2022-09-06T06:53:10.525Z</time>
      </trkpt>
      <trkpt lat="45.69477" lon="5.80654">
        <ele>313</ele>
        <time>2022-09-06T06:53:11.525Z</time>
      </trkpt>
      <trkpt lat="45.69474" lon="5.80661">
        <ele>313</ele>
        <time>2022-09-06T06:53:12.525Z</time>
      </trkpt>
      <trkpt lat="45.6947" lon="5.80667">
        <ele>313</ele>
        <time>2022-09-06T06:53:13.525Z</time>
      </trkpt>
      <trkpt lat="45.69467" lon="5.80674">
        <ele>313</ele>
        <time>2022-09-06T06:53:14.525Z</time>
      </trkpt>
      <trkpt lat="45.69463" lon="5.8068">
        <ele>313</ele>
        <time>2022-09-06T06:53:15.525Z</time>
      </trkpt>
      <trkpt lat="45.6946" lon="5.80687">
        <ele>313</ele>
        <time>2022-09-06T06:53:16.525Z</time>
      </trkpt>
      <trkpt lat="45.69456" lon="5.80693">
        <ele>313</ele>
        <time>2022-09-06T06:53:17.525Z</time>
      </trkpt>
      <trkpt lat="45.69453" lon="5.807">
        <ele>312</ele>
        <time>2022-09-06T06:53:18.525Z</time>
      </trkpt>
      <trkpt lat="45.69449" lon="5.80706">
        <ele>312</ele>
        <time>2022-09-06T06:53:19.525Z</time>
      </trkpt>
      <trkpt lat="45.69446" lon="5.80713">
        <ele>312</ele>
        <time>2022-09-06T06:53:20.525Z</time>
      </trkpt>
      <trkpt lat="45.69442" lon="5.80719">
        <ele>311</ele>
        <time>2022-09-06T06:53:21.525Z</time>
      </trkpt>
      <trkpt lat="45.69439" lon="5.80726">
        <ele>311</ele>
        <time>2022-09-06T06:53:22.524Z</time>
      </trkpt>
      <trkpt lat="45.69434" lon="5.80733">
        <ele>310</ele>
        <time>2022-09-06T06:53:23.525Z</time>
      </trkpt>
      <trkpt lat="45.69432" lon="5.80738">
        <ele>310</ele>
        <time>2022-09-06T06:53:24.525Z</time>
      </trkpt>
      <trkpt lat="45.69428" lon="5.80744">
        <ele>309</ele>
        <time>2022-09-06T06:53:25.525Z</time>
      </trkpt>
      <trkpt lat="45.69425" lon="5.8075">
        <ele>309</ele>
        <time>2022-09-06T06:53:26.525Z</time>
      </trkpt>
      <trkpt lat="45.69422" lon="5.80756">
        <ele>308</ele>
        <time>2022-09-06T06:53:27.525Z</time>
      </trkpt>
      <trkpt lat="45.69419" lon="5.80762">
        <ele>308</ele>
        <time>2022-09-06T06:53:28.524Z</time>
      </trkpt>
      <trkpt lat="45.69416" lon="5.80768">
        <ele>308</ele>
        <time>2022-09-06T06:53:29.525Z</time>
      </trkpt>
      <trkpt lat="45.69412" lon="5.80774">
        <ele>308</ele>
        <time>2022-09-06T06:53:30.525Z</time>
      </trkpt>
      <trkpt lat="45.69409" lon="5.80781">
        <ele>309</ele>
        <time>2022-09-06T06:53:31.525Z</time>
      </trkpt>
      <trkpt lat="45.69406" lon="5.80787">
        <ele>309</ele>
        <time>2022-09-06T06:53:32.525Z</time>
      </trkpt>
      <trkpt lat="45.69403" lon="5.80793">
        <ele>310</ele>
        <time>2022-09-06T06:53:33.525Z</time>
      </trkpt>
      <trkpt lat="45.694" lon="5.80799">
        <ele>311</ele>
        <time>2022-09-06T06:53:34.524Z</time>
      </trkpt>
      <trkpt lat="45.69397" lon="5.80806">
        <ele>311</ele>
        <time>2022-09-06T06:53:35.525Z</time>
      </trkpt>
      <trkpt lat="45.69393" lon="5.80812">
        <ele>312</ele>
        <time>2022-09-06T06:53:36.524Z</time>
      </trkpt>
      <trkpt lat="45.6939" lon="5.80818">
        <ele>312</ele>
        <time>2022-09-06T06:53:37.525Z</time>
      </trkpt>
      <trkpt lat="45.69386" lon="5.80826">
        <ele>312</ele>
        <time>2022-09-06T06:53:38.525Z</time>
      </trkpt>
      <trkpt lat="45.69384" lon="5.80831">
        <ele>313</ele>
        <time>2022-09-06T06:53:39.525Z</time>
      </trkpt>
      <trkpt lat="45.6938" lon="5.80837">
        <ele>313</ele>
        <time>2022-09-06T06:53:40.525Z</time>
      </trkpt>
      <trkpt lat="45.69376" lon="5.80844">
        <ele>313</ele>
        <time>2022-09-06T06:53:41.525Z</time>
      </trkpt>
      <trkpt lat="45.69374" lon="5.80849">
        <ele>312</ele>
        <time>2022-09-06T06:53:42.525Z</time>
      </trkpt>
      <trkpt lat="45.69371" lon="5.80855">
        <ele>312</ele>
        <time>2022-09-06T06:53:43.525Z</time>
      </trkpt>
      <trkpt lat="45.69367" lon="5.80862">
        <ele>311</ele>
        <time>2022-09-06T06:53:44.525Z</time>
      </trkpt>
      <trkpt lat="45.69364" lon="5.80868">
        <ele>311</ele>
        <time>2022-09-06T06:53:45.525Z</time>
      </trkpt>
      <trkpt lat="45.69361" lon="5.80874">
        <ele>312</ele>
        <time>2022-09-06T06:53:46.525Z</time>
      </trkpt>
      <trkpt lat="45.69357" lon="5.80882">
        <ele>312</ele>
        <time>2022-09-06T06:53:47.525Z</time>
      </trkpt>
      <trkpt lat="45.69355" lon="5.80887">
        <ele>313</ele>
        <time>2022-09-06T06:53:48.525Z</time>
      </trkpt>
      <trkpt lat="45.69351" lon="5.80893">
        <ele>313</ele>
        <time>2022-09-06T06:53:49.525Z</time>
      </trkpt>
      <trkpt lat="45.69348" lon="5.80898">
        <ele>313</ele>
        <time>2022-09-06T06:53:50.525Z</time>
      </trkpt>
      <trkpt lat="45.69345" lon="5.80904">
        <ele>313</ele>
        <time>2022-09-06T06:53:51.525Z</time>
      </trkpt>
      <trkpt lat="45.69341" lon="5.8091">
        <ele>313</ele>
        <time>2022-09-06T06:53:52.524Z</time>
      </trkpt>
      <trkpt lat="45.69338" lon="5.80917">
        <ele>313</ele>
        <time>2022-09-06T06:53:53.525Z</time>
      </trkpt>
      <trkpt lat="45.69335" lon="5.80923">
        <ele>313</ele>
        <time>2022-09-06T06:53:54.525Z</time>
      </trkpt>
      <trkpt lat="45.69332" lon="5.80929">
        <ele>314</ele>
        <time>2022-09-06T06:53:55.524Z</time>
      </trkpt>
      <trkpt lat="45.69329" lon="5.80935">
        <ele>314</ele>
        <time>2022-09-06T06:53:56.525Z</time>
      </trkpt>
      <trkpt lat="45.69325" lon="5.80941">
        <ele>315</ele>
        <time>2022-09-06T06:53:57.525Z</time>
      </trkpt>
      <trkpt lat="45.69322" lon="5.80948">
        <ele>316</ele>
        <time>2022-09-06T06:53:58.525Z</time>
      </trkpt>
      <trkpt lat="45.69319" lon="5.80954">
        <ele>316</ele>
        <time>2022-09-06T06:53:59.525Z</time>
      </trkpt>
      <trkpt lat="45.69315" lon="5.80961">
        <ele>317</ele>
        <time>2022-09-06T06:54:00.525Z</time>
      </trkpt>
      <trkpt lat="45.69311" lon="5.80967">
        <ele>317</ele>
        <time>2022-09-06T06:54:01.525Z</time>
      </trkpt>
      <trkpt lat="45.69308" lon="5.80974">
        <ele>317</ele>
        <time>2022-09-06T06:54:02.525Z</time>
      </trkpt>
      <trkpt lat="45.69304" lon="5.8098">
        <ele>317</ele>
        <time>2022-09-06T06:54:03.525Z</time>
      </trkpt>
      <trkpt lat="45.69301" lon="5.80987">
        <ele>317</ele>
        <time>2022-09-06T06:54:04.525Z</time>
      </trkpt>
      <trkpt lat="45.69298" lon="5.80993">
        <ele>317</ele>
        <time>2022-09-06T06:54:05.524Z</time>
      </trkpt>
      <trkpt lat="45.69294" lon="5.81001">
        <ele>317</ele>
        <time>2022-09-06T06:54:06.525Z</time>
      </trkpt>
      <trkpt lat="45.69291" lon="5.81008">
        <ele>317</ele>
        <time>2022-09-06T06:54:07.524Z</time>
      </trkpt>
      <trkpt lat="45.69287" lon="5.81014">
        <ele>317</ele>
        <time>2022-09-06T06:54:08.524Z</time>
      </trkpt>
      <trkpt lat="45.69285" lon="5.8102">
        <ele>317</ele>
        <time>2022-09-06T06:54:09.525Z</time>
      </trkpt>
      <trkpt lat="45.69281" lon="5.81026">
        <ele>318</ele>
        <time>2022-09-06T06:54:10.525Z</time>
      </trkpt>
      <trkpt lat="45.69277" lon="5.81033">
        <ele>318</ele>
        <time>2022-09-06T06:54:11.525Z</time>
      </trkpt>
      <trkpt lat="45.69273" lon="5.81041">
        <ele>318</ele>
        <time>2022-09-06T06:54:12.525Z</time>
      </trkpt>
      <trkpt lat="45.69269" lon="5.81048">
        <ele>318</ele>
        <time>2022-09-06T06:54:13.525Z</time>
      </trkpt>
      <trkpt lat="45.69266" lon="5.81053">
        <ele>317</ele>
        <time>2022-09-06T06:54:14.525Z</time>
      </trkpt>
      <trkpt lat="45.69263" lon="5.8106">
        <ele>317</ele>
        <time>2022-09-06T06:54:15.525Z</time>
      </trkpt>
      <trkpt lat="45.69258" lon="5.81068">
        <ele>317</ele>
        <time>2022-09-06T06:54:16.525Z</time>
      </trkpt>
      <trkpt lat="45.69255" lon="5.81075">
        <ele>317</ele>
        <time>2022-09-06T06:54:17.525Z</time>
      </trkpt>
      <trkpt lat="45.69252" lon="5.81081">
        <ele>317</ele>
        <time>2022-09-06T06:54:18.524Z</time>
      </trkpt>
      <trkpt lat="45.69248" lon="5.81087">
        <ele>317</ele>
        <time>2022-09-06T06:54:19.525Z</time>
      </trkpt>
      <trkpt lat="45.69245" lon="5.81094">
        <ele>317</ele>
        <time>2022-09-06T06:54:20.524Z</time>
      </trkpt>
      <trkpt lat="45.69241" lon="5.81103">
        <ele>317</ele>
        <time>2022-09-06T06:54:21.525Z</time>
      </trkpt>
      <trkpt lat="45.69237" lon="5.8111">
        <ele>317</ele>
        <time>2022-09-06T06:54:22.525Z</time>
      </trkpt>
      <trkpt lat="45.69233" lon="5.81117">
        <ele>317</ele>
        <time>2022-09-06T06:54:23.525Z</time>
      </trkpt>
      <trkpt lat="45.69231" lon="5.81123">
        <ele>317</ele>
        <time>2022-09-06T06:54:24.525Z</time>
      </trkpt>
      <trkpt lat="45.69226" lon="5.81132">
        <ele>317</ele>
        <time>2022-09-06T06:54:25.525Z</time>
      </trkpt>
      <trkpt lat="45.69222" lon="5.81139">
        <ele>317</ele>
        <time>2022-09-06T06:54:26.525Z</time>
      </trkpt>
      <trkpt lat="45.69218" lon="5.81146">
        <ele>317</ele>
        <time>2022-09-06T06:54:27.525Z</time>
      </trkpt>
      <trkpt lat="45.69216" lon="5.81152">
        <ele>316</ele>
        <time>2022-09-06T06:54:28.525Z</time>
      </trkpt>
      <trkpt lat="45.69212" lon="5.81159">
        <ele>316</ele>
        <time>2022-09-06T06:54:29.524Z</time>
      </trkpt>
      <trkpt lat="45.69208" lon="5.81166">
        <ele>316</ele>
        <time>2022-09-06T06:54:30.525Z</time>
      </trkpt>
      <trkpt lat="45.69203" lon="5.81175">
        <ele>316</ele>
        <time>2022-09-06T06:54:31.524Z</time>
      </trkpt>
      <trkpt lat="45.69199" lon="5.81182">
        <ele>317</ele>
        <time>2022-09-06T06:54:32.525Z</time>
      </trkpt>
      <trkpt lat="45.69196" lon="5.81189">
        <ele>317</ele>
        <time>2022-09-06T06:54:33.525Z</time>
      </trkpt>
      <trkpt lat="45.69191" lon="5.81198">
        <ele>318</ele>
        <time>2022-09-06T06:54:34.525Z</time>
      </trkpt>
      <trkpt lat="45.69187" lon="5.81206">
        <ele>318</ele>
        <time>2022-09-06T06:54:35.525Z</time>
      </trkpt>
      <trkpt lat="45.69184" lon="5.81212">
        <ele>319</ele>
        <time>2022-09-06T06:54:36.525Z</time>
      </trkpt>
      <trkpt lat="45.6918" lon="5.81219">
        <ele>320</ele>
        <time>2022-09-06T06:54:37.525Z</time>
      </trkpt>
      <trkpt lat="45.69177" lon="5.81227">
        <ele>320</ele>
        <time>2022-09-06T06:54:38.525Z</time>
      </trkpt>
      <trkpt lat="45.69173" lon="5.81235">
        <ele>321</ele>
        <time>2022-09-06T06:54:39.524Z</time>
      </trkpt>
      <trkpt lat="45.69169" lon="5.81242">
        <ele>321</ele>
        <time>2022-09-06T06:54:40.524Z</time>
      </trkpt>
      <trkpt lat="45.69164" lon="5.81251">
        <ele>322</ele>
        <time>2022-09-06T06:54:41.525Z</time>
      </trkpt>
      <trkpt lat="45.6916" lon="5.81259">
        <ele>323</ele>
        <time>2022-09-06T06:54:42.525Z</time>
      </trkpt>
      <trkpt lat="45.69157" lon="5.81265">
        <ele>323</ele>
        <time>2022-09-06T06:54:43.525Z</time>
      </trkpt>
      <trkpt lat="45.69153" lon="5.81273">
        <ele>324</ele>
        <time>2022-09-06T06:54:44.525Z</time>
      </trkpt>
      <trkpt lat="45.69149" lon="5.8128">
        <ele>324</ele>
        <time>2022-09-06T06:54:45.525Z</time>
      </trkpt>
      <trkpt lat="45.69145" lon="5.81288">
        <ele>324</ele>
        <time>2022-09-06T06:54:46.525Z</time>
      </trkpt>
      <trkpt lat="45.69141" lon="5.81296">
        <ele>325</ele>
        <time>2022-09-06T06:54:47.525Z</time>
      </trkpt>
      <trkpt lat="45.69137" lon="5.81304">
        <ele>325</ele>
        <time>2022-09-06T06:54:48.525Z</time>
      </trkpt>
      <trkpt lat="45.69133" lon="5.81312">
        <ele>326</ele>
        <time>2022-09-06T06:54:49.525Z</time>
      </trkpt>
      <trkpt lat="45.6913" lon="5.81319">
        <ele>327</ele>
        <time>2022-09-06T06:54:50.525Z</time>
      </trkpt>
      <trkpt lat="45.69126" lon="5.81327">
        <ele>328</ele>
        <time>2022-09-06T06:54:51.525Z</time>
      </trkpt>
      <trkpt lat="45.69122" lon="5.81334">
        <ele>328</ele>
        <time>2022-09-06T06:54:52.525Z</time>
      </trkpt>
      <trkpt lat="45.69118" lon="5.81341">
        <ele>328</ele>
        <time>2022-09-06T06:54:53.524Z</time>
      </trkpt>
      <trkpt lat="45.69114" lon="5.81349">
        <ele>328</ele>
        <time>2022-09-06T06:54:54.525Z</time>
      </trkpt>
      <trkpt lat="45.6911" lon="5.81356">
        <ele>328</ele>
        <time>2022-09-06T06:54:55.525Z</time>
      </trkpt>
      <trkpt lat="45.69106" lon="5.81364">
        <ele>327</ele>
        <time>2022-09-06T06:54:56.524Z</time>
      </trkpt>
      <trkpt lat="45.69102" lon="5.81371">
        <ele>327</ele>
        <time>2022-09-06T06:54:57.524Z</time>
      </trkpt>
      <trkpt lat="45.69098" lon="5.81379">
        <ele>327</ele>
        <time>2022-09-06T06:54:58.525Z</time>
      </trkpt>
      <trkpt lat="45.69094" lon="5.81386">
        <ele>327</ele>
        <time>2022-09-06T06:54:59.525Z</time>
      </trkpt>
      <trkpt lat="45.6909" lon="5.81394">
        <ele>326</ele>
        <time>2022-09-06T06:55:00.525Z</time>
      </trkpt>
      <trkpt lat="45.69087" lon="5.81402">
        <ele>326</ele>
        <time>2022-09-06T06:55:01.525Z</time>
      </trkpt>
      <trkpt lat="45.69083" lon="5.8141">
        <ele>326</ele>
        <time>2022-09-06T06:55:02.524Z</time>
      </trkpt>
      <trkpt lat="45.69079" lon="5.81417">
        <ele>326</ele>
        <time>2022-09-06T06:55:03.524Z</time>
      </trkpt>
      <trkpt lat="45.69075" lon="5.81425">
        <ele>327</ele>
        <time>2022-09-06T06:55:04.524Z</time>
      </trkpt>
      <trkpt lat="45.69072" lon="5.81432">
        <ele>328</ele>
        <time>2022-09-06T06:55:05.525Z</time>
      </trkpt>
      <trkpt lat="45.69069" lon="5.8144">
        <ele>329</ele>
        <time>2022-09-06T06:55:06.525Z</time>
      </trkpt>
      <trkpt lat="45.69065" lon="5.81447">
        <ele>329</ele>
        <time>2022-09-06T06:55:07.525Z</time>
      </trkpt>
      <trkpt lat="45.69061" lon="5.81454">
        <ele>329</ele>
        <time>2022-09-06T06:55:08.524Z</time>
      </trkpt>
      <trkpt lat="45.69057" lon="5.81462">
        <ele>328</ele>
        <time>2022-09-06T06:55:09.525Z</time>
      </trkpt>
      <trkpt lat="45.69052" lon="5.8147">
        <ele>328</ele>
        <time>2022-09-06T06:55:10.525Z</time>
      </trkpt>
      <trkpt lat="45.69048" lon="5.81478">
        <ele>328</ele>
        <time>2022-09-06T06:55:11.525Z</time>
      </trkpt>
      <trkpt lat="45.69045" lon="5.81484">
        <ele>327</ele>
        <time>2022-09-06T06:55:12.525Z</time>
      </trkpt>
      <trkpt lat="45.69042" lon="5.81491">
        <ele>327</ele>
        <time>2022-09-06T06:55:13.525Z</time>
      </trkpt>
      <trkpt lat="45.69039" lon="5.81499">
        <ele>327</ele>
        <time>2022-09-06T06:55:14.524Z</time>
      </trkpt>
      <trkpt lat="45.69036" lon="5.81507">
        <ele>327</ele>
        <time>2022-09-06T06:55:15.525Z</time>
      </trkpt>
      <trkpt lat="45.69034" lon="5.81515">
        <ele>327</ele>
        <time>2022-09-06T06:55:16.525Z</time>
      </trkpt>
      <trkpt lat="45.69032" lon="5.81523">
        <ele>328</ele>
        <time>2022-09-06T06:55:17.525Z</time>
      </trkpt>
      <trkpt lat="45.6903" lon="5.81531">
        <ele>328</ele>
        <time>2022-09-06T06:55:18.525Z</time>
      </trkpt>
      <trkpt lat="45.69026" lon="5.81538">
        <ele>327</ele>
        <time>2022-09-06T06:55:19.525Z</time>
      </trkpt>
      <trkpt lat="45.69024" lon="5.81545">
        <ele>327</ele>
        <time>2022-09-06T06:55:20.525Z</time>
      </trkpt>
      <trkpt lat="45.69023" lon="5.81553">
        <ele>326</ele>
        <time>2022-09-06T06:55:21.525Z</time>
      </trkpt>
      <trkpt lat="45.69023" lon="5.81561">
        <ele>326</ele>
        <time>2022-09-06T06:55:22.525Z</time>
      </trkpt>
      <trkpt lat="45.69023" lon="5.8157">
        <ele>325</ele>
        <time>2022-09-06T06:55:23.525Z</time>
      </trkpt>
      <trkpt lat="45.69023" lon="5.81578">
        <ele>325</ele>
        <time>2022-09-06T06:55:24.525Z</time>
      </trkpt>
      <trkpt lat="45.69024" lon="5.81586">
        <ele>325</ele>
        <time>2022-09-06T06:55:25.525Z</time>
      </trkpt>
      <trkpt lat="45.69025" lon="5.81595">
        <ele>325</ele>
        <time>2022-09-06T06:55:26.525Z</time>
      </trkpt>
      <trkpt lat="45.69025" lon="5.81603">
        <ele>325</ele>
        <time>2022-09-06T06:55:27.525Z</time>
      </trkpt>
      <trkpt lat="45.69027" lon="5.8161">
        <ele>325</ele>
        <time>2022-09-06T06:55:28.525Z</time>
      </trkpt>
      <trkpt lat="45.69028" lon="5.81618">
        <ele>325</ele>
        <time>2022-09-06T06:55:29.525Z</time>
      </trkpt>
      <trkpt lat="45.6903" lon="5.81625">
        <ele>325</ele>
        <time>2022-09-06T06:55:30.525Z</time>
      </trkpt>
      <trkpt lat="45.69032" lon="5.81634">
        <ele>326</ele>
        <time>2022-09-06T06:55:31.525Z</time>
      </trkpt>
      <trkpt lat="45.69033" lon="5.81641">
        <ele>326</ele>
        <time>2022-09-06T06:55:32.525Z</time>
      </trkpt>
      <trkpt lat="45.69035" lon="5.81648">
        <ele>326</ele>
        <time>2022-09-06T06:55:33.525Z</time>
      </trkpt>
      <trkpt lat="45.69036" lon="5.81656">
        <ele>326</ele>
        <time>2022-09-06T06:55:34.525Z</time>
      </trkpt>
      <trkpt lat="45.69038" lon="5.81664">
        <ele>325</ele>
        <time>2022-09-06T06:55:35.525Z</time>
      </trkpt>
      <trkpt lat="45.69039" lon="5.81672">
        <ele>325</ele>
        <time>2022-09-06T06:55:36.524Z</time>
      </trkpt>
      <trkpt lat="45.69041" lon="5.8168">
        <ele>326</ele>
        <time>2022-09-06T06:55:37.525Z</time>
      </trkpt>
      <trkpt lat="45.69042" lon="5.81688">
        <ele>326</ele>
        <time>2022-09-06T06:55:38.525Z</time>
      </trkpt>
      <trkpt lat="45.69043" lon="5.81696">
        <ele>326</ele>
        <time>2022-09-06T06:55:39.525Z</time>
      </trkpt>
      <trkpt lat="45.69045" lon="5.81704">
        <ele>326</ele>
        <time>2022-09-06T06:55:40.525Z</time>
      </trkpt>
      <trkpt lat="45.69046" lon="5.81712">
        <ele>326</ele>
        <time>2022-09-06T06:55:41.525Z</time>
      </trkpt>
      <trkpt lat="45.69047" lon="5.8172">
        <ele>326</ele>
        <time>2022-09-06T06:55:42.524Z</time>
      </trkpt>
      <trkpt lat="45.69049" lon="5.81729">
        <ele>326</ele>
        <time>2022-09-06T06:55:43.525Z</time>
      </trkpt>
      <trkpt lat="45.6905" lon="5.81739">
        <ele>326</ele>
        <time>2022-09-06T06:55:44.524Z</time>
      </trkpt>
      <trkpt lat="45.69051" lon="5.81746">
        <ele>326</ele>
        <time>2022-09-06T06:55:45.525Z</time>
      </trkpt>
      <trkpt lat="45.69052" lon="5.81754">
        <ele>326</ele>
        <time>2022-09-06T06:55:46.525Z</time>
      </trkpt>
      <trkpt lat="45.69054" lon="5.81763">
        <ele>326</ele>
        <time>2022-09-06T06:55:47.525Z</time>
      </trkpt>
      <trkpt lat="45.69055" lon="5.81771">
        <ele>326</ele>
        <time>2022-09-06T06:55:48.524Z</time>
      </trkpt>
      <trkpt lat="45.69057" lon="5.81781">
        <ele>326</ele>
        <time>2022-09-06T06:55:49.524Z</time>
      </trkpt>
      <trkpt lat="45.69058" lon="5.81788">
        <ele>326</ele>
        <time>2022-09-06T06:55:50.525Z</time>
      </trkpt>
      <trkpt lat="45.69059" lon="5.81796">
        <ele>326</ele>
        <time>2022-09-06T06:55:51.525Z</time>
      </trkpt>
      <trkpt lat="45.6906" lon="5.81804">
        <ele>327</ele>
        <time>2022-09-06T06:55:52.525Z</time>
      </trkpt>
      <trkpt lat="45.69061" lon="5.81812">
        <ele>327</ele>
        <time>2022-09-06T06:55:53.525Z</time>
      </trkpt>
      <trkpt lat="45.69062" lon="5.8182">
        <ele>327</ele>
        <time>2022-09-06T06:55:54.524Z</time>
      </trkpt>
      <trkpt lat="45.69063" lon="5.81828">
        <ele>328</ele>
        <time>2022-09-06T06:55:55.525Z</time>
      </trkpt>
      <trkpt lat="45.69063" lon="5.81836">
        <ele>328</ele>
        <time>2022-09-06T06:55:56.525Z</time>
      </trkpt>
      <trkpt lat="45.69064" lon="5.81844">
        <ele>328</ele>
        <time>2022-09-06T06:55:57.525Z</time>
      </trkpt>
      <trkpt lat="45.69063" lon="5.81852">
        <ele>328</ele>
        <time>2022-09-06T06:55:58.525Z</time>
      </trkpt>
      <trkpt lat="45.69063" lon="5.81859">
        <ele>329</ele>
        <time>2022-09-06T06:55:59.524Z</time>
      </trkpt>
      <trkpt lat="45.69062" lon="5.81867">
        <ele>330</ele>
        <time>2022-09-06T06:56:00.525Z</time>
      </trkpt>
      <trkpt lat="45.69062" lon="5.81875">
        <ele>331</ele>
        <time>2022-09-06T06:56:01.525Z</time>
      </trkpt>
      <trkpt lat="45.69061" lon="5.81882">
        <ele>332</ele>
        <time>2022-09-06T06:56:02.525Z</time>
      </trkpt>
      <trkpt lat="45.6906" lon="5.8189">
        <ele>332</ele>
        <time>2022-09-06T06:56:03.525Z</time>
      </trkpt>
      <trkpt lat="45.69059" lon="5.81897">
        <ele>333</ele>
        <time>2022-09-06T06:56:04.525Z</time>
      </trkpt>
      <trkpt lat="45.69059" lon="5.81903">
        <ele>333</ele>
        <time>2022-09-06T06:56:05.524Z</time>
      </trkpt>
      <trkpt lat="45.69058" lon="5.8191">
        <ele>333</ele>
        <time>2022-09-06T06:56:06.524Z</time>
      </trkpt>
      <trkpt lat="45.69057" lon="5.81917">
        <ele>333</ele>
        <time>2022-09-06T06:56:07.525Z</time>
      </trkpt>
      <trkpt lat="45.69056" lon="5.81923">
        <ele>333</ele>
        <time>2022-09-06T06:56:08.525Z</time>
      </trkpt>
      <trkpt lat="45.69054" lon="5.8193">
        <ele>333</ele>
        <time>2022-09-06T06:56:09.525Z</time>
      </trkpt>
      <trkpt lat="45.69053" lon="5.81938">
        <ele>333</ele>
        <time>2022-09-06T06:56:10.524Z</time>
      </trkpt>
      <trkpt lat="45.69052" lon="5.81943">
        <ele>333</ele>
        <time>2022-09-06T06:56:11.525Z</time>
      </trkpt>
      <trkpt lat="45.6905" lon="5.81949">
        <ele>333</ele>
        <time>2022-09-06T06:56:12.524Z</time>
      </trkpt>
      <trkpt lat="45.69047" lon="5.81955">
        <ele>333</ele>
        <time>2022-09-06T06:56:13.525Z</time>
      </trkpt>
      <trkpt lat="45.69045" lon="5.81961">
        <ele>333</ele>
        <time>2022-09-06T06:56:14.525Z</time>
      </trkpt>
      <trkpt lat="45.69043" lon="5.81966">
        <ele>332</ele>
        <time>2022-09-06T06:56:15.525Z</time>
      </trkpt>
      <trkpt lat="45.69041" lon="5.81971">
        <ele>332</ele>
        <time>2022-09-06T06:56:16.525Z</time>
      </trkpt>
      <trkpt lat="45.69038" lon="5.81976">
        <ele>331</ele>
        <time>2022-09-06T06:56:17.525Z</time>
      </trkpt>
      <trkpt lat="45.69036" lon="5.8198">
        <ele>331</ele>
        <time>2022-09-06T06:56:18.525Z</time>
      </trkpt>
      <trkpt lat="45.69033" lon="5.81985">
        <ele>331</ele>
        <time>2022-09-06T06:56:19.524Z</time>
      </trkpt>
      <trkpt lat="45.69031" lon="5.8199">
        <ele>331</ele>
        <time>2022-09-06T06:56:20.525Z</time>
      </trkpt>
      <trkpt lat="45.69028" lon="5.81995">
        <ele>331</ele>
        <time>2022-09-06T06:56:21.525Z</time>
      </trkpt>
      <trkpt lat="45.69025" lon="5.82">
        <ele>332</ele>
        <time>2022-09-06T06:56:22.525Z</time>
      </trkpt>
      <trkpt lat="45.69022" lon="5.82005">
        <ele>333</ele>
        <time>2022-09-06T06:56:23.525Z</time>
      </trkpt>
      <trkpt lat="45.69019" lon="5.82011">
        <ele>334</ele>
        <time>2022-09-06T06:56:24.525Z</time>
      </trkpt>
      <trkpt lat="45.69017" lon="5.82016">
        <ele>334</ele>
        <time>2022-09-06T06:56:25.525Z</time>
      </trkpt>
      <trkpt lat="45.69014" lon="5.82021">
        <ele>335</ele>
        <time>2022-09-06T06:56:26.525Z</time>
      </trkpt>
      <trkpt lat="45.69011" lon="5.82027">
        <ele>336</ele>
        <time>2022-09-06T06:56:27.525Z</time>
      </trkpt>
      <trkpt lat="45.69008" lon="5.82032">
        <ele>336</ele>
        <time>2022-09-06T06:56:28.525Z</time>
      </trkpt>
      <trkpt lat="45.69005" lon="5.82038">
        <ele>337</ele>
        <time>2022-09-06T06:56:29.525Z</time>
      </trkpt>
      <trkpt lat="45.69003" lon="5.82044">
        <ele>338</ele>
        <time>2022-09-06T06:56:30.525Z</time>
      </trkpt>
      <trkpt lat="45.69001" lon="5.8205">
        <ele>338</ele>
        <time>2022-09-06T06:56:31.525Z</time>
      </trkpt>
      <trkpt lat="45.68998" lon="5.82056">
        <ele>338</ele>
        <time>2022-09-06T06:56:32.525Z</time>
      </trkpt>
      <trkpt lat="45.68996" lon="5.82062">
        <ele>338</ele>
        <time>2022-09-06T06:56:33.524Z</time>
      </trkpt>
      <trkpt lat="45.68993" lon="5.82068">
        <ele>338</ele>
        <time>2022-09-06T06:56:34.525Z</time>
      </trkpt>
      <trkpt lat="45.6899" lon="5.82075">
        <ele>339</ele>
        <time>2022-09-06T06:56:35.524Z</time>
      </trkpt>
      <trkpt lat="45.68988" lon="5.8208">
        <ele>338</ele>
        <time>2022-09-06T06:56:36.525Z</time>
      </trkpt>
      <trkpt lat="45.68985" lon="5.82086">
        <ele>338</ele>
        <time>2022-09-06T06:56:37.525Z</time>
      </trkpt>
      <trkpt lat="45.68982" lon="5.82092">
        <ele>338</ele>
        <time>2022-09-06T06:56:38.525Z</time>
      </trkpt>
      <trkpt lat="45.6898" lon="5.82097">
        <ele>338</ele>
        <time>2022-09-06T06:56:39.525Z</time>
      </trkpt>
      <trkpt lat="45.68977" lon="5.82102">
        <ele>339</ele>
        <time>2022-09-06T06:56:40.525Z</time>
      </trkpt>
      <trkpt lat="45.68975" lon="5.82108">
        <ele>339</ele>
        <time>2022-09-06T06:56:41.525Z</time>
      </trkpt>
      <trkpt lat="45.68973" lon="5.82113">
        <ele>340</ele>
        <time>2022-09-06T06:56:42.524Z</time>
      </trkpt>
      <trkpt lat="45.6897" lon="5.82118">
        <ele>341</ele>
        <time>2022-09-06T06:56:43.525Z</time>
      </trkpt>
      <trkpt lat="45.68968" lon="5.82123">
        <ele>341</ele>
        <time>2022-09-06T06:56:44.525Z</time>
      </trkpt>
      <trkpt lat="45.68965" lon="5.82128">
        <ele>341</ele>
        <time>2022-09-06T06:56:45.525Z</time>
      </trkpt>
      <trkpt lat="45.68963" lon="5.82133">
        <ele>341</ele>
        <time>2022-09-06T06:56:46.525Z</time>
      </trkpt>
      <trkpt lat="45.6896" lon="5.82138">
        <ele>342</ele>
        <time>2022-09-06T06:56:47.525Z</time>
      </trkpt>
      <trkpt lat="45.68957" lon="5.82143">
        <ele>342</ele>
        <time>2022-09-06T06:56:48.525Z</time>
      </trkpt>
      <trkpt lat="45.68954" lon="5.82148">
        <ele>342</ele>
        <time>2022-09-06T06:56:49.525Z</time>
      </trkpt>
      <trkpt lat="45.68952" lon="5.82152">
        <ele>342</ele>
        <time>2022-09-06T06:56:50.524Z</time>
      </trkpt>
      <trkpt lat="45.6895" lon="5.82158">
        <ele>343</ele>
        <time>2022-09-06T06:56:51.525Z</time>
      </trkpt>
      <trkpt lat="45.68947" lon="5.82161">
        <ele>343</ele>
        <time>2022-09-06T06:56:52.524Z</time>
      </trkpt>
      <trkpt lat="45.68945" lon="5.82167">
        <ele>344</ele>
        <time>2022-09-06T06:56:53.524Z</time>
      </trkpt>
      <trkpt lat="45.68942" lon="5.82172">
        <ele>345</ele>
        <time>2022-09-06T06:56:54.524Z</time>
      </trkpt>
      <trkpt lat="45.6894" lon="5.82175">
        <ele>346</ele>
        <time>2022-09-06T06:56:55.524Z</time>
      </trkpt>
      <trkpt lat="45.68938" lon="5.8218">
        <ele>346</ele>
        <time>2022-09-06T06:56:56.525Z</time>
      </trkpt>
      <trkpt lat="45.68936" lon="5.82185">
        <ele>347</ele>
        <time>2022-09-06T06:56:57.525Z</time>
      </trkpt>
      <trkpt lat="45.68933" lon="5.82191">
        <ele>348</ele>
        <time>2022-09-06T06:56:58.525Z</time>
      </trkpt>
      <trkpt lat="45.68931" lon="5.82195">
        <ele>348</ele>
        <time>2022-09-06T06:56:59.525Z</time>
      </trkpt>
      <trkpt lat="45.68929" lon="5.82199">
        <ele>349</ele>
        <time>2022-09-06T06:57:00.525Z</time>
      </trkpt>
      <trkpt lat="45.68927" lon="5.82204">
        <ele>349</ele>
        <time>2022-09-06T06:57:01.524Z</time>
      </trkpt>
      <trkpt lat="45.68924" lon="5.8221">
        <ele>350</ele>
        <time>2022-09-06T06:57:02.525Z</time>
      </trkpt>
      <trkpt lat="45.68921" lon="5.82215">
        <ele>350</ele>
        <time>2022-09-06T06:57:03.525Z</time>
      </trkpt>
      <trkpt lat="45.68918" lon="5.82219">
        <ele>350</ele>
        <time>2022-09-06T06:57:04.525Z</time>
      </trkpt>
      <trkpt lat="45.68915" lon="5.82224">
        <ele>350</ele>
        <time>2022-09-06T06:57:05.525Z</time>
      </trkpt>
      <trkpt lat="45.68913" lon="5.82228">
        <ele>350</ele>
        <time>2022-09-06T06:57:06.525Z</time>
      </trkpt>
      <trkpt lat="45.6891" lon="5.82233">
        <ele>350</ele>
        <time>2022-09-06T06:57:07.525Z</time>
      </trkpt>
      <trkpt lat="45.68908" lon="5.82238">
        <ele>350</ele>
        <time>2022-09-06T06:57:08.525Z</time>
      </trkpt>
      <trkpt lat="45.68905" lon="5.82243">
        <ele>350</ele>
        <time>2022-09-06T06:57:09.525Z</time>
      </trkpt>
      <trkpt lat="45.68903" lon="5.82249">
        <ele>350</ele>
        <time>2022-09-06T06:57:10.525Z</time>
      </trkpt>
      <trkpt lat="45.68901" lon="5.82254">
        <ele>351</ele>
        <time>2022-09-06T06:57:11.524Z</time>
      </trkpt>
      <trkpt lat="45.68899" lon="5.82259">
        <ele>351</ele>
        <time>2022-09-06T06:57:12.525Z</time>
      </trkpt>
      <trkpt lat="45.68897" lon="5.82264">
        <ele>352</ele>
        <time>2022-09-06T06:57:13.525Z</time>
      </trkpt>
      <trkpt lat="45.68895" lon="5.82269">
        <ele>352</ele>
        <time>2022-09-06T06:57:14.525Z</time>
      </trkpt>
      <trkpt lat="45.68893" lon="5.82274">
        <ele>352</ele>
        <time>2022-09-06T06:57:15.525Z</time>
      </trkpt>
      <trkpt lat="45.68892" lon="5.8228">
        <ele>352</ele>
        <time>2022-09-06T06:57:16.524Z</time>
      </trkpt>
      <trkpt lat="45.6889" lon="5.82285">
        <ele>352</ele>
        <time>2022-09-06T06:57:17.525Z</time>
      </trkpt>
      <trkpt lat="45.68889" lon="5.82291">
        <ele>352</ele>
        <time>2022-09-06T06:57:18.525Z</time>
      </trkpt>
      <trkpt lat="45.68887" lon="5.82296">
        <ele>352</ele>
        <time>2022-09-06T06:57:19.524Z</time>
      </trkpt>
      <trkpt lat="45.68885" lon="5.82302">
        <ele>353</ele>
        <time>2022-09-06T06:57:20.525Z</time>
      </trkpt>
      <trkpt lat="45.68883" lon="5.82307">
        <ele>353</ele>
        <time>2022-09-06T06:57:21.525Z</time>
      </trkpt>
      <trkpt lat="45.68881" lon="5.82313">
        <ele>352</ele>
        <time>2022-09-06T06:57:22.525Z</time>
      </trkpt>
      <trkpt lat="45.6888" lon="5.82319">
        <ele>352</ele>
        <time>2022-09-06T06:57:23.525Z</time>
      </trkpt>
      <trkpt lat="45.68878" lon="5.82325">
        <ele>352</ele>
        <time>2022-09-06T06:57:24.525Z</time>
      </trkpt>
      <trkpt lat="45.68878" lon="5.82331">
        <ele>352</ele>
        <time>2022-09-06T06:57:25.525Z</time>
      </trkpt>
      <trkpt lat="45.68877" lon="5.82337">
        <ele>353</ele>
        <time>2022-09-06T06:57:26.525Z</time>
      </trkpt>
      <trkpt lat="45.68877" lon="5.82343">
        <ele>353</ele>
        <time>2022-09-06T06:57:27.525Z</time>
      </trkpt>
      <trkpt lat="45.68878" lon="5.8235">
        <ele>353</ele>
        <time>2022-09-06T06:57:28.525Z</time>
      </trkpt>
      <trkpt lat="45.68878" lon="5.82356">
        <ele>353</ele>
        <time>2022-09-06T06:57:29.525Z</time>
      </trkpt>
      <trkpt lat="45.68879" lon="5.82362">
        <ele>353</ele>
        <time>2022-09-06T06:57:30.524Z</time>
      </trkpt>
      <trkpt lat="45.68879" lon="5.82369">
        <ele>353</ele>
        <time>2022-09-06T06:57:31.525Z</time>
      </trkpt>
      <trkpt lat="45.68881" lon="5.82375">
        <ele>353</ele>
        <time>2022-09-06T06:57:32.525Z</time>
      </trkpt>
      <trkpt lat="45.68882" lon="5.82381">
        <ele>354</ele>
        <time>2022-09-06T06:57:33.524Z</time>
      </trkpt>
      <trkpt lat="45.68883" lon="5.82387">
        <ele>354</ele>
        <time>2022-09-06T06:57:34.524Z</time>
      </trkpt>
      <trkpt lat="45.68884" lon="5.82393">
        <ele>354</ele>
        <time>2022-09-06T06:57:35.525Z</time>
      </trkpt>
      <trkpt lat="45.68886" lon="5.82398">
        <ele>354</ele>
        <time>2022-09-06T06:57:36.525Z</time>
      </trkpt>
      <trkpt lat="45.68887" lon="5.82404">
        <ele>354</ele>
        <time>2022-09-06T06:57:37.525Z</time>
      </trkpt>
      <trkpt lat="45.68889" lon="5.8241">
        <ele>354</ele>
        <time>2022-09-06T06:57:38.525Z</time>
      </trkpt>
      <trkpt lat="45.6889" lon="5.82416">
        <ele>354</ele>
        <time>2022-09-06T06:57:39.525Z</time>
      </trkpt>
      <trkpt lat="45.68891" lon="5.82422">
        <ele>354</ele>
        <time>2022-09-06T06:57:40.525Z</time>
      </trkpt>
      <trkpt lat="45.68893" lon="5.82428">
        <ele>354</ele>
        <time>2022-09-06T06:57:41.525Z</time>
      </trkpt>
      <trkpt lat="45.68894" lon="5.82435">
        <ele>354</ele>
        <time>2022-09-06T06:57:42.525Z</time>
      </trkpt>
      <trkpt lat="45.68895" lon="5.8244">
        <ele>354</ele>
        <time>2022-09-06T06:57:43.525Z</time>
      </trkpt>
      <trkpt lat="45.68897" lon="5.82447">
        <ele>355</ele>
        <time>2022-09-06T06:57:44.525Z</time>
      </trkpt>
      <trkpt lat="45.68898" lon="5.82452">
        <ele>355</ele>
        <time>2022-09-06T06:57:45.524Z</time>
      </trkpt>
      <trkpt lat="45.68901" lon="5.82459">
        <ele>356</ele>
        <time>2022-09-06T06:57:46.525Z</time>
      </trkpt>
      <trkpt lat="45.68902" lon="5.82464">
        <ele>356</ele>
        <time>2022-09-06T06:57:47.524Z</time>
      </trkpt>
      <trkpt lat="45.68904" lon="5.8247">
        <ele>357</ele>
        <time>2022-09-06T06:57:48.525Z</time>
      </trkpt>
      <trkpt lat="45.68906" lon="5.82477">
        <ele>358</ele>
        <time>2022-09-06T06:57:49.524Z</time>
      </trkpt>
      <trkpt lat="45.68908" lon="5.82483">
        <ele>358</ele>
        <time>2022-09-06T06:57:50.525Z</time>
      </trkpt>
      <trkpt lat="45.6891" lon="5.82488">
        <ele>358</ele>
        <time>2022-09-06T06:57:51.525Z</time>
      </trkpt>
      <trkpt lat="45.68912" lon="5.82493">
        <ele>358</ele>
        <time>2022-09-06T06:57:52.524Z</time>
      </trkpt>
      <trkpt lat="45.68915" lon="5.82499">
        <ele>358</ele>
        <time>2022-09-06T06:57:53.525Z</time>
      </trkpt>
      <trkpt lat="45.68917" lon="5.82504">
        <ele>358</ele>
        <time>2022-09-06T06:57:54.525Z</time>
      </trkpt>
      <trkpt lat="45.68919" lon="5.82508">
        <ele>357</ele>
        <time>2022-09-06T06:57:55.524Z</time>
      </trkpt>
      <trkpt lat="45.68922" lon="5.82513">
        <ele>357</ele>
        <time>2022-09-06T06:57:56.524Z</time>
      </trkpt>
      <trkpt lat="45.68926" lon="5.82518">
        <ele>356</ele>
        <time>2022-09-06T06:57:57.525Z</time>
      </trkpt>
      <trkpt lat="45.68929" lon="5.82522">
        <ele>356</ele>
        <time>2022-09-06T06:57:58.525Z</time>
      </trkpt>
      <trkpt lat="45.68932" lon="5.82527">
        <ele>356</ele>
        <time>2022-09-06T06:57:59.525Z</time>
      </trkpt>
      <trkpt lat="45.68935" lon="5.82531">
        <ele>357</ele>
        <time>2022-09-06T06:58:00.525Z</time>
      </trkpt>
      <trkpt lat="45.68939" lon="5.82534">
        <ele>357</ele>
        <time>2022-09-06T06:58:01.525Z</time>
      </trkpt>
      <trkpt lat="45.68943" lon="5.82538">
        <ele>358</ele>
        <time>2022-09-06T06:58:02.525Z</time>
      </trkpt>
      <trkpt lat="45.68947" lon="5.82542">
        <ele>358</ele>
        <time>2022-09-06T06:58:03.525Z</time>
      </trkpt>
      <trkpt lat="45.68951" lon="5.82545">
        <ele>358</ele>
        <time>2022-09-06T06:58:04.525Z</time>
      </trkpt>
      <trkpt lat="45.68955" lon="5.82548">
        <ele>358</ele>
        <time>2022-09-06T06:58:05.524Z</time>
      </trkpt>
      <trkpt lat="45.68959" lon="5.82551">
        <ele>359</ele>
        <time>2022-09-06T06:58:06.525Z</time>
      </trkpt>
      <trkpt lat="45.68963" lon="5.82553">
        <ele>360</ele>
        <time>2022-09-06T06:58:07.524Z</time>
      </trkpt>
      <trkpt lat="45.68967" lon="5.82556">
        <ele>360</ele>
        <time>2022-09-06T06:58:08.525Z</time>
      </trkpt>
      <trkpt lat="45.68971" lon="5.82558">
        <ele>361</ele>
        <time>2022-09-06T06:58:09.525Z</time>
      </trkpt>
      <trkpt lat="45.68975" lon="5.82559">
        <ele>361</ele>
        <time>2022-09-06T06:58:10.524Z</time>
      </trkpt>
      <trkpt lat="45.68979" lon="5.82561">
        <ele>362</ele>
        <time>2022-09-06T06:58:11.525Z</time>
      </trkpt>
      <trkpt lat="45.68984" lon="5.82563">
        <ele>362</ele>
        <time>2022-09-06T06:58:12.525Z</time>
      </trkpt>
      <trkpt lat="45.68989" lon="5.82565">
        <ele>363</ele>
        <time>2022-09-06T06:58:13.525Z</time>
      </trkpt>
      <trkpt lat="45.68994" lon="5.82566">
        <ele>363</ele>
        <time>2022-09-06T06:58:14.525Z</time>
      </trkpt>
      <trkpt lat="45.68998" lon="5.82567">
        <ele>364</ele>
        <time>2022-09-06T06:58:15.524Z</time>
      </trkpt>
      <trkpt lat="45.69002" lon="5.82569">
        <ele>364</ele>
        <time>2022-09-06T06:58:16.525Z</time>
      </trkpt>
      <trkpt lat="45.69006" lon="5.82572">
        <ele>365</ele>
        <time>2022-09-06T06:58:17.525Z</time>
      </trkpt>
      <trkpt lat="45.6901" lon="5.82574">
        <ele>365</ele>
        <time>2022-09-06T06:58:18.525Z</time>
      </trkpt>
      <trkpt lat="45.69015" lon="5.82576">
        <ele>366</ele>
        <time>2022-09-06T06:58:19.525Z</time>
      </trkpt>
      <trkpt lat="45.69019" lon="5.82578">
        <ele>366</ele>
        <time>2022-09-06T06:58:20.525Z</time>
      </trkpt>
      <trkpt lat="45.69022" lon="5.8258">
        <ele>366</ele>
        <time>2022-09-06T06:58:21.525Z</time>
      </trkpt>
      <trkpt lat="45.69027" lon="5.82582">
        <ele>366</ele>
        <time>2022-09-06T06:58:22.525Z</time>
      </trkpt>
      <trkpt lat="45.69032" lon="5.82585">
        <ele>366</ele>
        <time>2022-09-06T06:58:23.525Z</time>
      </trkpt>
      <trkpt lat="45.69036" lon="5.82587">
        <ele>366</ele>
        <time>2022-09-06T06:58:24.524Z</time>
      </trkpt>
      <trkpt lat="45.6904" lon="5.82588">
        <ele>367</ele>
        <time>2022-09-06T06:58:25.525Z</time>
      </trkpt>
      <trkpt lat="45.69045" lon="5.8259">
        <ele>367</ele>
        <time>2022-09-06T06:58:26.524Z</time>
      </trkpt>
      <trkpt lat="45.69047" lon="5.82592">
        <ele>368</ele>
        <time>2022-09-06T06:58:27.525Z</time>
      </trkpt>
      <trkpt lat="45.69051" lon="5.82595">
        <ele>368</ele>
        <time>2022-09-06T06:58:28.525Z</time>
      </trkpt>
      <trkpt lat="45.69054" lon="5.82597">
        <ele>369</ele>
        <time>2022-09-06T06:58:29.524Z</time>
      </trkpt>
      <trkpt lat="45.69058" lon="5.826">
        <ele>370</ele>
        <time>2022-09-06T06:58:30.524Z</time>
      </trkpt>
      <trkpt lat="45.69061" lon="5.82603">
        <ele>370</ele>
        <time>2022-09-06T06:58:31.525Z</time>
      </trkpt>
      <trkpt lat="45.69065" lon="5.82607">
        <ele>371</ele>
        <time>2022-09-06T06:58:32.525Z</time>
      </trkpt>
      <trkpt lat="45.69069" lon="5.82611">
        <ele>372</ele>
        <time>2022-09-06T06:58:33.525Z</time>
      </trkpt>
      <trkpt lat="45.69073" lon="5.82615">
        <ele>372</ele>
        <time>2022-09-06T06:58:34.525Z</time>
      </trkpt>
      <trkpt lat="45.69077" lon="5.82619">
        <ele>372</ele>
        <time>2022-09-06T06:58:35.524Z</time>
      </trkpt>
      <trkpt lat="45.6908" lon="5.82623">
        <ele>371</ele>
        <time>2022-09-06T06:58:36.525Z</time>
      </trkpt>
      <trkpt lat="45.69084" lon="5.82628">
        <ele>370</ele>
        <time>2022-09-06T06:58:37.524Z</time>
      </trkpt>
      <trkpt lat="45.69086" lon="5.82634">
        <ele>369</ele>
        <time>2022-09-06T06:58:38.524Z</time>
      </trkpt>
      <trkpt lat="45.69089" lon="5.8264">
        <ele>369</ele>
        <time>2022-09-06T06:58:39.524Z</time>
      </trkpt>
      <trkpt lat="45.69092" lon="5.82645">
        <ele>368</ele>
        <time>2022-09-06T06:58:40.524Z</time>
      </trkpt>
      <trkpt lat="45.69094" lon="5.82649">
        <ele>368</ele>
        <time>2022-09-06T06:58:41.525Z</time>
      </trkpt>
      <trkpt lat="45.69098" lon="5.82656">
        <ele>368</ele>
        <time>2022-09-06T06:58:42.524Z</time>
      </trkpt>
      <trkpt lat="45.69101" lon="5.82661">
        <ele>367</ele>
        <time>2022-09-06T06:58:43.525Z</time>
      </trkpt>
      <trkpt lat="45.69103" lon="5.82665">
        <ele>367</ele>
        <time>2022-09-06T06:58:44.525Z</time>
      </trkpt>
      <trkpt lat="45.69106" lon="5.82671">
        <ele>366</ele>
        <time>2022-09-06T06:58:45.525Z</time>
      </trkpt>
      <trkpt lat="45.69108" lon="5.82676">
        <ele>365</ele>
        <time>2022-09-06T06:58:46.525Z</time>
      </trkpt>
      <trkpt lat="45.6911" lon="5.82682">
        <ele>365</ele>
        <time>2022-09-06T06:58:47.525Z</time>
      </trkpt>
      <trkpt lat="45.69113" lon="5.82687">
        <ele>365</ele>
        <time>2022-09-06T06:58:48.525Z</time>
      </trkpt>
      <trkpt lat="45.69116" lon="5.82693">
        <ele>365</ele>
        <time>2022-09-06T06:58:49.525Z</time>
      </trkpt>
      <trkpt lat="45.69118" lon="5.82698">
        <ele>365</ele>
        <time>2022-09-06T06:58:50.524Z</time>
      </trkpt>
      <trkpt lat="45.6912" lon="5.82704">
        <ele>365</ele>
        <time>2022-09-06T06:58:51.525Z</time>
      </trkpt>
      <trkpt lat="45.69123" lon="5.8271">
        <ele>366</ele>
        <time>2022-09-06T06:58:52.525Z</time>
      </trkpt>
      <trkpt lat="45.69125" lon="5.82715">
        <ele>366</ele>
        <time>2022-09-06T06:58:53.525Z</time>
      </trkpt>
      <trkpt lat="45.69127" lon="5.82721">
        <ele>365</ele>
        <time>2022-09-06T06:58:54.525Z</time>
      </trkpt>
      <trkpt lat="45.69129" lon="5.82727">
        <ele>365</ele>
        <time>2022-09-06T06:58:55.525Z</time>
      </trkpt>
      <trkpt lat="45.69131" lon="5.82733">
        <ele>366</ele>
        <time>2022-09-06T06:58:56.524Z</time>
      </trkpt>
      <trkpt lat="45.69133" lon="5.82738">
        <ele>366</ele>
        <time>2022-09-06T06:58:57.525Z</time>
      </trkpt>
      <trkpt lat="45.69135" lon="5.82745">
        <ele>366</ele>
        <time>2022-09-06T06:58:58.525Z</time>
      </trkpt>
      <trkpt lat="45.69136" lon="5.8275">
        <ele>366</ele>
        <time>2022-09-06T06:58:59.524Z</time>
      </trkpt>
      <trkpt lat="45.69138" lon="5.82756">
        <ele>366</ele>
        <time>2022-09-06T06:59:00.525Z</time>
      </trkpt>
      <trkpt lat="45.6914" lon="5.82762">
        <ele>366</ele>
        <time>2022-09-06T06:59:01.525Z</time>
      </trkpt>
      <trkpt lat="45.69141" lon="5.82768">
        <ele>367</ele>
        <time>2022-09-06T06:59:02.524Z</time>
      </trkpt>
      <trkpt lat="45.69143" lon="5.82774">
        <ele>367</ele>
        <time>2022-09-06T06:59:03.525Z</time>
      </trkpt>
      <trkpt lat="45.69145" lon="5.8278">
        <ele>366</ele>
        <time>2022-09-06T06:59:04.524Z</time>
      </trkpt>
      <trkpt lat="45.69146" lon="5.82786">
        <ele>366</ele>
        <time>2022-09-06T06:59:05.525Z</time>
      </trkpt>
      <trkpt lat="45.69148" lon="5.82792">
        <ele>367</ele>
        <time>2022-09-06T06:59:06.524Z</time>
      </trkpt>
      <trkpt lat="45.6915" lon="5.82799">
        <ele>368</ele>
        <time>2022-09-06T06:59:07.524Z</time>
      </trkpt>
      <trkpt lat="45.69151" lon="5.82804">
        <ele>368</ele>
        <time>2022-09-06T06:59:08.524Z</time>
      </trkpt>
      <trkpt lat="45.69153" lon="5.8281">
        <ele>369</ele>
        <time>2022-09-06T06:59:09.525Z</time>
      </trkpt>
      <trkpt lat="45.69155" lon="5.82816">
        <ele>369</ele>
        <time>2022-09-06T06:59:10.525Z</time>
      </trkpt>
      <trkpt lat="45.69157" lon="5.82821">
        <ele>370</ele>
        <time>2022-09-06T06:59:11.525Z</time>
      </trkpt>
      <trkpt lat="45.69159" lon="5.82827">
        <ele>370</ele>
        <time>2022-09-06T06:59:12.525Z</time>
      </trkpt>
      <trkpt lat="45.6916" lon="5.82833">
        <ele>371</ele>
        <time>2022-09-06T06:59:13.524Z</time>
      </trkpt>
      <trkpt lat="45.69162" lon="5.82839">
        <ele>371</ele>
        <time>2022-09-06T06:59:14.525Z</time>
      </trkpt>
      <trkpt lat="45.69164" lon="5.82845">
        <ele>371</ele>
        <time>2022-09-06T06:59:15.525Z</time>
      </trkpt>
      <trkpt lat="45.69165" lon="5.82851">
        <ele>371</ele>
        <time>2022-09-06T06:59:16.525Z</time>
      </trkpt>
      <trkpt lat="45.69167" lon="5.82857">
        <ele>371</ele>
        <time>2022-09-06T06:59:17.525Z</time>
      </trkpt>
      <trkpt lat="45.69169" lon="5.82862">
        <ele>372</ele>
        <time>2022-09-06T06:59:18.524Z</time>
      </trkpt>
      <trkpt lat="45.69171" lon="5.82868">
        <ele>372</ele>
        <time>2022-09-06T06:59:19.525Z</time>
      </trkpt>
      <trkpt lat="45.69173" lon="5.82874">
        <ele>372</ele>
        <time>2022-09-06T06:59:20.525Z</time>
      </trkpt>
      <trkpt lat="45.69175" lon="5.82879">
        <ele>372</ele>
        <time>2022-09-06T06:59:21.525Z</time>
      </trkpt>
      <trkpt lat="45.69178" lon="5.82884">
        <ele>371</ele>
        <time>2022-09-06T06:59:22.525Z</time>
      </trkpt>
      <trkpt lat="45.6918" lon="5.8289">
        <ele>372</ele>
        <time>2022-09-06T06:59:23.525Z</time>
      </trkpt>
      <trkpt lat="45.69183" lon="5.82895">
        <ele>372</ele>
        <time>2022-09-06T06:59:24.525Z</time>
      </trkpt>
      <trkpt lat="45.69186" lon="5.829">
        <ele>371</ele>
        <time>2022-09-06T06:59:25.525Z</time>
      </trkpt>
      <trkpt lat="45.6919" lon="5.82905">
        <ele>371</ele>
        <time>2022-09-06T06:59:26.525Z</time>
      </trkpt>
      <trkpt lat="45.69193" lon="5.8291">
        <ele>371</ele>
        <time>2022-09-06T06:59:27.525Z</time>
      </trkpt>
      <trkpt lat="45.69196" lon="5.82914">
        <ele>372</ele>
        <time>2022-09-06T06:59:28.525Z</time>
      </trkpt>
      <trkpt lat="45.692" lon="5.82918">
        <ele>372</ele>
        <time>2022-09-06T06:59:29.525Z</time>
      </trkpt>
      <trkpt lat="45.69203" lon="5.82921">
        <ele>373</ele>
        <time>2022-09-06T06:59:30.524Z</time>
      </trkpt>
      <trkpt lat="45.69206" lon="5.82924">
        <ele>374</ele>
        <time>2022-09-06T06:59:31.525Z</time>
      </trkpt>
      <trkpt lat="45.6921" lon="5.82927">
        <ele>374</ele>
        <time>2022-09-06T06:59:32.525Z</time>
      </trkpt>
      <trkpt lat="45.69215" lon="5.82929">
        <ele>375</ele>
        <time>2022-09-06T06:59:33.524Z</time>
      </trkpt>
      <trkpt lat="45.69221" lon="5.82929">
        <ele>376</ele>
        <time>2022-09-06T06:59:34.524Z</time>
      </trkpt>
      <trkpt lat="45.69225" lon="5.8293">
        <ele>377</ele>
        <time>2022-09-06T06:59:35.524Z</time>
      </trkpt>
      <trkpt lat="45.69231" lon="5.82933">
        <ele>377</ele>
        <time>2022-09-06T06:59:36.524Z</time>
      </trkpt>
      <trkpt lat="45.69235" lon="5.82934">
        <ele>378</ele>
        <time>2022-09-06T06:59:37.525Z</time>
      </trkpt>
      <trkpt lat="45.69239" lon="5.82935">
        <ele>379</ele>
        <time>2022-09-06T06:59:38.524Z</time>
      </trkpt>
      <trkpt lat="45.69244" lon="5.82935">
        <ele>381</ele>
        <time>2022-09-06T06:59:39.525Z</time>
      </trkpt>
      <trkpt lat="45.69248" lon="5.82936">
        <ele>382</ele>
        <time>2022-09-06T06:59:40.525Z</time>
      </trkpt>
      <trkpt lat="45.69253" lon="5.82937">
        <ele>383</ele>
        <time>2022-09-06T06:59:41.525Z</time>
      </trkpt>
      <trkpt lat="45.69257" lon="5.82938">
        <ele>384</ele>
        <time>2022-09-06T06:59:42.525Z</time>
      </trkpt>
      <trkpt lat="45.69263" lon="5.82938">
        <ele>385</ele>
        <time>2022-09-06T06:59:43.525Z</time>
      </trkpt>
      <trkpt lat="45.69268" lon="5.82939">
        <ele>386</ele>
        <time>2022-09-06T06:59:44.524Z</time>
      </trkpt>
      <trkpt lat="45.69273" lon="5.8294">
        <ele>386</ele>
        <time>2022-09-06T06:59:45.524Z</time>
      </trkpt>
      <trkpt lat="45.69278" lon="5.82941">
        <ele>386</ele>
        <time>2022-09-06T06:59:46.525Z</time>
      </trkpt>
      <trkpt lat="45.69283" lon="5.82942">
        <ele>386</ele>
        <time>2022-09-06T06:59:47.524Z</time>
      </trkpt>
      <trkpt lat="45.69287" lon="5.82943">
        <ele>386</ele>
        <time>2022-09-06T06:59:48.525Z</time>
      </trkpt>
      <trkpt lat="45.69292" lon="5.82944">
        <ele>386</ele>
        <time>2022-09-06T06:59:49.525Z</time>
      </trkpt>
      <trkpt lat="45.69296" lon="5.82945">
        <ele>385</ele>
        <time>2022-09-06T06:59:50.525Z</time>
      </trkpt>
      <trkpt lat="45.693" lon="5.82945">
        <ele>385</ele>
        <time>2022-09-06T06:59:51.525Z</time>
      </trkpt>
      <trkpt lat="45.69305" lon="5.82946">
        <ele>384</ele>
        <time>2022-09-06T06:59:52.525Z</time>
      </trkpt>
      <trkpt lat="45.69309" lon="5.82947">
        <ele>384</ele>
        <time>2022-09-06T06:59:53.525Z</time>
      </trkpt>
      <trkpt lat="45.69313" lon="5.82949">
        <ele>384</ele>
        <time>2022-09-06T06:59:54.525Z</time>
      </trkpt>
      <trkpt lat="45.69318" lon="5.8295">
        <ele>384</ele>
        <time>2022-09-06T06:59:55.525Z</time>
      </trkpt>
      <trkpt lat="45.69322" lon="5.82952">
        <ele>384</ele>
        <time>2022-09-06T06:59:56.525Z</time>
      </trkpt>
      <trkpt lat="45.69326" lon="5.82954">
        <ele>384</ele>
        <time>2022-09-06T06:59:57.525Z</time>
      </trkpt>
      <trkpt lat="45.6933" lon="5.82957">
        <ele>385</ele>
        <time>2022-09-06T06:59:58.524Z</time>
      </trkpt>
      <trkpt lat="45.69334" lon="5.8296">
        <ele>385</ele>
        <time>2022-09-06T06:59:59.525Z</time>
      </trkpt>
      <trkpt lat="45.69337" lon="5.82964">
        <ele>385</ele>
        <time>2022-09-06T07:00:00.524Z</time>
      </trkpt>
      <trkpt lat="45.6934" lon="5.82968">
        <ele>384</ele>
        <time>2022-09-06T07:00:01.524Z</time>
      </trkpt>
      <trkpt lat="45.69343" lon="5.82973">
        <ele>384</ele>
        <time>2022-09-06T07:00:02.525Z</time>
      </trkpt>
      <trkpt lat="45.69346" lon="5.82979">
        <ele>384</ele>
        <time>2022-09-06T07:00:03.524Z</time>
      </trkpt>
      <trkpt lat="45.69349" lon="5.82985">
        <ele>384</ele>
        <time>2022-09-06T07:00:04.525Z</time>
      </trkpt>
      <trkpt lat="45.6935" lon="5.8299">
        <ele>383</ele>
        <time>2022-09-06T07:00:05.524Z</time>
      </trkpt>
      <trkpt lat="45.69351" lon="5.82997">
        <ele>383</ele>
        <time>2022-09-06T07:00:06.524Z</time>
      </trkpt>
      <trkpt lat="45.69351" lon="5.83003">
        <ele>383</ele>
        <time>2022-09-06T07:00:07.524Z</time>
      </trkpt>
      <trkpt lat="45.69351" lon="5.83009">
        <ele>383</ele>
        <time>2022-09-06T07:00:08.524Z</time>
      </trkpt>
      <trkpt lat="45.6935" lon="5.83017">
        <ele>383</ele>
        <time>2022-09-06T07:00:09.524Z</time>
      </trkpt>
      <trkpt lat="45.69349" lon="5.83022">
        <ele>383</ele>
        <time>2022-09-06T07:00:10.525Z</time>
      </trkpt>
      <trkpt lat="45.69348" lon="5.83029">
        <ele>383</ele>
        <time>2022-09-06T07:00:11.524Z</time>
      </trkpt>
      <trkpt lat="45.69347" lon="5.83035">
        <ele>384</ele>
        <time>2022-09-06T07:00:12.525Z</time>
      </trkpt>
      <trkpt lat="45.69345" lon="5.83043">
        <ele>385</ele>
        <time>2022-09-06T07:00:13.524Z</time>
      </trkpt>
      <trkpt lat="45.69344" lon="5.83048">
        <ele>385</ele>
        <time>2022-09-06T07:00:14.524Z</time>
      </trkpt>
      <trkpt lat="45.69343" lon="5.83054">
        <ele>386</ele>
        <time>2022-09-06T07:00:15.525Z</time>
      </trkpt>
      <trkpt lat="45.69341" lon="5.83061">
        <ele>387</ele>
        <time>2022-09-06T07:00:16.524Z</time>
      </trkpt>
      <trkpt lat="45.69339" lon="5.83067">
        <ele>388</ele>
        <time>2022-09-06T07:00:17.524Z</time>
      </trkpt>
      <trkpt lat="45.69338" lon="5.83074">
        <ele>388</ele>
        <time>2022-09-06T07:00:18.524Z</time>
      </trkpt>
      <trkpt lat="45.69337" lon="5.83081">
        <ele>389</ele>
        <time>2022-09-06T07:00:19.525Z</time>
      </trkpt>
      <trkpt lat="45.69335" lon="5.83087">
        <ele>390</ele>
        <time>2022-09-06T07:00:20.525Z</time>
      </trkpt>
      <trkpt lat="45.69334" lon="5.83093">
        <ele>390</ele>
        <time>2022-09-06T07:00:21.524Z</time>
      </trkpt>
      <trkpt lat="45.69332" lon="5.831">
        <ele>391</ele>
        <time>2022-09-06T07:00:22.525Z</time>
      </trkpt>
      <trkpt lat="45.6933" lon="5.83106">
        <ele>391</ele>
        <time>2022-09-06T07:00:23.525Z</time>
      </trkpt>
      <trkpt lat="45.69328" lon="5.83113">
        <ele>392</ele>
        <time>2022-09-06T07:00:24.525Z</time>
      </trkpt>
      <trkpt lat="45.69327" lon="5.83119">
        <ele>392</ele>
        <time>2022-09-06T07:00:25.524Z</time>
      </trkpt>
      <trkpt lat="45.69326" lon="5.83126">
        <ele>393</ele>
        <time>2022-09-06T07:00:26.524Z</time>
      </trkpt>
      <trkpt lat="45.69324" lon="5.83132">
        <ele>394</ele>
        <time>2022-09-06T07:00:27.525Z</time>
      </trkpt>
      <trkpt lat="45.69323" lon="5.83138">
        <ele>394</ele>
        <time>2022-09-06T07:00:28.525Z</time>
      </trkpt>
      <trkpt lat="45.69321" lon="5.83145">
        <ele>395</ele>
        <time>2022-09-06T07:00:29.525Z</time>
      </trkpt>
      <trkpt lat="45.69319" lon="5.83151">
        <ele>396</ele>
        <time>2022-09-06T07:00:30.525Z</time>
      </trkpt>
      <trkpt lat="45.69318" lon="5.83157">
        <ele>397</ele>
        <time>2022-09-06T07:00:31.525Z</time>
      </trkpt>
      <trkpt lat="45.69316" lon="5.83165">
        <ele>397</ele>
        <time>2022-09-06T07:00:32.525Z</time>
      </trkpt>
      <trkpt lat="45.69315" lon="5.8317">
        <ele>398</ele>
        <time>2022-09-06T07:00:33.524Z</time>
      </trkpt>
      <trkpt lat="45.69313" lon="5.83176">
        <ele>399</ele>
        <time>2022-09-06T07:00:34.525Z</time>
      </trkpt>
      <trkpt lat="45.6931" lon="5.83182">
        <ele>400</ele>
        <time>2022-09-06T07:00:35.525Z</time>
      </trkpt>
      <trkpt lat="45.69307" lon="5.83188">
        <ele>400</ele>
        <time>2022-09-06T07:00:36.525Z</time>
      </trkpt>
      <trkpt lat="45.69305" lon="5.83193">
        <ele>400</ele>
        <time>2022-09-06T07:00:37.525Z</time>
      </trkpt>
      <trkpt lat="45.69301" lon="5.83198">
        <ele>401</ele>
        <time>2022-09-06T07:00:38.524Z</time>
      </trkpt>
      <trkpt lat="45.69298" lon="5.83202">
        <ele>401</ele>
        <time>2022-09-06T07:00:39.524Z</time>
      </trkpt>
      <trkpt lat="45.69294" lon="5.83206">
        <ele>401</ele>
        <time>2022-09-06T07:00:40.525Z</time>
      </trkpt>
      <trkpt lat="45.6929" lon="5.83209">
        <ele>401</ele>
        <time>2022-09-06T07:00:41.524Z</time>
      </trkpt>
      <trkpt lat="45.69286" lon="5.83213">
        <ele>402</ele>
        <time>2022-09-06T07:00:42.525Z</time>
      </trkpt>
      <trkpt lat="45.69281" lon="5.83216">
        <ele>402</ele>
        <time>2022-09-06T07:00:43.525Z</time>
      </trkpt>
      <trkpt lat="45.69277" lon="5.8322">
        <ele>402</ele>
        <time>2022-09-06T07:00:44.524Z</time>
      </trkpt>
      <trkpt lat="45.69272" lon="5.83223">
        <ele>402</ele>
        <time>2022-09-06T07:00:45.525Z</time>
      </trkpt>
      <trkpt lat="45.69267" lon="5.83225">
        <ele>402</ele>
        <time>2022-09-06T07:00:46.525Z</time>
      </trkpt>
      <trkpt lat="45.69262" lon="5.83227">
        <ele>401</ele>
        <time>2022-09-06T07:00:47.525Z</time>
      </trkpt>
      <trkpt lat="45.69258" lon="5.83229">
        <ele>401</ele>
        <time>2022-09-06T07:00:48.525Z</time>
      </trkpt>
      <trkpt lat="45.69253" lon="5.8323">
        <ele>400</ele>
        <time>2022-09-06T07:00:49.525Z</time>
      </trkpt>
      <trkpt lat="45.69249" lon="5.83231">
        <ele>400</ele>
        <time>2022-09-06T07:00:50.524Z</time>
      </trkpt>
      <trkpt lat="45.69243" lon="5.8323">
        <ele>400</ele>
        <time>2022-09-06T07:00:51.525Z</time>
      </trkpt>
      <trkpt lat="45.69237" lon="5.8323">
        <ele>399</ele>
        <time>2022-09-06T07:00:52.525Z</time>
      </trkpt>
      <trkpt lat="45.69231" lon="5.8323">
        <ele>399</ele>
        <time>2022-09-06T07:00:53.525Z</time>
      </trkpt>
      <trkpt lat="45.69227" lon="5.83229">
        <ele>399</ele>
        <time>2022-09-06T07:00:54.525Z</time>
      </trkpt>
      <trkpt lat="45.69222" lon="5.83227">
        <ele>398</ele>
        <time>2022-09-06T07:00:55.525Z</time>
      </trkpt>
      <trkpt lat="45.69216" lon="5.83227">
        <ele>398</ele>
        <time>2022-09-06T07:00:56.524Z</time>
      </trkpt>
      <trkpt lat="45.69211" lon="5.83226">
        <ele>397</ele>
        <time>2022-09-06T07:00:57.524Z</time>
      </trkpt>
      <trkpt lat="45.69206" lon="5.83225">
        <ele>396</ele>
        <time>2022-09-06T07:00:58.525Z</time>
      </trkpt>
      <trkpt lat="45.69201" lon="5.83224">
        <ele>395</ele>
        <time>2022-09-06T07:00:59.525Z</time>
      </trkpt>
      <trkpt lat="45.69196" lon="5.83222">
        <ele>395</ele>
        <time>2022-09-06T07:01:00.525Z</time>
      </trkpt>
      <trkpt lat="45.69191" lon="5.83222">
        <ele>395</ele>
        <time>2022-09-06T07:01:01.525Z</time>
      </trkpt>
      <trkpt lat="45.69186" lon="5.83221">
        <ele>395</ele>
        <time>2022-09-06T07:01:02.524Z</time>
      </trkpt>
      <trkpt lat="45.69181" lon="5.8322">
        <ele>395</ele>
        <time>2022-09-06T07:01:03.525Z</time>
      </trkpt>
      <trkpt lat="45.69176" lon="5.83219">
        <ele>395</ele>
        <time>2022-09-06T07:01:04.525Z</time>
      </trkpt>
      <trkpt lat="45.69171" lon="5.83218">
        <ele>394</ele>
        <time>2022-09-06T07:01:05.525Z</time>
      </trkpt>
      <trkpt lat="45.69166" lon="5.83217">
        <ele>394</ele>
        <time>2022-09-06T07:01:06.524Z</time>
      </trkpt>
      <trkpt lat="45.69161" lon="5.83216">
        <ele>393</ele>
        <time>2022-09-06T07:01:07.524Z</time>
      </trkpt>
      <trkpt lat="45.69156" lon="5.83216">
        <ele>393</ele>
        <time>2022-09-06T07:01:08.525Z</time>
      </trkpt>
      <trkpt lat="45.6915" lon="5.83215">
        <ele>393</ele>
        <time>2022-09-06T07:01:09.525Z</time>
      </trkpt>
      <trkpt lat="45.69145" lon="5.83215">
        <ele>393</ele>
        <time>2022-09-06T07:01:10.525Z</time>
      </trkpt>
      <trkpt lat="45.6914" lon="5.83214">
        <ele>393</ele>
        <time>2022-09-06T07:01:11.525Z</time>
      </trkpt>
      <trkpt lat="45.69135" lon="5.83214">
        <ele>393</ele>
        <time>2022-09-06T07:01:12.525Z</time>
      </trkpt>
      <trkpt lat="45.6913" lon="5.83214">
        <ele>393</ele>
        <time>2022-09-06T07:01:13.525Z</time>
      </trkpt>
      <trkpt lat="45.69125" lon="5.83213">
        <ele>393</ele>
        <time>2022-09-06T07:01:14.524Z</time>
      </trkpt>
      <trkpt lat="45.6912" lon="5.83213">
        <ele>393</ele>
        <time>2022-09-06T07:01:15.525Z</time>
      </trkpt>
      <trkpt lat="45.69115" lon="5.83212">
        <ele>393</ele>
        <time>2022-09-06T07:01:16.525Z</time>
      </trkpt>
      <trkpt lat="45.6911" lon="5.83212">
        <ele>393</ele>
        <time>2022-09-06T07:01:17.525Z</time>
      </trkpt>
      <trkpt lat="45.69105" lon="5.83212">
        <ele>393</ele>
        <time>2022-09-06T07:01:18.525Z</time>
      </trkpt>
      <trkpt lat="45.691" lon="5.83212">
        <ele>393</ele>
        <time>2022-09-06T07:01:19.525Z</time>
      </trkpt>
      <trkpt lat="45.69095" lon="5.83211">
        <ele>393</ele>
        <time>2022-09-06T07:01:20.524Z</time>
      </trkpt>
      <trkpt lat="45.6909" lon="5.83211">
        <ele>393</ele>
        <time>2022-09-06T07:01:21.525Z</time>
      </trkpt>
      <trkpt lat="45.69085" lon="5.8321">
        <ele>393</ele>
        <time>2022-09-06T07:01:22.525Z</time>
      </trkpt>
      <trkpt lat="45.69081" lon="5.8321">
        <ele>393</ele>
        <time>2022-09-06T07:01:23.525Z</time>
      </trkpt>
      <trkpt lat="45.69076" lon="5.83209">
        <ele>393</ele>
        <time>2022-09-06T07:01:24.525Z</time>
      </trkpt>
      <trkpt lat="45.69071" lon="5.83209">
        <ele>393</ele>
        <time>2022-09-06T07:01:25.524Z</time>
      </trkpt>
      <trkpt lat="45.69066" lon="5.8321">
        <ele>393</ele>
        <time>2022-09-06T07:01:26.524Z</time>
      </trkpt>
      <trkpt lat="45.69061" lon="5.8321">
        <ele>393</ele>
        <time>2022-09-06T07:01:27.524Z</time>
      </trkpt>
      <trkpt lat="45.69056" lon="5.83211">
        <ele>393</ele>
        <time>2022-09-06T07:01:28.524Z</time>
      </trkpt>
      <trkpt lat="45.69051" lon="5.83213">
        <ele>393</ele>
        <time>2022-09-06T07:01:29.525Z</time>
      </trkpt>
      <trkpt lat="45.69046" lon="5.83216">
        <ele>394</ele>
        <time>2022-09-06T07:01:30.524Z</time>
      </trkpt>
      <trkpt lat="45.69042" lon="5.83219">
        <ele>394</ele>
        <time>2022-09-06T07:01:31.524Z</time>
      </trkpt>
      <trkpt lat="45.69038" lon="5.83223">
        <ele>394</ele>
        <time>2022-09-06T07:01:32.524Z</time>
      </trkpt>
      <trkpt lat="45.69034" lon="5.83227">
        <ele>395</ele>
        <time>2022-09-06T07:01:33.525Z</time>
      </trkpt>
      <trkpt lat="45.69031" lon="5.83232">
        <ele>395</ele>
        <time>2022-09-06T07:01:34.525Z</time>
      </trkpt>
      <trkpt lat="45.69028" lon="5.83238">
        <ele>396</ele>
        <time>2022-09-06T07:01:35.525Z</time>
      </trkpt>
      <trkpt lat="45.69025" lon="5.83244">
        <ele>396</ele>
        <time>2022-09-06T07:01:36.525Z</time>
      </trkpt>
      <trkpt lat="45.69024" lon="5.83251">
        <ele>396</ele>
        <time>2022-09-06T07:01:37.525Z</time>
      </trkpt>
      <trkpt lat="45.69022" lon="5.83258">
        <ele>396</ele>
        <time>2022-09-06T07:01:38.524Z</time>
      </trkpt>
      <trkpt lat="45.69022" lon="5.83264">
        <ele>396</ele>
        <time>2022-09-06T07:01:39.525Z</time>
      </trkpt>
      <trkpt lat="45.69021" lon="5.83271">
        <ele>396</ele>
        <time>2022-09-06T07:01:40.525Z</time>
      </trkpt>
      <trkpt lat="45.6902" lon="5.83278">
        <ele>396</ele>
        <time>2022-09-06T07:01:41.524Z</time>
      </trkpt>
      <trkpt lat="45.69018" lon="5.83284">
        <ele>396</ele>
        <time>2022-09-06T07:01:42.525Z</time>
      </trkpt>
      <trkpt lat="45.69017" lon="5.83291">
        <ele>397</ele>
        <time>2022-09-06T07:01:43.525Z</time>
      </trkpt>
      <trkpt lat="45.69017" lon="5.83297">
        <ele>397</ele>
        <time>2022-09-06T07:01:44.525Z</time>
      </trkpt>
      <trkpt lat="45.69018" lon="5.83303">
        <ele>397</ele>
        <time>2022-09-06T07:01:45.525Z</time>
      </trkpt>
      <trkpt lat="45.6902" lon="5.83309">
        <ele>397</ele>
        <time>2022-09-06T07:01:46.525Z</time>
      </trkpt>
      <trkpt lat="45.69023" lon="5.83312">
        <ele>397</ele>
        <time>2022-09-06T07:01:47.525Z</time>
      </trkpt>
      <trkpt lat="45.69027" lon="5.83314">
        <ele>397</ele>
        <time>2022-09-06T07:01:48.525Z</time>
      </trkpt>
      <trkpt lat="45.69032" lon="5.83314">
        <ele>397</ele>
        <time>2022-09-06T07:01:49.525Z</time>
      </trkpt>
      <trkpt lat="45.69037" lon="5.83314">
        <ele>397</ele>
        <time>2022-09-06T07:01:50.525Z</time>
      </trkpt>
      <trkpt lat="45.69043" lon="5.83314">
        <ele>397</ele>
        <time>2022-09-06T07:01:51.525Z</time>
      </trkpt>
      <trkpt lat="45.69049" lon="5.83316">
        <ele>396</ele>
        <time>2022-09-06T07:01:52.525Z</time>
      </trkpt>
      <trkpt lat="45.69054" lon="5.83319">
        <ele>396</ele>
        <time>2022-09-06T07:01:53.525Z</time>
      </trkpt>
      <trkpt lat="45.69058" lon="5.83324">
        <ele>396</ele>
        <time>2022-09-06T07:01:54.524Z</time>
      </trkpt>
      <trkpt lat="45.69062" lon="5.8333">
        <ele>396</ele>
        <time>2022-09-06T07:01:55.525Z</time>
      </trkpt>
      <trkpt lat="45.69064" lon="5.83336">
        <ele>396</ele>
        <time>2022-09-06T07:01:56.525Z</time>
      </trkpt>
      <trkpt lat="45.69065" lon="5.83342">
        <ele>396</ele>
        <time>2022-09-06T07:01:57.525Z</time>
      </trkpt>
      <trkpt lat="45.69067" lon="5.83351">
        <ele>396</ele>
        <time>2022-09-06T07:01:58.525Z</time>
      </trkpt>
      <trkpt lat="45.69067" lon="5.83359">
        <ele>396</ele>
        <time>2022-09-06T07:01:59.525Z</time>
      </trkpt>
      <trkpt lat="45.69066" lon="5.83366">
        <ele>397</ele>
        <time>2022-09-06T07:02:00.525Z</time>
      </trkpt>
      <trkpt lat="45.69065" lon="5.83373">
        <ele>398</ele>
        <time>2022-09-06T07:02:01.525Z</time>
      </trkpt>
      <trkpt lat="45.69065" lon="5.8338">
        <ele>398</ele>
        <time>2022-09-06T07:02:02.525Z</time>
      </trkpt>
      <trkpt lat="45.69065" lon="5.83388">
        <ele>398</ele>
        <time>2022-09-06T07:02:03.525Z</time>
      </trkpt>
      <trkpt lat="45.69065" lon="5.83395">
        <ele>398</ele>
        <time>2022-09-06T07:02:04.525Z</time>
      </trkpt>
      <trkpt lat="45.69066" lon="5.83401">
        <ele>399</ele>
        <time>2022-09-06T07:02:05.525Z</time>
      </trkpt>
      <trkpt lat="45.69067" lon="5.83408">
        <ele>399</ele>
        <time>2022-09-06T07:02:06.525Z</time>
      </trkpt>
      <trkpt lat="45.69069" lon="5.83414">
        <ele>399</ele>
        <time>2022-09-06T07:02:07.525Z</time>
      </trkpt>
      <trkpt lat="45.69071" lon="5.83419">
        <ele>400</ele>
        <time>2022-09-06T07:02:08.525Z</time>
      </trkpt>
      <trkpt lat="45.69074" lon="5.83424">
        <ele>400</ele>
        <time>2022-09-06T07:02:09.524Z</time>
      </trkpt>
      <trkpt lat="45.69078" lon="5.83429">
        <ele>400</ele>
        <time>2022-09-06T07:02:10.525Z</time>
      </trkpt>
      <trkpt lat="45.69081" lon="5.83433">
        <ele>400</ele>
        <time>2022-09-06T07:02:11.524Z</time>
      </trkpt>
      <trkpt lat="45.69083" lon="5.83439">
        <ele>401</ele>
        <time>2022-09-06T07:02:12.525Z</time>
      </trkpt>
      <trkpt lat="45.69084" lon="5.83444">
        <ele>401</ele>
        <time>2022-09-06T07:02:13.525Z</time>
      </trkpt>
      <trkpt lat="45.69084" lon="5.83448">
        <ele>401</ele>
        <time>2022-09-06T07:02:14.524Z</time>
      </trkpt>
      <trkpt lat="45.68488" lon="5.85235">
        <ele>403</ele>
        <time>2022-09-06T07:06:13.525Z</time>
      </trkpt>
      <trkpt lat="45.68493" lon="5.85228">
        <ele>403</ele>
        <time>2022-09-06T07:06:14.525Z</time>
      </trkpt>
      <trkpt lat="45.68492" lon="5.85223">
        <ele>403</ele>
        <time>2022-09-06T07:06:15.525Z</time>
      </trkpt>
      <trkpt lat="45.68489" lon="5.85217">
        <ele>402</ele>
        <time>2022-09-06T07:06:16.525Z</time>
      </trkpt>
      <trkpt lat="45.68486" lon="5.85214">
        <ele>402</ele>
        <time>2022-09-06T07:06:17.524Z</time>
      </trkpt>
      <trkpt lat="45.68483" lon="5.8521">
        <ele>402</ele>
        <time>2022-09-06T07:06:18.524Z</time>
      </trkpt>
      <trkpt lat="45.68478" lon="5.85208">
        <ele>401</ele>
        <time>2022-09-06T07:06:19.525Z</time>
      </trkpt>
      <trkpt lat="45.68474" lon="5.85206">
        <ele>400</ele>
        <time>2022-09-06T07:06:20.524Z</time>
      </trkpt>
      <trkpt lat="45.68469" lon="5.85203">
        <ele>399</ele>
        <time>2022-09-06T07:06:21.525Z</time>
      </trkpt>
      <trkpt lat="45.68463" lon="5.85201">
        <ele>398</ele>
        <time>2022-09-06T07:06:22.525Z</time>
      </trkpt>
      <trkpt lat="45.68458" lon="5.85198">
        <ele>396</ele>
        <time>2022-09-06T07:06:23.524Z</time>
      </trkpt>
      <trkpt lat="45.68452" lon="5.85195">
        <ele>395</ele>
        <time>2022-09-06T07:06:24.525Z</time>
      </trkpt>
      <trkpt lat="45.68447" lon="5.85191">
        <ele>394</ele>
        <time>2022-09-06T07:06:25.525Z</time>
      </trkpt>
      <trkpt lat="45.68442" lon="5.85189">
        <ele>393</ele>
        <time>2022-09-06T07:06:26.525Z</time>
      </trkpt>
      <trkpt lat="45.68438" lon="5.85188">
        <ele>392</ele>
        <time>2022-09-06T07:06:27.525Z</time>
      </trkpt>
      <trkpt lat="45.68434" lon="5.85186">
        <ele>391</ele>
        <time>2022-09-06T07:06:28.524Z</time>
      </trkpt>
      <trkpt lat="45.68431" lon="5.85185">
        <ele>390</ele>
        <time>2022-09-06T07:06:29.525Z</time>
      </trkpt>
      <trkpt lat="45.68428" lon="5.85183">
        <ele>390</ele>
        <time>2022-09-06T07:06:30.525Z</time>
      </trkpt>
      <trkpt lat="45.68425" lon="5.85179">
        <ele>389</ele>
        <time>2022-09-06T07:06:31.525Z</time>
      </trkpt>
      <trkpt lat="45.68423" lon="5.85175">
        <ele>388</ele>
        <time>2022-09-06T07:06:32.525Z</time>
      </trkpt>
      <trkpt lat="45.6842" lon="5.85169">
        <ele>387</ele>
        <time>2022-09-06T07:06:33.525Z</time>
      </trkpt>
      <trkpt lat="45.68417" lon="5.85165">
        <ele>387</ele>
        <time>2022-09-06T07:06:34.525Z</time>
      </trkpt>
      <trkpt lat="45.68412" lon="5.85161">
        <ele>387</ele>
        <time>2022-09-06T07:06:35.525Z</time>
      </trkpt>
      <trkpt lat="45.68406" lon="5.85158">
        <ele>386</ele>
        <time>2022-09-06T07:06:36.525Z</time>
      </trkpt>
      <trkpt lat="45.68399" lon="5.85154">
        <ele>386</ele>
        <time>2022-09-06T07:06:37.525Z</time>
      </trkpt>
      <trkpt lat="45.68393" lon="5.85151">
        <ele>386</ele>
        <time>2022-09-06T07:06:38.525Z</time>
      </trkpt>
      <trkpt lat="45.68385" lon="5.85148">
        <ele>385</ele>
        <time>2022-09-06T07:06:39.525Z</time>
      </trkpt>
      <trkpt lat="45.68378" lon="5.85144">
        <ele>385</ele>
        <time>2022-09-06T07:06:40.525Z</time>
      </trkpt>
      <trkpt lat="45.6837" lon="5.8514">
        <ele>384</ele>
        <time>2022-09-06T07:06:41.525Z</time>
      </trkpt>
      <trkpt lat="45.68362" lon="5.85137">
        <ele>384</ele>
        <time>2022-09-06T07:06:42.525Z</time>
      </trkpt>
      <trkpt lat="45.68353" lon="5.85134">
        <ele>383</ele>
        <time>2022-09-06T07:06:43.524Z</time>
      </trkpt>
      <trkpt lat="45.68344" lon="5.85131">
        <ele>383</ele>
        <time>2022-09-06T07:06:44.525Z</time>
      </trkpt>
      <trkpt lat="45.68336" lon="5.85127">
        <ele>382</ele>
        <time>2022-09-06T07:06:45.524Z</time>
      </trkpt>
      <trkpt lat="45.68327" lon="5.85123">
        <ele>382</ele>
        <time>2022-09-06T07:06:46.524Z</time>
      </trkpt>
      <trkpt lat="45.68317" lon="5.8512">
        <ele>382</ele>
        <time>2022-09-06T07:06:47.525Z</time>
      </trkpt>
      <trkpt lat="45.68308" lon="5.85116">
        <ele>381</ele>
        <time>2022-09-06T07:06:48.525Z</time>
      </trkpt>
      <trkpt lat="45.68298" lon="5.85114">
        <ele>381</ele>
        <time>2022-09-06T07:06:49.525Z</time>
      </trkpt>
      <trkpt lat="45.68288" lon="5.85111">
        <ele>381</ele>
        <time>2022-09-06T07:06:50.525Z</time>
      </trkpt>
      <trkpt lat="45.68277" lon="5.85107">
        <ele>380</ele>
        <time>2022-09-06T07:06:51.525Z</time>
      </trkpt>
      <trkpt lat="45.68267" lon="5.85105">
        <ele>380</ele>
        <time>2022-09-06T07:06:52.525Z</time>
      </trkpt>
      <trkpt lat="45.68256" lon="5.85102">
        <ele>380</ele>
        <time>2022-09-06T07:06:53.525Z</time>
      </trkpt>
      <trkpt lat="45.68246" lon="5.85099">
        <ele>380</ele>
        <time>2022-09-06T07:06:54.525Z</time>
      </trkpt>
      <trkpt lat="45.68235" lon="5.85096">
        <ele>380</ele>
        <time>2022-09-06T07:06:55.525Z</time>
      </trkpt>
      <trkpt lat="45.68225" lon="5.85094">
        <ele>379</ele>
        <time>2022-09-06T07:06:56.525Z</time>
      </trkpt>
      <trkpt lat="45.68213" lon="5.85093">
        <ele>379</ele>
        <time>2022-09-06T07:06:57.525Z</time>
      </trkpt>
      <trkpt lat="45.68202" lon="5.85093">
        <ele>378</ele>
        <time>2022-09-06T07:06:58.525Z</time>
      </trkpt>
      <trkpt lat="45.6819" lon="5.85094">
        <ele>378</ele>
        <time>2022-09-06T07:06:59.525Z</time>
      </trkpt>
      <trkpt lat="45.68179" lon="5.85093">
        <ele>378</ele>
        <time>2022-09-06T07:07:00.525Z</time>
      </trkpt>
      <trkpt lat="45.68169" lon="5.85092">
        <ele>377</ele>
        <time>2022-09-06T07:07:01.525Z</time>
      </trkpt>
      <trkpt lat="45.68158" lon="5.8509">
        <ele>377</ele>
        <time>2022-09-06T07:07:02.525Z</time>
      </trkpt>
      <trkpt lat="45.68146" lon="5.8509">
        <ele>376</ele>
        <time>2022-09-06T07:07:03.525Z</time>
      </trkpt>
      <trkpt lat="45.68134" lon="5.85093">
        <ele>376</ele>
        <time>2022-09-06T07:07:04.525Z</time>
      </trkpt>
      <trkpt lat="45.68123" lon="5.85094">
        <ele>376</ele>
        <time>2022-09-06T07:07:05.525Z</time>
      </trkpt>
      <trkpt lat="45.68111" lon="5.85096">
        <ele>375</ele>
        <time>2022-09-06T07:07:06.524Z</time>
      </trkpt>
      <trkpt lat="45.681" lon="5.85099">
        <ele>375</ele>
        <time>2022-09-06T07:07:07.525Z</time>
      </trkpt>
      <trkpt lat="45.68089" lon="5.85101">
        <ele>374</ele>
        <time>2022-09-06T07:07:08.525Z</time>
      </trkpt>
      <trkpt lat="45.68076" lon="5.85103">
        <ele>374</ele>
        <time>2022-09-06T07:07:09.525Z</time>
      </trkpt>
      <trkpt lat="45.68064" lon="5.85106">
        <ele>374</ele>
        <time>2022-09-06T07:07:10.524Z</time>
      </trkpt>
      <trkpt lat="45.68053" lon="5.85109">
        <ele>373</ele>
        <time>2022-09-06T07:07:11.524Z</time>
      </trkpt>
      <trkpt lat="45.68042" lon="5.85111">
        <ele>373</ele>
        <time>2022-09-06T07:07:12.525Z</time>
      </trkpt>
      <trkpt lat="45.68032" lon="5.85113">
        <ele>372</ele>
        <time>2022-09-06T07:07:13.525Z</time>
      </trkpt>
      <trkpt lat="45.68021" lon="5.85116">
        <ele>372</ele>
        <time>2022-09-06T07:07:14.524Z</time>
      </trkpt>
      <trkpt lat="45.6801" lon="5.85117">
        <ele>372</ele>
        <time>2022-09-06T07:07:15.525Z</time>
      </trkpt>
      <trkpt lat="45.67999" lon="5.85116">
        <ele>372</ele>
        <time>2022-09-06T07:07:16.525Z</time>
      </trkpt>
      <trkpt lat="45.67988" lon="5.85114">
        <ele>371</ele>
        <time>2022-09-06T07:07:17.525Z</time>
      </trkpt>
      <trkpt lat="45.67977" lon="5.85109">
        <ele>370</ele>
        <time>2022-09-06T07:07:18.525Z</time>
      </trkpt>
      <trkpt lat="45.67967" lon="5.85101">
        <ele>369</ele>
        <time>2022-09-06T07:07:19.525Z</time>
      </trkpt>
      <trkpt lat="45.67956" lon="5.85092">
        <ele>369</ele>
        <time>2022-09-06T07:07:20.525Z</time>
      </trkpt>
      <trkpt lat="45.67946" lon="5.85083">
        <ele>368</ele>
        <time>2022-09-06T07:07:21.525Z</time>
      </trkpt>
      <trkpt lat="45.67937" lon="5.85074">
        <ele>367</ele>
        <time>2022-09-06T07:07:22.525Z</time>
      </trkpt>
      <trkpt lat="45.67928" lon="5.85064">
        <ele>367</ele>
        <time>2022-09-06T07:07:23.524Z</time>
      </trkpt>
      <trkpt lat="45.67918" lon="5.85057">
        <ele>366</ele>
        <time>2022-09-06T07:07:24.525Z</time>
      </trkpt>
      <trkpt lat="45.67907" lon="5.85052">
        <ele>365</ele>
        <time>2022-09-06T07:07:25.525Z</time>
      </trkpt>
      <trkpt lat="45.67896" lon="5.85049">
        <ele>365</ele>
        <time>2022-09-06T07:07:26.525Z</time>
      </trkpt>
      <trkpt lat="45.67884" lon="5.85048">
        <ele>365</ele>
        <time>2022-09-06T07:07:27.525Z</time>
      </trkpt>
      <trkpt lat="45.67872" lon="5.85047">
        <ele>364</ele>
        <time>2022-09-06T07:07:28.524Z</time>
      </trkpt>
      <trkpt lat="45.67862" lon="5.85046">
        <ele>364</ele>
        <time>2022-09-06T07:07:29.525Z</time>
      </trkpt>
      <trkpt lat="45.6785" lon="5.85045">
        <ele>363</ele>
        <time>2022-09-06T07:07:30.524Z</time>
      </trkpt>
      <trkpt lat="45.67839" lon="5.85044">
        <ele>362</ele>
        <time>2022-09-06T07:07:31.524Z</time>
      </trkpt>
      <trkpt lat="45.67828" lon="5.85044">
        <ele>362</ele>
        <time>2022-09-06T07:07:32.525Z</time>
      </trkpt>
      <trkpt lat="45.67816" lon="5.85046">
        <ele>362</ele>
        <time>2022-09-06T07:07:33.525Z</time>
      </trkpt>
      <trkpt lat="45.67804" lon="5.85048">
        <ele>361</ele>
        <time>2022-09-06T07:07:34.525Z</time>
      </trkpt>
      <trkpt lat="45.67793" lon="5.85049">
        <ele>361</ele>
        <time>2022-09-06T07:07:35.524Z</time>
      </trkpt>
      <trkpt lat="45.67782" lon="5.8505">
        <ele>361</ele>
        <time>2022-09-06T07:07:36.525Z</time>
      </trkpt>
      <trkpt lat="45.67771" lon="5.85053">
        <ele>360</ele>
        <time>2022-09-06T07:07:37.525Z</time>
      </trkpt>
      <trkpt lat="45.67761" lon="5.85057">
        <ele>360</ele>
        <time>2022-09-06T07:07:38.524Z</time>
      </trkpt>
      <trkpt lat="45.6775" lon="5.85062">
        <ele>360</ele>
        <time>2022-09-06T07:07:39.525Z</time>
      </trkpt>
      <trkpt lat="45.67741" lon="5.85067">
        <ele>360</ele>
        <time>2022-09-06T07:07:40.524Z</time>
      </trkpt>
      <trkpt lat="45.67731" lon="5.85074">
        <ele>360</ele>
        <time>2022-09-06T07:07:41.525Z</time>
      </trkpt>
      <trkpt lat="45.67723" lon="5.85082">
        <ele>359</ele>
        <time>2022-09-06T07:07:42.524Z</time>
      </trkpt>
      <trkpt lat="45.67716" lon="5.85093">
        <ele>359</ele>
        <time>2022-09-06T07:07:43.524Z</time>
      </trkpt>
      <trkpt lat="45.67709" lon="5.85105">
        <ele>359</ele>
        <time>2022-09-06T07:07:44.525Z</time>
      </trkpt>
      <trkpt lat="45.67704" lon="5.85116">
        <ele>359</ele>
        <time>2022-09-06T07:07:45.524Z</time>
      </trkpt>
      <trkpt lat="45.67699" lon="5.85129">
        <ele>360</ele>
        <time>2022-09-06T07:07:46.524Z</time>
      </trkpt>
      <trkpt lat="45.67694" lon="5.85139">
        <ele>360</ele>
        <time>2022-09-06T07:07:47.525Z</time>
      </trkpt>
      <trkpt lat="45.67686" lon="5.8515">
        <ele>359</ele>
        <time>2022-09-06T07:07:48.524Z</time>
      </trkpt>
      <trkpt lat="45.67678" lon="5.8516">
        <ele>359</ele>
        <time>2022-09-06T07:07:49.525Z</time>
      </trkpt>
      <trkpt lat="45.67672" lon="5.85169">
        <ele>358</ele>
        <time>2022-09-06T07:07:50.524Z</time>
      </trkpt>
      <trkpt lat="45.67667" lon="5.85179">
        <ele>357</ele>
        <time>2022-09-06T07:07:51.525Z</time>
      </trkpt>
      <trkpt lat="45.67666" lon="5.85189">
        <ele>356</ele>
        <time>2022-09-06T07:07:52.524Z</time>
      </trkpt>
      <trkpt lat="45.67663" lon="5.85199">
        <ele>355</ele>
        <time>2022-09-06T07:07:53.524Z</time>
      </trkpt>
      <trkpt lat="45.67659" lon="5.8521">
        <ele>354</ele>
        <time>2022-09-06T07:07:54.525Z</time>
      </trkpt>
      <trkpt lat="45.67654" lon="5.8522">
        <ele>354</ele>
        <time>2022-09-06T07:07:55.524Z</time>
      </trkpt>
      <trkpt lat="45.6765" lon="5.85228">
        <ele>353</ele>
        <time>2022-09-06T07:07:56.524Z</time>
      </trkpt>
      <trkpt lat="45.67642" lon="5.85239">
        <ele>353</ele>
        <time>2022-09-06T07:07:57.525Z</time>
      </trkpt>
      <trkpt lat="45.67634" lon="5.85247">
        <ele>353</ele>
        <time>2022-09-06T07:07:58.525Z</time>
      </trkpt>
      <trkpt lat="45.67625" lon="5.85254">
        <ele>352</ele>
        <time>2022-09-06T07:07:59.525Z</time>
      </trkpt>
      <trkpt lat="45.67615" lon="5.85262">
        <ele>352</ele>
        <time>2022-09-06T07:08:00.525Z</time>
      </trkpt>
      <trkpt lat="45.67605" lon="5.85267">
        <ele>352</ele>
        <time>2022-09-06T07:08:01.525Z</time>
      </trkpt>
      <trkpt lat="45.67596" lon="5.85273">
        <ele>351</ele>
        <time>2022-09-06T07:08:02.524Z</time>
      </trkpt>
      <trkpt lat="45.67586" lon="5.8528">
        <ele>351</ele>
        <time>2022-09-06T07:08:03.525Z</time>
      </trkpt>
      <trkpt lat="45.67577" lon="5.85286">
        <ele>351</ele>
        <time>2022-09-06T07:08:04.525Z</time>
      </trkpt>
      <trkpt lat="45.67568" lon="5.85292">
        <ele>350</ele>
        <time>2022-09-06T07:08:05.525Z</time>
      </trkpt>
      <trkpt lat="45.67558" lon="5.85299">
        <ele>350</ele>
        <time>2022-09-06T07:08:06.524Z</time>
      </trkpt>
      <trkpt lat="45.67548" lon="5.85305">
        <ele>350</ele>
        <time>2022-09-06T07:08:07.525Z</time>
      </trkpt>
      <trkpt lat="45.67538" lon="5.85312">
        <ele>349</ele>
        <time>2022-09-06T07:08:08.525Z</time>
      </trkpt>
      <trkpt lat="45.67528" lon="5.85317">
        <ele>348</ele>
        <time>2022-09-06T07:08:09.525Z</time>
      </trkpt>
      <trkpt lat="45.67517" lon="5.85321">
        <ele>348</ele>
        <time>2022-09-06T07:08:10.524Z</time>
      </trkpt>
      <trkpt lat="45.67508" lon="5.85322">
        <ele>347</ele>
        <time>2022-09-06T07:08:11.525Z</time>
      </trkpt>
      <trkpt lat="45.67495" lon="5.85324">
        <ele>347</ele>
        <time>2022-09-06T07:08:12.525Z</time>
      </trkpt>
      <trkpt lat="45.67484" lon="5.85325">
        <ele>346</ele>
        <time>2022-09-06T07:08:13.525Z</time>
      </trkpt>
      <trkpt lat="45.67473" lon="5.85325">
        <ele>346</ele>
        <time>2022-09-06T07:08:14.525Z</time>
      </trkpt>
      <trkpt lat="45.67462" lon="5.85325">
        <ele>346</ele>
        <time>2022-09-06T07:08:15.525Z</time>
      </trkpt>
      <trkpt lat="45.67451" lon="5.85325">
        <ele>345</ele>
        <time>2022-09-06T07:08:16.525Z</time>
      </trkpt>
      <trkpt lat="45.6744" lon="5.85325">
        <ele>345</ele>
        <time>2022-09-06T07:08:17.525Z</time>
      </trkpt>
      <trkpt lat="45.67429" lon="5.85327">
        <ele>344</ele>
        <time>2022-09-06T07:08:18.524Z</time>
      </trkpt>
      <trkpt lat="45.67418" lon="5.85328">
        <ele>344</ele>
        <time>2022-09-06T07:08:19.525Z</time>
      </trkpt>
      <trkpt lat="45.67407" lon="5.85331">
        <ele>343</ele>
        <time>2022-09-06T07:08:20.525Z</time>
      </trkpt>
      <trkpt lat="45.67397" lon="5.85335">
        <ele>343</ele>
        <time>2022-09-06T07:08:21.525Z</time>
      </trkpt>
      <trkpt lat="45.67387" lon="5.85339">
        <ele>342</ele>
        <time>2022-09-06T07:08:22.525Z</time>
      </trkpt>
      <trkpt lat="45.67378" lon="5.85345">
        <ele>341</ele>
        <time>2022-09-06T07:08:23.524Z</time>
      </trkpt>
      <trkpt lat="45.67368" lon="5.85351">
        <ele>340</ele>
        <time>2022-09-06T07:08:24.524Z</time>
      </trkpt>
      <trkpt lat="45.67359" lon="5.85357">
        <ele>340</ele>
        <time>2022-09-06T07:08:25.525Z</time>
      </trkpt>
      <trkpt lat="45.6735" lon="5.85364">
        <ele>340</ele>
        <time>2022-09-06T07:08:26.524Z</time>
      </trkpt>
      <trkpt lat="45.67341" lon="5.8537">
        <ele>340</ele>
        <time>2022-09-06T07:08:27.525Z</time>
      </trkpt>
      <trkpt lat="45.67332" lon="5.85377">
        <ele>340</ele>
        <time>2022-09-06T07:08:28.525Z</time>
      </trkpt>
      <trkpt lat="45.67322" lon="5.85384">
        <ele>340</ele>
        <time>2022-09-06T07:08:29.525Z</time>
      </trkpt>
      <trkpt lat="45.67314" lon="5.8539">
        <ele>340</ele>
        <time>2022-09-06T07:08:30.524Z</time>
      </trkpt>
      <trkpt lat="45.67304" lon="5.85397">
        <ele>340</ele>
        <time>2022-09-06T07:08:31.524Z</time>
      </trkpt>
      <trkpt lat="45.67292" lon="5.85404">
        <ele>339</ele>
        <time>2022-09-06T07:08:32.525Z</time>
      </trkpt>
      <trkpt lat="45.67281" lon="5.8541">
        <ele>339</ele>
        <time>2022-09-06T07:08:33.525Z</time>
      </trkpt>
      <trkpt lat="45.67268" lon="5.85413">
        <ele>338</ele>
        <time>2022-09-06T07:08:34.525Z</time>
      </trkpt>
      <trkpt lat="45.67256" lon="5.85416">
        <ele>337</ele>
        <time>2022-09-06T07:08:35.524Z</time>
      </trkpt>
      <trkpt lat="45.67246" lon="5.85418">
        <ele>336</ele>
        <time>2022-09-06T07:08:36.525Z</time>
      </trkpt>
      <trkpt lat="45.67231" lon="5.85422">
        <ele>335</ele>
        <time>2022-09-06T07:08:37.525Z</time>
      </trkpt>
      <trkpt lat="45.6722" lon="5.85426">
        <ele>334</ele>
        <time>2022-09-06T07:08:38.525Z</time>
      </trkpt>
      <trkpt lat="45.67208" lon="5.85431">
        <ele>334</ele>
        <time>2022-09-06T07:08:39.524Z</time>
      </trkpt>
      <trkpt lat="45.67197" lon="5.85436">
        <ele>333</ele>
        <time>2022-09-06T07:08:40.525Z</time>
      </trkpt>
      <trkpt lat="45.67188" lon="5.8544">
        <ele>333</ele>
        <time>2022-09-06T07:08:41.524Z</time>
      </trkpt>
      <trkpt lat="45.67173" lon="5.85446">
        <ele>332</ele>
        <time>2022-09-06T07:08:42.525Z</time>
      </trkpt>
      <trkpt lat="45.67162" lon="5.8545">
        <ele>332</ele>
        <time>2022-09-06T07:08:43.524Z</time>
      </trkpt>
      <trkpt lat="45.67152" lon="5.85454">
        <ele>332</ele>
        <time>2022-09-06T07:08:44.525Z</time>
      </trkpt>
      <trkpt lat="45.67142" lon="5.85458">
        <ele>332</ele>
        <time>2022-09-06T07:08:45.524Z</time>
      </trkpt>
      <trkpt lat="45.6713" lon="5.85461">
        <ele>332</ele>
        <time>2022-09-06T07:08:46.525Z</time>
      </trkpt>
      <trkpt lat="45.67114" lon="5.85463">
        <ele>331</ele>
        <time>2022-09-06T07:08:47.524Z</time>
      </trkpt>
      <trkpt lat="45.67099" lon="5.85465">
        <ele>331</ele>
        <time>2022-09-06T07:08:48.524Z</time>
      </trkpt>
      <trkpt lat="45.67085" lon="5.85465">
        <ele>330</ele>
        <time>2022-09-06T07:08:49.525Z</time>
      </trkpt>
      <trkpt lat="45.6707" lon="5.85468">
        <ele>329</ele>
        <time>2022-09-06T07:08:50.525Z</time>
      </trkpt>
      <trkpt lat="45.67057" lon="5.85469">
        <ele>328</ele>
        <time>2022-09-06T07:08:51.525Z</time>
      </trkpt>
      <trkpt lat="45.67045" lon="5.8547">
        <ele>328</ele>
        <time>2022-09-06T07:08:52.525Z</time>
      </trkpt>
      <trkpt lat="45.67032" lon="5.85473">
        <ele>327</ele>
        <time>2022-09-06T07:08:53.525Z</time>
      </trkpt>
      <trkpt lat="45.67021" lon="5.85477">
        <ele>326</ele>
        <time>2022-09-06T07:08:54.525Z</time>
      </trkpt>
      <trkpt lat="45.67012" lon="5.8548">
        <ele>326</ele>
        <time>2022-09-06T07:08:55.525Z</time>
      </trkpt>
      <trkpt lat="45.66998" lon="5.85485">
        <ele>325</ele>
        <time>2022-09-06T07:08:56.524Z</time>
      </trkpt>
      <trkpt lat="45.66987" lon="5.85487">
        <ele>324</ele>
        <time>2022-09-06T07:08:57.525Z</time>
      </trkpt>
      <trkpt lat="45.66976" lon="5.85487">
        <ele>323</ele>
        <time>2022-09-06T07:08:58.525Z</time>
      </trkpt>
      <trkpt lat="45.66964" lon="5.85487">
        <ele>322</ele>
        <time>2022-09-06T07:08:59.524Z</time>
      </trkpt>
      <trkpt lat="45.66954" lon="5.85488">
        <ele>321</ele>
        <time>2022-09-06T07:09:00.525Z</time>
      </trkpt>
      <trkpt lat="45.66939" lon="5.85489">
        <ele>321</ele>
        <time>2022-09-06T07:09:01.524Z</time>
      </trkpt>
      <trkpt lat="45.66928" lon="5.85488">
        <ele>321</ele>
        <time>2022-09-06T07:09:02.525Z</time>
      </trkpt>
      <trkpt lat="45.66916" lon="5.85488">
        <ele>320</ele>
        <time>2022-09-06T07:09:03.524Z</time>
      </trkpt>
      <trkpt lat="45.66905" lon="5.85487">
        <ele>320</ele>
        <time>2022-09-06T07:09:04.525Z</time>
      </trkpt>
      <trkpt lat="45.66893" lon="5.85486">
        <ele>320</ele>
        <time>2022-09-06T07:09:05.525Z</time>
      </trkpt>
      <trkpt lat="45.66881" lon="5.85485">
        <ele>319</ele>
        <time>2022-09-06T07:09:06.525Z</time>
      </trkpt>
      <trkpt lat="45.66869" lon="5.85483">
        <ele>319</ele>
        <time>2022-09-06T07:09:07.525Z</time>
      </trkpt>
      <trkpt lat="45.66856" lon="5.8548">
        <ele>318</ele>
        <time>2022-09-06T07:09:08.524Z</time>
      </trkpt>
      <trkpt lat="45.66844" lon="5.85476">
        <ele>318</ele>
        <time>2022-09-06T07:09:09.524Z</time>
      </trkpt>
      <trkpt lat="45.66833" lon="5.85472">
        <ele>317</ele>
        <time>2022-09-06T07:09:10.525Z</time>
      </trkpt>
      <trkpt lat="45.66821" lon="5.85469">
        <ele>316</ele>
        <time>2022-09-06T07:09:11.525Z</time>
      </trkpt>
      <trkpt lat="45.66808" lon="5.85465">
        <ele>316</ele>
        <time>2022-09-06T07:09:12.525Z</time>
      </trkpt>
      <trkpt lat="45.66796" lon="5.85461">
        <ele>315</ele>
        <time>2022-09-06T07:09:13.525Z</time>
      </trkpt>
      <trkpt lat="45.66784" lon="5.85457">
        <ele>315</ele>
        <time>2022-09-06T07:09:14.525Z</time>
      </trkpt>
      <trkpt lat="45.66771" lon="5.85453">
        <ele>314</ele>
        <time>2022-09-06T07:09:15.525Z</time>
      </trkpt>
      <trkpt lat="45.66759" lon="5.85449">
        <ele>314</ele>
        <time>2022-09-06T07:09:16.525Z</time>
      </trkpt>
      <trkpt lat="45.66746" lon="5.85444">
        <ele>313</ele>
        <time>2022-09-06T07:09:17.525Z</time>
      </trkpt>
      <trkpt lat="45.66734" lon="5.8544">
        <ele>313</ele>
        <time>2022-09-06T07:09:18.525Z</time>
      </trkpt>
      <trkpt lat="45.66722" lon="5.85435">
        <ele>312</ele>
        <time>2022-09-06T07:09:19.525Z</time>
      </trkpt>
      <trkpt lat="45.6671" lon="5.8543">
        <ele>312</ele>
        <time>2022-09-06T07:09:20.525Z</time>
      </trkpt>
      <trkpt lat="45.66698" lon="5.85425">
        <ele>311</ele>
        <time>2022-09-06T07:09:21.524Z</time>
      </trkpt>
      <trkpt lat="45.66686" lon="5.85421">
        <ele>310</ele>
        <time>2022-09-06T07:09:22.525Z</time>
      </trkpt>
      <trkpt lat="45.66674" lon="5.85417">
        <ele>310</ele>
        <time>2022-09-06T07:09:23.525Z</time>
      </trkpt>
      <trkpt lat="45.66662" lon="5.85413">
        <ele>309</ele>
        <time>2022-09-06T07:09:24.525Z</time>
      </trkpt>
      <trkpt lat="45.6665" lon="5.85409">
        <ele>309</ele>
        <time>2022-09-06T07:09:25.524Z</time>
      </trkpt>
      <trkpt lat="45.66638" lon="5.85406">
        <ele>308</ele>
        <time>2022-09-06T07:09:26.525Z</time>
      </trkpt>
      <trkpt lat="45.66627" lon="5.85404">
        <ele>308</ele>
        <time>2022-09-06T07:09:27.525Z</time>
      </trkpt>
      <trkpt lat="45.66615" lon="5.85402">
        <ele>307</ele>
        <time>2022-09-06T07:09:28.525Z</time>
      </trkpt>
      <trkpt lat="45.66603" lon="5.854">
        <ele>307</ele>
        <time>2022-09-06T07:09:29.525Z</time>
      </trkpt>
      <trkpt lat="45.66591" lon="5.85399">
        <ele>306</ele>
        <time>2022-09-06T07:09:30.524Z</time>
      </trkpt>
      <trkpt lat="45.66579" lon="5.85398">
        <ele>306</ele>
        <time>2022-09-06T07:09:31.525Z</time>
      </trkpt>
      <trkpt lat="45.66567" lon="5.85397">
        <ele>305</ele>
        <time>2022-09-06T07:09:32.524Z</time>
      </trkpt>
      <trkpt lat="45.66556" lon="5.85396">
        <ele>305</ele>
        <time>2022-09-06T07:09:33.525Z</time>
      </trkpt>
      <trkpt lat="45.66544" lon="5.85395">
        <ele>305</ele>
        <time>2022-09-06T07:09:34.525Z</time>
      </trkpt>
      <trkpt lat="45.66533" lon="5.85395">
        <ele>304</ele>
        <time>2022-09-06T07:09:35.525Z</time>
      </trkpt>
      <trkpt lat="45.66522" lon="5.85396">
        <ele>304</ele>
        <time>2022-09-06T07:09:36.525Z</time>
      </trkpt>
      <trkpt lat="45.66511" lon="5.85399">
        <ele>304</ele>
        <time>2022-09-06T07:09:37.525Z</time>
      </trkpt>
      <trkpt lat="45.665" lon="5.85402">
        <ele>304</ele>
        <time>2022-09-06T07:09:38.525Z</time>
      </trkpt>
      <trkpt lat="45.66489" lon="5.85405">
        <ele>303</ele>
        <time>2022-09-06T07:09:39.525Z</time>
      </trkpt>
      <trkpt lat="45.66478" lon="5.8541">
        <ele>303</ele>
        <time>2022-09-06T07:09:40.525Z</time>
      </trkpt>
      <trkpt lat="45.66466" lon="5.85415">
        <ele>302</ele>
        <time>2022-09-06T07:09:41.525Z</time>
      </trkpt>
      <trkpt lat="45.66455" lon="5.85419">
        <ele>302</ele>
        <time>2022-09-06T07:09:42.524Z</time>
      </trkpt>
      <trkpt lat="45.66444" lon="5.85423">
        <ele>302</ele>
        <time>2022-09-06T07:09:43.525Z</time>
      </trkpt>
      <trkpt lat="45.66435" lon="5.85427">
        <ele>302</ele>
        <time>2022-09-06T07:09:44.525Z</time>
      </trkpt>
      <trkpt lat="45.66424" lon="5.85431">
        <ele>301</ele>
        <time>2022-09-06T07:09:45.524Z</time>
      </trkpt>
      <trkpt lat="45.66411" lon="5.85436">
        <ele>301</ele>
        <time>2022-09-06T07:09:46.524Z</time>
      </trkpt>
      <trkpt lat="45.66401" lon="5.85439">
        <ele>300</ele>
        <time>2022-09-06T07:09:47.525Z</time>
      </trkpt>
      <trkpt lat="45.6639" lon="5.85442">
        <ele>300</ele>
        <time>2022-09-06T07:09:48.524Z</time>
      </trkpt>
      <trkpt lat="45.66379" lon="5.85445">
        <ele>300</ele>
        <time>2022-09-06T07:09:49.525Z</time>
      </trkpt>
      <trkpt lat="45.66368" lon="5.85449">
        <ele>299</ele>
        <time>2022-09-06T07:09:50.525Z</time>
      </trkpt>
      <trkpt lat="45.66357" lon="5.85454">
        <ele>299</ele>
        <time>2022-09-06T07:09:51.525Z</time>
      </trkpt>
      <trkpt lat="45.66345" lon="5.85459">
        <ele>299</ele>
        <time>2022-09-06T07:09:52.525Z</time>
      </trkpt>
      <trkpt lat="45.66334" lon="5.85465">
        <ele>298</ele>
        <time>2022-09-06T07:09:53.525Z</time>
      </trkpt>
      <trkpt lat="45.66324" lon="5.85471">
        <ele>298</ele>
        <time>2022-09-06T07:09:54.525Z</time>
      </trkpt>
      <trkpt lat="45.66314" lon="5.85478">
        <ele>298</ele>
        <time>2022-09-06T07:09:55.525Z</time>
      </trkpt>
      <trkpt lat="45.66304" lon="5.85486">
        <ele>298</ele>
        <time>2022-09-06T07:09:56.525Z</time>
      </trkpt>
      <trkpt lat="45.66294" lon="5.85495">
        <ele>298</ele>
        <time>2022-09-06T07:09:57.525Z</time>
      </trkpt>
      <trkpt lat="45.66286" lon="5.85504">
        <ele>298</ele>
        <time>2022-09-06T07:09:58.525Z</time>
      </trkpt>
      <trkpt lat="45.66278" lon="5.85514">
        <ele>298</ele>
        <time>2022-09-06T07:09:59.525Z</time>
      </trkpt>
      <trkpt lat="45.66269" lon="5.85526">
        <ele>297</ele>
        <time>2022-09-06T07:10:00.525Z</time>
      </trkpt>
      <trkpt lat="45.66261" lon="5.85538">
        <ele>298</ele>
        <time>2022-09-06T07:10:01.524Z</time>
      </trkpt>
      <trkpt lat="45.66251" lon="5.85549">
        <ele>297</ele>
        <time>2022-09-06T07:10:02.524Z</time>
      </trkpt>
      <trkpt lat="45.66243" lon="5.8556">
        <ele>297</ele>
        <time>2022-09-06T07:10:03.525Z</time>
      </trkpt>
      <trkpt lat="45.66236" lon="5.85568">
        <ele>297</ele>
        <time>2022-09-06T07:10:04.525Z</time>
      </trkpt>
      <trkpt lat="45.66224" lon="5.85579">
        <ele>297</ele>
        <time>2022-09-06T07:10:05.525Z</time>
      </trkpt>
      <trkpt lat="45.66213" lon="5.85587">
        <ele>297</ele>
        <time>2022-09-06T07:10:06.525Z</time>
      </trkpt>
      <trkpt lat="45.66202" lon="5.85593">
        <ele>297</ele>
        <time>2022-09-06T07:10:07.525Z</time>
      </trkpt>
      <trkpt lat="45.66191" lon="5.85597">
        <ele>296</ele>
        <time>2022-09-06T07:10:08.524Z</time>
      </trkpt>
      <trkpt lat="45.66179" lon="5.856">
        <ele>296</ele>
        <time>2022-09-06T07:10:09.525Z</time>
      </trkpt>
      <trkpt lat="45.66167" lon="5.85602">
        <ele>296</ele>
        <time>2022-09-06T07:10:10.525Z</time>
      </trkpt>
      <trkpt lat="45.66155" lon="5.85604">
        <ele>295</ele>
        <time>2022-09-06T07:10:11.525Z</time>
      </trkpt>
      <trkpt lat="45.66142" lon="5.85605">
        <ele>295</ele>
        <time>2022-09-06T07:10:12.524Z</time>
      </trkpt>
      <trkpt lat="45.6613" lon="5.85604">
        <ele>294</ele>
        <time>2022-09-06T07:10:13.525Z</time>
      </trkpt>
      <trkpt lat="45.66117" lon="5.85602">
        <ele>294</ele>
        <time>2022-09-06T07:10:14.525Z</time>
      </trkpt>
      <trkpt lat="45.66105" lon="5.856">
        <ele>293</ele>
        <time>2022-09-06T07:10:15.525Z</time>
      </trkpt>
      <trkpt lat="45.66093" lon="5.85596">
        <ele>293</ele>
        <time>2022-09-06T07:10:16.525Z</time>
      </trkpt>
      <trkpt lat="45.66082" lon="5.85591">
        <ele>293</ele>
        <time>2022-09-06T07:10:17.525Z</time>
      </trkpt>
      <trkpt lat="45.6607" lon="5.85583">
        <ele>293</ele>
        <time>2022-09-06T07:10:18.525Z</time>
      </trkpt>
      <trkpt lat="45.66058" lon="5.85575">
        <ele>293</ele>
        <time>2022-09-06T07:10:19.524Z</time>
      </trkpt>
      <trkpt lat="45.66047" lon="5.85569">
        <ele>292</ele>
        <time>2022-09-06T07:10:20.525Z</time>
      </trkpt>
      <trkpt lat="45.66034" lon="5.85564">
        <ele>292</ele>
        <time>2022-09-06T07:10:21.524Z</time>
      </trkpt>
      <trkpt lat="45.66021" lon="5.8556">
        <ele>292</ele>
        <time>2022-09-06T07:10:22.525Z</time>
      </trkpt>
      <trkpt lat="45.66009" lon="5.85556">
        <ele>291</ele>
        <time>2022-09-06T07:10:23.524Z</time>
      </trkpt>
      <trkpt lat="45.65999" lon="5.85553">
        <ele>290</ele>
        <time>2022-09-06T07:10:24.524Z</time>
      </trkpt>
      <trkpt lat="45.65983" lon="5.85549">
        <ele>289</ele>
        <time>2022-09-06T07:10:25.525Z</time>
      </trkpt>
      <trkpt lat="45.65969" lon="5.85548">
        <ele>288</ele>
        <time>2022-09-06T07:10:26.525Z</time>
      </trkpt>
      <trkpt lat="45.65956" lon="5.85548">
        <ele>287</ele>
        <time>2022-09-06T07:10:27.525Z</time>
      </trkpt>
      <trkpt lat="45.65946" lon="5.85548">
        <ele>286</ele>
        <time>2022-09-06T07:10:28.525Z</time>
      </trkpt>
      <trkpt lat="45.65934" lon="5.8555">
        <ele>285</ele>
        <time>2022-09-06T07:10:29.525Z</time>
      </trkpt>
      <trkpt lat="45.65918" lon="5.85553">
        <ele>284</ele>
        <time>2022-09-06T07:10:30.524Z</time>
      </trkpt>
      <trkpt lat="45.65905" lon="5.85558">
        <ele>283</ele>
        <time>2022-09-06T07:10:31.525Z</time>
      </trkpt>
      <trkpt lat="45.65892" lon="5.85563">
        <ele>282</ele>
        <time>2022-09-06T07:10:32.525Z</time>
      </trkpt>
      <trkpt lat="45.65881" lon="5.85569">
        <ele>281</ele>
        <time>2022-09-06T07:10:33.525Z</time>
      </trkpt>
      <trkpt lat="45.65868" lon="5.85576">
        <ele>280</ele>
        <time>2022-09-06T07:10:34.525Z</time>
      </trkpt>
      <trkpt lat="45.65852" lon="5.85584">
        <ele>279</ele>
        <time>2022-09-06T07:10:35.524Z</time>
      </trkpt>
      <trkpt lat="45.65839" lon="5.8559">
        <ele>278</ele>
        <time>2022-09-06T07:10:36.525Z</time>
      </trkpt>
      <trkpt lat="45.65828" lon="5.85595">
        <ele>277</ele>
        <time>2022-09-06T07:10:37.524Z</time>
      </trkpt>
      <trkpt lat="45.65815" lon="5.85602">
        <ele>276</ele>
        <time>2022-09-06T07:10:38.524Z</time>
      </trkpt>
      <trkpt lat="45.65802" lon="5.85608">
        <ele>275</ele>
        <time>2022-09-06T07:10:39.525Z</time>
      </trkpt>
      <trkpt lat="45.65785" lon="5.85615">
        <ele>274</ele>
        <time>2022-09-06T07:10:40.524Z</time>
      </trkpt>
      <trkpt lat="45.65772" lon="5.85622">
        <ele>272</ele>
        <time>2022-09-06T07:10:41.525Z</time>
      </trkpt>
      <trkpt lat="45.65757" lon="5.85629">
        <ele>271</ele>
        <time>2022-09-06T07:10:42.525Z</time>
      </trkpt>
      <trkpt lat="45.65744" lon="5.85636">
        <ele>270</ele>
        <time>2022-09-06T07:10:43.524Z</time>
      </trkpt>
      <trkpt lat="45.6573" lon="5.85643">
        <ele>269</ele>
        <time>2022-09-06T07:10:44.525Z</time>
      </trkpt>
      <trkpt lat="45.65717" lon="5.85651">
        <ele>269</ele>
        <time>2022-09-06T07:10:45.524Z</time>
      </trkpt>
      <trkpt lat="45.65704" lon="5.85661">
        <ele>268</ele>
        <time>2022-09-06T07:10:46.524Z</time>
      </trkpt>
      <trkpt lat="45.65692" lon="5.85671">
        <ele>267</ele>
        <time>2022-09-06T07:10:47.525Z</time>
      </trkpt>
      <trkpt lat="45.65683" lon="5.8568">
        <ele>266</ele>
        <time>2022-09-06T07:10:48.524Z</time>
      </trkpt>
      <trkpt lat="45.65668" lon="5.85692">
        <ele>265</ele>
        <time>2022-09-06T07:10:49.524Z</time>
      </trkpt>
      <trkpt lat="45.65657" lon="5.85704">
        <ele>264</ele>
        <time>2022-09-06T07:10:50.524Z</time>
      </trkpt>
      <trkpt lat="45.65645" lon="5.85716">
        <ele>263</ele>
        <time>2022-09-06T07:10:51.525Z</time>
      </trkpt>
      <trkpt lat="45.65635" lon="5.85726">
        <ele>262</ele>
        <time>2022-09-06T07:10:52.524Z</time>
      </trkpt>
      <trkpt lat="45.6562" lon="5.8574">
        <ele>262</ele>
        <time>2022-09-06T07:10:53.524Z</time>
      </trkpt>
      <trkpt lat="45.65608" lon="5.85752">
        <ele>261</ele>
        <time>2022-09-06T07:10:54.525Z</time>
      </trkpt>
      <trkpt lat="45.65597" lon="5.85762">
        <ele>260</ele>
        <time>2022-09-06T07:10:55.525Z</time>
      </trkpt>
      <trkpt lat="45.65585" lon="5.85773">
        <ele>259</ele>
        <time>2022-09-06T07:10:56.524Z</time>
      </trkpt>
      <trkpt lat="45.65574" lon="5.85784">
        <ele>258</ele>
        <time>2022-09-06T07:10:57.525Z</time>
      </trkpt>
      <trkpt lat="45.65565" lon="5.85793">
        <ele>258</ele>
        <time>2022-09-06T07:10:58.524Z</time>
      </trkpt>
      <trkpt lat="45.65551" lon="5.85806">
        <ele>257</ele>
        <time>2022-09-06T07:10:59.525Z</time>
      </trkpt>
      <trkpt lat="45.6554" lon="5.85817">
        <ele>257</ele>
        <time>2022-09-06T07:11:00.525Z</time>
      </trkpt>
      <trkpt lat="45.65529" lon="5.85828">
        <ele>256</ele>
        <time>2022-09-06T07:11:01.525Z</time>
      </trkpt>
      <trkpt lat="45.65518" lon="5.85838">
        <ele>256</ele>
        <time>2022-09-06T07:11:02.525Z</time>
      </trkpt>
      <trkpt lat="45.65508" lon="5.85848">
        <ele>255</ele>
        <time>2022-09-06T07:11:03.525Z</time>
      </trkpt>
      <trkpt lat="45.65497" lon="5.85857">
        <ele>255</ele>
        <time>2022-09-06T07:11:04.525Z</time>
      </trkpt>
      <trkpt lat="45.65485" lon="5.85864">
        <ele>255</ele>
        <time>2022-09-06T07:11:05.525Z</time>
      </trkpt>
      <trkpt lat="45.65473" lon="5.8587">
        <ele>254</ele>
        <time>2022-09-06T07:11:06.525Z</time>
      </trkpt>
      <trkpt lat="45.65461" lon="5.85874">
        <ele>254</ele>
        <time>2022-09-06T07:11:07.525Z</time>
      </trkpt>
      <trkpt lat="45.65449" lon="5.85877">
        <ele>253</ele>
        <time>2022-09-06T07:11:08.525Z</time>
      </trkpt>
      <trkpt lat="45.65437" lon="5.8588">
        <ele>252</ele>
        <time>2022-09-06T07:11:09.525Z</time>
      </trkpt>
      <trkpt lat="45.65425" lon="5.85883">
        <ele>251</ele>
        <time>2022-09-06T07:11:10.524Z</time>
      </trkpt>
      <trkpt lat="45.65414" lon="5.85885">
        <ele>251</ele>
        <time>2022-09-06T07:11:11.525Z</time>
      </trkpt>
      <trkpt lat="45.65404" lon="5.85886">
        <ele>250</ele>
        <time>2022-09-06T07:11:12.525Z</time>
      </trkpt>
      <trkpt lat="45.65394" lon="5.85888">
        <ele>250</ele>
        <time>2022-09-06T07:11:13.525Z</time>
      </trkpt>
      <trkpt lat="45.65386" lon="5.8589">
        <ele>249</ele>
        <time>2022-09-06T07:11:14.524Z</time>
      </trkpt>
      <trkpt lat="45.65377" lon="5.85893">
        <ele>249</ele>
        <time>2022-09-06T07:11:15.525Z</time>
      </trkpt>
      <trkpt lat="45.65369" lon="5.85896">
        <ele>248</ele>
        <time>2022-09-06T07:11:16.524Z</time>
      </trkpt>
      <trkpt lat="45.65358" lon="5.85898">
        <ele>248</ele>
        <time>2022-09-06T07:11:17.525Z</time>
      </trkpt>
      <trkpt lat="45.65348" lon="5.85901">
        <ele>248</ele>
        <time>2022-09-06T07:11:18.525Z</time>
      </trkpt>
      <trkpt lat="45.65339" lon="5.85904">
        <ele>247</ele>
        <time>2022-09-06T07:11:19.524Z</time>
      </trkpt>
      <trkpt lat="45.65328" lon="5.85907">
        <ele>247</ele>
        <time>2022-09-06T07:11:20.524Z</time>
      </trkpt>
      <trkpt lat="45.65319" lon="5.85909">
        <ele>247</ele>
        <time>2022-09-06T07:11:21.524Z</time>
      </trkpt>
      <trkpt lat="45.65309" lon="5.85911">
        <ele>246</ele>
        <time>2022-09-06T07:11:22.525Z</time>
      </trkpt>
      <trkpt lat="45.65301" lon="5.85914">
        <ele>246</ele>
        <time>2022-09-06T07:11:23.525Z</time>
      </trkpt>
      <trkpt lat="45.6529" lon="5.85917">
        <ele>246</ele>
        <time>2022-09-06T07:11:24.525Z</time>
      </trkpt>
      <trkpt lat="45.65281" lon="5.85921">
        <ele>246</ele>
        <time>2022-09-06T07:11:25.525Z</time>
      </trkpt>
      <trkpt lat="45.65272" lon="5.85925">
        <ele>245</ele>
        <time>2022-09-06T07:11:26.525Z</time>
      </trkpt>
      <trkpt lat="45.65263" lon="5.85929">
        <ele>244</ele>
        <time>2022-09-06T07:11:27.525Z</time>
      </trkpt>
      <trkpt lat="45.65255" lon="5.85935">
        <ele>243</ele>
        <time>2022-09-06T07:11:28.525Z</time>
      </trkpt>
      <trkpt lat="45.65247" lon="5.85943">
        <ele>242</ele>
        <time>2022-09-06T07:11:29.525Z</time>
      </trkpt>
      <trkpt lat="45.6524" lon="5.85951">
        <ele>241</ele>
        <time>2022-09-06T07:11:30.525Z</time>
      </trkpt>
      <trkpt lat="45.65233" lon="5.85959">
        <ele>240</ele>
        <time>2022-09-06T07:11:31.525Z</time>
      </trkpt>
      <trkpt lat="45.65228" lon="5.85966">
        <ele>240</ele>
        <time>2022-09-06T07:11:32.525Z</time>
      </trkpt>
      <trkpt lat="45.6522" lon="5.85977">
        <ele>240</ele>
        <time>2022-09-06T07:11:33.525Z</time>
      </trkpt>
      <trkpt lat="45.65215" lon="5.85987">
        <ele>240</ele>
        <time>2022-09-06T07:11:34.525Z</time>
      </trkpt>
      <trkpt lat="45.65209" lon="5.85997">
        <ele>240</ele>
        <time>2022-09-06T07:11:35.525Z</time>
      </trkpt>
      <trkpt lat="45.65204" lon="5.86008">
        <ele>240</ele>
        <time>2022-09-06T07:11:36.525Z</time>
      </trkpt>
      <trkpt lat="45.65199" lon="5.86019">
        <ele>241</ele>
        <time>2022-09-06T07:11:37.524Z</time>
      </trkpt>
      <trkpt lat="45.65195" lon="5.86031">
        <ele>241</ele>
        <time>2022-09-06T07:11:38.525Z</time>
      </trkpt>
      <trkpt lat="45.6519" lon="5.86043">
        <ele>241</ele>
        <time>2022-09-06T07:11:39.525Z</time>
      </trkpt>
      <trkpt lat="45.65187" lon="5.86055">
        <ele>241</ele>
        <time>2022-09-06T07:11:40.525Z</time>
      </trkpt>
      <trkpt lat="45.65183" lon="5.86067">
        <ele>241</ele>
        <time>2022-09-06T07:11:41.525Z</time>
      </trkpt>
      <trkpt lat="45.6518" lon="5.8608">
        <ele>241</ele>
        <time>2022-09-06T07:11:42.525Z</time>
      </trkpt>
      <trkpt lat="45.65177" lon="5.86093">
        <ele>241</ele>
        <time>2022-09-06T07:11:43.525Z</time>
      </trkpt>
      <trkpt lat="45.65174" lon="5.86105">
        <ele>241</ele>
        <time>2022-09-06T07:11:44.524Z</time>
      </trkpt>
      <trkpt lat="45.65171" lon="5.86116">
        <ele>241</ele>
        <time>2022-09-06T07:11:45.525Z</time>
      </trkpt>
      <trkpt lat="45.65169" lon="5.86125">
        <ele>241</ele>
        <time>2022-09-06T07:11:46.525Z</time>
      </trkpt>
      <trkpt lat="45.65167" lon="5.86133">
        <ele>241</ele>
        <time>2022-09-06T07:11:47.525Z</time>
      </trkpt>
      <trkpt lat="45.65165" lon="5.86139">
        <ele>240</ele>
        <time>2022-09-06T07:11:48.525Z</time>
      </trkpt>
      <trkpt lat="45.65163" lon="5.86144">
        <ele>240</ele>
        <time>2022-09-06T07:11:49.525Z</time>
      </trkpt>
      <trkpt lat="45.65162" lon="5.86149">
        <ele>240</ele>
        <time>2022-09-06T07:11:50.525Z</time>
      </trkpt>
      <trkpt lat="45.6516" lon="5.86155">
        <ele>240</ele>
        <time>2022-09-06T07:11:51.524Z</time>
      </trkpt>
      <trkpt lat="45.6516" lon="5.86161">
        <ele>240</ele>
        <time>2022-09-06T07:11:52.524Z</time>
      </trkpt>
      <trkpt lat="45.65159" lon="5.86168">
        <ele>240</ele>
        <time>2022-09-06T07:11:53.524Z</time>
      </trkpt>
      <trkpt lat="45.65158" lon="5.86176">
        <ele>240</ele>
        <time>2022-09-06T07:11:54.524Z</time>
      </trkpt>
      <trkpt lat="45.65157" lon="5.86182">
        <ele>241</ele>
        <time>2022-09-06T07:11:55.525Z</time>
      </trkpt>
      <trkpt lat="45.65155" lon="5.86192">
        <ele>241</ele>
        <time>2022-09-06T07:11:56.525Z</time>
      </trkpt>
      <trkpt lat="45.65153" lon="5.86201">
        <ele>241</ele>
        <time>2022-09-06T07:11:57.524Z</time>
      </trkpt>
      <trkpt lat="45.65151" lon="5.86211">
        <ele>241</ele>
        <time>2022-09-06T07:11:58.524Z</time>
      </trkpt>
      <trkpt lat="45.65148" lon="5.86222">
        <ele>241</ele>
        <time>2022-09-06T07:11:59.525Z</time>
      </trkpt>
      <trkpt lat="45.65146" lon="5.86233">
        <ele>242</ele>
        <time>2022-09-06T07:12:00.524Z</time>
      </trkpt>
      <trkpt lat="45.65143" lon="5.86242">
        <ele>242</ele>
        <time>2022-09-06T07:12:01.525Z</time>
      </trkpt>
      <trkpt lat="45.65139" lon="5.86256">
        <ele>242</ele>
        <time>2022-09-06T07:12:02.524Z</time>
      </trkpt>
      <trkpt lat="45.65135" lon="5.86268">
        <ele>242</ele>
        <time>2022-09-06T07:12:03.525Z</time>
      </trkpt>
      <trkpt lat="45.65131" lon="5.86279">
        <ele>241</ele>
        <time>2022-09-06T07:12:04.525Z</time>
      </trkpt>
      <trkpt lat="45.65127" lon="5.86291">
        <ele>241</ele>
        <time>2022-09-06T07:12:05.525Z</time>
      </trkpt>
      <trkpt lat="45.65123" lon="5.86303">
        <ele>241</ele>
        <time>2022-09-06T07:12:06.525Z</time>
      </trkpt>
      <trkpt lat="45.65118" lon="5.86315">
        <ele>242</ele>
        <time>2022-09-06T07:12:07.524Z</time>
      </trkpt>
      <trkpt lat="45.65112" lon="5.86327">
        <ele>242</ele>
        <time>2022-09-06T07:12:08.525Z</time>
      </trkpt>
      <trkpt lat="45.65107" lon="5.86338">
        <ele>242</ele>
        <time>2022-09-06T07:12:09.525Z</time>
      </trkpt>
      <trkpt lat="45.65103" lon="5.86347">
        <ele>242</ele>
        <time>2022-09-06T07:12:10.525Z</time>
      </trkpt>
      <trkpt lat="45.65096" lon="5.86359">
        <ele>242</ele>
        <time>2022-09-06T07:12:11.525Z</time>
      </trkpt>
      <trkpt lat="45.65088" lon="5.86371">
        <ele>243</ele>
        <time>2022-09-06T07:12:12.525Z</time>
      </trkpt>
      <trkpt lat="45.65082" lon="5.86381">
        <ele>243</ele>
        <time>2022-09-06T07:12:13.524Z</time>
      </trkpt>
      <trkpt lat="45.65074" lon="5.86391">
        <ele>244</ele>
        <time>2022-09-06T07:12:14.525Z</time>
      </trkpt>
      <trkpt lat="45.65067" lon="5.864">
        <ele>244</ele>
        <time>2022-09-06T07:12:15.524Z</time>
      </trkpt>
      <trkpt lat="45.6506" lon="5.86407">
        <ele>244</ele>
        <time>2022-09-06T07:12:16.525Z</time>
      </trkpt>
      <trkpt lat="45.65052" lon="5.86418">
        <ele>244</ele>
        <time>2022-09-06T07:12:17.524Z</time>
      </trkpt>
      <trkpt lat="45.65044" lon="5.86427">
        <ele>245</ele>
        <time>2022-09-06T07:12:18.525Z</time>
      </trkpt>
      <trkpt lat="45.65036" lon="5.86435">
        <ele>245</ele>
        <time>2022-09-06T07:12:19.525Z</time>
      </trkpt>
      <trkpt lat="45.6503" lon="5.8644">
        <ele>246</ele>
        <time>2022-09-06T07:12:20.525Z</time>
      </trkpt>
      <trkpt lat="45.6502" lon="5.86448">
        <ele>246</ele>
        <time>2022-09-06T07:12:21.524Z</time>
      </trkpt>
      <trkpt lat="45.65012" lon="5.86454">
        <ele>246</ele>
        <time>2022-09-06T07:12:22.524Z</time>
      </trkpt>
      <trkpt lat="45.65003" lon="5.8646">
        <ele>246</ele>
        <time>2022-09-06T07:12:23.525Z</time>
      </trkpt>
      <trkpt lat="45.64994" lon="5.86465">
        <ele>246</ele>
        <time>2022-09-06T07:12:24.525Z</time>
      </trkpt>
      <trkpt lat="45.64986" lon="5.86469">
        <ele>245</ele>
        <time>2022-09-06T07:12:25.524Z</time>
      </trkpt>
      <trkpt lat="45.64977" lon="5.86473">
        <ele>244</ele>
        <time>2022-09-06T07:12:26.525Z</time>
      </trkpt>
      <trkpt lat="45.64968" lon="5.86476">
        <ele>243</ele>
        <time>2022-09-06T07:12:27.525Z</time>
      </trkpt>
      <trkpt lat="45.64959" lon="5.86479">
        <ele>243</ele>
        <time>2022-09-06T07:12:28.525Z</time>
      </trkpt>
      <trkpt lat="45.64949" lon="5.86482">
        <ele>242</ele>
        <time>2022-09-06T07:12:29.525Z</time>
      </trkpt>
      <trkpt lat="45.6494" lon="5.86484">
        <ele>241</ele>
        <time>2022-09-06T07:12:30.525Z</time>
      </trkpt>
      <trkpt lat="45.64931" lon="5.86485">
        <ele>241</ele>
        <time>2022-09-06T07:12:31.525Z</time>
      </trkpt>
      <trkpt lat="45.64923" lon="5.86486">
        <ele>241</ele>
        <time>2022-09-06T07:12:32.525Z</time>
      </trkpt>
      <trkpt lat="45.64914" lon="5.86486">
        <ele>240</ele>
        <time>2022-09-06T07:12:33.525Z</time>
      </trkpt>
      <trkpt lat="45.64905" lon="5.86487">
        <ele>240</ele>
        <time>2022-09-06T07:12:34.525Z</time>
      </trkpt>
      <trkpt lat="45.64897" lon="5.86487">
        <ele>239</ele>
        <time>2022-09-06T07:12:35.524Z</time>
      </trkpt>
      <trkpt lat="45.64888" lon="5.86487">
        <ele>239</ele>
        <time>2022-09-06T07:12:36.525Z</time>
      </trkpt>
      <trkpt lat="45.6488" lon="5.86487">
        <ele>239</ele>
        <time>2022-09-06T07:12:37.524Z</time>
      </trkpt>
      <trkpt lat="45.64872" lon="5.86486">
        <ele>238</ele>
        <time>2022-09-06T07:12:38.525Z</time>
      </trkpt>
      <trkpt lat="45.64864" lon="5.86485">
        <ele>238</ele>
        <time>2022-09-06T07:12:39.525Z</time>
      </trkpt>
      <trkpt lat="45.64857" lon="5.86484">
        <ele>238</ele>
        <time>2022-09-06T07:12:40.525Z</time>
      </trkpt>
      <trkpt lat="45.6485" lon="5.86485">
        <ele>238</ele>
        <time>2022-09-06T07:12:41.525Z</time>
      </trkpt>
      <trkpt lat="45.64842" lon="5.86485">
        <ele>237</ele>
        <time>2022-09-06T07:12:42.525Z</time>
      </trkpt>
      <trkpt lat="45.64834" lon="5.86484">
        <ele>237</ele>
        <time>2022-09-06T07:12:43.525Z</time>
      </trkpt>
      <trkpt lat="45.64827" lon="5.86482">
        <ele>236</ele>
        <time>2022-09-06T07:12:44.524Z</time>
      </trkpt>
      <trkpt lat="45.64821" lon="5.8648">
        <ele>236</ele>
        <time>2022-09-06T07:12:45.525Z</time>
      </trkpt>
      <trkpt lat="45.64812" lon="5.86477">
        <ele>236</ele>
        <time>2022-09-06T07:12:46.524Z</time>
      </trkpt>
      <trkpt lat="45.64805" lon="5.86475">
        <ele>236</ele>
        <time>2022-09-06T07:12:47.525Z</time>
      </trkpt>
      <trkpt lat="45.64798" lon="5.86474">
        <ele>236</ele>
        <time>2022-09-06T07:12:48.525Z</time>
      </trkpt>
      <trkpt lat="45.64793" lon="5.86474">
        <ele>235</ele>
        <time>2022-09-06T07:12:49.525Z</time>
      </trkpt>
      <trkpt lat="45.64786" lon="5.86475">
        <ele>235</ele>
        <time>2022-09-06T07:12:50.525Z</time>
      </trkpt>
      <trkpt lat="45.64781" lon="5.86481">
        <ele>235</ele>
        <time>2022-09-06T07:12:51.524Z</time>
      </trkpt>
      <trkpt lat="45.64779" lon="5.86488">
        <ele>234</ele>
        <time>2022-09-06T07:12:52.525Z</time>
      </trkpt>
      <trkpt lat="45.64778" lon="5.86497">
        <ele>234</ele>
        <time>2022-09-06T07:12:53.525Z</time>
      </trkpt>
      <trkpt lat="45.64779" lon="5.86506">
        <ele>234</ele>
        <time>2022-09-06T07:12:54.525Z</time>
      </trkpt>
      <trkpt lat="45.6478" lon="5.86517">
        <ele>234</ele>
        <time>2022-09-06T07:12:55.525Z</time>
      </trkpt>
      <trkpt lat="45.64781" lon="5.86528">
        <ele>234</ele>
        <time>2022-09-06T07:12:56.525Z</time>
      </trkpt>
      <trkpt lat="45.64783" lon="5.8654">
        <ele>234</ele>
        <time>2022-09-06T07:12:57.525Z</time>
      </trkpt>
      <trkpt lat="45.64785" lon="5.86552">
        <ele>235</ele>
        <time>2022-09-06T07:12:58.525Z</time>
      </trkpt>
      <trkpt lat="45.64787" lon="5.86562">
        <ele>235</ele>
        <time>2022-09-06T07:12:59.525Z</time>
      </trkpt>
      <trkpt lat="45.64789" lon="5.86577">
        <ele>236</ele>
        <time>2022-09-06T07:13:00.525Z</time>
      </trkpt>
      <trkpt lat="45.64791" lon="5.86589">
        <ele>236</ele>
        <time>2022-09-06T07:13:01.524Z</time>
      </trkpt>
      <trkpt lat="45.64792" lon="5.86602">
        <ele>236</ele>
        <time>2022-09-06T07:13:02.525Z</time>
      </trkpt>
      <trkpt lat="45.64794" lon="5.86615">
        <ele>236</ele>
        <time>2022-09-06T07:13:03.525Z</time>
      </trkpt>
      <trkpt lat="45.64795" lon="5.86627">
        <ele>236</ele>
        <time>2022-09-06T07:13:04.525Z</time>
      </trkpt>
      <trkpt lat="45.64796" lon="5.86641">
        <ele>236</ele>
        <time>2022-09-06T07:13:05.525Z</time>
      </trkpt>
      <trkpt lat="45.64798" lon="5.86653">
        <ele>237</ele>
        <time>2022-09-06T07:13:06.525Z</time>
      </trkpt>
      <trkpt lat="45.64798" lon="5.86666">
        <ele>237</ele>
        <time>2022-09-06T07:13:07.525Z</time>
      </trkpt>
      <trkpt lat="45.64799" lon="5.86678">
        <ele>237</ele>
        <time>2022-09-06T07:13:08.525Z</time>
      </trkpt>
      <trkpt lat="45.648" lon="5.8669">
        <ele>238</ele>
        <time>2022-09-06T07:13:09.525Z</time>
      </trkpt>
      <trkpt lat="45.648" lon="5.86702">
        <ele>239</ele>
        <time>2022-09-06T07:13:10.525Z</time>
      </trkpt>
      <trkpt lat="45.648" lon="5.86714">
        <ele>239</ele>
        <time>2022-09-06T07:13:11.525Z</time>
      </trkpt>
      <trkpt lat="45.64801" lon="5.86726">
        <ele>239</ele>
        <time>2022-09-06T07:13:12.525Z</time>
      </trkpt>
      <trkpt lat="45.64802" lon="5.86736">
        <ele>239</ele>
        <time>2022-09-06T07:13:13.525Z</time>
      </trkpt>
      <trkpt lat="45.64803" lon="5.86749">
        <ele>240</ele>
        <time>2022-09-06T07:13:14.525Z</time>
      </trkpt>
      <trkpt lat="45.64804" lon="5.86763">
        <ele>240</ele>
        <time>2022-09-06T07:13:15.524Z</time>
      </trkpt>
      <trkpt lat="45.64805" lon="5.86776">
        <ele>240</ele>
        <time>2022-09-06T07:13:16.525Z</time>
      </trkpt>
      <trkpt lat="45.64806" lon="5.86788">
        <ele>240</ele>
        <time>2022-09-06T07:13:17.524Z</time>
      </trkpt>
      <trkpt lat="45.64807" lon="5.86801">
        <ele>241</ele>
        <time>2022-09-06T07:13:18.525Z</time>
      </trkpt>
      <trkpt lat="45.64807" lon="5.86811">
        <ele>241</ele>
        <time>2022-09-06T07:13:19.524Z</time>
      </trkpt>
      <trkpt lat="45.64807" lon="5.86826">
        <ele>241</ele>
        <time>2022-09-06T07:13:20.524Z</time>
      </trkpt>
      <trkpt lat="45.64807" lon="5.86838">
        <ele>241</ele>
        <time>2022-09-06T07:13:21.525Z</time>
      </trkpt>
      <trkpt lat="45.64808" lon="5.86848">
        <ele>241</ele>
        <time>2022-09-06T07:13:22.525Z</time>
      </trkpt>
      <trkpt lat="45.64808" lon="5.8686">
        <ele>242</ele>
        <time>2022-09-06T07:13:23.525Z</time>
      </trkpt>
      <trkpt lat="45.6481" lon="5.86875">
        <ele>242</ele>
        <time>2022-09-06T07:13:24.525Z</time>
      </trkpt>
      <trkpt lat="45.6481" lon="5.86887">
        <ele>241</ele>
        <time>2022-09-06T07:13:25.525Z</time>
      </trkpt>
      <trkpt lat="45.64811" lon="5.86899">
        <ele>241</ele>
        <time>2022-09-06T07:13:26.524Z</time>
      </trkpt>
      <trkpt lat="45.64813" lon="5.86911">
        <ele>242</ele>
        <time>2022-09-06T07:13:27.525Z</time>
      </trkpt>
      <trkpt lat="45.64812" lon="5.86921">
        <ele>242</ele>
        <time>2022-09-06T07:13:28.525Z</time>
      </trkpt>
      <trkpt lat="45.64813" lon="5.86933">
        <ele>242</ele>
        <time>2022-09-06T07:13:29.525Z</time>
      </trkpt>
      <trkpt lat="45.64813" lon="5.86948">
        <ele>241</ele>
        <time>2022-09-06T07:13:30.525Z</time>
      </trkpt>
      <trkpt lat="45.64813" lon="5.8696">
        <ele>241</ele>
        <time>2022-09-06T07:13:31.525Z</time>
      </trkpt>
      <trkpt lat="45.64813" lon="5.86972">
        <ele>241</ele>
        <time>2022-09-06T07:13:32.525Z</time>
      </trkpt>
      <trkpt lat="45.64813" lon="5.86985">
        <ele>241</ele>
        <time>2022-09-06T07:13:33.525Z</time>
      </trkpt>
      <trkpt lat="45.64813" lon="5.86997">
        <ele>241</ele>
        <time>2022-09-06T07:13:34.525Z</time>
      </trkpt>
      <trkpt lat="45.64814" lon="5.87009">
        <ele>241</ele>
        <time>2022-09-06T07:13:35.525Z</time>
      </trkpt>
      <trkpt lat="45.64815" lon="5.87021">
        <ele>241</ele>
        <time>2022-09-06T07:13:36.525Z</time>
      </trkpt>
      <trkpt lat="45.64816" lon="5.87033">
        <ele>241</ele>
        <time>2022-09-06T07:13:37.525Z</time>
      </trkpt>
      <trkpt lat="45.64816" lon="5.87045">
        <ele>241</ele>
        <time>2022-09-06T07:13:38.525Z</time>
      </trkpt>
      <trkpt lat="45.64817" lon="5.87057">
        <ele>241</ele>
        <time>2022-09-06T07:13:39.525Z</time>
      </trkpt>
      <trkpt lat="45.64818" lon="5.87069">
        <ele>241</ele>
        <time>2022-09-06T07:13:40.525Z</time>
      </trkpt>
      <trkpt lat="45.64818" lon="5.87081">
        <ele>241</ele>
        <time>2022-09-06T07:13:41.524Z</time>
      </trkpt>
      <trkpt lat="45.64819" lon="5.87091">
        <ele>241</ele>
        <time>2022-09-06T07:13:42.524Z</time>
      </trkpt>
      <trkpt lat="45.64819" lon="5.87103">
        <ele>240</ele>
        <time>2022-09-06T07:13:43.525Z</time>
      </trkpt>
      <trkpt lat="45.6482" lon="5.87117">
        <ele>240</ele>
        <time>2022-09-06T07:13:44.524Z</time>
      </trkpt>
      <trkpt lat="45.6482" lon="5.87129">
        <ele>240</ele>
        <time>2022-09-06T07:13:45.525Z</time>
      </trkpt>
      <trkpt lat="45.64821" lon="5.87141">
        <ele>240</ele>
        <time>2022-09-06T07:13:46.524Z</time>
      </trkpt>
      <trkpt lat="45.64822" lon="5.87151">
        <ele>239</ele>
        <time>2022-09-06T07:13:47.525Z</time>
      </trkpt>
      <trkpt lat="45.64822" lon="5.87162">
        <ele>239</ele>
        <time>2022-09-06T07:13:48.524Z</time>
      </trkpt>
      <trkpt lat="45.64822" lon="5.87174">
        <ele>239</ele>
        <time>2022-09-06T07:13:49.525Z</time>
      </trkpt>
      <trkpt lat="45.64822" lon="5.87189">
        <ele>239</ele>
        <time>2022-09-06T07:13:50.524Z</time>
      </trkpt>
      <trkpt lat="45.64822" lon="5.872">
        <ele>239</ele>
        <time>2022-09-06T07:13:51.525Z</time>
      </trkpt>
      <trkpt lat="45.64822" lon="5.8721">
        <ele>238</ele>
        <time>2022-09-06T07:13:52.525Z</time>
      </trkpt>
      <trkpt lat="45.64822" lon="5.87222">
        <ele>239</ele>
        <time>2022-09-06T07:13:53.525Z</time>
      </trkpt>
      <trkpt lat="45.64821" lon="5.87233">
        <ele>238</ele>
        <time>2022-09-06T07:13:54.525Z</time>
      </trkpt>
      <trkpt lat="45.6482" lon="5.87247">
        <ele>238</ele>
        <time>2022-09-06T07:13:55.525Z</time>
      </trkpt>
      <trkpt lat="45.64819" lon="5.87256">
        <ele>238</ele>
        <time>2022-09-06T07:13:56.525Z</time>
      </trkpt>
      <trkpt lat="45.64817" lon="5.87267">
        <ele>238</ele>
        <time>2022-09-06T07:13:57.525Z</time>
      </trkpt>
      <trkpt lat="45.64815" lon="5.8728">
        <ele>238</ele>
        <time>2022-09-06T07:13:58.525Z</time>
      </trkpt>
      <trkpt lat="45.64813" lon="5.87291">
        <ele>239</ele>
        <time>2022-09-06T07:13:59.525Z</time>
      </trkpt>
      <trkpt lat="45.64811" lon="5.87302">
        <ele>239</ele>
        <time>2022-09-06T07:14:00.525Z</time>
      </trkpt>
      <trkpt lat="45.6481" lon="5.87313">
        <ele>239</ele>
        <time>2022-09-06T07:14:01.525Z</time>
      </trkpt>
      <trkpt lat="45.64809" lon="5.87322">
        <ele>238</ele>
        <time>2022-09-06T07:14:02.525Z</time>
      </trkpt>
      <trkpt lat="45.64809" lon="5.87334">
        <ele>238</ele>
        <time>2022-09-06T07:14:03.525Z</time>
      </trkpt>
      <trkpt lat="45.64809" lon="5.87345">
        <ele>238</ele>
        <time>2022-09-06T07:14:04.525Z</time>
      </trkpt>
      <trkpt lat="45.64808" lon="5.87354">
        <ele>238</ele>
        <time>2022-09-06T07:14:05.525Z</time>
      </trkpt>
      <trkpt lat="45.64805" lon="5.87361">
        <ele>237</ele>
        <time>2022-09-06T07:14:06.525Z</time>
      </trkpt>
      <trkpt lat="45.64802" lon="5.87368">
        <ele>237</ele>
        <time>2022-09-06T07:14:07.524Z</time>
      </trkpt>
      <trkpt lat="45.64796" lon="5.87373">
        <ele>237</ele>
        <time>2022-09-06T07:14:08.525Z</time>
      </trkpt>
      <trkpt lat="45.64791" lon="5.87374">
        <ele>236</ele>
        <time>2022-09-06T07:14:09.524Z</time>
      </trkpt>
      <trkpt lat="45.64783" lon="5.87372">
        <ele>236</ele>
        <time>2022-09-06T07:14:10.525Z</time>
      </trkpt>
      <trkpt lat="45.64778" lon="5.87369">
        <ele>236</ele>
        <time>2022-09-06T07:14:11.525Z</time>
      </trkpt>
      <trkpt lat="45.64772" lon="5.87363">
        <ele>236</ele>
        <time>2022-09-06T07:14:12.525Z</time>
      </trkpt>
      <trkpt lat="45.64766" lon="5.87354">
        <ele>236</ele>
        <time>2022-09-06T07:14:13.524Z</time>
      </trkpt>
      <trkpt lat="45.64759" lon="5.87346">
        <ele>237</ele>
        <time>2022-09-06T07:14:14.525Z</time>
      </trkpt>
      <trkpt lat="45.64751" lon="5.87336">
        <ele>237</ele>
        <time>2022-09-06T07:14:15.524Z</time>
      </trkpt>
      <trkpt lat="45.64745" lon="5.87327">
        <ele>237</ele>
        <time>2022-09-06T07:14:16.525Z</time>
      </trkpt>
      <trkpt lat="45.6474" lon="5.8732">
        <ele>237</ele>
        <time>2022-09-06T07:14:17.524Z</time>
      </trkpt>
      <trkpt lat="45.64734" lon="5.87311">
        <ele>237</ele>
        <time>2022-09-06T07:14:18.525Z</time>
      </trkpt>
      <trkpt lat="45.64728" lon="5.87303">
        <ele>237</ele>
        <time>2022-09-06T07:14:19.525Z</time>
      </trkpt>
      <trkpt lat="45.64722" lon="5.87295">
        <ele>237</ele>
        <time>2022-09-06T07:14:20.525Z</time>
      </trkpt>
      <trkpt lat="45.64717" lon="5.87288">
        <ele>238</ele>
        <time>2022-09-06T07:14:21.525Z</time>
      </trkpt>
      <trkpt lat="45.64711" lon="5.8728">
        <ele>238</ele>
        <time>2022-09-06T07:14:22.525Z</time>
      </trkpt>
      <trkpt lat="45.64705" lon="5.87273">
        <ele>238</ele>
        <time>2022-09-06T07:14:23.525Z</time>
      </trkpt>
      <trkpt lat="45.64699" lon="5.87266">
        <ele>238</ele>
        <time>2022-09-06T07:14:24.525Z</time>
      </trkpt>
      <trkpt lat="45.64692" lon="5.87258">
        <ele>238</ele>
        <time>2022-09-06T07:14:25.524Z</time>
      </trkpt>
      <trkpt lat="45.64688" lon="5.87252">
        <ele>238</ele>
        <time>2022-09-06T07:14:26.524Z</time>
      </trkpt>
      <trkpt lat="45.64682" lon="5.87245">
        <ele>238</ele>
        <time>2022-09-06T07:14:27.524Z</time>
      </trkpt>
      <trkpt lat="45.64676" lon="5.87237">
        <ele>238</ele>
        <time>2022-09-06T07:14:28.525Z</time>
      </trkpt>
      <trkpt lat="45.6467" lon="5.8723">
        <ele>238</ele>
        <time>2022-09-06T07:14:29.524Z</time>
      </trkpt>
      <trkpt lat="45.64665" lon="5.87222">
        <ele>238</ele>
        <time>2022-09-06T07:14:30.525Z</time>
      </trkpt>
      <trkpt lat="45.64659" lon="5.87216">
        <ele>238</ele>
        <time>2022-09-06T07:14:31.525Z</time>
      </trkpt>
      <trkpt lat="45.64654" lon="5.87209">
        <ele>238</ele>
        <time>2022-09-06T07:14:32.525Z</time>
      </trkpt>
      <trkpt lat="45.64649" lon="5.87202">
        <ele>238</ele>
        <time>2022-09-06T07:14:33.525Z</time>
      </trkpt>
      <trkpt lat="45.64644" lon="5.87195">
        <ele>238</ele>
        <time>2022-09-06T07:14:34.525Z</time>
      </trkpt>
      <trkpt lat="45.6464" lon="5.87189">
        <ele>238</ele>
        <time>2022-09-06T07:14:35.524Z</time>
      </trkpt>
      <trkpt lat="45.64637" lon="5.87182">
        <ele>238</ele>
        <time>2022-09-06T07:14:36.525Z</time>
      </trkpt>
      <trkpt lat="45.64634" lon="5.87175">
        <ele>237</ele>
        <time>2022-09-06T07:14:37.525Z</time>
      </trkpt>
      <trkpt lat="45.64633" lon="5.87167">
        <ele>237</ele>
        <time>2022-09-06T07:14:38.524Z</time>
      </trkpt>
      <trkpt lat="45.6463" lon="5.8716">
        <ele>237</ele>
        <time>2022-09-06T07:14:39.524Z</time>
      </trkpt>
      <trkpt lat="45.64627" lon="5.87154">
        <ele>236</ele>
        <time>2022-09-06T07:14:40.525Z</time>
      </trkpt>
      <trkpt lat="45.64623" lon="5.87152">
        <ele>236</ele>
        <time>2022-09-06T07:14:41.525Z</time>
      </trkpt>
      <trkpt lat="45.64618" lon="5.87151">
        <ele>236</ele>
        <time>2022-09-06T07:14:42.525Z</time>
      </trkpt>
      <trkpt lat="45.64614" lon="5.87154">
        <ele>236</ele>
        <time>2022-09-06T07:14:43.525Z</time>
      </trkpt>
      <trkpt lat="45.64612" lon="5.87159">
        <ele>235</ele>
        <time>2022-09-06T07:14:44.525Z</time>
      </trkpt>
      <trkpt lat="45.6461" lon="5.87167">
        <ele>235</ele>
        <time>2022-09-06T07:14:45.525Z</time>
      </trkpt>
      <trkpt lat="45.64608" lon="5.87175">
        <ele>235</ele>
        <time>2022-09-06T07:14:46.524Z</time>
      </trkpt>
      <trkpt lat="45.64606" lon="5.87185">
        <ele>235</ele>
        <time>2022-09-06T07:14:47.524Z</time>
      </trkpt>
      <trkpt lat="45.64602" lon="5.87194">
        <ele>236</ele>
        <time>2022-09-06T07:14:48.525Z</time>
      </trkpt>
      <trkpt lat="45.64598" lon="5.87203">
        <ele>236</ele>
        <time>2022-09-06T07:14:49.525Z</time>
      </trkpt>
      <trkpt lat="45.64593" lon="5.87212">
        <ele>237</ele>
        <time>2022-09-06T07:14:50.524Z</time>
      </trkpt>
      <trkpt lat="45.64589" lon="5.87221">
        <ele>237</ele>
        <time>2022-09-06T07:14:51.524Z</time>
      </trkpt>
      <trkpt lat="45.64584" lon="5.87229">
        <ele>237</ele>
        <time>2022-09-06T07:14:52.524Z</time>
      </trkpt>
      <trkpt lat="45.64577" lon="5.8724">
        <ele>238</ele>
        <time>2022-09-06T07:14:53.525Z</time>
      </trkpt>
      <trkpt lat="45.64573" lon="5.87245">
        <ele>238</ele>
        <time>2022-09-06T07:14:54.525Z</time>
      </trkpt>
      <trkpt lat="45.64568" lon="5.87254">
        <ele>238</ele>
        <time>2022-09-06T07:14:55.525Z</time>
      </trkpt>
      <trkpt lat="45.64563" lon="5.87261">
        <ele>239</ele>
        <time>2022-09-06T07:14:56.524Z</time>
      </trkpt>
      <trkpt lat="45.64557" lon="5.8727">
        <ele>240</ele>
        <time>2022-09-06T07:14:57.525Z</time>
      </trkpt>
      <trkpt lat="45.64553" lon="5.87277">
        <ele>240</ele>
        <time>2022-09-06T07:14:58.525Z</time>
      </trkpt>
      <trkpt lat="45.64548" lon="5.87284">
        <ele>240</ele>
        <time>2022-09-06T07:14:59.524Z</time>
      </trkpt>
      <trkpt lat="45.64542" lon="5.87291">
        <ele>241</ele>
        <time>2022-09-06T07:15:00.524Z</time>
      </trkpt>
      <trkpt lat="45.64536" lon="5.87298">
        <ele>241</ele>
        <time>2022-09-06T07:15:01.525Z</time>
      </trkpt>
      <trkpt lat="45.6453" lon="5.87303">
        <ele>241</ele>
        <time>2022-09-06T07:15:02.525Z</time>
      </trkpt>
      <trkpt lat="45.64523" lon="5.87307">
        <ele>241</ele>
        <time>2022-09-06T07:15:03.525Z</time>
      </trkpt>
      <trkpt lat="45.64515" lon="5.8731">
        <ele>242</ele>
        <time>2022-09-06T07:15:04.525Z</time>
      </trkpt>
      <trkpt lat="45.64509" lon="5.87312">
        <ele>242</ele>
        <time>2022-09-06T07:15:05.525Z</time>
      </trkpt>
      <trkpt lat="45.64502" lon="5.87315">
        <ele>242</ele>
        <time>2022-09-06T07:15:06.525Z</time>
      </trkpt>
      <trkpt lat="45.64494" lon="5.87317">
        <ele>242</ele>
        <time>2022-09-06T07:15:07.525Z</time>
      </trkpt>
      <trkpt lat="45.64486" lon="5.8732">
        <ele>241</ele>
        <time>2022-09-06T07:15:08.525Z</time>
      </trkpt>
      <trkpt lat="45.64477" lon="5.87324">
        <ele>240</ele>
        <time>2022-09-06T07:15:09.525Z</time>
      </trkpt>
      <trkpt lat="45.64471" lon="5.87326">
        <ele>240</ele>
        <time>2022-09-06T07:15:10.524Z</time>
      </trkpt>
      <trkpt lat="45.64463" lon="5.87329">
        <ele>239</ele>
        <time>2022-09-06T07:15:11.525Z</time>
      </trkpt>
      <trkpt lat="45.64455" lon="5.87332">
        <ele>239</ele>
        <time>2022-09-06T07:15:12.525Z</time>
      </trkpt>
      <trkpt lat="45.64447" lon="5.87335">
        <ele>238</ele>
        <time>2022-09-06T07:15:13.525Z</time>
      </trkpt>
      <trkpt lat="45.6444" lon="5.87338">
        <ele>238</ele>
        <time>2022-09-06T07:15:14.524Z</time>
      </trkpt>
      <trkpt lat="45.64432" lon="5.87341">
        <ele>237</ele>
        <time>2022-09-06T07:15:15.525Z</time>
      </trkpt>
      <trkpt lat="45.64425" lon="5.87344">
        <ele>237</ele>
        <time>2022-09-06T07:15:16.525Z</time>
      </trkpt>
      <trkpt lat="45.64418" lon="5.87347">
        <ele>236</ele>
        <time>2022-09-06T07:15:17.525Z</time>
      </trkpt>
      <trkpt lat="45.64411" lon="5.8735">
        <ele>236</ele>
        <time>2022-09-06T07:15:18.524Z</time>
      </trkpt>
      <trkpt lat="45.64404" lon="5.87353">
        <ele>236</ele>
        <time>2022-09-06T07:15:19.525Z</time>
      </trkpt>
      <trkpt lat="45.64399" lon="5.87355">
        <ele>236</ele>
        <time>2022-09-06T07:15:20.525Z</time>
      </trkpt>
      <trkpt lat="45.64392" lon="5.87356">
        <ele>236</ele>
        <time>2022-09-06T07:15:21.525Z</time>
      </trkpt>
      <trkpt lat="45.64386" lon="5.87355">
        <ele>236</ele>
        <time>2022-09-06T07:15:22.525Z</time>
      </trkpt>
      <trkpt lat="45.6438" lon="5.87354">
        <ele>235</ele>
        <time>2022-09-06T07:15:23.525Z</time>
      </trkpt>
      <trkpt lat="45.64374" lon="5.87354">
        <ele>235</ele>
        <time>2022-09-06T07:15:24.524Z</time>
      </trkpt>
      <trkpt lat="45.64369" lon="5.87356">
        <ele>234</ele>
        <time>2022-09-06T07:15:25.525Z</time>
      </trkpt>
      <trkpt lat="45.64364" lon="5.8736">
        <ele>234</ele>
        <time>2022-09-06T07:15:26.525Z</time>
      </trkpt>
      <trkpt lat="45.64358" lon="5.87364">
        <ele>233</ele>
        <time>2022-09-06T07:15:27.525Z</time>
      </trkpt>
      <trkpt lat="45.64351" lon="5.87369">
        <ele>233</ele>
        <time>2022-09-06T07:15:28.524Z</time>
      </trkpt>
      <trkpt lat="45.64344" lon="5.87372">
        <ele>234</ele>
        <time>2022-09-06T07:15:29.525Z</time>
      </trkpt>
      <trkpt lat="45.64339" lon="5.87374">
        <ele>234</ele>
        <time>2022-09-06T07:15:30.525Z</time>
      </trkpt>
      <trkpt lat="45.64332" lon="5.87377">
        <ele>233</ele>
        <time>2022-09-06T07:15:31.525Z</time>
      </trkpt>
      <trkpt lat="45.64325" lon="5.87379">
        <ele>233</ele>
        <time>2022-09-06T07:15:32.524Z</time>
      </trkpt>
      <trkpt lat="45.64318" lon="5.87381">
        <ele>233</ele>
        <time>2022-09-06T07:15:33.524Z</time>
      </trkpt>
      <trkpt lat="45.64311" lon="5.87384">
        <ele>234</ele>
        <time>2022-09-06T07:15:34.524Z</time>
      </trkpt>
      <trkpt lat="45.64304" lon="5.87386">
        <ele>234</ele>
        <time>2022-09-06T07:15:35.525Z</time>
      </trkpt>
      <trkpt lat="45.64297" lon="5.87388">
        <ele>234</ele>
        <time>2022-09-06T07:15:36.524Z</time>
      </trkpt>
      <trkpt lat="45.6429" lon="5.87391">
        <ele>235</ele>
        <time>2022-09-06T07:15:37.525Z</time>
      </trkpt>
      <trkpt lat="45.64283" lon="5.87393">
        <ele>235</ele>
        <time>2022-09-06T07:15:38.525Z</time>
      </trkpt>
      <trkpt lat="45.64275" lon="5.87396">
        <ele>235</ele>
        <time>2022-09-06T07:15:39.525Z</time>
      </trkpt>
      <trkpt lat="45.64269" lon="5.87398">
        <ele>235</ele>
        <time>2022-09-06T07:15:40.525Z</time>
      </trkpt>
      <trkpt lat="45.64263" lon="5.874">
        <ele>235</ele>
        <time>2022-09-06T07:15:41.524Z</time>
      </trkpt>
      <trkpt lat="45.64255" lon="5.87402">
        <ele>235</ele>
        <time>2022-09-06T07:15:42.525Z</time>
      </trkpt>
      <trkpt lat="45.64249" lon="5.87404">
        <ele>235</ele>
        <time>2022-09-06T07:15:43.524Z</time>
      </trkpt>
      <trkpt lat="45.64243" lon="5.87405">
        <ele>235</ele>
        <time>2022-09-06T07:15:44.525Z</time>
      </trkpt>
      <trkpt lat="45.64237" lon="5.87407">
        <ele>236</ele>
        <time>2022-09-06T07:15:45.525Z</time>
      </trkpt>
      <trkpt lat="45.64231" lon="5.8741">
        <ele>236</ele>
        <time>2022-09-06T07:15:46.525Z</time>
      </trkpt>
      <trkpt lat="45.64225" lon="5.87412">
        <ele>236</ele>
        <time>2022-09-06T07:15:47.525Z</time>
      </trkpt>
      <trkpt lat="45.64218" lon="5.87413">
        <ele>236</ele>
        <time>2022-09-06T07:15:48.525Z</time>
      </trkpt>
      <trkpt lat="45.64212" lon="5.87412">
        <ele>236</ele>
        <time>2022-09-06T07:15:49.524Z</time>
      </trkpt>
      <trkpt lat="45.64208" lon="5.87409">
        <ele>236</ele>
        <time>2022-09-06T07:15:50.525Z</time>
      </trkpt>
      <trkpt lat="45.64204" lon="5.87404">
        <ele>235</ele>
        <time>2022-09-06T07:15:51.525Z</time>
      </trkpt>
      <trkpt lat="45.642" lon="5.87399">
        <ele>236</ele>
        <time>2022-09-06T07:15:52.525Z</time>
      </trkpt>
      <trkpt lat="45.64198" lon="5.87391">
        <ele>236</ele>
        <time>2022-09-06T07:15:53.524Z</time>
      </trkpt>
      <trkpt lat="45.64196" lon="5.87384">
        <ele>237</ele>
        <time>2022-09-06T07:15:54.525Z</time>
      </trkpt>
      <trkpt lat="45.64195" lon="5.87375">
        <ele>237</ele>
        <time>2022-09-06T07:15:55.524Z</time>
      </trkpt>
      <trkpt lat="45.64194" lon="5.87366">
        <ele>238</ele>
        <time>2022-09-06T07:15:56.525Z</time>
      </trkpt>
      <trkpt lat="45.64193" lon="5.87358">
        <ele>239</ele>
        <time>2022-09-06T07:15:57.524Z</time>
      </trkpt>
      <trkpt lat="45.64193" lon="5.87348">
        <ele>239</ele>
        <time>2022-09-06T07:15:58.525Z</time>
      </trkpt>
      <trkpt lat="45.64191" lon="5.8734">
        <ele>240</ele>
        <time>2022-09-06T07:15:59.524Z</time>
      </trkpt>
      <trkpt lat="45.6419" lon="5.87333">
        <ele>240</ele>
        <time>2022-09-06T07:16:00.524Z</time>
      </trkpt>
      <trkpt lat="45.64189" lon="5.87328">
        <ele>241</ele>
        <time>2022-09-06T07:16:01.524Z</time>
      </trkpt>
      <trkpt lat="45.64189" lon="5.87323">
        <ele>241</ele>
        <time>2022-09-06T07:16:02.524Z</time>
      </trkpt>
      <trkpt lat="45.6419" lon="5.8732">
        <ele>241</ele>
        <time>2022-09-06T07:16:03.524Z</time>
      </trkpt>
      <trkpt lat="45.64189" lon="5.87318">
        <ele>241</ele>
        <time>2022-09-06T07:16:04.524Z</time>
      </trkpt>
      <trkpt lat="45.64188" lon="5.87317">
        <ele>241</ele>
        <time>2022-09-06T07:16:05.524Z</time>
      </trkpt>
      <trkpt lat="45.64187" lon="5.87317">
        <ele>242</ele>
        <time>2022-09-06T07:16:06.524Z</time>
      </trkpt>
      <trkpt lat="45.64184" lon="5.87317">
        <ele>243</ele>
        <time>2022-09-06T07:16:07.525Z</time>
      </trkpt>
      <trkpt lat="45.64181" lon="5.87318">
        <ele>243</ele>
        <time>2022-09-06T07:16:08.525Z</time>
      </trkpt>
      <trkpt lat="45.64177" lon="5.87319">
        <ele>244</ele>
        <time>2022-09-06T07:16:09.525Z</time>
      </trkpt>
      <trkpt lat="45.64173" lon="5.87322">
        <ele>244</ele>
        <time>2022-09-06T07:16:10.525Z</time>
      </trkpt>
      <trkpt lat="45.6417" lon="5.87324">
        <ele>245</ele>
        <time>2022-09-06T07:16:11.525Z</time>
      </trkpt>
      <trkpt lat="45.64167" lon="5.87327">
        <ele>246</ele>
        <time>2022-09-06T07:16:12.525Z</time>
      </trkpt>
      <trkpt lat="45.64165" lon="5.87329">
        <ele>246</ele>
        <time>2022-09-06T07:16:13.525Z</time>
      </trkpt>
      <trkpt lat="45.64162" lon="5.8733">
        <ele>247</ele>
        <time>2022-09-06T07:16:14.525Z</time>
      </trkpt>
      <trkpt lat="45.64161" lon="5.8733">
        <ele>248</ele>
        <time>2022-09-06T07:16:15.525Z</time>
      </trkpt>
      <trkpt lat="45.64159" lon="5.8733">
        <ele>248</ele>
        <time>2022-09-06T07:16:16.525Z</time>
      </trkpt>
      <trkpt lat="45.64157" lon="5.87329">
        <ele>249</ele>
        <time>2022-09-06T07:16:17.525Z</time>
      </trkpt>
      <trkpt lat="45.64155" lon="5.87328">
        <ele>249</ele>
        <time>2022-09-06T07:16:18.524Z</time>
      </trkpt>
      <trkpt lat="45.64155" lon="5.87327">
        <ele>249</ele>
        <time>2022-09-06T07:16:20.602Z</time>
      </trkpt>
      <trkpt lat="45.64156" lon="5.87328">
        <ele>249</ele>
        <time>2022-09-06T07:16:21.602Z</time>
      </trkpt>
      <trkpt lat="45.64156" lon="5.87328">
        <ele>249</ele>
        <time>2022-09-06T07:16:22.601Z</time>
      </trkpt>
    </trkseg>
  </trk>
</gpx>